<?xml version="1.0" encoding="UTF-8" standalone="no" ?>
<gpx xmlns="http://www.topografix.com/GPX/1/1" xmlns:xsi="http://www.w3.org/2001/XMLSchema-instance" xsi:schemaLocation="http://www.topografix.com/GPX/1/1 http://www.topografix.com/GPX/1/1/gpx.xsd" version="1.1" creator="VisuGPX - https://www.visugpx.com">
  <metadata>
    <name>2020/09/06 Le Hohwald - Le Champs du Feu</name>
    <desc><![CDATA[Club Vosgien Dossenheim - 6 participants - guide E. Audrey]]></desc>
  </metadata>
  <trk>
    <name><![CDATA[2020/09/06 Le Hohwald - Le Champs du Feu_1]]></name>
    <trkseg>
      <trkpt lat="48.40408" lon="7.32852">
        <ele>581</ele>
        <time>2020-09-06T07:30:02.342Z</time>
      </trkpt>
      <trkpt lat="48.40408" lon="7.32852">
        <ele>581</ele>
        <time>2020-09-06T07:30:03.344Z</time>
      </trkpt>
      <trkpt lat="48.40407" lon="7.32851">
        <ele>581</ele>
        <time>2020-09-06T07:30:04.345Z</time>
      </trkpt>
      <trkpt lat="48.40405" lon="7.32849">
        <ele>581</ele>
        <time>2020-09-06T07:30:05.345Z</time>
      </trkpt>
      <trkpt lat="48.40404" lon="7.32847">
        <ele>581</ele>
        <time>2020-09-06T07:30:06.345Z</time>
      </trkpt>
      <trkpt lat="48.40402" lon="7.32846">
        <ele>581</ele>
        <time>2020-09-06T07:30:07.344Z</time>
      </trkpt>
      <trkpt lat="48.40401" lon="7.32844">
        <ele>580</ele>
        <time>2020-09-06T07:30:08.345Z</time>
      </trkpt>
      <trkpt lat="48.404" lon="7.32842">
        <ele>580</ele>
        <time>2020-09-06T07:30:09.344Z</time>
      </trkpt>
      <trkpt lat="48.40399" lon="7.3284">
        <ele>580</ele>
        <time>2020-09-06T07:30:10.345Z</time>
      </trkpt>
      <trkpt lat="48.40398" lon="7.32839">
        <ele>580</ele>
        <time>2020-09-06T07:30:11.344Z</time>
      </trkpt>
      <trkpt lat="48.40397" lon="7.32838">
        <ele>580</ele>
        <time>2020-09-06T07:30:12.345Z</time>
      </trkpt>
      <trkpt lat="48.40396" lon="7.32836">
        <ele>580</ele>
        <time>2020-09-06T07:30:13.345Z</time>
      </trkpt>
      <trkpt lat="48.40396" lon="7.32835">
        <ele>579</ele>
        <time>2020-09-06T07:30:14.345Z</time>
      </trkpt>
      <trkpt lat="48.40396" lon="7.32833">
        <ele>579</ele>
        <time>2020-09-06T07:30:15.345Z</time>
      </trkpt>
      <trkpt lat="48.40396" lon="7.32832">
        <ele>579</ele>
        <time>2020-09-06T07:30:16.344Z</time>
      </trkpt>
      <trkpt lat="48.40396" lon="7.3283">
        <ele>579</ele>
        <time>2020-09-06T07:30:17.345Z</time>
      </trkpt>
      <trkpt lat="48.40396" lon="7.3283">
        <ele>579</ele>
        <time>2020-09-06T07:30:18.344Z</time>
      </trkpt>
      <trkpt lat="48.40397" lon="7.32828">
        <ele>579</ele>
        <time>2020-09-06T07:30:19.344Z</time>
      </trkpt>
      <trkpt lat="48.40398" lon="7.32827">
        <ele>579</ele>
        <time>2020-09-06T07:30:20.345Z</time>
      </trkpt>
      <trkpt lat="48.40399" lon="7.32826">
        <ele>579</ele>
        <time>2020-09-06T07:30:21.345Z</time>
      </trkpt>
      <trkpt lat="48.404" lon="7.32825">
        <ele>579</ele>
        <time>2020-09-06T07:30:22.344Z</time>
      </trkpt>
      <trkpt lat="48.404" lon="7.32823">
        <ele>579</ele>
        <time>2020-09-06T07:30:23.345Z</time>
      </trkpt>
      <trkpt lat="48.40401" lon="7.32822">
        <ele>579</ele>
        <time>2020-09-06T07:30:24.345Z</time>
      </trkpt>
      <trkpt lat="48.40402" lon="7.32821">
        <ele>579</ele>
        <time>2020-09-06T07:30:25.345Z</time>
      </trkpt>
      <trkpt lat="48.40403" lon="7.3282">
        <ele>580</ele>
        <time>2020-09-06T07:30:26.345Z</time>
      </trkpt>
      <trkpt lat="48.40403" lon="7.32818">
        <ele>580</ele>
        <time>2020-09-06T07:30:27.345Z</time>
      </trkpt>
      <trkpt lat="48.40404" lon="7.32816">
        <ele>580</ele>
        <time>2020-09-06T07:30:28.345Z</time>
      </trkpt>
      <trkpt lat="48.40405" lon="7.32815">
        <ele>581</ele>
        <time>2020-09-06T07:30:29.345Z</time>
      </trkpt>
      <trkpt lat="48.40405" lon="7.32814">
        <ele>581</ele>
        <time>2020-09-06T07:30:30.345Z</time>
      </trkpt>
      <trkpt lat="48.40406" lon="7.32812">
        <ele>581</ele>
        <time>2020-09-06T07:30:31.345Z</time>
      </trkpt>
      <trkpt lat="48.40407" lon="7.32811">
        <ele>582</ele>
        <time>2020-09-06T07:30:32.345Z</time>
      </trkpt>
      <trkpt lat="48.40408" lon="7.3281">
        <ele>582</ele>
        <time>2020-09-06T07:30:33.344Z</time>
      </trkpt>
      <trkpt lat="48.40408" lon="7.32809">
        <ele>582</ele>
        <time>2020-09-06T07:30:34.345Z</time>
      </trkpt>
      <trkpt lat="48.40409" lon="7.32808">
        <ele>582</ele>
        <time>2020-09-06T07:30:35.345Z</time>
      </trkpt>
      <trkpt lat="48.4041" lon="7.32807">
        <ele>582</ele>
        <time>2020-09-06T07:30:36.345Z</time>
      </trkpt>
      <trkpt lat="48.40411" lon="7.32806">
        <ele>582</ele>
        <time>2020-09-06T07:30:37.345Z</time>
      </trkpt>
      <trkpt lat="48.40412" lon="7.32805">
        <ele>582</ele>
        <time>2020-09-06T07:30:38.345Z</time>
      </trkpt>
      <trkpt lat="48.40413" lon="7.32805">
        <ele>582</ele>
        <time>2020-09-06T07:30:39.345Z</time>
      </trkpt>
      <trkpt lat="48.40414" lon="7.32804">
        <ele>582</ele>
        <time>2020-09-06T07:30:40.345Z</time>
      </trkpt>
      <trkpt lat="48.40415" lon="7.32802">
        <ele>582</ele>
        <time>2020-09-06T07:30:41.345Z</time>
      </trkpt>
      <trkpt lat="48.40416" lon="7.32801">
        <ele>582</ele>
        <time>2020-09-06T07:30:42.345Z</time>
      </trkpt>
      <trkpt lat="48.40416" lon="7.328">
        <ele>582</ele>
        <time>2020-09-06T07:30:43.345Z</time>
      </trkpt>
      <trkpt lat="48.40417" lon="7.32799">
        <ele>582</ele>
        <time>2020-09-06T07:30:44.345Z</time>
      </trkpt>
      <trkpt lat="48.40417" lon="7.32797">
        <ele>582</ele>
        <time>2020-09-06T07:30:45.345Z</time>
      </trkpt>
      <trkpt lat="48.40418" lon="7.32796">
        <ele>582</ele>
        <time>2020-09-06T07:30:46.345Z</time>
      </trkpt>
      <trkpt lat="48.40418" lon="7.32794">
        <ele>582</ele>
        <time>2020-09-06T07:30:47.345Z</time>
      </trkpt>
      <trkpt lat="48.40418" lon="7.32793">
        <ele>582</ele>
        <time>2020-09-06T07:30:48.345Z</time>
      </trkpt>
      <trkpt lat="48.40419" lon="7.32791">
        <ele>582</ele>
        <time>2020-09-06T07:30:49.345Z</time>
      </trkpt>
      <trkpt lat="48.40419" lon="7.3279">
        <ele>583</ele>
        <time>2020-09-06T07:30:50.345Z</time>
      </trkpt>
      <trkpt lat="48.4042" lon="7.32788">
        <ele>583</ele>
        <time>2020-09-06T07:30:51.345Z</time>
      </trkpt>
      <trkpt lat="48.4042" lon="7.32786">
        <ele>582</ele>
        <time>2020-09-06T07:30:52.344Z</time>
      </trkpt>
      <trkpt lat="48.4042" lon="7.32785">
        <ele>582</ele>
        <time>2020-09-06T07:30:53.344Z</time>
      </trkpt>
      <trkpt lat="48.4042" lon="7.32784">
        <ele>582</ele>
        <time>2020-09-06T07:30:54.345Z</time>
      </trkpt>
      <trkpt lat="48.4042" lon="7.32782">
        <ele>582</ele>
        <time>2020-09-06T07:30:55.345Z</time>
      </trkpt>
      <trkpt lat="48.4042" lon="7.32781">
        <ele>583</ele>
        <time>2020-09-06T07:30:56.345Z</time>
      </trkpt>
      <trkpt lat="48.4042" lon="7.32779">
        <ele>583</ele>
        <time>2020-09-06T07:30:57.344Z</time>
      </trkpt>
      <trkpt lat="48.4042" lon="7.32777">
        <ele>583</ele>
        <time>2020-09-06T07:30:58.345Z</time>
      </trkpt>
      <trkpt lat="48.4042" lon="7.32776">
        <ele>583</ele>
        <time>2020-09-06T07:30:59.345Z</time>
      </trkpt>
      <trkpt lat="48.4042" lon="7.32775">
        <ele>583</ele>
        <time>2020-09-06T07:31:00.345Z</time>
      </trkpt>
      <trkpt lat="48.4042" lon="7.32773">
        <ele>584</ele>
        <time>2020-09-06T07:31:01.344Z</time>
      </trkpt>
      <trkpt lat="48.4042" lon="7.32771">
        <ele>584</ele>
        <time>2020-09-06T07:31:02.345Z</time>
      </trkpt>
      <trkpt lat="48.40419" lon="7.3277">
        <ele>584</ele>
        <time>2020-09-06T07:31:03.345Z</time>
      </trkpt>
      <trkpt lat="48.40419" lon="7.32769">
        <ele>584</ele>
        <time>2020-09-06T07:31:04.345Z</time>
      </trkpt>
      <trkpt lat="48.40419" lon="7.32767">
        <ele>584</ele>
        <time>2020-09-06T07:31:05.345Z</time>
      </trkpt>
      <trkpt lat="48.40419" lon="7.32766">
        <ele>584</ele>
        <time>2020-09-06T07:31:06.345Z</time>
      </trkpt>
      <trkpt lat="48.40419" lon="7.32764">
        <ele>584</ele>
        <time>2020-09-06T07:31:07.344Z</time>
      </trkpt>
      <trkpt lat="48.4042" lon="7.32763">
        <ele>584</ele>
        <time>2020-09-06T07:31:08.345Z</time>
      </trkpt>
      <trkpt lat="48.40419" lon="7.32762">
        <ele>584</ele>
        <time>2020-09-06T07:31:09.345Z</time>
      </trkpt>
      <trkpt lat="48.40419" lon="7.32761">
        <ele>584</ele>
        <time>2020-09-06T07:31:10.345Z</time>
      </trkpt>
      <trkpt lat="48.40419" lon="7.32759">
        <ele>584</ele>
        <time>2020-09-06T07:31:11.345Z</time>
      </trkpt>
      <trkpt lat="48.40419" lon="7.32758">
        <ele>584</ele>
        <time>2020-09-06T07:31:12.344Z</time>
      </trkpt>
      <trkpt lat="48.40419" lon="7.32756">
        <ele>584</ele>
        <time>2020-09-06T07:31:13.344Z</time>
      </trkpt>
      <trkpt lat="48.40419" lon="7.32755">
        <ele>584</ele>
        <time>2020-09-06T07:31:14.345Z</time>
      </trkpt>
      <trkpt lat="48.40419" lon="7.32753">
        <ele>584</ele>
        <time>2020-09-06T07:31:15.345Z</time>
      </trkpt>
      <trkpt lat="48.40419" lon="7.32751">
        <ele>584</ele>
        <time>2020-09-06T07:31:16.345Z</time>
      </trkpt>
      <trkpt lat="48.40419" lon="7.3275">
        <ele>584</ele>
        <time>2020-09-06T07:31:17.345Z</time>
      </trkpt>
      <trkpt lat="48.40418" lon="7.32749">
        <ele>584</ele>
        <time>2020-09-06T07:31:18.345Z</time>
      </trkpt>
      <trkpt lat="48.40418" lon="7.32747">
        <ele>584</ele>
        <time>2020-09-06T07:31:19.345Z</time>
      </trkpt>
      <trkpt lat="48.40418" lon="7.32746">
        <ele>584</ele>
        <time>2020-09-06T07:31:20.344Z</time>
      </trkpt>
      <trkpt lat="48.40418" lon="7.32744">
        <ele>584</ele>
        <time>2020-09-06T07:31:21.345Z</time>
      </trkpt>
      <trkpt lat="48.40418" lon="7.32743">
        <ele>584</ele>
        <time>2020-09-06T07:31:22.345Z</time>
      </trkpt>
      <trkpt lat="48.40417" lon="7.32742">
        <ele>585</ele>
        <time>2020-09-06T07:31:23.345Z</time>
      </trkpt>
      <trkpt lat="48.40417" lon="7.3274">
        <ele>585</ele>
        <time>2020-09-06T07:31:24.344Z</time>
      </trkpt>
      <trkpt lat="48.40417" lon="7.32738">
        <ele>585</ele>
        <time>2020-09-06T07:31:25.345Z</time>
      </trkpt>
      <trkpt lat="48.40416" lon="7.32737">
        <ele>584</ele>
        <time>2020-09-06T07:31:26.345Z</time>
      </trkpt>
      <trkpt lat="48.40416" lon="7.32735">
        <ele>584</ele>
        <time>2020-09-06T07:31:27.345Z</time>
      </trkpt>
      <trkpt lat="48.40416" lon="7.32734">
        <ele>584</ele>
        <time>2020-09-06T07:31:28.345Z</time>
      </trkpt>
      <trkpt lat="48.40416" lon="7.32733">
        <ele>584</ele>
        <time>2020-09-06T07:31:29.345Z</time>
      </trkpt>
      <trkpt lat="48.40415" lon="7.32731">
        <ele>584</ele>
        <time>2020-09-06T07:31:30.345Z</time>
      </trkpt>
      <trkpt lat="48.40415" lon="7.3273">
        <ele>584</ele>
        <time>2020-09-06T07:31:31.344Z</time>
      </trkpt>
      <trkpt lat="48.40415" lon="7.32728">
        <ele>584</ele>
        <time>2020-09-06T07:31:32.345Z</time>
      </trkpt>
      <trkpt lat="48.40415" lon="7.32727">
        <ele>584</ele>
        <time>2020-09-06T07:31:33.345Z</time>
      </trkpt>
      <trkpt lat="48.40415" lon="7.32726">
        <ele>585</ele>
        <time>2020-09-06T07:31:34.345Z</time>
      </trkpt>
      <trkpt lat="48.40415" lon="7.32724">
        <ele>585</ele>
        <time>2020-09-06T07:31:35.344Z</time>
      </trkpt>
      <trkpt lat="48.40415" lon="7.32723">
        <ele>585</ele>
        <time>2020-09-06T07:31:36.345Z</time>
      </trkpt>
      <trkpt lat="48.40415" lon="7.32722">
        <ele>586</ele>
        <time>2020-09-06T07:31:37.345Z</time>
      </trkpt>
      <trkpt lat="48.40415" lon="7.3272">
        <ele>586</ele>
        <time>2020-09-06T07:31:38.345Z</time>
      </trkpt>
      <trkpt lat="48.40415" lon="7.32719">
        <ele>586</ele>
        <time>2020-09-06T07:31:39.344Z</time>
      </trkpt>
      <trkpt lat="48.40414" lon="7.32717">
        <ele>586</ele>
        <time>2020-09-06T07:31:40.345Z</time>
      </trkpt>
      <trkpt lat="48.40414" lon="7.32716">
        <ele>587</ele>
        <time>2020-09-06T07:31:41.345Z</time>
      </trkpt>
      <trkpt lat="48.40414" lon="7.32714">
        <ele>587</ele>
        <time>2020-09-06T07:31:42.345Z</time>
      </trkpt>
      <trkpt lat="48.40414" lon="7.32713">
        <ele>588</ele>
        <time>2020-09-06T07:31:43.345Z</time>
      </trkpt>
      <trkpt lat="48.40414" lon="7.32712">
        <ele>588</ele>
        <time>2020-09-06T07:31:44.344Z</time>
      </trkpt>
      <trkpt lat="48.40414" lon="7.3271">
        <ele>588</ele>
        <time>2020-09-06T07:31:45.345Z</time>
      </trkpt>
      <trkpt lat="48.40413" lon="7.3271">
        <ele>587</ele>
        <time>2020-09-06T07:31:46.345Z</time>
      </trkpt>
      <trkpt lat="48.40413" lon="7.3271">
        <ele>587</ele>
        <time>2020-09-06T07:31:47.345Z</time>
      </trkpt>
      <trkpt lat="48.40412" lon="7.3271">
        <ele>587</ele>
        <time>2020-09-06T07:31:48.344Z</time>
      </trkpt>
      <trkpt lat="48.40412" lon="7.3271">
        <ele>587</ele>
        <time>2020-09-06T07:31:49.345Z</time>
      </trkpt>
      <trkpt lat="48.40412" lon="7.32709">
        <ele>587</ele>
        <time>2020-09-06T07:31:50.346Z</time>
      </trkpt>
      <trkpt lat="48.40412" lon="7.32708">
        <ele>587</ele>
        <time>2020-09-06T07:31:51.346Z</time>
      </trkpt>
      <trkpt lat="48.40412" lon="7.32707">
        <ele>587</ele>
        <time>2020-09-06T07:31:52.345Z</time>
      </trkpt>
      <trkpt lat="48.40412" lon="7.32705">
        <ele>587</ele>
        <time>2020-09-06T07:31:53.346Z</time>
      </trkpt>
      <trkpt lat="48.40412" lon="7.32704">
        <ele>588</ele>
        <time>2020-09-06T07:31:54.346Z</time>
      </trkpt>
      <trkpt lat="48.40412" lon="7.32702">
        <ele>588</ele>
        <time>2020-09-06T07:31:55.345Z</time>
      </trkpt>
      <trkpt lat="48.40412" lon="7.327">
        <ele>588</ele>
        <time>2020-09-06T07:31:56.346Z</time>
      </trkpt>
      <trkpt lat="48.40412" lon="7.32698">
        <ele>589</ele>
        <time>2020-09-06T07:31:57.345Z</time>
      </trkpt>
      <trkpt lat="48.40412" lon="7.32696">
        <ele>589</ele>
        <time>2020-09-06T07:31:58.346Z</time>
      </trkpt>
      <trkpt lat="48.40411" lon="7.32695">
        <ele>589</ele>
        <time>2020-09-06T07:31:59.346Z</time>
      </trkpt>
      <trkpt lat="48.40411" lon="7.32693">
        <ele>589</ele>
        <time>2020-09-06T07:32:00.346Z</time>
      </trkpt>
      <trkpt lat="48.40411" lon="7.32691">
        <ele>589</ele>
        <time>2020-09-06T07:32:01.346Z</time>
      </trkpt>
      <trkpt lat="48.40411" lon="7.32689">
        <ele>590</ele>
        <time>2020-09-06T07:32:02.346Z</time>
      </trkpt>
      <trkpt lat="48.40411" lon="7.32688">
        <ele>590</ele>
        <time>2020-09-06T07:32:03.346Z</time>
      </trkpt>
      <trkpt lat="48.40411" lon="7.32686">
        <ele>590</ele>
        <time>2020-09-06T07:32:04.346Z</time>
      </trkpt>
      <trkpt lat="48.4041" lon="7.32684">
        <ele>590</ele>
        <time>2020-09-06T07:32:05.345Z</time>
      </trkpt>
      <trkpt lat="48.4041" lon="7.32683">
        <ele>590</ele>
        <time>2020-09-06T07:32:06.345Z</time>
      </trkpt>
      <trkpt lat="48.40409" lon="7.32681">
        <ele>590</ele>
        <time>2020-09-06T07:32:07.346Z</time>
      </trkpt>
      <trkpt lat="48.40409" lon="7.3268">
        <ele>590</ele>
        <time>2020-09-06T07:32:08.346Z</time>
      </trkpt>
      <trkpt lat="48.40409" lon="7.32678">
        <ele>590</ele>
        <time>2020-09-06T07:32:09.346Z</time>
      </trkpt>
      <trkpt lat="48.40409" lon="7.32676">
        <ele>590</ele>
        <time>2020-09-06T07:32:10.345Z</time>
      </trkpt>
      <trkpt lat="48.40409" lon="7.32675">
        <ele>591</ele>
        <time>2020-09-06T07:32:11.345Z</time>
      </trkpt>
      <trkpt lat="48.40408" lon="7.32673">
        <ele>591</ele>
        <time>2020-09-06T07:32:12.346Z</time>
      </trkpt>
      <trkpt lat="48.40408" lon="7.32671">
        <ele>591</ele>
        <time>2020-09-06T07:32:13.346Z</time>
      </trkpt>
      <trkpt lat="48.40408" lon="7.3267">
        <ele>591</ele>
        <time>2020-09-06T07:32:14.346Z</time>
      </trkpt>
      <trkpt lat="48.40407" lon="7.32668">
        <ele>591</ele>
        <time>2020-09-06T07:32:15.345Z</time>
      </trkpt>
      <trkpt lat="48.40407" lon="7.32667">
        <ele>592</ele>
        <time>2020-09-06T07:32:16.346Z</time>
      </trkpt>
      <trkpt lat="48.40407" lon="7.32665">
        <ele>592</ele>
        <time>2020-09-06T07:32:17.345Z</time>
      </trkpt>
      <trkpt lat="48.40407" lon="7.32663">
        <ele>592</ele>
        <time>2020-09-06T07:32:18.346Z</time>
      </trkpt>
      <trkpt lat="48.40407" lon="7.32661">
        <ele>592</ele>
        <time>2020-09-06T07:32:19.346Z</time>
      </trkpt>
      <trkpt lat="48.40406" lon="7.3266">
        <ele>592</ele>
        <time>2020-09-06T07:32:20.346Z</time>
      </trkpt>
      <trkpt lat="48.40406" lon="7.32658">
        <ele>593</ele>
        <time>2020-09-06T07:32:21.346Z</time>
      </trkpt>
      <trkpt lat="48.40406" lon="7.32657">
        <ele>593</ele>
        <time>2020-09-06T07:32:22.345Z</time>
      </trkpt>
      <trkpt lat="48.40406" lon="7.32655">
        <ele>593</ele>
        <time>2020-09-06T07:32:23.345Z</time>
      </trkpt>
      <trkpt lat="48.40405" lon="7.32654">
        <ele>593</ele>
        <time>2020-09-06T07:32:24.345Z</time>
      </trkpt>
      <trkpt lat="48.40405" lon="7.32652">
        <ele>593</ele>
        <time>2020-09-06T07:32:25.346Z</time>
      </trkpt>
      <trkpt lat="48.40405" lon="7.32651">
        <ele>593</ele>
        <time>2020-09-06T07:32:26.345Z</time>
      </trkpt>
      <trkpt lat="48.40405" lon="7.32649">
        <ele>593</ele>
        <time>2020-09-06T07:32:27.346Z</time>
      </trkpt>
      <trkpt lat="48.40405" lon="7.32647">
        <ele>593</ele>
        <time>2020-09-06T07:32:28.345Z</time>
      </trkpt>
      <trkpt lat="48.40405" lon="7.32646">
        <ele>593</ele>
        <time>2020-09-06T07:32:29.346Z</time>
      </trkpt>
      <trkpt lat="48.40405" lon="7.32644">
        <ele>593</ele>
        <time>2020-09-06T07:32:30.345Z</time>
      </trkpt>
      <trkpt lat="48.40405" lon="7.32642">
        <ele>593</ele>
        <time>2020-09-06T07:32:31.345Z</time>
      </trkpt>
      <trkpt lat="48.40405" lon="7.32641">
        <ele>593</ele>
        <time>2020-09-06T07:32:32.345Z</time>
      </trkpt>
      <trkpt lat="48.40405" lon="7.32639">
        <ele>593</ele>
        <time>2020-09-06T07:32:33.346Z</time>
      </trkpt>
      <trkpt lat="48.40405" lon="7.32638">
        <ele>593</ele>
        <time>2020-09-06T07:32:34.346Z</time>
      </trkpt>
      <trkpt lat="48.40405" lon="7.32636">
        <ele>593</ele>
        <time>2020-09-06T07:32:35.346Z</time>
      </trkpt>
      <trkpt lat="48.40406" lon="7.32634">
        <ele>593</ele>
        <time>2020-09-06T07:32:36.346Z</time>
      </trkpt>
      <trkpt lat="48.40406" lon="7.32633">
        <ele>594</ele>
        <time>2020-09-06T07:32:37.345Z</time>
      </trkpt>
      <trkpt lat="48.40406" lon="7.32631">
        <ele>594</ele>
        <time>2020-09-06T07:32:38.346Z</time>
      </trkpt>
      <trkpt lat="48.40406" lon="7.32629">
        <ele>594</ele>
        <time>2020-09-06T07:32:39.345Z</time>
      </trkpt>
      <trkpt lat="48.40406" lon="7.32628">
        <ele>595</ele>
        <time>2020-09-06T07:32:40.345Z</time>
      </trkpt>
      <trkpt lat="48.40407" lon="7.32626">
        <ele>595</ele>
        <time>2020-09-06T07:32:41.346Z</time>
      </trkpt>
      <trkpt lat="48.40407" lon="7.32625">
        <ele>596</ele>
        <time>2020-09-06T07:32:42.345Z</time>
      </trkpt>
      <trkpt lat="48.40407" lon="7.32623">
        <ele>596</ele>
        <time>2020-09-06T07:32:43.345Z</time>
      </trkpt>
      <trkpt lat="48.40408" lon="7.32622">
        <ele>596</ele>
        <time>2020-09-06T07:32:44.346Z</time>
      </trkpt>
      <trkpt lat="48.40409" lon="7.32621">
        <ele>596</ele>
        <time>2020-09-06T07:32:45.346Z</time>
      </trkpt>
      <trkpt lat="48.40409" lon="7.32619">
        <ele>597</ele>
        <time>2020-09-06T07:32:46.346Z</time>
      </trkpt>
      <trkpt lat="48.40409" lon="7.32617">
        <ele>597</ele>
        <time>2020-09-06T07:32:47.345Z</time>
      </trkpt>
      <trkpt lat="48.4041" lon="7.32616">
        <ele>598</ele>
        <time>2020-09-06T07:32:48.346Z</time>
      </trkpt>
      <trkpt lat="48.4041" lon="7.32614">
        <ele>598</ele>
        <time>2020-09-06T07:32:49.345Z</time>
      </trkpt>
      <trkpt lat="48.40411" lon="7.32612">
        <ele>599</ele>
        <time>2020-09-06T07:32:50.346Z</time>
      </trkpt>
      <trkpt lat="48.40412" lon="7.32611">
        <ele>599</ele>
        <time>2020-09-06T07:32:51.345Z</time>
      </trkpt>
      <trkpt lat="48.40412" lon="7.32609">
        <ele>599</ele>
        <time>2020-09-06T07:32:52.346Z</time>
      </trkpt>
      <trkpt lat="48.40412" lon="7.32608">
        <ele>599</ele>
        <time>2020-09-06T07:32:53.345Z</time>
      </trkpt>
      <trkpt lat="48.40413" lon="7.32606">
        <ele>599</ele>
        <time>2020-09-06T07:32:54.346Z</time>
      </trkpt>
      <trkpt lat="48.40414" lon="7.32605">
        <ele>600</ele>
        <time>2020-09-06T07:32:55.345Z</time>
      </trkpt>
      <trkpt lat="48.40414" lon="7.32604">
        <ele>600</ele>
        <time>2020-09-06T07:32:56.346Z</time>
      </trkpt>
      <trkpt lat="48.40415" lon="7.32603">
        <ele>600</ele>
        <time>2020-09-06T07:32:57.346Z</time>
      </trkpt>
      <trkpt lat="48.40415" lon="7.32601">
        <ele>600</ele>
        <time>2020-09-06T07:32:58.345Z</time>
      </trkpt>
      <trkpt lat="48.40416" lon="7.326">
        <ele>600</ele>
        <time>2020-09-06T07:32:59.346Z</time>
      </trkpt>
      <trkpt lat="48.40416" lon="7.32599">
        <ele>600</ele>
        <time>2020-09-06T07:33:00.346Z</time>
      </trkpt>
      <trkpt lat="48.40417" lon="7.32598">
        <ele>600</ele>
        <time>2020-09-06T07:33:01.345Z</time>
      </trkpt>
      <trkpt lat="48.40418" lon="7.32596">
        <ele>601</ele>
        <time>2020-09-06T07:33:02.346Z</time>
      </trkpt>
      <trkpt lat="48.40419" lon="7.32595">
        <ele>601</ele>
        <time>2020-09-06T07:33:03.345Z</time>
      </trkpt>
      <trkpt lat="48.40419" lon="7.32594">
        <ele>601</ele>
        <time>2020-09-06T07:33:04.346Z</time>
      </trkpt>
      <trkpt lat="48.4042" lon="7.32593">
        <ele>600</ele>
        <time>2020-09-06T07:33:05.345Z</time>
      </trkpt>
      <trkpt lat="48.40421" lon="7.32592">
        <ele>600</ele>
        <time>2020-09-06T07:33:06.346Z</time>
      </trkpt>
      <trkpt lat="48.40422" lon="7.32592">
        <ele>599</ele>
        <time>2020-09-06T07:33:07.346Z</time>
      </trkpt>
      <trkpt lat="48.40422" lon="7.32591">
        <ele>599</ele>
        <time>2020-09-06T07:33:08.346Z</time>
      </trkpt>
      <trkpt lat="48.40423" lon="7.3259">
        <ele>599</ele>
        <time>2020-09-06T07:33:09.346Z</time>
      </trkpt>
      <trkpt lat="48.40424" lon="7.32589">
        <ele>598</ele>
        <time>2020-09-06T07:33:10.346Z</time>
      </trkpt>
      <trkpt lat="48.40425" lon="7.32588">
        <ele>598</ele>
        <time>2020-09-06T07:33:11.346Z</time>
      </trkpt>
      <trkpt lat="48.40425" lon="7.32587">
        <ele>598</ele>
        <time>2020-09-06T07:33:12.345Z</time>
      </trkpt>
      <trkpt lat="48.40426" lon="7.32586">
        <ele>597</ele>
        <time>2020-09-06T07:33:13.346Z</time>
      </trkpt>
      <trkpt lat="48.40427" lon="7.32585">
        <ele>598</ele>
        <time>2020-09-06T07:33:14.346Z</time>
      </trkpt>
      <trkpt lat="48.40428" lon="7.32585">
        <ele>598</ele>
        <time>2020-09-06T07:33:15.346Z</time>
      </trkpt>
      <trkpt lat="48.40429" lon="7.32584">
        <ele>598</ele>
        <time>2020-09-06T07:33:16.345Z</time>
      </trkpt>
      <trkpt lat="48.4043" lon="7.32583">
        <ele>598</ele>
        <time>2020-09-06T07:33:17.345Z</time>
      </trkpt>
      <trkpt lat="48.40431" lon="7.32583">
        <ele>598</ele>
        <time>2020-09-06T07:33:18.345Z</time>
      </trkpt>
      <trkpt lat="48.40432" lon="7.32582">
        <ele>598</ele>
        <time>2020-09-06T07:33:19.346Z</time>
      </trkpt>
      <trkpt lat="48.40433" lon="7.32581">
        <ele>598</ele>
        <time>2020-09-06T07:33:20.345Z</time>
      </trkpt>
      <trkpt lat="48.40433" lon="7.3258">
        <ele>599</ele>
        <time>2020-09-06T07:33:21.345Z</time>
      </trkpt>
      <trkpt lat="48.40434" lon="7.3258">
        <ele>599</ele>
        <time>2020-09-06T07:33:22.345Z</time>
      </trkpt>
      <trkpt lat="48.40435" lon="7.32579">
        <ele>599</ele>
        <time>2020-09-06T07:33:23.346Z</time>
      </trkpt>
      <trkpt lat="48.40436" lon="7.32578">
        <ele>600</ele>
        <time>2020-09-06T07:33:24.346Z</time>
      </trkpt>
      <trkpt lat="48.40437" lon="7.32578">
        <ele>600</ele>
        <time>2020-09-06T07:33:25.345Z</time>
      </trkpt>
      <trkpt lat="48.40439" lon="7.32577">
        <ele>601</ele>
        <time>2020-09-06T07:33:26.345Z</time>
      </trkpt>
      <trkpt lat="48.4044" lon="7.32576">
        <ele>601</ele>
        <time>2020-09-06T07:33:27.346Z</time>
      </trkpt>
      <trkpt lat="48.4044" lon="7.32576">
        <ele>601</ele>
        <time>2020-09-06T07:33:28.346Z</time>
      </trkpt>
      <trkpt lat="48.40441" lon="7.32575">
        <ele>601</ele>
        <time>2020-09-06T07:33:29.346Z</time>
      </trkpt>
      <trkpt lat="48.40442" lon="7.32574">
        <ele>601</ele>
        <time>2020-09-06T07:33:30.345Z</time>
      </trkpt>
      <trkpt lat="48.40443" lon="7.32573">
        <ele>602</ele>
        <time>2020-09-06T07:33:31.346Z</time>
      </trkpt>
      <trkpt lat="48.40444" lon="7.32573">
        <ele>602</ele>
        <time>2020-09-06T07:33:32.346Z</time>
      </trkpt>
      <trkpt lat="48.40445" lon="7.32572">
        <ele>602</ele>
        <time>2020-09-06T07:33:33.345Z</time>
      </trkpt>
      <trkpt lat="48.40446" lon="7.32571">
        <ele>603</ele>
        <time>2020-09-06T07:33:34.346Z</time>
      </trkpt>
      <trkpt lat="48.40447" lon="7.3257">
        <ele>603</ele>
        <time>2020-09-06T07:33:35.345Z</time>
      </trkpt>
      <trkpt lat="48.40448" lon="7.32569">
        <ele>603</ele>
        <time>2020-09-06T07:33:36.345Z</time>
      </trkpt>
      <trkpt lat="48.40449" lon="7.32569">
        <ele>604</ele>
        <time>2020-09-06T07:33:37.345Z</time>
      </trkpt>
      <trkpt lat="48.4045" lon="7.32568">
        <ele>604</ele>
        <time>2020-09-06T07:33:38.346Z</time>
      </trkpt>
      <trkpt lat="48.40451" lon="7.32567">
        <ele>604</ele>
        <time>2020-09-06T07:33:39.345Z</time>
      </trkpt>
      <trkpt lat="48.40452" lon="7.32566">
        <ele>604</ele>
        <time>2020-09-06T07:33:40.346Z</time>
      </trkpt>
      <trkpt lat="48.40453" lon="7.32566">
        <ele>604</ele>
        <time>2020-09-06T07:33:41.345Z</time>
      </trkpt>
      <trkpt lat="48.40454" lon="7.32565">
        <ele>605</ele>
        <time>2020-09-06T07:33:42.345Z</time>
      </trkpt>
      <trkpt lat="48.40455" lon="7.32564">
        <ele>605</ele>
        <time>2020-09-06T07:33:43.346Z</time>
      </trkpt>
      <trkpt lat="48.40455" lon="7.32563">
        <ele>606</ele>
        <time>2020-09-06T07:33:44.346Z</time>
      </trkpt>
      <trkpt lat="48.40457" lon="7.32563">
        <ele>606</ele>
        <time>2020-09-06T07:33:45.345Z</time>
      </trkpt>
      <trkpt lat="48.40458" lon="7.32562">
        <ele>606</ele>
        <time>2020-09-06T07:33:46.346Z</time>
      </trkpt>
      <trkpt lat="48.40459" lon="7.32562">
        <ele>606</ele>
        <time>2020-09-06T07:33:47.346Z</time>
      </trkpt>
      <trkpt lat="48.4046" lon="7.32561">
        <ele>607</ele>
        <time>2020-09-06T07:33:48.346Z</time>
      </trkpt>
      <trkpt lat="48.4046" lon="7.32561">
        <ele>607</ele>
        <time>2020-09-06T07:33:49.346Z</time>
      </trkpt>
      <trkpt lat="48.40462" lon="7.3256">
        <ele>607</ele>
        <time>2020-09-06T07:33:50.346Z</time>
      </trkpt>
      <trkpt lat="48.40462" lon="7.3256">
        <ele>607</ele>
        <time>2020-09-06T07:33:51.346Z</time>
      </trkpt>
      <trkpt lat="48.40463" lon="7.32559">
        <ele>607</ele>
        <time>2020-09-06T07:33:52.346Z</time>
      </trkpt>
      <trkpt lat="48.40464" lon="7.32558">
        <ele>607</ele>
        <time>2020-09-06T07:33:53.346Z</time>
      </trkpt>
      <trkpt lat="48.40465" lon="7.32558">
        <ele>607</ele>
        <time>2020-09-06T07:33:54.346Z</time>
      </trkpt>
      <trkpt lat="48.40466" lon="7.32557">
        <ele>607</ele>
        <time>2020-09-06T07:33:55.345Z</time>
      </trkpt>
      <trkpt lat="48.40467" lon="7.32556">
        <ele>607</ele>
        <time>2020-09-06T07:33:56.346Z</time>
      </trkpt>
      <trkpt lat="48.40469" lon="7.32555">
        <ele>608</ele>
        <time>2020-09-06T07:33:57.345Z</time>
      </trkpt>
      <trkpt lat="48.40469" lon="7.32554">
        <ele>608</ele>
        <time>2020-09-06T07:33:58.345Z</time>
      </trkpt>
      <trkpt lat="48.4047" lon="7.32553">
        <ele>608</ele>
        <time>2020-09-06T07:33:59.346Z</time>
      </trkpt>
      <trkpt lat="48.40471" lon="7.32552">
        <ele>608</ele>
        <time>2020-09-06T07:34:00.346Z</time>
      </trkpt>
      <trkpt lat="48.40472" lon="7.32552">
        <ele>609</ele>
        <time>2020-09-06T07:34:01.345Z</time>
      </trkpt>
      <trkpt lat="48.40473" lon="7.32551">
        <ele>609</ele>
        <time>2020-09-06T07:34:02.346Z</time>
      </trkpt>
      <trkpt lat="48.40474" lon="7.32551">
        <ele>609</ele>
        <time>2020-09-06T07:34:03.346Z</time>
      </trkpt>
      <trkpt lat="48.40475" lon="7.32549">
        <ele>609</ele>
        <time>2020-09-06T07:34:04.346Z</time>
      </trkpt>
      <trkpt lat="48.40476" lon="7.32549">
        <ele>609</ele>
        <time>2020-09-06T07:34:05.345Z</time>
      </trkpt>
      <trkpt lat="48.40477" lon="7.32548">
        <ele>609</ele>
        <time>2020-09-06T07:34:06.345Z</time>
      </trkpt>
      <trkpt lat="48.40478" lon="7.32547">
        <ele>609</ele>
        <time>2020-09-06T07:34:07.345Z</time>
      </trkpt>
      <trkpt lat="48.40479" lon="7.32546">
        <ele>609</ele>
        <time>2020-09-06T07:34:08.346Z</time>
      </trkpt>
      <trkpt lat="48.40479" lon="7.32545">
        <ele>609</ele>
        <time>2020-09-06T07:34:09.346Z</time>
      </trkpt>
      <trkpt lat="48.4048" lon="7.32545">
        <ele>609</ele>
        <time>2020-09-06T07:34:10.345Z</time>
      </trkpt>
      <trkpt lat="48.40481" lon="7.32544">
        <ele>609</ele>
        <time>2020-09-06T07:34:11.346Z</time>
      </trkpt>
      <trkpt lat="48.40482" lon="7.32544">
        <ele>609</ele>
        <time>2020-09-06T07:34:12.345Z</time>
      </trkpt>
      <trkpt lat="48.40483" lon="7.32543">
        <ele>608</ele>
        <time>2020-09-06T07:34:13.346Z</time>
      </trkpt>
      <trkpt lat="48.40484" lon="7.32542">
        <ele>609</ele>
        <time>2020-09-06T07:34:14.346Z</time>
      </trkpt>
      <trkpt lat="48.40485" lon="7.32541">
        <ele>609</ele>
        <time>2020-09-06T07:34:15.345Z</time>
      </trkpt>
      <trkpt lat="48.40486" lon="7.3254">
        <ele>609</ele>
        <time>2020-09-06T07:34:16.346Z</time>
      </trkpt>
      <trkpt lat="48.40487" lon="7.3254">
        <ele>610</ele>
        <time>2020-09-06T07:34:17.346Z</time>
      </trkpt>
      <trkpt lat="48.40488" lon="7.32539">
        <ele>610</ele>
        <time>2020-09-06T07:34:18.345Z</time>
      </trkpt>
      <trkpt lat="48.40488" lon="7.32538">
        <ele>610</ele>
        <time>2020-09-06T07:34:19.346Z</time>
      </trkpt>
      <trkpt lat="48.40489" lon="7.32537">
        <ele>610</ele>
        <time>2020-09-06T07:34:20.346Z</time>
      </trkpt>
      <trkpt lat="48.4049" lon="7.32536">
        <ele>610</ele>
        <time>2020-09-06T07:34:21.346Z</time>
      </trkpt>
      <trkpt lat="48.40492" lon="7.32535">
        <ele>611</ele>
        <time>2020-09-06T07:34:22.345Z</time>
      </trkpt>
      <trkpt lat="48.40493" lon="7.32534">
        <ele>612</ele>
        <time>2020-09-06T07:34:23.346Z</time>
      </trkpt>
      <trkpt lat="48.40493" lon="7.32534">
        <ele>613</ele>
        <time>2020-09-06T07:34:24.345Z</time>
      </trkpt>
      <trkpt lat="48.40494" lon="7.32532">
        <ele>613</ele>
        <time>2020-09-06T07:34:25.345Z</time>
      </trkpt>
      <trkpt lat="48.40495" lon="7.32532">
        <ele>614</ele>
        <time>2020-09-06T07:34:26.345Z</time>
      </trkpt>
      <trkpt lat="48.40496" lon="7.32531">
        <ele>614</ele>
        <time>2020-09-06T07:34:27.345Z</time>
      </trkpt>
      <trkpt lat="48.40497" lon="7.3253">
        <ele>615</ele>
        <time>2020-09-06T07:34:28.345Z</time>
      </trkpt>
      <trkpt lat="48.40498" lon="7.32529">
        <ele>615</ele>
        <time>2020-09-06T07:34:29.345Z</time>
      </trkpt>
      <trkpt lat="48.40499" lon="7.32529">
        <ele>615</ele>
        <time>2020-09-06T07:34:30.345Z</time>
      </trkpt>
      <trkpt lat="48.405" lon="7.32527">
        <ele>615</ele>
        <time>2020-09-06T07:34:31.345Z</time>
      </trkpt>
      <trkpt lat="48.40501" lon="7.32526">
        <ele>615</ele>
        <time>2020-09-06T07:34:32.345Z</time>
      </trkpt>
      <trkpt lat="48.40502" lon="7.32526">
        <ele>616</ele>
        <time>2020-09-06T07:34:33.345Z</time>
      </trkpt>
      <trkpt lat="48.40503" lon="7.32525">
        <ele>615</ele>
        <time>2020-09-06T07:34:34.346Z</time>
      </trkpt>
      <trkpt lat="48.40504" lon="7.32524">
        <ele>615</ele>
        <time>2020-09-06T07:34:35.345Z</time>
      </trkpt>
      <trkpt lat="48.40505" lon="7.32524">
        <ele>615</ele>
        <time>2020-09-06T07:34:36.345Z</time>
      </trkpt>
      <trkpt lat="48.40506" lon="7.32523">
        <ele>615</ele>
        <time>2020-09-06T07:34:37.345Z</time>
      </trkpt>
      <trkpt lat="48.40507" lon="7.32522">
        <ele>615</ele>
        <time>2020-09-06T07:34:38.345Z</time>
      </trkpt>
      <trkpt lat="48.40508" lon="7.32521">
        <ele>615</ele>
        <time>2020-09-06T07:34:39.346Z</time>
      </trkpt>
      <trkpt lat="48.40509" lon="7.3252">
        <ele>615</ele>
        <time>2020-09-06T07:34:40.346Z</time>
      </trkpt>
      <trkpt lat="48.40509" lon="7.32519">
        <ele>615</ele>
        <time>2020-09-06T07:34:41.345Z</time>
      </trkpt>
      <trkpt lat="48.4051" lon="7.32518">
        <ele>614</ele>
        <time>2020-09-06T07:34:42.346Z</time>
      </trkpt>
      <trkpt lat="48.40511" lon="7.32517">
        <ele>614</ele>
        <time>2020-09-06T07:34:43.345Z</time>
      </trkpt>
      <trkpt lat="48.40511" lon="7.32516">
        <ele>614</ele>
        <time>2020-09-06T07:34:44.346Z</time>
      </trkpt>
      <trkpt lat="48.40512" lon="7.32515">
        <ele>614</ele>
        <time>2020-09-06T07:34:45.346Z</time>
      </trkpt>
      <trkpt lat="48.40513" lon="7.32513">
        <ele>614</ele>
        <time>2020-09-06T07:34:46.346Z</time>
      </trkpt>
      <trkpt lat="48.40514" lon="7.32512">
        <ele>614</ele>
        <time>2020-09-06T07:34:47.345Z</time>
      </trkpt>
      <trkpt lat="48.40514" lon="7.32511">
        <ele>614</ele>
        <time>2020-09-06T07:34:48.346Z</time>
      </trkpt>
      <trkpt lat="48.40515" lon="7.32509">
        <ele>614</ele>
        <time>2020-09-06T07:34:49.346Z</time>
      </trkpt>
      <trkpt lat="48.40516" lon="7.32508">
        <ele>614</ele>
        <time>2020-09-06T07:34:50.346Z</time>
      </trkpt>
      <trkpt lat="48.40516" lon="7.32506">
        <ele>615</ele>
        <time>2020-09-06T07:34:51.346Z</time>
      </trkpt>
      <trkpt lat="48.40517" lon="7.32505">
        <ele>615</ele>
        <time>2020-09-06T07:34:52.345Z</time>
      </trkpt>
      <trkpt lat="48.40518" lon="7.32504">
        <ele>615</ele>
        <time>2020-09-06T07:34:53.346Z</time>
      </trkpt>
      <trkpt lat="48.40519" lon="7.32503">
        <ele>614</ele>
        <time>2020-09-06T07:34:54.346Z</time>
      </trkpt>
      <trkpt lat="48.40519" lon="7.32502">
        <ele>614</ele>
        <time>2020-09-06T07:34:55.346Z</time>
      </trkpt>
      <trkpt lat="48.4052" lon="7.32501">
        <ele>614</ele>
        <time>2020-09-06T07:34:56.346Z</time>
      </trkpt>
      <trkpt lat="48.40521" lon="7.325">
        <ele>614</ele>
        <time>2020-09-06T07:34:57.346Z</time>
      </trkpt>
      <trkpt lat="48.40522" lon="7.32498">
        <ele>613</ele>
        <time>2020-09-06T07:34:58.345Z</time>
      </trkpt>
      <trkpt lat="48.40522" lon="7.32497">
        <ele>613</ele>
        <time>2020-09-06T07:34:59.346Z</time>
      </trkpt>
      <trkpt lat="48.40523" lon="7.32496">
        <ele>612</ele>
        <time>2020-09-06T07:35:00.346Z</time>
      </trkpt>
      <trkpt lat="48.40524" lon="7.32495">
        <ele>612</ele>
        <time>2020-09-06T07:35:01.346Z</time>
      </trkpt>
      <trkpt lat="48.40525" lon="7.32494">
        <ele>611</ele>
        <time>2020-09-06T07:35:02.345Z</time>
      </trkpt>
      <trkpt lat="48.40526" lon="7.32493">
        <ele>611</ele>
        <time>2020-09-06T07:35:03.346Z</time>
      </trkpt>
      <trkpt lat="48.40527" lon="7.32492">
        <ele>611</ele>
        <time>2020-09-06T07:35:04.346Z</time>
      </trkpt>
      <trkpt lat="48.40527" lon="7.32491">
        <ele>611</ele>
        <time>2020-09-06T07:35:05.346Z</time>
      </trkpt>
      <trkpt lat="48.40528" lon="7.32491">
        <ele>611</ele>
        <time>2020-09-06T07:35:06.346Z</time>
      </trkpt>
      <trkpt lat="48.40528" lon="7.3249">
        <ele>610</ele>
        <time>2020-09-06T07:35:07.346Z</time>
      </trkpt>
      <trkpt lat="48.40529" lon="7.32489">
        <ele>610</ele>
        <time>2020-09-06T07:35:08.346Z</time>
      </trkpt>
      <trkpt lat="48.4053" lon="7.32488">
        <ele>610</ele>
        <time>2020-09-06T07:35:09.346Z</time>
      </trkpt>
      <trkpt lat="48.40531" lon="7.32487">
        <ele>610</ele>
        <time>2020-09-06T07:35:10.346Z</time>
      </trkpt>
      <trkpt lat="48.40531" lon="7.32486">
        <ele>610</ele>
        <time>2020-09-06T07:35:11.345Z</time>
      </trkpt>
      <trkpt lat="48.40532" lon="7.32485">
        <ele>610</ele>
        <time>2020-09-06T07:35:12.345Z</time>
      </trkpt>
      <trkpt lat="48.40532" lon="7.32483">
        <ele>611</ele>
        <time>2020-09-06T07:35:13.346Z</time>
      </trkpt>
      <trkpt lat="48.40533" lon="7.32482">
        <ele>611</ele>
        <time>2020-09-06T07:35:14.346Z</time>
      </trkpt>
      <trkpt lat="48.40534" lon="7.32481">
        <ele>612</ele>
        <time>2020-09-06T07:35:15.346Z</time>
      </trkpt>
      <trkpt lat="48.40534" lon="7.32479">
        <ele>612</ele>
        <time>2020-09-06T07:35:16.346Z</time>
      </trkpt>
      <trkpt lat="48.40535" lon="7.32478">
        <ele>612</ele>
        <time>2020-09-06T07:35:17.346Z</time>
      </trkpt>
      <trkpt lat="48.40536" lon="7.32477">
        <ele>612</ele>
        <time>2020-09-06T07:35:18.345Z</time>
      </trkpt>
      <trkpt lat="48.40536" lon="7.32476">
        <ele>612</ele>
        <time>2020-09-06T07:35:19.346Z</time>
      </trkpt>
      <trkpt lat="48.40537" lon="7.32474">
        <ele>613</ele>
        <time>2020-09-06T07:35:20.345Z</time>
      </trkpt>
      <trkpt lat="48.40538" lon="7.32473">
        <ele>612</ele>
        <time>2020-09-06T07:35:21.345Z</time>
      </trkpt>
      <trkpt lat="48.40538" lon="7.32472">
        <ele>612</ele>
        <time>2020-09-06T07:35:22.346Z</time>
      </trkpt>
      <trkpt lat="48.40539" lon="7.32471">
        <ele>612</ele>
        <time>2020-09-06T07:35:23.346Z</time>
      </trkpt>
      <trkpt lat="48.4054" lon="7.3247">
        <ele>612</ele>
        <time>2020-09-06T07:35:24.346Z</time>
      </trkpt>
      <trkpt lat="48.40541" lon="7.32469">
        <ele>612</ele>
        <time>2020-09-06T07:35:25.345Z</time>
      </trkpt>
      <trkpt lat="48.40542" lon="7.32468">
        <ele>612</ele>
        <time>2020-09-06T07:35:26.346Z</time>
      </trkpt>
      <trkpt lat="48.40542" lon="7.32467">
        <ele>611</ele>
        <time>2020-09-06T07:35:27.346Z</time>
      </trkpt>
      <trkpt lat="48.40543" lon="7.32465">
        <ele>611</ele>
        <time>2020-09-06T07:35:28.346Z</time>
      </trkpt>
      <trkpt lat="48.40544" lon="7.32464">
        <ele>611</ele>
        <time>2020-09-06T07:35:29.346Z</time>
      </trkpt>
      <trkpt lat="48.40544" lon="7.32462">
        <ele>611</ele>
        <time>2020-09-06T07:35:30.346Z</time>
      </trkpt>
      <trkpt lat="48.40545" lon="7.32461">
        <ele>611</ele>
        <time>2020-09-06T07:35:31.345Z</time>
      </trkpt>
      <trkpt lat="48.40546" lon="7.32459">
        <ele>611</ele>
        <time>2020-09-06T07:35:32.346Z</time>
      </trkpt>
      <trkpt lat="48.40547" lon="7.32458">
        <ele>611</ele>
        <time>2020-09-06T07:35:33.346Z</time>
      </trkpt>
      <trkpt lat="48.40548" lon="7.32457">
        <ele>611</ele>
        <time>2020-09-06T07:35:34.345Z</time>
      </trkpt>
      <trkpt lat="48.40548" lon="7.32455">
        <ele>611</ele>
        <time>2020-09-06T07:35:35.346Z</time>
      </trkpt>
      <trkpt lat="48.40549" lon="7.32454">
        <ele>611</ele>
        <time>2020-09-06T07:35:36.345Z</time>
      </trkpt>
      <trkpt lat="48.4055" lon="7.32452">
        <ele>612</ele>
        <time>2020-09-06T07:35:37.346Z</time>
      </trkpt>
      <trkpt lat="48.4055" lon="7.32451">
        <ele>612</ele>
        <time>2020-09-06T07:35:38.345Z</time>
      </trkpt>
      <trkpt lat="48.40551" lon="7.3245">
        <ele>612</ele>
        <time>2020-09-06T07:35:39.346Z</time>
      </trkpt>
      <trkpt lat="48.40552" lon="7.32449">
        <ele>612</ele>
        <time>2020-09-06T07:35:40.346Z</time>
      </trkpt>
      <trkpt lat="48.40553" lon="7.32448">
        <ele>612</ele>
        <time>2020-09-06T07:35:41.346Z</time>
      </trkpt>
      <trkpt lat="48.40554" lon="7.32447">
        <ele>612</ele>
        <time>2020-09-06T07:35:42.345Z</time>
      </trkpt>
      <trkpt lat="48.40555" lon="7.32446">
        <ele>613</ele>
        <time>2020-09-06T07:35:43.346Z</time>
      </trkpt>
      <trkpt lat="48.40555" lon="7.32445">
        <ele>613</ele>
        <time>2020-09-06T07:35:44.346Z</time>
      </trkpt>
      <trkpt lat="48.40556" lon="7.32444">
        <ele>613</ele>
        <time>2020-09-06T07:35:45.346Z</time>
      </trkpt>
      <trkpt lat="48.40557" lon="7.32443">
        <ele>612</ele>
        <time>2020-09-06T07:35:46.345Z</time>
      </trkpt>
      <trkpt lat="48.40558" lon="7.32442">
        <ele>612</ele>
        <time>2020-09-06T07:35:47.346Z</time>
      </trkpt>
      <trkpt lat="48.40558" lon="7.32441">
        <ele>612</ele>
        <time>2020-09-06T07:35:48.346Z</time>
      </trkpt>
      <trkpt lat="48.40559" lon="7.3244">
        <ele>612</ele>
        <time>2020-09-06T07:35:49.346Z</time>
      </trkpt>
      <trkpt lat="48.4056" lon="7.32439">
        <ele>612</ele>
        <time>2020-09-06T07:35:50.345Z</time>
      </trkpt>
      <trkpt lat="48.4056" lon="7.32437">
        <ele>613</ele>
        <time>2020-09-06T07:35:51.346Z</time>
      </trkpt>
      <trkpt lat="48.40561" lon="7.32436">
        <ele>613</ele>
        <time>2020-09-06T07:35:52.346Z</time>
      </trkpt>
      <trkpt lat="48.40562" lon="7.32435">
        <ele>613</ele>
        <time>2020-09-06T07:35:53.346Z</time>
      </trkpt>
      <trkpt lat="48.40563" lon="7.32434">
        <ele>612</ele>
        <time>2020-09-06T07:35:54.345Z</time>
      </trkpt>
      <trkpt lat="48.40564" lon="7.32433">
        <ele>612</ele>
        <time>2020-09-06T07:35:55.345Z</time>
      </trkpt>
      <trkpt lat="48.40565" lon="7.32431">
        <ele>613</ele>
        <time>2020-09-06T07:35:56.345Z</time>
      </trkpt>
      <trkpt lat="48.40565" lon="7.32429">
        <ele>613</ele>
        <time>2020-09-06T07:35:57.345Z</time>
      </trkpt>
      <trkpt lat="48.40565" lon="7.32426">
        <ele>613</ele>
        <time>2020-09-06T07:35:58.346Z</time>
      </trkpt>
      <trkpt lat="48.40566" lon="7.32425">
        <ele>613</ele>
        <time>2020-09-06T07:35:59.346Z</time>
      </trkpt>
      <trkpt lat="48.40567" lon="7.32424">
        <ele>613</ele>
        <time>2020-09-06T07:36:00.345Z</time>
      </trkpt>
      <trkpt lat="48.40568" lon="7.32423">
        <ele>613</ele>
        <time>2020-09-06T07:36:01.346Z</time>
      </trkpt>
      <trkpt lat="48.40569" lon="7.32422">
        <ele>613</ele>
        <time>2020-09-06T07:36:02.346Z</time>
      </trkpt>
      <trkpt lat="48.4057" lon="7.32421">
        <ele>612</ele>
        <time>2020-09-06T07:36:03.346Z</time>
      </trkpt>
      <trkpt lat="48.4057" lon="7.3242">
        <ele>612</ele>
        <time>2020-09-06T07:36:04.346Z</time>
      </trkpt>
      <trkpt lat="48.40571" lon="7.32419">
        <ele>613</ele>
        <time>2020-09-06T07:36:05.346Z</time>
      </trkpt>
      <trkpt lat="48.40572" lon="7.32417">
        <ele>614</ele>
        <time>2020-09-06T07:36:06.345Z</time>
      </trkpt>
      <trkpt lat="48.40573" lon="7.32416">
        <ele>615</ele>
        <time>2020-09-06T07:36:07.346Z</time>
      </trkpt>
      <trkpt lat="48.40574" lon="7.32415">
        <ele>615</ele>
        <time>2020-09-06T07:36:08.346Z</time>
      </trkpt>
      <trkpt lat="48.40574" lon="7.32415">
        <ele>616</ele>
        <time>2020-09-06T07:36:09.346Z</time>
      </trkpt>
      <trkpt lat="48.40575" lon="7.32414">
        <ele>616</ele>
        <time>2020-09-06T07:36:10.346Z</time>
      </trkpt>
      <trkpt lat="48.40576" lon="7.32412">
        <ele>616</ele>
        <time>2020-09-06T07:36:11.346Z</time>
      </trkpt>
      <trkpt lat="48.40577" lon="7.32411">
        <ele>616</ele>
        <time>2020-09-06T07:36:12.346Z</time>
      </trkpt>
      <trkpt lat="48.40578" lon="7.3241">
        <ele>616</ele>
        <time>2020-09-06T07:36:13.346Z</time>
      </trkpt>
      <trkpt lat="48.40579" lon="7.32408">
        <ele>616</ele>
        <time>2020-09-06T07:36:14.346Z</time>
      </trkpt>
      <trkpt lat="48.4058" lon="7.32406">
        <ele>616</ele>
        <time>2020-09-06T07:36:15.346Z</time>
      </trkpt>
      <trkpt lat="48.4058" lon="7.32405">
        <ele>616</ele>
        <time>2020-09-06T07:36:16.346Z</time>
      </trkpt>
      <trkpt lat="48.40581" lon="7.32404">
        <ele>616</ele>
        <time>2020-09-06T07:36:17.345Z</time>
      </trkpt>
      <trkpt lat="48.40582" lon="7.32403">
        <ele>616</ele>
        <time>2020-09-06T07:36:18.346Z</time>
      </trkpt>
      <trkpt lat="48.40583" lon="7.32402">
        <ele>616</ele>
        <time>2020-09-06T07:36:19.346Z</time>
      </trkpt>
      <trkpt lat="48.40583" lon="7.32402">
        <ele>616</ele>
        <time>2020-09-06T07:36:20.346Z</time>
      </trkpt>
      <trkpt lat="48.40585" lon="7.32401">
        <ele>617</ele>
        <time>2020-09-06T07:36:21.346Z</time>
      </trkpt>
      <trkpt lat="48.40586" lon="7.32399">
        <ele>617</ele>
        <time>2020-09-06T07:36:22.345Z</time>
      </trkpt>
      <trkpt lat="48.40587" lon="7.32399">
        <ele>617</ele>
        <time>2020-09-06T07:36:23.346Z</time>
      </trkpt>
      <trkpt lat="48.40588" lon="7.32398">
        <ele>618</ele>
        <time>2020-09-06T07:36:24.345Z</time>
      </trkpt>
      <trkpt lat="48.40589" lon="7.32397">
        <ele>618</ele>
        <time>2020-09-06T07:36:25.346Z</time>
      </trkpt>
      <trkpt lat="48.4059" lon="7.32395">
        <ele>619</ele>
        <time>2020-09-06T07:36:26.346Z</time>
      </trkpt>
      <trkpt lat="48.40591" lon="7.32393">
        <ele>619</ele>
        <time>2020-09-06T07:36:27.346Z</time>
      </trkpt>
      <trkpt lat="48.40591" lon="7.32393">
        <ele>619</ele>
        <time>2020-09-06T07:36:28.346Z</time>
      </trkpt>
      <trkpt lat="48.40592" lon="7.32392">
        <ele>619</ele>
        <time>2020-09-06T07:36:29.346Z</time>
      </trkpt>
      <trkpt lat="48.40593" lon="7.32391">
        <ele>619</ele>
        <time>2020-09-06T07:36:30.345Z</time>
      </trkpt>
      <trkpt lat="48.40594" lon="7.3239">
        <ele>618</ele>
        <time>2020-09-06T07:36:31.346Z</time>
      </trkpt>
      <trkpt lat="48.40595" lon="7.32388">
        <ele>619</ele>
        <time>2020-09-06T07:36:32.346Z</time>
      </trkpt>
      <trkpt lat="48.40596" lon="7.32386">
        <ele>619</ele>
        <time>2020-09-06T07:36:33.346Z</time>
      </trkpt>
      <trkpt lat="48.40597" lon="7.32385">
        <ele>619</ele>
        <time>2020-09-06T07:36:34.346Z</time>
      </trkpt>
      <trkpt lat="48.40598" lon="7.32382">
        <ele>620</ele>
        <time>2020-09-06T07:36:35.346Z</time>
      </trkpt>
      <trkpt lat="48.40598" lon="7.3238">
        <ele>621</ele>
        <time>2020-09-06T07:36:36.345Z</time>
      </trkpt>
      <trkpt lat="48.40599" lon="7.32378">
        <ele>621</ele>
        <time>2020-09-06T07:36:37.346Z</time>
      </trkpt>
      <trkpt lat="48.40599" lon="7.32376">
        <ele>622</ele>
        <time>2020-09-06T07:36:38.345Z</time>
      </trkpt>
      <trkpt lat="48.406" lon="7.32375">
        <ele>623</ele>
        <time>2020-09-06T07:36:39.346Z</time>
      </trkpt>
      <trkpt lat="48.406" lon="7.32374">
        <ele>623</ele>
        <time>2020-09-06T07:36:40.345Z</time>
      </trkpt>
      <trkpt lat="48.40601" lon="7.32373">
        <ele>622</ele>
        <time>2020-09-06T07:36:41.346Z</time>
      </trkpt>
      <trkpt lat="48.40602" lon="7.32372">
        <ele>622</ele>
        <time>2020-09-06T07:36:42.346Z</time>
      </trkpt>
      <trkpt lat="48.40604" lon="7.32372">
        <ele>622</ele>
        <time>2020-09-06T07:36:43.346Z</time>
      </trkpt>
      <trkpt lat="48.40605" lon="7.3237">
        <ele>622</ele>
        <time>2020-09-06T07:36:44.345Z</time>
      </trkpt>
      <trkpt lat="48.40605" lon="7.32369">
        <ele>622</ele>
        <time>2020-09-06T07:36:45.346Z</time>
      </trkpt>
      <trkpt lat="48.40606" lon="7.32368">
        <ele>622</ele>
        <time>2020-09-06T07:36:46.346Z</time>
      </trkpt>
      <trkpt lat="48.40607" lon="7.32367">
        <ele>622</ele>
        <time>2020-09-06T07:36:47.346Z</time>
      </trkpt>
      <trkpt lat="48.40608" lon="7.32365">
        <ele>621</ele>
        <time>2020-09-06T07:36:48.346Z</time>
      </trkpt>
      <trkpt lat="48.40609" lon="7.32365">
        <ele>621</ele>
        <time>2020-09-06T07:36:49.346Z</time>
      </trkpt>
      <trkpt lat="48.4061" lon="7.32363">
        <ele>621</ele>
        <time>2020-09-06T07:36:50.346Z</time>
      </trkpt>
      <trkpt lat="48.4061" lon="7.32361">
        <ele>621</ele>
        <time>2020-09-06T07:36:51.346Z</time>
      </trkpt>
      <trkpt lat="48.40611" lon="7.3236">
        <ele>620</ele>
        <time>2020-09-06T07:36:52.346Z</time>
      </trkpt>
      <trkpt lat="48.40612" lon="7.32359">
        <ele>620</ele>
        <time>2020-09-06T07:36:53.346Z</time>
      </trkpt>
      <trkpt lat="48.40613" lon="7.32357">
        <ele>620</ele>
        <time>2020-09-06T07:36:54.345Z</time>
      </trkpt>
      <trkpt lat="48.40613" lon="7.32356">
        <ele>620</ele>
        <time>2020-09-06T07:36:55.346Z</time>
      </trkpt>
      <trkpt lat="48.40614" lon="7.32355">
        <ele>620</ele>
        <time>2020-09-06T07:36:56.345Z</time>
      </trkpt>
      <trkpt lat="48.40615" lon="7.32354">
        <ele>620</ele>
        <time>2020-09-06T07:36:57.345Z</time>
      </trkpt>
      <trkpt lat="48.40616" lon="7.32353">
        <ele>619</ele>
        <time>2020-09-06T07:36:58.346Z</time>
      </trkpt>
      <trkpt lat="48.40617" lon="7.32352">
        <ele>619</ele>
        <time>2020-09-06T07:36:59.345Z</time>
      </trkpt>
      <trkpt lat="48.40618" lon="7.32352">
        <ele>619</ele>
        <time>2020-09-06T07:37:00.346Z</time>
      </trkpt>
      <trkpt lat="48.40619" lon="7.32351">
        <ele>619</ele>
        <time>2020-09-06T07:37:01.345Z</time>
      </trkpt>
      <trkpt lat="48.40619" lon="7.32351">
        <ele>618</ele>
        <time>2020-09-06T07:37:02.346Z</time>
      </trkpt>
      <trkpt lat="48.4062" lon="7.32351">
        <ele>618</ele>
        <time>2020-09-06T07:37:03.346Z</time>
      </trkpt>
      <trkpt lat="48.40621" lon="7.32349">
        <ele>618</ele>
        <time>2020-09-06T07:37:04.346Z</time>
      </trkpt>
      <trkpt lat="48.40621" lon="7.32348">
        <ele>618</ele>
        <time>2020-09-06T07:37:05.345Z</time>
      </trkpt>
      <trkpt lat="48.40622" lon="7.32347">
        <ele>618</ele>
        <time>2020-09-06T07:37:06.346Z</time>
      </trkpt>
      <trkpt lat="48.40623" lon="7.32346">
        <ele>618</ele>
        <time>2020-09-06T07:37:07.346Z</time>
      </trkpt>
      <trkpt lat="48.40624" lon="7.32344">
        <ele>619</ele>
        <time>2020-09-06T07:37:08.346Z</time>
      </trkpt>
      <trkpt lat="48.40625" lon="7.32343">
        <ele>619</ele>
        <time>2020-09-06T07:37:09.346Z</time>
      </trkpt>
      <trkpt lat="48.40626" lon="7.32342">
        <ele>620</ele>
        <time>2020-09-06T07:37:10.345Z</time>
      </trkpt>
      <trkpt lat="48.40627" lon="7.32341">
        <ele>620</ele>
        <time>2020-09-06T07:37:11.346Z</time>
      </trkpt>
      <trkpt lat="48.40628" lon="7.32341">
        <ele>621</ele>
        <time>2020-09-06T07:37:12.346Z</time>
      </trkpt>
      <trkpt lat="48.40629" lon="7.3234">
        <ele>621</ele>
        <time>2020-09-06T07:37:13.346Z</time>
      </trkpt>
      <trkpt lat="48.4063" lon="7.3234">
        <ele>621</ele>
        <time>2020-09-06T07:37:14.346Z</time>
      </trkpt>
      <trkpt lat="48.40631" lon="7.32339">
        <ele>621</ele>
        <time>2020-09-06T07:37:15.346Z</time>
      </trkpt>
      <trkpt lat="48.40631" lon="7.32337">
        <ele>621</ele>
        <time>2020-09-06T07:37:16.345Z</time>
      </trkpt>
      <trkpt lat="48.40632" lon="7.32337">
        <ele>621</ele>
        <time>2020-09-06T07:37:17.345Z</time>
      </trkpt>
      <trkpt lat="48.40632" lon="7.32335">
        <ele>620</ele>
        <time>2020-09-06T07:37:18.346Z</time>
      </trkpt>
      <trkpt lat="48.40633" lon="7.32334">
        <ele>619</ele>
        <time>2020-09-06T07:37:19.346Z</time>
      </trkpt>
      <trkpt lat="48.40634" lon="7.32334">
        <ele>618</ele>
        <time>2020-09-06T07:37:20.346Z</time>
      </trkpt>
      <trkpt lat="48.40634" lon="7.32333">
        <ele>618</ele>
        <time>2020-09-06T07:37:21.346Z</time>
      </trkpt>
      <trkpt lat="48.40635" lon="7.32333">
        <ele>617</ele>
        <time>2020-09-06T07:37:22.346Z</time>
      </trkpt>
      <trkpt lat="48.40636" lon="7.32332">
        <ele>616</ele>
        <time>2020-09-06T07:37:23.346Z</time>
      </trkpt>
      <trkpt lat="48.40638" lon="7.32332">
        <ele>615</ele>
        <time>2020-09-06T07:37:24.346Z</time>
      </trkpt>
      <trkpt lat="48.40639" lon="7.32331">
        <ele>615</ele>
        <time>2020-09-06T07:37:25.345Z</time>
      </trkpt>
      <trkpt lat="48.40639" lon="7.32331">
        <ele>615</ele>
        <time>2020-09-06T07:37:26.345Z</time>
      </trkpt>
      <trkpt lat="48.4064" lon="7.3233">
        <ele>614</ele>
        <time>2020-09-06T07:37:27.346Z</time>
      </trkpt>
      <trkpt lat="48.40641" lon="7.3233">
        <ele>614</ele>
        <time>2020-09-06T07:37:28.346Z</time>
      </trkpt>
      <trkpt lat="48.40643" lon="7.32329">
        <ele>613</ele>
        <time>2020-09-06T07:37:29.345Z</time>
      </trkpt>
      <trkpt lat="48.40644" lon="7.32329">
        <ele>613</ele>
        <time>2020-09-06T07:37:30.345Z</time>
      </trkpt>
      <trkpt lat="48.40645" lon="7.32328">
        <ele>612</ele>
        <time>2020-09-06T07:37:31.346Z</time>
      </trkpt>
      <trkpt lat="48.40646" lon="7.32328">
        <ele>612</ele>
        <time>2020-09-06T07:37:32.346Z</time>
      </trkpt>
      <trkpt lat="48.40647" lon="7.32327">
        <ele>612</ele>
        <time>2020-09-06T07:37:33.345Z</time>
      </trkpt>
      <trkpt lat="48.40648" lon="7.32327">
        <ele>613</ele>
        <time>2020-09-06T07:37:34.345Z</time>
      </trkpt>
      <trkpt lat="48.40648" lon="7.32325">
        <ele>613</ele>
        <time>2020-09-06T07:37:35.346Z</time>
      </trkpt>
      <trkpt lat="48.40649" lon="7.32325">
        <ele>614</ele>
        <time>2020-09-06T07:37:36.346Z</time>
      </trkpt>
      <trkpt lat="48.40649" lon="7.32324">
        <ele>614</ele>
        <time>2020-09-06T07:37:37.345Z</time>
      </trkpt>
      <trkpt lat="48.4065" lon="7.32323">
        <ele>615</ele>
        <time>2020-09-06T07:37:38.345Z</time>
      </trkpt>
      <trkpt lat="48.40651" lon="7.32322">
        <ele>615</ele>
        <time>2020-09-06T07:37:39.346Z</time>
      </trkpt>
      <trkpt lat="48.40652" lon="7.32321">
        <ele>616</ele>
        <time>2020-09-06T07:37:40.346Z</time>
      </trkpt>
      <trkpt lat="48.40653" lon="7.32321">
        <ele>616</ele>
        <time>2020-09-06T07:37:41.346Z</time>
      </trkpt>
      <trkpt lat="48.40654" lon="7.3232">
        <ele>617</ele>
        <time>2020-09-06T07:37:42.346Z</time>
      </trkpt>
      <trkpt lat="48.40655" lon="7.32319">
        <ele>618</ele>
        <time>2020-09-06T07:37:43.345Z</time>
      </trkpt>
      <trkpt lat="48.40656" lon="7.32317">
        <ele>619</ele>
        <time>2020-09-06T07:37:44.346Z</time>
      </trkpt>
      <trkpt lat="48.40657" lon="7.32317">
        <ele>619</ele>
        <time>2020-09-06T07:37:45.346Z</time>
      </trkpt>
      <trkpt lat="48.40658" lon="7.32315">
        <ele>620</ele>
        <time>2020-09-06T07:37:46.346Z</time>
      </trkpt>
      <trkpt lat="48.40659" lon="7.32315">
        <ele>621</ele>
        <time>2020-09-06T07:37:47.346Z</time>
      </trkpt>
      <trkpt lat="48.4066" lon="7.32314">
        <ele>621</ele>
        <time>2020-09-06T07:37:48.345Z</time>
      </trkpt>
      <trkpt lat="48.40661" lon="7.32313">
        <ele>621</ele>
        <time>2020-09-06T07:37:49.346Z</time>
      </trkpt>
      <trkpt lat="48.40662" lon="7.32312">
        <ele>621</ele>
        <time>2020-09-06T07:37:50.346Z</time>
      </trkpt>
      <trkpt lat="48.40663" lon="7.32311">
        <ele>622</ele>
        <time>2020-09-06T07:37:51.346Z</time>
      </trkpt>
      <trkpt lat="48.40664" lon="7.3231">
        <ele>622</ele>
        <time>2020-09-06T07:37:52.346Z</time>
      </trkpt>
      <trkpt lat="48.40664" lon="7.32309">
        <ele>623</ele>
        <time>2020-09-06T07:37:53.345Z</time>
      </trkpt>
      <trkpt lat="48.40665" lon="7.32308">
        <ele>623</ele>
        <time>2020-09-06T07:37:54.345Z</time>
      </trkpt>
      <trkpt lat="48.40665" lon="7.32305">
        <ele>623</ele>
        <time>2020-09-06T07:37:55.346Z</time>
      </trkpt>
      <trkpt lat="48.40666" lon="7.32303">
        <ele>624</ele>
        <time>2020-09-06T07:37:56.346Z</time>
      </trkpt>
      <trkpt lat="48.40667" lon="7.32301">
        <ele>624</ele>
        <time>2020-09-06T07:37:57.345Z</time>
      </trkpt>
      <trkpt lat="48.40667" lon="7.323">
        <ele>624</ele>
        <time>2020-09-06T07:37:58.345Z</time>
      </trkpt>
      <trkpt lat="48.40668" lon="7.32299">
        <ele>625</ele>
        <time>2020-09-06T07:37:59.346Z</time>
      </trkpt>
      <trkpt lat="48.40669" lon="7.32299">
        <ele>625</ele>
        <time>2020-09-06T07:38:00.345Z</time>
      </trkpt>
      <trkpt lat="48.4067" lon="7.32298">
        <ele>625</ele>
        <time>2020-09-06T07:38:01.346Z</time>
      </trkpt>
      <trkpt lat="48.40671" lon="7.32297">
        <ele>625</ele>
        <time>2020-09-06T07:38:02.345Z</time>
      </trkpt>
      <trkpt lat="48.40672" lon="7.32296">
        <ele>626</ele>
        <time>2020-09-06T07:38:03.345Z</time>
      </trkpt>
      <trkpt lat="48.40673" lon="7.32294">
        <ele>626</ele>
        <time>2020-09-06T07:38:04.346Z</time>
      </trkpt>
      <trkpt lat="48.40674" lon="7.32292">
        <ele>626</ele>
        <time>2020-09-06T07:38:05.346Z</time>
      </trkpt>
      <trkpt lat="48.40674" lon="7.3229">
        <ele>626</ele>
        <time>2020-09-06T07:38:06.346Z</time>
      </trkpt>
      <trkpt lat="48.40675" lon="7.32288">
        <ele>626</ele>
        <time>2020-09-06T07:38:07.345Z</time>
      </trkpt>
      <trkpt lat="48.40675" lon="7.32287">
        <ele>626</ele>
        <time>2020-09-06T07:38:08.346Z</time>
      </trkpt>
      <trkpt lat="48.40676" lon="7.32285">
        <ele>626</ele>
        <time>2020-09-06T07:38:09.346Z</time>
      </trkpt>
      <trkpt lat="48.40677" lon="7.32284">
        <ele>626</ele>
        <time>2020-09-06T07:38:10.345Z</time>
      </trkpt>
      <trkpt lat="48.40678" lon="7.32283">
        <ele>627</ele>
        <time>2020-09-06T07:38:11.346Z</time>
      </trkpt>
      <trkpt lat="48.40679" lon="7.32283">
        <ele>627</ele>
        <time>2020-09-06T07:38:12.346Z</time>
      </trkpt>
      <trkpt lat="48.4068" lon="7.32282">
        <ele>627</ele>
        <time>2020-09-06T07:38:13.346Z</time>
      </trkpt>
      <trkpt lat="48.40681" lon="7.32281">
        <ele>627</ele>
        <time>2020-09-06T07:38:14.346Z</time>
      </trkpt>
      <trkpt lat="48.40682" lon="7.32281">
        <ele>627</ele>
        <time>2020-09-06T07:38:15.345Z</time>
      </trkpt>
      <trkpt lat="48.40682" lon="7.3228">
        <ele>628</ele>
        <time>2020-09-06T07:38:16.346Z</time>
      </trkpt>
      <trkpt lat="48.40683" lon="7.32279">
        <ele>628</ele>
        <time>2020-09-06T07:38:17.346Z</time>
      </trkpt>
      <trkpt lat="48.40683" lon="7.32277">
        <ele>628</ele>
        <time>2020-09-06T07:38:18.346Z</time>
      </trkpt>
      <trkpt lat="48.40684" lon="7.32275">
        <ele>628</ele>
        <time>2020-09-06T07:38:19.345Z</time>
      </trkpt>
      <trkpt lat="48.40684" lon="7.32274">
        <ele>628</ele>
        <time>2020-09-06T07:38:20.346Z</time>
      </trkpt>
      <trkpt lat="48.40685" lon="7.32273">
        <ele>629</ele>
        <time>2020-09-06T07:38:21.346Z</time>
      </trkpt>
      <trkpt lat="48.40686" lon="7.32272">
        <ele>630</ele>
        <time>2020-09-06T07:38:22.346Z</time>
      </trkpt>
      <trkpt lat="48.40687" lon="7.32271">
        <ele>631</ele>
        <time>2020-09-06T07:38:23.345Z</time>
      </trkpt>
      <trkpt lat="48.40687" lon="7.32269">
        <ele>631</ele>
        <time>2020-09-06T07:38:24.345Z</time>
      </trkpt>
      <trkpt lat="48.40687" lon="7.32268">
        <ele>632</ele>
        <time>2020-09-06T07:38:25.345Z</time>
      </trkpt>
      <trkpt lat="48.40688" lon="7.32267">
        <ele>632</ele>
        <time>2020-09-06T07:38:26.345Z</time>
      </trkpt>
      <trkpt lat="48.40689" lon="7.32266">
        <ele>633</ele>
        <time>2020-09-06T07:38:27.346Z</time>
      </trkpt>
      <trkpt lat="48.40689" lon="7.32263">
        <ele>633</ele>
        <time>2020-09-06T07:38:28.345Z</time>
      </trkpt>
      <trkpt lat="48.4069" lon="7.32262">
        <ele>632</ele>
        <time>2020-09-06T07:38:29.346Z</time>
      </trkpt>
      <trkpt lat="48.40692" lon="7.32262">
        <ele>633</ele>
        <time>2020-09-06T07:38:30.346Z</time>
      </trkpt>
      <trkpt lat="48.40693" lon="7.32261">
        <ele>633</ele>
        <time>2020-09-06T07:38:31.346Z</time>
      </trkpt>
      <trkpt lat="48.40694" lon="7.3226">
        <ele>633</ele>
        <time>2020-09-06T07:38:32.345Z</time>
      </trkpt>
      <trkpt lat="48.40694" lon="7.32259">
        <ele>633</ele>
        <time>2020-09-06T07:38:33.346Z</time>
      </trkpt>
      <trkpt lat="48.40695" lon="7.32258">
        <ele>633</ele>
        <time>2020-09-06T07:38:34.345Z</time>
      </trkpt>
      <trkpt lat="48.40695" lon="7.32257">
        <ele>633</ele>
        <time>2020-09-06T07:38:35.346Z</time>
      </trkpt>
      <trkpt lat="48.40696" lon="7.32256">
        <ele>633</ele>
        <time>2020-09-06T07:38:36.345Z</time>
      </trkpt>
      <trkpt lat="48.40696" lon="7.32255">
        <ele>632</ele>
        <time>2020-09-06T07:38:37.346Z</time>
      </trkpt>
      <trkpt lat="48.40697" lon="7.32255">
        <ele>632</ele>
        <time>2020-09-06T07:38:38.346Z</time>
      </trkpt>
      <trkpt lat="48.40698" lon="7.32254">
        <ele>632</ele>
        <time>2020-09-06T07:38:39.345Z</time>
      </trkpt>
      <trkpt lat="48.40699" lon="7.32254">
        <ele>632</ele>
        <time>2020-09-06T07:38:40.346Z</time>
      </trkpt>
      <trkpt lat="48.40699" lon="7.32254">
        <ele>631</ele>
        <time>2020-09-06T07:38:41.346Z</time>
      </trkpt>
      <trkpt lat="48.407" lon="7.32253">
        <ele>631</ele>
        <time>2020-09-06T07:38:42.346Z</time>
      </trkpt>
      <trkpt lat="48.40701" lon="7.32252">
        <ele>631</ele>
        <time>2020-09-06T07:38:43.346Z</time>
      </trkpt>
      <trkpt lat="48.40701" lon="7.32252">
        <ele>631</ele>
        <time>2020-09-06T07:38:44.345Z</time>
      </trkpt>
      <trkpt lat="48.40701" lon="7.3225">
        <ele>631</ele>
        <time>2020-09-06T07:38:45.346Z</time>
      </trkpt>
      <trkpt lat="48.40701" lon="7.32249">
        <ele>631</ele>
        <time>2020-09-06T07:38:46.346Z</time>
      </trkpt>
      <trkpt lat="48.40701" lon="7.32246">
        <ele>631</ele>
        <time>2020-09-06T07:38:47.346Z</time>
      </trkpt>
      <trkpt lat="48.40702" lon="7.32244">
        <ele>631</ele>
        <time>2020-09-06T07:38:48.346Z</time>
      </trkpt>
      <trkpt lat="48.40701" lon="7.32242">
        <ele>630</ele>
        <time>2020-09-06T07:38:49.345Z</time>
      </trkpt>
      <trkpt lat="48.40701" lon="7.32239">
        <ele>630</ele>
        <time>2020-09-06T07:38:50.346Z</time>
      </trkpt>
      <trkpt lat="48.40701" lon="7.32237">
        <ele>630</ele>
        <time>2020-09-06T07:38:51.346Z</time>
      </trkpt>
      <trkpt lat="48.40701" lon="7.32234">
        <ele>630</ele>
        <time>2020-09-06T07:38:52.345Z</time>
      </trkpt>
      <trkpt lat="48.40701" lon="7.32232">
        <ele>630</ele>
        <time>2020-09-06T07:38:53.346Z</time>
      </trkpt>
      <trkpt lat="48.40701" lon="7.32229">
        <ele>630</ele>
        <time>2020-09-06T07:38:54.345Z</time>
      </trkpt>
      <trkpt lat="48.40701" lon="7.32227">
        <ele>630</ele>
        <time>2020-09-06T07:38:55.345Z</time>
      </trkpt>
      <trkpt lat="48.40702" lon="7.32225">
        <ele>631</ele>
        <time>2020-09-06T07:38:56.346Z</time>
      </trkpt>
      <trkpt lat="48.40703" lon="7.32222">
        <ele>631</ele>
        <time>2020-09-06T07:38:57.345Z</time>
      </trkpt>
      <trkpt lat="48.40703" lon="7.32221">
        <ele>630</ele>
        <time>2020-09-06T07:38:58.346Z</time>
      </trkpt>
      <trkpt lat="48.40704" lon="7.3222">
        <ele>630</ele>
        <time>2020-09-06T07:38:59.345Z</time>
      </trkpt>
      <trkpt lat="48.40705" lon="7.32219">
        <ele>629</ele>
        <time>2020-09-06T07:39:00.345Z</time>
      </trkpt>
      <trkpt lat="48.40705" lon="7.32215">
        <ele>629</ele>
        <time>2020-09-06T07:39:01.345Z</time>
      </trkpt>
      <trkpt lat="48.40706" lon="7.32215">
        <ele>628</ele>
        <time>2020-09-06T07:39:02.346Z</time>
      </trkpt>
      <trkpt lat="48.40707" lon="7.32214">
        <ele>628</ele>
        <time>2020-09-06T07:39:03.345Z</time>
      </trkpt>
      <trkpt lat="48.40708" lon="7.32213">
        <ele>627</ele>
        <time>2020-09-06T07:39:04.345Z</time>
      </trkpt>
      <trkpt lat="48.40709" lon="7.32213">
        <ele>627</ele>
        <time>2020-09-06T07:39:05.345Z</time>
      </trkpt>
      <trkpt lat="48.40709" lon="7.32212">
        <ele>627</ele>
        <time>2020-09-06T07:39:06.346Z</time>
      </trkpt>
      <trkpt lat="48.40709" lon="7.3221">
        <ele>626</ele>
        <time>2020-09-06T07:39:07.346Z</time>
      </trkpt>
      <trkpt lat="48.4071" lon="7.32209">
        <ele>626</ele>
        <time>2020-09-06T07:39:08.346Z</time>
      </trkpt>
      <trkpt lat="48.4071" lon="7.32208">
        <ele>626</ele>
        <time>2020-09-06T07:39:09.345Z</time>
      </trkpt>
      <trkpt lat="48.40711" lon="7.32207">
        <ele>626</ele>
        <time>2020-09-06T07:39:10.346Z</time>
      </trkpt>
      <trkpt lat="48.40712" lon="7.32205">
        <ele>626</ele>
        <time>2020-09-06T07:39:11.345Z</time>
      </trkpt>
      <trkpt lat="48.40712" lon="7.32204">
        <ele>625</ele>
        <time>2020-09-06T07:39:12.345Z</time>
      </trkpt>
      <trkpt lat="48.40713" lon="7.32202">
        <ele>625</ele>
        <time>2020-09-06T07:39:13.345Z</time>
      </trkpt>
      <trkpt lat="48.40714" lon="7.32202">
        <ele>625</ele>
        <time>2020-09-06T07:39:14.345Z</time>
      </trkpt>
      <trkpt lat="48.40715" lon="7.322">
        <ele>625</ele>
        <time>2020-09-06T07:39:15.346Z</time>
      </trkpt>
      <trkpt lat="48.40714" lon="7.32199">
        <ele>625</ele>
        <time>2020-09-06T07:39:16.345Z</time>
      </trkpt>
      <trkpt lat="48.40714" lon="7.32197">
        <ele>626</ele>
        <time>2020-09-06T07:39:17.346Z</time>
      </trkpt>
      <trkpt lat="48.40713" lon="7.32197">
        <ele>626</ele>
        <time>2020-09-06T07:39:18.346Z</time>
      </trkpt>
      <trkpt lat="48.40713" lon="7.32196">
        <ele>626</ele>
        <time>2020-09-06T07:39:19.346Z</time>
      </trkpt>
      <trkpt lat="48.40712" lon="7.32195">
        <ele>627</ele>
        <time>2020-09-06T07:39:20.345Z</time>
      </trkpt>
      <trkpt lat="48.40713" lon="7.32193">
        <ele>627</ele>
        <time>2020-09-06T07:39:21.345Z</time>
      </trkpt>
      <trkpt lat="48.40713" lon="7.32192">
        <ele>627</ele>
        <time>2020-09-06T07:39:22.346Z</time>
      </trkpt>
      <trkpt lat="48.40713" lon="7.3219">
        <ele>628</ele>
        <time>2020-09-06T07:39:23.345Z</time>
      </trkpt>
      <trkpt lat="48.40713" lon="7.32189">
        <ele>628</ele>
        <time>2020-09-06T07:39:24.345Z</time>
      </trkpt>
      <trkpt lat="48.40713" lon="7.32187">
        <ele>628</ele>
        <time>2020-09-06T07:39:25.345Z</time>
      </trkpt>
      <trkpt lat="48.40713" lon="7.32185">
        <ele>628</ele>
        <time>2020-09-06T07:39:26.345Z</time>
      </trkpt>
      <trkpt lat="48.40713" lon="7.32184">
        <ele>628</ele>
        <time>2020-09-06T07:39:27.345Z</time>
      </trkpt>
      <trkpt lat="48.40713" lon="7.32183">
        <ele>628</ele>
        <time>2020-09-06T07:39:28.345Z</time>
      </trkpt>
      <trkpt lat="48.40713" lon="7.32182">
        <ele>628</ele>
        <time>2020-09-06T07:39:29.345Z</time>
      </trkpt>
      <trkpt lat="48.40713" lon="7.3218">
        <ele>628</ele>
        <time>2020-09-06T07:39:30.345Z</time>
      </trkpt>
      <trkpt lat="48.40712" lon="7.32179">
        <ele>628</ele>
        <time>2020-09-06T07:39:31.345Z</time>
      </trkpt>
      <trkpt lat="48.40712" lon="7.32177">
        <ele>628</ele>
        <time>2020-09-06T07:39:32.345Z</time>
      </trkpt>
      <trkpt lat="48.40712" lon="7.32175">
        <ele>628</ele>
        <time>2020-09-06T07:39:33.345Z</time>
      </trkpt>
      <trkpt lat="48.40712" lon="7.32172">
        <ele>627</ele>
        <time>2020-09-06T07:39:34.346Z</time>
      </trkpt>
      <trkpt lat="48.40711" lon="7.3217">
        <ele>627</ele>
        <time>2020-09-06T07:39:35.345Z</time>
      </trkpt>
      <trkpt lat="48.40711" lon="7.32167">
        <ele>627</ele>
        <time>2020-09-06T07:39:36.345Z</time>
      </trkpt>
      <trkpt lat="48.40711" lon="7.32166">
        <ele>627</ele>
        <time>2020-09-06T07:39:37.346Z</time>
      </trkpt>
      <trkpt lat="48.40712" lon="7.32166">
        <ele>627</ele>
        <time>2020-09-06T07:39:38.345Z</time>
      </trkpt>
      <trkpt lat="48.40712" lon="7.32165">
        <ele>626</ele>
        <time>2020-09-06T07:39:39.345Z</time>
      </trkpt>
      <trkpt lat="48.40712" lon="7.32165">
        <ele>626</ele>
        <time>2020-09-06T07:39:40.345Z</time>
      </trkpt>
      <trkpt lat="48.40711" lon="7.32163">
        <ele>627</ele>
        <time>2020-09-06T07:39:41.345Z</time>
      </trkpt>
      <trkpt lat="48.40711" lon="7.32162">
        <ele>627</ele>
        <time>2020-09-06T07:39:42.345Z</time>
      </trkpt>
      <trkpt lat="48.40712" lon="7.32162">
        <ele>627</ele>
        <time>2020-09-06T07:39:43.345Z</time>
      </trkpt>
      <trkpt lat="48.40712" lon="7.32161">
        <ele>628</ele>
        <time>2020-09-06T07:39:44.345Z</time>
      </trkpt>
      <trkpt lat="48.40713" lon="7.3216">
        <ele>629</ele>
        <time>2020-09-06T07:39:45.345Z</time>
      </trkpt>
      <trkpt lat="48.40712" lon="7.32158">
        <ele>629</ele>
        <time>2020-09-06T07:39:46.345Z</time>
      </trkpt>
      <trkpt lat="48.40712" lon="7.32157">
        <ele>630</ele>
        <time>2020-09-06T07:39:47.345Z</time>
      </trkpt>
      <trkpt lat="48.40712" lon="7.32155">
        <ele>630</ele>
        <time>2020-09-06T07:39:48.345Z</time>
      </trkpt>
      <trkpt lat="48.40712" lon="7.32154">
        <ele>630</ele>
        <time>2020-09-06T07:39:49.345Z</time>
      </trkpt>
      <trkpt lat="48.40712" lon="7.32154">
        <ele>630</ele>
        <time>2020-09-06T07:39:50.346Z</time>
      </trkpt>
      <trkpt lat="48.40712" lon="7.32153">
        <ele>630</ele>
        <time>2020-09-06T07:39:51.346Z</time>
      </trkpt>
      <trkpt lat="48.40713" lon="7.32152">
        <ele>630</ele>
        <time>2020-09-06T07:39:52.346Z</time>
      </trkpt>
      <trkpt lat="48.40713" lon="7.32151">
        <ele>630</ele>
        <time>2020-09-06T07:39:53.346Z</time>
      </trkpt>
      <trkpt lat="48.40713" lon="7.3215">
        <ele>631</ele>
        <time>2020-09-06T07:39:54.346Z</time>
      </trkpt>
      <trkpt lat="48.40713" lon="7.32148">
        <ele>631</ele>
        <time>2020-09-06T07:39:55.345Z</time>
      </trkpt>
      <trkpt lat="48.40713" lon="7.32148">
        <ele>631</ele>
        <time>2020-09-06T07:39:56.345Z</time>
      </trkpt>
      <trkpt lat="48.40713" lon="7.32147">
        <ele>631</ele>
        <time>2020-09-06T07:39:57.345Z</time>
      </trkpt>
      <trkpt lat="48.40714" lon="7.32146">
        <ele>631</ele>
        <time>2020-09-06T07:39:58.346Z</time>
      </trkpt>
      <trkpt lat="48.40714" lon="7.32145">
        <ele>631</ele>
        <time>2020-09-06T07:39:59.346Z</time>
      </trkpt>
      <trkpt lat="48.40714" lon="7.32144">
        <ele>631</ele>
        <time>2020-09-06T07:40:00.346Z</time>
      </trkpt>
      <trkpt lat="48.40713" lon="7.32142">
        <ele>630</ele>
        <time>2020-09-06T07:40:01.345Z</time>
      </trkpt>
      <trkpt lat="48.40713" lon="7.3214">
        <ele>630</ele>
        <time>2020-09-06T07:40:02.345Z</time>
      </trkpt>
      <trkpt lat="48.40713" lon="7.32139">
        <ele>630</ele>
        <time>2020-09-06T07:40:03.346Z</time>
      </trkpt>
      <trkpt lat="48.40712" lon="7.32138">
        <ele>631</ele>
        <time>2020-09-06T07:40:04.346Z</time>
      </trkpt>
      <trkpt lat="48.40711" lon="7.32136">
        <ele>631</ele>
        <time>2020-09-06T07:40:05.346Z</time>
      </trkpt>
      <trkpt lat="48.4071" lon="7.32134">
        <ele>631</ele>
        <time>2020-09-06T07:40:06.345Z</time>
      </trkpt>
      <trkpt lat="48.40709" lon="7.32132">
        <ele>631</ele>
        <time>2020-09-06T07:40:07.345Z</time>
      </trkpt>
      <trkpt lat="48.40708" lon="7.32129">
        <ele>631</ele>
        <time>2020-09-06T07:40:08.345Z</time>
      </trkpt>
      <trkpt lat="48.40707" lon="7.32126">
        <ele>630</ele>
        <time>2020-09-06T07:40:09.346Z</time>
      </trkpt>
      <trkpt lat="48.40707" lon="7.32124">
        <ele>630</ele>
        <time>2020-09-06T07:40:10.345Z</time>
      </trkpt>
      <trkpt lat="48.40706" lon="7.32122">
        <ele>630</ele>
        <time>2020-09-06T07:40:11.346Z</time>
      </trkpt>
      <trkpt lat="48.40706" lon="7.3212">
        <ele>630</ele>
        <time>2020-09-06T07:40:12.346Z</time>
      </trkpt>
      <trkpt lat="48.40706" lon="7.32119">
        <ele>629</ele>
        <time>2020-09-06T07:40:13.345Z</time>
      </trkpt>
      <trkpt lat="48.40706" lon="7.32117">
        <ele>629</ele>
        <time>2020-09-06T07:40:14.345Z</time>
      </trkpt>
      <trkpt lat="48.40705" lon="7.32115">
        <ele>629</ele>
        <time>2020-09-06T07:40:15.345Z</time>
      </trkpt>
      <trkpt lat="48.40704" lon="7.32113">
        <ele>629</ele>
        <time>2020-09-06T07:40:16.346Z</time>
      </trkpt>
      <trkpt lat="48.40704" lon="7.32111">
        <ele>629</ele>
        <time>2020-09-06T07:40:17.346Z</time>
      </trkpt>
      <trkpt lat="48.40703" lon="7.3211">
        <ele>629</ele>
        <time>2020-09-06T07:40:18.346Z</time>
      </trkpt>
      <trkpt lat="48.40702" lon="7.32108">
        <ele>629</ele>
        <time>2020-09-06T07:40:19.346Z</time>
      </trkpt>
      <trkpt lat="48.40702" lon="7.32107">
        <ele>630</ele>
        <time>2020-09-06T07:40:20.345Z</time>
      </trkpt>
      <trkpt lat="48.40701" lon="7.32105">
        <ele>630</ele>
        <time>2020-09-06T07:40:21.346Z</time>
      </trkpt>
      <trkpt lat="48.40701" lon="7.32103">
        <ele>631</ele>
        <time>2020-09-06T07:40:22.345Z</time>
      </trkpt>
      <trkpt lat="48.407" lon="7.32102">
        <ele>632</ele>
        <time>2020-09-06T07:40:23.346Z</time>
      </trkpt>
      <trkpt lat="48.40699" lon="7.321">
        <ele>633</ele>
        <time>2020-09-06T07:40:24.346Z</time>
      </trkpt>
      <trkpt lat="48.40699" lon="7.32099">
        <ele>634</ele>
        <time>2020-09-06T07:40:25.345Z</time>
      </trkpt>
      <trkpt lat="48.40699" lon="7.32097">
        <ele>634</ele>
        <time>2020-09-06T07:40:26.345Z</time>
      </trkpt>
      <trkpt lat="48.40698" lon="7.32096">
        <ele>635</ele>
        <time>2020-09-06T07:40:27.345Z</time>
      </trkpt>
      <trkpt lat="48.40698" lon="7.32094">
        <ele>635</ele>
        <time>2020-09-06T07:40:28.346Z</time>
      </trkpt>
      <trkpt lat="48.40697" lon="7.32092">
        <ele>636</ele>
        <time>2020-09-06T07:40:29.346Z</time>
      </trkpt>
      <trkpt lat="48.40696" lon="7.3209">
        <ele>636</ele>
        <time>2020-09-06T07:40:30.346Z</time>
      </trkpt>
      <trkpt lat="48.40696" lon="7.32088">
        <ele>637</ele>
        <time>2020-09-06T07:40:31.345Z</time>
      </trkpt>
      <trkpt lat="48.40695" lon="7.32087">
        <ele>637</ele>
        <time>2020-09-06T07:40:32.345Z</time>
      </trkpt>
      <trkpt lat="48.40695" lon="7.32085">
        <ele>637</ele>
        <time>2020-09-06T07:40:33.346Z</time>
      </trkpt>
      <trkpt lat="48.40695" lon="7.32083">
        <ele>637</ele>
        <time>2020-09-06T07:40:34.346Z</time>
      </trkpt>
      <trkpt lat="48.40694" lon="7.32081">
        <ele>638</ele>
        <time>2020-09-06T07:40:35.346Z</time>
      </trkpt>
      <trkpt lat="48.40694" lon="7.32079">
        <ele>638</ele>
        <time>2020-09-06T07:40:36.346Z</time>
      </trkpt>
      <trkpt lat="48.40693" lon="7.32078">
        <ele>638</ele>
        <time>2020-09-06T07:40:37.346Z</time>
      </trkpt>
      <trkpt lat="48.40692" lon="7.32076">
        <ele>639</ele>
        <time>2020-09-06T07:40:38.345Z</time>
      </trkpt>
      <trkpt lat="48.40691" lon="7.32076">
        <ele>640</ele>
        <time>2020-09-06T07:40:39.346Z</time>
      </trkpt>
      <trkpt lat="48.4069" lon="7.32074">
        <ele>640</ele>
        <time>2020-09-06T07:40:40.346Z</time>
      </trkpt>
      <trkpt lat="48.4069" lon="7.32072">
        <ele>640</ele>
        <time>2020-09-06T07:40:41.346Z</time>
      </trkpt>
      <trkpt lat="48.4069" lon="7.3207">
        <ele>640</ele>
        <time>2020-09-06T07:40:42.345Z</time>
      </trkpt>
      <trkpt lat="48.4069" lon="7.32068">
        <ele>640</ele>
        <time>2020-09-06T07:40:43.346Z</time>
      </trkpt>
      <trkpt lat="48.4069" lon="7.32067">
        <ele>640</ele>
        <time>2020-09-06T07:40:44.346Z</time>
      </trkpt>
      <trkpt lat="48.4069" lon="7.32066">
        <ele>640</ele>
        <time>2020-09-06T07:40:45.345Z</time>
      </trkpt>
      <trkpt lat="48.4069" lon="7.32065">
        <ele>640</ele>
        <time>2020-09-06T07:40:46.346Z</time>
      </trkpt>
      <trkpt lat="48.40689" lon="7.32065">
        <ele>640</ele>
        <time>2020-09-06T07:40:47.345Z</time>
      </trkpt>
      <trkpt lat="48.40689" lon="7.32064">
        <ele>639</ele>
        <time>2020-09-06T07:40:48.346Z</time>
      </trkpt>
      <trkpt lat="48.40688" lon="7.32062">
        <ele>639</ele>
        <time>2020-09-06T07:40:49.345Z</time>
      </trkpt>
      <trkpt lat="48.40688" lon="7.32061">
        <ele>638</ele>
        <time>2020-09-06T07:40:50.346Z</time>
      </trkpt>
      <trkpt lat="48.40689" lon="7.3206">
        <ele>638</ele>
        <time>2020-09-06T07:40:51.346Z</time>
      </trkpt>
      <trkpt lat="48.40689" lon="7.32058">
        <ele>638</ele>
        <time>2020-09-06T07:40:52.345Z</time>
      </trkpt>
      <trkpt lat="48.40688" lon="7.32054">
        <ele>638</ele>
        <time>2020-09-06T07:40:53.345Z</time>
      </trkpt>
      <trkpt lat="48.40688" lon="7.32053">
        <ele>637</ele>
        <time>2020-09-06T07:40:54.346Z</time>
      </trkpt>
      <trkpt lat="48.40688" lon="7.32052">
        <ele>637</ele>
        <time>2020-09-06T07:40:55.346Z</time>
      </trkpt>
      <trkpt lat="48.40687" lon="7.32051">
        <ele>638</ele>
        <time>2020-09-06T07:40:56.345Z</time>
      </trkpt>
      <trkpt lat="48.40687" lon="7.32049">
        <ele>638</ele>
        <time>2020-09-06T07:40:57.346Z</time>
      </trkpt>
      <trkpt lat="48.40687" lon="7.32048">
        <ele>638</ele>
        <time>2020-09-06T07:40:58.346Z</time>
      </trkpt>
      <trkpt lat="48.40686" lon="7.32046">
        <ele>638</ele>
        <time>2020-09-06T07:40:59.346Z</time>
      </trkpt>
      <trkpt lat="48.40685" lon="7.32043">
        <ele>638</ele>
        <time>2020-09-06T07:41:00.346Z</time>
      </trkpt>
      <trkpt lat="48.40685" lon="7.32042">
        <ele>638</ele>
        <time>2020-09-06T07:41:01.346Z</time>
      </trkpt>
      <trkpt lat="48.40684" lon="7.3204">
        <ele>639</ele>
        <time>2020-09-06T07:41:02.346Z</time>
      </trkpt>
      <trkpt lat="48.40684" lon="7.32038">
        <ele>639</ele>
        <time>2020-09-06T07:41:03.346Z</time>
      </trkpt>
      <trkpt lat="48.40683" lon="7.32037">
        <ele>639</ele>
        <time>2020-09-06T07:41:04.346Z</time>
      </trkpt>
      <trkpt lat="48.40682" lon="7.32035">
        <ele>638</ele>
        <time>2020-09-06T07:41:05.346Z</time>
      </trkpt>
      <trkpt lat="48.40682" lon="7.32034">
        <ele>638</ele>
        <time>2020-09-06T07:41:06.346Z</time>
      </trkpt>
      <trkpt lat="48.40681" lon="7.32033">
        <ele>638</ele>
        <time>2020-09-06T07:41:07.345Z</time>
      </trkpt>
      <trkpt lat="48.4068" lon="7.32032">
        <ele>638</ele>
        <time>2020-09-06T07:41:08.345Z</time>
      </trkpt>
      <trkpt lat="48.40679" lon="7.32032">
        <ele>639</ele>
        <time>2020-09-06T07:41:09.346Z</time>
      </trkpt>
      <trkpt lat="48.40678" lon="7.32032">
        <ele>639</ele>
        <time>2020-09-06T07:41:10.346Z</time>
      </trkpt>
      <trkpt lat="48.40677" lon="7.32032">
        <ele>639</ele>
        <time>2020-09-06T07:41:11.346Z</time>
      </trkpt>
      <trkpt lat="48.40676" lon="7.32032">
        <ele>639</ele>
        <time>2020-09-06T07:41:12.345Z</time>
      </trkpt>
      <trkpt lat="48.40674" lon="7.32032">
        <ele>640</ele>
        <time>2020-09-06T07:41:13.346Z</time>
      </trkpt>
      <trkpt lat="48.40673" lon="7.32031">
        <ele>640</ele>
        <time>2020-09-06T07:41:14.346Z</time>
      </trkpt>
      <trkpt lat="48.40672" lon="7.32031">
        <ele>640</ele>
        <time>2020-09-06T07:41:15.345Z</time>
      </trkpt>
      <trkpt lat="48.4067" lon="7.32031">
        <ele>641</ele>
        <time>2020-09-06T07:41:16.346Z</time>
      </trkpt>
      <trkpt lat="48.40668" lon="7.3203">
        <ele>641</ele>
        <time>2020-09-06T07:41:17.345Z</time>
      </trkpt>
      <trkpt lat="48.40666" lon="7.3203">
        <ele>641</ele>
        <time>2020-09-06T07:41:18.345Z</time>
      </trkpt>
      <trkpt lat="48.40664" lon="7.32029">
        <ele>641</ele>
        <time>2020-09-06T07:41:19.345Z</time>
      </trkpt>
      <trkpt lat="48.40663" lon="7.32029">
        <ele>642</ele>
        <time>2020-09-06T07:41:20.346Z</time>
      </trkpt>
      <trkpt lat="48.40662" lon="7.32028">
        <ele>642</ele>
        <time>2020-09-06T07:41:21.346Z</time>
      </trkpt>
      <trkpt lat="48.40661" lon="7.32028">
        <ele>642</ele>
        <time>2020-09-06T07:41:22.346Z</time>
      </trkpt>
      <trkpt lat="48.4066" lon="7.32027">
        <ele>642</ele>
        <time>2020-09-06T07:41:23.345Z</time>
      </trkpt>
      <trkpt lat="48.4066" lon="7.32026">
        <ele>642</ele>
        <time>2020-09-06T07:41:24.345Z</time>
      </trkpt>
      <trkpt lat="48.40658" lon="7.32026">
        <ele>642</ele>
        <time>2020-09-06T07:41:25.346Z</time>
      </trkpt>
      <trkpt lat="48.40657" lon="7.32026">
        <ele>642</ele>
        <time>2020-09-06T07:41:26.346Z</time>
      </trkpt>
      <trkpt lat="48.40655" lon="7.32025">
        <ele>642</ele>
        <time>2020-09-06T07:41:27.346Z</time>
      </trkpt>
      <trkpt lat="48.40654" lon="7.32025">
        <ele>642</ele>
        <time>2020-09-06T07:41:28.345Z</time>
      </trkpt>
      <trkpt lat="48.40653" lon="7.32026">
        <ele>641</ele>
        <time>2020-09-06T07:41:29.346Z</time>
      </trkpt>
      <trkpt lat="48.40651" lon="7.32026">
        <ele>641</ele>
        <time>2020-09-06T07:41:30.346Z</time>
      </trkpt>
      <trkpt lat="48.40651" lon="7.32027">
        <ele>640</ele>
        <time>2020-09-06T07:41:31.345Z</time>
      </trkpt>
      <trkpt lat="48.4065" lon="7.32028">
        <ele>639</ele>
        <time>2020-09-06T07:41:32.346Z</time>
      </trkpt>
      <trkpt lat="48.40649" lon="7.32028">
        <ele>638</ele>
        <time>2020-09-06T07:41:33.345Z</time>
      </trkpt>
      <trkpt lat="48.40648" lon="7.32028">
        <ele>637</ele>
        <time>2020-09-06T07:41:34.346Z</time>
      </trkpt>
      <trkpt lat="48.40647" lon="7.32029">
        <ele>636</ele>
        <time>2020-09-06T07:41:35.346Z</time>
      </trkpt>
      <trkpt lat="48.40646" lon="7.32029">
        <ele>635</ele>
        <time>2020-09-06T07:41:36.345Z</time>
      </trkpt>
      <trkpt lat="48.40645" lon="7.32029">
        <ele>634</ele>
        <time>2020-09-06T07:41:37.346Z</time>
      </trkpt>
      <trkpt lat="48.40645" lon="7.32029">
        <ele>633</ele>
        <time>2020-09-06T07:41:38.345Z</time>
      </trkpt>
      <trkpt lat="48.40644" lon="7.32029">
        <ele>632</ele>
        <time>2020-09-06T07:41:39.346Z</time>
      </trkpt>
      <trkpt lat="48.40643" lon="7.32028">
        <ele>632</ele>
        <time>2020-09-06T07:41:40.346Z</time>
      </trkpt>
      <trkpt lat="48.40642" lon="7.32029">
        <ele>631</ele>
        <time>2020-09-06T07:41:41.346Z</time>
      </trkpt>
      <trkpt lat="48.40641" lon="7.32029">
        <ele>631</ele>
        <time>2020-09-06T07:41:42.346Z</time>
      </trkpt>
      <trkpt lat="48.40639" lon="7.3203">
        <ele>630</ele>
        <time>2020-09-06T07:41:43.346Z</time>
      </trkpt>
      <trkpt lat="48.40638" lon="7.3203">
        <ele>630</ele>
        <time>2020-09-06T07:41:44.346Z</time>
      </trkpt>
      <trkpt lat="48.40637" lon="7.32029">
        <ele>630</ele>
        <time>2020-09-06T07:41:45.345Z</time>
      </trkpt>
      <trkpt lat="48.40635" lon="7.3203">
        <ele>630</ele>
        <time>2020-09-06T07:41:46.346Z</time>
      </trkpt>
      <trkpt lat="48.40634" lon="7.32031">
        <ele>630</ele>
        <time>2020-09-06T07:41:47.346Z</time>
      </trkpt>
      <trkpt lat="48.40634" lon="7.32031">
        <ele>630</ele>
        <time>2020-09-06T07:41:48.346Z</time>
      </trkpt>
      <trkpt lat="48.40633" lon="7.32031">
        <ele>631</ele>
        <time>2020-09-06T07:41:49.346Z</time>
      </trkpt>
      <trkpt lat="48.40632" lon="7.3203">
        <ele>631</ele>
        <time>2020-09-06T07:41:50.346Z</time>
      </trkpt>
      <trkpt lat="48.40631" lon="7.3203">
        <ele>632</ele>
        <time>2020-09-06T07:41:51.345Z</time>
      </trkpt>
      <trkpt lat="48.4063" lon="7.3203">
        <ele>632</ele>
        <time>2020-09-06T07:41:52.346Z</time>
      </trkpt>
      <trkpt lat="48.40629" lon="7.3203">
        <ele>632</ele>
        <time>2020-09-06T07:41:53.346Z</time>
      </trkpt>
      <trkpt lat="48.40628" lon="7.32029">
        <ele>632</ele>
        <time>2020-09-06T07:41:54.346Z</time>
      </trkpt>
      <trkpt lat="48.40626" lon="7.32029">
        <ele>631</ele>
        <time>2020-09-06T07:41:55.346Z</time>
      </trkpt>
      <trkpt lat="48.40626" lon="7.32028">
        <ele>631</ele>
        <time>2020-09-06T07:41:56.346Z</time>
      </trkpt>
      <trkpt lat="48.40625" lon="7.32027">
        <ele>631</ele>
        <time>2020-09-06T07:41:57.345Z</time>
      </trkpt>
      <trkpt lat="48.40624" lon="7.32026">
        <ele>631</ele>
        <time>2020-09-06T07:41:58.346Z</time>
      </trkpt>
      <trkpt lat="48.40623" lon="7.32025">
        <ele>631</ele>
        <time>2020-09-06T07:41:59.346Z</time>
      </trkpt>
      <trkpt lat="48.40622" lon="7.32024">
        <ele>630</ele>
        <time>2020-09-06T07:42:00.346Z</time>
      </trkpt>
      <trkpt lat="48.40621" lon="7.32023">
        <ele>630</ele>
        <time>2020-09-06T07:42:01.346Z</time>
      </trkpt>
      <trkpt lat="48.40621" lon="7.32021">
        <ele>630</ele>
        <time>2020-09-06T07:42:02.345Z</time>
      </trkpt>
      <trkpt lat="48.4062" lon="7.3202">
        <ele>629</ele>
        <time>2020-09-06T07:42:03.346Z</time>
      </trkpt>
      <trkpt lat="48.40619" lon="7.32018">
        <ele>629</ele>
        <time>2020-09-06T07:42:04.346Z</time>
      </trkpt>
      <trkpt lat="48.40619" lon="7.32016">
        <ele>629</ele>
        <time>2020-09-06T07:42:05.346Z</time>
      </trkpt>
      <trkpt lat="48.40618" lon="7.32015">
        <ele>629</ele>
        <time>2020-09-06T07:42:06.346Z</time>
      </trkpt>
      <trkpt lat="48.40617" lon="7.32012">
        <ele>629</ele>
        <time>2020-09-06T07:42:07.346Z</time>
      </trkpt>
      <trkpt lat="48.40616" lon="7.32009">
        <ele>630</ele>
        <time>2020-09-06T07:42:08.346Z</time>
      </trkpt>
      <trkpt lat="48.40615" lon="7.32007">
        <ele>630</ele>
        <time>2020-09-06T07:42:09.346Z</time>
      </trkpt>
      <trkpt lat="48.40615" lon="7.32004">
        <ele>630</ele>
        <time>2020-09-06T07:42:10.346Z</time>
      </trkpt>
      <trkpt lat="48.40614" lon="7.32003">
        <ele>631</ele>
        <time>2020-09-06T07:42:11.345Z</time>
      </trkpt>
      <trkpt lat="48.40613" lon="7.32002">
        <ele>632</ele>
        <time>2020-09-06T07:42:12.346Z</time>
      </trkpt>
      <trkpt lat="48.40613" lon="7.32001">
        <ele>633</ele>
        <time>2020-09-06T07:42:13.346Z</time>
      </trkpt>
      <trkpt lat="48.40613" lon="7.31999">
        <ele>634</ele>
        <time>2020-09-06T07:42:14.346Z</time>
      </trkpt>
      <trkpt lat="48.40612" lon="7.31997">
        <ele>634</ele>
        <time>2020-09-06T07:42:15.346Z</time>
      </trkpt>
      <trkpt lat="48.40612" lon="7.31995">
        <ele>635</ele>
        <time>2020-09-06T07:42:16.346Z</time>
      </trkpt>
      <trkpt lat="48.40612" lon="7.31994">
        <ele>635</ele>
        <time>2020-09-06T07:42:17.346Z</time>
      </trkpt>
      <trkpt lat="48.40612" lon="7.31992">
        <ele>635</ele>
        <time>2020-09-06T07:42:18.345Z</time>
      </trkpt>
      <trkpt lat="48.40611" lon="7.3199">
        <ele>636</ele>
        <time>2020-09-06T07:42:19.345Z</time>
      </trkpt>
      <trkpt lat="48.40611" lon="7.31989">
        <ele>636</ele>
        <time>2020-09-06T07:42:20.346Z</time>
      </trkpt>
      <trkpt lat="48.40611" lon="7.31987">
        <ele>636</ele>
        <time>2020-09-06T07:42:21.346Z</time>
      </trkpt>
      <trkpt lat="48.40611" lon="7.31985">
        <ele>636</ele>
        <time>2020-09-06T07:42:22.345Z</time>
      </trkpt>
      <trkpt lat="48.40611" lon="7.31983">
        <ele>636</ele>
        <time>2020-09-06T07:42:23.345Z</time>
      </trkpt>
      <trkpt lat="48.4061" lon="7.31982">
        <ele>636</ele>
        <time>2020-09-06T07:42:24.346Z</time>
      </trkpt>
      <trkpt lat="48.4061" lon="7.31981">
        <ele>636</ele>
        <time>2020-09-06T07:42:25.345Z</time>
      </trkpt>
      <trkpt lat="48.40611" lon="7.3198">
        <ele>635</ele>
        <time>2020-09-06T07:42:26.346Z</time>
      </trkpt>
      <trkpt lat="48.40611" lon="7.31979">
        <ele>635</ele>
        <time>2020-09-06T07:42:27.346Z</time>
      </trkpt>
      <trkpt lat="48.40611" lon="7.31977">
        <ele>635</ele>
        <time>2020-09-06T07:42:28.346Z</time>
      </trkpt>
      <trkpt lat="48.40611" lon="7.31976">
        <ele>635</ele>
        <time>2020-09-06T07:42:29.345Z</time>
      </trkpt>
      <trkpt lat="48.4061" lon="7.31975">
        <ele>634</ele>
        <time>2020-09-06T07:42:30.346Z</time>
      </trkpt>
      <trkpt lat="48.4061" lon="7.31973">
        <ele>634</ele>
        <time>2020-09-06T07:42:31.345Z</time>
      </trkpt>
      <trkpt lat="48.4061" lon="7.31972">
        <ele>634</ele>
        <time>2020-09-06T07:42:32.346Z</time>
      </trkpt>
      <trkpt lat="48.4061" lon="7.31969">
        <ele>634</ele>
        <time>2020-09-06T07:42:33.346Z</time>
      </trkpt>
      <trkpt lat="48.40609" lon="7.31967">
        <ele>633</ele>
        <time>2020-09-06T07:42:34.345Z</time>
      </trkpt>
      <trkpt lat="48.40609" lon="7.31965">
        <ele>633</ele>
        <time>2020-09-06T07:42:35.346Z</time>
      </trkpt>
      <trkpt lat="48.40609" lon="7.31963">
        <ele>633</ele>
        <time>2020-09-06T07:42:36.346Z</time>
      </trkpt>
      <trkpt lat="48.40608" lon="7.3196">
        <ele>633</ele>
        <time>2020-09-06T07:42:37.345Z</time>
      </trkpt>
      <trkpt lat="48.40608" lon="7.31958">
        <ele>633</ele>
        <time>2020-09-06T07:42:38.346Z</time>
      </trkpt>
      <trkpt lat="48.40608" lon="7.31956">
        <ele>633</ele>
        <time>2020-09-06T07:42:39.346Z</time>
      </trkpt>
      <trkpt lat="48.40608" lon="7.31954">
        <ele>633</ele>
        <time>2020-09-06T07:42:40.345Z</time>
      </trkpt>
      <trkpt lat="48.40607" lon="7.31953">
        <ele>633</ele>
        <time>2020-09-06T07:42:41.346Z</time>
      </trkpt>
      <trkpt lat="48.40607" lon="7.31951">
        <ele>633</ele>
        <time>2020-09-06T07:42:42.345Z</time>
      </trkpt>
      <trkpt lat="48.40607" lon="7.31949">
        <ele>633</ele>
        <time>2020-09-06T07:42:43.346Z</time>
      </trkpt>
      <trkpt lat="48.40607" lon="7.31948">
        <ele>633</ele>
        <time>2020-09-06T07:42:44.345Z</time>
      </trkpt>
      <trkpt lat="48.40607" lon="7.31947">
        <ele>634</ele>
        <time>2020-09-06T07:42:45.346Z</time>
      </trkpt>
      <trkpt lat="48.40607" lon="7.31944">
        <ele>634</ele>
        <time>2020-09-06T07:42:46.346Z</time>
      </trkpt>
      <trkpt lat="48.40606" lon="7.31942">
        <ele>634</ele>
        <time>2020-09-06T07:42:47.346Z</time>
      </trkpt>
      <trkpt lat="48.40606" lon="7.3194">
        <ele>635</ele>
        <time>2020-09-06T07:42:48.346Z</time>
      </trkpt>
      <trkpt lat="48.40606" lon="7.31938">
        <ele>635</ele>
        <time>2020-09-06T07:42:49.346Z</time>
      </trkpt>
      <trkpt lat="48.40606" lon="7.31937">
        <ele>636</ele>
        <time>2020-09-06T07:42:50.346Z</time>
      </trkpt>
      <trkpt lat="48.40605" lon="7.31935">
        <ele>636</ele>
        <time>2020-09-06T07:42:51.346Z</time>
      </trkpt>
      <trkpt lat="48.40605" lon="7.31934">
        <ele>637</ele>
        <time>2020-09-06T07:42:52.346Z</time>
      </trkpt>
      <trkpt lat="48.40604" lon="7.31932">
        <ele>638</ele>
        <time>2020-09-06T07:42:53.346Z</time>
      </trkpt>
      <trkpt lat="48.40604" lon="7.3193">
        <ele>639</ele>
        <time>2020-09-06T07:42:54.346Z</time>
      </trkpt>
      <trkpt lat="48.40603" lon="7.31929">
        <ele>640</ele>
        <time>2020-09-06T07:42:55.345Z</time>
      </trkpt>
      <trkpt lat="48.40603" lon="7.31928">
        <ele>641</ele>
        <time>2020-09-06T07:42:56.346Z</time>
      </trkpt>
      <trkpt lat="48.40602" lon="7.31926">
        <ele>641</ele>
        <time>2020-09-06T07:42:57.346Z</time>
      </trkpt>
      <trkpt lat="48.40602" lon="7.31924">
        <ele>642</ele>
        <time>2020-09-06T07:42:58.345Z</time>
      </trkpt>
      <trkpt lat="48.40601" lon="7.31922">
        <ele>642</ele>
        <time>2020-09-06T07:42:59.346Z</time>
      </trkpt>
      <trkpt lat="48.40601" lon="7.3192">
        <ele>643</ele>
        <time>2020-09-06T07:43:00.346Z</time>
      </trkpt>
      <trkpt lat="48.40601" lon="7.31919">
        <ele>643</ele>
        <time>2020-09-06T07:43:01.345Z</time>
      </trkpt>
      <trkpt lat="48.406" lon="7.31917">
        <ele>643</ele>
        <time>2020-09-06T07:43:02.346Z</time>
      </trkpt>
      <trkpt lat="48.406" lon="7.31916">
        <ele>644</ele>
        <time>2020-09-06T07:43:03.346Z</time>
      </trkpt>
      <trkpt lat="48.40599" lon="7.31915">
        <ele>644</ele>
        <time>2020-09-06T07:43:04.346Z</time>
      </trkpt>
      <trkpt lat="48.40599" lon="7.31914">
        <ele>645</ele>
        <time>2020-09-06T07:43:05.346Z</time>
      </trkpt>
      <trkpt lat="48.40599" lon="7.31913">
        <ele>645</ele>
        <time>2020-09-06T07:43:06.345Z</time>
      </trkpt>
      <trkpt lat="48.40599" lon="7.31911">
        <ele>646</ele>
        <time>2020-09-06T07:43:07.346Z</time>
      </trkpt>
      <trkpt lat="48.40599" lon="7.3191">
        <ele>646</ele>
        <time>2020-09-06T07:43:08.346Z</time>
      </trkpt>
      <trkpt lat="48.40599" lon="7.31908">
        <ele>646</ele>
        <time>2020-09-06T07:43:09.345Z</time>
      </trkpt>
      <trkpt lat="48.40599" lon="7.31905">
        <ele>645</ele>
        <time>2020-09-06T07:43:10.345Z</time>
      </trkpt>
      <trkpt lat="48.40598" lon="7.31902">
        <ele>645</ele>
        <time>2020-09-06T07:43:11.346Z</time>
      </trkpt>
      <trkpt lat="48.40598" lon="7.31899">
        <ele>644</ele>
        <time>2020-09-06T07:43:12.346Z</time>
      </trkpt>
      <trkpt lat="48.40598" lon="7.31897">
        <ele>644</ele>
        <time>2020-09-06T07:43:13.346Z</time>
      </trkpt>
      <trkpt lat="48.40598" lon="7.31896">
        <ele>644</ele>
        <time>2020-09-06T07:43:14.346Z</time>
      </trkpt>
      <trkpt lat="48.40598" lon="7.31893">
        <ele>644</ele>
        <time>2020-09-06T07:43:15.346Z</time>
      </trkpt>
      <trkpt lat="48.40598" lon="7.31891">
        <ele>644</ele>
        <time>2020-09-06T07:43:16.346Z</time>
      </trkpt>
      <trkpt lat="48.40597" lon="7.31889">
        <ele>644</ele>
        <time>2020-09-06T07:43:17.346Z</time>
      </trkpt>
      <trkpt lat="48.40597" lon="7.31888">
        <ele>644</ele>
        <time>2020-09-06T07:43:18.346Z</time>
      </trkpt>
      <trkpt lat="48.40596" lon="7.31886">
        <ele>644</ele>
        <time>2020-09-06T07:43:19.345Z</time>
      </trkpt>
      <trkpt lat="48.40595" lon="7.31884">
        <ele>644</ele>
        <time>2020-09-06T07:43:20.346Z</time>
      </trkpt>
      <trkpt lat="48.40595" lon="7.31881">
        <ele>644</ele>
        <time>2020-09-06T07:43:21.346Z</time>
      </trkpt>
      <trkpt lat="48.40594" lon="7.3188">
        <ele>644</ele>
        <time>2020-09-06T07:43:22.346Z</time>
      </trkpt>
      <trkpt lat="48.40594" lon="7.31878">
        <ele>644</ele>
        <time>2020-09-06T07:43:23.345Z</time>
      </trkpt>
      <trkpt lat="48.40594" lon="7.31877">
        <ele>644</ele>
        <time>2020-09-06T07:43:24.346Z</time>
      </trkpt>
      <trkpt lat="48.40594" lon="7.31875">
        <ele>645</ele>
        <time>2020-09-06T07:43:25.346Z</time>
      </trkpt>
      <trkpt lat="48.40594" lon="7.31874">
        <ele>645</ele>
        <time>2020-09-06T07:43:26.345Z</time>
      </trkpt>
      <trkpt lat="48.40595" lon="7.31872">
        <ele>645</ele>
        <time>2020-09-06T07:43:27.346Z</time>
      </trkpt>
      <trkpt lat="48.40595" lon="7.3187">
        <ele>644</ele>
        <time>2020-09-06T07:43:28.346Z</time>
      </trkpt>
      <trkpt lat="48.40595" lon="7.31868">
        <ele>644</ele>
        <time>2020-09-06T07:43:29.346Z</time>
      </trkpt>
      <trkpt lat="48.40594" lon="7.31866">
        <ele>644</ele>
        <time>2020-09-06T07:43:30.345Z</time>
      </trkpt>
      <trkpt lat="48.40593" lon="7.31863">
        <ele>643</ele>
        <time>2020-09-06T07:43:31.345Z</time>
      </trkpt>
      <trkpt lat="48.40594" lon="7.31861">
        <ele>643</ele>
        <time>2020-09-06T07:43:32.345Z</time>
      </trkpt>
      <trkpt lat="48.40594" lon="7.31859">
        <ele>642</ele>
        <time>2020-09-06T07:43:33.346Z</time>
      </trkpt>
      <trkpt lat="48.40594" lon="7.31858">
        <ele>642</ele>
        <time>2020-09-06T07:43:34.346Z</time>
      </trkpt>
      <trkpt lat="48.40595" lon="7.31857">
        <ele>641</ele>
        <time>2020-09-06T07:43:35.346Z</time>
      </trkpt>
      <trkpt lat="48.40595" lon="7.31855">
        <ele>640</ele>
        <time>2020-09-06T07:43:36.346Z</time>
      </trkpt>
      <trkpt lat="48.40595" lon="7.31854">
        <ele>640</ele>
        <time>2020-09-06T07:43:37.346Z</time>
      </trkpt>
      <trkpt lat="48.40595" lon="7.31852">
        <ele>640</ele>
        <time>2020-09-06T07:43:38.346Z</time>
      </trkpt>
      <trkpt lat="48.40595" lon="7.3185">
        <ele>639</ele>
        <time>2020-09-06T07:43:39.345Z</time>
      </trkpt>
      <trkpt lat="48.40594" lon="7.31848">
        <ele>639</ele>
        <time>2020-09-06T07:43:40.346Z</time>
      </trkpt>
      <trkpt lat="48.40594" lon="7.31845">
        <ele>639</ele>
        <time>2020-09-06T07:43:41.346Z</time>
      </trkpt>
      <trkpt lat="48.40594" lon="7.31843">
        <ele>639</ele>
        <time>2020-09-06T07:43:42.346Z</time>
      </trkpt>
      <trkpt lat="48.40594" lon="7.3184">
        <ele>640</ele>
        <time>2020-09-06T07:43:43.346Z</time>
      </trkpt>
      <trkpt lat="48.40594" lon="7.31837">
        <ele>640</ele>
        <time>2020-09-06T07:43:44.345Z</time>
      </trkpt>
      <trkpt lat="48.40595" lon="7.31834">
        <ele>640</ele>
        <time>2020-09-06T07:43:45.345Z</time>
      </trkpt>
      <trkpt lat="48.40596" lon="7.31832">
        <ele>640</ele>
        <time>2020-09-06T07:43:46.346Z</time>
      </trkpt>
      <trkpt lat="48.40597" lon="7.31831">
        <ele>640</ele>
        <time>2020-09-06T07:43:47.346Z</time>
      </trkpt>
      <trkpt lat="48.40597" lon="7.31829">
        <ele>640</ele>
        <time>2020-09-06T07:43:48.346Z</time>
      </trkpt>
      <trkpt lat="48.40598" lon="7.31827">
        <ele>641</ele>
        <time>2020-09-06T07:43:49.346Z</time>
      </trkpt>
      <trkpt lat="48.40598" lon="7.31825">
        <ele>641</ele>
        <time>2020-09-06T07:43:50.345Z</time>
      </trkpt>
      <trkpt lat="48.40599" lon="7.31823">
        <ele>641</ele>
        <time>2020-09-06T07:43:51.345Z</time>
      </trkpt>
      <trkpt lat="48.40598" lon="7.3182">
        <ele>641</ele>
        <time>2020-09-06T07:43:52.345Z</time>
      </trkpt>
      <trkpt lat="48.40599" lon="7.31818">
        <ele>641</ele>
        <time>2020-09-06T07:43:53.346Z</time>
      </trkpt>
      <trkpt lat="48.40599" lon="7.31816">
        <ele>641</ele>
        <time>2020-09-06T07:43:54.346Z</time>
      </trkpt>
      <trkpt lat="48.40599" lon="7.31814">
        <ele>641</ele>
        <time>2020-09-06T07:43:55.346Z</time>
      </trkpt>
      <trkpt lat="48.406" lon="7.31813">
        <ele>642</ele>
        <time>2020-09-06T07:43:56.346Z</time>
      </trkpt>
      <trkpt lat="48.406" lon="7.31811">
        <ele>642</ele>
        <time>2020-09-06T07:43:57.345Z</time>
      </trkpt>
      <trkpt lat="48.40601" lon="7.3181">
        <ele>643</ele>
        <time>2020-09-06T07:43:58.346Z</time>
      </trkpt>
      <trkpt lat="48.40601" lon="7.31809">
        <ele>643</ele>
        <time>2020-09-06T07:43:59.345Z</time>
      </trkpt>
      <trkpt lat="48.40602" lon="7.31807">
        <ele>642</ele>
        <time>2020-09-06T07:44:00.346Z</time>
      </trkpt>
      <trkpt lat="48.40603" lon="7.31806">
        <ele>642</ele>
        <time>2020-09-06T07:44:01.346Z</time>
      </trkpt>
      <trkpt lat="48.40603" lon="7.31805">
        <ele>641</ele>
        <time>2020-09-06T07:44:02.345Z</time>
      </trkpt>
      <trkpt lat="48.40604" lon="7.31803">
        <ele>641</ele>
        <time>2020-09-06T07:44:03.345Z</time>
      </trkpt>
      <trkpt lat="48.40604" lon="7.31802">
        <ele>640</ele>
        <time>2020-09-06T07:44:04.346Z</time>
      </trkpt>
      <trkpt lat="48.40605" lon="7.318">
        <ele>640</ele>
        <time>2020-09-06T07:44:05.345Z</time>
      </trkpt>
      <trkpt lat="48.40606" lon="7.31799">
        <ele>640</ele>
        <time>2020-09-06T07:44:06.345Z</time>
      </trkpt>
      <trkpt lat="48.40607" lon="7.31796">
        <ele>640</ele>
        <time>2020-09-06T07:44:07.345Z</time>
      </trkpt>
      <trkpt lat="48.40607" lon="7.31795">
        <ele>640</ele>
        <time>2020-09-06T07:44:08.346Z</time>
      </trkpt>
      <trkpt lat="48.40608" lon="7.31793">
        <ele>641</ele>
        <time>2020-09-06T07:44:09.346Z</time>
      </trkpt>
      <trkpt lat="48.40609" lon="7.31792">
        <ele>641</ele>
        <time>2020-09-06T07:44:10.346Z</time>
      </trkpt>
      <trkpt lat="48.4061" lon="7.31791">
        <ele>641</ele>
        <time>2020-09-06T07:44:11.346Z</time>
      </trkpt>
      <trkpt lat="48.4061" lon="7.3179">
        <ele>641</ele>
        <time>2020-09-06T07:44:12.346Z</time>
      </trkpt>
      <trkpt lat="48.4061" lon="7.31788">
        <ele>641</ele>
        <time>2020-09-06T07:44:13.346Z</time>
      </trkpt>
      <trkpt lat="48.40611" lon="7.31786">
        <ele>641</ele>
        <time>2020-09-06T07:44:14.346Z</time>
      </trkpt>
      <trkpt lat="48.40611" lon="7.31785">
        <ele>640</ele>
        <time>2020-09-06T07:44:15.346Z</time>
      </trkpt>
      <trkpt lat="48.40611" lon="7.31784">
        <ele>640</ele>
        <time>2020-09-06T07:44:16.345Z</time>
      </trkpt>
      <trkpt lat="48.40611" lon="7.31783">
        <ele>640</ele>
        <time>2020-09-06T07:44:17.345Z</time>
      </trkpt>
      <trkpt lat="48.40612" lon="7.31781">
        <ele>640</ele>
        <time>2020-09-06T07:44:18.346Z</time>
      </trkpt>
      <trkpt lat="48.40612" lon="7.3178">
        <ele>640</ele>
        <time>2020-09-06T07:44:19.346Z</time>
      </trkpt>
      <trkpt lat="48.40612" lon="7.31779">
        <ele>641</ele>
        <time>2020-09-06T07:44:20.346Z</time>
      </trkpt>
      <trkpt lat="48.40612" lon="7.31776">
        <ele>641</ele>
        <time>2020-09-06T07:44:21.345Z</time>
      </trkpt>
      <trkpt lat="48.40612" lon="7.31775">
        <ele>641</ele>
        <time>2020-09-06T07:44:22.345Z</time>
      </trkpt>
      <trkpt lat="48.40612" lon="7.31774">
        <ele>641</ele>
        <time>2020-09-06T07:44:23.345Z</time>
      </trkpt>
      <trkpt lat="48.40612" lon="7.31773">
        <ele>642</ele>
        <time>2020-09-06T07:44:24.346Z</time>
      </trkpt>
      <trkpt lat="48.40612" lon="7.31772">
        <ele>642</ele>
        <time>2020-09-06T07:44:25.346Z</time>
      </trkpt>
      <trkpt lat="48.40612" lon="7.3177">
        <ele>643</ele>
        <time>2020-09-06T07:44:26.346Z</time>
      </trkpt>
      <trkpt lat="48.40612" lon="7.31768">
        <ele>644</ele>
        <time>2020-09-06T07:44:27.346Z</time>
      </trkpt>
      <trkpt lat="48.40611" lon="7.31765">
        <ele>644</ele>
        <time>2020-09-06T07:44:28.346Z</time>
      </trkpt>
      <trkpt lat="48.40611" lon="7.31764">
        <ele>645</ele>
        <time>2020-09-06T07:44:29.345Z</time>
      </trkpt>
      <trkpt lat="48.40611" lon="7.31762">
        <ele>645</ele>
        <time>2020-09-06T07:44:30.346Z</time>
      </trkpt>
      <trkpt lat="48.40611" lon="7.3176">
        <ele>646</ele>
        <time>2020-09-06T07:44:31.346Z</time>
      </trkpt>
      <trkpt lat="48.40611" lon="7.31759">
        <ele>647</ele>
        <time>2020-09-06T07:44:32.345Z</time>
      </trkpt>
      <trkpt lat="48.40611" lon="7.31758">
        <ele>648</ele>
        <time>2020-09-06T07:44:33.346Z</time>
      </trkpt>
      <trkpt lat="48.40611" lon="7.31758">
        <ele>649</ele>
        <time>2020-09-06T07:44:34.346Z</time>
      </trkpt>
      <trkpt lat="48.40612" lon="7.31757">
        <ele>650</ele>
        <time>2020-09-06T07:44:35.346Z</time>
      </trkpt>
      <trkpt lat="48.40611" lon="7.31756">
        <ele>650</ele>
        <time>2020-09-06T07:44:36.345Z</time>
      </trkpt>
      <trkpt lat="48.40611" lon="7.31755">
        <ele>650</ele>
        <time>2020-09-06T07:44:37.346Z</time>
      </trkpt>
      <trkpt lat="48.4061" lon="7.31754">
        <ele>650</ele>
        <time>2020-09-06T07:44:38.346Z</time>
      </trkpt>
      <trkpt lat="48.40609" lon="7.31751">
        <ele>651</ele>
        <time>2020-09-06T07:44:39.346Z</time>
      </trkpt>
      <trkpt lat="48.40608" lon="7.31749">
        <ele>650</ele>
        <time>2020-09-06T07:44:40.345Z</time>
      </trkpt>
      <trkpt lat="48.40607" lon="7.31746">
        <ele>650</ele>
        <time>2020-09-06T07:44:41.346Z</time>
      </trkpt>
      <trkpt lat="48.40607" lon="7.31744">
        <ele>651</ele>
        <time>2020-09-06T07:44:42.345Z</time>
      </trkpt>
      <trkpt lat="48.40607" lon="7.31743">
        <ele>651</ele>
        <time>2020-09-06T07:44:43.345Z</time>
      </trkpt>
      <trkpt lat="48.40606" lon="7.31742">
        <ele>651</ele>
        <time>2020-09-06T07:44:44.346Z</time>
      </trkpt>
      <trkpt lat="48.40606" lon="7.31741">
        <ele>652</ele>
        <time>2020-09-06T07:44:45.346Z</time>
      </trkpt>
      <trkpt lat="48.40606" lon="7.31739">
        <ele>652</ele>
        <time>2020-09-06T07:44:46.346Z</time>
      </trkpt>
      <trkpt lat="48.40605" lon="7.31738">
        <ele>651</ele>
        <time>2020-09-06T07:44:47.346Z</time>
      </trkpt>
      <trkpt lat="48.40605" lon="7.31737">
        <ele>651</ele>
        <time>2020-09-06T07:44:48.346Z</time>
      </trkpt>
      <trkpt lat="48.40605" lon="7.31735">
        <ele>651</ele>
        <time>2020-09-06T07:44:49.346Z</time>
      </trkpt>
      <trkpt lat="48.40605" lon="7.31734">
        <ele>652</ele>
        <time>2020-09-06T07:44:50.346Z</time>
      </trkpt>
      <trkpt lat="48.40605" lon="7.31733">
        <ele>652</ele>
        <time>2020-09-06T07:44:51.346Z</time>
      </trkpt>
      <trkpt lat="48.40604" lon="7.31732">
        <ele>653</ele>
        <time>2020-09-06T07:44:52.346Z</time>
      </trkpt>
      <trkpt lat="48.40604" lon="7.31731">
        <ele>653</ele>
        <time>2020-09-06T07:44:53.346Z</time>
      </trkpt>
      <trkpt lat="48.40602" lon="7.3173">
        <ele>653</ele>
        <time>2020-09-06T07:44:54.345Z</time>
      </trkpt>
      <trkpt lat="48.40601" lon="7.3173">
        <ele>654</ele>
        <time>2020-09-06T07:44:55.346Z</time>
      </trkpt>
      <trkpt lat="48.406" lon="7.31729">
        <ele>654</ele>
        <time>2020-09-06T07:44:56.345Z</time>
      </trkpt>
      <trkpt lat="48.40599" lon="7.31729">
        <ele>654</ele>
        <time>2020-09-06T07:44:57.346Z</time>
      </trkpt>
      <trkpt lat="48.40597" lon="7.31728">
        <ele>654</ele>
        <time>2020-09-06T07:44:58.345Z</time>
      </trkpt>
      <trkpt lat="48.40595" lon="7.31727">
        <ele>655</ele>
        <time>2020-09-06T07:44:59.345Z</time>
      </trkpt>
      <trkpt lat="48.40594" lon="7.31725">
        <ele>655</ele>
        <time>2020-09-06T07:45:00.346Z</time>
      </trkpt>
      <trkpt lat="48.40593" lon="7.31722">
        <ele>655</ele>
        <time>2020-09-06T07:45:01.345Z</time>
      </trkpt>
      <trkpt lat="48.40592" lon="7.31721">
        <ele>655</ele>
        <time>2020-09-06T07:45:02.346Z</time>
      </trkpt>
      <trkpt lat="48.40592" lon="7.31719">
        <ele>656</ele>
        <time>2020-09-06T07:45:03.345Z</time>
      </trkpt>
      <trkpt lat="48.40591" lon="7.31717">
        <ele>656</ele>
        <time>2020-09-06T07:45:04.346Z</time>
      </trkpt>
      <trkpt lat="48.40591" lon="7.31715">
        <ele>656</ele>
        <time>2020-09-06T07:45:05.346Z</time>
      </trkpt>
      <trkpt lat="48.40591" lon="7.31713">
        <ele>656</ele>
        <time>2020-09-06T07:45:06.346Z</time>
      </trkpt>
      <trkpt lat="48.40591" lon="7.3171">
        <ele>656</ele>
        <time>2020-09-06T07:45:07.346Z</time>
      </trkpt>
      <trkpt lat="48.40591" lon="7.31708">
        <ele>656</ele>
        <time>2020-09-06T07:45:08.346Z</time>
      </trkpt>
      <trkpt lat="48.40591" lon="7.31706">
        <ele>656</ele>
        <time>2020-09-06T07:45:09.346Z</time>
      </trkpt>
      <trkpt lat="48.40591" lon="7.31704">
        <ele>655</ele>
        <time>2020-09-06T07:45:10.346Z</time>
      </trkpt>
      <trkpt lat="48.4059" lon="7.31703">
        <ele>655</ele>
        <time>2020-09-06T07:45:11.346Z</time>
      </trkpt>
      <trkpt lat="48.4059" lon="7.31701">
        <ele>654</ele>
        <time>2020-09-06T07:45:12.346Z</time>
      </trkpt>
      <trkpt lat="48.4059" lon="7.31698">
        <ele>654</ele>
        <time>2020-09-06T07:45:13.346Z</time>
      </trkpt>
      <trkpt lat="48.40591" lon="7.31696">
        <ele>653</ele>
        <time>2020-09-06T07:45:14.346Z</time>
      </trkpt>
      <trkpt lat="48.40591" lon="7.31693">
        <ele>652</ele>
        <time>2020-09-06T07:45:15.345Z</time>
      </trkpt>
      <trkpt lat="48.40592" lon="7.31691">
        <ele>651</ele>
        <time>2020-09-06T07:45:16.346Z</time>
      </trkpt>
      <trkpt lat="48.40593" lon="7.31689">
        <ele>650</ele>
        <time>2020-09-06T07:45:17.345Z</time>
      </trkpt>
      <trkpt lat="48.40593" lon="7.31686">
        <ele>650</ele>
        <time>2020-09-06T07:45:18.345Z</time>
      </trkpt>
      <trkpt lat="48.40592" lon="7.31684">
        <ele>650</ele>
        <time>2020-09-06T07:45:19.346Z</time>
      </trkpt>
      <trkpt lat="48.40592" lon="7.31683">
        <ele>649</ele>
        <time>2020-09-06T07:45:20.346Z</time>
      </trkpt>
      <trkpt lat="48.40592" lon="7.31682">
        <ele>649</ele>
        <time>2020-09-06T07:45:21.346Z</time>
      </trkpt>
      <trkpt lat="48.40592" lon="7.31681">
        <ele>648</ele>
        <time>2020-09-06T07:45:22.345Z</time>
      </trkpt>
      <trkpt lat="48.40592" lon="7.3168">
        <ele>648</ele>
        <time>2020-09-06T07:45:23.346Z</time>
      </trkpt>
      <trkpt lat="48.40591" lon="7.31679">
        <ele>648</ele>
        <time>2020-09-06T07:45:24.346Z</time>
      </trkpt>
      <trkpt lat="48.4059" lon="7.31677">
        <ele>648</ele>
        <time>2020-09-06T07:45:25.346Z</time>
      </trkpt>
      <trkpt lat="48.40589" lon="7.31676">
        <ele>649</ele>
        <time>2020-09-06T07:45:26.345Z</time>
      </trkpt>
      <trkpt lat="48.40589" lon="7.31675">
        <ele>649</ele>
        <time>2020-09-06T07:45:27.346Z</time>
      </trkpt>
      <trkpt lat="48.40588" lon="7.31673">
        <ele>650</ele>
        <time>2020-09-06T07:45:28.345Z</time>
      </trkpt>
      <trkpt lat="48.40589" lon="7.31671">
        <ele>651</ele>
        <time>2020-09-06T07:45:29.346Z</time>
      </trkpt>
      <trkpt lat="48.40589" lon="7.31669">
        <ele>651</ele>
        <time>2020-09-06T07:45:30.345Z</time>
      </trkpt>
      <trkpt lat="48.40589" lon="7.31668">
        <ele>651</ele>
        <time>2020-09-06T07:45:31.345Z</time>
      </trkpt>
      <trkpt lat="48.40589" lon="7.31667">
        <ele>651</ele>
        <time>2020-09-06T07:45:32.346Z</time>
      </trkpt>
      <trkpt lat="48.4059" lon="7.31665">
        <ele>651</ele>
        <time>2020-09-06T07:45:33.346Z</time>
      </trkpt>
      <trkpt lat="48.4059" lon="7.31664">
        <ele>650</ele>
        <time>2020-09-06T07:45:34.345Z</time>
      </trkpt>
      <trkpt lat="48.4059" lon="7.31663">
        <ele>650</ele>
        <time>2020-09-06T07:45:35.346Z</time>
      </trkpt>
      <trkpt lat="48.4059" lon="7.31661">
        <ele>649</ele>
        <time>2020-09-06T07:45:36.346Z</time>
      </trkpt>
      <trkpt lat="48.4059" lon="7.3166">
        <ele>649</ele>
        <time>2020-09-06T07:45:37.345Z</time>
      </trkpt>
      <trkpt lat="48.4059" lon="7.31659">
        <ele>648</ele>
        <time>2020-09-06T07:45:38.346Z</time>
      </trkpt>
      <trkpt lat="48.40591" lon="7.31658">
        <ele>648</ele>
        <time>2020-09-06T07:45:39.346Z</time>
      </trkpt>
      <trkpt lat="48.40592" lon="7.31657">
        <ele>648</ele>
        <time>2020-09-06T07:45:40.346Z</time>
      </trkpt>
      <trkpt lat="48.40593" lon="7.31655">
        <ele>648</ele>
        <time>2020-09-06T07:45:41.346Z</time>
      </trkpt>
      <trkpt lat="48.40594" lon="7.31654">
        <ele>648</ele>
        <time>2020-09-06T07:45:42.345Z</time>
      </trkpt>
      <trkpt lat="48.40595" lon="7.31652">
        <ele>648</ele>
        <time>2020-09-06T07:45:43.346Z</time>
      </trkpt>
      <trkpt lat="48.40595" lon="7.3165">
        <ele>649</ele>
        <time>2020-09-06T07:45:44.346Z</time>
      </trkpt>
      <trkpt lat="48.40596" lon="7.31649">
        <ele>649</ele>
        <time>2020-09-06T07:45:45.345Z</time>
      </trkpt>
      <trkpt lat="48.40597" lon="7.31648">
        <ele>649</ele>
        <time>2020-09-06T07:45:46.345Z</time>
      </trkpt>
      <trkpt lat="48.40598" lon="7.31647">
        <ele>650</ele>
        <time>2020-09-06T07:45:47.345Z</time>
      </trkpt>
      <trkpt lat="48.40599" lon="7.31645">
        <ele>650</ele>
        <time>2020-09-06T07:45:48.345Z</time>
      </trkpt>
      <trkpt lat="48.406" lon="7.31644">
        <ele>651</ele>
        <time>2020-09-06T07:45:49.346Z</time>
      </trkpt>
      <trkpt lat="48.406" lon="7.31642">
        <ele>651</ele>
        <time>2020-09-06T07:45:50.346Z</time>
      </trkpt>
      <trkpt lat="48.406" lon="7.31639">
        <ele>651</ele>
        <time>2020-09-06T07:45:51.346Z</time>
      </trkpt>
      <trkpt lat="48.40601" lon="7.31636">
        <ele>651</ele>
        <time>2020-09-06T07:45:52.346Z</time>
      </trkpt>
      <trkpt lat="48.40601" lon="7.31634">
        <ele>651</ele>
        <time>2020-09-06T07:45:53.346Z</time>
      </trkpt>
      <trkpt lat="48.406" lon="7.31631">
        <ele>651</ele>
        <time>2020-09-06T07:45:54.346Z</time>
      </trkpt>
      <trkpt lat="48.40601" lon="7.31629">
        <ele>651</ele>
        <time>2020-09-06T07:45:55.346Z</time>
      </trkpt>
      <trkpt lat="48.406" lon="7.31627">
        <ele>650</ele>
        <time>2020-09-06T07:45:56.346Z</time>
      </trkpt>
      <trkpt lat="48.40599" lon="7.31626">
        <ele>650</ele>
        <time>2020-09-06T07:45:57.345Z</time>
      </trkpt>
      <trkpt lat="48.40599" lon="7.31626">
        <ele>650</ele>
        <time>2020-09-06T07:45:58.346Z</time>
      </trkpt>
      <trkpt lat="48.40598" lon="7.31627">
        <ele>650</ele>
        <time>2020-09-06T07:45:59.346Z</time>
      </trkpt>
      <trkpt lat="48.40596" lon="7.31627">
        <ele>650</ele>
        <time>2020-09-06T07:46:00.345Z</time>
      </trkpt>
      <trkpt lat="48.40595" lon="7.31627">
        <ele>651</ele>
        <time>2020-09-06T07:46:01.345Z</time>
      </trkpt>
      <trkpt lat="48.40594" lon="7.31626">
        <ele>651</ele>
        <time>2020-09-06T07:46:02.346Z</time>
      </trkpt>
      <trkpt lat="48.40594" lon="7.31626">
        <ele>651</ele>
        <time>2020-09-06T07:46:03.346Z</time>
      </trkpt>
      <trkpt lat="48.40593" lon="7.31626">
        <ele>651</ele>
        <time>2020-09-06T07:46:04.346Z</time>
      </trkpt>
      <trkpt lat="48.40592" lon="7.31625">
        <ele>651</ele>
        <time>2020-09-06T07:46:05.345Z</time>
      </trkpt>
      <trkpt lat="48.40591" lon="7.31625">
        <ele>651</ele>
        <time>2020-09-06T07:46:06.345Z</time>
      </trkpt>
      <trkpt lat="48.4059" lon="7.31624">
        <ele>652</ele>
        <time>2020-09-06T07:46:07.346Z</time>
      </trkpt>
      <trkpt lat="48.40589" lon="7.31624">
        <ele>651</ele>
        <time>2020-09-06T07:46:08.346Z</time>
      </trkpt>
      <trkpt lat="48.40587" lon="7.31624">
        <ele>651</ele>
        <time>2020-09-06T07:46:09.345Z</time>
      </trkpt>
      <trkpt lat="48.40586" lon="7.31624">
        <ele>651</ele>
        <time>2020-09-06T07:46:10.345Z</time>
      </trkpt>
      <trkpt lat="48.40584" lon="7.31623">
        <ele>651</ele>
        <time>2020-09-06T07:46:11.345Z</time>
      </trkpt>
      <trkpt lat="48.40582" lon="7.31623">
        <ele>651</ele>
        <time>2020-09-06T07:46:12.346Z</time>
      </trkpt>
      <trkpt lat="48.40581" lon="7.31623">
        <ele>651</ele>
        <time>2020-09-06T07:46:13.346Z</time>
      </trkpt>
      <trkpt lat="48.40579" lon="7.31622">
        <ele>651</ele>
        <time>2020-09-06T07:46:14.346Z</time>
      </trkpt>
      <trkpt lat="48.40578" lon="7.31621">
        <ele>652</ele>
        <time>2020-09-06T07:46:15.345Z</time>
      </trkpt>
      <trkpt lat="48.40577" lon="7.3162">
        <ele>653</ele>
        <time>2020-09-06T07:46:16.346Z</time>
      </trkpt>
      <trkpt lat="48.40577" lon="7.31619">
        <ele>654</ele>
        <time>2020-09-06T07:46:17.345Z</time>
      </trkpt>
      <trkpt lat="48.40576" lon="7.31618">
        <ele>654</ele>
        <time>2020-09-06T07:46:18.346Z</time>
      </trkpt>
      <trkpt lat="48.40575" lon="7.31618">
        <ele>655</ele>
        <time>2020-09-06T07:46:19.346Z</time>
      </trkpt>
      <trkpt lat="48.40574" lon="7.31618">
        <ele>656</ele>
        <time>2020-09-06T07:46:20.346Z</time>
      </trkpt>
      <trkpt lat="48.40573" lon="7.31618">
        <ele>657</ele>
        <time>2020-09-06T07:46:21.346Z</time>
      </trkpt>
      <trkpt lat="48.40572" lon="7.31618">
        <ele>657</ele>
        <time>2020-09-06T07:46:22.346Z</time>
      </trkpt>
      <trkpt lat="48.4057" lon="7.31618">
        <ele>658</ele>
        <time>2020-09-06T07:46:23.346Z</time>
      </trkpt>
      <trkpt lat="48.40569" lon="7.31618">
        <ele>658</ele>
        <time>2020-09-06T07:46:24.346Z</time>
      </trkpt>
      <trkpt lat="48.40568" lon="7.31617">
        <ele>659</ele>
        <time>2020-09-06T07:46:25.345Z</time>
      </trkpt>
      <trkpt lat="48.40567" lon="7.31616">
        <ele>659</ele>
        <time>2020-09-06T07:46:26.346Z</time>
      </trkpt>
      <trkpt lat="48.40566" lon="7.31616">
        <ele>659</ele>
        <time>2020-09-06T07:46:27.346Z</time>
      </trkpt>
      <trkpt lat="48.40566" lon="7.31615">
        <ele>660</ele>
        <time>2020-09-06T07:46:28.346Z</time>
      </trkpt>
      <trkpt lat="48.40565" lon="7.31615">
        <ele>660</ele>
        <time>2020-09-06T07:46:29.346Z</time>
      </trkpt>
      <trkpt lat="48.40563" lon="7.31615">
        <ele>660</ele>
        <time>2020-09-06T07:46:30.346Z</time>
      </trkpt>
      <trkpt lat="48.40562" lon="7.31615">
        <ele>660</ele>
        <time>2020-09-06T07:46:31.345Z</time>
      </trkpt>
      <trkpt lat="48.4056" lon="7.31614">
        <ele>660</ele>
        <time>2020-09-06T07:46:32.345Z</time>
      </trkpt>
      <trkpt lat="48.40559" lon="7.31614">
        <ele>659</ele>
        <time>2020-09-06T07:46:33.345Z</time>
      </trkpt>
      <trkpt lat="48.40558" lon="7.31613">
        <ele>659</ele>
        <time>2020-09-06T07:46:34.346Z</time>
      </trkpt>
      <trkpt lat="48.40557" lon="7.31612">
        <ele>659</ele>
        <time>2020-09-06T07:46:35.345Z</time>
      </trkpt>
      <trkpt lat="48.40555" lon="7.31612">
        <ele>658</ele>
        <time>2020-09-06T07:46:36.345Z</time>
      </trkpt>
      <trkpt lat="48.40554" lon="7.31612">
        <ele>658</ele>
        <time>2020-09-06T07:46:37.346Z</time>
      </trkpt>
      <trkpt lat="48.40553" lon="7.31612">
        <ele>657</ele>
        <time>2020-09-06T07:46:38.345Z</time>
      </trkpt>
      <trkpt lat="48.40552" lon="7.31611">
        <ele>657</ele>
        <time>2020-09-06T07:46:39.346Z</time>
      </trkpt>
      <trkpt lat="48.4055" lon="7.31611">
        <ele>656</ele>
        <time>2020-09-06T07:46:40.346Z</time>
      </trkpt>
      <trkpt lat="48.40549" lon="7.31611">
        <ele>655</ele>
        <time>2020-09-06T07:46:41.346Z</time>
      </trkpt>
      <trkpt lat="48.40547" lon="7.31611">
        <ele>655</ele>
        <time>2020-09-06T07:46:42.346Z</time>
      </trkpt>
      <trkpt lat="48.40546" lon="7.31611">
        <ele>655</ele>
        <time>2020-09-06T07:46:43.346Z</time>
      </trkpt>
      <trkpt lat="48.40545" lon="7.31611">
        <ele>654</ele>
        <time>2020-09-06T07:46:44.346Z</time>
      </trkpt>
      <trkpt lat="48.40544" lon="7.3161">
        <ele>654</ele>
        <time>2020-09-06T07:46:45.346Z</time>
      </trkpt>
      <trkpt lat="48.40543" lon="7.31609">
        <ele>653</ele>
        <time>2020-09-06T07:46:46.346Z</time>
      </trkpt>
      <trkpt lat="48.40542" lon="7.31606">
        <ele>653</ele>
        <time>2020-09-06T07:46:47.345Z</time>
      </trkpt>
      <trkpt lat="48.40541" lon="7.31605">
        <ele>653</ele>
        <time>2020-09-06T07:46:48.346Z</time>
      </trkpt>
      <trkpt lat="48.4054" lon="7.31605">
        <ele>653</ele>
        <time>2020-09-06T07:46:49.346Z</time>
      </trkpt>
      <trkpt lat="48.4054" lon="7.31604">
        <ele>652</ele>
        <time>2020-09-06T07:46:50.346Z</time>
      </trkpt>
      <trkpt lat="48.40539" lon="7.31604">
        <ele>651</ele>
        <time>2020-09-06T07:46:51.345Z</time>
      </trkpt>
      <trkpt lat="48.40538" lon="7.31604">
        <ele>651</ele>
        <time>2020-09-06T07:46:52.345Z</time>
      </trkpt>
      <trkpt lat="48.40538" lon="7.31605">
        <ele>650</ele>
        <time>2020-09-06T07:46:53.345Z</time>
      </trkpt>
      <trkpt lat="48.40537" lon="7.31605">
        <ele>650</ele>
        <time>2020-09-06T07:46:54.346Z</time>
      </trkpt>
      <trkpt lat="48.40536" lon="7.31605">
        <ele>649</ele>
        <time>2020-09-06T07:46:55.346Z</time>
      </trkpt>
      <trkpt lat="48.40536" lon="7.31604">
        <ele>649</ele>
        <time>2020-09-06T07:46:56.345Z</time>
      </trkpt>
      <trkpt lat="48.40534" lon="7.31604">
        <ele>649</ele>
        <time>2020-09-06T07:46:57.346Z</time>
      </trkpt>
      <trkpt lat="48.40533" lon="7.31603">
        <ele>649</ele>
        <time>2020-09-06T07:46:58.346Z</time>
      </trkpt>
      <trkpt lat="48.40532" lon="7.31602">
        <ele>650</ele>
        <time>2020-09-06T07:46:59.345Z</time>
      </trkpt>
      <trkpt lat="48.40531" lon="7.31601">
        <ele>650</ele>
        <time>2020-09-06T07:47:00.346Z</time>
      </trkpt>
      <trkpt lat="48.4053" lon="7.316">
        <ele>651</ele>
        <time>2020-09-06T07:47:01.346Z</time>
      </trkpt>
      <trkpt lat="48.40529" lon="7.31599">
        <ele>651</ele>
        <time>2020-09-06T07:47:02.346Z</time>
      </trkpt>
      <trkpt lat="48.40528" lon="7.31599">
        <ele>652</ele>
        <time>2020-09-06T07:47:03.346Z</time>
      </trkpt>
      <trkpt lat="48.40528" lon="7.31598">
        <ele>653</ele>
        <time>2020-09-06T07:47:04.346Z</time>
      </trkpt>
      <trkpt lat="48.40527" lon="7.31598">
        <ele>654</ele>
        <time>2020-09-06T07:47:05.345Z</time>
      </trkpt>
      <trkpt lat="48.40526" lon="7.31597">
        <ele>655</ele>
        <time>2020-09-06T07:47:06.345Z</time>
      </trkpt>
      <trkpt lat="48.40525" lon="7.31596">
        <ele>656</ele>
        <time>2020-09-06T07:47:07.346Z</time>
      </trkpt>
      <trkpt lat="48.40524" lon="7.31596">
        <ele>657</ele>
        <time>2020-09-06T07:47:08.346Z</time>
      </trkpt>
      <trkpt lat="48.40523" lon="7.31595">
        <ele>657</ele>
        <time>2020-09-06T07:47:09.346Z</time>
      </trkpt>
      <trkpt lat="48.40521" lon="7.31594">
        <ele>658</ele>
        <time>2020-09-06T07:47:10.346Z</time>
      </trkpt>
      <trkpt lat="48.4052" lon="7.31594">
        <ele>658</ele>
        <time>2020-09-06T07:47:11.345Z</time>
      </trkpt>
      <trkpt lat="48.40519" lon="7.31593">
        <ele>658</ele>
        <time>2020-09-06T07:47:12.346Z</time>
      </trkpt>
      <trkpt lat="48.40518" lon="7.31592">
        <ele>658</ele>
        <time>2020-09-06T07:47:13.346Z</time>
      </trkpt>
      <trkpt lat="48.40517" lon="7.31591">
        <ele>658</ele>
        <time>2020-09-06T07:47:14.346Z</time>
      </trkpt>
      <trkpt lat="48.40516" lon="7.31589">
        <ele>659</ele>
        <time>2020-09-06T07:47:15.346Z</time>
      </trkpt>
      <trkpt lat="48.40514" lon="7.31588">
        <ele>659</ele>
        <time>2020-09-06T07:47:16.346Z</time>
      </trkpt>
      <trkpt lat="48.40512" lon="7.31587">
        <ele>660</ele>
        <time>2020-09-06T07:47:17.346Z</time>
      </trkpt>
      <trkpt lat="48.40511" lon="7.31585">
        <ele>660</ele>
        <time>2020-09-06T07:47:18.346Z</time>
      </trkpt>
      <trkpt lat="48.4051" lon="7.31583">
        <ele>660</ele>
        <time>2020-09-06T07:47:19.346Z</time>
      </trkpt>
      <trkpt lat="48.40509" lon="7.31582">
        <ele>661</ele>
        <time>2020-09-06T07:47:20.346Z</time>
      </trkpt>
      <trkpt lat="48.40507" lon="7.3158">
        <ele>661</ele>
        <time>2020-09-06T07:47:21.345Z</time>
      </trkpt>
      <trkpt lat="48.40506" lon="7.31578">
        <ele>661</ele>
        <time>2020-09-06T07:47:22.346Z</time>
      </trkpt>
      <trkpt lat="48.40506" lon="7.31576">
        <ele>662</ele>
        <time>2020-09-06T07:47:23.346Z</time>
      </trkpt>
      <trkpt lat="48.40506" lon="7.31575">
        <ele>662</ele>
        <time>2020-09-06T07:47:24.346Z</time>
      </trkpt>
      <trkpt lat="48.40506" lon="7.31574">
        <ele>662</ele>
        <time>2020-09-06T07:47:25.346Z</time>
      </trkpt>
      <trkpt lat="48.40505" lon="7.31573">
        <ele>663</ele>
        <time>2020-09-06T07:47:26.346Z</time>
      </trkpt>
      <trkpt lat="48.40504" lon="7.31572">
        <ele>663</ele>
        <time>2020-09-06T07:47:27.346Z</time>
      </trkpt>
      <trkpt lat="48.40504" lon="7.31571">
        <ele>664</ele>
        <time>2020-09-06T07:47:28.346Z</time>
      </trkpt>
      <trkpt lat="48.40504" lon="7.31569">
        <ele>664</ele>
        <time>2020-09-06T07:47:29.346Z</time>
      </trkpt>
      <trkpt lat="48.40504" lon="7.31568">
        <ele>664</ele>
        <time>2020-09-06T07:47:30.346Z</time>
      </trkpt>
      <trkpt lat="48.40503" lon="7.31567">
        <ele>664</ele>
        <time>2020-09-06T07:47:31.346Z</time>
      </trkpt>
      <trkpt lat="48.40502" lon="7.31565">
        <ele>664</ele>
        <time>2020-09-06T07:47:32.346Z</time>
      </trkpt>
      <trkpt lat="48.40502" lon="7.31563">
        <ele>664</ele>
        <time>2020-09-06T07:47:33.346Z</time>
      </trkpt>
      <trkpt lat="48.40501" lon="7.31562">
        <ele>664</ele>
        <time>2020-09-06T07:47:34.346Z</time>
      </trkpt>
      <trkpt lat="48.405" lon="7.31561">
        <ele>664</ele>
        <time>2020-09-06T07:47:35.346Z</time>
      </trkpt>
      <trkpt lat="48.405" lon="7.3156">
        <ele>664</ele>
        <time>2020-09-06T07:47:36.346Z</time>
      </trkpt>
      <trkpt lat="48.40499" lon="7.31558">
        <ele>663</ele>
        <time>2020-09-06T07:47:37.346Z</time>
      </trkpt>
      <trkpt lat="48.40498" lon="7.31556">
        <ele>663</ele>
        <time>2020-09-06T07:47:38.346Z</time>
      </trkpt>
      <trkpt lat="48.40497" lon="7.31555">
        <ele>663</ele>
        <time>2020-09-06T07:47:39.346Z</time>
      </trkpt>
      <trkpt lat="48.40496" lon="7.31554">
        <ele>663</ele>
        <time>2020-09-06T07:47:40.346Z</time>
      </trkpt>
      <trkpt lat="48.40495" lon="7.31552">
        <ele>663</ele>
        <time>2020-09-06T07:47:41.346Z</time>
      </trkpt>
      <trkpt lat="48.40495" lon="7.3155">
        <ele>663</ele>
        <time>2020-09-06T07:47:42.346Z</time>
      </trkpt>
      <trkpt lat="48.40495" lon="7.31549">
        <ele>663</ele>
        <time>2020-09-06T07:47:43.346Z</time>
      </trkpt>
      <trkpt lat="48.40494" lon="7.31548">
        <ele>663</ele>
        <time>2020-09-06T07:47:44.346Z</time>
      </trkpt>
      <trkpt lat="48.40493" lon="7.31546">
        <ele>663</ele>
        <time>2020-09-06T07:47:45.345Z</time>
      </trkpt>
      <trkpt lat="48.40493" lon="7.31545">
        <ele>662</ele>
        <time>2020-09-06T07:47:46.346Z</time>
      </trkpt>
      <trkpt lat="48.40492" lon="7.31543">
        <ele>662</ele>
        <time>2020-09-06T07:47:47.346Z</time>
      </trkpt>
      <trkpt lat="48.40492" lon="7.31541">
        <ele>662</ele>
        <time>2020-09-06T07:47:48.346Z</time>
      </trkpt>
      <trkpt lat="48.40491" lon="7.31539">
        <ele>662</ele>
        <time>2020-09-06T07:47:49.346Z</time>
      </trkpt>
      <trkpt lat="48.40491" lon="7.31538">
        <ele>662</ele>
        <time>2020-09-06T07:47:50.346Z</time>
      </trkpt>
      <trkpt lat="48.4049" lon="7.31537">
        <ele>663</ele>
        <time>2020-09-06T07:47:51.346Z</time>
      </trkpt>
      <trkpt lat="48.4049" lon="7.31536">
        <ele>662</ele>
        <time>2020-09-06T07:47:52.346Z</time>
      </trkpt>
      <trkpt lat="48.40488" lon="7.31534">
        <ele>663</ele>
        <time>2020-09-06T07:47:53.346Z</time>
      </trkpt>
      <trkpt lat="48.40487" lon="7.31531">
        <ele>663</ele>
        <time>2020-09-06T07:47:54.346Z</time>
      </trkpt>
      <trkpt lat="48.40486" lon="7.31528">
        <ele>663</ele>
        <time>2020-09-06T07:47:55.346Z</time>
      </trkpt>
      <trkpt lat="48.40486" lon="7.31526">
        <ele>663</ele>
        <time>2020-09-06T07:47:56.346Z</time>
      </trkpt>
      <trkpt lat="48.40486" lon="7.31524">
        <ele>664</ele>
        <time>2020-09-06T07:47:57.346Z</time>
      </trkpt>
      <trkpt lat="48.40485" lon="7.31523">
        <ele>664</ele>
        <time>2020-09-06T07:47:58.346Z</time>
      </trkpt>
      <trkpt lat="48.40485" lon="7.31521">
        <ele>664</ele>
        <time>2020-09-06T07:47:59.346Z</time>
      </trkpt>
      <trkpt lat="48.40486" lon="7.3152">
        <ele>664</ele>
        <time>2020-09-06T07:48:00.346Z</time>
      </trkpt>
      <trkpt lat="48.40485" lon="7.31518">
        <ele>664</ele>
        <time>2020-09-06T07:48:01.346Z</time>
      </trkpt>
      <trkpt lat="48.40485" lon="7.31516">
        <ele>665</ele>
        <time>2020-09-06T07:48:02.346Z</time>
      </trkpt>
      <trkpt lat="48.40484" lon="7.31515">
        <ele>666</ele>
        <time>2020-09-06T07:48:03.346Z</time>
      </trkpt>
      <trkpt lat="48.40483" lon="7.31513">
        <ele>666</ele>
        <time>2020-09-06T07:48:04.346Z</time>
      </trkpt>
      <trkpt lat="48.40483" lon="7.31512">
        <ele>667</ele>
        <time>2020-09-06T07:48:05.346Z</time>
      </trkpt>
      <trkpt lat="48.40482" lon="7.3151">
        <ele>667</ele>
        <time>2020-09-06T07:48:06.346Z</time>
      </trkpt>
      <trkpt lat="48.40481" lon="7.31509">
        <ele>667</ele>
        <time>2020-09-06T07:48:07.346Z</time>
      </trkpt>
      <trkpt lat="48.4048" lon="7.31506">
        <ele>667</ele>
        <time>2020-09-06T07:48:08.346Z</time>
      </trkpt>
      <trkpt lat="48.40479" lon="7.31504">
        <ele>667</ele>
        <time>2020-09-06T07:48:09.346Z</time>
      </trkpt>
      <trkpt lat="48.40479" lon="7.31501">
        <ele>667</ele>
        <time>2020-09-06T07:48:10.346Z</time>
      </trkpt>
      <trkpt lat="48.40479" lon="7.31499">
        <ele>666</ele>
        <time>2020-09-06T07:48:11.346Z</time>
      </trkpt>
      <trkpt lat="48.40479" lon="7.31498">
        <ele>666</ele>
        <time>2020-09-06T07:48:12.346Z</time>
      </trkpt>
      <trkpt lat="48.40479" lon="7.31496">
        <ele>666</ele>
        <time>2020-09-06T07:48:13.346Z</time>
      </trkpt>
      <trkpt lat="48.40479" lon="7.31495">
        <ele>666</ele>
        <time>2020-09-06T07:48:14.346Z</time>
      </trkpt>
      <trkpt lat="48.40477" lon="7.31494">
        <ele>665</ele>
        <time>2020-09-06T07:48:15.346Z</time>
      </trkpt>
      <trkpt lat="48.40476" lon="7.31492">
        <ele>665</ele>
        <time>2020-09-06T07:48:16.345Z</time>
      </trkpt>
      <trkpt lat="48.40476" lon="7.3149">
        <ele>664</ele>
        <time>2020-09-06T07:48:17.345Z</time>
      </trkpt>
      <trkpt lat="48.40475" lon="7.31489">
        <ele>663</ele>
        <time>2020-09-06T07:48:18.345Z</time>
      </trkpt>
      <trkpt lat="48.40475" lon="7.31488">
        <ele>663</ele>
        <time>2020-09-06T07:48:19.345Z</time>
      </trkpt>
      <trkpt lat="48.40475" lon="7.31486">
        <ele>663</ele>
        <time>2020-09-06T07:48:20.346Z</time>
      </trkpt>
      <trkpt lat="48.40475" lon="7.31485">
        <ele>663</ele>
        <time>2020-09-06T07:48:21.346Z</time>
      </trkpt>
      <trkpt lat="48.40474" lon="7.31484">
        <ele>662</ele>
        <time>2020-09-06T07:48:22.346Z</time>
      </trkpt>
      <trkpt lat="48.40473" lon="7.31483">
        <ele>663</ele>
        <time>2020-09-06T07:48:23.346Z</time>
      </trkpt>
      <trkpt lat="48.40473" lon="7.31482">
        <ele>663</ele>
        <time>2020-09-06T07:48:24.346Z</time>
      </trkpt>
      <trkpt lat="48.40472" lon="7.3148">
        <ele>663</ele>
        <time>2020-09-06T07:48:25.346Z</time>
      </trkpt>
      <trkpt lat="48.40472" lon="7.31479">
        <ele>664</ele>
        <time>2020-09-06T07:48:26.346Z</time>
      </trkpt>
      <trkpt lat="48.40471" lon="7.31478">
        <ele>665</ele>
        <time>2020-09-06T07:48:27.345Z</time>
      </trkpt>
      <trkpt lat="48.4047" lon="7.31477">
        <ele>666</ele>
        <time>2020-09-06T07:48:28.345Z</time>
      </trkpt>
      <trkpt lat="48.40469" lon="7.31477">
        <ele>666</ele>
        <time>2020-09-06T07:48:29.345Z</time>
      </trkpt>
      <trkpt lat="48.40467" lon="7.31475">
        <ele>666</ele>
        <time>2020-09-06T07:48:30.346Z</time>
      </trkpt>
      <trkpt lat="48.40465" lon="7.31475">
        <ele>667</ele>
        <time>2020-09-06T07:48:31.345Z</time>
      </trkpt>
      <trkpt lat="48.40464" lon="7.31474">
        <ele>667</ele>
        <time>2020-09-06T07:48:32.346Z</time>
      </trkpt>
      <trkpt lat="48.40463" lon="7.31473">
        <ele>667</ele>
        <time>2020-09-06T07:48:33.346Z</time>
      </trkpt>
      <trkpt lat="48.40463" lon="7.31471">
        <ele>667</ele>
        <time>2020-09-06T07:48:34.346Z</time>
      </trkpt>
      <trkpt lat="48.40462" lon="7.3147">
        <ele>667</ele>
        <time>2020-09-06T07:48:35.345Z</time>
      </trkpt>
      <trkpt lat="48.40462" lon="7.31468">
        <ele>667</ele>
        <time>2020-09-06T07:48:36.346Z</time>
      </trkpt>
      <trkpt lat="48.40461" lon="7.31467">
        <ele>667</ele>
        <time>2020-09-06T07:48:37.346Z</time>
      </trkpt>
      <trkpt lat="48.40459" lon="7.31464">
        <ele>667</ele>
        <time>2020-09-06T07:48:38.346Z</time>
      </trkpt>
      <trkpt lat="48.40458" lon="7.31464">
        <ele>666</ele>
        <time>2020-09-06T07:48:39.346Z</time>
      </trkpt>
      <trkpt lat="48.40458" lon="7.31463">
        <ele>666</ele>
        <time>2020-09-06T07:48:40.346Z</time>
      </trkpt>
      <trkpt lat="48.40457" lon="7.31462">
        <ele>666</ele>
        <time>2020-09-06T07:48:41.346Z</time>
      </trkpt>
      <trkpt lat="48.40456" lon="7.31461">
        <ele>666</ele>
        <time>2020-09-06T07:48:42.345Z</time>
      </trkpt>
      <trkpt lat="48.40455" lon="7.31459">
        <ele>666</ele>
        <time>2020-09-06T07:48:43.346Z</time>
      </trkpt>
      <trkpt lat="48.40454" lon="7.31457">
        <ele>666</ele>
        <time>2020-09-06T07:48:44.346Z</time>
      </trkpt>
      <trkpt lat="48.40454" lon="7.31456">
        <ele>666</ele>
        <time>2020-09-06T07:48:45.345Z</time>
      </trkpt>
      <trkpt lat="48.40454" lon="7.31455">
        <ele>666</ele>
        <time>2020-09-06T07:48:46.346Z</time>
      </trkpt>
      <trkpt lat="48.40453" lon="7.31453">
        <ele>666</ele>
        <time>2020-09-06T07:48:47.345Z</time>
      </trkpt>
      <trkpt lat="48.40452" lon="7.31451">
        <ele>666</ele>
        <time>2020-09-06T07:48:48.346Z</time>
      </trkpt>
      <trkpt lat="48.40451" lon="7.3145">
        <ele>667</ele>
        <time>2020-09-06T07:48:49.346Z</time>
      </trkpt>
      <trkpt lat="48.4045" lon="7.31448">
        <ele>667</ele>
        <time>2020-09-06T07:48:50.346Z</time>
      </trkpt>
      <trkpt lat="48.40449" lon="7.31446">
        <ele>667</ele>
        <time>2020-09-06T07:48:51.346Z</time>
      </trkpt>
      <trkpt lat="48.40448" lon="7.31445">
        <ele>667</ele>
        <time>2020-09-06T07:48:52.346Z</time>
      </trkpt>
      <trkpt lat="48.40447" lon="7.31443">
        <ele>667</ele>
        <time>2020-09-06T07:48:53.346Z</time>
      </trkpt>
      <trkpt lat="48.40446" lon="7.31441">
        <ele>667</ele>
        <time>2020-09-06T07:48:54.346Z</time>
      </trkpt>
      <trkpt lat="48.40445" lon="7.3144">
        <ele>667</ele>
        <time>2020-09-06T07:48:55.345Z</time>
      </trkpt>
      <trkpt lat="48.40445" lon="7.31438">
        <ele>667</ele>
        <time>2020-09-06T07:48:56.345Z</time>
      </trkpt>
      <trkpt lat="48.40445" lon="7.31437">
        <ele>667</ele>
        <time>2020-09-06T07:48:57.346Z</time>
      </trkpt>
      <trkpt lat="48.40444" lon="7.31436">
        <ele>667</ele>
        <time>2020-09-06T07:48:58.345Z</time>
      </trkpt>
      <trkpt lat="48.40444" lon="7.31434">
        <ele>667</ele>
        <time>2020-09-06T07:48:59.346Z</time>
      </trkpt>
      <trkpt lat="48.40444" lon="7.31432">
        <ele>667</ele>
        <time>2020-09-06T07:49:00.345Z</time>
      </trkpt>
      <trkpt lat="48.40443" lon="7.3143">
        <ele>667</ele>
        <time>2020-09-06T07:49:01.346Z</time>
      </trkpt>
      <trkpt lat="48.40443" lon="7.31428">
        <ele>667</ele>
        <time>2020-09-06T07:49:02.346Z</time>
      </trkpt>
      <trkpt lat="48.40443" lon="7.31427">
        <ele>667</ele>
        <time>2020-09-06T07:49:03.346Z</time>
      </trkpt>
      <trkpt lat="48.40442" lon="7.31425">
        <ele>667</ele>
        <time>2020-09-06T07:49:04.345Z</time>
      </trkpt>
      <trkpt lat="48.40442" lon="7.31423">
        <ele>667</ele>
        <time>2020-09-06T07:49:05.346Z</time>
      </trkpt>
      <trkpt lat="48.40441" lon="7.31421">
        <ele>667</ele>
        <time>2020-09-06T07:49:06.346Z</time>
      </trkpt>
      <trkpt lat="48.4044" lon="7.3142">
        <ele>667</ele>
        <time>2020-09-06T07:49:07.345Z</time>
      </trkpt>
      <trkpt lat="48.40439" lon="7.31418">
        <ele>667</ele>
        <time>2020-09-06T07:49:08.346Z</time>
      </trkpt>
      <trkpt lat="48.40439" lon="7.31417">
        <ele>666</ele>
        <time>2020-09-06T07:49:09.346Z</time>
      </trkpt>
      <trkpt lat="48.40438" lon="7.31415">
        <ele>665</ele>
        <time>2020-09-06T07:49:10.345Z</time>
      </trkpt>
      <trkpt lat="48.40438" lon="7.31414">
        <ele>665</ele>
        <time>2020-09-06T07:49:11.346Z</time>
      </trkpt>
      <trkpt lat="48.40438" lon="7.31414">
        <ele>664</ele>
        <time>2020-09-06T07:49:12.346Z</time>
      </trkpt>
      <trkpt lat="48.40437" lon="7.31413">
        <ele>664</ele>
        <time>2020-09-06T07:49:13.346Z</time>
      </trkpt>
      <trkpt lat="48.40437" lon="7.31412">
        <ele>663</ele>
        <time>2020-09-06T07:49:14.346Z</time>
      </trkpt>
      <trkpt lat="48.40437" lon="7.3141">
        <ele>662</ele>
        <time>2020-09-06T07:49:15.346Z</time>
      </trkpt>
      <trkpt lat="48.40437" lon="7.31409">
        <ele>662</ele>
        <time>2020-09-06T07:49:16.345Z</time>
      </trkpt>
      <trkpt lat="48.40438" lon="7.31407">
        <ele>662</ele>
        <time>2020-09-06T07:49:17.345Z</time>
      </trkpt>
      <trkpt lat="48.40438" lon="7.31406">
        <ele>662</ele>
        <time>2020-09-06T07:49:18.346Z</time>
      </trkpt>
      <trkpt lat="48.40438" lon="7.31404">
        <ele>662</ele>
        <time>2020-09-06T07:49:19.345Z</time>
      </trkpt>
      <trkpt lat="48.40438" lon="7.31402">
        <ele>661</ele>
        <time>2020-09-06T07:49:20.346Z</time>
      </trkpt>
      <trkpt lat="48.40437" lon="7.31401">
        <ele>662</ele>
        <time>2020-09-06T07:49:21.346Z</time>
      </trkpt>
      <trkpt lat="48.40437" lon="7.314">
        <ele>662</ele>
        <time>2020-09-06T07:49:22.346Z</time>
      </trkpt>
      <trkpt lat="48.40437" lon="7.31397">
        <ele>662</ele>
        <time>2020-09-06T07:49:23.346Z</time>
      </trkpt>
      <trkpt lat="48.40437" lon="7.31396">
        <ele>662</ele>
        <time>2020-09-06T07:49:24.345Z</time>
      </trkpt>
      <trkpt lat="48.40437" lon="7.31394">
        <ele>662</ele>
        <time>2020-09-06T07:49:25.346Z</time>
      </trkpt>
      <trkpt lat="48.40437" lon="7.31392">
        <ele>662</ele>
        <time>2020-09-06T07:49:26.346Z</time>
      </trkpt>
      <trkpt lat="48.40437" lon="7.31391">
        <ele>662</ele>
        <time>2020-09-06T07:49:27.346Z</time>
      </trkpt>
      <trkpt lat="48.40436" lon="7.3139">
        <ele>662</ele>
        <time>2020-09-06T07:49:28.346Z</time>
      </trkpt>
      <trkpt lat="48.40435" lon="7.31388">
        <ele>663</ele>
        <time>2020-09-06T07:49:29.346Z</time>
      </trkpt>
      <trkpt lat="48.40435" lon="7.31386">
        <ele>663</ele>
        <time>2020-09-06T07:49:30.346Z</time>
      </trkpt>
      <trkpt lat="48.40434" lon="7.31384">
        <ele>664</ele>
        <time>2020-09-06T07:49:31.346Z</time>
      </trkpt>
      <trkpt lat="48.40433" lon="7.31382">
        <ele>664</ele>
        <time>2020-09-06T07:49:32.346Z</time>
      </trkpt>
      <trkpt lat="48.40433" lon="7.31381">
        <ele>665</ele>
        <time>2020-09-06T07:49:33.346Z</time>
      </trkpt>
      <trkpt lat="48.40433" lon="7.3138">
        <ele>665</ele>
        <time>2020-09-06T07:49:34.346Z</time>
      </trkpt>
      <trkpt lat="48.40432" lon="7.31377">
        <ele>666</ele>
        <time>2020-09-06T07:49:35.346Z</time>
      </trkpt>
      <trkpt lat="48.40432" lon="7.31375">
        <ele>666</ele>
        <time>2020-09-06T07:49:36.346Z</time>
      </trkpt>
      <trkpt lat="48.40431" lon="7.31373">
        <ele>667</ele>
        <time>2020-09-06T07:49:37.346Z</time>
      </trkpt>
      <trkpt lat="48.40432" lon="7.31372">
        <ele>668</ele>
        <time>2020-09-06T07:49:38.346Z</time>
      </trkpt>
      <trkpt lat="48.40432" lon="7.3137">
        <ele>669</ele>
        <time>2020-09-06T07:49:39.346Z</time>
      </trkpt>
      <trkpt lat="48.40432" lon="7.31369">
        <ele>669</ele>
        <time>2020-09-06T07:49:40.346Z</time>
      </trkpt>
      <trkpt lat="48.40432" lon="7.31367">
        <ele>670</ele>
        <time>2020-09-06T07:49:41.346Z</time>
      </trkpt>
      <trkpt lat="48.40432" lon="7.31366">
        <ele>671</ele>
        <time>2020-09-06T07:49:42.346Z</time>
      </trkpt>
      <trkpt lat="48.40433" lon="7.31364">
        <ele>671</ele>
        <time>2020-09-06T07:49:43.346Z</time>
      </trkpt>
      <trkpt lat="48.40433" lon="7.31362">
        <ele>671</ele>
        <time>2020-09-06T07:49:44.346Z</time>
      </trkpt>
      <trkpt lat="48.40433" lon="7.3136">
        <ele>671</ele>
        <time>2020-09-06T07:49:45.346Z</time>
      </trkpt>
      <trkpt lat="48.40433" lon="7.31358">
        <ele>671</ele>
        <time>2020-09-06T07:49:46.345Z</time>
      </trkpt>
      <trkpt lat="48.40433" lon="7.31356">
        <ele>671</ele>
        <time>2020-09-06T07:49:47.346Z</time>
      </trkpt>
      <trkpt lat="48.40433" lon="7.31354">
        <ele>671</ele>
        <time>2020-09-06T07:49:48.346Z</time>
      </trkpt>
      <trkpt lat="48.40433" lon="7.31353">
        <ele>670</ele>
        <time>2020-09-06T07:49:49.346Z</time>
      </trkpt>
      <trkpt lat="48.40432" lon="7.31353">
        <ele>670</ele>
        <time>2020-09-06T07:49:50.346Z</time>
      </trkpt>
      <trkpt lat="48.40432" lon="7.31352">
        <ele>670</ele>
        <time>2020-09-06T07:49:51.346Z</time>
      </trkpt>
      <trkpt lat="48.40431" lon="7.31351">
        <ele>671</ele>
        <time>2020-09-06T07:49:52.346Z</time>
      </trkpt>
      <trkpt lat="48.40431" lon="7.31351">
        <ele>671</ele>
        <time>2020-09-06T07:49:53.346Z</time>
      </trkpt>
      <trkpt lat="48.4043" lon="7.3135">
        <ele>670</ele>
        <time>2020-09-06T07:49:54.346Z</time>
      </trkpt>
      <trkpt lat="48.4043" lon="7.31351">
        <ele>670</ele>
        <time>2020-09-06T07:49:55.346Z</time>
      </trkpt>
      <trkpt lat="48.40429" lon="7.31351">
        <ele>669</ele>
        <time>2020-09-06T07:49:56.346Z</time>
      </trkpt>
      <trkpt lat="48.40429" lon="7.3135">
        <ele>668</ele>
        <time>2020-09-06T07:49:57.346Z</time>
      </trkpt>
      <trkpt lat="48.40428" lon="7.31349">
        <ele>667</ele>
        <time>2020-09-06T07:49:58.346Z</time>
      </trkpt>
      <trkpt lat="48.40428" lon="7.31349">
        <ele>667</ele>
        <time>2020-09-06T07:49:59.346Z</time>
      </trkpt>
      <trkpt lat="48.40427" lon="7.31348">
        <ele>666</ele>
        <time>2020-09-06T07:50:00.346Z</time>
      </trkpt>
      <trkpt lat="48.40426" lon="7.31346">
        <ele>666</ele>
        <time>2020-09-06T07:50:01.346Z</time>
      </trkpt>
      <trkpt lat="48.40426" lon="7.31345">
        <ele>666</ele>
        <time>2020-09-06T07:50:02.346Z</time>
      </trkpt>
      <trkpt lat="48.40425" lon="7.31344">
        <ele>665</ele>
        <time>2020-09-06T07:50:03.346Z</time>
      </trkpt>
      <trkpt lat="48.40423" lon="7.31343">
        <ele>665</ele>
        <time>2020-09-06T07:50:04.346Z</time>
      </trkpt>
      <trkpt lat="48.40422" lon="7.31342">
        <ele>666</ele>
        <time>2020-09-06T07:50:05.345Z</time>
      </trkpt>
      <trkpt lat="48.40421" lon="7.31341">
        <ele>666</ele>
        <time>2020-09-06T07:50:06.346Z</time>
      </trkpt>
      <trkpt lat="48.4042" lon="7.3134">
        <ele>666</ele>
        <time>2020-09-06T07:50:07.345Z</time>
      </trkpt>
      <trkpt lat="48.40419" lon="7.31338">
        <ele>666</ele>
        <time>2020-09-06T07:50:08.346Z</time>
      </trkpt>
      <trkpt lat="48.40418" lon="7.31336">
        <ele>667</ele>
        <time>2020-09-06T07:50:09.345Z</time>
      </trkpt>
      <trkpt lat="48.40417" lon="7.31334">
        <ele>667</ele>
        <time>2020-09-06T07:50:10.346Z</time>
      </trkpt>
      <trkpt lat="48.40416" lon="7.31333">
        <ele>668</ele>
        <time>2020-09-06T07:50:11.345Z</time>
      </trkpt>
      <trkpt lat="48.40415" lon="7.31331">
        <ele>669</ele>
        <time>2020-09-06T07:50:12.346Z</time>
      </trkpt>
      <trkpt lat="48.40415" lon="7.3133">
        <ele>669</ele>
        <time>2020-09-06T07:50:13.346Z</time>
      </trkpt>
      <trkpt lat="48.40414" lon="7.31328">
        <ele>670</ele>
        <time>2020-09-06T07:50:14.346Z</time>
      </trkpt>
      <trkpt lat="48.40414" lon="7.31327">
        <ele>670</ele>
        <time>2020-09-06T07:50:15.346Z</time>
      </trkpt>
      <trkpt lat="48.40413" lon="7.31326">
        <ele>671</ele>
        <time>2020-09-06T07:50:16.345Z</time>
      </trkpt>
      <trkpt lat="48.40413" lon="7.31325">
        <ele>671</ele>
        <time>2020-09-06T07:50:17.346Z</time>
      </trkpt>
      <trkpt lat="48.40412" lon="7.31324">
        <ele>672</ele>
        <time>2020-09-06T07:50:18.346Z</time>
      </trkpt>
      <trkpt lat="48.40412" lon="7.31323">
        <ele>672</ele>
        <time>2020-09-06T07:50:19.345Z</time>
      </trkpt>
      <trkpt lat="48.40411" lon="7.31322">
        <ele>673</ele>
        <time>2020-09-06T07:50:20.346Z</time>
      </trkpt>
      <trkpt lat="48.4041" lon="7.31322">
        <ele>673</ele>
        <time>2020-09-06T07:50:21.346Z</time>
      </trkpt>
      <trkpt lat="48.40409" lon="7.31321">
        <ele>674</ele>
        <time>2020-09-06T07:50:22.346Z</time>
      </trkpt>
      <trkpt lat="48.40409" lon="7.31321">
        <ele>674</ele>
        <time>2020-09-06T07:50:23.346Z</time>
      </trkpt>
      <trkpt lat="48.40408" lon="7.3132">
        <ele>675</ele>
        <time>2020-09-06T07:50:24.346Z</time>
      </trkpt>
      <trkpt lat="48.40407" lon="7.3132">
        <ele>675</ele>
        <time>2020-09-06T07:50:25.345Z</time>
      </trkpt>
      <trkpt lat="48.40406" lon="7.31319">
        <ele>676</ele>
        <time>2020-09-06T07:50:26.345Z</time>
      </trkpt>
      <trkpt lat="48.40405" lon="7.31319">
        <ele>676</ele>
        <time>2020-09-06T07:50:27.346Z</time>
      </trkpt>
      <trkpt lat="48.40403" lon="7.31317">
        <ele>676</ele>
        <time>2020-09-06T07:50:28.346Z</time>
      </trkpt>
      <trkpt lat="48.40401" lon="7.31315">
        <ele>676</ele>
        <time>2020-09-06T07:50:29.345Z</time>
      </trkpt>
      <trkpt lat="48.404" lon="7.31315">
        <ele>677</ele>
        <time>2020-09-06T07:50:30.346Z</time>
      </trkpt>
      <trkpt lat="48.40399" lon="7.31315">
        <ele>677</ele>
        <time>2020-09-06T07:50:31.346Z</time>
      </trkpt>
      <trkpt lat="48.40398" lon="7.31315">
        <ele>678</ele>
        <time>2020-09-06T07:50:32.346Z</time>
      </trkpt>
      <trkpt lat="48.40397" lon="7.31314">
        <ele>678</ele>
        <time>2020-09-06T07:50:33.346Z</time>
      </trkpt>
      <trkpt lat="48.40396" lon="7.31313">
        <ele>678</ele>
        <time>2020-09-06T07:50:34.346Z</time>
      </trkpt>
      <trkpt lat="48.40395" lon="7.31312">
        <ele>679</ele>
        <time>2020-09-06T07:50:35.346Z</time>
      </trkpt>
      <trkpt lat="48.40394" lon="7.31311">
        <ele>679</ele>
        <time>2020-09-06T07:50:36.345Z</time>
      </trkpt>
      <trkpt lat="48.40393" lon="7.31311">
        <ele>679</ele>
        <time>2020-09-06T07:50:37.346Z</time>
      </trkpt>
      <trkpt lat="48.40393" lon="7.31311">
        <ele>679</ele>
        <time>2020-09-06T07:50:38.346Z</time>
      </trkpt>
      <trkpt lat="48.40392" lon="7.31309">
        <ele>679</ele>
        <time>2020-09-06T07:50:39.346Z</time>
      </trkpt>
      <trkpt lat="48.40391" lon="7.31308">
        <ele>679</ele>
        <time>2020-09-06T07:50:40.346Z</time>
      </trkpt>
      <trkpt lat="48.40389" lon="7.31308">
        <ele>678</ele>
        <time>2020-09-06T07:50:41.346Z</time>
      </trkpt>
      <trkpt lat="48.40388" lon="7.31308">
        <ele>678</ele>
        <time>2020-09-06T07:50:42.346Z</time>
      </trkpt>
      <trkpt lat="48.40388" lon="7.31309">
        <ele>677</ele>
        <time>2020-09-06T07:50:43.346Z</time>
      </trkpt>
      <trkpt lat="48.40387" lon="7.31309">
        <ele>677</ele>
        <time>2020-09-06T07:50:44.346Z</time>
      </trkpt>
      <trkpt lat="48.40386" lon="7.31309">
        <ele>676</ele>
        <time>2020-09-06T07:50:45.346Z</time>
      </trkpt>
      <trkpt lat="48.40385" lon="7.31308">
        <ele>676</ele>
        <time>2020-09-06T07:50:46.346Z</time>
      </trkpt>
      <trkpt lat="48.40385" lon="7.31307">
        <ele>675</ele>
        <time>2020-09-06T07:50:47.345Z</time>
      </trkpt>
      <trkpt lat="48.40385" lon="7.31307">
        <ele>675</ele>
        <time>2020-09-06T07:50:48.346Z</time>
      </trkpt>
      <trkpt lat="48.40385" lon="7.31306">
        <ele>674</ele>
        <time>2020-09-06T07:50:49.346Z</time>
      </trkpt>
      <trkpt lat="48.40384" lon="7.31305">
        <ele>673</ele>
        <time>2020-09-06T07:50:50.345Z</time>
      </trkpt>
      <trkpt lat="48.40383" lon="7.31305">
        <ele>672</ele>
        <time>2020-09-06T07:50:51.346Z</time>
      </trkpt>
      <trkpt lat="48.40382" lon="7.31304">
        <ele>672</ele>
        <time>2020-09-06T07:50:52.345Z</time>
      </trkpt>
      <trkpt lat="48.40381" lon="7.31303">
        <ele>671</ele>
        <time>2020-09-06T07:50:53.346Z</time>
      </trkpt>
      <trkpt lat="48.40381" lon="7.31302">
        <ele>671</ele>
        <time>2020-09-06T07:50:54.345Z</time>
      </trkpt>
      <trkpt lat="48.40381" lon="7.31301">
        <ele>670</ele>
        <time>2020-09-06T07:50:55.346Z</time>
      </trkpt>
      <trkpt lat="48.40381" lon="7.31299">
        <ele>670</ele>
        <time>2020-09-06T07:50:56.346Z</time>
      </trkpt>
      <trkpt lat="48.4038" lon="7.31297">
        <ele>669</ele>
        <time>2020-09-06T07:50:57.346Z</time>
      </trkpt>
      <trkpt lat="48.4038" lon="7.31296">
        <ele>669</ele>
        <time>2020-09-06T07:50:58.345Z</time>
      </trkpt>
      <trkpt lat="48.40379" lon="7.31294">
        <ele>669</ele>
        <time>2020-09-06T07:50:59.345Z</time>
      </trkpt>
      <trkpt lat="48.40379" lon="7.31291">
        <ele>669</ele>
        <time>2020-09-06T07:51:00.345Z</time>
      </trkpt>
      <trkpt lat="48.40379" lon="7.31289">
        <ele>669</ele>
        <time>2020-09-06T07:51:01.346Z</time>
      </trkpt>
      <trkpt lat="48.40379" lon="7.31288">
        <ele>669</ele>
        <time>2020-09-06T07:51:02.345Z</time>
      </trkpt>
      <trkpt lat="48.40378" lon="7.31286">
        <ele>668</ele>
        <time>2020-09-06T07:51:03.346Z</time>
      </trkpt>
      <trkpt lat="48.40378" lon="7.31285">
        <ele>667</ele>
        <time>2020-09-06T07:51:04.345Z</time>
      </trkpt>
      <trkpt lat="48.40377" lon="7.31284">
        <ele>666</ele>
        <time>2020-09-06T07:51:05.346Z</time>
      </trkpt>
      <trkpt lat="48.40376" lon="7.31283">
        <ele>665</ele>
        <time>2020-09-06T07:51:06.346Z</time>
      </trkpt>
      <trkpt lat="48.40376" lon="7.31282">
        <ele>664</ele>
        <time>2020-09-06T07:51:07.346Z</time>
      </trkpt>
      <trkpt lat="48.40375" lon="7.31281">
        <ele>663</ele>
        <time>2020-09-06T07:51:08.345Z</time>
      </trkpt>
      <trkpt lat="48.40374" lon="7.3128">
        <ele>662</ele>
        <time>2020-09-06T07:51:09.346Z</time>
      </trkpt>
      <trkpt lat="48.40374" lon="7.31279">
        <ele>661</ele>
        <time>2020-09-06T07:51:10.346Z</time>
      </trkpt>
      <trkpt lat="48.40373" lon="7.31276">
        <ele>661</ele>
        <time>2020-09-06T07:51:11.346Z</time>
      </trkpt>
      <trkpt lat="48.40373" lon="7.31273">
        <ele>660</ele>
        <time>2020-09-06T07:51:12.345Z</time>
      </trkpt>
      <trkpt lat="48.40373" lon="7.31271">
        <ele>660</ele>
        <time>2020-09-06T07:51:13.346Z</time>
      </trkpt>
      <trkpt lat="48.40373" lon="7.31269">
        <ele>659</ele>
        <time>2020-09-06T07:51:14.346Z</time>
      </trkpt>
      <trkpt lat="48.40373" lon="7.31267">
        <ele>659</ele>
        <time>2020-09-06T07:51:15.346Z</time>
      </trkpt>
      <trkpt lat="48.40373" lon="7.31266">
        <ele>658</ele>
        <time>2020-09-06T07:51:16.345Z</time>
      </trkpt>
      <trkpt lat="48.40373" lon="7.31264">
        <ele>658</ele>
        <time>2020-09-06T07:51:17.345Z</time>
      </trkpt>
      <trkpt lat="48.40372" lon="7.31263">
        <ele>657</ele>
        <time>2020-09-06T07:51:18.346Z</time>
      </trkpt>
      <trkpt lat="48.40372" lon="7.31261">
        <ele>657</ele>
        <time>2020-09-06T07:51:19.346Z</time>
      </trkpt>
      <trkpt lat="48.40372" lon="7.31259">
        <ele>657</ele>
        <time>2020-09-06T07:51:20.345Z</time>
      </trkpt>
      <trkpt lat="48.40372" lon="7.31256">
        <ele>656</ele>
        <time>2020-09-06T07:51:21.346Z</time>
      </trkpt>
      <trkpt lat="48.40371" lon="7.31254">
        <ele>656</ele>
        <time>2020-09-06T07:51:22.345Z</time>
      </trkpt>
      <trkpt lat="48.40371" lon="7.31252">
        <ele>656</ele>
        <time>2020-09-06T07:51:23.346Z</time>
      </trkpt>
      <trkpt lat="48.40371" lon="7.3125">
        <ele>656</ele>
        <time>2020-09-06T07:51:24.346Z</time>
      </trkpt>
      <trkpt lat="48.4037" lon="7.31248">
        <ele>656</ele>
        <time>2020-09-06T07:51:25.346Z</time>
      </trkpt>
      <trkpt lat="48.4037" lon="7.31246">
        <ele>656</ele>
        <time>2020-09-06T07:51:26.346Z</time>
      </trkpt>
      <trkpt lat="48.40369" lon="7.31244">
        <ele>656</ele>
        <time>2020-09-06T07:51:27.346Z</time>
      </trkpt>
      <trkpt lat="48.40368" lon="7.31242">
        <ele>657</ele>
        <time>2020-09-06T07:51:28.346Z</time>
      </trkpt>
      <trkpt lat="48.40368" lon="7.3124">
        <ele>657</ele>
        <time>2020-09-06T07:51:29.346Z</time>
      </trkpt>
      <trkpt lat="48.40368" lon="7.31239">
        <ele>657</ele>
        <time>2020-09-06T07:51:30.345Z</time>
      </trkpt>
      <trkpt lat="48.40367" lon="7.31238">
        <ele>658</ele>
        <time>2020-09-06T07:51:31.346Z</time>
      </trkpt>
      <trkpt lat="48.40367" lon="7.31236">
        <ele>658</ele>
        <time>2020-09-06T07:51:32.345Z</time>
      </trkpt>
      <trkpt lat="48.40366" lon="7.31234">
        <ele>659</ele>
        <time>2020-09-06T07:51:33.346Z</time>
      </trkpt>
      <trkpt lat="48.40365" lon="7.31232">
        <ele>659</ele>
        <time>2020-09-06T07:51:34.346Z</time>
      </trkpt>
      <trkpt lat="48.40365" lon="7.31229">
        <ele>659</ele>
        <time>2020-09-06T07:51:35.346Z</time>
      </trkpt>
      <trkpt lat="48.40364" lon="7.31227">
        <ele>660</ele>
        <time>2020-09-06T07:51:36.346Z</time>
      </trkpt>
      <trkpt lat="48.40364" lon="7.31227">
        <ele>659</ele>
        <time>2020-09-06T07:51:37.346Z</time>
      </trkpt>
      <trkpt lat="48.40363" lon="7.31225">
        <ele>659</ele>
        <time>2020-09-06T07:51:38.346Z</time>
      </trkpt>
      <trkpt lat="48.40363" lon="7.31224">
        <ele>659</ele>
        <time>2020-09-06T07:51:39.346Z</time>
      </trkpt>
      <trkpt lat="48.40363" lon="7.31222">
        <ele>660</ele>
        <time>2020-09-06T07:51:40.345Z</time>
      </trkpt>
      <trkpt lat="48.40363" lon="7.3122">
        <ele>660</ele>
        <time>2020-09-06T07:51:41.345Z</time>
      </trkpt>
      <trkpt lat="48.40363" lon="7.31219">
        <ele>661</ele>
        <time>2020-09-06T07:51:42.346Z</time>
      </trkpt>
      <trkpt lat="48.40362" lon="7.31217">
        <ele>662</ele>
        <time>2020-09-06T07:51:43.346Z</time>
      </trkpt>
      <trkpt lat="48.40362" lon="7.31216">
        <ele>662</ele>
        <time>2020-09-06T07:51:44.346Z</time>
      </trkpt>
      <trkpt lat="48.40362" lon="7.31214">
        <ele>662</ele>
        <time>2020-09-06T07:51:45.345Z</time>
      </trkpt>
      <trkpt lat="48.40361" lon="7.31212">
        <ele>662</ele>
        <time>2020-09-06T07:51:46.346Z</time>
      </trkpt>
      <trkpt lat="48.40361" lon="7.3121">
        <ele>662</ele>
        <time>2020-09-06T07:51:47.346Z</time>
      </trkpt>
      <trkpt lat="48.40361" lon="7.31209">
        <ele>662</ele>
        <time>2020-09-06T07:51:48.346Z</time>
      </trkpt>
      <trkpt lat="48.40361" lon="7.31207">
        <ele>662</ele>
        <time>2020-09-06T07:51:49.345Z</time>
      </trkpt>
      <trkpt lat="48.4036" lon="7.31206">
        <ele>662</ele>
        <time>2020-09-06T07:51:50.346Z</time>
      </trkpt>
      <trkpt lat="48.4036" lon="7.31205">
        <ele>661</ele>
        <time>2020-09-06T07:51:51.346Z</time>
      </trkpt>
      <trkpt lat="48.4036" lon="7.31203">
        <ele>661</ele>
        <time>2020-09-06T07:51:52.345Z</time>
      </trkpt>
      <trkpt lat="48.4036" lon="7.31202">
        <ele>661</ele>
        <time>2020-09-06T07:51:53.346Z</time>
      </trkpt>
      <trkpt lat="48.40359" lon="7.31201">
        <ele>661</ele>
        <time>2020-09-06T07:51:54.346Z</time>
      </trkpt>
      <trkpt lat="48.4036" lon="7.31199">
        <ele>661</ele>
        <time>2020-09-06T07:51:55.346Z</time>
      </trkpt>
      <trkpt lat="48.40361" lon="7.31197">
        <ele>661</ele>
        <time>2020-09-06T07:51:56.346Z</time>
      </trkpt>
      <trkpt lat="48.40361" lon="7.31194">
        <ele>661</ele>
        <time>2020-09-06T07:51:57.345Z</time>
      </trkpt>
      <trkpt lat="48.40361" lon="7.31191">
        <ele>661</ele>
        <time>2020-09-06T07:51:58.345Z</time>
      </trkpt>
      <trkpt lat="48.40362" lon="7.31188">
        <ele>661</ele>
        <time>2020-09-06T07:51:59.346Z</time>
      </trkpt>
      <trkpt lat="48.40362" lon="7.31186">
        <ele>661</ele>
        <time>2020-09-06T07:52:00.346Z</time>
      </trkpt>
      <trkpt lat="48.40362" lon="7.31184">
        <ele>661</ele>
        <time>2020-09-06T07:52:01.345Z</time>
      </trkpt>
      <trkpt lat="48.40362" lon="7.31182">
        <ele>661</ele>
        <time>2020-09-06T07:52:02.345Z</time>
      </trkpt>
      <trkpt lat="48.40362" lon="7.31179">
        <ele>661</ele>
        <time>2020-09-06T07:52:03.346Z</time>
      </trkpt>
      <trkpt lat="48.40362" lon="7.31177">
        <ele>662</ele>
        <time>2020-09-06T07:52:04.346Z</time>
      </trkpt>
      <trkpt lat="48.40362" lon="7.31175">
        <ele>662</ele>
        <time>2020-09-06T07:52:05.346Z</time>
      </trkpt>
      <trkpt lat="48.40362" lon="7.31174">
        <ele>662</ele>
        <time>2020-09-06T07:52:06.345Z</time>
      </trkpt>
      <trkpt lat="48.40363" lon="7.31172">
        <ele>663</ele>
        <time>2020-09-06T07:52:07.345Z</time>
      </trkpt>
      <trkpt lat="48.40364" lon="7.31171">
        <ele>663</ele>
        <time>2020-09-06T07:52:08.346Z</time>
      </trkpt>
      <trkpt lat="48.40365" lon="7.31169">
        <ele>664</ele>
        <time>2020-09-06T07:52:09.346Z</time>
      </trkpt>
      <trkpt lat="48.40365" lon="7.31168">
        <ele>664</ele>
        <time>2020-09-06T07:52:10.346Z</time>
      </trkpt>
      <trkpt lat="48.40366" lon="7.31167">
        <ele>664</ele>
        <time>2020-09-06T07:52:11.345Z</time>
      </trkpt>
      <trkpt lat="48.40367" lon="7.31167">
        <ele>665</ele>
        <time>2020-09-06T07:52:12.346Z</time>
      </trkpt>
      <trkpt lat="48.40369" lon="7.31166">
        <ele>665</ele>
        <time>2020-09-06T07:52:13.346Z</time>
      </trkpt>
      <trkpt lat="48.4037" lon="7.31165">
        <ele>667</ele>
        <time>2020-09-06T07:52:14.346Z</time>
      </trkpt>
      <trkpt lat="48.4037" lon="7.31164">
        <ele>668</ele>
        <time>2020-09-06T07:52:15.346Z</time>
      </trkpt>
      <trkpt lat="48.4037" lon="7.31163">
        <ele>669</ele>
        <time>2020-09-06T07:52:16.346Z</time>
      </trkpt>
      <trkpt lat="48.40371" lon="7.3116">
        <ele>670</ele>
        <time>2020-09-06T07:52:17.346Z</time>
      </trkpt>
      <trkpt lat="48.40372" lon="7.31159">
        <ele>671</ele>
        <time>2020-09-06T07:52:18.346Z</time>
      </trkpt>
      <trkpt lat="48.40373" lon="7.31159">
        <ele>672</ele>
        <time>2020-09-06T07:52:19.345Z</time>
      </trkpt>
      <trkpt lat="48.40374" lon="7.31158">
        <ele>673</ele>
        <time>2020-09-06T07:52:20.346Z</time>
      </trkpt>
      <trkpt lat="48.40375" lon="7.31158">
        <ele>674</ele>
        <time>2020-09-06T07:52:21.346Z</time>
      </trkpt>
      <trkpt lat="48.40376" lon="7.31158">
        <ele>675</ele>
        <time>2020-09-06T07:52:22.345Z</time>
      </trkpt>
      <trkpt lat="48.40377" lon="7.31158">
        <ele>675</ele>
        <time>2020-09-06T07:52:23.346Z</time>
      </trkpt>
      <trkpt lat="48.40378" lon="7.31157">
        <ele>676</ele>
        <time>2020-09-06T07:52:24.346Z</time>
      </trkpt>
      <trkpt lat="48.40378" lon="7.31156">
        <ele>676</ele>
        <time>2020-09-06T07:52:25.346Z</time>
      </trkpt>
      <trkpt lat="48.40379" lon="7.31156">
        <ele>676</ele>
        <time>2020-09-06T07:52:26.346Z</time>
      </trkpt>
      <trkpt lat="48.4038" lon="7.31156">
        <ele>676</ele>
        <time>2020-09-06T07:52:27.345Z</time>
      </trkpt>
      <trkpt lat="48.40381" lon="7.31157">
        <ele>676</ele>
        <time>2020-09-06T07:52:28.346Z</time>
      </trkpt>
      <trkpt lat="48.40382" lon="7.31157">
        <ele>676</ele>
        <time>2020-09-06T07:52:29.346Z</time>
      </trkpt>
      <trkpt lat="48.40383" lon="7.31156">
        <ele>675</ele>
        <time>2020-09-06T07:52:30.346Z</time>
      </trkpt>
      <trkpt lat="48.40384" lon="7.31156">
        <ele>675</ele>
        <time>2020-09-06T07:52:31.346Z</time>
      </trkpt>
      <trkpt lat="48.40385" lon="7.31156">
        <ele>675</ele>
        <time>2020-09-06T07:52:32.346Z</time>
      </trkpt>
      <trkpt lat="48.40386" lon="7.31155">
        <ele>674</ele>
        <time>2020-09-06T07:52:33.346Z</time>
      </trkpt>
      <trkpt lat="48.40387" lon="7.31155">
        <ele>674</ele>
        <time>2020-09-06T07:52:34.346Z</time>
      </trkpt>
      <trkpt lat="48.40389" lon="7.31155">
        <ele>674</ele>
        <time>2020-09-06T07:52:35.346Z</time>
      </trkpt>
      <trkpt lat="48.40389" lon="7.31155">
        <ele>674</ele>
        <time>2020-09-06T07:52:36.345Z</time>
      </trkpt>
      <trkpt lat="48.4039" lon="7.31154">
        <ele>674</ele>
        <time>2020-09-06T07:52:37.346Z</time>
      </trkpt>
      <trkpt lat="48.40391" lon="7.31153">
        <ele>673</ele>
        <time>2020-09-06T07:52:38.346Z</time>
      </trkpt>
      <trkpt lat="48.40392" lon="7.31152">
        <ele>673</ele>
        <time>2020-09-06T07:52:39.345Z</time>
      </trkpt>
      <trkpt lat="48.40393" lon="7.3115">
        <ele>673</ele>
        <time>2020-09-06T07:52:40.346Z</time>
      </trkpt>
      <trkpt lat="48.40394" lon="7.31149">
        <ele>673</ele>
        <time>2020-09-06T07:52:41.346Z</time>
      </trkpt>
      <trkpt lat="48.40395" lon="7.31149">
        <ele>673</ele>
        <time>2020-09-06T07:52:42.345Z</time>
      </trkpt>
      <trkpt lat="48.40396" lon="7.31148">
        <ele>673</ele>
        <time>2020-09-06T07:52:43.346Z</time>
      </trkpt>
      <trkpt lat="48.40397" lon="7.31148">
        <ele>673</ele>
        <time>2020-09-06T07:52:44.345Z</time>
      </trkpt>
      <trkpt lat="48.40399" lon="7.31147">
        <ele>674</ele>
        <time>2020-09-06T07:52:45.346Z</time>
      </trkpt>
      <trkpt lat="48.40401" lon="7.31147">
        <ele>675</ele>
        <time>2020-09-06T07:52:46.346Z</time>
      </trkpt>
      <trkpt lat="48.40402" lon="7.31147">
        <ele>675</ele>
        <time>2020-09-06T07:52:47.345Z</time>
      </trkpt>
      <trkpt lat="48.40402" lon="7.31147">
        <ele>677</ele>
        <time>2020-09-06T07:52:48.346Z</time>
      </trkpt>
      <trkpt lat="48.40404" lon="7.31146">
        <ele>678</ele>
        <time>2020-09-06T07:52:49.346Z</time>
      </trkpt>
      <trkpt lat="48.40405" lon="7.31146">
        <ele>679</ele>
        <time>2020-09-06T07:52:50.346Z</time>
      </trkpt>
      <trkpt lat="48.40406" lon="7.31145">
        <ele>680</ele>
        <time>2020-09-06T07:52:51.345Z</time>
      </trkpt>
      <trkpt lat="48.40407" lon="7.31144">
        <ele>681</ele>
        <time>2020-09-06T07:52:52.345Z</time>
      </trkpt>
      <trkpt lat="48.40408" lon="7.31143">
        <ele>682</ele>
        <time>2020-09-06T07:52:53.346Z</time>
      </trkpt>
      <trkpt lat="48.40409" lon="7.31143">
        <ele>682</ele>
        <time>2020-09-06T07:52:54.346Z</time>
      </trkpt>
      <trkpt lat="48.4041" lon="7.31142">
        <ele>683</ele>
        <time>2020-09-06T07:52:55.345Z</time>
      </trkpt>
      <trkpt lat="48.40411" lon="7.31141">
        <ele>684</ele>
        <time>2020-09-06T07:52:56.346Z</time>
      </trkpt>
      <trkpt lat="48.40412" lon="7.3114">
        <ele>684</ele>
        <time>2020-09-06T07:52:57.345Z</time>
      </trkpt>
      <trkpt lat="48.40412" lon="7.31139">
        <ele>685</ele>
        <time>2020-09-06T07:52:58.346Z</time>
      </trkpt>
      <trkpt lat="48.40413" lon="7.31138">
        <ele>686</ele>
        <time>2020-09-06T07:52:59.346Z</time>
      </trkpt>
      <trkpt lat="48.40414" lon="7.31136">
        <ele>686</ele>
        <time>2020-09-06T07:53:00.346Z</time>
      </trkpt>
      <trkpt lat="48.40415" lon="7.31134">
        <ele>686</ele>
        <time>2020-09-06T07:53:01.346Z</time>
      </trkpt>
      <trkpt lat="48.40416" lon="7.31132">
        <ele>687</ele>
        <time>2020-09-06T07:53:02.345Z</time>
      </trkpt>
      <trkpt lat="48.40417" lon="7.31131">
        <ele>688</ele>
        <time>2020-09-06T07:53:03.345Z</time>
      </trkpt>
      <trkpt lat="48.40419" lon="7.31129">
        <ele>689</ele>
        <time>2020-09-06T07:53:04.345Z</time>
      </trkpt>
      <trkpt lat="48.40421" lon="7.31127">
        <ele>690</ele>
        <time>2020-09-06T07:53:05.346Z</time>
      </trkpt>
      <trkpt lat="48.40422" lon="7.31125">
        <ele>690</ele>
        <time>2020-09-06T07:53:06.346Z</time>
      </trkpt>
      <trkpt lat="48.40423" lon="7.31124">
        <ele>690</ele>
        <time>2020-09-06T07:53:07.345Z</time>
      </trkpt>
      <trkpt lat="48.40424" lon="7.31122">
        <ele>690</ele>
        <time>2020-09-06T07:53:08.345Z</time>
      </trkpt>
      <trkpt lat="48.40425" lon="7.3112">
        <ele>690</ele>
        <time>2020-09-06T07:53:09.346Z</time>
      </trkpt>
      <trkpt lat="48.40426" lon="7.3112">
        <ele>690</ele>
        <time>2020-09-06T07:53:10.345Z</time>
      </trkpt>
      <trkpt lat="48.40427" lon="7.31119">
        <ele>690</ele>
        <time>2020-09-06T07:53:11.345Z</time>
      </trkpt>
      <trkpt lat="48.40428" lon="7.31119">
        <ele>690</ele>
        <time>2020-09-06T07:53:12.345Z</time>
      </trkpt>
      <trkpt lat="48.40428" lon="7.31117">
        <ele>690</ele>
        <time>2020-09-06T07:53:13.346Z</time>
      </trkpt>
      <trkpt lat="48.40429" lon="7.31115">
        <ele>689</ele>
        <time>2020-09-06T07:53:14.346Z</time>
      </trkpt>
      <trkpt lat="48.4043" lon="7.31114">
        <ele>688</ele>
        <time>2020-09-06T07:53:15.346Z</time>
      </trkpt>
      <trkpt lat="48.40431" lon="7.31113">
        <ele>688</ele>
        <time>2020-09-06T07:53:16.345Z</time>
      </trkpt>
      <trkpt lat="48.40432" lon="7.31113">
        <ele>687</ele>
        <time>2020-09-06T07:53:17.345Z</time>
      </trkpt>
      <trkpt lat="48.40432" lon="7.31112">
        <ele>686</ele>
        <time>2020-09-06T07:53:18.346Z</time>
      </trkpt>
      <trkpt lat="48.40433" lon="7.31111">
        <ele>685</ele>
        <time>2020-09-06T07:53:19.346Z</time>
      </trkpt>
      <trkpt lat="48.40435" lon="7.3111">
        <ele>684</ele>
        <time>2020-09-06T07:53:20.346Z</time>
      </trkpt>
      <trkpt lat="48.40436" lon="7.31109">
        <ele>683</ele>
        <time>2020-09-06T07:53:21.345Z</time>
      </trkpt>
      <trkpt lat="48.40437" lon="7.31108">
        <ele>682</ele>
        <time>2020-09-06T07:53:22.346Z</time>
      </trkpt>
      <trkpt lat="48.40437" lon="7.31107">
        <ele>682</ele>
        <time>2020-09-06T07:53:23.346Z</time>
      </trkpt>
      <trkpt lat="48.40438" lon="7.31106">
        <ele>681</ele>
        <time>2020-09-06T07:53:24.346Z</time>
      </trkpt>
      <trkpt lat="48.40439" lon="7.31105">
        <ele>681</ele>
        <time>2020-09-06T07:53:25.345Z</time>
      </trkpt>
      <trkpt lat="48.40439" lon="7.31104">
        <ele>681</ele>
        <time>2020-09-06T07:53:26.346Z</time>
      </trkpt>
      <trkpt lat="48.4044" lon="7.31102">
        <ele>681</ele>
        <time>2020-09-06T07:53:27.346Z</time>
      </trkpt>
      <trkpt lat="48.40441" lon="7.31101">
        <ele>682</ele>
        <time>2020-09-06T07:53:28.346Z</time>
      </trkpt>
      <trkpt lat="48.40443" lon="7.31099">
        <ele>682</ele>
        <time>2020-09-06T07:53:29.346Z</time>
      </trkpt>
      <trkpt lat="48.40443" lon="7.31097">
        <ele>683</ele>
        <time>2020-09-06T07:53:30.346Z</time>
      </trkpt>
      <trkpt lat="48.40444" lon="7.31096">
        <ele>683</ele>
        <time>2020-09-06T07:53:31.346Z</time>
      </trkpt>
      <trkpt lat="48.40445" lon="7.31093">
        <ele>684</ele>
        <time>2020-09-06T07:53:32.345Z</time>
      </trkpt>
      <trkpt lat="48.40446" lon="7.31092">
        <ele>684</ele>
        <time>2020-09-06T07:53:33.346Z</time>
      </trkpt>
      <trkpt lat="48.40446" lon="7.3109">
        <ele>684</ele>
        <time>2020-09-06T07:53:34.346Z</time>
      </trkpt>
      <trkpt lat="48.40446" lon="7.31089">
        <ele>684</ele>
        <time>2020-09-06T07:53:35.346Z</time>
      </trkpt>
      <trkpt lat="48.40447" lon="7.31088">
        <ele>684</ele>
        <time>2020-09-06T07:53:36.345Z</time>
      </trkpt>
      <trkpt lat="48.40448" lon="7.31086">
        <ele>683</ele>
        <time>2020-09-06T07:53:37.345Z</time>
      </trkpt>
      <trkpt lat="48.40448" lon="7.31084">
        <ele>683</ele>
        <time>2020-09-06T07:53:38.346Z</time>
      </trkpt>
      <trkpt lat="48.40449" lon="7.31083">
        <ele>683</ele>
        <time>2020-09-06T07:53:39.346Z</time>
      </trkpt>
      <trkpt lat="48.4045" lon="7.31082">
        <ele>683</ele>
        <time>2020-09-06T07:53:40.346Z</time>
      </trkpt>
      <trkpt lat="48.4045" lon="7.31081">
        <ele>683</ele>
        <time>2020-09-06T07:53:41.346Z</time>
      </trkpt>
      <trkpt lat="48.40451" lon="7.3108">
        <ele>683</ele>
        <time>2020-09-06T07:53:42.345Z</time>
      </trkpt>
      <trkpt lat="48.40452" lon="7.31079">
        <ele>683</ele>
        <time>2020-09-06T07:53:43.346Z</time>
      </trkpt>
      <trkpt lat="48.40452" lon="7.31077">
        <ele>683</ele>
        <time>2020-09-06T07:53:44.346Z</time>
      </trkpt>
      <trkpt lat="48.40452" lon="7.31076">
        <ele>683</ele>
        <time>2020-09-06T07:53:45.345Z</time>
      </trkpt>
      <trkpt lat="48.40452" lon="7.31075">
        <ele>682</ele>
        <time>2020-09-06T07:53:46.346Z</time>
      </trkpt>
      <trkpt lat="48.40452" lon="7.31073">
        <ele>682</ele>
        <time>2020-09-06T07:53:47.346Z</time>
      </trkpt>
      <trkpt lat="48.40453" lon="7.31072">
        <ele>681</ele>
        <time>2020-09-06T07:53:48.346Z</time>
      </trkpt>
      <trkpt lat="48.40453" lon="7.31072">
        <ele>681</ele>
        <time>2020-09-06T07:53:49.346Z</time>
      </trkpt>
      <trkpt lat="48.40454" lon="7.3107">
        <ele>681</ele>
        <time>2020-09-06T07:53:50.346Z</time>
      </trkpt>
      <trkpt lat="48.40455" lon="7.31069">
        <ele>681</ele>
        <time>2020-09-06T07:53:51.346Z</time>
      </trkpt>
      <trkpt lat="48.40455" lon="7.31068">
        <ele>681</ele>
        <time>2020-09-06T07:53:52.346Z</time>
      </trkpt>
      <trkpt lat="48.40456" lon="7.31068">
        <ele>681</ele>
        <time>2020-09-06T07:53:53.346Z</time>
      </trkpt>
      <trkpt lat="48.40458" lon="7.31067">
        <ele>682</ele>
        <time>2020-09-06T07:53:54.345Z</time>
      </trkpt>
      <trkpt lat="48.40458" lon="7.31066">
        <ele>682</ele>
        <time>2020-09-06T07:53:55.346Z</time>
      </trkpt>
      <trkpt lat="48.40459" lon="7.31066">
        <ele>682</ele>
        <time>2020-09-06T07:53:56.346Z</time>
      </trkpt>
      <trkpt lat="48.4046" lon="7.31066">
        <ele>682</ele>
        <time>2020-09-06T07:53:57.345Z</time>
      </trkpt>
      <trkpt lat="48.40461" lon="7.31065">
        <ele>682</ele>
        <time>2020-09-06T07:53:58.346Z</time>
      </trkpt>
      <trkpt lat="48.40461" lon="7.31065">
        <ele>681</ele>
        <time>2020-09-06T07:53:59.346Z</time>
      </trkpt>
      <trkpt lat="48.40462" lon="7.31064">
        <ele>681</ele>
        <time>2020-09-06T07:54:00.345Z</time>
      </trkpt>
      <trkpt lat="48.40463" lon="7.31062">
        <ele>681</ele>
        <time>2020-09-06T07:54:01.346Z</time>
      </trkpt>
      <trkpt lat="48.40464" lon="7.31062">
        <ele>680</ele>
        <time>2020-09-06T07:54:02.346Z</time>
      </trkpt>
      <trkpt lat="48.40465" lon="7.31062">
        <ele>680</ele>
        <time>2020-09-06T07:54:03.346Z</time>
      </trkpt>
      <trkpt lat="48.40466" lon="7.31063">
        <ele>679</ele>
        <time>2020-09-06T07:54:04.346Z</time>
      </trkpt>
      <trkpt lat="48.40467" lon="7.31062">
        <ele>678</ele>
        <time>2020-09-06T07:54:05.346Z</time>
      </trkpt>
      <trkpt lat="48.40469" lon="7.31061">
        <ele>678</ele>
        <time>2020-09-06T07:54:06.345Z</time>
      </trkpt>
      <trkpt lat="48.4047" lon="7.31061">
        <ele>677</ele>
        <time>2020-09-06T07:54:07.345Z</time>
      </trkpt>
      <trkpt lat="48.40471" lon="7.31061">
        <ele>677</ele>
        <time>2020-09-06T07:54:08.346Z</time>
      </trkpt>
      <trkpt lat="48.40472" lon="7.3106">
        <ele>677</ele>
        <time>2020-09-06T07:54:09.346Z</time>
      </trkpt>
      <trkpt lat="48.40473" lon="7.3106">
        <ele>677</ele>
        <time>2020-09-06T07:54:10.346Z</time>
      </trkpt>
      <trkpt lat="48.40475" lon="7.3106">
        <ele>676</ele>
        <time>2020-09-06T07:54:11.346Z</time>
      </trkpt>
      <trkpt lat="48.40476" lon="7.3106">
        <ele>676</ele>
        <time>2020-09-06T07:54:12.345Z</time>
      </trkpt>
      <trkpt lat="48.40478" lon="7.3106">
        <ele>676</ele>
        <time>2020-09-06T07:54:13.346Z</time>
      </trkpt>
      <trkpt lat="48.40481" lon="7.3106">
        <ele>676</ele>
        <time>2020-09-06T07:54:14.346Z</time>
      </trkpt>
      <trkpt lat="48.40483" lon="7.31059">
        <ele>677</ele>
        <time>2020-09-06T07:54:15.346Z</time>
      </trkpt>
      <trkpt lat="48.40485" lon="7.31059">
        <ele>677</ele>
        <time>2020-09-06T07:54:16.346Z</time>
      </trkpt>
      <trkpt lat="48.40487" lon="7.31058">
        <ele>677</ele>
        <time>2020-09-06T07:54:17.346Z</time>
      </trkpt>
      <trkpt lat="48.40487" lon="7.31057">
        <ele>678</ele>
        <time>2020-09-06T07:54:18.346Z</time>
      </trkpt>
      <trkpt lat="48.40488" lon="7.31056">
        <ele>678</ele>
        <time>2020-09-06T07:54:19.345Z</time>
      </trkpt>
      <trkpt lat="48.40488" lon="7.31055">
        <ele>679</ele>
        <time>2020-09-06T07:54:20.345Z</time>
      </trkpt>
      <trkpt lat="48.40489" lon="7.31054">
        <ele>679</ele>
        <time>2020-09-06T07:54:21.345Z</time>
      </trkpt>
      <trkpt lat="48.40489" lon="7.31053">
        <ele>680</ele>
        <time>2020-09-06T07:54:22.345Z</time>
      </trkpt>
      <trkpt lat="48.4049" lon="7.31053">
        <ele>680</ele>
        <time>2020-09-06T07:54:23.345Z</time>
      </trkpt>
      <trkpt lat="48.40491" lon="7.31052">
        <ele>681</ele>
        <time>2020-09-06T07:54:24.345Z</time>
      </trkpt>
      <trkpt lat="48.40492" lon="7.31052">
        <ele>682</ele>
        <time>2020-09-06T07:54:25.346Z</time>
      </trkpt>
      <trkpt lat="48.40492" lon="7.31052">
        <ele>683</ele>
        <time>2020-09-06T07:54:26.345Z</time>
      </trkpt>
      <trkpt lat="48.40493" lon="7.31051">
        <ele>683</ele>
        <time>2020-09-06T07:54:27.346Z</time>
      </trkpt>
      <trkpt lat="48.40493" lon="7.31049">
        <ele>684</ele>
        <time>2020-09-06T07:54:28.345Z</time>
      </trkpt>
      <trkpt lat="48.40494" lon="7.31048">
        <ele>685</ele>
        <time>2020-09-06T07:54:29.346Z</time>
      </trkpt>
      <trkpt lat="48.40495" lon="7.31047">
        <ele>686</ele>
        <time>2020-09-06T07:54:30.346Z</time>
      </trkpt>
      <trkpt lat="48.40496" lon="7.31046">
        <ele>686</ele>
        <time>2020-09-06T07:54:31.346Z</time>
      </trkpt>
      <trkpt lat="48.40497" lon="7.31044">
        <ele>687</ele>
        <time>2020-09-06T07:54:32.346Z</time>
      </trkpt>
      <trkpt lat="48.40497" lon="7.31042">
        <ele>687</ele>
        <time>2020-09-06T07:54:33.346Z</time>
      </trkpt>
      <trkpt lat="48.40497" lon="7.3104">
        <ele>687</ele>
        <time>2020-09-06T07:54:34.346Z</time>
      </trkpt>
      <trkpt lat="48.40498" lon="7.31039">
        <ele>688</ele>
        <time>2020-09-06T07:54:35.346Z</time>
      </trkpt>
      <trkpt lat="48.40499" lon="7.31037">
        <ele>688</ele>
        <time>2020-09-06T07:54:36.346Z</time>
      </trkpt>
      <trkpt lat="48.40499" lon="7.31036">
        <ele>688</ele>
        <time>2020-09-06T07:54:37.346Z</time>
      </trkpt>
      <trkpt lat="48.40499" lon="7.31034">
        <ele>688</ele>
        <time>2020-09-06T07:54:38.346Z</time>
      </trkpt>
      <trkpt lat="48.40499" lon="7.31032">
        <ele>687</ele>
        <time>2020-09-06T07:54:39.346Z</time>
      </trkpt>
      <trkpt lat="48.40499" lon="7.31031">
        <ele>687</ele>
        <time>2020-09-06T07:54:40.346Z</time>
      </trkpt>
      <trkpt lat="48.40499" lon="7.31029">
        <ele>686</ele>
        <time>2020-09-06T07:54:41.346Z</time>
      </trkpt>
      <trkpt lat="48.40499" lon="7.31026">
        <ele>686</ele>
        <time>2020-09-06T07:54:42.346Z</time>
      </trkpt>
      <trkpt lat="48.40499" lon="7.31025">
        <ele>686</ele>
        <time>2020-09-06T07:54:43.345Z</time>
      </trkpt>
      <trkpt lat="48.405" lon="7.31024">
        <ele>686</ele>
        <time>2020-09-06T07:54:44.346Z</time>
      </trkpt>
      <trkpt lat="48.405" lon="7.31023">
        <ele>686</ele>
        <time>2020-09-06T07:54:45.346Z</time>
      </trkpt>
      <trkpt lat="48.40501" lon="7.31022">
        <ele>686</ele>
        <time>2020-09-06T07:54:46.346Z</time>
      </trkpt>
      <trkpt lat="48.40501" lon="7.3102">
        <ele>686</ele>
        <time>2020-09-06T07:54:47.346Z</time>
      </trkpt>
      <trkpt lat="48.40502" lon="7.31019">
        <ele>686</ele>
        <time>2020-09-06T07:54:48.346Z</time>
      </trkpt>
      <trkpt lat="48.40503" lon="7.31018">
        <ele>686</ele>
        <time>2020-09-06T07:54:49.346Z</time>
      </trkpt>
      <trkpt lat="48.40503" lon="7.31017">
        <ele>686</ele>
        <time>2020-09-06T07:54:50.345Z</time>
      </trkpt>
      <trkpt lat="48.40504" lon="7.31015">
        <ele>686</ele>
        <time>2020-09-06T07:54:51.346Z</time>
      </trkpt>
      <trkpt lat="48.40504" lon="7.31014">
        <ele>686</ele>
        <time>2020-09-06T07:54:52.346Z</time>
      </trkpt>
      <trkpt lat="48.40505" lon="7.31013">
        <ele>686</ele>
        <time>2020-09-06T07:54:53.346Z</time>
      </trkpt>
      <trkpt lat="48.40505" lon="7.31011">
        <ele>686</ele>
        <time>2020-09-06T07:54:54.345Z</time>
      </trkpt>
      <trkpt lat="48.40505" lon="7.31009">
        <ele>687</ele>
        <time>2020-09-06T07:54:55.346Z</time>
      </trkpt>
      <trkpt lat="48.40505" lon="7.31007">
        <ele>687</ele>
        <time>2020-09-06T07:54:56.346Z</time>
      </trkpt>
      <trkpt lat="48.40506" lon="7.31004">
        <ele>687</ele>
        <time>2020-09-06T07:54:57.346Z</time>
      </trkpt>
      <trkpt lat="48.40507" lon="7.31002">
        <ele>687</ele>
        <time>2020-09-06T07:54:58.345Z</time>
      </trkpt>
      <trkpt lat="48.40509" lon="7.31">
        <ele>687</ele>
        <time>2020-09-06T07:54:59.346Z</time>
      </trkpt>
      <trkpt lat="48.40509" lon="7.30999">
        <ele>687</ele>
        <time>2020-09-06T07:55:00.346Z</time>
      </trkpt>
      <trkpt lat="48.4051" lon="7.30998">
        <ele>688</ele>
        <time>2020-09-06T07:55:01.346Z</time>
      </trkpt>
      <trkpt lat="48.40511" lon="7.30996">
        <ele>688</ele>
        <time>2020-09-06T07:55:02.346Z</time>
      </trkpt>
      <trkpt lat="48.40512" lon="7.30995">
        <ele>688</ele>
        <time>2020-09-06T07:55:03.346Z</time>
      </trkpt>
      <trkpt lat="48.40514" lon="7.30994">
        <ele>688</ele>
        <time>2020-09-06T07:55:04.346Z</time>
      </trkpt>
      <trkpt lat="48.40515" lon="7.30994">
        <ele>689</ele>
        <time>2020-09-06T07:55:05.346Z</time>
      </trkpt>
      <trkpt lat="48.40516" lon="7.30993">
        <ele>689</ele>
        <time>2020-09-06T07:55:06.346Z</time>
      </trkpt>
      <trkpt lat="48.40517" lon="7.30991">
        <ele>689</ele>
        <time>2020-09-06T07:55:07.346Z</time>
      </trkpt>
      <trkpt lat="48.40518" lon="7.3099">
        <ele>690</ele>
        <time>2020-09-06T07:55:08.346Z</time>
      </trkpt>
      <trkpt lat="48.40519" lon="7.30989">
        <ele>690</ele>
        <time>2020-09-06T07:55:09.345Z</time>
      </trkpt>
      <trkpt lat="48.40521" lon="7.30988">
        <ele>691</ele>
        <time>2020-09-06T07:55:10.346Z</time>
      </trkpt>
      <trkpt lat="48.40522" lon="7.30986">
        <ele>691</ele>
        <time>2020-09-06T07:55:11.346Z</time>
      </trkpt>
      <trkpt lat="48.40523" lon="7.30985">
        <ele>691</ele>
        <time>2020-09-06T07:55:12.346Z</time>
      </trkpt>
      <trkpt lat="48.40524" lon="7.30983">
        <ele>692</ele>
        <time>2020-09-06T07:55:13.346Z</time>
      </trkpt>
      <trkpt lat="48.40525" lon="7.30983">
        <ele>692</ele>
        <time>2020-09-06T07:55:14.346Z</time>
      </trkpt>
      <trkpt lat="48.40527" lon="7.30982">
        <ele>692</ele>
        <time>2020-09-06T07:55:15.346Z</time>
      </trkpt>
      <trkpt lat="48.40528" lon="7.30981">
        <ele>692</ele>
        <time>2020-09-06T07:55:16.346Z</time>
      </trkpt>
      <trkpt lat="48.40529" lon="7.30981">
        <ele>693</ele>
        <time>2020-09-06T07:55:17.346Z</time>
      </trkpt>
      <trkpt lat="48.4053" lon="7.3098">
        <ele>694</ele>
        <time>2020-09-06T07:55:18.346Z</time>
      </trkpt>
      <trkpt lat="48.40531" lon="7.3098">
        <ele>694</ele>
        <time>2020-09-06T07:55:19.346Z</time>
      </trkpt>
      <trkpt lat="48.40532" lon="7.30979">
        <ele>694</ele>
        <time>2020-09-06T07:55:20.346Z</time>
      </trkpt>
      <trkpt lat="48.40533" lon="7.30978">
        <ele>694</ele>
        <time>2020-09-06T07:55:21.346Z</time>
      </trkpt>
      <trkpt lat="48.40534" lon="7.30977">
        <ele>694</ele>
        <time>2020-09-06T07:55:22.346Z</time>
      </trkpt>
      <trkpt lat="48.40535" lon="7.30976">
        <ele>694</ele>
        <time>2020-09-06T07:55:23.345Z</time>
      </trkpt>
      <trkpt lat="48.40535" lon="7.30974">
        <ele>693</ele>
        <time>2020-09-06T07:55:24.346Z</time>
      </trkpt>
      <trkpt lat="48.40536" lon="7.30973">
        <ele>693</ele>
        <time>2020-09-06T07:55:25.346Z</time>
      </trkpt>
      <trkpt lat="48.40537" lon="7.30973">
        <ele>693</ele>
        <time>2020-09-06T07:55:26.346Z</time>
      </trkpt>
      <trkpt lat="48.40538" lon="7.30972">
        <ele>693</ele>
        <time>2020-09-06T07:55:27.345Z</time>
      </trkpt>
      <trkpt lat="48.40539" lon="7.30972">
        <ele>693</ele>
        <time>2020-09-06T07:55:28.345Z</time>
      </trkpt>
      <trkpt lat="48.40539" lon="7.3097">
        <ele>692</ele>
        <time>2020-09-06T07:55:29.345Z</time>
      </trkpt>
      <trkpt lat="48.4054" lon="7.30969">
        <ele>692</ele>
        <time>2020-09-06T07:55:30.346Z</time>
      </trkpt>
      <trkpt lat="48.4054" lon="7.30969">
        <ele>692</ele>
        <time>2020-09-06T07:55:31.345Z</time>
      </trkpt>
      <trkpt lat="48.40542" lon="7.30968">
        <ele>692</ele>
        <time>2020-09-06T07:55:32.346Z</time>
      </trkpt>
      <trkpt lat="48.40544" lon="7.30969">
        <ele>692</ele>
        <time>2020-09-06T07:55:33.346Z</time>
      </trkpt>
      <trkpt lat="48.40546" lon="7.30968">
        <ele>692</ele>
        <time>2020-09-06T07:55:34.346Z</time>
      </trkpt>
      <trkpt lat="48.40547" lon="7.30967">
        <ele>692</ele>
        <time>2020-09-06T07:55:35.345Z</time>
      </trkpt>
      <trkpt lat="48.40548" lon="7.30967">
        <ele>693</ele>
        <time>2020-09-06T07:55:36.346Z</time>
      </trkpt>
      <trkpt lat="48.40548" lon="7.30965">
        <ele>694</ele>
        <time>2020-09-06T07:55:37.345Z</time>
      </trkpt>
      <trkpt lat="48.40549" lon="7.30964">
        <ele>695</ele>
        <time>2020-09-06T07:55:38.346Z</time>
      </trkpt>
      <trkpt lat="48.4055" lon="7.30963">
        <ele>695</ele>
        <time>2020-09-06T07:55:39.346Z</time>
      </trkpt>
      <trkpt lat="48.4055" lon="7.30963">
        <ele>695</ele>
        <time>2020-09-06T07:55:40.346Z</time>
      </trkpt>
      <trkpt lat="48.40551" lon="7.30963">
        <ele>695</ele>
        <time>2020-09-06T07:55:41.346Z</time>
      </trkpt>
      <trkpt lat="48.40552" lon="7.30963">
        <ele>695</ele>
        <time>2020-09-06T07:55:42.345Z</time>
      </trkpt>
      <trkpt lat="48.40553" lon="7.30964">
        <ele>695</ele>
        <time>2020-09-06T07:55:43.346Z</time>
      </trkpt>
      <trkpt lat="48.40555" lon="7.30964">
        <ele>695</ele>
        <time>2020-09-06T07:55:44.346Z</time>
      </trkpt>
      <trkpt lat="48.40556" lon="7.30963">
        <ele>694</ele>
        <time>2020-09-06T07:55:45.346Z</time>
      </trkpt>
      <trkpt lat="48.40557" lon="7.30963">
        <ele>694</ele>
        <time>2020-09-06T07:55:46.346Z</time>
      </trkpt>
      <trkpt lat="48.40558" lon="7.30963">
        <ele>694</ele>
        <time>2020-09-06T07:55:47.346Z</time>
      </trkpt>
      <trkpt lat="48.4056" lon="7.30962">
        <ele>693</ele>
        <time>2020-09-06T07:55:48.346Z</time>
      </trkpt>
      <trkpt lat="48.40561" lon="7.30961">
        <ele>693</ele>
        <time>2020-09-06T07:55:49.346Z</time>
      </trkpt>
      <trkpt lat="48.40562" lon="7.3096">
        <ele>692</ele>
        <time>2020-09-06T07:55:50.346Z</time>
      </trkpt>
      <trkpt lat="48.40562" lon="7.30958">
        <ele>692</ele>
        <time>2020-09-06T07:55:51.346Z</time>
      </trkpt>
      <trkpt lat="48.40562" lon="7.30953">
        <ele>691</ele>
        <time>2020-09-06T07:55:52.346Z</time>
      </trkpt>
      <trkpt lat="48.40562" lon="7.3095">
        <ele>691</ele>
        <time>2020-09-06T07:55:53.345Z</time>
      </trkpt>
      <trkpt lat="48.40563" lon="7.30948">
        <ele>691</ele>
        <time>2020-09-06T07:55:54.346Z</time>
      </trkpt>
      <trkpt lat="48.40564" lon="7.30947">
        <ele>691</ele>
        <time>2020-09-06T07:55:55.346Z</time>
      </trkpt>
      <trkpt lat="48.40565" lon="7.30945">
        <ele>691</ele>
        <time>2020-09-06T07:55:56.346Z</time>
      </trkpt>
      <trkpt lat="48.40565" lon="7.30943">
        <ele>692</ele>
        <time>2020-09-06T07:55:57.346Z</time>
      </trkpt>
      <trkpt lat="48.40566" lon="7.30941">
        <ele>692</ele>
        <time>2020-09-06T07:55:58.346Z</time>
      </trkpt>
      <trkpt lat="48.40567" lon="7.3094">
        <ele>693</ele>
        <time>2020-09-06T07:55:59.346Z</time>
      </trkpt>
      <trkpt lat="48.40568" lon="7.30939">
        <ele>693</ele>
        <time>2020-09-06T07:56:00.346Z</time>
      </trkpt>
      <trkpt lat="48.40569" lon="7.30938">
        <ele>693</ele>
        <time>2020-09-06T07:56:01.345Z</time>
      </trkpt>
      <trkpt lat="48.4057" lon="7.30936">
        <ele>694</ele>
        <time>2020-09-06T07:56:02.346Z</time>
      </trkpt>
      <trkpt lat="48.4057" lon="7.30934">
        <ele>694</ele>
        <time>2020-09-06T07:56:03.345Z</time>
      </trkpt>
      <trkpt lat="48.4057" lon="7.30932">
        <ele>694</ele>
        <time>2020-09-06T07:56:04.346Z</time>
      </trkpt>
      <trkpt lat="48.40571" lon="7.3093">
        <ele>694</ele>
        <time>2020-09-06T07:56:05.346Z</time>
      </trkpt>
      <trkpt lat="48.40572" lon="7.30927">
        <ele>694</ele>
        <time>2020-09-06T07:56:06.346Z</time>
      </trkpt>
      <trkpt lat="48.40572" lon="7.30926">
        <ele>694</ele>
        <time>2020-09-06T07:56:07.345Z</time>
      </trkpt>
      <trkpt lat="48.40573" lon="7.30925">
        <ele>694</ele>
        <time>2020-09-06T07:56:08.346Z</time>
      </trkpt>
      <trkpt lat="48.40573" lon="7.30924">
        <ele>694</ele>
        <time>2020-09-06T07:56:09.345Z</time>
      </trkpt>
      <trkpt lat="48.40574" lon="7.30923">
        <ele>694</ele>
        <time>2020-09-06T07:56:10.346Z</time>
      </trkpt>
      <trkpt lat="48.40575" lon="7.30922">
        <ele>694</ele>
        <time>2020-09-06T07:56:11.345Z</time>
      </trkpt>
      <trkpt lat="48.40575" lon="7.30922">
        <ele>694</ele>
        <time>2020-09-06T07:56:12.346Z</time>
      </trkpt>
      <trkpt lat="48.40575" lon="7.3092">
        <ele>694</ele>
        <time>2020-09-06T07:56:13.346Z</time>
      </trkpt>
      <trkpt lat="48.40576" lon="7.30919">
        <ele>693</ele>
        <time>2020-09-06T07:56:14.346Z</time>
      </trkpt>
      <trkpt lat="48.40577" lon="7.30918">
        <ele>693</ele>
        <time>2020-09-06T07:56:15.346Z</time>
      </trkpt>
      <trkpt lat="48.40577" lon="7.30917">
        <ele>693</ele>
        <time>2020-09-06T07:56:16.346Z</time>
      </trkpt>
      <trkpt lat="48.40578" lon="7.30915">
        <ele>693</ele>
        <time>2020-09-06T07:56:17.346Z</time>
      </trkpt>
      <trkpt lat="48.40579" lon="7.30913">
        <ele>693</ele>
        <time>2020-09-06T07:56:18.346Z</time>
      </trkpt>
      <trkpt lat="48.4058" lon="7.30912">
        <ele>694</ele>
        <time>2020-09-06T07:56:19.346Z</time>
      </trkpt>
      <trkpt lat="48.4058" lon="7.30911">
        <ele>695</ele>
        <time>2020-09-06T07:56:20.346Z</time>
      </trkpt>
      <trkpt lat="48.40581" lon="7.3091">
        <ele>695</ele>
        <time>2020-09-06T07:56:21.346Z</time>
      </trkpt>
      <trkpt lat="48.40581" lon="7.30909">
        <ele>696</ele>
        <time>2020-09-06T07:56:22.346Z</time>
      </trkpt>
      <trkpt lat="48.40582" lon="7.30908">
        <ele>696</ele>
        <time>2020-09-06T07:56:23.345Z</time>
      </trkpt>
      <trkpt lat="48.40583" lon="7.30906">
        <ele>697</ele>
        <time>2020-09-06T07:56:24.346Z</time>
      </trkpt>
      <trkpt lat="48.40583" lon="7.30904">
        <ele>697</ele>
        <time>2020-09-06T07:56:25.346Z</time>
      </trkpt>
      <trkpt lat="48.40585" lon="7.30903">
        <ele>698</ele>
        <time>2020-09-06T07:56:26.345Z</time>
      </trkpt>
      <trkpt lat="48.40587" lon="7.30902">
        <ele>698</ele>
        <time>2020-09-06T07:56:27.345Z</time>
      </trkpt>
      <trkpt lat="48.40588" lon="7.30901">
        <ele>698</ele>
        <time>2020-09-06T07:56:28.346Z</time>
      </trkpt>
      <trkpt lat="48.40589" lon="7.30901">
        <ele>697</ele>
        <time>2020-09-06T07:56:29.346Z</time>
      </trkpt>
      <trkpt lat="48.4059" lon="7.309">
        <ele>697</ele>
        <time>2020-09-06T07:56:30.345Z</time>
      </trkpt>
      <trkpt lat="48.4059" lon="7.309">
        <ele>697</ele>
        <time>2020-09-06T07:56:31.346Z</time>
      </trkpt>
      <trkpt lat="48.4059" lon="7.30899">
        <ele>696</ele>
        <time>2020-09-06T07:56:32.346Z</time>
      </trkpt>
      <trkpt lat="48.4059" lon="7.30898">
        <ele>696</ele>
        <time>2020-09-06T07:56:33.345Z</time>
      </trkpt>
      <trkpt lat="48.40591" lon="7.30896">
        <ele>696</ele>
        <time>2020-09-06T07:56:34.345Z</time>
      </trkpt>
      <trkpt lat="48.40591" lon="7.30895">
        <ele>696</ele>
        <time>2020-09-06T07:56:35.346Z</time>
      </trkpt>
      <trkpt lat="48.40592" lon="7.30895">
        <ele>696</ele>
        <time>2020-09-06T07:56:36.346Z</time>
      </trkpt>
      <trkpt lat="48.40593" lon="7.30893">
        <ele>695</ele>
        <time>2020-09-06T07:56:37.346Z</time>
      </trkpt>
      <trkpt lat="48.40593" lon="7.30892">
        <ele>695</ele>
        <time>2020-09-06T07:56:38.346Z</time>
      </trkpt>
      <trkpt lat="48.40594" lon="7.3089">
        <ele>695</ele>
        <time>2020-09-06T07:56:39.346Z</time>
      </trkpt>
      <trkpt lat="48.40595" lon="7.30888">
        <ele>695</ele>
        <time>2020-09-06T07:56:40.346Z</time>
      </trkpt>
      <trkpt lat="48.40595" lon="7.30885">
        <ele>695</ele>
        <time>2020-09-06T07:56:41.346Z</time>
      </trkpt>
      <trkpt lat="48.40596" lon="7.30883">
        <ele>695</ele>
        <time>2020-09-06T07:56:42.346Z</time>
      </trkpt>
      <trkpt lat="48.40597" lon="7.30881">
        <ele>696</ele>
        <time>2020-09-06T07:56:43.345Z</time>
      </trkpt>
      <trkpt lat="48.40597" lon="7.30879">
        <ele>696</ele>
        <time>2020-09-06T07:56:44.346Z</time>
      </trkpt>
      <trkpt lat="48.40598" lon="7.30878">
        <ele>696</ele>
        <time>2020-09-06T07:56:45.346Z</time>
      </trkpt>
      <trkpt lat="48.40599" lon="7.30877">
        <ele>696</ele>
        <time>2020-09-06T07:56:46.345Z</time>
      </trkpt>
      <trkpt lat="48.406" lon="7.30876">
        <ele>696</ele>
        <time>2020-09-06T07:56:47.346Z</time>
      </trkpt>
      <trkpt lat="48.40602" lon="7.30876">
        <ele>696</ele>
        <time>2020-09-06T07:56:48.345Z</time>
      </trkpt>
      <trkpt lat="48.40603" lon="7.30874">
        <ele>697</ele>
        <time>2020-09-06T07:56:49.346Z</time>
      </trkpt>
      <trkpt lat="48.40603" lon="7.30873">
        <ele>697</ele>
        <time>2020-09-06T07:56:50.346Z</time>
      </trkpt>
      <trkpt lat="48.40604" lon="7.30872">
        <ele>697</ele>
        <time>2020-09-06T07:56:51.346Z</time>
      </trkpt>
      <trkpt lat="48.40605" lon="7.30871">
        <ele>698</ele>
        <time>2020-09-06T07:56:52.346Z</time>
      </trkpt>
      <trkpt lat="48.40606" lon="7.3087">
        <ele>698</ele>
        <time>2020-09-06T07:56:53.346Z</time>
      </trkpt>
      <trkpt lat="48.40607" lon="7.30868">
        <ele>699</ele>
        <time>2020-09-06T07:56:54.346Z</time>
      </trkpt>
      <trkpt lat="48.40608" lon="7.30868">
        <ele>700</ele>
        <time>2020-09-06T07:56:55.346Z</time>
      </trkpt>
      <trkpt lat="48.40609" lon="7.30868">
        <ele>700</ele>
        <time>2020-09-06T07:56:56.345Z</time>
      </trkpt>
      <trkpt lat="48.4061" lon="7.30869">
        <ele>700</ele>
        <time>2020-09-06T07:56:57.346Z</time>
      </trkpt>
      <trkpt lat="48.4061" lon="7.30868">
        <ele>699</ele>
        <time>2020-09-06T07:56:58.346Z</time>
      </trkpt>
      <trkpt lat="48.40611" lon="7.30866">
        <ele>698</ele>
        <time>2020-09-06T07:56:59.346Z</time>
      </trkpt>
      <trkpt lat="48.40611" lon="7.30864">
        <ele>697</ele>
        <time>2020-09-06T07:57:00.346Z</time>
      </trkpt>
      <trkpt lat="48.40612" lon="7.30863">
        <ele>697</ele>
        <time>2020-09-06T07:57:01.346Z</time>
      </trkpt>
      <trkpt lat="48.40613" lon="7.30863">
        <ele>696</ele>
        <time>2020-09-06T07:57:02.345Z</time>
      </trkpt>
      <trkpt lat="48.40615" lon="7.30862">
        <ele>696</ele>
        <time>2020-09-06T07:57:03.346Z</time>
      </trkpt>
      <trkpt lat="48.40616" lon="7.30862">
        <ele>696</ele>
        <time>2020-09-06T07:57:04.346Z</time>
      </trkpt>
      <trkpt lat="48.40618" lon="7.30862">
        <ele>697</ele>
        <time>2020-09-06T07:57:05.346Z</time>
      </trkpt>
      <trkpt lat="48.4062" lon="7.30861">
        <ele>697</ele>
        <time>2020-09-06T07:57:06.345Z</time>
      </trkpt>
      <trkpt lat="48.40621" lon="7.30861">
        <ele>698</ele>
        <time>2020-09-06T07:57:07.345Z</time>
      </trkpt>
      <trkpt lat="48.40622" lon="7.3086">
        <ele>698</ele>
        <time>2020-09-06T07:57:08.346Z</time>
      </trkpt>
      <trkpt lat="48.40623" lon="7.30859">
        <ele>699</ele>
        <time>2020-09-06T07:57:09.346Z</time>
      </trkpt>
      <trkpt lat="48.40624" lon="7.30858">
        <ele>699</ele>
        <time>2020-09-06T07:57:10.346Z</time>
      </trkpt>
      <trkpt lat="48.40625" lon="7.30857">
        <ele>699</ele>
        <time>2020-09-06T07:57:11.346Z</time>
      </trkpt>
      <trkpt lat="48.40626" lon="7.30857">
        <ele>699</ele>
        <time>2020-09-06T07:57:12.345Z</time>
      </trkpt>
      <trkpt lat="48.40627" lon="7.30857">
        <ele>699</ele>
        <time>2020-09-06T07:57:13.345Z</time>
      </trkpt>
      <trkpt lat="48.40628" lon="7.30856">
        <ele>699</ele>
        <time>2020-09-06T07:57:14.346Z</time>
      </trkpt>
      <trkpt lat="48.4063" lon="7.30856">
        <ele>699</ele>
        <time>2020-09-06T07:57:15.346Z</time>
      </trkpt>
      <trkpt lat="48.40631" lon="7.30856">
        <ele>698</ele>
        <time>2020-09-06T07:57:16.346Z</time>
      </trkpt>
      <trkpt lat="48.40632" lon="7.30856">
        <ele>698</ele>
        <time>2020-09-06T07:57:17.345Z</time>
      </trkpt>
      <trkpt lat="48.40634" lon="7.30856">
        <ele>698</ele>
        <time>2020-09-06T07:57:18.346Z</time>
      </trkpt>
      <trkpt lat="48.40635" lon="7.30856">
        <ele>698</ele>
        <time>2020-09-06T07:57:19.345Z</time>
      </trkpt>
      <trkpt lat="48.40636" lon="7.30856">
        <ele>698</ele>
        <time>2020-09-06T07:57:20.346Z</time>
      </trkpt>
      <trkpt lat="48.40637" lon="7.30856">
        <ele>698</ele>
        <time>2020-09-06T07:57:21.346Z</time>
      </trkpt>
      <trkpt lat="48.40638" lon="7.30855">
        <ele>698</ele>
        <time>2020-09-06T07:57:22.346Z</time>
      </trkpt>
      <trkpt lat="48.40638" lon="7.30855">
        <ele>698</ele>
        <time>2020-09-06T07:57:23.346Z</time>
      </trkpt>
      <trkpt lat="48.40639" lon="7.30854">
        <ele>698</ele>
        <time>2020-09-06T07:57:24.346Z</time>
      </trkpt>
      <trkpt lat="48.4064" lon="7.30853">
        <ele>698</ele>
        <time>2020-09-06T07:57:25.346Z</time>
      </trkpt>
      <trkpt lat="48.40641" lon="7.30852">
        <ele>698</ele>
        <time>2020-09-06T07:57:26.346Z</time>
      </trkpt>
      <trkpt lat="48.40642" lon="7.30851">
        <ele>698</ele>
        <time>2020-09-06T07:57:27.346Z</time>
      </trkpt>
      <trkpt lat="48.40643" lon="7.3085">
        <ele>698</ele>
        <time>2020-09-06T07:57:28.346Z</time>
      </trkpt>
      <trkpt lat="48.40645" lon="7.3085">
        <ele>698</ele>
        <time>2020-09-06T07:57:29.345Z</time>
      </trkpt>
      <trkpt lat="48.40647" lon="7.3085">
        <ele>698</ele>
        <time>2020-09-06T07:57:30.345Z</time>
      </trkpt>
      <trkpt lat="48.40648" lon="7.30849">
        <ele>699</ele>
        <time>2020-09-06T07:57:31.346Z</time>
      </trkpt>
      <trkpt lat="48.40648" lon="7.30847">
        <ele>699</ele>
        <time>2020-09-06T07:57:32.346Z</time>
      </trkpt>
      <trkpt lat="48.4065" lon="7.30846">
        <ele>701</ele>
        <time>2020-09-06T07:57:33.345Z</time>
      </trkpt>
      <trkpt lat="48.40651" lon="7.30845">
        <ele>702</ele>
        <time>2020-09-06T07:57:34.346Z</time>
      </trkpt>
      <trkpt lat="48.40652" lon="7.30843">
        <ele>703</ele>
        <time>2020-09-06T07:57:35.346Z</time>
      </trkpt>
      <trkpt lat="48.40652" lon="7.30841">
        <ele>705</ele>
        <time>2020-09-06T07:57:36.345Z</time>
      </trkpt>
      <trkpt lat="48.40653" lon="7.3084">
        <ele>706</ele>
        <time>2020-09-06T07:57:37.346Z</time>
      </trkpt>
      <trkpt lat="48.40654" lon="7.3084">
        <ele>707</ele>
        <time>2020-09-06T07:57:38.346Z</time>
      </trkpt>
      <trkpt lat="48.40656" lon="7.30839">
        <ele>708</ele>
        <time>2020-09-06T07:57:39.346Z</time>
      </trkpt>
      <trkpt lat="48.40657" lon="7.30838">
        <ele>709</ele>
        <time>2020-09-06T07:57:40.346Z</time>
      </trkpt>
      <trkpt lat="48.40659" lon="7.30838">
        <ele>710</ele>
        <time>2020-09-06T07:57:41.346Z</time>
      </trkpt>
      <trkpt lat="48.4066" lon="7.30838">
        <ele>711</ele>
        <time>2020-09-06T07:57:42.345Z</time>
      </trkpt>
      <trkpt lat="48.40661" lon="7.30838">
        <ele>712</ele>
        <time>2020-09-06T07:57:43.346Z</time>
      </trkpt>
      <trkpt lat="48.40662" lon="7.30837">
        <ele>713</ele>
        <time>2020-09-06T07:57:44.346Z</time>
      </trkpt>
      <trkpt lat="48.40663" lon="7.30837">
        <ele>714</ele>
        <time>2020-09-06T07:57:45.346Z</time>
      </trkpt>
      <trkpt lat="48.40665" lon="7.30837">
        <ele>715</ele>
        <time>2020-09-06T07:57:46.345Z</time>
      </trkpt>
      <trkpt lat="48.40666" lon="7.30837">
        <ele>715</ele>
        <time>2020-09-06T07:57:47.346Z</time>
      </trkpt>
      <trkpt lat="48.40667" lon="7.30837">
        <ele>716</ele>
        <time>2020-09-06T07:57:48.346Z</time>
      </trkpt>
      <trkpt lat="48.40669" lon="7.30836">
        <ele>717</ele>
        <time>2020-09-06T07:57:49.345Z</time>
      </trkpt>
      <trkpt lat="48.4067" lon="7.30836">
        <ele>718</ele>
        <time>2020-09-06T07:57:50.346Z</time>
      </trkpt>
      <trkpt lat="48.40672" lon="7.30836">
        <ele>719</ele>
        <time>2020-09-06T07:57:51.346Z</time>
      </trkpt>
      <trkpt lat="48.40673" lon="7.30834">
        <ele>720</ele>
        <time>2020-09-06T07:57:52.346Z</time>
      </trkpt>
      <trkpt lat="48.40674" lon="7.30833">
        <ele>720</ele>
        <time>2020-09-06T07:57:53.346Z</time>
      </trkpt>
      <trkpt lat="48.40675" lon="7.30832">
        <ele>721</ele>
        <time>2020-09-06T07:57:54.346Z</time>
      </trkpt>
      <trkpt lat="48.40676" lon="7.30831">
        <ele>722</ele>
        <time>2020-09-06T07:57:55.346Z</time>
      </trkpt>
      <trkpt lat="48.40676" lon="7.3083">
        <ele>722</ele>
        <time>2020-09-06T07:57:56.346Z</time>
      </trkpt>
      <trkpt lat="48.40677" lon="7.30828">
        <ele>722</ele>
        <time>2020-09-06T07:57:57.346Z</time>
      </trkpt>
      <trkpt lat="48.40678" lon="7.30828">
        <ele>723</ele>
        <time>2020-09-06T07:57:58.345Z</time>
      </trkpt>
      <trkpt lat="48.40679" lon="7.30827">
        <ele>723</ele>
        <time>2020-09-06T07:57:59.346Z</time>
      </trkpt>
      <trkpt lat="48.4068" lon="7.30827">
        <ele>723</ele>
        <time>2020-09-06T07:58:00.346Z</time>
      </trkpt>
      <trkpt lat="48.40681" lon="7.30826">
        <ele>723</ele>
        <time>2020-09-06T07:58:01.346Z</time>
      </trkpt>
      <trkpt lat="48.40682" lon="7.30826">
        <ele>723</ele>
        <time>2020-09-06T07:58:02.345Z</time>
      </trkpt>
      <trkpt lat="48.40683" lon="7.30825">
        <ele>723</ele>
        <time>2020-09-06T07:58:03.345Z</time>
      </trkpt>
      <trkpt lat="48.40684" lon="7.30824">
        <ele>723</ele>
        <time>2020-09-06T07:58:04.346Z</time>
      </trkpt>
      <trkpt lat="48.40685" lon="7.30824">
        <ele>723</ele>
        <time>2020-09-06T07:58:05.346Z</time>
      </trkpt>
      <trkpt lat="48.40686" lon="7.30824">
        <ele>724</ele>
        <time>2020-09-06T07:58:06.346Z</time>
      </trkpt>
      <trkpt lat="48.40687" lon="7.30823">
        <ele>724</ele>
        <time>2020-09-06T07:58:07.345Z</time>
      </trkpt>
      <trkpt lat="48.40688" lon="7.30823">
        <ele>724</ele>
        <time>2020-09-06T07:58:08.346Z</time>
      </trkpt>
      <trkpt lat="48.40689" lon="7.30822">
        <ele>724</ele>
        <time>2020-09-06T07:58:09.346Z</time>
      </trkpt>
      <trkpt lat="48.4069" lon="7.30823">
        <ele>724</ele>
        <time>2020-09-06T07:58:10.346Z</time>
      </trkpt>
      <trkpt lat="48.40691" lon="7.30823">
        <ele>725</ele>
        <time>2020-09-06T07:58:11.345Z</time>
      </trkpt>
      <trkpt lat="48.40692" lon="7.30824">
        <ele>725</ele>
        <time>2020-09-06T07:58:12.346Z</time>
      </trkpt>
      <trkpt lat="48.40693" lon="7.30824">
        <ele>725</ele>
        <time>2020-09-06T07:58:13.346Z</time>
      </trkpt>
      <trkpt lat="48.40694" lon="7.30824">
        <ele>725</ele>
        <time>2020-09-06T07:58:14.346Z</time>
      </trkpt>
      <trkpt lat="48.40695" lon="7.30824">
        <ele>725</ele>
        <time>2020-09-06T07:58:15.345Z</time>
      </trkpt>
      <trkpt lat="48.40696" lon="7.30825">
        <ele>725</ele>
        <time>2020-09-06T07:58:16.345Z</time>
      </trkpt>
      <trkpt lat="48.40696" lon="7.30825">
        <ele>725</ele>
        <time>2020-09-06T07:58:17.346Z</time>
      </trkpt>
      <trkpt lat="48.40697" lon="7.30826">
        <ele>725</ele>
        <time>2020-09-06T07:58:18.346Z</time>
      </trkpt>
      <trkpt lat="48.40698" lon="7.30826">
        <ele>726</ele>
        <time>2020-09-06T07:58:19.346Z</time>
      </trkpt>
      <trkpt lat="48.40699" lon="7.30827">
        <ele>727</ele>
        <time>2020-09-06T07:58:20.346Z</time>
      </trkpt>
      <trkpt lat="48.407" lon="7.30827">
        <ele>727</ele>
        <time>2020-09-06T07:58:21.346Z</time>
      </trkpt>
      <trkpt lat="48.40702" lon="7.30826">
        <ele>727</ele>
        <time>2020-09-06T07:58:22.346Z</time>
      </trkpt>
      <trkpt lat="48.40704" lon="7.30825">
        <ele>727</ele>
        <time>2020-09-06T07:58:23.345Z</time>
      </trkpt>
      <trkpt lat="48.40704" lon="7.30823">
        <ele>728</ele>
        <time>2020-09-06T07:58:24.346Z</time>
      </trkpt>
      <trkpt lat="48.40706" lon="7.30822">
        <ele>728</ele>
        <time>2020-09-06T07:58:25.345Z</time>
      </trkpt>
      <trkpt lat="48.40706" lon="7.30822">
        <ele>728</ele>
        <time>2020-09-06T07:58:26.346Z</time>
      </trkpt>
      <trkpt lat="48.40707" lon="7.30822">
        <ele>728</ele>
        <time>2020-09-06T07:58:27.345Z</time>
      </trkpt>
      <trkpt lat="48.40708" lon="7.30821">
        <ele>729</ele>
        <time>2020-09-06T07:58:28.345Z</time>
      </trkpt>
      <trkpt lat="48.40709" lon="7.3082">
        <ele>729</ele>
        <time>2020-09-06T07:58:29.346Z</time>
      </trkpt>
      <trkpt lat="48.4071" lon="7.30819">
        <ele>729</ele>
        <time>2020-09-06T07:58:30.346Z</time>
      </trkpt>
      <trkpt lat="48.40711" lon="7.30817">
        <ele>729</ele>
        <time>2020-09-06T07:58:31.346Z</time>
      </trkpt>
      <trkpt lat="48.40712" lon="7.30817">
        <ele>729</ele>
        <time>2020-09-06T07:58:32.346Z</time>
      </trkpt>
      <trkpt lat="48.40713" lon="7.30815">
        <ele>729</ele>
        <time>2020-09-06T07:58:33.346Z</time>
      </trkpt>
      <trkpt lat="48.40713" lon="7.30814">
        <ele>729</ele>
        <time>2020-09-06T07:58:34.345Z</time>
      </trkpt>
      <trkpt lat="48.40713" lon="7.30817">
        <ele>728</ele>
        <time>2020-09-06T07:58:35.346Z</time>
      </trkpt>
      <trkpt lat="48.40713" lon="7.30816">
        <ele>727</ele>
        <time>2020-09-06T07:58:36.347Z</time>
      </trkpt>
      <trkpt lat="48.40713" lon="7.30815">
        <ele>727</ele>
        <time>2020-09-06T07:58:37.346Z</time>
      </trkpt>
      <trkpt lat="48.40714" lon="7.30815">
        <ele>727</ele>
        <time>2020-09-06T07:58:38.346Z</time>
      </trkpt>
      <trkpt lat="48.40714" lon="7.30814">
        <ele>726</ele>
        <time>2020-09-06T07:58:39.347Z</time>
      </trkpt>
      <trkpt lat="48.40714" lon="7.30814">
        <ele>726</ele>
        <time>2020-09-06T07:58:40.347Z</time>
      </trkpt>
      <trkpt lat="48.40714" lon="7.30814">
        <ele>726</ele>
        <time>2020-09-06T07:58:41.346Z</time>
      </trkpt>
      <trkpt lat="48.40714" lon="7.30812">
        <ele>725</ele>
        <time>2020-09-06T07:58:42.346Z</time>
      </trkpt>
      <trkpt lat="48.40714" lon="7.30811">
        <ele>724</ele>
        <time>2020-09-06T07:58:43.346Z</time>
      </trkpt>
      <trkpt lat="48.40715" lon="7.30811">
        <ele>724</ele>
        <time>2020-09-06T07:58:44.346Z</time>
      </trkpt>
      <trkpt lat="48.40715" lon="7.3082">
        <ele>720</ele>
        <time>2020-09-06T07:58:45.348Z</time>
      </trkpt>
      <trkpt lat="48.40715" lon="7.30825">
        <ele>720</ele>
        <time>2020-09-06T07:58:46.347Z</time>
      </trkpt>
      <trkpt lat="48.40715" lon="7.30826">
        <ele>720</ele>
        <time>2020-09-06T07:58:47.347Z</time>
      </trkpt>
      <trkpt lat="48.40715" lon="7.30827">
        <ele>719</ele>
        <time>2020-09-06T07:58:48.347Z</time>
      </trkpt>
      <trkpt lat="48.40715" lon="7.30827">
        <ele>719</ele>
        <time>2020-09-06T07:58:49.347Z</time>
      </trkpt>
      <trkpt lat="48.40718" lon="7.30827">
        <ele>710</ele>
        <time>2020-09-06T07:58:50.349Z</time>
      </trkpt>
      <trkpt lat="48.40716" lon="7.30829">
        <ele>705</ele>
        <time>2020-09-06T07:58:51.348Z</time>
      </trkpt>
      <trkpt lat="48.40715" lon="7.30836">
        <ele>705</ele>
        <time>2020-09-06T07:58:52.349Z</time>
      </trkpt>
      <trkpt lat="48.40719" lon="7.30836">
        <ele>705</ele>
        <time>2020-09-06T07:59:01.348Z</time>
      </trkpt>
      <trkpt lat="48.40714" lon="7.30842">
        <ele>706</ele>
        <time>2020-09-06T07:59:02.348Z</time>
      </trkpt>
      <trkpt lat="48.40713" lon="7.30839">
        <ele>707</ele>
        <time>2020-09-06T07:59:03.349Z</time>
      </trkpt>
      <trkpt lat="48.4071" lon="7.30838">
        <ele>707</ele>
        <time>2020-09-06T07:59:04.349Z</time>
      </trkpt>
      <trkpt lat="48.4071" lon="7.30836">
        <ele>708</ele>
        <time>2020-09-06T07:59:05.349Z</time>
      </trkpt>
      <trkpt lat="48.4071" lon="7.30839">
        <ele>708</ele>
        <time>2020-09-06T07:59:06.349Z</time>
      </trkpt>
      <trkpt lat="48.40712" lon="7.30841">
        <ele>708</ele>
        <time>2020-09-06T07:59:07.348Z</time>
      </trkpt>
      <trkpt lat="48.40713" lon="7.30842">
        <ele>708</ele>
        <time>2020-09-06T07:59:08.349Z</time>
      </trkpt>
      <trkpt lat="48.40713" lon="7.30841">
        <ele>709</ele>
        <time>2020-09-06T07:59:09.349Z</time>
      </trkpt>
      <trkpt lat="48.40713" lon="7.30841">
        <ele>709</ele>
        <time>2020-09-06T07:59:10.349Z</time>
      </trkpt>
      <trkpt lat="48.40712" lon="7.30841">
        <ele>709</ele>
        <time>2020-09-06T07:59:11.348Z</time>
      </trkpt>
      <trkpt lat="48.40712" lon="7.30841">
        <ele>709</ele>
        <time>2020-09-06T07:59:12.349Z</time>
      </trkpt>
      <trkpt lat="48.40712" lon="7.30841">
        <ele>709</ele>
        <time>2020-09-06T07:59:13.349Z</time>
      </trkpt>
      <trkpt lat="48.40712" lon="7.30841">
        <ele>708</ele>
        <time>2020-09-06T07:59:14.348Z</time>
      </trkpt>
      <trkpt lat="48.40712" lon="7.30841">
        <ele>707</ele>
        <time>2020-09-06T07:59:15.349Z</time>
      </trkpt>
      <trkpt lat="48.40711" lon="7.30841">
        <ele>706</ele>
        <time>2020-09-06T07:59:16.349Z</time>
      </trkpt>
      <trkpt lat="48.4071" lon="7.30841">
        <ele>705</ele>
        <time>2020-09-06T07:59:17.349Z</time>
      </trkpt>
      <trkpt lat="48.4071" lon="7.30841">
        <ele>704</ele>
        <time>2020-09-06T07:59:18.349Z</time>
      </trkpt>
      <trkpt lat="48.4071" lon="7.30842">
        <ele>703</ele>
        <time>2020-09-06T07:59:19.349Z</time>
      </trkpt>
      <trkpt lat="48.4071" lon="7.30842">
        <ele>701</ele>
        <time>2020-09-06T07:59:20.349Z</time>
      </trkpt>
      <trkpt lat="48.40712" lon="7.3084">
        <ele>700</ele>
        <time>2020-09-06T07:59:21.349Z</time>
      </trkpt>
      <trkpt lat="48.40712" lon="7.3084">
        <ele>699</ele>
        <time>2020-09-06T07:59:22.349Z</time>
      </trkpt>
      <trkpt lat="48.40713" lon="7.3084">
        <ele>698</ele>
        <time>2020-09-06T07:59:23.349Z</time>
      </trkpt>
      <trkpt lat="48.40713" lon="7.3084">
        <ele>698</ele>
        <time>2020-09-06T07:59:24.348Z</time>
      </trkpt>
      <trkpt lat="48.40714" lon="7.30842">
        <ele>698</ele>
        <time>2020-09-06T07:59:25.349Z</time>
      </trkpt>
      <trkpt lat="48.40714" lon="7.30842">
        <ele>698</ele>
        <time>2020-09-06T07:59:26.348Z</time>
      </trkpt>
      <trkpt lat="48.40718" lon="7.3083">
        <ele>701</ele>
        <time>2020-09-06T07:59:27.349Z</time>
      </trkpt>
      <trkpt lat="48.40719" lon="7.3083">
        <ele>701</ele>
        <time>2020-09-06T07:59:28.348Z</time>
      </trkpt>
      <trkpt lat="48.4072" lon="7.3083">
        <ele>701</ele>
        <time>2020-09-06T07:59:29.348Z</time>
      </trkpt>
      <trkpt lat="48.40722" lon="7.30829">
        <ele>701</ele>
        <time>2020-09-06T07:59:30.349Z</time>
      </trkpt>
      <trkpt lat="48.40724" lon="7.30829">
        <ele>701</ele>
        <time>2020-09-06T07:59:31.348Z</time>
      </trkpt>
      <trkpt lat="48.40725" lon="7.30829">
        <ele>701</ele>
        <time>2020-09-06T07:59:32.348Z</time>
      </trkpt>
      <trkpt lat="48.40727" lon="7.30828">
        <ele>701</ele>
        <time>2020-09-06T07:59:33.348Z</time>
      </trkpt>
      <trkpt lat="48.40729" lon="7.30828">
        <ele>701</ele>
        <time>2020-09-06T07:59:34.348Z</time>
      </trkpt>
      <trkpt lat="48.4073" lon="7.30827">
        <ele>701</ele>
        <time>2020-09-06T07:59:35.349Z</time>
      </trkpt>
      <trkpt lat="48.40731" lon="7.30826">
        <ele>701</ele>
        <time>2020-09-06T07:59:36.348Z</time>
      </trkpt>
      <trkpt lat="48.40732" lon="7.30825">
        <ele>702</ele>
        <time>2020-09-06T07:59:37.348Z</time>
      </trkpt>
      <trkpt lat="48.40733" lon="7.30824">
        <ele>702</ele>
        <time>2020-09-06T07:59:38.349Z</time>
      </trkpt>
      <trkpt lat="48.40733" lon="7.30823">
        <ele>703</ele>
        <time>2020-09-06T07:59:39.349Z</time>
      </trkpt>
      <trkpt lat="48.40734" lon="7.30822">
        <ele>703</ele>
        <time>2020-09-06T07:59:40.349Z</time>
      </trkpt>
      <trkpt lat="48.40735" lon="7.30822">
        <ele>704</ele>
        <time>2020-09-06T07:59:41.349Z</time>
      </trkpt>
      <trkpt lat="48.40736" lon="7.30821">
        <ele>704</ele>
        <time>2020-09-06T07:59:42.348Z</time>
      </trkpt>
      <trkpt lat="48.40738" lon="7.3082">
        <ele>705</ele>
        <time>2020-09-06T07:59:43.349Z</time>
      </trkpt>
      <trkpt lat="48.4074" lon="7.3082">
        <ele>705</ele>
        <time>2020-09-06T07:59:44.349Z</time>
      </trkpt>
      <trkpt lat="48.40743" lon="7.3082">
        <ele>705</ele>
        <time>2020-09-06T07:59:45.349Z</time>
      </trkpt>
      <trkpt lat="48.40745" lon="7.3082">
        <ele>705</ele>
        <time>2020-09-06T07:59:46.348Z</time>
      </trkpt>
      <trkpt lat="48.40746" lon="7.3082">
        <ele>705</ele>
        <time>2020-09-06T07:59:47.349Z</time>
      </trkpt>
      <trkpt lat="48.40747" lon="7.30819">
        <ele>705</ele>
        <time>2020-09-06T07:59:48.348Z</time>
      </trkpt>
      <trkpt lat="48.40747" lon="7.30819">
        <ele>705</ele>
        <time>2020-09-06T07:59:49.349Z</time>
      </trkpt>
      <trkpt lat="48.40748" lon="7.30818">
        <ele>705</ele>
        <time>2020-09-06T07:59:50.349Z</time>
      </trkpt>
      <trkpt lat="48.40748" lon="7.30818">
        <ele>705</ele>
        <time>2020-09-06T07:59:51.349Z</time>
      </trkpt>
      <trkpt lat="48.40749" lon="7.30817">
        <ele>705</ele>
        <time>2020-09-06T07:59:52.349Z</time>
      </trkpt>
      <trkpt lat="48.4075" lon="7.30817">
        <ele>706</ele>
        <time>2020-09-06T07:59:53.349Z</time>
      </trkpt>
      <trkpt lat="48.40751" lon="7.30816">
        <ele>706</ele>
        <time>2020-09-06T07:59:54.349Z</time>
      </trkpt>
      <trkpt lat="48.40751" lon="7.30816">
        <ele>706</ele>
        <time>2020-09-06T07:59:55.349Z</time>
      </trkpt>
      <trkpt lat="48.40756" lon="7.30813">
        <ele>706</ele>
        <time>2020-09-06T07:59:56.349Z</time>
      </trkpt>
      <trkpt lat="48.40757" lon="7.30812">
        <ele>706</ele>
        <time>2020-09-06T07:59:57.349Z</time>
      </trkpt>
      <trkpt lat="48.40758" lon="7.30812">
        <ele>707</ele>
        <time>2020-09-06T07:59:58.349Z</time>
      </trkpt>
      <trkpt lat="48.40759" lon="7.30811">
        <ele>707</ele>
        <time>2020-09-06T07:59:59.349Z</time>
      </trkpt>
      <trkpt lat="48.4076" lon="7.3081">
        <ele>708</ele>
        <time>2020-09-06T08:00:00.349Z</time>
      </trkpt>
      <trkpt lat="48.40762" lon="7.30809">
        <ele>708</ele>
        <time>2020-09-06T08:00:01.350Z</time>
      </trkpt>
      <trkpt lat="48.40763" lon="7.30809">
        <ele>709</ele>
        <time>2020-09-06T08:00:02.350Z</time>
      </trkpt>
      <trkpt lat="48.40764" lon="7.30808">
        <ele>710</ele>
        <time>2020-09-06T08:00:03.349Z</time>
      </trkpt>
      <trkpt lat="48.40765" lon="7.30807">
        <ele>710</ele>
        <time>2020-09-06T08:00:04.350Z</time>
      </trkpt>
      <trkpt lat="48.40766" lon="7.30806">
        <ele>711</ele>
        <time>2020-09-06T08:00:05.349Z</time>
      </trkpt>
      <trkpt lat="48.40768" lon="7.30805">
        <ele>711</ele>
        <time>2020-09-06T08:00:06.350Z</time>
      </trkpt>
      <trkpt lat="48.4077" lon="7.30803">
        <ele>712</ele>
        <time>2020-09-06T08:00:07.351Z</time>
      </trkpt>
      <trkpt lat="48.4077" lon="7.30803">
        <ele>713</ele>
        <time>2020-09-06T08:00:08.350Z</time>
      </trkpt>
      <trkpt lat="48.4077" lon="7.30803">
        <ele>713</ele>
        <time>2020-09-06T08:00:09.350Z</time>
      </trkpt>
      <trkpt lat="48.40771" lon="7.30803">
        <ele>714</ele>
        <time>2020-09-06T08:00:10.351Z</time>
      </trkpt>
      <trkpt lat="48.40772" lon="7.30803">
        <ele>714</ele>
        <time>2020-09-06T08:00:11.351Z</time>
      </trkpt>
      <trkpt lat="48.40774" lon="7.30803">
        <ele>715</ele>
        <time>2020-09-06T08:00:12.351Z</time>
      </trkpt>
      <trkpt lat="48.40775" lon="7.30803">
        <ele>715</ele>
        <time>2020-09-06T08:00:13.351Z</time>
      </trkpt>
      <trkpt lat="48.40776" lon="7.30802">
        <ele>715</ele>
        <time>2020-09-06T08:00:14.351Z</time>
      </trkpt>
      <trkpt lat="48.40778" lon="7.30802">
        <ele>715</ele>
        <time>2020-09-06T08:00:15.351Z</time>
      </trkpt>
      <trkpt lat="48.40779" lon="7.30801">
        <ele>716</ele>
        <time>2020-09-06T08:00:16.350Z</time>
      </trkpt>
      <trkpt lat="48.4078" lon="7.30801">
        <ele>716</ele>
        <time>2020-09-06T08:00:17.351Z</time>
      </trkpt>
      <trkpt lat="48.40783" lon="7.30801">
        <ele>716</ele>
        <time>2020-09-06T08:00:18.351Z</time>
      </trkpt>
      <trkpt lat="48.40783" lon="7.308">
        <ele>716</ele>
        <time>2020-09-06T08:00:19.351Z</time>
      </trkpt>
      <trkpt lat="48.40784" lon="7.308">
        <ele>716</ele>
        <time>2020-09-06T08:00:20.350Z</time>
      </trkpt>
      <trkpt lat="48.40786" lon="7.30799">
        <ele>716</ele>
        <time>2020-09-06T08:00:21.351Z</time>
      </trkpt>
      <trkpt lat="48.40787" lon="7.30797">
        <ele>717</ele>
        <time>2020-09-06T08:00:22.351Z</time>
      </trkpt>
      <trkpt lat="48.40788" lon="7.30796">
        <ele>717</ele>
        <time>2020-09-06T08:00:23.351Z</time>
      </trkpt>
      <trkpt lat="48.4079" lon="7.30795">
        <ele>717</ele>
        <time>2020-09-06T08:00:24.351Z</time>
      </trkpt>
      <trkpt lat="48.4079" lon="7.30795">
        <ele>717</ele>
        <time>2020-09-06T08:00:25.351Z</time>
      </trkpt>
      <trkpt lat="48.40791" lon="7.30795">
        <ele>717</ele>
        <time>2020-09-06T08:00:26.351Z</time>
      </trkpt>
      <trkpt lat="48.40792" lon="7.30795">
        <ele>717</ele>
        <time>2020-09-06T08:00:27.350Z</time>
      </trkpt>
      <trkpt lat="48.40793" lon="7.30795">
        <ele>717</ele>
        <time>2020-09-06T08:00:28.351Z</time>
      </trkpt>
      <trkpt lat="48.40794" lon="7.30795">
        <ele>717</ele>
        <time>2020-09-06T08:00:29.350Z</time>
      </trkpt>
      <trkpt lat="48.40795" lon="7.30796">
        <ele>716</ele>
        <time>2020-09-06T08:00:30.350Z</time>
      </trkpt>
      <trkpt lat="48.40796" lon="7.30796">
        <ele>716</ele>
        <time>2020-09-06T08:00:31.351Z</time>
      </trkpt>
      <trkpt lat="48.40797" lon="7.30795">
        <ele>716</ele>
        <time>2020-09-06T08:00:32.351Z</time>
      </trkpt>
      <trkpt lat="48.40798" lon="7.30794">
        <ele>716</ele>
        <time>2020-09-06T08:00:33.351Z</time>
      </trkpt>
      <trkpt lat="48.40799" lon="7.30794">
        <ele>716</ele>
        <time>2020-09-06T08:00:34.350Z</time>
      </trkpt>
      <trkpt lat="48.408" lon="7.30793">
        <ele>716</ele>
        <time>2020-09-06T08:00:35.351Z</time>
      </trkpt>
      <trkpt lat="48.40801" lon="7.30793">
        <ele>716</ele>
        <time>2020-09-06T08:00:36.350Z</time>
      </trkpt>
      <trkpt lat="48.40802" lon="7.30792">
        <ele>716</ele>
        <time>2020-09-06T08:00:37.350Z</time>
      </trkpt>
      <trkpt lat="48.40803" lon="7.3079">
        <ele>716</ele>
        <time>2020-09-06T08:00:38.351Z</time>
      </trkpt>
      <trkpt lat="48.40805" lon="7.30789">
        <ele>716</ele>
        <time>2020-09-06T08:00:39.350Z</time>
      </trkpt>
      <trkpt lat="48.40807" lon="7.30788">
        <ele>716</ele>
        <time>2020-09-06T08:00:40.351Z</time>
      </trkpt>
      <trkpt lat="48.40808" lon="7.30787">
        <ele>716</ele>
        <time>2020-09-06T08:00:41.351Z</time>
      </trkpt>
      <trkpt lat="48.40809" lon="7.30786">
        <ele>717</ele>
        <time>2020-09-06T08:00:42.350Z</time>
      </trkpt>
      <trkpt lat="48.4081" lon="7.30786">
        <ele>717</ele>
        <time>2020-09-06T08:00:43.351Z</time>
      </trkpt>
      <trkpt lat="48.40811" lon="7.30786">
        <ele>717</ele>
        <time>2020-09-06T08:00:44.351Z</time>
      </trkpt>
      <trkpt lat="48.40813" lon="7.30784">
        <ele>719</ele>
        <time>2020-09-06T08:00:45.351Z</time>
      </trkpt>
      <trkpt lat="48.40813" lon="7.30785">
        <ele>720</ele>
        <time>2020-09-06T08:00:46.351Z</time>
      </trkpt>
      <trkpt lat="48.40813" lon="7.30785">
        <ele>720</ele>
        <time>2020-09-06T08:00:47.351Z</time>
      </trkpt>
      <trkpt lat="48.40813" lon="7.30785">
        <ele>721</ele>
        <time>2020-09-06T08:00:48.352Z</time>
      </trkpt>
      <trkpt lat="48.40814" lon="7.30786">
        <ele>722</ele>
        <time>2020-09-06T08:00:49.352Z</time>
      </trkpt>
      <trkpt lat="48.40814" lon="7.30785">
        <ele>722</ele>
        <time>2020-09-06T08:00:50.351Z</time>
      </trkpt>
      <trkpt lat="48.40815" lon="7.30785">
        <ele>722</ele>
        <time>2020-09-06T08:00:51.352Z</time>
      </trkpt>
      <trkpt lat="48.40815" lon="7.30785">
        <ele>723</ele>
        <time>2020-09-06T08:00:52.351Z</time>
      </trkpt>
      <trkpt lat="48.40818" lon="7.30788">
        <ele>723</ele>
        <time>2020-09-06T08:00:53.352Z</time>
      </trkpt>
      <trkpt lat="48.40818" lon="7.30788">
        <ele>723</ele>
        <time>2020-09-06T08:00:54.351Z</time>
      </trkpt>
      <trkpt lat="48.40819" lon="7.30787">
        <ele>722</ele>
        <time>2020-09-06T08:00:55.351Z</time>
      </trkpt>
      <trkpt lat="48.4082" lon="7.30787">
        <ele>722</ele>
        <time>2020-09-06T08:00:56.351Z</time>
      </trkpt>
      <trkpt lat="48.4082" lon="7.30786">
        <ele>721</ele>
        <time>2020-09-06T08:00:57.352Z</time>
      </trkpt>
      <trkpt lat="48.40821" lon="7.30785">
        <ele>721</ele>
        <time>2020-09-06T08:00:58.351Z</time>
      </trkpt>
      <trkpt lat="48.40821" lon="7.30785">
        <ele>720</ele>
        <time>2020-09-06T08:00:59.352Z</time>
      </trkpt>
      <trkpt lat="48.40822" lon="7.30784">
        <ele>720</ele>
        <time>2020-09-06T08:01:00.351Z</time>
      </trkpt>
      <trkpt lat="48.40823" lon="7.30783">
        <ele>720</ele>
        <time>2020-09-06T08:01:01.351Z</time>
      </trkpt>
      <trkpt lat="48.40824" lon="7.30782">
        <ele>720</ele>
        <time>2020-09-06T08:01:02.351Z</time>
      </trkpt>
      <trkpt lat="48.40824" lon="7.30781">
        <ele>720</ele>
        <time>2020-09-06T08:01:03.352Z</time>
      </trkpt>
      <trkpt lat="48.40825" lon="7.30781">
        <ele>719</ele>
        <time>2020-09-06T08:01:04.351Z</time>
      </trkpt>
      <trkpt lat="48.40826" lon="7.3078">
        <ele>719</ele>
        <time>2020-09-06T08:01:05.352Z</time>
      </trkpt>
      <trkpt lat="48.40827" lon="7.30779">
        <ele>719</ele>
        <time>2020-09-06T08:01:06.351Z</time>
      </trkpt>
      <trkpt lat="48.40827" lon="7.30778">
        <ele>719</ele>
        <time>2020-09-06T08:01:07.352Z</time>
      </trkpt>
      <trkpt lat="48.40828" lon="7.30778">
        <ele>719</ele>
        <time>2020-09-06T08:01:08.351Z</time>
      </trkpt>
      <trkpt lat="48.40829" lon="7.30777">
        <ele>719</ele>
        <time>2020-09-06T08:01:09.352Z</time>
      </trkpt>
      <trkpt lat="48.40829" lon="7.30774">
        <ele>719</ele>
        <time>2020-09-06T08:01:10.351Z</time>
      </trkpt>
      <trkpt lat="48.4083" lon="7.30771">
        <ele>719</ele>
        <time>2020-09-06T08:01:11.352Z</time>
      </trkpt>
      <trkpt lat="48.4083" lon="7.30769">
        <ele>720</ele>
        <time>2020-09-06T08:01:12.351Z</time>
      </trkpt>
      <trkpt lat="48.4083" lon="7.30766">
        <ele>721</ele>
        <time>2020-09-06T08:01:13.352Z</time>
      </trkpt>
      <trkpt lat="48.4083" lon="7.30764">
        <ele>722</ele>
        <time>2020-09-06T08:01:14.352Z</time>
      </trkpt>
      <trkpt lat="48.4083" lon="7.30761">
        <ele>723</ele>
        <time>2020-09-06T08:01:15.352Z</time>
      </trkpt>
      <trkpt lat="48.40831" lon="7.30759">
        <ele>724</ele>
        <time>2020-09-06T08:01:16.352Z</time>
      </trkpt>
      <trkpt lat="48.40832" lon="7.30758">
        <ele>724</ele>
        <time>2020-09-06T08:01:17.352Z</time>
      </trkpt>
      <trkpt lat="48.40833" lon="7.30756">
        <ele>724</ele>
        <time>2020-09-06T08:01:18.352Z</time>
      </trkpt>
      <trkpt lat="48.40834" lon="7.30755">
        <ele>725</ele>
        <time>2020-09-06T08:01:19.352Z</time>
      </trkpt>
      <trkpt lat="48.40836" lon="7.30754">
        <ele>725</ele>
        <time>2020-09-06T08:01:20.351Z</time>
      </trkpt>
      <trkpt lat="48.40837" lon="7.30752">
        <ele>725</ele>
        <time>2020-09-06T08:01:21.352Z</time>
      </trkpt>
      <trkpt lat="48.40839" lon="7.30751">
        <ele>726</ele>
        <time>2020-09-06T08:01:22.352Z</time>
      </trkpt>
      <trkpt lat="48.4084" lon="7.3075">
        <ele>726</ele>
        <time>2020-09-06T08:01:23.351Z</time>
      </trkpt>
      <trkpt lat="48.40841" lon="7.30749">
        <ele>727</ele>
        <time>2020-09-06T08:01:24.351Z</time>
      </trkpt>
      <trkpt lat="48.40842" lon="7.30748">
        <ele>727</ele>
        <time>2020-09-06T08:01:25.352Z</time>
      </trkpt>
      <trkpt lat="48.40843" lon="7.30748">
        <ele>727</ele>
        <time>2020-09-06T08:01:26.352Z</time>
      </trkpt>
      <trkpt lat="48.40844" lon="7.30748">
        <ele>727</ele>
        <time>2020-09-06T08:01:27.351Z</time>
      </trkpt>
      <trkpt lat="48.40845" lon="7.30747">
        <ele>727</ele>
        <time>2020-09-06T08:01:28.352Z</time>
      </trkpt>
      <trkpt lat="48.40847" lon="7.30747">
        <ele>727</ele>
        <time>2020-09-06T08:01:29.351Z</time>
      </trkpt>
      <trkpt lat="48.40848" lon="7.30747">
        <ele>727</ele>
        <time>2020-09-06T08:01:30.352Z</time>
      </trkpt>
      <trkpt lat="48.40849" lon="7.30746">
        <ele>728</ele>
        <time>2020-09-06T08:01:31.352Z</time>
      </trkpt>
      <trkpt lat="48.40849" lon="7.30745">
        <ele>728</ele>
        <time>2020-09-06T08:01:32.352Z</time>
      </trkpt>
      <trkpt lat="48.40849" lon="7.30744">
        <ele>728</ele>
        <time>2020-09-06T08:01:33.351Z</time>
      </trkpt>
      <trkpt lat="48.4085" lon="7.30744">
        <ele>728</ele>
        <time>2020-09-06T08:01:34.352Z</time>
      </trkpt>
      <trkpt lat="48.40851" lon="7.30743">
        <ele>729</ele>
        <time>2020-09-06T08:01:35.352Z</time>
      </trkpt>
      <trkpt lat="48.40852" lon="7.30743">
        <ele>729</ele>
        <time>2020-09-06T08:01:36.352Z</time>
      </trkpt>
      <trkpt lat="48.40852" lon="7.30742">
        <ele>730</ele>
        <time>2020-09-06T08:01:37.352Z</time>
      </trkpt>
      <trkpt lat="48.40852" lon="7.30741">
        <ele>730</ele>
        <time>2020-09-06T08:01:38.352Z</time>
      </trkpt>
      <trkpt lat="48.40853" lon="7.30741">
        <ele>731</ele>
        <time>2020-09-06T08:01:39.352Z</time>
      </trkpt>
      <trkpt lat="48.40854" lon="7.30741">
        <ele>731</ele>
        <time>2020-09-06T08:01:40.352Z</time>
      </trkpt>
      <trkpt lat="48.40855" lon="7.3074">
        <ele>731</ele>
        <time>2020-09-06T08:01:41.352Z</time>
      </trkpt>
      <trkpt lat="48.40855" lon="7.3074">
        <ele>731</ele>
        <time>2020-09-06T08:01:42.352Z</time>
      </trkpt>
      <trkpt lat="48.40857" lon="7.3074">
        <ele>730</ele>
        <time>2020-09-06T08:01:43.351Z</time>
      </trkpt>
      <trkpt lat="48.40859" lon="7.3074">
        <ele>730</ele>
        <time>2020-09-06T08:01:44.352Z</time>
      </trkpt>
      <trkpt lat="48.4086" lon="7.30739">
        <ele>730</ele>
        <time>2020-09-06T08:01:45.352Z</time>
      </trkpt>
      <trkpt lat="48.40861" lon="7.30738">
        <ele>729</ele>
        <time>2020-09-06T08:01:46.352Z</time>
      </trkpt>
      <trkpt lat="48.40861" lon="7.30737">
        <ele>729</ele>
        <time>2020-09-06T08:01:47.351Z</time>
      </trkpt>
      <trkpt lat="48.40862" lon="7.30737">
        <ele>729</ele>
        <time>2020-09-06T08:01:48.352Z</time>
      </trkpt>
      <trkpt lat="48.40863" lon="7.30736">
        <ele>729</ele>
        <time>2020-09-06T08:01:49.351Z</time>
      </trkpt>
      <trkpt lat="48.40864" lon="7.30735">
        <ele>729</ele>
        <time>2020-09-06T08:01:50.351Z</time>
      </trkpt>
      <trkpt lat="48.40865" lon="7.30735">
        <ele>729</ele>
        <time>2020-09-06T08:01:51.351Z</time>
      </trkpt>
      <trkpt lat="48.40867" lon="7.30735">
        <ele>729</ele>
        <time>2020-09-06T08:01:52.352Z</time>
      </trkpt>
      <trkpt lat="48.40869" lon="7.30735">
        <ele>729</ele>
        <time>2020-09-06T08:01:53.352Z</time>
      </trkpt>
      <trkpt lat="48.4087" lon="7.30734">
        <ele>729</ele>
        <time>2020-09-06T08:01:54.352Z</time>
      </trkpt>
      <trkpt lat="48.40872" lon="7.30734">
        <ele>728</ele>
        <time>2020-09-06T08:01:55.352Z</time>
      </trkpt>
      <trkpt lat="48.40873" lon="7.30733">
        <ele>728</ele>
        <time>2020-09-06T08:01:56.352Z</time>
      </trkpt>
      <trkpt lat="48.40874" lon="7.30734">
        <ele>728</ele>
        <time>2020-09-06T08:01:57.351Z</time>
      </trkpt>
      <trkpt lat="48.40875" lon="7.30734">
        <ele>728</ele>
        <time>2020-09-06T08:01:58.351Z</time>
      </trkpt>
      <trkpt lat="48.40876" lon="7.30734">
        <ele>728</ele>
        <time>2020-09-06T08:01:59.351Z</time>
      </trkpt>
      <trkpt lat="48.40877" lon="7.30735">
        <ele>728</ele>
        <time>2020-09-06T08:02:00.352Z</time>
      </trkpt>
      <trkpt lat="48.40878" lon="7.30737">
        <ele>727</ele>
        <time>2020-09-06T08:02:01.352Z</time>
      </trkpt>
      <trkpt lat="48.40879" lon="7.30738">
        <ele>727</ele>
        <time>2020-09-06T08:02:02.351Z</time>
      </trkpt>
      <trkpt lat="48.4088" lon="7.30738">
        <ele>727</ele>
        <time>2020-09-06T08:02:03.352Z</time>
      </trkpt>
      <trkpt lat="48.4088" lon="7.30738">
        <ele>727</ele>
        <time>2020-09-06T08:02:04.352Z</time>
      </trkpt>
      <trkpt lat="48.40881" lon="7.30738">
        <ele>727</ele>
        <time>2020-09-06T08:02:05.352Z</time>
      </trkpt>
      <trkpt lat="48.40882" lon="7.30737">
        <ele>727</ele>
        <time>2020-09-06T08:02:06.351Z</time>
      </trkpt>
      <trkpt lat="48.40882" lon="7.30737">
        <ele>727</ele>
        <time>2020-09-06T08:02:07.352Z</time>
      </trkpt>
      <trkpt lat="48.40883" lon="7.30737">
        <ele>727</ele>
        <time>2020-09-06T08:02:08.352Z</time>
      </trkpt>
      <trkpt lat="48.40883" lon="7.30736">
        <ele>728</ele>
        <time>2020-09-06T08:02:09.352Z</time>
      </trkpt>
      <trkpt lat="48.40883" lon="7.30736">
        <ele>728</ele>
        <time>2020-09-06T08:02:10.352Z</time>
      </trkpt>
      <trkpt lat="48.40884" lon="7.30735">
        <ele>728</ele>
        <time>2020-09-06T08:02:11.352Z</time>
      </trkpt>
      <trkpt lat="48.40884" lon="7.30734">
        <ele>729</ele>
        <time>2020-09-06T08:02:12.352Z</time>
      </trkpt>
      <trkpt lat="48.40885" lon="7.30733">
        <ele>729</ele>
        <time>2020-09-06T08:02:13.351Z</time>
      </trkpt>
      <trkpt lat="48.40885" lon="7.30732">
        <ele>730</ele>
        <time>2020-09-06T08:02:14.352Z</time>
      </trkpt>
      <trkpt lat="48.40886" lon="7.30732">
        <ele>730</ele>
        <time>2020-09-06T08:02:15.352Z</time>
      </trkpt>
      <trkpt lat="48.40886" lon="7.30731">
        <ele>731</ele>
        <time>2020-09-06T08:02:16.352Z</time>
      </trkpt>
      <trkpt lat="48.40887" lon="7.3073">
        <ele>732</ele>
        <time>2020-09-06T08:02:17.352Z</time>
      </trkpt>
      <trkpt lat="48.40888" lon="7.3073">
        <ele>734</ele>
        <time>2020-09-06T08:02:18.352Z</time>
      </trkpt>
      <trkpt lat="48.40888" lon="7.30729">
        <ele>735</ele>
        <time>2020-09-06T08:02:19.352Z</time>
      </trkpt>
      <trkpt lat="48.40888" lon="7.30728">
        <ele>736</ele>
        <time>2020-09-06T08:02:20.352Z</time>
      </trkpt>
      <trkpt lat="48.40888" lon="7.30727">
        <ele>737</ele>
        <time>2020-09-06T08:02:21.351Z</time>
      </trkpt>
      <trkpt lat="48.40889" lon="7.30726">
        <ele>738</ele>
        <time>2020-09-06T08:02:22.352Z</time>
      </trkpt>
      <trkpt lat="48.4089" lon="7.30726">
        <ele>739</ele>
        <time>2020-09-06T08:02:23.352Z</time>
      </trkpt>
      <trkpt lat="48.4089" lon="7.30725">
        <ele>740</ele>
        <time>2020-09-06T08:02:24.352Z</time>
      </trkpt>
      <trkpt lat="48.40891" lon="7.30724">
        <ele>741</ele>
        <time>2020-09-06T08:02:25.352Z</time>
      </trkpt>
      <trkpt lat="48.40892" lon="7.30723">
        <ele>742</ele>
        <time>2020-09-06T08:02:26.352Z</time>
      </trkpt>
      <trkpt lat="48.40893" lon="7.30722">
        <ele>742</ele>
        <time>2020-09-06T08:02:27.352Z</time>
      </trkpt>
      <trkpt lat="48.40894" lon="7.30721">
        <ele>743</ele>
        <time>2020-09-06T08:02:28.352Z</time>
      </trkpt>
      <trkpt lat="48.40895" lon="7.3072">
        <ele>743</ele>
        <time>2020-09-06T08:02:29.352Z</time>
      </trkpt>
      <trkpt lat="48.40896" lon="7.30719">
        <ele>743</ele>
        <time>2020-09-06T08:02:30.351Z</time>
      </trkpt>
      <trkpt lat="48.40898" lon="7.30718">
        <ele>744</ele>
        <time>2020-09-06T08:02:31.351Z</time>
      </trkpt>
      <trkpt lat="48.40899" lon="7.30718">
        <ele>744</ele>
        <time>2020-09-06T08:02:32.352Z</time>
      </trkpt>
      <trkpt lat="48.409" lon="7.30718">
        <ele>744</ele>
        <time>2020-09-06T08:02:33.351Z</time>
      </trkpt>
      <trkpt lat="48.40901" lon="7.3072">
        <ele>744</ele>
        <time>2020-09-06T08:02:34.352Z</time>
      </trkpt>
      <trkpt lat="48.40903" lon="7.30721">
        <ele>743</ele>
        <time>2020-09-06T08:02:35.351Z</time>
      </trkpt>
      <trkpt lat="48.40905" lon="7.30722">
        <ele>743</ele>
        <time>2020-09-06T08:02:36.351Z</time>
      </trkpt>
      <trkpt lat="48.40906" lon="7.30722">
        <ele>742</ele>
        <time>2020-09-06T08:02:37.352Z</time>
      </trkpt>
      <trkpt lat="48.40907" lon="7.30723">
        <ele>741</ele>
        <time>2020-09-06T08:02:38.352Z</time>
      </trkpt>
      <trkpt lat="48.40907" lon="7.30723">
        <ele>739</ele>
        <time>2020-09-06T08:02:39.352Z</time>
      </trkpt>
      <trkpt lat="48.40908" lon="7.30724">
        <ele>738</ele>
        <time>2020-09-06T08:02:40.352Z</time>
      </trkpt>
      <trkpt lat="48.40908" lon="7.30724">
        <ele>737</ele>
        <time>2020-09-06T08:02:41.352Z</time>
      </trkpt>
      <trkpt lat="48.40908" lon="7.30725">
        <ele>736</ele>
        <time>2020-09-06T08:02:42.352Z</time>
      </trkpt>
      <trkpt lat="48.40908" lon="7.30726">
        <ele>735</ele>
        <time>2020-09-06T08:02:43.352Z</time>
      </trkpt>
      <trkpt lat="48.40908" lon="7.30727">
        <ele>734</ele>
        <time>2020-09-06T08:02:44.352Z</time>
      </trkpt>
      <trkpt lat="48.40908" lon="7.30728">
        <ele>732</ele>
        <time>2020-09-06T08:02:45.352Z</time>
      </trkpt>
      <trkpt lat="48.40908" lon="7.3073">
        <ele>729</ele>
        <time>2020-09-06T08:02:46.353Z</time>
      </trkpt>
      <trkpt lat="48.40909" lon="7.3073">
        <ele>728</ele>
        <time>2020-09-06T08:02:47.352Z</time>
      </trkpt>
      <trkpt lat="48.4091" lon="7.3073">
        <ele>728</ele>
        <time>2020-09-06T08:02:48.352Z</time>
      </trkpt>
      <trkpt lat="48.40911" lon="7.30731">
        <ele>728</ele>
        <time>2020-09-06T08:02:49.353Z</time>
      </trkpt>
      <trkpt lat="48.40912" lon="7.30731">
        <ele>728</ele>
        <time>2020-09-06T08:02:50.352Z</time>
      </trkpt>
      <trkpt lat="48.40912" lon="7.30731">
        <ele>728</ele>
        <time>2020-09-06T08:02:51.352Z</time>
      </trkpt>
      <trkpt lat="48.40912" lon="7.30731">
        <ele>728</ele>
        <time>2020-09-06T08:02:52.353Z</time>
      </trkpt>
      <trkpt lat="48.40913" lon="7.30731">
        <ele>728</ele>
        <time>2020-09-06T08:02:53.352Z</time>
      </trkpt>
      <trkpt lat="48.40913" lon="7.30731">
        <ele>728</ele>
        <time>2020-09-06T08:02:54.353Z</time>
      </trkpt>
      <trkpt lat="48.40914" lon="7.30731">
        <ele>728</ele>
        <time>2020-09-06T08:02:55.353Z</time>
      </trkpt>
      <trkpt lat="48.40915" lon="7.30731">
        <ele>728</ele>
        <time>2020-09-06T08:02:56.355Z</time>
      </trkpt>
      <trkpt lat="48.40924" lon="7.30733">
        <ele>729</ele>
        <time>2020-09-06T08:02:57.354Z</time>
      </trkpt>
      <trkpt lat="48.40925" lon="7.30734">
        <ele>729</ele>
        <time>2020-09-06T08:02:58.355Z</time>
      </trkpt>
      <trkpt lat="48.40926" lon="7.30735">
        <ele>729</ele>
        <time>2020-09-06T08:02:59.354Z</time>
      </trkpt>
      <trkpt lat="48.40926" lon="7.30736">
        <ele>729</ele>
        <time>2020-09-06T08:03:00.354Z</time>
      </trkpt>
      <trkpt lat="48.40926" lon="7.30736">
        <ele>730</ele>
        <time>2020-09-06T08:03:01.355Z</time>
      </trkpt>
      <trkpt lat="48.40925" lon="7.30737">
        <ele>730</ele>
        <time>2020-09-06T08:03:02.355Z</time>
      </trkpt>
      <trkpt lat="48.40925" lon="7.30737">
        <ele>730</ele>
        <time>2020-09-06T08:03:03.355Z</time>
      </trkpt>
      <trkpt lat="48.40925" lon="7.30738">
        <ele>730</ele>
        <time>2020-09-06T08:03:04.354Z</time>
      </trkpt>
      <trkpt lat="48.40925" lon="7.30738">
        <ele>730</ele>
        <time>2020-09-06T08:03:05.355Z</time>
      </trkpt>
      <trkpt lat="48.40925" lon="7.30737">
        <ele>731</ele>
        <time>2020-09-06T08:03:06.356Z</time>
      </trkpt>
      <trkpt lat="48.40925" lon="7.30736">
        <ele>732</ele>
        <time>2020-09-06T08:03:07.356Z</time>
      </trkpt>
      <trkpt lat="48.40925" lon="7.30737">
        <ele>734</ele>
        <time>2020-09-06T08:03:08.356Z</time>
      </trkpt>
      <trkpt lat="48.40926" lon="7.30738">
        <ele>734</ele>
        <time>2020-09-06T08:03:09.356Z</time>
      </trkpt>
      <trkpt lat="48.40925" lon="7.30739">
        <ele>735</ele>
        <time>2020-09-06T08:03:10.355Z</time>
      </trkpt>
      <trkpt lat="48.40924" lon="7.3074">
        <ele>735</ele>
        <time>2020-09-06T08:03:11.355Z</time>
      </trkpt>
      <trkpt lat="48.40923" lon="7.3074">
        <ele>735</ele>
        <time>2020-09-06T08:03:12.356Z</time>
      </trkpt>
      <trkpt lat="48.40923" lon="7.30741">
        <ele>735</ele>
        <time>2020-09-06T08:03:13.355Z</time>
      </trkpt>
      <trkpt lat="48.40924" lon="7.30743">
        <ele>734</ele>
        <time>2020-09-06T08:03:14.356Z</time>
      </trkpt>
      <trkpt lat="48.40925" lon="7.30744">
        <ele>733</ele>
        <time>2020-09-06T08:03:15.355Z</time>
      </trkpt>
      <trkpt lat="48.40925" lon="7.30744">
        <ele>733</ele>
        <time>2020-09-06T08:03:16.355Z</time>
      </trkpt>
      <trkpt lat="48.40925" lon="7.30744">
        <ele>732</ele>
        <time>2020-09-06T08:03:17.356Z</time>
      </trkpt>
      <trkpt lat="48.40926" lon="7.30745">
        <ele>732</ele>
        <time>2020-09-06T08:03:18.355Z</time>
      </trkpt>
      <trkpt lat="48.40927" lon="7.30747">
        <ele>731</ele>
        <time>2020-09-06T08:03:19.356Z</time>
      </trkpt>
      <trkpt lat="48.40927" lon="7.30747">
        <ele>730</ele>
        <time>2020-09-06T08:03:20.356Z</time>
      </trkpt>
      <trkpt lat="48.40927" lon="7.30748">
        <ele>729</ele>
        <time>2020-09-06T08:03:21.356Z</time>
      </trkpt>
      <trkpt lat="48.40928" lon="7.30749">
        <ele>729</ele>
        <time>2020-09-06T08:03:22.356Z</time>
      </trkpt>
      <trkpt lat="48.40928" lon="7.3075">
        <ele>728</ele>
        <time>2020-09-06T08:03:23.356Z</time>
      </trkpt>
      <trkpt lat="48.40928" lon="7.30751">
        <ele>727</ele>
        <time>2020-09-06T08:03:24.356Z</time>
      </trkpt>
      <trkpt lat="48.40928" lon="7.30752">
        <ele>726</ele>
        <time>2020-09-06T08:03:25.356Z</time>
      </trkpt>
      <trkpt lat="48.40928" lon="7.30754">
        <ele>725</ele>
        <time>2020-09-06T08:03:26.356Z</time>
      </trkpt>
      <trkpt lat="48.40928" lon="7.30755">
        <ele>725</ele>
        <time>2020-09-06T08:03:27.356Z</time>
      </trkpt>
      <trkpt lat="48.40928" lon="7.30757">
        <ele>725</ele>
        <time>2020-09-06T08:03:28.356Z</time>
      </trkpt>
      <trkpt lat="48.40928" lon="7.30758">
        <ele>725</ele>
        <time>2020-09-06T08:03:29.355Z</time>
      </trkpt>
      <trkpt lat="48.40927" lon="7.30759">
        <ele>725</ele>
        <time>2020-09-06T08:03:30.356Z</time>
      </trkpt>
      <trkpt lat="48.40927" lon="7.30761">
        <ele>724</ele>
        <time>2020-09-06T08:03:31.356Z</time>
      </trkpt>
      <trkpt lat="48.40926" lon="7.30763">
        <ele>724</ele>
        <time>2020-09-06T08:03:32.356Z</time>
      </trkpt>
      <trkpt lat="48.40925" lon="7.30765">
        <ele>724</ele>
        <time>2020-09-06T08:03:33.356Z</time>
      </trkpt>
      <trkpt lat="48.40925" lon="7.30767">
        <ele>724</ele>
        <time>2020-09-06T08:03:34.356Z</time>
      </trkpt>
      <trkpt lat="48.40924" lon="7.3077">
        <ele>724</ele>
        <time>2020-09-06T08:03:35.356Z</time>
      </trkpt>
      <trkpt lat="48.40922" lon="7.30773">
        <ele>724</ele>
        <time>2020-09-06T08:03:36.356Z</time>
      </trkpt>
      <trkpt lat="48.40922" lon="7.30776">
        <ele>724</ele>
        <time>2020-09-06T08:03:37.356Z</time>
      </trkpt>
      <trkpt lat="48.4092" lon="7.30777">
        <ele>724</ele>
        <time>2020-09-06T08:03:38.356Z</time>
      </trkpt>
      <trkpt lat="48.40918" lon="7.30779">
        <ele>724</ele>
        <time>2020-09-06T08:03:39.355Z</time>
      </trkpt>
      <trkpt lat="48.40917" lon="7.30781">
        <ele>724</ele>
        <time>2020-09-06T08:03:40.355Z</time>
      </trkpt>
      <trkpt lat="48.40916" lon="7.30782">
        <ele>724</ele>
        <time>2020-09-06T08:03:41.356Z</time>
      </trkpt>
      <trkpt lat="48.40916" lon="7.30782">
        <ele>724</ele>
        <time>2020-09-06T08:03:42.356Z</time>
      </trkpt>
      <trkpt lat="48.40916" lon="7.30783">
        <ele>724</ele>
        <time>2020-09-06T08:03:43.356Z</time>
      </trkpt>
      <trkpt lat="48.40915" lon="7.30786">
        <ele>725</ele>
        <time>2020-09-06T08:03:44.356Z</time>
      </trkpt>
      <trkpt lat="48.40914" lon="7.30787">
        <ele>725</ele>
        <time>2020-09-06T08:03:45.355Z</time>
      </trkpt>
      <trkpt lat="48.40913" lon="7.30788">
        <ele>726</ele>
        <time>2020-09-06T08:03:46.356Z</time>
      </trkpt>
      <trkpt lat="48.40912" lon="7.30788">
        <ele>726</ele>
        <time>2020-09-06T08:03:47.356Z</time>
      </trkpt>
      <trkpt lat="48.40911" lon="7.30789">
        <ele>726</ele>
        <time>2020-09-06T08:03:48.356Z</time>
      </trkpt>
      <trkpt lat="48.40909" lon="7.3079">
        <ele>726</ele>
        <time>2020-09-06T08:03:49.356Z</time>
      </trkpt>
      <trkpt lat="48.40909" lon="7.30791">
        <ele>726</ele>
        <time>2020-09-06T08:03:50.356Z</time>
      </trkpt>
      <trkpt lat="48.40909" lon="7.30793">
        <ele>726</ele>
        <time>2020-09-06T08:03:51.356Z</time>
      </trkpt>
      <trkpt lat="48.40908" lon="7.30795">
        <ele>726</ele>
        <time>2020-09-06T08:03:52.356Z</time>
      </trkpt>
      <trkpt lat="48.40907" lon="7.30798">
        <ele>726</ele>
        <time>2020-09-06T08:03:53.356Z</time>
      </trkpt>
      <trkpt lat="48.40906" lon="7.30799">
        <ele>725</ele>
        <time>2020-09-06T08:03:54.356Z</time>
      </trkpt>
      <trkpt lat="48.40906" lon="7.308">
        <ele>724</ele>
        <time>2020-09-06T08:03:55.356Z</time>
      </trkpt>
      <trkpt lat="48.40905" lon="7.308">
        <ele>723</ele>
        <time>2020-09-06T08:03:56.356Z</time>
      </trkpt>
      <trkpt lat="48.40904" lon="7.30801">
        <ele>723</ele>
        <time>2020-09-06T08:03:57.356Z</time>
      </trkpt>
      <trkpt lat="48.40904" lon="7.30802">
        <ele>722</ele>
        <time>2020-09-06T08:03:58.355Z</time>
      </trkpt>
      <trkpt lat="48.40903" lon="7.30804">
        <ele>722</ele>
        <time>2020-09-06T08:03:59.356Z</time>
      </trkpt>
      <trkpt lat="48.40902" lon="7.30805">
        <ele>722</ele>
        <time>2020-09-06T08:04:00.356Z</time>
      </trkpt>
      <trkpt lat="48.40902" lon="7.30805">
        <ele>721</ele>
        <time>2020-09-06T08:04:01.355Z</time>
      </trkpt>
      <trkpt lat="48.40901" lon="7.30805">
        <ele>721</ele>
        <time>2020-09-06T08:04:02.356Z</time>
      </trkpt>
      <trkpt lat="48.40901" lon="7.30805">
        <ele>720</ele>
        <time>2020-09-06T08:04:03.356Z</time>
      </trkpt>
      <trkpt lat="48.409" lon="7.30805">
        <ele>719</ele>
        <time>2020-09-06T08:04:04.355Z</time>
      </trkpt>
      <trkpt lat="48.40899" lon="7.30806">
        <ele>718</ele>
        <time>2020-09-06T08:04:05.356Z</time>
      </trkpt>
      <trkpt lat="48.40898" lon="7.30807">
        <ele>717</ele>
        <time>2020-09-06T08:04:06.355Z</time>
      </trkpt>
      <trkpt lat="48.40897" lon="7.30808">
        <ele>717</ele>
        <time>2020-09-06T08:04:07.356Z</time>
      </trkpt>
      <trkpt lat="48.40896" lon="7.30809">
        <ele>717</ele>
        <time>2020-09-06T08:04:08.355Z</time>
      </trkpt>
      <trkpt lat="48.40896" lon="7.3081">
        <ele>717</ele>
        <time>2020-09-06T08:04:09.355Z</time>
      </trkpt>
      <trkpt lat="48.40894" lon="7.30811">
        <ele>718</ele>
        <time>2020-09-06T08:04:10.356Z</time>
      </trkpt>
      <trkpt lat="48.40893" lon="7.30812">
        <ele>718</ele>
        <time>2020-09-06T08:04:11.356Z</time>
      </trkpt>
      <trkpt lat="48.40893" lon="7.30812">
        <ele>718</ele>
        <time>2020-09-06T08:04:12.356Z</time>
      </trkpt>
      <trkpt lat="48.40891" lon="7.30813">
        <ele>719</ele>
        <time>2020-09-06T08:04:13.356Z</time>
      </trkpt>
      <trkpt lat="48.4089" lon="7.30815">
        <ele>720</ele>
        <time>2020-09-06T08:04:14.356Z</time>
      </trkpt>
      <trkpt lat="48.40888" lon="7.30816">
        <ele>721</ele>
        <time>2020-09-06T08:04:15.356Z</time>
      </trkpt>
      <trkpt lat="48.40887" lon="7.30818">
        <ele>721</ele>
        <time>2020-09-06T08:04:16.355Z</time>
      </trkpt>
      <trkpt lat="48.40886" lon="7.30819">
        <ele>721</ele>
        <time>2020-09-06T08:04:17.355Z</time>
      </trkpt>
      <trkpt lat="48.40885" lon="7.30821">
        <ele>722</ele>
        <time>2020-09-06T08:04:18.356Z</time>
      </trkpt>
      <trkpt lat="48.40884" lon="7.30822">
        <ele>722</ele>
        <time>2020-09-06T08:04:19.356Z</time>
      </trkpt>
      <trkpt lat="48.40883" lon="7.30823">
        <ele>721</ele>
        <time>2020-09-06T08:04:20.356Z</time>
      </trkpt>
      <trkpt lat="48.40883" lon="7.30824">
        <ele>721</ele>
        <time>2020-09-06T08:04:21.356Z</time>
      </trkpt>
      <trkpt lat="48.40881" lon="7.30825">
        <ele>721</ele>
        <time>2020-09-06T08:04:22.356Z</time>
      </trkpt>
      <trkpt lat="48.40879" lon="7.30827">
        <ele>721</ele>
        <time>2020-09-06T08:04:23.355Z</time>
      </trkpt>
      <trkpt lat="48.40877" lon="7.30828">
        <ele>721</ele>
        <time>2020-09-06T08:04:24.356Z</time>
      </trkpt>
      <trkpt lat="48.40876" lon="7.30829">
        <ele>721</ele>
        <time>2020-09-06T08:04:25.356Z</time>
      </trkpt>
      <trkpt lat="48.40875" lon="7.30831">
        <ele>722</ele>
        <time>2020-09-06T08:04:26.356Z</time>
      </trkpt>
      <trkpt lat="48.40874" lon="7.30832">
        <ele>722</ele>
        <time>2020-09-06T08:04:27.356Z</time>
      </trkpt>
      <trkpt lat="48.40873" lon="7.30833">
        <ele>723</ele>
        <time>2020-09-06T08:04:28.356Z</time>
      </trkpt>
      <trkpt lat="48.40872" lon="7.30834">
        <ele>724</ele>
        <time>2020-09-06T08:04:29.355Z</time>
      </trkpt>
      <trkpt lat="48.40871" lon="7.30835">
        <ele>725</ele>
        <time>2020-09-06T08:04:30.356Z</time>
      </trkpt>
      <trkpt lat="48.4087" lon="7.30836">
        <ele>725</ele>
        <time>2020-09-06T08:04:31.356Z</time>
      </trkpt>
      <trkpt lat="48.40869" lon="7.30838">
        <ele>725</ele>
        <time>2020-09-06T08:04:32.356Z</time>
      </trkpt>
      <trkpt lat="48.40868" lon="7.30839">
        <ele>725</ele>
        <time>2020-09-06T08:04:33.356Z</time>
      </trkpt>
      <trkpt lat="48.40868" lon="7.30841">
        <ele>725</ele>
        <time>2020-09-06T08:04:34.356Z</time>
      </trkpt>
      <trkpt lat="48.40867" lon="7.30843">
        <ele>725</ele>
        <time>2020-09-06T08:04:35.356Z</time>
      </trkpt>
      <trkpt lat="48.40867" lon="7.30845">
        <ele>725</ele>
        <time>2020-09-06T08:04:36.356Z</time>
      </trkpt>
      <trkpt lat="48.40867" lon="7.30848">
        <ele>725</ele>
        <time>2020-09-06T08:04:37.356Z</time>
      </trkpt>
      <trkpt lat="48.40867" lon="7.30849">
        <ele>725</ele>
        <time>2020-09-06T08:04:38.356Z</time>
      </trkpt>
      <trkpt lat="48.40869" lon="7.3085">
        <ele>725</ele>
        <time>2020-09-06T08:04:39.355Z</time>
      </trkpt>
      <trkpt lat="48.4087" lon="7.30851">
        <ele>726</ele>
        <time>2020-09-06T08:04:40.356Z</time>
      </trkpt>
      <trkpt lat="48.40871" lon="7.30853">
        <ele>726</ele>
        <time>2020-09-06T08:04:41.355Z</time>
      </trkpt>
      <trkpt lat="48.40871" lon="7.30855">
        <ele>726</ele>
        <time>2020-09-06T08:04:42.356Z</time>
      </trkpt>
      <trkpt lat="48.40871" lon="7.30857">
        <ele>726</ele>
        <time>2020-09-06T08:04:43.356Z</time>
      </trkpt>
      <trkpt lat="48.40871" lon="7.30859">
        <ele>726</ele>
        <time>2020-09-06T08:04:44.356Z</time>
      </trkpt>
      <trkpt lat="48.40871" lon="7.3086">
        <ele>727</ele>
        <time>2020-09-06T08:04:45.356Z</time>
      </trkpt>
      <trkpt lat="48.40872" lon="7.30862">
        <ele>727</ele>
        <time>2020-09-06T08:04:46.356Z</time>
      </trkpt>
      <trkpt lat="48.40873" lon="7.30863">
        <ele>727</ele>
        <time>2020-09-06T08:04:47.356Z</time>
      </trkpt>
      <trkpt lat="48.40873" lon="7.30864">
        <ele>727</ele>
        <time>2020-09-06T08:04:48.355Z</time>
      </trkpt>
      <trkpt lat="48.40874" lon="7.30864">
        <ele>727</ele>
        <time>2020-09-06T08:04:49.356Z</time>
      </trkpt>
      <trkpt lat="48.40875" lon="7.30865">
        <ele>727</ele>
        <time>2020-09-06T08:04:50.355Z</time>
      </trkpt>
      <trkpt lat="48.40875" lon="7.30866">
        <ele>727</ele>
        <time>2020-09-06T08:04:51.356Z</time>
      </trkpt>
      <trkpt lat="48.40875" lon="7.30867">
        <ele>727</ele>
        <time>2020-09-06T08:04:52.356Z</time>
      </trkpt>
      <trkpt lat="48.40875" lon="7.30868">
        <ele>727</ele>
        <time>2020-09-06T08:04:53.356Z</time>
      </trkpt>
      <trkpt lat="48.40876" lon="7.30868">
        <ele>727</ele>
        <time>2020-09-06T08:04:54.356Z</time>
      </trkpt>
      <trkpt lat="48.40876" lon="7.30869">
        <ele>727</ele>
        <time>2020-09-06T08:04:55.355Z</time>
      </trkpt>
      <trkpt lat="48.40876" lon="7.3087">
        <ele>727</ele>
        <time>2020-09-06T08:04:56.356Z</time>
      </trkpt>
      <trkpt lat="48.40877" lon="7.30871">
        <ele>727</ele>
        <time>2020-09-06T08:04:57.355Z</time>
      </trkpt>
      <trkpt lat="48.40877" lon="7.30872">
        <ele>727</ele>
        <time>2020-09-06T08:04:58.355Z</time>
      </trkpt>
      <trkpt lat="48.40877" lon="7.30874">
        <ele>726</ele>
        <time>2020-09-06T08:04:59.355Z</time>
      </trkpt>
      <trkpt lat="48.40877" lon="7.30875">
        <ele>726</ele>
        <time>2020-09-06T08:05:00.355Z</time>
      </trkpt>
      <trkpt lat="48.40878" lon="7.30877">
        <ele>726</ele>
        <time>2020-09-06T08:05:01.355Z</time>
      </trkpt>
      <trkpt lat="48.40878" lon="7.30878">
        <ele>726</ele>
        <time>2020-09-06T08:05:02.355Z</time>
      </trkpt>
      <trkpt lat="48.40879" lon="7.3088">
        <ele>726</ele>
        <time>2020-09-06T08:05:03.355Z</time>
      </trkpt>
      <trkpt lat="48.4088" lon="7.30881">
        <ele>726</ele>
        <time>2020-09-06T08:05:04.355Z</time>
      </trkpt>
      <trkpt lat="48.4088" lon="7.30882">
        <ele>727</ele>
        <time>2020-09-06T08:05:05.355Z</time>
      </trkpt>
      <trkpt lat="48.4088" lon="7.30883">
        <ele>727</ele>
        <time>2020-09-06T08:05:06.355Z</time>
      </trkpt>
      <trkpt lat="48.4088" lon="7.30885">
        <ele>728</ele>
        <time>2020-09-06T08:05:07.355Z</time>
      </trkpt>
      <trkpt lat="48.4088" lon="7.30886">
        <ele>729</ele>
        <time>2020-09-06T08:05:08.356Z</time>
      </trkpt>
      <trkpt lat="48.4088" lon="7.30887">
        <ele>729</ele>
        <time>2020-09-06T08:05:09.356Z</time>
      </trkpt>
      <trkpt lat="48.40879" lon="7.30889">
        <ele>730</ele>
        <time>2020-09-06T08:05:10.356Z</time>
      </trkpt>
      <trkpt lat="48.40879" lon="7.3089">
        <ele>730</ele>
        <time>2020-09-06T08:05:11.356Z</time>
      </trkpt>
      <trkpt lat="48.40878" lon="7.30891">
        <ele>731</ele>
        <time>2020-09-06T08:05:12.356Z</time>
      </trkpt>
      <trkpt lat="48.40877" lon="7.30893">
        <ele>732</ele>
        <time>2020-09-06T08:05:13.356Z</time>
      </trkpt>
      <trkpt lat="48.40876" lon="7.30894">
        <ele>733</ele>
        <time>2020-09-06T08:05:14.356Z</time>
      </trkpt>
      <trkpt lat="48.40876" lon="7.30896">
        <ele>733</ele>
        <time>2020-09-06T08:05:15.356Z</time>
      </trkpt>
      <trkpt lat="48.40875" lon="7.30898">
        <ele>734</ele>
        <time>2020-09-06T08:05:16.355Z</time>
      </trkpt>
      <trkpt lat="48.40874" lon="7.309">
        <ele>733</ele>
        <time>2020-09-06T08:05:17.356Z</time>
      </trkpt>
      <trkpt lat="48.40873" lon="7.30902">
        <ele>733</ele>
        <time>2020-09-06T08:05:18.355Z</time>
      </trkpt>
      <trkpt lat="48.40872" lon="7.30903">
        <ele>733</ele>
        <time>2020-09-06T08:05:19.356Z</time>
      </trkpt>
      <trkpt lat="48.40872" lon="7.30905">
        <ele>733</ele>
        <time>2020-09-06T08:05:20.356Z</time>
      </trkpt>
      <trkpt lat="48.40872" lon="7.30906">
        <ele>733</ele>
        <time>2020-09-06T08:05:21.356Z</time>
      </trkpt>
      <trkpt lat="48.40871" lon="7.30909">
        <ele>733</ele>
        <time>2020-09-06T08:05:22.356Z</time>
      </trkpt>
      <trkpt lat="48.40871" lon="7.30911">
        <ele>733</ele>
        <time>2020-09-06T08:05:23.356Z</time>
      </trkpt>
      <trkpt lat="48.40869" lon="7.30915">
        <ele>734</ele>
        <time>2020-09-06T08:05:24.356Z</time>
      </trkpt>
      <trkpt lat="48.40869" lon="7.30919">
        <ele>734</ele>
        <time>2020-09-06T08:05:25.356Z</time>
      </trkpt>
      <trkpt lat="48.40868" lon="7.30922">
        <ele>734</ele>
        <time>2020-09-06T08:05:26.356Z</time>
      </trkpt>
      <trkpt lat="48.40868" lon="7.30924">
        <ele>735</ele>
        <time>2020-09-06T08:05:27.356Z</time>
      </trkpt>
      <trkpt lat="48.40867" lon="7.30926">
        <ele>735</ele>
        <time>2020-09-06T08:05:28.356Z</time>
      </trkpt>
      <trkpt lat="48.40867" lon="7.30928">
        <ele>736</ele>
        <time>2020-09-06T08:05:29.356Z</time>
      </trkpt>
      <trkpt lat="48.40866" lon="7.30932">
        <ele>737</ele>
        <time>2020-09-06T08:05:30.355Z</time>
      </trkpt>
      <trkpt lat="48.40867" lon="7.30934">
        <ele>737</ele>
        <time>2020-09-06T08:05:31.356Z</time>
      </trkpt>
      <trkpt lat="48.40866" lon="7.30936">
        <ele>737</ele>
        <time>2020-09-06T08:05:32.356Z</time>
      </trkpt>
      <trkpt lat="48.40865" lon="7.30939">
        <ele>737</ele>
        <time>2020-09-06T08:05:33.356Z</time>
      </trkpt>
      <trkpt lat="48.40865" lon="7.30941">
        <ele>737</ele>
        <time>2020-09-06T08:05:34.355Z</time>
      </trkpt>
      <trkpt lat="48.40864" lon="7.30942">
        <ele>737</ele>
        <time>2020-09-06T08:05:35.356Z</time>
      </trkpt>
      <trkpt lat="48.40863" lon="7.30944">
        <ele>738</ele>
        <time>2020-09-06T08:05:36.356Z</time>
      </trkpt>
      <trkpt lat="48.40863" lon="7.30945">
        <ele>738</ele>
        <time>2020-09-06T08:05:37.356Z</time>
      </trkpt>
      <trkpt lat="48.40862" lon="7.30946">
        <ele>739</ele>
        <time>2020-09-06T08:05:38.356Z</time>
      </trkpt>
      <trkpt lat="48.40862" lon="7.30948">
        <ele>739</ele>
        <time>2020-09-06T08:05:39.356Z</time>
      </trkpt>
      <trkpt lat="48.40863" lon="7.30949">
        <ele>740</ele>
        <time>2020-09-06T08:05:40.356Z</time>
      </trkpt>
      <trkpt lat="48.40863" lon="7.30951">
        <ele>740</ele>
        <time>2020-09-06T08:05:41.356Z</time>
      </trkpt>
      <trkpt lat="48.40863" lon="7.30952">
        <ele>740</ele>
        <time>2020-09-06T08:05:42.355Z</time>
      </trkpt>
      <trkpt lat="48.40863" lon="7.30954">
        <ele>740</ele>
        <time>2020-09-06T08:05:43.356Z</time>
      </trkpt>
      <trkpt lat="48.40863" lon="7.30956">
        <ele>740</ele>
        <time>2020-09-06T08:05:44.356Z</time>
      </trkpt>
      <trkpt lat="48.40863" lon="7.30957">
        <ele>740</ele>
        <time>2020-09-06T08:05:45.356Z</time>
      </trkpt>
      <trkpt lat="48.40863" lon="7.30957">
        <ele>740</ele>
        <time>2020-09-06T08:05:46.356Z</time>
      </trkpt>
      <trkpt lat="48.40863" lon="7.30958">
        <ele>740</ele>
        <time>2020-09-06T08:05:47.356Z</time>
      </trkpt>
      <trkpt lat="48.40862" lon="7.3096">
        <ele>739</ele>
        <time>2020-09-06T08:05:48.356Z</time>
      </trkpt>
      <trkpt lat="48.40862" lon="7.30961">
        <ele>739</ele>
        <time>2020-09-06T08:05:49.355Z</time>
      </trkpt>
      <trkpt lat="48.40861" lon="7.30963">
        <ele>739</ele>
        <time>2020-09-06T08:05:50.356Z</time>
      </trkpt>
      <trkpt lat="48.40861" lon="7.30964">
        <ele>739</ele>
        <time>2020-09-06T08:05:51.356Z</time>
      </trkpt>
      <trkpt lat="48.4086" lon="7.30965">
        <ele>740</ele>
        <time>2020-09-06T08:05:52.356Z</time>
      </trkpt>
      <trkpt lat="48.40859" lon="7.30967">
        <ele>740</ele>
        <time>2020-09-06T08:05:53.355Z</time>
      </trkpt>
      <trkpt lat="48.40858" lon="7.30968">
        <ele>740</ele>
        <time>2020-09-06T08:05:54.356Z</time>
      </trkpt>
      <trkpt lat="48.40859" lon="7.30969">
        <ele>741</ele>
        <time>2020-09-06T08:05:55.356Z</time>
      </trkpt>
      <trkpt lat="48.40858" lon="7.30972">
        <ele>741</ele>
        <time>2020-09-06T08:05:56.356Z</time>
      </trkpt>
      <trkpt lat="48.40857" lon="7.30975">
        <ele>741</ele>
        <time>2020-09-06T08:05:57.356Z</time>
      </trkpt>
      <trkpt lat="48.40857" lon="7.30977">
        <ele>741</ele>
        <time>2020-09-06T08:05:58.356Z</time>
      </trkpt>
      <trkpt lat="48.40858" lon="7.30979">
        <ele>741</ele>
        <time>2020-09-06T08:05:59.356Z</time>
      </trkpt>
      <trkpt lat="48.40858" lon="7.3098">
        <ele>741</ele>
        <time>2020-09-06T08:06:00.355Z</time>
      </trkpt>
      <trkpt lat="48.40858" lon="7.30981">
        <ele>741</ele>
        <time>2020-09-06T08:06:01.356Z</time>
      </trkpt>
      <trkpt lat="48.40858" lon="7.30983">
        <ele>742</ele>
        <time>2020-09-06T08:06:02.356Z</time>
      </trkpt>
      <trkpt lat="48.40858" lon="7.30984">
        <ele>742</ele>
        <time>2020-09-06T08:06:03.356Z</time>
      </trkpt>
      <trkpt lat="48.40858" lon="7.30985">
        <ele>743</ele>
        <time>2020-09-06T08:06:04.356Z</time>
      </trkpt>
      <trkpt lat="48.40857" lon="7.30987">
        <ele>743</ele>
        <time>2020-09-06T08:06:05.356Z</time>
      </trkpt>
      <trkpt lat="48.40856" lon="7.30988">
        <ele>744</ele>
        <time>2020-09-06T08:06:06.356Z</time>
      </trkpt>
      <trkpt lat="48.40855" lon="7.3099">
        <ele>745</ele>
        <time>2020-09-06T08:06:07.356Z</time>
      </trkpt>
      <trkpt lat="48.40854" lon="7.30992">
        <ele>746</ele>
        <time>2020-09-06T08:06:08.356Z</time>
      </trkpt>
      <trkpt lat="48.40854" lon="7.30994">
        <ele>746</ele>
        <time>2020-09-06T08:06:09.356Z</time>
      </trkpt>
      <trkpt lat="48.40853" lon="7.30995">
        <ele>747</ele>
        <time>2020-09-06T08:06:10.356Z</time>
      </trkpt>
      <trkpt lat="48.40853" lon="7.30997">
        <ele>747</ele>
        <time>2020-09-06T08:06:11.356Z</time>
      </trkpt>
      <trkpt lat="48.40852" lon="7.30998">
        <ele>746</ele>
        <time>2020-09-06T08:06:12.356Z</time>
      </trkpt>
      <trkpt lat="48.40852" lon="7.31">
        <ele>746</ele>
        <time>2020-09-06T08:06:13.356Z</time>
      </trkpt>
      <trkpt lat="48.40851" lon="7.31003">
        <ele>745</ele>
        <time>2020-09-06T08:06:14.356Z</time>
      </trkpt>
      <trkpt lat="48.40851" lon="7.31005">
        <ele>745</ele>
        <time>2020-09-06T08:06:15.355Z</time>
      </trkpt>
      <trkpt lat="48.4085" lon="7.31007">
        <ele>744</ele>
        <time>2020-09-06T08:06:16.356Z</time>
      </trkpt>
      <trkpt lat="48.40849" lon="7.31008">
        <ele>744</ele>
        <time>2020-09-06T08:06:17.355Z</time>
      </trkpt>
      <trkpt lat="48.40849" lon="7.31009">
        <ele>743</ele>
        <time>2020-09-06T08:06:18.356Z</time>
      </trkpt>
      <trkpt lat="48.40848" lon="7.31011">
        <ele>743</ele>
        <time>2020-09-06T08:06:19.355Z</time>
      </trkpt>
      <trkpt lat="48.40847" lon="7.31012">
        <ele>743</ele>
        <time>2020-09-06T08:06:20.355Z</time>
      </trkpt>
      <trkpt lat="48.40846" lon="7.31013">
        <ele>742</ele>
        <time>2020-09-06T08:06:21.355Z</time>
      </trkpt>
      <trkpt lat="48.40846" lon="7.31014">
        <ele>742</ele>
        <time>2020-09-06T08:06:22.356Z</time>
      </trkpt>
      <trkpt lat="48.40846" lon="7.31015">
        <ele>742</ele>
        <time>2020-09-06T08:06:23.355Z</time>
      </trkpt>
      <trkpt lat="48.40845" lon="7.31016">
        <ele>742</ele>
        <time>2020-09-06T08:06:24.355Z</time>
      </trkpt>
      <trkpt lat="48.40845" lon="7.31018">
        <ele>741</ele>
        <time>2020-09-06T08:06:25.356Z</time>
      </trkpt>
      <trkpt lat="48.40846" lon="7.31019">
        <ele>741</ele>
        <time>2020-09-06T08:06:26.356Z</time>
      </trkpt>
      <trkpt lat="48.40847" lon="7.3102">
        <ele>741</ele>
        <time>2020-09-06T08:06:27.356Z</time>
      </trkpt>
      <trkpt lat="48.40847" lon="7.31022">
        <ele>740</ele>
        <time>2020-09-06T08:06:28.356Z</time>
      </trkpt>
      <trkpt lat="48.40848" lon="7.31023">
        <ele>740</ele>
        <time>2020-09-06T08:06:29.356Z</time>
      </trkpt>
      <trkpt lat="48.40849" lon="7.31024">
        <ele>739</ele>
        <time>2020-09-06T08:06:30.356Z</time>
      </trkpt>
      <trkpt lat="48.40848" lon="7.31024">
        <ele>739</ele>
        <time>2020-09-06T08:06:31.356Z</time>
      </trkpt>
      <trkpt lat="48.40847" lon="7.31026">
        <ele>738</ele>
        <time>2020-09-06T08:06:32.356Z</time>
      </trkpt>
      <trkpt lat="48.40846" lon="7.31027">
        <ele>737</ele>
        <time>2020-09-06T08:06:33.356Z</time>
      </trkpt>
      <trkpt lat="48.40845" lon="7.31029">
        <ele>737</ele>
        <time>2020-09-06T08:06:34.355Z</time>
      </trkpt>
      <trkpt lat="48.40844" lon="7.3103">
        <ele>736</ele>
        <time>2020-09-06T08:06:35.356Z</time>
      </trkpt>
      <trkpt lat="48.40844" lon="7.31032">
        <ele>736</ele>
        <time>2020-09-06T08:06:36.356Z</time>
      </trkpt>
      <trkpt lat="48.40843" lon="7.31033">
        <ele>736</ele>
        <time>2020-09-06T08:06:37.356Z</time>
      </trkpt>
      <trkpt lat="48.40842" lon="7.31034">
        <ele>736</ele>
        <time>2020-09-06T08:06:38.356Z</time>
      </trkpt>
      <trkpt lat="48.40841" lon="7.31036">
        <ele>736</ele>
        <time>2020-09-06T08:06:39.356Z</time>
      </trkpt>
      <trkpt lat="48.40841" lon="7.31037">
        <ele>736</ele>
        <time>2020-09-06T08:06:40.356Z</time>
      </trkpt>
      <trkpt lat="48.4084" lon="7.31039">
        <ele>736</ele>
        <time>2020-09-06T08:06:41.356Z</time>
      </trkpt>
      <trkpt lat="48.40839" lon="7.3104">
        <ele>736</ele>
        <time>2020-09-06T08:06:42.356Z</time>
      </trkpt>
      <trkpt lat="48.40839" lon="7.31042">
        <ele>736</ele>
        <time>2020-09-06T08:06:43.356Z</time>
      </trkpt>
      <trkpt lat="48.40838" lon="7.31043">
        <ele>736</ele>
        <time>2020-09-06T08:06:44.356Z</time>
      </trkpt>
      <trkpt lat="48.40836" lon="7.31046">
        <ele>736</ele>
        <time>2020-09-06T08:06:45.355Z</time>
      </trkpt>
      <trkpt lat="48.40835" lon="7.31048">
        <ele>736</ele>
        <time>2020-09-06T08:06:46.356Z</time>
      </trkpt>
      <trkpt lat="48.40834" lon="7.3105">
        <ele>737</ele>
        <time>2020-09-06T08:06:47.356Z</time>
      </trkpt>
      <trkpt lat="48.40833" lon="7.31051">
        <ele>737</ele>
        <time>2020-09-06T08:06:48.356Z</time>
      </trkpt>
      <trkpt lat="48.40832" lon="7.31053">
        <ele>737</ele>
        <time>2020-09-06T08:06:49.356Z</time>
      </trkpt>
      <trkpt lat="48.40831" lon="7.31054">
        <ele>737</ele>
        <time>2020-09-06T08:06:50.356Z</time>
      </trkpt>
      <trkpt lat="48.4083" lon="7.31055">
        <ele>737</ele>
        <time>2020-09-06T08:06:51.356Z</time>
      </trkpt>
      <trkpt lat="48.40829" lon="7.31057">
        <ele>736</ele>
        <time>2020-09-06T08:06:52.355Z</time>
      </trkpt>
      <trkpt lat="48.40829" lon="7.31058">
        <ele>736</ele>
        <time>2020-09-06T08:06:53.356Z</time>
      </trkpt>
      <trkpt lat="48.40828" lon="7.31059">
        <ele>736</ele>
        <time>2020-09-06T08:06:54.355Z</time>
      </trkpt>
      <trkpt lat="48.40827" lon="7.31061">
        <ele>735</ele>
        <time>2020-09-06T08:06:55.356Z</time>
      </trkpt>
      <trkpt lat="48.40827" lon="7.31063">
        <ele>735</ele>
        <time>2020-09-06T08:06:56.356Z</time>
      </trkpt>
      <trkpt lat="48.40826" lon="7.31064">
        <ele>734</ele>
        <time>2020-09-06T08:06:57.356Z</time>
      </trkpt>
      <trkpt lat="48.40825" lon="7.31066">
        <ele>734</ele>
        <time>2020-09-06T08:06:58.355Z</time>
      </trkpt>
      <trkpt lat="48.40824" lon="7.31068">
        <ele>734</ele>
        <time>2020-09-06T08:06:59.356Z</time>
      </trkpt>
      <trkpt lat="48.40823" lon="7.3107">
        <ele>734</ele>
        <time>2020-09-06T08:07:00.356Z</time>
      </trkpt>
      <trkpt lat="48.40823" lon="7.31071">
        <ele>735</ele>
        <time>2020-09-06T08:07:01.356Z</time>
      </trkpt>
      <trkpt lat="48.40822" lon="7.31072">
        <ele>735</ele>
        <time>2020-09-06T08:07:02.356Z</time>
      </trkpt>
      <trkpt lat="48.40821" lon="7.31074">
        <ele>735</ele>
        <time>2020-09-06T08:07:03.356Z</time>
      </trkpt>
      <trkpt lat="48.4082" lon="7.31076">
        <ele>735</ele>
        <time>2020-09-06T08:07:04.355Z</time>
      </trkpt>
      <trkpt lat="48.40819" lon="7.31077">
        <ele>735</ele>
        <time>2020-09-06T08:07:05.355Z</time>
      </trkpt>
      <trkpt lat="48.40819" lon="7.31078">
        <ele>734</ele>
        <time>2020-09-06T08:07:06.355Z</time>
      </trkpt>
      <trkpt lat="48.40818" lon="7.31079">
        <ele>734</ele>
        <time>2020-09-06T08:07:07.356Z</time>
      </trkpt>
      <trkpt lat="48.40817" lon="7.3108">
        <ele>734</ele>
        <time>2020-09-06T08:07:08.356Z</time>
      </trkpt>
      <trkpt lat="48.40816" lon="7.31081">
        <ele>734</ele>
        <time>2020-09-06T08:07:09.356Z</time>
      </trkpt>
      <trkpt lat="48.40815" lon="7.31082">
        <ele>734</ele>
        <time>2020-09-06T08:07:10.356Z</time>
      </trkpt>
      <trkpt lat="48.40814" lon="7.31083">
        <ele>734</ele>
        <time>2020-09-06T08:07:11.356Z</time>
      </trkpt>
      <trkpt lat="48.40814" lon="7.31085">
        <ele>735</ele>
        <time>2020-09-06T08:07:12.356Z</time>
      </trkpt>
      <trkpt lat="48.40813" lon="7.31086">
        <ele>735</ele>
        <time>2020-09-06T08:07:13.355Z</time>
      </trkpt>
      <trkpt lat="48.40812" lon="7.31088">
        <ele>736</ele>
        <time>2020-09-06T08:07:14.356Z</time>
      </trkpt>
      <trkpt lat="48.40811" lon="7.31089">
        <ele>737</ele>
        <time>2020-09-06T08:07:15.355Z</time>
      </trkpt>
      <trkpt lat="48.4081" lon="7.3109">
        <ele>738</ele>
        <time>2020-09-06T08:07:16.356Z</time>
      </trkpt>
      <trkpt lat="48.40809" lon="7.31091">
        <ele>738</ele>
        <time>2020-09-06T08:07:17.355Z</time>
      </trkpt>
      <trkpt lat="48.40808" lon="7.31092">
        <ele>738</ele>
        <time>2020-09-06T08:07:18.356Z</time>
      </trkpt>
      <trkpt lat="48.40807" lon="7.31094">
        <ele>739</ele>
        <time>2020-09-06T08:07:19.356Z</time>
      </trkpt>
      <trkpt lat="48.40807" lon="7.31095">
        <ele>739</ele>
        <time>2020-09-06T08:07:20.355Z</time>
      </trkpt>
      <trkpt lat="48.40806" lon="7.31096">
        <ele>740</ele>
        <time>2020-09-06T08:07:21.356Z</time>
      </trkpt>
      <trkpt lat="48.40805" lon="7.31098">
        <ele>741</ele>
        <time>2020-09-06T08:07:22.356Z</time>
      </trkpt>
      <trkpt lat="48.40804" lon="7.311">
        <ele>741</ele>
        <time>2020-09-06T08:07:23.356Z</time>
      </trkpt>
      <trkpt lat="48.40803" lon="7.31101">
        <ele>742</ele>
        <time>2020-09-06T08:07:24.356Z</time>
      </trkpt>
      <trkpt lat="48.40803" lon="7.31103">
        <ele>742</ele>
        <time>2020-09-06T08:07:25.356Z</time>
      </trkpt>
      <trkpt lat="48.40802" lon="7.31104">
        <ele>742</ele>
        <time>2020-09-06T08:07:26.355Z</time>
      </trkpt>
      <trkpt lat="48.40801" lon="7.31105">
        <ele>742</ele>
        <time>2020-09-06T08:07:27.356Z</time>
      </trkpt>
      <trkpt lat="48.40801" lon="7.31106">
        <ele>742</ele>
        <time>2020-09-06T08:07:28.356Z</time>
      </trkpt>
      <trkpt lat="48.408" lon="7.31107">
        <ele>742</ele>
        <time>2020-09-06T08:07:29.356Z</time>
      </trkpt>
      <trkpt lat="48.408" lon="7.31108">
        <ele>742</ele>
        <time>2020-09-06T08:07:30.356Z</time>
      </trkpt>
      <trkpt lat="48.408" lon="7.31109">
        <ele>742</ele>
        <time>2020-09-06T08:07:31.356Z</time>
      </trkpt>
      <trkpt lat="48.40799" lon="7.3111">
        <ele>743</ele>
        <time>2020-09-06T08:07:32.356Z</time>
      </trkpt>
      <trkpt lat="48.40799" lon="7.31112">
        <ele>743</ele>
        <time>2020-09-06T08:07:33.356Z</time>
      </trkpt>
      <trkpt lat="48.40798" lon="7.31113">
        <ele>743</ele>
        <time>2020-09-06T08:07:34.355Z</time>
      </trkpt>
      <trkpt lat="48.40797" lon="7.31114">
        <ele>743</ele>
        <time>2020-09-06T08:07:35.355Z</time>
      </trkpt>
      <trkpt lat="48.40795" lon="7.31116">
        <ele>743</ele>
        <time>2020-09-06T08:07:36.356Z</time>
      </trkpt>
      <trkpt lat="48.40794" lon="7.31117">
        <ele>743</ele>
        <time>2020-09-06T08:07:37.356Z</time>
      </trkpt>
      <trkpt lat="48.40793" lon="7.31118">
        <ele>743</ele>
        <time>2020-09-06T08:07:38.356Z</time>
      </trkpt>
      <trkpt lat="48.40793" lon="7.31119">
        <ele>743</ele>
        <time>2020-09-06T08:07:39.356Z</time>
      </trkpt>
      <trkpt lat="48.40793" lon="7.3112">
        <ele>742</ele>
        <time>2020-09-06T08:07:40.355Z</time>
      </trkpt>
      <trkpt lat="48.40792" lon="7.31121">
        <ele>742</ele>
        <time>2020-09-06T08:07:41.356Z</time>
      </trkpt>
      <trkpt lat="48.40792" lon="7.31122">
        <ele>742</ele>
        <time>2020-09-06T08:07:42.356Z</time>
      </trkpt>
      <trkpt lat="48.40791" lon="7.31123">
        <ele>742</ele>
        <time>2020-09-06T08:07:43.356Z</time>
      </trkpt>
      <trkpt lat="48.40792" lon="7.31124">
        <ele>742</ele>
        <time>2020-09-06T08:07:44.356Z</time>
      </trkpt>
      <trkpt lat="48.40792" lon="7.31125">
        <ele>741</ele>
        <time>2020-09-06T08:07:45.356Z</time>
      </trkpt>
      <trkpt lat="48.40791" lon="7.31126">
        <ele>741</ele>
        <time>2020-09-06T08:07:46.356Z</time>
      </trkpt>
      <trkpt lat="48.40791" lon="7.31128">
        <ele>741</ele>
        <time>2020-09-06T08:07:47.356Z</time>
      </trkpt>
      <trkpt lat="48.40791" lon="7.3113">
        <ele>740</ele>
        <time>2020-09-06T08:07:48.356Z</time>
      </trkpt>
      <trkpt lat="48.4079" lon="7.31131">
        <ele>740</ele>
        <time>2020-09-06T08:07:49.356Z</time>
      </trkpt>
      <trkpt lat="48.40789" lon="7.31133">
        <ele>739</ele>
        <time>2020-09-06T08:07:50.356Z</time>
      </trkpt>
      <trkpt lat="48.4079" lon="7.31134">
        <ele>738</ele>
        <time>2020-09-06T08:07:51.356Z</time>
      </trkpt>
      <trkpt lat="48.4079" lon="7.31136">
        <ele>737</ele>
        <time>2020-09-06T08:07:52.356Z</time>
      </trkpt>
      <trkpt lat="48.4079" lon="7.31138">
        <ele>736</ele>
        <time>2020-09-06T08:07:53.356Z</time>
      </trkpt>
      <trkpt lat="48.4079" lon="7.3114">
        <ele>736</ele>
        <time>2020-09-06T08:07:54.356Z</time>
      </trkpt>
      <trkpt lat="48.40791" lon="7.31142">
        <ele>735</ele>
        <time>2020-09-06T08:07:55.356Z</time>
      </trkpt>
      <trkpt lat="48.40791" lon="7.31144">
        <ele>734</ele>
        <time>2020-09-06T08:07:56.356Z</time>
      </trkpt>
      <trkpt lat="48.40791" lon="7.31146">
        <ele>734</ele>
        <time>2020-09-06T08:07:57.356Z</time>
      </trkpt>
      <trkpt lat="48.40791" lon="7.31147">
        <ele>733</ele>
        <time>2020-09-06T08:07:58.356Z</time>
      </trkpt>
      <trkpt lat="48.4079" lon="7.31149">
        <ele>733</ele>
        <time>2020-09-06T08:07:59.355Z</time>
      </trkpt>
      <trkpt lat="48.4079" lon="7.3115">
        <ele>733</ele>
        <time>2020-09-06T08:08:00.355Z</time>
      </trkpt>
      <trkpt lat="48.40789" lon="7.31152">
        <ele>733</ele>
        <time>2020-09-06T08:08:01.355Z</time>
      </trkpt>
      <trkpt lat="48.40789" lon="7.31155">
        <ele>733</ele>
        <time>2020-09-06T08:08:02.355Z</time>
      </trkpt>
      <trkpt lat="48.40789" lon="7.31157">
        <ele>733</ele>
        <time>2020-09-06T08:08:03.356Z</time>
      </trkpt>
      <trkpt lat="48.40789" lon="7.31159">
        <ele>733</ele>
        <time>2020-09-06T08:08:04.355Z</time>
      </trkpt>
      <trkpt lat="48.40788" lon="7.3116">
        <ele>733</ele>
        <time>2020-09-06T08:08:05.355Z</time>
      </trkpt>
      <trkpt lat="48.40788" lon="7.31162">
        <ele>733</ele>
        <time>2020-09-06T08:08:06.356Z</time>
      </trkpt>
      <trkpt lat="48.40788" lon="7.31164">
        <ele>733</ele>
        <time>2020-09-06T08:08:07.355Z</time>
      </trkpt>
      <trkpt lat="48.40788" lon="7.31167">
        <ele>733</ele>
        <time>2020-09-06T08:08:08.356Z</time>
      </trkpt>
      <trkpt lat="48.40789" lon="7.3117">
        <ele>733</ele>
        <time>2020-09-06T08:08:09.355Z</time>
      </trkpt>
      <trkpt lat="48.4079" lon="7.31172">
        <ele>733</ele>
        <time>2020-09-06T08:08:10.356Z</time>
      </trkpt>
      <trkpt lat="48.40792" lon="7.31173">
        <ele>733</ele>
        <time>2020-09-06T08:08:11.356Z</time>
      </trkpt>
      <trkpt lat="48.40793" lon="7.31174">
        <ele>734</ele>
        <time>2020-09-06T08:08:12.355Z</time>
      </trkpt>
      <trkpt lat="48.40794" lon="7.31176">
        <ele>734</ele>
        <time>2020-09-06T08:08:13.355Z</time>
      </trkpt>
      <trkpt lat="48.40794" lon="7.31177">
        <ele>735</ele>
        <time>2020-09-06T08:08:14.355Z</time>
      </trkpt>
      <trkpt lat="48.40794" lon="7.31179">
        <ele>735</ele>
        <time>2020-09-06T08:08:15.355Z</time>
      </trkpt>
      <trkpt lat="48.40794" lon="7.31182">
        <ele>736</ele>
        <time>2020-09-06T08:08:16.356Z</time>
      </trkpt>
      <trkpt lat="48.40794" lon="7.31184">
        <ele>736</ele>
        <time>2020-09-06T08:08:17.355Z</time>
      </trkpt>
      <trkpt lat="48.40794" lon="7.31186">
        <ele>737</ele>
        <time>2020-09-06T08:08:18.355Z</time>
      </trkpt>
      <trkpt lat="48.40794" lon="7.31188">
        <ele>737</ele>
        <time>2020-09-06T08:08:19.355Z</time>
      </trkpt>
      <trkpt lat="48.40794" lon="7.31189">
        <ele>738</ele>
        <time>2020-09-06T08:08:20.355Z</time>
      </trkpt>
      <trkpt lat="48.40795" lon="7.31191">
        <ele>738</ele>
        <time>2020-09-06T08:08:21.355Z</time>
      </trkpt>
      <trkpt lat="48.40795" lon="7.31193">
        <ele>738</ele>
        <time>2020-09-06T08:08:22.356Z</time>
      </trkpt>
      <trkpt lat="48.40795" lon="7.31195">
        <ele>738</ele>
        <time>2020-09-06T08:08:23.356Z</time>
      </trkpt>
      <trkpt lat="48.40795" lon="7.31197">
        <ele>738</ele>
        <time>2020-09-06T08:08:24.355Z</time>
      </trkpt>
      <trkpt lat="48.40796" lon="7.31199">
        <ele>739</ele>
        <time>2020-09-06T08:08:25.355Z</time>
      </trkpt>
      <trkpt lat="48.40797" lon="7.312">
        <ele>739</ele>
        <time>2020-09-06T08:08:26.355Z</time>
      </trkpt>
      <trkpt lat="48.40798" lon="7.31202">
        <ele>740</ele>
        <time>2020-09-06T08:08:27.356Z</time>
      </trkpt>
      <trkpt lat="48.40799" lon="7.31204">
        <ele>740</ele>
        <time>2020-09-06T08:08:28.355Z</time>
      </trkpt>
      <trkpt lat="48.408" lon="7.31205">
        <ele>740</ele>
        <time>2020-09-06T08:08:29.355Z</time>
      </trkpt>
      <trkpt lat="48.408" lon="7.31207">
        <ele>741</ele>
        <time>2020-09-06T08:08:30.356Z</time>
      </trkpt>
      <trkpt lat="48.408" lon="7.31208">
        <ele>741</ele>
        <time>2020-09-06T08:08:31.355Z</time>
      </trkpt>
      <trkpt lat="48.40801" lon="7.3121">
        <ele>741</ele>
        <time>2020-09-06T08:08:32.356Z</time>
      </trkpt>
      <trkpt lat="48.40801" lon="7.31212">
        <ele>741</ele>
        <time>2020-09-06T08:08:33.355Z</time>
      </trkpt>
      <trkpt lat="48.40802" lon="7.31213">
        <ele>741</ele>
        <time>2020-09-06T08:08:34.355Z</time>
      </trkpt>
      <trkpt lat="48.40803" lon="7.31215">
        <ele>741</ele>
        <time>2020-09-06T08:08:35.355Z</time>
      </trkpt>
      <trkpt lat="48.40805" lon="7.31217">
        <ele>741</ele>
        <time>2020-09-06T08:08:36.355Z</time>
      </trkpt>
      <trkpt lat="48.40806" lon="7.31218">
        <ele>741</ele>
        <time>2020-09-06T08:08:37.355Z</time>
      </trkpt>
      <trkpt lat="48.40806" lon="7.31219">
        <ele>741</ele>
        <time>2020-09-06T08:08:38.356Z</time>
      </trkpt>
      <trkpt lat="48.40807" lon="7.31221">
        <ele>741</ele>
        <time>2020-09-06T08:08:39.355Z</time>
      </trkpt>
      <trkpt lat="48.40807" lon="7.31222">
        <ele>741</ele>
        <time>2020-09-06T08:08:40.355Z</time>
      </trkpt>
      <trkpt lat="48.40808" lon="7.31223">
        <ele>741</ele>
        <time>2020-09-06T08:08:41.355Z</time>
      </trkpt>
      <trkpt lat="48.40809" lon="7.31224">
        <ele>741</ele>
        <time>2020-09-06T08:08:42.355Z</time>
      </trkpt>
      <trkpt lat="48.4081" lon="7.31225">
        <ele>741</ele>
        <time>2020-09-06T08:08:43.355Z</time>
      </trkpt>
      <trkpt lat="48.40811" lon="7.31227">
        <ele>742</ele>
        <time>2020-09-06T08:08:44.355Z</time>
      </trkpt>
      <trkpt lat="48.40812" lon="7.31229">
        <ele>742</ele>
        <time>2020-09-06T08:08:45.355Z</time>
      </trkpt>
      <trkpt lat="48.40813" lon="7.3123">
        <ele>742</ele>
        <time>2020-09-06T08:08:46.355Z</time>
      </trkpt>
      <trkpt lat="48.40814" lon="7.31232">
        <ele>742</ele>
        <time>2020-09-06T08:08:47.356Z</time>
      </trkpt>
      <trkpt lat="48.40814" lon="7.31234">
        <ele>742</ele>
        <time>2020-09-06T08:08:48.355Z</time>
      </trkpt>
      <trkpt lat="48.40815" lon="7.31235">
        <ele>743</ele>
        <time>2020-09-06T08:08:49.355Z</time>
      </trkpt>
      <trkpt lat="48.40815" lon="7.31236">
        <ele>743</ele>
        <time>2020-09-06T08:08:50.355Z</time>
      </trkpt>
      <trkpt lat="48.40815" lon="7.31237">
        <ele>743</ele>
        <time>2020-09-06T08:08:51.355Z</time>
      </trkpt>
      <trkpt lat="48.40815" lon="7.31238">
        <ele>744</ele>
        <time>2020-09-06T08:08:52.356Z</time>
      </trkpt>
      <trkpt lat="48.40815" lon="7.31239">
        <ele>744</ele>
        <time>2020-09-06T08:08:53.355Z</time>
      </trkpt>
      <trkpt lat="48.40816" lon="7.3124">
        <ele>744</ele>
        <time>2020-09-06T08:08:54.355Z</time>
      </trkpt>
      <trkpt lat="48.40817" lon="7.31241">
        <ele>744</ele>
        <time>2020-09-06T08:08:55.355Z</time>
      </trkpt>
      <trkpt lat="48.40818" lon="7.31243">
        <ele>744</ele>
        <time>2020-09-06T08:08:56.355Z</time>
      </trkpt>
      <trkpt lat="48.40819" lon="7.31244">
        <ele>744</ele>
        <time>2020-09-06T08:08:57.355Z</time>
      </trkpt>
      <trkpt lat="48.4082" lon="7.31245">
        <ele>745</ele>
        <time>2020-09-06T08:08:58.355Z</time>
      </trkpt>
      <trkpt lat="48.4082" lon="7.31247">
        <ele>745</ele>
        <time>2020-09-06T08:08:59.355Z</time>
      </trkpt>
      <trkpt lat="48.40821" lon="7.31249">
        <ele>745</ele>
        <time>2020-09-06T08:09:00.355Z</time>
      </trkpt>
      <trkpt lat="48.40821" lon="7.3125">
        <ele>745</ele>
        <time>2020-09-06T08:09:01.355Z</time>
      </trkpt>
      <trkpt lat="48.40822" lon="7.31252">
        <ele>746</ele>
        <time>2020-09-06T08:09:02.355Z</time>
      </trkpt>
      <trkpt lat="48.40822" lon="7.31253">
        <ele>746</ele>
        <time>2020-09-06T08:09:03.355Z</time>
      </trkpt>
      <trkpt lat="48.40823" lon="7.31255">
        <ele>746</ele>
        <time>2020-09-06T08:09:04.355Z</time>
      </trkpt>
      <trkpt lat="48.40823" lon="7.31256">
        <ele>746</ele>
        <time>2020-09-06T08:09:05.356Z</time>
      </trkpt>
      <trkpt lat="48.40823" lon="7.31258">
        <ele>746</ele>
        <time>2020-09-06T08:09:06.355Z</time>
      </trkpt>
      <trkpt lat="48.40824" lon="7.31259">
        <ele>746</ele>
        <time>2020-09-06T08:09:07.356Z</time>
      </trkpt>
      <trkpt lat="48.40824" lon="7.3126">
        <ele>746</ele>
        <time>2020-09-06T08:09:08.356Z</time>
      </trkpt>
      <trkpt lat="48.40825" lon="7.31261">
        <ele>746</ele>
        <time>2020-09-06T08:09:09.356Z</time>
      </trkpt>
      <trkpt lat="48.40826" lon="7.31262">
        <ele>746</ele>
        <time>2020-09-06T08:09:10.356Z</time>
      </trkpt>
      <trkpt lat="48.40826" lon="7.31264">
        <ele>747</ele>
        <time>2020-09-06T08:09:11.356Z</time>
      </trkpt>
      <trkpt lat="48.40826" lon="7.31264">
        <ele>747</ele>
        <time>2020-09-06T08:09:12.356Z</time>
      </trkpt>
      <trkpt lat="48.40827" lon="7.31265">
        <ele>746</ele>
        <time>2020-09-06T08:09:13.356Z</time>
      </trkpt>
      <trkpt lat="48.40828" lon="7.31265">
        <ele>746</ele>
        <time>2020-09-06T08:09:14.355Z</time>
      </trkpt>
      <trkpt lat="48.40829" lon="7.31267">
        <ele>746</ele>
        <time>2020-09-06T08:09:15.356Z</time>
      </trkpt>
      <trkpt lat="48.40831" lon="7.31268">
        <ele>745</ele>
        <time>2020-09-06T08:09:16.356Z</time>
      </trkpt>
      <trkpt lat="48.40832" lon="7.31269">
        <ele>745</ele>
        <time>2020-09-06T08:09:17.356Z</time>
      </trkpt>
      <trkpt lat="48.40834" lon="7.31271">
        <ele>744</ele>
        <time>2020-09-06T08:09:18.356Z</time>
      </trkpt>
      <trkpt lat="48.40835" lon="7.31272">
        <ele>744</ele>
        <time>2020-09-06T08:09:19.356Z</time>
      </trkpt>
      <trkpt lat="48.40835" lon="7.31273">
        <ele>744</ele>
        <time>2020-09-06T08:09:20.356Z</time>
      </trkpt>
      <trkpt lat="48.40836" lon="7.31273">
        <ele>744</ele>
        <time>2020-09-06T08:09:21.356Z</time>
      </trkpt>
      <trkpt lat="48.40836" lon="7.31274">
        <ele>743</ele>
        <time>2020-09-06T08:09:22.356Z</time>
      </trkpt>
      <trkpt lat="48.40837" lon="7.31275">
        <ele>743</ele>
        <time>2020-09-06T08:09:23.356Z</time>
      </trkpt>
      <trkpt lat="48.40838" lon="7.31277">
        <ele>743</ele>
        <time>2020-09-06T08:09:24.355Z</time>
      </trkpt>
      <trkpt lat="48.40839" lon="7.31278">
        <ele>743</ele>
        <time>2020-09-06T08:09:25.356Z</time>
      </trkpt>
      <trkpt lat="48.4084" lon="7.31279">
        <ele>743</ele>
        <time>2020-09-06T08:09:26.356Z</time>
      </trkpt>
      <trkpt lat="48.40841" lon="7.3128">
        <ele>743</ele>
        <time>2020-09-06T08:09:27.356Z</time>
      </trkpt>
      <trkpt lat="48.40843" lon="7.31282">
        <ele>743</ele>
        <time>2020-09-06T08:09:28.356Z</time>
      </trkpt>
      <trkpt lat="48.40845" lon="7.31284">
        <ele>742</ele>
        <time>2020-09-06T08:09:29.356Z</time>
      </trkpt>
      <trkpt lat="48.40846" lon="7.31285">
        <ele>742</ele>
        <time>2020-09-06T08:09:30.356Z</time>
      </trkpt>
      <trkpt lat="48.40847" lon="7.31287">
        <ele>742</ele>
        <time>2020-09-06T08:09:31.355Z</time>
      </trkpt>
      <trkpt lat="48.40847" lon="7.31289">
        <ele>743</ele>
        <time>2020-09-06T08:09:32.356Z</time>
      </trkpt>
      <trkpt lat="48.40847" lon="7.31289">
        <ele>742</ele>
        <time>2020-09-06T08:09:33.356Z</time>
      </trkpt>
      <trkpt lat="48.40848" lon="7.31291">
        <ele>742</ele>
        <time>2020-09-06T08:09:34.355Z</time>
      </trkpt>
      <trkpt lat="48.40849" lon="7.31292">
        <ele>742</ele>
        <time>2020-09-06T08:09:35.356Z</time>
      </trkpt>
      <trkpt lat="48.4085" lon="7.31294">
        <ele>742</ele>
        <time>2020-09-06T08:09:36.356Z</time>
      </trkpt>
      <trkpt lat="48.4085" lon="7.31295">
        <ele>742</ele>
        <time>2020-09-06T08:09:37.355Z</time>
      </trkpt>
      <trkpt lat="48.40851" lon="7.31297">
        <ele>742</ele>
        <time>2020-09-06T08:09:38.355Z</time>
      </trkpt>
      <trkpt lat="48.40852" lon="7.31298">
        <ele>742</ele>
        <time>2020-09-06T08:09:39.355Z</time>
      </trkpt>
      <trkpt lat="48.40853" lon="7.31299">
        <ele>742</ele>
        <time>2020-09-06T08:09:40.356Z</time>
      </trkpt>
      <trkpt lat="48.40854" lon="7.31301">
        <ele>741</ele>
        <time>2020-09-06T08:09:41.356Z</time>
      </trkpt>
      <trkpt lat="48.40855" lon="7.31302">
        <ele>741</ele>
        <time>2020-09-06T08:09:42.356Z</time>
      </trkpt>
      <trkpt lat="48.40857" lon="7.31303">
        <ele>741</ele>
        <time>2020-09-06T08:09:43.356Z</time>
      </trkpt>
      <trkpt lat="48.40857" lon="7.31304">
        <ele>741</ele>
        <time>2020-09-06T08:09:44.355Z</time>
      </trkpt>
      <trkpt lat="48.40857" lon="7.31305">
        <ele>740</ele>
        <time>2020-09-06T08:09:45.356Z</time>
      </trkpt>
      <trkpt lat="48.40857" lon="7.31306">
        <ele>740</ele>
        <time>2020-09-06T08:09:46.356Z</time>
      </trkpt>
      <trkpt lat="48.40858" lon="7.31307">
        <ele>741</ele>
        <time>2020-09-06T08:09:47.356Z</time>
      </trkpt>
      <trkpt lat="48.40858" lon="7.31309">
        <ele>741</ele>
        <time>2020-09-06T08:09:48.356Z</time>
      </trkpt>
      <trkpt lat="48.40858" lon="7.3131">
        <ele>742</ele>
        <time>2020-09-06T08:09:49.356Z</time>
      </trkpt>
      <trkpt lat="48.40859" lon="7.31311">
        <ele>742</ele>
        <time>2020-09-06T08:09:50.355Z</time>
      </trkpt>
      <trkpt lat="48.40861" lon="7.31313">
        <ele>742</ele>
        <time>2020-09-06T08:09:51.356Z</time>
      </trkpt>
      <trkpt lat="48.40862" lon="7.31314">
        <ele>742</ele>
        <time>2020-09-06T08:09:52.356Z</time>
      </trkpt>
      <trkpt lat="48.40863" lon="7.31315">
        <ele>742</ele>
        <time>2020-09-06T08:09:53.356Z</time>
      </trkpt>
      <trkpt lat="48.40863" lon="7.31316">
        <ele>742</ele>
        <time>2020-09-06T08:09:54.356Z</time>
      </trkpt>
      <trkpt lat="48.40864" lon="7.31317">
        <ele>742</ele>
        <time>2020-09-06T08:09:55.356Z</time>
      </trkpt>
      <trkpt lat="48.40864" lon="7.31319">
        <ele>742</ele>
        <time>2020-09-06T08:09:56.355Z</time>
      </trkpt>
      <trkpt lat="48.40865" lon="7.31321">
        <ele>742</ele>
        <time>2020-09-06T08:09:57.356Z</time>
      </trkpt>
      <trkpt lat="48.40866" lon="7.31323">
        <ele>742</ele>
        <time>2020-09-06T08:09:58.356Z</time>
      </trkpt>
      <trkpt lat="48.40867" lon="7.31325">
        <ele>743</ele>
        <time>2020-09-06T08:09:59.356Z</time>
      </trkpt>
      <trkpt lat="48.40868" lon="7.31327">
        <ele>743</ele>
        <time>2020-09-06T08:10:00.356Z</time>
      </trkpt>
      <trkpt lat="48.40869" lon="7.31329">
        <ele>743</ele>
        <time>2020-09-06T08:10:01.356Z</time>
      </trkpt>
      <trkpt lat="48.4087" lon="7.31331">
        <ele>744</ele>
        <time>2020-09-06T08:10:02.356Z</time>
      </trkpt>
      <trkpt lat="48.4087" lon="7.31333">
        <ele>744</ele>
        <time>2020-09-06T08:10:03.355Z</time>
      </trkpt>
      <trkpt lat="48.4087" lon="7.31334">
        <ele>745</ele>
        <time>2020-09-06T08:10:04.356Z</time>
      </trkpt>
      <trkpt lat="48.40871" lon="7.31336">
        <ele>745</ele>
        <time>2020-09-06T08:10:05.356Z</time>
      </trkpt>
      <trkpt lat="48.40872" lon="7.31337">
        <ele>745</ele>
        <time>2020-09-06T08:10:06.356Z</time>
      </trkpt>
      <trkpt lat="48.40873" lon="7.31338">
        <ele>744</ele>
        <time>2020-09-06T08:10:07.355Z</time>
      </trkpt>
      <trkpt lat="48.40875" lon="7.31339">
        <ele>744</ele>
        <time>2020-09-06T08:10:08.356Z</time>
      </trkpt>
      <trkpt lat="48.40876" lon="7.31341">
        <ele>744</ele>
        <time>2020-09-06T08:10:09.356Z</time>
      </trkpt>
      <trkpt lat="48.40877" lon="7.31342">
        <ele>744</ele>
        <time>2020-09-06T08:10:10.356Z</time>
      </trkpt>
      <trkpt lat="48.40878" lon="7.31343">
        <ele>744</ele>
        <time>2020-09-06T08:10:11.355Z</time>
      </trkpt>
      <trkpt lat="48.40879" lon="7.31344">
        <ele>744</ele>
        <time>2020-09-06T08:10:12.355Z</time>
      </trkpt>
      <trkpt lat="48.40879" lon="7.31345">
        <ele>743</ele>
        <time>2020-09-06T08:10:13.356Z</time>
      </trkpt>
      <trkpt lat="48.4088" lon="7.31346">
        <ele>743</ele>
        <time>2020-09-06T08:10:14.356Z</time>
      </trkpt>
      <trkpt lat="48.40882" lon="7.31346">
        <ele>743</ele>
        <time>2020-09-06T08:10:15.356Z</time>
      </trkpt>
      <trkpt lat="48.40883" lon="7.31348">
        <ele>743</ele>
        <time>2020-09-06T08:10:16.356Z</time>
      </trkpt>
      <trkpt lat="48.40884" lon="7.3135">
        <ele>743</ele>
        <time>2020-09-06T08:10:17.356Z</time>
      </trkpt>
      <trkpt lat="48.40884" lon="7.31351">
        <ele>743</ele>
        <time>2020-09-06T08:10:18.356Z</time>
      </trkpt>
      <trkpt lat="48.40885" lon="7.31352">
        <ele>743</ele>
        <time>2020-09-06T08:10:19.356Z</time>
      </trkpt>
      <trkpt lat="48.40885" lon="7.31353">
        <ele>743</ele>
        <time>2020-09-06T08:10:20.356Z</time>
      </trkpt>
      <trkpt lat="48.40886" lon="7.31355">
        <ele>744</ele>
        <time>2020-09-06T08:10:21.356Z</time>
      </trkpt>
      <trkpt lat="48.40887" lon="7.31355">
        <ele>744</ele>
        <time>2020-09-06T08:10:22.356Z</time>
      </trkpt>
      <trkpt lat="48.40887" lon="7.31357">
        <ele>744</ele>
        <time>2020-09-06T08:10:23.356Z</time>
      </trkpt>
      <trkpt lat="48.40888" lon="7.31358">
        <ele>744</ele>
        <time>2020-09-06T08:10:24.355Z</time>
      </trkpt>
      <trkpt lat="48.40888" lon="7.3136">
        <ele>744</ele>
        <time>2020-09-06T08:10:25.355Z</time>
      </trkpt>
      <trkpt lat="48.40889" lon="7.31361">
        <ele>745</ele>
        <time>2020-09-06T08:10:26.355Z</time>
      </trkpt>
      <trkpt lat="48.40889" lon="7.31362">
        <ele>745</ele>
        <time>2020-09-06T08:10:27.355Z</time>
      </trkpt>
      <trkpt lat="48.4089" lon="7.31363">
        <ele>745</ele>
        <time>2020-09-06T08:10:28.356Z</time>
      </trkpt>
      <trkpt lat="48.40892" lon="7.31364">
        <ele>745</ele>
        <time>2020-09-06T08:10:29.356Z</time>
      </trkpt>
      <trkpt lat="48.40893" lon="7.31365">
        <ele>745</ele>
        <time>2020-09-06T08:10:30.355Z</time>
      </trkpt>
      <trkpt lat="48.40894" lon="7.31366">
        <ele>745</ele>
        <time>2020-09-06T08:10:31.356Z</time>
      </trkpt>
      <trkpt lat="48.40894" lon="7.31367">
        <ele>745</ele>
        <time>2020-09-06T08:10:32.356Z</time>
      </trkpt>
      <trkpt lat="48.40895" lon="7.31367">
        <ele>745</ele>
        <time>2020-09-06T08:10:33.355Z</time>
      </trkpt>
      <trkpt lat="48.40896" lon="7.31368">
        <ele>745</ele>
        <time>2020-09-06T08:10:34.356Z</time>
      </trkpt>
      <trkpt lat="48.40897" lon="7.31369">
        <ele>745</ele>
        <time>2020-09-06T08:10:35.356Z</time>
      </trkpt>
      <trkpt lat="48.40898" lon="7.31372">
        <ele>745</ele>
        <time>2020-09-06T08:10:36.356Z</time>
      </trkpt>
      <trkpt lat="48.40899" lon="7.31374">
        <ele>745</ele>
        <time>2020-09-06T08:10:37.356Z</time>
      </trkpt>
      <trkpt lat="48.40899" lon="7.31375">
        <ele>745</ele>
        <time>2020-09-06T08:10:38.355Z</time>
      </trkpt>
      <trkpt lat="48.40899" lon="7.31376">
        <ele>745</ele>
        <time>2020-09-06T08:10:39.356Z</time>
      </trkpt>
      <trkpt lat="48.40899" lon="7.31378">
        <ele>744</ele>
        <time>2020-09-06T08:10:40.356Z</time>
      </trkpt>
      <trkpt lat="48.40899" lon="7.31379">
        <ele>744</ele>
        <time>2020-09-06T08:10:41.356Z</time>
      </trkpt>
      <trkpt lat="48.40899" lon="7.3138">
        <ele>744</ele>
        <time>2020-09-06T08:10:42.356Z</time>
      </trkpt>
      <trkpt lat="48.409" lon="7.3138">
        <ele>744</ele>
        <time>2020-09-06T08:10:43.355Z</time>
      </trkpt>
      <trkpt lat="48.409" lon="7.31381">
        <ele>743</ele>
        <time>2020-09-06T08:10:44.356Z</time>
      </trkpt>
      <trkpt lat="48.40901" lon="7.31383">
        <ele>743</ele>
        <time>2020-09-06T08:10:45.356Z</time>
      </trkpt>
      <trkpt lat="48.40902" lon="7.31385">
        <ele>743</ele>
        <time>2020-09-06T08:10:46.356Z</time>
      </trkpt>
      <trkpt lat="48.40903" lon="7.31387">
        <ele>742</ele>
        <time>2020-09-06T08:10:47.356Z</time>
      </trkpt>
      <trkpt lat="48.40903" lon="7.31389">
        <ele>742</ele>
        <time>2020-09-06T08:10:48.356Z</time>
      </trkpt>
      <trkpt lat="48.40903" lon="7.3139">
        <ele>741</ele>
        <time>2020-09-06T08:10:49.356Z</time>
      </trkpt>
      <trkpt lat="48.40904" lon="7.31392">
        <ele>741</ele>
        <time>2020-09-06T08:10:50.356Z</time>
      </trkpt>
      <trkpt lat="48.40904" lon="7.31393">
        <ele>741</ele>
        <time>2020-09-06T08:10:51.356Z</time>
      </trkpt>
      <trkpt lat="48.40905" lon="7.31395">
        <ele>740</ele>
        <time>2020-09-06T08:10:52.356Z</time>
      </trkpt>
      <trkpt lat="48.40906" lon="7.31397">
        <ele>740</ele>
        <time>2020-09-06T08:10:53.355Z</time>
      </trkpt>
      <trkpt lat="48.40906" lon="7.31399">
        <ele>741</ele>
        <time>2020-09-06T08:10:54.355Z</time>
      </trkpt>
      <trkpt lat="48.40906" lon="7.31401">
        <ele>741</ele>
        <time>2020-09-06T08:10:55.356Z</time>
      </trkpt>
      <trkpt lat="48.40906" lon="7.31403">
        <ele>741</ele>
        <time>2020-09-06T08:10:56.356Z</time>
      </trkpt>
      <trkpt lat="48.40906" lon="7.31404">
        <ele>741</ele>
        <time>2020-09-06T08:10:57.356Z</time>
      </trkpt>
      <trkpt lat="48.40907" lon="7.31406">
        <ele>741</ele>
        <time>2020-09-06T08:10:58.356Z</time>
      </trkpt>
      <trkpt lat="48.40908" lon="7.31408">
        <ele>742</ele>
        <time>2020-09-06T08:10:59.356Z</time>
      </trkpt>
      <trkpt lat="48.40909" lon="7.31408">
        <ele>742</ele>
        <time>2020-09-06T08:11:00.356Z</time>
      </trkpt>
      <trkpt lat="48.4091" lon="7.3141">
        <ele>742</ele>
        <time>2020-09-06T08:11:01.356Z</time>
      </trkpt>
      <trkpt lat="48.40911" lon="7.31411">
        <ele>742</ele>
        <time>2020-09-06T08:11:02.356Z</time>
      </trkpt>
      <trkpt lat="48.40912" lon="7.31412">
        <ele>742</ele>
        <time>2020-09-06T08:11:03.355Z</time>
      </trkpt>
      <trkpt lat="48.40912" lon="7.31413">
        <ele>742</ele>
        <time>2020-09-06T08:11:04.356Z</time>
      </trkpt>
      <trkpt lat="48.40913" lon="7.31415">
        <ele>741</ele>
        <time>2020-09-06T08:11:05.356Z</time>
      </trkpt>
      <trkpt lat="48.40913" lon="7.31417">
        <ele>741</ele>
        <time>2020-09-06T08:11:06.355Z</time>
      </trkpt>
      <trkpt lat="48.40913" lon="7.31419">
        <ele>742</ele>
        <time>2020-09-06T08:11:07.355Z</time>
      </trkpt>
      <trkpt lat="48.40914" lon="7.3142">
        <ele>742</ele>
        <time>2020-09-06T08:11:08.356Z</time>
      </trkpt>
      <trkpt lat="48.40914" lon="7.31422">
        <ele>742</ele>
        <time>2020-09-06T08:11:09.356Z</time>
      </trkpt>
      <trkpt lat="48.40915" lon="7.31423">
        <ele>742</ele>
        <time>2020-09-06T08:11:10.355Z</time>
      </trkpt>
      <trkpt lat="48.40916" lon="7.31425">
        <ele>742</ele>
        <time>2020-09-06T08:11:11.356Z</time>
      </trkpt>
      <trkpt lat="48.40916" lon="7.31426">
        <ele>741</ele>
        <time>2020-09-06T08:11:12.356Z</time>
      </trkpt>
      <trkpt lat="48.40917" lon="7.31427">
        <ele>741</ele>
        <time>2020-09-06T08:11:13.356Z</time>
      </trkpt>
      <trkpt lat="48.40917" lon="7.31429">
        <ele>740</ele>
        <time>2020-09-06T08:11:14.355Z</time>
      </trkpt>
      <trkpt lat="48.40918" lon="7.31431">
        <ele>741</ele>
        <time>2020-09-06T08:11:15.356Z</time>
      </trkpt>
      <trkpt lat="48.40918" lon="7.31433">
        <ele>741</ele>
        <time>2020-09-06T08:11:16.356Z</time>
      </trkpt>
      <trkpt lat="48.40919" lon="7.31434">
        <ele>741</ele>
        <time>2020-09-06T08:11:17.356Z</time>
      </trkpt>
      <trkpt lat="48.40919" lon="7.31435">
        <ele>741</ele>
        <time>2020-09-06T08:11:18.356Z</time>
      </trkpt>
      <trkpt lat="48.40919" lon="7.31436">
        <ele>742</ele>
        <time>2020-09-06T08:11:19.356Z</time>
      </trkpt>
      <trkpt lat="48.4092" lon="7.31438">
        <ele>742</ele>
        <time>2020-09-06T08:11:20.356Z</time>
      </trkpt>
      <trkpt lat="48.4092" lon="7.31439">
        <ele>741</ele>
        <time>2020-09-06T08:11:21.355Z</time>
      </trkpt>
      <trkpt lat="48.40921" lon="7.3144">
        <ele>741</ele>
        <time>2020-09-06T08:11:22.356Z</time>
      </trkpt>
      <trkpt lat="48.40922" lon="7.3144">
        <ele>741</ele>
        <time>2020-09-06T08:11:23.356Z</time>
      </trkpt>
      <trkpt lat="48.40923" lon="7.31441">
        <ele>740</ele>
        <time>2020-09-06T08:11:24.356Z</time>
      </trkpt>
      <trkpt lat="48.40925" lon="7.31443">
        <ele>740</ele>
        <time>2020-09-06T08:11:25.356Z</time>
      </trkpt>
      <trkpt lat="48.40926" lon="7.31444">
        <ele>740</ele>
        <time>2020-09-06T08:11:26.356Z</time>
      </trkpt>
      <trkpt lat="48.40927" lon="7.31446">
        <ele>740</ele>
        <time>2020-09-06T08:11:27.356Z</time>
      </trkpt>
      <trkpt lat="48.40927" lon="7.31448">
        <ele>740</ele>
        <time>2020-09-06T08:11:28.356Z</time>
      </trkpt>
      <trkpt lat="48.40928" lon="7.31449">
        <ele>739</ele>
        <time>2020-09-06T08:11:29.356Z</time>
      </trkpt>
      <trkpt lat="48.40928" lon="7.3145">
        <ele>739</ele>
        <time>2020-09-06T08:11:30.356Z</time>
      </trkpt>
      <trkpt lat="48.40928" lon="7.31452">
        <ele>739</ele>
        <time>2020-09-06T08:11:31.356Z</time>
      </trkpt>
      <trkpt lat="48.40929" lon="7.31454">
        <ele>738</ele>
        <time>2020-09-06T08:11:32.356Z</time>
      </trkpt>
      <trkpt lat="48.4093" lon="7.31455">
        <ele>738</ele>
        <time>2020-09-06T08:11:33.356Z</time>
      </trkpt>
      <trkpt lat="48.4093" lon="7.31456">
        <ele>738</ele>
        <time>2020-09-06T08:11:34.356Z</time>
      </trkpt>
      <trkpt lat="48.40929" lon="7.31456">
        <ele>738</ele>
        <time>2020-09-06T08:11:35.356Z</time>
      </trkpt>
      <trkpt lat="48.4093" lon="7.31457">
        <ele>738</ele>
        <time>2020-09-06T08:11:36.356Z</time>
      </trkpt>
      <trkpt lat="48.40931" lon="7.31458">
        <ele>738</ele>
        <time>2020-09-06T08:11:37.356Z</time>
      </trkpt>
      <trkpt lat="48.40932" lon="7.31459">
        <ele>738</ele>
        <time>2020-09-06T08:11:38.356Z</time>
      </trkpt>
      <trkpt lat="48.40933" lon="7.3146">
        <ele>739</ele>
        <time>2020-09-06T08:11:39.355Z</time>
      </trkpt>
      <trkpt lat="48.40934" lon="7.31462">
        <ele>739</ele>
        <time>2020-09-06T08:11:40.355Z</time>
      </trkpt>
      <trkpt lat="48.40935" lon="7.31463">
        <ele>739</ele>
        <time>2020-09-06T08:11:41.355Z</time>
      </trkpt>
      <trkpt lat="48.40936" lon="7.31464">
        <ele>738</ele>
        <time>2020-09-06T08:11:42.356Z</time>
      </trkpt>
      <trkpt lat="48.40937" lon="7.31464">
        <ele>738</ele>
        <time>2020-09-06T08:11:43.356Z</time>
      </trkpt>
      <trkpt lat="48.40938" lon="7.31466">
        <ele>738</ele>
        <time>2020-09-06T08:11:44.356Z</time>
      </trkpt>
      <trkpt lat="48.40939" lon="7.31467">
        <ele>739</ele>
        <time>2020-09-06T08:11:45.356Z</time>
      </trkpt>
      <trkpt lat="48.4094" lon="7.31469">
        <ele>739</ele>
        <time>2020-09-06T08:11:46.356Z</time>
      </trkpt>
      <trkpt lat="48.40941" lon="7.3147">
        <ele>739</ele>
        <time>2020-09-06T08:11:47.355Z</time>
      </trkpt>
      <trkpt lat="48.40941" lon="7.31471">
        <ele>739</ele>
        <time>2020-09-06T08:11:48.356Z</time>
      </trkpt>
      <trkpt lat="48.40942" lon="7.31472">
        <ele>739</ele>
        <time>2020-09-06T08:11:49.356Z</time>
      </trkpt>
      <trkpt lat="48.40942" lon="7.31473">
        <ele>739</ele>
        <time>2020-09-06T08:11:50.356Z</time>
      </trkpt>
      <trkpt lat="48.40942" lon="7.31473">
        <ele>739</ele>
        <time>2020-09-06T08:11:51.356Z</time>
      </trkpt>
      <trkpt lat="48.40942" lon="7.31474">
        <ele>740</ele>
        <time>2020-09-06T08:11:52.356Z</time>
      </trkpt>
      <trkpt lat="48.40943" lon="7.31474">
        <ele>739</ele>
        <time>2020-09-06T08:11:53.356Z</time>
      </trkpt>
      <trkpt lat="48.40943" lon="7.31475">
        <ele>739</ele>
        <time>2020-09-06T08:11:54.356Z</time>
      </trkpt>
      <trkpt lat="48.40945" lon="7.31476">
        <ele>740</ele>
        <time>2020-09-06T08:11:55.355Z</time>
      </trkpt>
      <trkpt lat="48.40946" lon="7.31477">
        <ele>740</ele>
        <time>2020-09-06T08:11:56.356Z</time>
      </trkpt>
      <trkpt lat="48.40949" lon="7.3148">
        <ele>740</ele>
        <time>2020-09-06T08:11:57.355Z</time>
      </trkpt>
      <trkpt lat="48.40952" lon="7.31482">
        <ele>740</ele>
        <time>2020-09-06T08:11:58.356Z</time>
      </trkpt>
      <trkpt lat="48.40953" lon="7.31483">
        <ele>740</ele>
        <time>2020-09-06T08:11:59.356Z</time>
      </trkpt>
      <trkpt lat="48.40954" lon="7.31484">
        <ele>741</ele>
        <time>2020-09-06T08:12:00.356Z</time>
      </trkpt>
      <trkpt lat="48.40954" lon="7.31484">
        <ele>741</ele>
        <time>2020-09-06T08:12:01.356Z</time>
      </trkpt>
      <trkpt lat="48.40954" lon="7.31485">
        <ele>741</ele>
        <time>2020-09-06T08:12:02.356Z</time>
      </trkpt>
      <trkpt lat="48.40954" lon="7.31486">
        <ele>741</ele>
        <time>2020-09-06T08:12:03.356Z</time>
      </trkpt>
      <trkpt lat="48.40954" lon="7.31487">
        <ele>741</ele>
        <time>2020-09-06T08:12:04.356Z</time>
      </trkpt>
      <trkpt lat="48.40955" lon="7.31489">
        <ele>741</ele>
        <time>2020-09-06T08:12:05.356Z</time>
      </trkpt>
      <trkpt lat="48.40955" lon="7.3149">
        <ele>741</ele>
        <time>2020-09-06T08:12:06.356Z</time>
      </trkpt>
      <trkpt lat="48.40955" lon="7.31492">
        <ele>741</ele>
        <time>2020-09-06T08:12:07.356Z</time>
      </trkpt>
      <trkpt lat="48.40956" lon="7.31493">
        <ele>741</ele>
        <time>2020-09-06T08:12:08.356Z</time>
      </trkpt>
      <trkpt lat="48.40957" lon="7.31494">
        <ele>741</ele>
        <time>2020-09-06T08:12:09.356Z</time>
      </trkpt>
      <trkpt lat="48.40957" lon="7.31495">
        <ele>741</ele>
        <time>2020-09-06T08:12:10.356Z</time>
      </trkpt>
      <trkpt lat="48.40958" lon="7.31496">
        <ele>740</ele>
        <time>2020-09-06T08:12:11.355Z</time>
      </trkpt>
      <trkpt lat="48.40958" lon="7.31497">
        <ele>740</ele>
        <time>2020-09-06T08:12:12.356Z</time>
      </trkpt>
      <trkpt lat="48.40958" lon="7.31499">
        <ele>740</ele>
        <time>2020-09-06T08:12:13.356Z</time>
      </trkpt>
      <trkpt lat="48.40957" lon="7.315">
        <ele>739</ele>
        <time>2020-09-06T08:12:14.355Z</time>
      </trkpt>
      <trkpt lat="48.40958" lon="7.31502">
        <ele>739</ele>
        <time>2020-09-06T08:12:15.356Z</time>
      </trkpt>
      <trkpt lat="48.40958" lon="7.31503">
        <ele>738</ele>
        <time>2020-09-06T08:12:16.356Z</time>
      </trkpt>
      <trkpt lat="48.4096" lon="7.31505">
        <ele>738</ele>
        <time>2020-09-06T08:12:17.356Z</time>
      </trkpt>
      <trkpt lat="48.4096" lon="7.31506">
        <ele>737</ele>
        <time>2020-09-06T08:12:18.355Z</time>
      </trkpt>
      <trkpt lat="48.4096" lon="7.31507">
        <ele>737</ele>
        <time>2020-09-06T08:12:19.356Z</time>
      </trkpt>
      <trkpt lat="48.4096" lon="7.31508">
        <ele>737</ele>
        <time>2020-09-06T08:12:20.355Z</time>
      </trkpt>
      <trkpt lat="48.40961" lon="7.31509">
        <ele>736</ele>
        <time>2020-09-06T08:12:21.355Z</time>
      </trkpt>
      <trkpt lat="48.40961" lon="7.3151">
        <ele>736</ele>
        <time>2020-09-06T08:12:22.356Z</time>
      </trkpt>
      <trkpt lat="48.40961" lon="7.3151">
        <ele>736</ele>
        <time>2020-09-06T08:12:23.356Z</time>
      </trkpt>
      <trkpt lat="48.40961" lon="7.31512">
        <ele>736</ele>
        <time>2020-09-06T08:12:24.355Z</time>
      </trkpt>
      <trkpt lat="48.40961" lon="7.31513">
        <ele>736</ele>
        <time>2020-09-06T08:12:25.355Z</time>
      </trkpt>
      <trkpt lat="48.40961" lon="7.31514">
        <ele>736</ele>
        <time>2020-09-06T08:12:26.355Z</time>
      </trkpt>
      <trkpt lat="48.40961" lon="7.31515">
        <ele>736</ele>
        <time>2020-09-06T08:12:27.356Z</time>
      </trkpt>
      <trkpt lat="48.40962" lon="7.31516">
        <ele>736</ele>
        <time>2020-09-06T08:12:28.356Z</time>
      </trkpt>
      <trkpt lat="48.40962" lon="7.31518">
        <ele>737</ele>
        <time>2020-09-06T08:12:29.356Z</time>
      </trkpt>
      <trkpt lat="48.40961" lon="7.3152">
        <ele>737</ele>
        <time>2020-09-06T08:12:30.356Z</time>
      </trkpt>
      <trkpt lat="48.40961" lon="7.31523">
        <ele>738</ele>
        <time>2020-09-06T08:12:31.356Z</time>
      </trkpt>
      <trkpt lat="48.40961" lon="7.31524">
        <ele>738</ele>
        <time>2020-09-06T08:12:32.356Z</time>
      </trkpt>
      <trkpt lat="48.4096" lon="7.31525">
        <ele>738</ele>
        <time>2020-09-06T08:12:33.356Z</time>
      </trkpt>
      <trkpt lat="48.4096" lon="7.31526">
        <ele>738</ele>
        <time>2020-09-06T08:12:34.356Z</time>
      </trkpt>
      <trkpt lat="48.4096" lon="7.31527">
        <ele>739</ele>
        <time>2020-09-06T08:12:35.356Z</time>
      </trkpt>
      <trkpt lat="48.4096" lon="7.31528">
        <ele>739</ele>
        <time>2020-09-06T08:12:36.356Z</time>
      </trkpt>
      <trkpt lat="48.4096" lon="7.31529">
        <ele>739</ele>
        <time>2020-09-06T08:12:37.356Z</time>
      </trkpt>
      <trkpt lat="48.4096" lon="7.3153">
        <ele>739</ele>
        <time>2020-09-06T08:12:38.356Z</time>
      </trkpt>
      <trkpt lat="48.4096" lon="7.31531">
        <ele>738</ele>
        <time>2020-09-06T08:12:39.356Z</time>
      </trkpt>
      <trkpt lat="48.4096" lon="7.31533">
        <ele>738</ele>
        <time>2020-09-06T08:12:40.356Z</time>
      </trkpt>
      <trkpt lat="48.4096" lon="7.31535">
        <ele>738</ele>
        <time>2020-09-06T08:12:41.356Z</time>
      </trkpt>
      <trkpt lat="48.4096" lon="7.31537">
        <ele>738</ele>
        <time>2020-09-06T08:12:42.356Z</time>
      </trkpt>
      <trkpt lat="48.40959" lon="7.31538">
        <ele>739</ele>
        <time>2020-09-06T08:12:43.356Z</time>
      </trkpt>
      <trkpt lat="48.40959" lon="7.3154">
        <ele>739</ele>
        <time>2020-09-06T08:12:44.356Z</time>
      </trkpt>
      <trkpt lat="48.40959" lon="7.31542">
        <ele>739</ele>
        <time>2020-09-06T08:12:45.356Z</time>
      </trkpt>
      <trkpt lat="48.40959" lon="7.31544">
        <ele>739</ele>
        <time>2020-09-06T08:12:46.355Z</time>
      </trkpt>
      <trkpt lat="48.40959" lon="7.31547">
        <ele>740</ele>
        <time>2020-09-06T08:12:47.355Z</time>
      </trkpt>
      <trkpt lat="48.40959" lon="7.31549">
        <ele>739</ele>
        <time>2020-09-06T08:12:48.356Z</time>
      </trkpt>
      <trkpt lat="48.40959" lon="7.31551">
        <ele>739</ele>
        <time>2020-09-06T08:12:49.356Z</time>
      </trkpt>
      <trkpt lat="48.40958" lon="7.31553">
        <ele>739</ele>
        <time>2020-09-06T08:12:50.355Z</time>
      </trkpt>
      <trkpt lat="48.40958" lon="7.31555">
        <ele>739</ele>
        <time>2020-09-06T08:12:51.356Z</time>
      </trkpt>
      <trkpt lat="48.40958" lon="7.31557">
        <ele>739</ele>
        <time>2020-09-06T08:12:52.356Z</time>
      </trkpt>
      <trkpt lat="48.40957" lon="7.31558">
        <ele>739</ele>
        <time>2020-09-06T08:12:53.356Z</time>
      </trkpt>
      <trkpt lat="48.40957" lon="7.3156">
        <ele>739</ele>
        <time>2020-09-06T08:12:54.355Z</time>
      </trkpt>
      <trkpt lat="48.40957" lon="7.31562">
        <ele>738</ele>
        <time>2020-09-06T08:12:55.355Z</time>
      </trkpt>
      <trkpt lat="48.40958" lon="7.31565">
        <ele>738</ele>
        <time>2020-09-06T08:12:56.356Z</time>
      </trkpt>
      <trkpt lat="48.40957" lon="7.31567">
        <ele>737</ele>
        <time>2020-09-06T08:12:57.355Z</time>
      </trkpt>
      <trkpt lat="48.40957" lon="7.31569">
        <ele>737</ele>
        <time>2020-09-06T08:12:58.356Z</time>
      </trkpt>
      <trkpt lat="48.40957" lon="7.31571">
        <ele>737</ele>
        <time>2020-09-06T08:12:59.356Z</time>
      </trkpt>
      <trkpt lat="48.40957" lon="7.31573">
        <ele>737</ele>
        <time>2020-09-06T08:13:00.355Z</time>
      </trkpt>
      <trkpt lat="48.40957" lon="7.31574">
        <ele>738</ele>
        <time>2020-09-06T08:13:01.355Z</time>
      </trkpt>
      <trkpt lat="48.40957" lon="7.31576">
        <ele>738</ele>
        <time>2020-09-06T08:13:02.356Z</time>
      </trkpt>
      <trkpt lat="48.40957" lon="7.31578">
        <ele>739</ele>
        <time>2020-09-06T08:13:03.355Z</time>
      </trkpt>
      <trkpt lat="48.40957" lon="7.3158">
        <ele>739</ele>
        <time>2020-09-06T08:13:04.356Z</time>
      </trkpt>
      <trkpt lat="48.40957" lon="7.31581">
        <ele>740</ele>
        <time>2020-09-06T08:13:05.356Z</time>
      </trkpt>
      <trkpt lat="48.40957" lon="7.31584">
        <ele>740</ele>
        <time>2020-09-06T08:13:06.356Z</time>
      </trkpt>
      <trkpt lat="48.40958" lon="7.31586">
        <ele>741</ele>
        <time>2020-09-06T08:13:07.356Z</time>
      </trkpt>
      <trkpt lat="48.40958" lon="7.31587">
        <ele>741</ele>
        <time>2020-09-06T08:13:08.356Z</time>
      </trkpt>
      <trkpt lat="48.40959" lon="7.31589">
        <ele>741</ele>
        <time>2020-09-06T08:13:09.356Z</time>
      </trkpt>
      <trkpt lat="48.40959" lon="7.31591">
        <ele>741</ele>
        <time>2020-09-06T08:13:10.355Z</time>
      </trkpt>
      <trkpt lat="48.4096" lon="7.31593">
        <ele>741</ele>
        <time>2020-09-06T08:13:11.356Z</time>
      </trkpt>
      <trkpt lat="48.40961" lon="7.31595">
        <ele>741</ele>
        <time>2020-09-06T08:13:12.356Z</time>
      </trkpt>
      <trkpt lat="48.40961" lon="7.31596">
        <ele>741</ele>
        <time>2020-09-06T08:13:13.356Z</time>
      </trkpt>
      <trkpt lat="48.40962" lon="7.31597">
        <ele>741</ele>
        <time>2020-09-06T08:13:14.355Z</time>
      </trkpt>
      <trkpt lat="48.40963" lon="7.31598">
        <ele>740</ele>
        <time>2020-09-06T08:13:15.355Z</time>
      </trkpt>
      <trkpt lat="48.40964" lon="7.31599">
        <ele>740</ele>
        <time>2020-09-06T08:13:16.356Z</time>
      </trkpt>
      <trkpt lat="48.40964" lon="7.316">
        <ele>740</ele>
        <time>2020-09-06T08:13:17.355Z</time>
      </trkpt>
      <trkpt lat="48.40965" lon="7.316">
        <ele>740</ele>
        <time>2020-09-06T08:13:18.356Z</time>
      </trkpt>
      <trkpt lat="48.40968" lon="7.31601">
        <ele>739</ele>
        <time>2020-09-06T08:13:19.356Z</time>
      </trkpt>
      <trkpt lat="48.4097" lon="7.31602">
        <ele>739</ele>
        <time>2020-09-06T08:13:20.355Z</time>
      </trkpt>
      <trkpt lat="48.4097" lon="7.31603">
        <ele>739</ele>
        <time>2020-09-06T08:13:21.356Z</time>
      </trkpt>
      <trkpt lat="48.40971" lon="7.31604">
        <ele>738</ele>
        <time>2020-09-06T08:13:22.356Z</time>
      </trkpt>
      <trkpt lat="48.40971" lon="7.31605">
        <ele>737</ele>
        <time>2020-09-06T08:13:23.356Z</time>
      </trkpt>
      <trkpt lat="48.40972" lon="7.31606">
        <ele>736</ele>
        <time>2020-09-06T08:13:24.356Z</time>
      </trkpt>
      <trkpt lat="48.40972" lon="7.31607">
        <ele>735</ele>
        <time>2020-09-06T08:13:25.355Z</time>
      </trkpt>
      <trkpt lat="48.40972" lon="7.31607">
        <ele>733</ele>
        <time>2020-09-06T08:13:26.356Z</time>
      </trkpt>
      <trkpt lat="48.40972" lon="7.31608">
        <ele>732</ele>
        <time>2020-09-06T08:13:27.355Z</time>
      </trkpt>
      <trkpt lat="48.40965" lon="7.31624">
        <ele>713</ele>
        <time>2020-09-06T08:13:28.356Z</time>
      </trkpt>
      <trkpt lat="48.40968" lon="7.31624">
        <ele>715</ele>
        <time>2020-09-06T08:13:29.356Z</time>
      </trkpt>
      <trkpt lat="48.40969" lon="7.31623">
        <ele>716</ele>
        <time>2020-09-06T08:13:30.355Z</time>
      </trkpt>
      <trkpt lat="48.40971" lon="7.31621">
        <ele>716</ele>
        <time>2020-09-06T08:13:31.356Z</time>
      </trkpt>
      <trkpt lat="48.40972" lon="7.31621">
        <ele>716</ele>
        <time>2020-09-06T08:13:32.355Z</time>
      </trkpt>
      <trkpt lat="48.40974" lon="7.31621">
        <ele>716</ele>
        <time>2020-09-06T08:13:33.355Z</time>
      </trkpt>
      <trkpt lat="48.40976" lon="7.3162">
        <ele>717</ele>
        <time>2020-09-06T08:13:34.356Z</time>
      </trkpt>
      <trkpt lat="48.40978" lon="7.31619">
        <ele>718</ele>
        <time>2020-09-06T08:13:35.356Z</time>
      </trkpt>
      <trkpt lat="48.4098" lon="7.31618">
        <ele>718</ele>
        <time>2020-09-06T08:13:36.355Z</time>
      </trkpt>
      <trkpt lat="48.40982" lon="7.31617">
        <ele>719</ele>
        <time>2020-09-06T08:13:37.356Z</time>
      </trkpt>
      <trkpt lat="48.40984" lon="7.31616">
        <ele>720</ele>
        <time>2020-09-06T08:13:38.356Z</time>
      </trkpt>
      <trkpt lat="48.40986" lon="7.31616">
        <ele>721</ele>
        <time>2020-09-06T08:13:39.356Z</time>
      </trkpt>
      <trkpt lat="48.40987" lon="7.31617">
        <ele>721</ele>
        <time>2020-09-06T08:13:40.355Z</time>
      </trkpt>
      <trkpt lat="48.40989" lon="7.31617">
        <ele>722</ele>
        <time>2020-09-06T08:13:41.356Z</time>
      </trkpt>
      <trkpt lat="48.4099" lon="7.31617">
        <ele>722</ele>
        <time>2020-09-06T08:13:42.355Z</time>
      </trkpt>
      <trkpt lat="48.40991" lon="7.31617">
        <ele>723</ele>
        <time>2020-09-06T08:13:43.356Z</time>
      </trkpt>
      <trkpt lat="48.40992" lon="7.31617">
        <ele>724</ele>
        <time>2020-09-06T08:13:44.355Z</time>
      </trkpt>
      <trkpt lat="48.40993" lon="7.31618">
        <ele>724</ele>
        <time>2020-09-06T08:13:45.355Z</time>
      </trkpt>
      <trkpt lat="48.40995" lon="7.31618">
        <ele>725</ele>
        <time>2020-09-06T08:13:46.356Z</time>
      </trkpt>
      <trkpt lat="48.40996" lon="7.31618">
        <ele>726</ele>
        <time>2020-09-06T08:13:47.355Z</time>
      </trkpt>
      <trkpt lat="48.40998" lon="7.31619">
        <ele>726</ele>
        <time>2020-09-06T08:13:48.356Z</time>
      </trkpt>
      <trkpt lat="48.41" lon="7.31619">
        <ele>727</ele>
        <time>2020-09-06T08:13:49.355Z</time>
      </trkpt>
      <trkpt lat="48.41002" lon="7.3162">
        <ele>728</ele>
        <time>2020-09-06T08:13:50.356Z</time>
      </trkpt>
      <trkpt lat="48.41003" lon="7.3162">
        <ele>729</ele>
        <time>2020-09-06T08:13:51.356Z</time>
      </trkpt>
      <trkpt lat="48.41005" lon="7.31621">
        <ele>730</ele>
        <time>2020-09-06T08:13:52.356Z</time>
      </trkpt>
      <trkpt lat="48.41007" lon="7.31621">
        <ele>731</ele>
        <time>2020-09-06T08:13:53.356Z</time>
      </trkpt>
      <trkpt lat="48.41008" lon="7.31621">
        <ele>732</ele>
        <time>2020-09-06T08:13:54.356Z</time>
      </trkpt>
      <trkpt lat="48.41008" lon="7.31622">
        <ele>733</ele>
        <time>2020-09-06T08:13:55.356Z</time>
      </trkpt>
      <trkpt lat="48.41009" lon="7.31623">
        <ele>734</ele>
        <time>2020-09-06T08:13:56.355Z</time>
      </trkpt>
      <trkpt lat="48.4101" lon="7.31623">
        <ele>735</ele>
        <time>2020-09-06T08:13:57.356Z</time>
      </trkpt>
      <trkpt lat="48.4101" lon="7.31624">
        <ele>735</ele>
        <time>2020-09-06T08:13:58.356Z</time>
      </trkpt>
      <trkpt lat="48.41011" lon="7.31624">
        <ele>736</ele>
        <time>2020-09-06T08:13:59.355Z</time>
      </trkpt>
      <trkpt lat="48.41013" lon="7.31625">
        <ele>737</ele>
        <time>2020-09-06T08:14:00.356Z</time>
      </trkpt>
      <trkpt lat="48.41014" lon="7.31626">
        <ele>737</ele>
        <time>2020-09-06T08:14:01.356Z</time>
      </trkpt>
      <trkpt lat="48.41015" lon="7.31628">
        <ele>738</ele>
        <time>2020-09-06T08:14:02.355Z</time>
      </trkpt>
      <trkpt lat="48.41016" lon="7.31629">
        <ele>738</ele>
        <time>2020-09-06T08:14:03.356Z</time>
      </trkpt>
      <trkpt lat="48.41018" lon="7.3163">
        <ele>738</ele>
        <time>2020-09-06T08:14:04.356Z</time>
      </trkpt>
      <trkpt lat="48.41019" lon="7.31631">
        <ele>738</ele>
        <time>2020-09-06T08:14:05.356Z</time>
      </trkpt>
      <trkpt lat="48.4102" lon="7.31631">
        <ele>738</ele>
        <time>2020-09-06T08:14:06.355Z</time>
      </trkpt>
      <trkpt lat="48.41022" lon="7.31632">
        <ele>738</ele>
        <time>2020-09-06T08:14:07.355Z</time>
      </trkpt>
      <trkpt lat="48.41022" lon="7.31633">
        <ele>738</ele>
        <time>2020-09-06T08:14:08.355Z</time>
      </trkpt>
      <trkpt lat="48.41023" lon="7.31634">
        <ele>738</ele>
        <time>2020-09-06T08:14:09.356Z</time>
      </trkpt>
      <trkpt lat="48.41024" lon="7.31635">
        <ele>738</ele>
        <time>2020-09-06T08:14:10.356Z</time>
      </trkpt>
      <trkpt lat="48.41025" lon="7.31636">
        <ele>738</ele>
        <time>2020-09-06T08:14:11.355Z</time>
      </trkpt>
      <trkpt lat="48.41026" lon="7.31637">
        <ele>738</ele>
        <time>2020-09-06T08:14:12.356Z</time>
      </trkpt>
      <trkpt lat="48.41028" lon="7.31638">
        <ele>738</ele>
        <time>2020-09-06T08:14:13.356Z</time>
      </trkpt>
      <trkpt lat="48.41029" lon="7.31639">
        <ele>738</ele>
        <time>2020-09-06T08:14:14.356Z</time>
      </trkpt>
      <trkpt lat="48.4103" lon="7.31639">
        <ele>738</ele>
        <time>2020-09-06T08:14:15.356Z</time>
      </trkpt>
      <trkpt lat="48.4103" lon="7.3164">
        <ele>739</ele>
        <time>2020-09-06T08:14:16.356Z</time>
      </trkpt>
      <trkpt lat="48.41031" lon="7.3164">
        <ele>739</ele>
        <time>2020-09-06T08:14:17.356Z</time>
      </trkpt>
      <trkpt lat="48.41032" lon="7.3164">
        <ele>739</ele>
        <time>2020-09-06T08:14:18.355Z</time>
      </trkpt>
      <trkpt lat="48.41033" lon="7.3164">
        <ele>740</ele>
        <time>2020-09-06T08:14:19.355Z</time>
      </trkpt>
      <trkpt lat="48.41033" lon="7.31641">
        <ele>740</ele>
        <time>2020-09-06T08:14:20.355Z</time>
      </trkpt>
      <trkpt lat="48.41034" lon="7.31642">
        <ele>740</ele>
        <time>2020-09-06T08:14:21.355Z</time>
      </trkpt>
      <trkpt lat="48.41037" lon="7.31642">
        <ele>741</ele>
        <time>2020-09-06T08:14:22.355Z</time>
      </trkpt>
      <trkpt lat="48.41038" lon="7.31644">
        <ele>741</ele>
        <time>2020-09-06T08:14:23.355Z</time>
      </trkpt>
      <trkpt lat="48.41039" lon="7.31644">
        <ele>741</ele>
        <time>2020-09-06T08:14:24.356Z</time>
      </trkpt>
      <trkpt lat="48.41039" lon="7.31645">
        <ele>742</ele>
        <time>2020-09-06T08:14:25.356Z</time>
      </trkpt>
      <trkpt lat="48.4104" lon="7.31645">
        <ele>742</ele>
        <time>2020-09-06T08:14:26.355Z</time>
      </trkpt>
      <trkpt lat="48.4104" lon="7.31646">
        <ele>742</ele>
        <time>2020-09-06T08:14:27.356Z</time>
      </trkpt>
      <trkpt lat="48.4104" lon="7.31647">
        <ele>743</ele>
        <time>2020-09-06T08:14:28.356Z</time>
      </trkpt>
      <trkpt lat="48.41041" lon="7.31648">
        <ele>743</ele>
        <time>2020-09-06T08:14:29.356Z</time>
      </trkpt>
      <trkpt lat="48.41042" lon="7.31649">
        <ele>743</ele>
        <time>2020-09-06T08:14:30.356Z</time>
      </trkpt>
      <trkpt lat="48.41043" lon="7.3165">
        <ele>743</ele>
        <time>2020-09-06T08:14:31.356Z</time>
      </trkpt>
      <trkpt lat="48.41044" lon="7.3165">
        <ele>743</ele>
        <time>2020-09-06T08:14:32.356Z</time>
      </trkpt>
      <trkpt lat="48.41045" lon="7.31651">
        <ele>743</ele>
        <time>2020-09-06T08:14:33.356Z</time>
      </trkpt>
      <trkpt lat="48.41046" lon="7.31651">
        <ele>742</ele>
        <time>2020-09-06T08:14:34.356Z</time>
      </trkpt>
      <trkpt lat="48.41046" lon="7.31651">
        <ele>742</ele>
        <time>2020-09-06T08:14:35.356Z</time>
      </trkpt>
      <trkpt lat="48.41046" lon="7.3165">
        <ele>742</ele>
        <time>2020-09-06T08:14:36.355Z</time>
      </trkpt>
      <trkpt lat="48.41046" lon="7.3165">
        <ele>741</ele>
        <time>2020-09-06T08:14:37.356Z</time>
      </trkpt>
      <trkpt lat="48.41046" lon="7.31649">
        <ele>740</ele>
        <time>2020-09-06T08:14:38.355Z</time>
      </trkpt>
      <trkpt lat="48.41046" lon="7.31648">
        <ele>740</ele>
        <time>2020-09-06T08:14:39.356Z</time>
      </trkpt>
      <trkpt lat="48.41046" lon="7.31648">
        <ele>740</ele>
        <time>2020-09-06T08:14:40.356Z</time>
      </trkpt>
      <trkpt lat="48.41046" lon="7.31647">
        <ele>740</ele>
        <time>2020-09-06T08:14:41.356Z</time>
      </trkpt>
      <trkpt lat="48.41046" lon="7.31646">
        <ele>740</ele>
        <time>2020-09-06T08:14:42.355Z</time>
      </trkpt>
      <trkpt lat="48.41046" lon="7.31645">
        <ele>740</ele>
        <time>2020-09-06T08:14:43.356Z</time>
      </trkpt>
      <trkpt lat="48.41046" lon="7.31644">
        <ele>740</ele>
        <time>2020-09-06T08:14:44.356Z</time>
      </trkpt>
      <trkpt lat="48.41046" lon="7.31643">
        <ele>741</ele>
        <time>2020-09-06T08:14:45.355Z</time>
      </trkpt>
      <trkpt lat="48.41045" lon="7.31643">
        <ele>741</ele>
        <time>2020-09-06T08:14:46.356Z</time>
      </trkpt>
      <trkpt lat="48.41045" lon="7.31642">
        <ele>741</ele>
        <time>2020-09-06T08:14:47.356Z</time>
      </trkpt>
      <trkpt lat="48.41044" lon="7.3164">
        <ele>741</ele>
        <time>2020-09-06T08:14:48.356Z</time>
      </trkpt>
      <trkpt lat="48.41042" lon="7.31635">
        <ele>741</ele>
        <time>2020-09-06T08:14:49.356Z</time>
      </trkpt>
      <trkpt lat="48.41042" lon="7.31633">
        <ele>742</ele>
        <time>2020-09-06T08:14:50.356Z</time>
      </trkpt>
      <trkpt lat="48.41042" lon="7.31632">
        <ele>742</ele>
        <time>2020-09-06T08:14:51.356Z</time>
      </trkpt>
      <trkpt lat="48.41041" lon="7.31631">
        <ele>742</ele>
        <time>2020-09-06T08:14:52.356Z</time>
      </trkpt>
      <trkpt lat="48.41041" lon="7.31629">
        <ele>742</ele>
        <time>2020-09-06T08:14:53.356Z</time>
      </trkpt>
      <trkpt lat="48.41041" lon="7.31628">
        <ele>742</ele>
        <time>2020-09-06T08:14:54.356Z</time>
      </trkpt>
      <trkpt lat="48.41041" lon="7.31626">
        <ele>743</ele>
        <time>2020-09-06T08:14:55.356Z</time>
      </trkpt>
      <trkpt lat="48.41041" lon="7.31625">
        <ele>743</ele>
        <time>2020-09-06T08:14:56.356Z</time>
      </trkpt>
      <trkpt lat="48.4104" lon="7.31622">
        <ele>743</ele>
        <time>2020-09-06T08:14:57.356Z</time>
      </trkpt>
      <trkpt lat="48.41039" lon="7.3162">
        <ele>744</ele>
        <time>2020-09-06T08:14:58.356Z</time>
      </trkpt>
      <trkpt lat="48.41039" lon="7.31616">
        <ele>744</ele>
        <time>2020-09-06T08:14:59.356Z</time>
      </trkpt>
      <trkpt lat="48.41039" lon="7.31614">
        <ele>745</ele>
        <time>2020-09-06T08:15:00.355Z</time>
      </trkpt>
      <trkpt lat="48.41039" lon="7.31612">
        <ele>745</ele>
        <time>2020-09-06T08:15:01.356Z</time>
      </trkpt>
      <trkpt lat="48.4104" lon="7.3161">
        <ele>746</ele>
        <time>2020-09-06T08:15:02.355Z</time>
      </trkpt>
      <trkpt lat="48.41041" lon="7.31609">
        <ele>746</ele>
        <time>2020-09-06T08:15:03.356Z</time>
      </trkpt>
      <trkpt lat="48.41041" lon="7.31609">
        <ele>746</ele>
        <time>2020-09-06T08:15:04.356Z</time>
      </trkpt>
      <trkpt lat="48.41042" lon="7.31608">
        <ele>746</ele>
        <time>2020-09-06T08:15:05.356Z</time>
      </trkpt>
      <trkpt lat="48.41042" lon="7.31606">
        <ele>746</ele>
        <time>2020-09-06T08:15:06.356Z</time>
      </trkpt>
      <trkpt lat="48.41042" lon="7.31605">
        <ele>746</ele>
        <time>2020-09-06T08:15:07.355Z</time>
      </trkpt>
      <trkpt lat="48.41041" lon="7.31603">
        <ele>746</ele>
        <time>2020-09-06T08:15:08.356Z</time>
      </trkpt>
      <trkpt lat="48.41041" lon="7.31601">
        <ele>746</ele>
        <time>2020-09-06T08:15:09.356Z</time>
      </trkpt>
      <trkpt lat="48.41041" lon="7.31598">
        <ele>745</ele>
        <time>2020-09-06T08:15:10.356Z</time>
      </trkpt>
      <trkpt lat="48.4104" lon="7.31597">
        <ele>745</ele>
        <time>2020-09-06T08:15:11.355Z</time>
      </trkpt>
      <trkpt lat="48.41041" lon="7.31595">
        <ele>745</ele>
        <time>2020-09-06T08:15:12.356Z</time>
      </trkpt>
      <trkpt lat="48.41041" lon="7.31594">
        <ele>745</ele>
        <time>2020-09-06T08:15:13.355Z</time>
      </trkpt>
      <trkpt lat="48.41041" lon="7.31593">
        <ele>745</ele>
        <time>2020-09-06T08:15:14.355Z</time>
      </trkpt>
      <trkpt lat="48.41042" lon="7.31592">
        <ele>745</ele>
        <time>2020-09-06T08:15:15.356Z</time>
      </trkpt>
      <trkpt lat="48.41042" lon="7.31591">
        <ele>746</ele>
        <time>2020-09-06T08:15:16.356Z</time>
      </trkpt>
      <trkpt lat="48.41042" lon="7.31589">
        <ele>746</ele>
        <time>2020-09-06T08:15:17.356Z</time>
      </trkpt>
      <trkpt lat="48.41042" lon="7.31588">
        <ele>746</ele>
        <time>2020-09-06T08:15:18.356Z</time>
      </trkpt>
      <trkpt lat="48.41042" lon="7.31587">
        <ele>746</ele>
        <time>2020-09-06T08:15:19.356Z</time>
      </trkpt>
      <trkpt lat="48.41042" lon="7.31585">
        <ele>746</ele>
        <time>2020-09-06T08:15:20.356Z</time>
      </trkpt>
      <trkpt lat="48.41042" lon="7.31583">
        <ele>746</ele>
        <time>2020-09-06T08:15:21.355Z</time>
      </trkpt>
      <trkpt lat="48.41042" lon="7.3158">
        <ele>745</ele>
        <time>2020-09-06T08:15:22.356Z</time>
      </trkpt>
      <trkpt lat="48.41042" lon="7.31577">
        <ele>745</ele>
        <time>2020-09-06T08:15:23.356Z</time>
      </trkpt>
      <trkpt lat="48.41042" lon="7.31574">
        <ele>745</ele>
        <time>2020-09-06T08:15:24.356Z</time>
      </trkpt>
      <trkpt lat="48.41042" lon="7.31571">
        <ele>744</ele>
        <time>2020-09-06T08:15:25.356Z</time>
      </trkpt>
      <trkpt lat="48.41042" lon="7.31569">
        <ele>744</ele>
        <time>2020-09-06T08:15:26.356Z</time>
      </trkpt>
      <trkpt lat="48.41043" lon="7.31566">
        <ele>743</ele>
        <time>2020-09-06T08:15:27.355Z</time>
      </trkpt>
      <trkpt lat="48.41044" lon="7.31564">
        <ele>743</ele>
        <time>2020-09-06T08:15:28.355Z</time>
      </trkpt>
      <trkpt lat="48.41044" lon="7.31563">
        <ele>743</ele>
        <time>2020-09-06T08:15:29.356Z</time>
      </trkpt>
      <trkpt lat="48.41044" lon="7.3156">
        <ele>743</ele>
        <time>2020-09-06T08:15:30.356Z</time>
      </trkpt>
      <trkpt lat="48.41045" lon="7.31558">
        <ele>743</ele>
        <time>2020-09-06T08:15:31.355Z</time>
      </trkpt>
      <trkpt lat="48.41045" lon="7.31557">
        <ele>742</ele>
        <time>2020-09-06T08:15:32.356Z</time>
      </trkpt>
      <trkpt lat="48.41046" lon="7.31555">
        <ele>742</ele>
        <time>2020-09-06T08:15:33.356Z</time>
      </trkpt>
      <trkpt lat="48.41046" lon="7.31553">
        <ele>741</ele>
        <time>2020-09-06T08:15:34.356Z</time>
      </trkpt>
      <trkpt lat="48.41047" lon="7.31551">
        <ele>741</ele>
        <time>2020-09-06T08:15:35.355Z</time>
      </trkpt>
      <trkpt lat="48.41047" lon="7.31549">
        <ele>741</ele>
        <time>2020-09-06T08:15:36.356Z</time>
      </trkpt>
      <trkpt lat="48.41048" lon="7.31548">
        <ele>742</ele>
        <time>2020-09-06T08:15:37.356Z</time>
      </trkpt>
      <trkpt lat="48.41048" lon="7.31545">
        <ele>742</ele>
        <time>2020-09-06T08:15:38.356Z</time>
      </trkpt>
      <trkpt lat="48.41048" lon="7.31544">
        <ele>742</ele>
        <time>2020-09-06T08:15:39.356Z</time>
      </trkpt>
      <trkpt lat="48.41048" lon="7.31542">
        <ele>742</ele>
        <time>2020-09-06T08:15:40.356Z</time>
      </trkpt>
      <trkpt lat="48.41048" lon="7.31541">
        <ele>742</ele>
        <time>2020-09-06T08:15:41.356Z</time>
      </trkpt>
      <trkpt lat="48.41049" lon="7.3154">
        <ele>742</ele>
        <time>2020-09-06T08:15:42.356Z</time>
      </trkpt>
      <trkpt lat="48.41049" lon="7.31538">
        <ele>742</ele>
        <time>2020-09-06T08:15:43.356Z</time>
      </trkpt>
      <trkpt lat="48.4105" lon="7.31537">
        <ele>742</ele>
        <time>2020-09-06T08:15:44.356Z</time>
      </trkpt>
      <trkpt lat="48.41051" lon="7.31536">
        <ele>742</ele>
        <time>2020-09-06T08:15:45.356Z</time>
      </trkpt>
      <trkpt lat="48.41052" lon="7.31534">
        <ele>742</ele>
        <time>2020-09-06T08:15:46.356Z</time>
      </trkpt>
      <trkpt lat="48.41053" lon="7.31533">
        <ele>742</ele>
        <time>2020-09-06T08:15:47.356Z</time>
      </trkpt>
      <trkpt lat="48.41053" lon="7.31532">
        <ele>743</ele>
        <time>2020-09-06T08:15:48.356Z</time>
      </trkpt>
      <trkpt lat="48.41054" lon="7.31531">
        <ele>743</ele>
        <time>2020-09-06T08:15:49.356Z</time>
      </trkpt>
      <trkpt lat="48.41055" lon="7.31528">
        <ele>744</ele>
        <time>2020-09-06T08:15:50.356Z</time>
      </trkpt>
      <trkpt lat="48.41055" lon="7.31525">
        <ele>745</ele>
        <time>2020-09-06T08:15:51.356Z</time>
      </trkpt>
      <trkpt lat="48.41056" lon="7.31523">
        <ele>746</ele>
        <time>2020-09-06T08:15:52.356Z</time>
      </trkpt>
      <trkpt lat="48.41056" lon="7.3152">
        <ele>747</ele>
        <time>2020-09-06T08:15:53.355Z</time>
      </trkpt>
      <trkpt lat="48.41057" lon="7.31518">
        <ele>749</ele>
        <time>2020-09-06T08:15:54.355Z</time>
      </trkpt>
      <trkpt lat="48.41057" lon="7.31516">
        <ele>750</ele>
        <time>2020-09-06T08:15:55.356Z</time>
      </trkpt>
      <trkpt lat="48.41058" lon="7.31515">
        <ele>751</ele>
        <time>2020-09-06T08:15:56.356Z</time>
      </trkpt>
      <trkpt lat="48.41058" lon="7.31514">
        <ele>751</ele>
        <time>2020-09-06T08:15:57.355Z</time>
      </trkpt>
      <trkpt lat="48.41058" lon="7.31511">
        <ele>752</ele>
        <time>2020-09-06T08:15:58.356Z</time>
      </trkpt>
      <trkpt lat="48.41059" lon="7.31509">
        <ele>752</ele>
        <time>2020-09-06T08:15:59.356Z</time>
      </trkpt>
      <trkpt lat="48.4106" lon="7.31508">
        <ele>753</ele>
        <time>2020-09-06T08:16:00.356Z</time>
      </trkpt>
      <trkpt lat="48.41061" lon="7.31507">
        <ele>753</ele>
        <time>2020-09-06T08:16:01.356Z</time>
      </trkpt>
      <trkpt lat="48.41061" lon="7.31506">
        <ele>753</ele>
        <time>2020-09-06T08:16:02.355Z</time>
      </trkpt>
      <trkpt lat="48.41062" lon="7.31506">
        <ele>753</ele>
        <time>2020-09-06T08:16:03.356Z</time>
      </trkpt>
      <trkpt lat="48.41063" lon="7.31505">
        <ele>753</ele>
        <time>2020-09-06T08:16:04.355Z</time>
      </trkpt>
      <trkpt lat="48.41063" lon="7.31503">
        <ele>753</ele>
        <time>2020-09-06T08:16:05.356Z</time>
      </trkpt>
      <trkpt lat="48.41064" lon="7.315">
        <ele>753</ele>
        <time>2020-09-06T08:16:06.356Z</time>
      </trkpt>
      <trkpt lat="48.41064" lon="7.31498">
        <ele>752</ele>
        <time>2020-09-06T08:16:07.356Z</time>
      </trkpt>
      <trkpt lat="48.41065" lon="7.31496">
        <ele>752</ele>
        <time>2020-09-06T08:16:08.356Z</time>
      </trkpt>
      <trkpt lat="48.41064" lon="7.31495">
        <ele>752</ele>
        <time>2020-09-06T08:16:09.355Z</time>
      </trkpt>
      <trkpt lat="48.41065" lon="7.31493">
        <ele>752</ele>
        <time>2020-09-06T08:16:10.355Z</time>
      </trkpt>
      <trkpt lat="48.41064" lon="7.31492">
        <ele>751</ele>
        <time>2020-09-06T08:16:11.356Z</time>
      </trkpt>
      <trkpt lat="48.41064" lon="7.3149">
        <ele>751</ele>
        <time>2020-09-06T08:16:12.356Z</time>
      </trkpt>
      <trkpt lat="48.41064" lon="7.31489">
        <ele>751</ele>
        <time>2020-09-06T08:16:13.356Z</time>
      </trkpt>
      <trkpt lat="48.41064" lon="7.31488">
        <ele>751</ele>
        <time>2020-09-06T08:16:14.356Z</time>
      </trkpt>
      <trkpt lat="48.41063" lon="7.31486">
        <ele>752</ele>
        <time>2020-09-06T08:16:15.355Z</time>
      </trkpt>
      <trkpt lat="48.41063" lon="7.31485">
        <ele>752</ele>
        <time>2020-09-06T08:16:16.356Z</time>
      </trkpt>
      <trkpt lat="48.41062" lon="7.31484">
        <ele>753</ele>
        <time>2020-09-06T08:16:17.356Z</time>
      </trkpt>
      <trkpt lat="48.41062" lon="7.31484">
        <ele>752</ele>
        <time>2020-09-06T08:16:18.355Z</time>
      </trkpt>
      <trkpt lat="48.41061" lon="7.31483">
        <ele>752</ele>
        <time>2020-09-06T08:16:19.355Z</time>
      </trkpt>
      <trkpt lat="48.41061" lon="7.31481">
        <ele>752</ele>
        <time>2020-09-06T08:16:20.356Z</time>
      </trkpt>
      <trkpt lat="48.41061" lon="7.31479">
        <ele>752</ele>
        <time>2020-09-06T08:16:21.356Z</time>
      </trkpt>
      <trkpt lat="48.41061" lon="7.31477">
        <ele>752</ele>
        <time>2020-09-06T08:16:22.356Z</time>
      </trkpt>
      <trkpt lat="48.4106" lon="7.31476">
        <ele>752</ele>
        <time>2020-09-06T08:16:23.355Z</time>
      </trkpt>
      <trkpt lat="48.4106" lon="7.31475">
        <ele>752</ele>
        <time>2020-09-06T08:16:24.356Z</time>
      </trkpt>
      <trkpt lat="48.4106" lon="7.31474">
        <ele>752</ele>
        <time>2020-09-06T08:16:25.356Z</time>
      </trkpt>
      <trkpt lat="48.4106" lon="7.31473">
        <ele>752</ele>
        <time>2020-09-06T08:16:26.356Z</time>
      </trkpt>
      <trkpt lat="48.4106" lon="7.31472">
        <ele>753</ele>
        <time>2020-09-06T08:16:27.356Z</time>
      </trkpt>
      <trkpt lat="48.4106" lon="7.31472">
        <ele>753</ele>
        <time>2020-09-06T08:16:28.356Z</time>
      </trkpt>
      <trkpt lat="48.4106" lon="7.31471">
        <ele>754</ele>
        <time>2020-09-06T08:16:29.356Z</time>
      </trkpt>
      <trkpt lat="48.41059" lon="7.31469">
        <ele>754</ele>
        <time>2020-09-06T08:16:30.356Z</time>
      </trkpt>
      <trkpt lat="48.41059" lon="7.31466">
        <ele>754</ele>
        <time>2020-09-06T08:16:31.356Z</time>
      </trkpt>
      <trkpt lat="48.41059" lon="7.31464">
        <ele>753</ele>
        <time>2020-09-06T08:16:32.356Z</time>
      </trkpt>
      <trkpt lat="48.41058" lon="7.31462">
        <ele>753</ele>
        <time>2020-09-06T08:16:33.355Z</time>
      </trkpt>
      <trkpt lat="48.41058" lon="7.31461">
        <ele>753</ele>
        <time>2020-09-06T08:16:34.355Z</time>
      </trkpt>
      <trkpt lat="48.41059" lon="7.3146">
        <ele>753</ele>
        <time>2020-09-06T08:16:35.356Z</time>
      </trkpt>
      <trkpt lat="48.41059" lon="7.31459">
        <ele>752</ele>
        <time>2020-09-06T08:16:36.356Z</time>
      </trkpt>
      <trkpt lat="48.41059" lon="7.31458">
        <ele>752</ele>
        <time>2020-09-06T08:16:37.355Z</time>
      </trkpt>
      <trkpt lat="48.41059" lon="7.31457">
        <ele>751</ele>
        <time>2020-09-06T08:16:38.355Z</time>
      </trkpt>
      <trkpt lat="48.4106" lon="7.31455">
        <ele>750</ele>
        <time>2020-09-06T08:16:39.356Z</time>
      </trkpt>
      <trkpt lat="48.4106" lon="7.31454">
        <ele>750</ele>
        <time>2020-09-06T08:16:40.356Z</time>
      </trkpt>
      <trkpt lat="48.4106" lon="7.31452">
        <ele>749</ele>
        <time>2020-09-06T08:16:41.356Z</time>
      </trkpt>
      <trkpt lat="48.41061" lon="7.3145">
        <ele>749</ele>
        <time>2020-09-06T08:16:42.356Z</time>
      </trkpt>
      <trkpt lat="48.41061" lon="7.31449">
        <ele>748</ele>
        <time>2020-09-06T08:16:43.356Z</time>
      </trkpt>
      <trkpt lat="48.41061" lon="7.31446">
        <ele>748</ele>
        <time>2020-09-06T08:16:44.355Z</time>
      </trkpt>
      <trkpt lat="48.41061" lon="7.31443">
        <ele>748</ele>
        <time>2020-09-06T08:16:45.356Z</time>
      </trkpt>
      <trkpt lat="48.41062" lon="7.31441">
        <ele>748</ele>
        <time>2020-09-06T08:16:46.356Z</time>
      </trkpt>
      <trkpt lat="48.41063" lon="7.3144">
        <ele>748</ele>
        <time>2020-09-06T08:16:47.355Z</time>
      </trkpt>
      <trkpt lat="48.41063" lon="7.31438">
        <ele>748</ele>
        <time>2020-09-06T08:16:48.355Z</time>
      </trkpt>
      <trkpt lat="48.41064" lon="7.31437">
        <ele>748</ele>
        <time>2020-09-06T08:16:49.355Z</time>
      </trkpt>
      <trkpt lat="48.41065" lon="7.31436">
        <ele>748</ele>
        <time>2020-09-06T08:16:50.356Z</time>
      </trkpt>
      <trkpt lat="48.41065" lon="7.31435">
        <ele>748</ele>
        <time>2020-09-06T08:16:51.355Z</time>
      </trkpt>
      <trkpt lat="48.41066" lon="7.31434">
        <ele>748</ele>
        <time>2020-09-06T08:16:52.356Z</time>
      </trkpt>
      <trkpt lat="48.41066" lon="7.31433">
        <ele>748</ele>
        <time>2020-09-06T08:16:53.356Z</time>
      </trkpt>
      <trkpt lat="48.41067" lon="7.31432">
        <ele>748</ele>
        <time>2020-09-06T08:16:54.356Z</time>
      </trkpt>
      <trkpt lat="48.41068" lon="7.3143">
        <ele>748</ele>
        <time>2020-09-06T08:16:55.356Z</time>
      </trkpt>
      <trkpt lat="48.41069" lon="7.31429">
        <ele>749</ele>
        <time>2020-09-06T08:16:56.355Z</time>
      </trkpt>
      <trkpt lat="48.41071" lon="7.31426">
        <ele>749</ele>
        <time>2020-09-06T08:16:57.355Z</time>
      </trkpt>
      <trkpt lat="48.41072" lon="7.31424">
        <ele>749</ele>
        <time>2020-09-06T08:16:58.355Z</time>
      </trkpt>
      <trkpt lat="48.41072" lon="7.31423">
        <ele>749</ele>
        <time>2020-09-06T08:16:59.355Z</time>
      </trkpt>
      <trkpt lat="48.41072" lon="7.31422">
        <ele>749</ele>
        <time>2020-09-06T08:17:00.356Z</time>
      </trkpt>
      <trkpt lat="48.41072" lon="7.31422">
        <ele>749</ele>
        <time>2020-09-06T08:17:01.355Z</time>
      </trkpt>
      <trkpt lat="48.41072" lon="7.31422">
        <ele>749</ele>
        <time>2020-09-06T08:17:02.356Z</time>
      </trkpt>
      <trkpt lat="48.41072" lon="7.31422">
        <ele>750</ele>
        <time>2020-09-06T08:17:03.356Z</time>
      </trkpt>
      <trkpt lat="48.41072" lon="7.31421">
        <ele>750</ele>
        <time>2020-09-06T08:17:04.355Z</time>
      </trkpt>
      <trkpt lat="48.41073" lon="7.3142">
        <ele>751</ele>
        <time>2020-09-06T08:17:05.355Z</time>
      </trkpt>
      <trkpt lat="48.41074" lon="7.31419">
        <ele>751</ele>
        <time>2020-09-06T08:17:06.356Z</time>
      </trkpt>
      <trkpt lat="48.41075" lon="7.31417">
        <ele>751</ele>
        <time>2020-09-06T08:17:07.356Z</time>
      </trkpt>
      <trkpt lat="48.41075" lon="7.31415">
        <ele>752</ele>
        <time>2020-09-06T08:17:08.355Z</time>
      </trkpt>
      <trkpt lat="48.41076" lon="7.31414">
        <ele>752</ele>
        <time>2020-09-06T08:17:09.355Z</time>
      </trkpt>
      <trkpt lat="48.41077" lon="7.31412">
        <ele>752</ele>
        <time>2020-09-06T08:17:10.355Z</time>
      </trkpt>
      <trkpt lat="48.41078" lon="7.3141">
        <ele>752</ele>
        <time>2020-09-06T08:17:11.355Z</time>
      </trkpt>
      <trkpt lat="48.41078" lon="7.31408">
        <ele>752</ele>
        <time>2020-09-06T08:17:12.355Z</time>
      </trkpt>
      <trkpt lat="48.41079" lon="7.31406">
        <ele>752</ele>
        <time>2020-09-06T08:17:13.355Z</time>
      </trkpt>
      <trkpt lat="48.4108" lon="7.31406">
        <ele>752</ele>
        <time>2020-09-06T08:17:14.355Z</time>
      </trkpt>
      <trkpt lat="48.41081" lon="7.31405">
        <ele>752</ele>
        <time>2020-09-06T08:17:15.355Z</time>
      </trkpt>
      <trkpt lat="48.41081" lon="7.31405">
        <ele>752</ele>
        <time>2020-09-06T08:17:16.356Z</time>
      </trkpt>
      <trkpt lat="48.41082" lon="7.31406">
        <ele>752</ele>
        <time>2020-09-06T08:17:17.356Z</time>
      </trkpt>
      <trkpt lat="48.41082" lon="7.31406">
        <ele>752</ele>
        <time>2020-09-06T08:17:18.355Z</time>
      </trkpt>
      <trkpt lat="48.41083" lon="7.31407">
        <ele>752</ele>
        <time>2020-09-06T08:17:19.356Z</time>
      </trkpt>
      <trkpt lat="48.41084" lon="7.31407">
        <ele>751</ele>
        <time>2020-09-06T08:17:20.356Z</time>
      </trkpt>
      <trkpt lat="48.41084" lon="7.31407">
        <ele>751</ele>
        <time>2020-09-06T08:17:21.356Z</time>
      </trkpt>
      <trkpt lat="48.41084" lon="7.31406">
        <ele>750</ele>
        <time>2020-09-06T08:17:22.356Z</time>
      </trkpt>
      <trkpt lat="48.41084" lon="7.31405">
        <ele>750</ele>
        <time>2020-09-06T08:17:23.355Z</time>
      </trkpt>
      <trkpt lat="48.41085" lon="7.31405">
        <ele>750</ele>
        <time>2020-09-06T08:17:24.356Z</time>
      </trkpt>
      <trkpt lat="48.41085" lon="7.31404">
        <ele>750</ele>
        <time>2020-09-06T08:17:25.356Z</time>
      </trkpt>
      <trkpt lat="48.41086" lon="7.31404">
        <ele>750</ele>
        <time>2020-09-06T08:17:26.356Z</time>
      </trkpt>
      <trkpt lat="48.41087" lon="7.31404">
        <ele>750</ele>
        <time>2020-09-06T08:17:27.355Z</time>
      </trkpt>
      <trkpt lat="48.41087" lon="7.31404">
        <ele>750</ele>
        <time>2020-09-06T08:17:28.356Z</time>
      </trkpt>
      <trkpt lat="48.41088" lon="7.31403">
        <ele>751</ele>
        <time>2020-09-06T08:17:29.356Z</time>
      </trkpt>
      <trkpt lat="48.41089" lon="7.31402">
        <ele>751</ele>
        <time>2020-09-06T08:17:30.356Z</time>
      </trkpt>
      <trkpt lat="48.4109" lon="7.31401">
        <ele>752</ele>
        <time>2020-09-06T08:17:31.356Z</time>
      </trkpt>
      <trkpt lat="48.41092" lon="7.31401">
        <ele>752</ele>
        <time>2020-09-06T08:17:32.356Z</time>
      </trkpt>
      <trkpt lat="48.41093" lon="7.314">
        <ele>753</ele>
        <time>2020-09-06T08:17:33.355Z</time>
      </trkpt>
      <trkpt lat="48.41094" lon="7.314">
        <ele>754</ele>
        <time>2020-09-06T08:17:34.356Z</time>
      </trkpt>
      <trkpt lat="48.41096" lon="7.314">
        <ele>755</ele>
        <time>2020-09-06T08:17:35.356Z</time>
      </trkpt>
      <trkpt lat="48.41097" lon="7.31399">
        <ele>755</ele>
        <time>2020-09-06T08:17:36.355Z</time>
      </trkpt>
      <trkpt lat="48.41098" lon="7.31399">
        <ele>756</ele>
        <time>2020-09-06T08:17:37.355Z</time>
      </trkpt>
      <trkpt lat="48.411" lon="7.31398">
        <ele>757</ele>
        <time>2020-09-06T08:17:38.356Z</time>
      </trkpt>
      <trkpt lat="48.41102" lon="7.31397">
        <ele>757</ele>
        <time>2020-09-06T08:17:39.356Z</time>
      </trkpt>
      <trkpt lat="48.41104" lon="7.31396">
        <ele>758</ele>
        <time>2020-09-06T08:17:40.356Z</time>
      </trkpt>
      <trkpt lat="48.41106" lon="7.31395">
        <ele>759</ele>
        <time>2020-09-06T08:17:41.355Z</time>
      </trkpt>
      <trkpt lat="48.41108" lon="7.31394">
        <ele>759</ele>
        <time>2020-09-06T08:17:42.356Z</time>
      </trkpt>
      <trkpt lat="48.41108" lon="7.31393">
        <ele>760</ele>
        <time>2020-09-06T08:17:43.355Z</time>
      </trkpt>
      <trkpt lat="48.41109" lon="7.31393">
        <ele>760</ele>
        <time>2020-09-06T08:17:44.355Z</time>
      </trkpt>
      <trkpt lat="48.41111" lon="7.31393">
        <ele>760</ele>
        <time>2020-09-06T08:17:45.356Z</time>
      </trkpt>
      <trkpt lat="48.41111" lon="7.31392">
        <ele>761</ele>
        <time>2020-09-06T08:17:46.356Z</time>
      </trkpt>
      <trkpt lat="48.41112" lon="7.31392">
        <ele>761</ele>
        <time>2020-09-06T08:17:47.355Z</time>
      </trkpt>
      <trkpt lat="48.41112" lon="7.31391">
        <ele>762</ele>
        <time>2020-09-06T08:17:48.356Z</time>
      </trkpt>
      <trkpt lat="48.41114" lon="7.3139">
        <ele>764</ele>
        <time>2020-09-06T08:17:49.355Z</time>
      </trkpt>
      <trkpt lat="48.41115" lon="7.31389">
        <ele>765</ele>
        <time>2020-09-06T08:17:50.355Z</time>
      </trkpt>
      <trkpt lat="48.41115" lon="7.31388">
        <ele>766</ele>
        <time>2020-09-06T08:17:51.355Z</time>
      </trkpt>
      <trkpt lat="48.41117" lon="7.31388">
        <ele>766</ele>
        <time>2020-09-06T08:17:52.356Z</time>
      </trkpt>
      <trkpt lat="48.41118" lon="7.31387">
        <ele>767</ele>
        <time>2020-09-06T08:17:53.355Z</time>
      </trkpt>
      <trkpt lat="48.41118" lon="7.31386">
        <ele>767</ele>
        <time>2020-09-06T08:17:54.355Z</time>
      </trkpt>
      <trkpt lat="48.41119" lon="7.31385">
        <ele>768</ele>
        <time>2020-09-06T08:17:55.355Z</time>
      </trkpt>
      <trkpt lat="48.41119" lon="7.31383">
        <ele>768</ele>
        <time>2020-09-06T08:17:56.355Z</time>
      </trkpt>
      <trkpt lat="48.4112" lon="7.31381">
        <ele>767</ele>
        <time>2020-09-06T08:17:57.356Z</time>
      </trkpt>
      <trkpt lat="48.41121" lon="7.3138">
        <ele>767</ele>
        <time>2020-09-06T08:17:58.355Z</time>
      </trkpt>
      <trkpt lat="48.41121" lon="7.31379">
        <ele>767</ele>
        <time>2020-09-06T08:17:59.356Z</time>
      </trkpt>
      <trkpt lat="48.41122" lon="7.31377">
        <ele>767</ele>
        <time>2020-09-06T08:18:00.355Z</time>
      </trkpt>
      <trkpt lat="48.41123" lon="7.31376">
        <ele>767</ele>
        <time>2020-09-06T08:18:01.356Z</time>
      </trkpt>
      <trkpt lat="48.41124" lon="7.31375">
        <ele>767</ele>
        <time>2020-09-06T08:18:02.355Z</time>
      </trkpt>
      <trkpt lat="48.41125" lon="7.31374">
        <ele>767</ele>
        <time>2020-09-06T08:18:03.355Z</time>
      </trkpt>
      <trkpt lat="48.41126" lon="7.31373">
        <ele>767</ele>
        <time>2020-09-06T08:18:04.356Z</time>
      </trkpt>
      <trkpt lat="48.41126" lon="7.31372">
        <ele>767</ele>
        <time>2020-09-06T08:18:05.356Z</time>
      </trkpt>
      <trkpt lat="48.41126" lon="7.31371">
        <ele>767</ele>
        <time>2020-09-06T08:18:06.356Z</time>
      </trkpt>
      <trkpt lat="48.41126" lon="7.31371">
        <ele>767</ele>
        <time>2020-09-06T08:18:07.355Z</time>
      </trkpt>
      <trkpt lat="48.41125" lon="7.3137">
        <ele>768</ele>
        <time>2020-09-06T08:18:08.356Z</time>
      </trkpt>
      <trkpt lat="48.41124" lon="7.31369">
        <ele>768</ele>
        <time>2020-09-06T08:18:09.355Z</time>
      </trkpt>
      <trkpt lat="48.41124" lon="7.31367">
        <ele>769</ele>
        <time>2020-09-06T08:18:10.355Z</time>
      </trkpt>
      <trkpt lat="48.41123" lon="7.31365">
        <ele>769</ele>
        <time>2020-09-06T08:18:11.356Z</time>
      </trkpt>
      <trkpt lat="48.41122" lon="7.31363">
        <ele>769</ele>
        <time>2020-09-06T08:18:12.356Z</time>
      </trkpt>
      <trkpt lat="48.41121" lon="7.31362">
        <ele>769</ele>
        <time>2020-09-06T08:18:13.356Z</time>
      </trkpt>
      <trkpt lat="48.4112" lon="7.31361">
        <ele>769</ele>
        <time>2020-09-06T08:18:14.356Z</time>
      </trkpt>
      <trkpt lat="48.4112" lon="7.31359">
        <ele>769</ele>
        <time>2020-09-06T08:18:15.355Z</time>
      </trkpt>
      <trkpt lat="48.41119" lon="7.31358">
        <ele>769</ele>
        <time>2020-09-06T08:18:16.355Z</time>
      </trkpt>
      <trkpt lat="48.41119" lon="7.31357">
        <ele>770</ele>
        <time>2020-09-06T08:18:17.356Z</time>
      </trkpt>
      <trkpt lat="48.41118" lon="7.31356">
        <ele>770</ele>
        <time>2020-09-06T08:18:18.355Z</time>
      </trkpt>
      <trkpt lat="48.41118" lon="7.31355">
        <ele>770</ele>
        <time>2020-09-06T08:18:19.355Z</time>
      </trkpt>
      <trkpt lat="48.41118" lon="7.31354">
        <ele>771</ele>
        <time>2020-09-06T08:18:20.355Z</time>
      </trkpt>
      <trkpt lat="48.41117" lon="7.31353">
        <ele>771</ele>
        <time>2020-09-06T08:18:21.355Z</time>
      </trkpt>
      <trkpt lat="48.41117" lon="7.31352">
        <ele>771</ele>
        <time>2020-09-06T08:18:22.355Z</time>
      </trkpt>
      <trkpt lat="48.41116" lon="7.3135">
        <ele>772</ele>
        <time>2020-09-06T08:18:23.355Z</time>
      </trkpt>
      <trkpt lat="48.41115" lon="7.31348">
        <ele>772</ele>
        <time>2020-09-06T08:18:24.355Z</time>
      </trkpt>
      <trkpt lat="48.41114" lon="7.31348">
        <ele>772</ele>
        <time>2020-09-06T08:18:25.355Z</time>
      </trkpt>
      <trkpt lat="48.41114" lon="7.31347">
        <ele>772</ele>
        <time>2020-09-06T08:18:26.355Z</time>
      </trkpt>
      <trkpt lat="48.41114" lon="7.31346">
        <ele>772</ele>
        <time>2020-09-06T08:18:27.355Z</time>
      </trkpt>
      <trkpt lat="48.41115" lon="7.31345">
        <ele>772</ele>
        <time>2020-09-06T08:18:28.355Z</time>
      </trkpt>
      <trkpt lat="48.41115" lon="7.31344">
        <ele>772</ele>
        <time>2020-09-06T08:18:29.355Z</time>
      </trkpt>
      <trkpt lat="48.41116" lon="7.31343">
        <ele>773</ele>
        <time>2020-09-06T08:18:30.356Z</time>
      </trkpt>
      <trkpt lat="48.41114" lon="7.3134">
        <ele>773</ele>
        <time>2020-09-06T08:18:31.355Z</time>
      </trkpt>
      <trkpt lat="48.41113" lon="7.31338">
        <ele>773</ele>
        <time>2020-09-06T08:18:32.355Z</time>
      </trkpt>
      <trkpt lat="48.41113" lon="7.31336">
        <ele>773</ele>
        <time>2020-09-06T08:18:33.355Z</time>
      </trkpt>
      <trkpt lat="48.41112" lon="7.31335">
        <ele>773</ele>
        <time>2020-09-06T08:18:34.355Z</time>
      </trkpt>
      <trkpt lat="48.41112" lon="7.31335">
        <ele>773</ele>
        <time>2020-09-06T08:18:35.356Z</time>
      </trkpt>
      <trkpt lat="48.41112" lon="7.31334">
        <ele>773</ele>
        <time>2020-09-06T08:18:36.355Z</time>
      </trkpt>
      <trkpt lat="48.41112" lon="7.31333">
        <ele>772</ele>
        <time>2020-09-06T08:18:37.356Z</time>
      </trkpt>
      <trkpt lat="48.41111" lon="7.31332">
        <ele>772</ele>
        <time>2020-09-06T08:18:38.356Z</time>
      </trkpt>
      <trkpt lat="48.41111" lon="7.31331">
        <ele>772</ele>
        <time>2020-09-06T08:18:39.355Z</time>
      </trkpt>
      <trkpt lat="48.41111" lon="7.31329">
        <ele>772</ele>
        <time>2020-09-06T08:18:40.355Z</time>
      </trkpt>
      <trkpt lat="48.4111" lon="7.31328">
        <ele>771</ele>
        <time>2020-09-06T08:18:41.355Z</time>
      </trkpt>
      <trkpt lat="48.4111" lon="7.31326">
        <ele>771</ele>
        <time>2020-09-06T08:18:42.355Z</time>
      </trkpt>
      <trkpt lat="48.41109" lon="7.31325">
        <ele>770</ele>
        <time>2020-09-06T08:18:43.356Z</time>
      </trkpt>
      <trkpt lat="48.41108" lon="7.31324">
        <ele>770</ele>
        <time>2020-09-06T08:18:44.355Z</time>
      </trkpt>
      <trkpt lat="48.41108" lon="7.31322">
        <ele>769</ele>
        <time>2020-09-06T08:18:45.355Z</time>
      </trkpt>
      <trkpt lat="48.41108" lon="7.31321">
        <ele>769</ele>
        <time>2020-09-06T08:18:46.355Z</time>
      </trkpt>
      <trkpt lat="48.41107" lon="7.31319">
        <ele>769</ele>
        <time>2020-09-06T08:18:47.355Z</time>
      </trkpt>
      <trkpt lat="48.41107" lon="7.31316">
        <ele>769</ele>
        <time>2020-09-06T08:18:48.356Z</time>
      </trkpt>
      <trkpt lat="48.41105" lon="7.31314">
        <ele>769</ele>
        <time>2020-09-06T08:18:49.355Z</time>
      </trkpt>
      <trkpt lat="48.41105" lon="7.31313">
        <ele>769</ele>
        <time>2020-09-06T08:18:50.356Z</time>
      </trkpt>
      <trkpt lat="48.41105" lon="7.31312">
        <ele>769</ele>
        <time>2020-09-06T08:18:51.356Z</time>
      </trkpt>
      <trkpt lat="48.41105" lon="7.31311">
        <ele>769</ele>
        <time>2020-09-06T08:18:52.356Z</time>
      </trkpt>
      <trkpt lat="48.41105" lon="7.3131">
        <ele>769</ele>
        <time>2020-09-06T08:18:53.355Z</time>
      </trkpt>
      <trkpt lat="48.41105" lon="7.31309">
        <ele>769</ele>
        <time>2020-09-06T08:18:54.356Z</time>
      </trkpt>
      <trkpt lat="48.41104" lon="7.31308">
        <ele>770</ele>
        <time>2020-09-06T08:18:55.355Z</time>
      </trkpt>
      <trkpt lat="48.41103" lon="7.31308">
        <ele>771</ele>
        <time>2020-09-06T08:18:56.355Z</time>
      </trkpt>
      <trkpt lat="48.41102" lon="7.31307">
        <ele>772</ele>
        <time>2020-09-06T08:18:57.355Z</time>
      </trkpt>
      <trkpt lat="48.411" lon="7.31305">
        <ele>773</ele>
        <time>2020-09-06T08:18:58.356Z</time>
      </trkpt>
      <trkpt lat="48.41099" lon="7.31303">
        <ele>774</ele>
        <time>2020-09-06T08:18:59.356Z</time>
      </trkpt>
      <trkpt lat="48.41098" lon="7.31301">
        <ele>775</ele>
        <time>2020-09-06T08:19:00.356Z</time>
      </trkpt>
      <trkpt lat="48.41097" lon="7.313">
        <ele>776</ele>
        <time>2020-09-06T08:19:01.355Z</time>
      </trkpt>
      <trkpt lat="48.41096" lon="7.31298">
        <ele>776</ele>
        <time>2020-09-06T08:19:02.355Z</time>
      </trkpt>
      <trkpt lat="48.41095" lon="7.31297">
        <ele>777</ele>
        <time>2020-09-06T08:19:03.356Z</time>
      </trkpt>
      <trkpt lat="48.41094" lon="7.31296">
        <ele>778</ele>
        <time>2020-09-06T08:19:04.355Z</time>
      </trkpt>
      <trkpt lat="48.41093" lon="7.31295">
        <ele>778</ele>
        <time>2020-09-06T08:19:05.355Z</time>
      </trkpt>
      <trkpt lat="48.41092" lon="7.31293">
        <ele>779</ele>
        <time>2020-09-06T08:19:06.356Z</time>
      </trkpt>
      <trkpt lat="48.41092" lon="7.31292">
        <ele>779</ele>
        <time>2020-09-06T08:19:07.356Z</time>
      </trkpt>
      <trkpt lat="48.41091" lon="7.31291">
        <ele>780</ele>
        <time>2020-09-06T08:19:08.355Z</time>
      </trkpt>
      <trkpt lat="48.41089" lon="7.31291">
        <ele>780</ele>
        <time>2020-09-06T08:19:09.356Z</time>
      </trkpt>
      <trkpt lat="48.41087" lon="7.3129">
        <ele>780</ele>
        <time>2020-09-06T08:19:10.356Z</time>
      </trkpt>
      <trkpt lat="48.41087" lon="7.31289">
        <ele>780</ele>
        <time>2020-09-06T08:19:11.356Z</time>
      </trkpt>
      <trkpt lat="48.41086" lon="7.31288">
        <ele>780</ele>
        <time>2020-09-06T08:19:12.356Z</time>
      </trkpt>
      <trkpt lat="48.41086" lon="7.31287">
        <ele>780</ele>
        <time>2020-09-06T08:19:13.355Z</time>
      </trkpt>
      <trkpt lat="48.41085" lon="7.31286">
        <ele>779</ele>
        <time>2020-09-06T08:19:14.355Z</time>
      </trkpt>
      <trkpt lat="48.41085" lon="7.31285">
        <ele>779</ele>
        <time>2020-09-06T08:19:15.355Z</time>
      </trkpt>
      <trkpt lat="48.41085" lon="7.31283">
        <ele>778</ele>
        <time>2020-09-06T08:19:16.356Z</time>
      </trkpt>
      <trkpt lat="48.41084" lon="7.31282">
        <ele>778</ele>
        <time>2020-09-06T08:19:17.355Z</time>
      </trkpt>
      <trkpt lat="48.41084" lon="7.3128">
        <ele>778</ele>
        <time>2020-09-06T08:19:18.355Z</time>
      </trkpt>
      <trkpt lat="48.41084" lon="7.31277">
        <ele>778</ele>
        <time>2020-09-06T08:19:19.355Z</time>
      </trkpt>
      <trkpt lat="48.41084" lon="7.31276">
        <ele>778</ele>
        <time>2020-09-06T08:19:20.355Z</time>
      </trkpt>
      <trkpt lat="48.41084" lon="7.31275">
        <ele>777</ele>
        <time>2020-09-06T08:19:21.355Z</time>
      </trkpt>
      <trkpt lat="48.41083" lon="7.31274">
        <ele>777</ele>
        <time>2020-09-06T08:19:22.355Z</time>
      </trkpt>
      <trkpt lat="48.41082" lon="7.31272">
        <ele>776</ele>
        <time>2020-09-06T08:19:23.356Z</time>
      </trkpt>
      <trkpt lat="48.41081" lon="7.31271">
        <ele>776</ele>
        <time>2020-09-06T08:19:24.356Z</time>
      </trkpt>
      <trkpt lat="48.41081" lon="7.3127">
        <ele>776</ele>
        <time>2020-09-06T08:19:25.355Z</time>
      </trkpt>
      <trkpt lat="48.41081" lon="7.3127">
        <ele>776</ele>
        <time>2020-09-06T08:19:26.356Z</time>
      </trkpt>
      <trkpt lat="48.4108" lon="7.3127">
        <ele>775</ele>
        <time>2020-09-06T08:19:27.355Z</time>
      </trkpt>
      <trkpt lat="48.41079" lon="7.31268">
        <ele>775</ele>
        <time>2020-09-06T08:19:28.356Z</time>
      </trkpt>
      <trkpt lat="48.41079" lon="7.31267">
        <ele>775</ele>
        <time>2020-09-06T08:19:29.355Z</time>
      </trkpt>
      <trkpt lat="48.41079" lon="7.31266">
        <ele>775</ele>
        <time>2020-09-06T08:19:30.356Z</time>
      </trkpt>
      <trkpt lat="48.41078" lon="7.31265">
        <ele>774</ele>
        <time>2020-09-06T08:19:31.355Z</time>
      </trkpt>
      <trkpt lat="48.41078" lon="7.31262">
        <ele>772</ele>
        <time>2020-09-06T08:19:32.355Z</time>
      </trkpt>
      <trkpt lat="48.41077" lon="7.31261">
        <ele>771</ele>
        <time>2020-09-06T08:19:33.356Z</time>
      </trkpt>
      <trkpt lat="48.41076" lon="7.31259">
        <ele>770</ele>
        <time>2020-09-06T08:19:34.356Z</time>
      </trkpt>
      <trkpt lat="48.41076" lon="7.31257">
        <ele>769</ele>
        <time>2020-09-06T08:19:35.355Z</time>
      </trkpt>
      <trkpt lat="48.41076" lon="7.31256">
        <ele>768</ele>
        <time>2020-09-06T08:19:36.356Z</time>
      </trkpt>
      <trkpt lat="48.41075" lon="7.31255">
        <ele>768</ele>
        <time>2020-09-06T08:19:37.355Z</time>
      </trkpt>
      <trkpt lat="48.41075" lon="7.31253">
        <ele>768</ele>
        <time>2020-09-06T08:19:38.355Z</time>
      </trkpt>
      <trkpt lat="48.41074" lon="7.31251">
        <ele>768</ele>
        <time>2020-09-06T08:19:39.356Z</time>
      </trkpt>
      <trkpt lat="48.41073" lon="7.31249">
        <ele>768</ele>
        <time>2020-09-06T08:19:40.355Z</time>
      </trkpt>
      <trkpt lat="48.41073" lon="7.31247">
        <ele>768</ele>
        <time>2020-09-06T08:19:41.355Z</time>
      </trkpt>
      <trkpt lat="48.41073" lon="7.31246">
        <ele>768</ele>
        <time>2020-09-06T08:19:42.356Z</time>
      </trkpt>
      <trkpt lat="48.41072" lon="7.31244">
        <ele>768</ele>
        <time>2020-09-06T08:19:43.355Z</time>
      </trkpt>
      <trkpt lat="48.41072" lon="7.31242">
        <ele>767</ele>
        <time>2020-09-06T08:19:44.355Z</time>
      </trkpt>
      <trkpt lat="48.41071" lon="7.31241">
        <ele>767</ele>
        <time>2020-09-06T08:19:45.356Z</time>
      </trkpt>
      <trkpt lat="48.4107" lon="7.31238">
        <ele>767</ele>
        <time>2020-09-06T08:19:46.356Z</time>
      </trkpt>
      <trkpt lat="48.4107" lon="7.31237">
        <ele>767</ele>
        <time>2020-09-06T08:19:47.355Z</time>
      </trkpt>
      <trkpt lat="48.4107" lon="7.31235">
        <ele>768</ele>
        <time>2020-09-06T08:19:48.355Z</time>
      </trkpt>
      <trkpt lat="48.4107" lon="7.31234">
        <ele>768</ele>
        <time>2020-09-06T08:19:49.355Z</time>
      </trkpt>
      <trkpt lat="48.4107" lon="7.31232">
        <ele>769</ele>
        <time>2020-09-06T08:19:50.356Z</time>
      </trkpt>
      <trkpt lat="48.4107" lon="7.31232">
        <ele>770</ele>
        <time>2020-09-06T08:19:51.355Z</time>
      </trkpt>
      <trkpt lat="48.4107" lon="7.3123">
        <ele>770</ele>
        <time>2020-09-06T08:19:52.355Z</time>
      </trkpt>
      <trkpt lat="48.4107" lon="7.31229">
        <ele>771</ele>
        <time>2020-09-06T08:19:53.355Z</time>
      </trkpt>
      <trkpt lat="48.4107" lon="7.31228">
        <ele>772</ele>
        <time>2020-09-06T08:19:54.355Z</time>
      </trkpt>
      <trkpt lat="48.4107" lon="7.31226">
        <ele>772</ele>
        <time>2020-09-06T08:19:55.355Z</time>
      </trkpt>
      <trkpt lat="48.41069" lon="7.31225">
        <ele>773</ele>
        <time>2020-09-06T08:19:56.355Z</time>
      </trkpt>
      <trkpt lat="48.41069" lon="7.31223">
        <ele>774</ele>
        <time>2020-09-06T08:19:57.356Z</time>
      </trkpt>
      <trkpt lat="48.41068" lon="7.3122">
        <ele>774</ele>
        <time>2020-09-06T08:19:58.355Z</time>
      </trkpt>
      <trkpt lat="48.41068" lon="7.31217">
        <ele>774</ele>
        <time>2020-09-06T08:19:59.356Z</time>
      </trkpt>
      <trkpt lat="48.41068" lon="7.31215">
        <ele>775</ele>
        <time>2020-09-06T08:20:00.355Z</time>
      </trkpt>
      <trkpt lat="48.41068" lon="7.31214">
        <ele>775</ele>
        <time>2020-09-06T08:20:01.355Z</time>
      </trkpt>
      <trkpt lat="48.41067" lon="7.31211">
        <ele>775</ele>
        <time>2020-09-06T08:20:02.355Z</time>
      </trkpt>
      <trkpt lat="48.41068" lon="7.31209">
        <ele>775</ele>
        <time>2020-09-06T08:20:03.355Z</time>
      </trkpt>
      <trkpt lat="48.41068" lon="7.31207">
        <ele>776</ele>
        <time>2020-09-06T08:20:04.355Z</time>
      </trkpt>
      <trkpt lat="48.41067" lon="7.31205">
        <ele>776</ele>
        <time>2020-09-06T08:20:05.356Z</time>
      </trkpt>
      <trkpt lat="48.41067" lon="7.31201">
        <ele>776</ele>
        <time>2020-09-06T08:20:06.356Z</time>
      </trkpt>
      <trkpt lat="48.41067" lon="7.31199">
        <ele>776</ele>
        <time>2020-09-06T08:20:07.355Z</time>
      </trkpt>
      <trkpt lat="48.41067" lon="7.31197">
        <ele>776</ele>
        <time>2020-09-06T08:20:08.355Z</time>
      </trkpt>
      <trkpt lat="48.41067" lon="7.31196">
        <ele>775</ele>
        <time>2020-09-06T08:20:09.356Z</time>
      </trkpt>
      <trkpt lat="48.41068" lon="7.31195">
        <ele>775</ele>
        <time>2020-09-06T08:20:10.355Z</time>
      </trkpt>
      <trkpt lat="48.41068" lon="7.31193">
        <ele>775</ele>
        <time>2020-09-06T08:20:11.355Z</time>
      </trkpt>
      <trkpt lat="48.41069" lon="7.31192">
        <ele>776</ele>
        <time>2020-09-06T08:20:12.355Z</time>
      </trkpt>
      <trkpt lat="48.41069" lon="7.31191">
        <ele>776</ele>
        <time>2020-09-06T08:20:13.356Z</time>
      </trkpt>
      <trkpt lat="48.4107" lon="7.3119">
        <ele>776</ele>
        <time>2020-09-06T08:20:14.355Z</time>
      </trkpt>
      <trkpt lat="48.41071" lon="7.31189">
        <ele>777</ele>
        <time>2020-09-06T08:20:15.355Z</time>
      </trkpt>
      <trkpt lat="48.41071" lon="7.31188">
        <ele>777</ele>
        <time>2020-09-06T08:20:16.355Z</time>
      </trkpt>
      <trkpt lat="48.41072" lon="7.31187">
        <ele>777</ele>
        <time>2020-09-06T08:20:17.355Z</time>
      </trkpt>
      <trkpt lat="48.41072" lon="7.31185">
        <ele>778</ele>
        <time>2020-09-06T08:20:18.355Z</time>
      </trkpt>
      <trkpt lat="48.41072" lon="7.31184">
        <ele>778</ele>
        <time>2020-09-06T08:20:19.356Z</time>
      </trkpt>
      <trkpt lat="48.41073" lon="7.31182">
        <ele>778</ele>
        <time>2020-09-06T08:20:20.356Z</time>
      </trkpt>
      <trkpt lat="48.41074" lon="7.31181">
        <ele>779</ele>
        <time>2020-09-06T08:20:21.356Z</time>
      </trkpt>
      <trkpt lat="48.41075" lon="7.31181">
        <ele>779</ele>
        <time>2020-09-06T08:20:22.355Z</time>
      </trkpt>
      <trkpt lat="48.41076" lon="7.3118">
        <ele>780</ele>
        <time>2020-09-06T08:20:23.356Z</time>
      </trkpt>
      <trkpt lat="48.41077" lon="7.31178">
        <ele>780</ele>
        <time>2020-09-06T08:20:24.355Z</time>
      </trkpt>
      <trkpt lat="48.41078" lon="7.31176">
        <ele>781</ele>
        <time>2020-09-06T08:20:25.355Z</time>
      </trkpt>
      <trkpt lat="48.41078" lon="7.31174">
        <ele>782</ele>
        <time>2020-09-06T08:20:26.355Z</time>
      </trkpt>
      <trkpt lat="48.41078" lon="7.31171">
        <ele>782</ele>
        <time>2020-09-06T08:20:27.355Z</time>
      </trkpt>
      <trkpt lat="48.41078" lon="7.31169">
        <ele>783</ele>
        <time>2020-09-06T08:20:28.356Z</time>
      </trkpt>
      <trkpt lat="48.41079" lon="7.31167">
        <ele>783</ele>
        <time>2020-09-06T08:20:29.355Z</time>
      </trkpt>
      <trkpt lat="48.41079" lon="7.31166">
        <ele>783</ele>
        <time>2020-09-06T08:20:30.356Z</time>
      </trkpt>
      <trkpt lat="48.4108" lon="7.31165">
        <ele>783</ele>
        <time>2020-09-06T08:20:31.356Z</time>
      </trkpt>
      <trkpt lat="48.41081" lon="7.31164">
        <ele>784</ele>
        <time>2020-09-06T08:20:32.355Z</time>
      </trkpt>
      <trkpt lat="48.41081" lon="7.31163">
        <ele>784</ele>
        <time>2020-09-06T08:20:33.355Z</time>
      </trkpt>
      <trkpt lat="48.41082" lon="7.31162">
        <ele>785</ele>
        <time>2020-09-06T08:20:34.356Z</time>
      </trkpt>
      <trkpt lat="48.41083" lon="7.31161">
        <ele>785</ele>
        <time>2020-09-06T08:20:35.356Z</time>
      </trkpt>
      <trkpt lat="48.41083" lon="7.3116">
        <ele>785</ele>
        <time>2020-09-06T08:20:36.355Z</time>
      </trkpt>
      <trkpt lat="48.41083" lon="7.31158">
        <ele>785</ele>
        <time>2020-09-06T08:20:37.356Z</time>
      </trkpt>
      <trkpt lat="48.41084" lon="7.31156">
        <ele>785</ele>
        <time>2020-09-06T08:20:38.355Z</time>
      </trkpt>
      <trkpt lat="48.41084" lon="7.31154">
        <ele>785</ele>
        <time>2020-09-06T08:20:39.355Z</time>
      </trkpt>
      <trkpt lat="48.41084" lon="7.31152">
        <ele>785</ele>
        <time>2020-09-06T08:20:40.356Z</time>
      </trkpt>
      <trkpt lat="48.41085" lon="7.31149">
        <ele>785</ele>
        <time>2020-09-06T08:20:41.356Z</time>
      </trkpt>
      <trkpt lat="48.41085" lon="7.31147">
        <ele>785</ele>
        <time>2020-09-06T08:20:42.355Z</time>
      </trkpt>
      <trkpt lat="48.41085" lon="7.31145">
        <ele>785</ele>
        <time>2020-09-06T08:20:43.355Z</time>
      </trkpt>
      <trkpt lat="48.41085" lon="7.31143">
        <ele>786</ele>
        <time>2020-09-06T08:20:44.355Z</time>
      </trkpt>
      <trkpt lat="48.41085" lon="7.31141">
        <ele>786</ele>
        <time>2020-09-06T08:20:45.356Z</time>
      </trkpt>
      <trkpt lat="48.41086" lon="7.31139">
        <ele>786</ele>
        <time>2020-09-06T08:20:46.355Z</time>
      </trkpt>
      <trkpt lat="48.41086" lon="7.31138">
        <ele>787</ele>
        <time>2020-09-06T08:20:47.356Z</time>
      </trkpt>
      <trkpt lat="48.41087" lon="7.31136">
        <ele>787</ele>
        <time>2020-09-06T08:20:48.356Z</time>
      </trkpt>
      <trkpt lat="48.41087" lon="7.31135">
        <ele>787</ele>
        <time>2020-09-06T08:20:49.356Z</time>
      </trkpt>
      <trkpt lat="48.41087" lon="7.31133">
        <ele>787</ele>
        <time>2020-09-06T08:20:50.355Z</time>
      </trkpt>
      <trkpt lat="48.41088" lon="7.31131">
        <ele>788</ele>
        <time>2020-09-06T08:20:51.355Z</time>
      </trkpt>
      <trkpt lat="48.41088" lon="7.3113">
        <ele>788</ele>
        <time>2020-09-06T08:20:52.355Z</time>
      </trkpt>
      <trkpt lat="48.41089" lon="7.31128">
        <ele>789</ele>
        <time>2020-09-06T08:20:53.355Z</time>
      </trkpt>
      <trkpt lat="48.4109" lon="7.31127">
        <ele>789</ele>
        <time>2020-09-06T08:20:54.355Z</time>
      </trkpt>
      <trkpt lat="48.4109" lon="7.31126">
        <ele>790</ele>
        <time>2020-09-06T08:20:55.356Z</time>
      </trkpt>
      <trkpt lat="48.41092" lon="7.31126">
        <ele>790</ele>
        <time>2020-09-06T08:20:56.355Z</time>
      </trkpt>
      <trkpt lat="48.41093" lon="7.31126">
        <ele>790</ele>
        <time>2020-09-06T08:20:57.355Z</time>
      </trkpt>
      <trkpt lat="48.41095" lon="7.31125">
        <ele>790</ele>
        <time>2020-09-06T08:20:58.355Z</time>
      </trkpt>
      <trkpt lat="48.41096" lon="7.31124">
        <ele>790</ele>
        <time>2020-09-06T08:20:59.355Z</time>
      </trkpt>
      <trkpt lat="48.41097" lon="7.31122">
        <ele>789</ele>
        <time>2020-09-06T08:21:00.356Z</time>
      </trkpt>
      <trkpt lat="48.41097" lon="7.31121">
        <ele>789</ele>
        <time>2020-09-06T08:21:01.355Z</time>
      </trkpt>
      <trkpt lat="48.41099" lon="7.31121">
        <ele>788</ele>
        <time>2020-09-06T08:21:02.356Z</time>
      </trkpt>
      <trkpt lat="48.411" lon="7.31121">
        <ele>788</ele>
        <time>2020-09-06T08:21:03.355Z</time>
      </trkpt>
      <trkpt lat="48.41102" lon="7.3112">
        <ele>787</ele>
        <time>2020-09-06T08:21:04.355Z</time>
      </trkpt>
      <trkpt lat="48.41103" lon="7.31119">
        <ele>787</ele>
        <time>2020-09-06T08:21:05.356Z</time>
      </trkpt>
      <trkpt lat="48.41103" lon="7.31118">
        <ele>787</ele>
        <time>2020-09-06T08:21:06.355Z</time>
      </trkpt>
      <trkpt lat="48.41104" lon="7.31118">
        <ele>787</ele>
        <time>2020-09-06T08:21:07.356Z</time>
      </trkpt>
      <trkpt lat="48.41105" lon="7.31118">
        <ele>787</ele>
        <time>2020-09-06T08:21:08.355Z</time>
      </trkpt>
      <trkpt lat="48.41106" lon="7.31117">
        <ele>787</ele>
        <time>2020-09-06T08:21:09.356Z</time>
      </trkpt>
      <trkpt lat="48.41108" lon="7.31116">
        <ele>787</ele>
        <time>2020-09-06T08:21:10.356Z</time>
      </trkpt>
      <trkpt lat="48.4111" lon="7.31116">
        <ele>786</ele>
        <time>2020-09-06T08:21:11.356Z</time>
      </trkpt>
      <trkpt lat="48.41111" lon="7.31116">
        <ele>786</ele>
        <time>2020-09-06T08:21:12.355Z</time>
      </trkpt>
      <trkpt lat="48.41112" lon="7.31116">
        <ele>786</ele>
        <time>2020-09-06T08:21:13.355Z</time>
      </trkpt>
      <trkpt lat="48.41113" lon="7.31115">
        <ele>786</ele>
        <time>2020-09-06T08:21:14.356Z</time>
      </trkpt>
      <trkpt lat="48.41113" lon="7.31113">
        <ele>786</ele>
        <time>2020-09-06T08:21:15.355Z</time>
      </trkpt>
      <trkpt lat="48.41114" lon="7.31111">
        <ele>786</ele>
        <time>2020-09-06T08:21:16.355Z</time>
      </trkpt>
      <trkpt lat="48.41115" lon="7.3111">
        <ele>786</ele>
        <time>2020-09-06T08:21:17.356Z</time>
      </trkpt>
      <trkpt lat="48.41115" lon="7.31109">
        <ele>787</ele>
        <time>2020-09-06T08:21:18.356Z</time>
      </trkpt>
      <trkpt lat="48.41116" lon="7.31109">
        <ele>787</ele>
        <time>2020-09-06T08:21:19.355Z</time>
      </trkpt>
      <trkpt lat="48.41117" lon="7.31108">
        <ele>787</ele>
        <time>2020-09-06T08:21:20.355Z</time>
      </trkpt>
      <trkpt lat="48.41118" lon="7.31109">
        <ele>787</ele>
        <time>2020-09-06T08:21:21.356Z</time>
      </trkpt>
      <trkpt lat="48.41119" lon="7.31108">
        <ele>787</ele>
        <time>2020-09-06T08:21:22.355Z</time>
      </trkpt>
      <trkpt lat="48.4112" lon="7.31108">
        <ele>786</ele>
        <time>2020-09-06T08:21:23.355Z</time>
      </trkpt>
      <trkpt lat="48.41121" lon="7.31108">
        <ele>786</ele>
        <time>2020-09-06T08:21:24.356Z</time>
      </trkpt>
      <trkpt lat="48.41122" lon="7.31107">
        <ele>787</ele>
        <time>2020-09-06T08:21:25.355Z</time>
      </trkpt>
      <trkpt lat="48.41123" lon="7.31107">
        <ele>787</ele>
        <time>2020-09-06T08:21:26.355Z</time>
      </trkpt>
      <trkpt lat="48.41124" lon="7.31106">
        <ele>787</ele>
        <time>2020-09-06T08:21:27.355Z</time>
      </trkpt>
      <trkpt lat="48.41125" lon="7.31105">
        <ele>787</ele>
        <time>2020-09-06T08:21:28.356Z</time>
      </trkpt>
      <trkpt lat="48.41125" lon="7.31105">
        <ele>787</ele>
        <time>2020-09-06T08:21:29.356Z</time>
      </trkpt>
      <trkpt lat="48.41126" lon="7.31103">
        <ele>787</ele>
        <time>2020-09-06T08:21:30.355Z</time>
      </trkpt>
      <trkpt lat="48.41127" lon="7.31102">
        <ele>787</ele>
        <time>2020-09-06T08:21:31.355Z</time>
      </trkpt>
      <trkpt lat="48.41128" lon="7.31102">
        <ele>788</ele>
        <time>2020-09-06T08:21:32.355Z</time>
      </trkpt>
      <trkpt lat="48.4113" lon="7.31101">
        <ele>788</ele>
        <time>2020-09-06T08:21:33.356Z</time>
      </trkpt>
      <trkpt lat="48.41131" lon="7.311">
        <ele>789</ele>
        <time>2020-09-06T08:21:34.355Z</time>
      </trkpt>
      <trkpt lat="48.41132" lon="7.31099">
        <ele>790</ele>
        <time>2020-09-06T08:21:35.356Z</time>
      </trkpt>
      <trkpt lat="48.41132" lon="7.31099">
        <ele>790</ele>
        <time>2020-09-06T08:21:36.355Z</time>
      </trkpt>
      <trkpt lat="48.41133" lon="7.31098">
        <ele>791</ele>
        <time>2020-09-06T08:21:37.355Z</time>
      </trkpt>
      <trkpt lat="48.41134" lon="7.31096">
        <ele>792</ele>
        <time>2020-09-06T08:21:38.355Z</time>
      </trkpt>
      <trkpt lat="48.41134" lon="7.31095">
        <ele>792</ele>
        <time>2020-09-06T08:21:39.355Z</time>
      </trkpt>
      <trkpt lat="48.41135" lon="7.31093">
        <ele>793</ele>
        <time>2020-09-06T08:21:40.356Z</time>
      </trkpt>
      <trkpt lat="48.41135" lon="7.31091">
        <ele>794</ele>
        <time>2020-09-06T08:21:41.356Z</time>
      </trkpt>
      <trkpt lat="48.41135" lon="7.31089">
        <ele>795</ele>
        <time>2020-09-06T08:21:42.356Z</time>
      </trkpt>
      <trkpt lat="48.41136" lon="7.31087">
        <ele>795</ele>
        <time>2020-09-06T08:21:43.355Z</time>
      </trkpt>
      <trkpt lat="48.41137" lon="7.31086">
        <ele>796</ele>
        <time>2020-09-06T08:21:44.355Z</time>
      </trkpt>
      <trkpt lat="48.41137" lon="7.31085">
        <ele>796</ele>
        <time>2020-09-06T08:21:45.356Z</time>
      </trkpt>
      <trkpt lat="48.41138" lon="7.31083">
        <ele>797</ele>
        <time>2020-09-06T08:21:46.355Z</time>
      </trkpt>
      <trkpt lat="48.41138" lon="7.31081">
        <ele>797</ele>
        <time>2020-09-06T08:21:47.356Z</time>
      </trkpt>
      <trkpt lat="48.41138" lon="7.31079">
        <ele>798</ele>
        <time>2020-09-06T08:21:48.355Z</time>
      </trkpt>
      <trkpt lat="48.41139" lon="7.31077">
        <ele>798</ele>
        <time>2020-09-06T08:21:49.356Z</time>
      </trkpt>
      <trkpt lat="48.4114" lon="7.31075">
        <ele>799</ele>
        <time>2020-09-06T08:21:50.356Z</time>
      </trkpt>
      <trkpt lat="48.4114" lon="7.31073">
        <ele>799</ele>
        <time>2020-09-06T08:21:51.356Z</time>
      </trkpt>
      <trkpt lat="48.4114" lon="7.31071">
        <ele>800</ele>
        <time>2020-09-06T08:21:52.355Z</time>
      </trkpt>
      <trkpt lat="48.41141" lon="7.31069">
        <ele>800</ele>
        <time>2020-09-06T08:21:53.355Z</time>
      </trkpt>
      <trkpt lat="48.41142" lon="7.31068">
        <ele>800</ele>
        <time>2020-09-06T08:21:54.355Z</time>
      </trkpt>
      <trkpt lat="48.41144" lon="7.31068">
        <ele>800</ele>
        <time>2020-09-06T08:21:55.355Z</time>
      </trkpt>
      <trkpt lat="48.41145" lon="7.31069">
        <ele>800</ele>
        <time>2020-09-06T08:21:56.355Z</time>
      </trkpt>
      <trkpt lat="48.41147" lon="7.31071">
        <ele>799</ele>
        <time>2020-09-06T08:21:57.355Z</time>
      </trkpt>
      <trkpt lat="48.41149" lon="7.31071">
        <ele>799</ele>
        <time>2020-09-06T08:21:58.355Z</time>
      </trkpt>
      <trkpt lat="48.4115" lon="7.31071">
        <ele>799</ele>
        <time>2020-09-06T08:21:59.355Z</time>
      </trkpt>
      <trkpt lat="48.41151" lon="7.31072">
        <ele>799</ele>
        <time>2020-09-06T08:22:00.355Z</time>
      </trkpt>
      <trkpt lat="48.41152" lon="7.31072">
        <ele>799</ele>
        <time>2020-09-06T08:22:01.355Z</time>
      </trkpt>
      <trkpt lat="48.41153" lon="7.31072">
        <ele>798</ele>
        <time>2020-09-06T08:22:02.355Z</time>
      </trkpt>
      <trkpt lat="48.41154" lon="7.31072">
        <ele>798</ele>
        <time>2020-09-06T08:22:03.355Z</time>
      </trkpt>
      <trkpt lat="48.41155" lon="7.31071">
        <ele>797</ele>
        <time>2020-09-06T08:22:04.355Z</time>
      </trkpt>
      <trkpt lat="48.41156" lon="7.31071">
        <ele>797</ele>
        <time>2020-09-06T08:22:05.355Z</time>
      </trkpt>
      <trkpt lat="48.41157" lon="7.31071">
        <ele>796</ele>
        <time>2020-09-06T08:22:06.355Z</time>
      </trkpt>
      <trkpt lat="48.41157" lon="7.31071">
        <ele>796</ele>
        <time>2020-09-06T08:22:07.356Z</time>
      </trkpt>
      <trkpt lat="48.41158" lon="7.31071">
        <ele>796</ele>
        <time>2020-09-06T08:22:08.356Z</time>
      </trkpt>
      <trkpt lat="48.4116" lon="7.31071">
        <ele>796</ele>
        <time>2020-09-06T08:22:09.355Z</time>
      </trkpt>
      <trkpt lat="48.41161" lon="7.3107">
        <ele>797</ele>
        <time>2020-09-06T08:22:10.355Z</time>
      </trkpt>
      <trkpt lat="48.41162" lon="7.3107">
        <ele>797</ele>
        <time>2020-09-06T08:22:11.356Z</time>
      </trkpt>
      <trkpt lat="48.41163" lon="7.3107">
        <ele>797</ele>
        <time>2020-09-06T08:22:12.355Z</time>
      </trkpt>
      <trkpt lat="48.41164" lon="7.31071">
        <ele>797</ele>
        <time>2020-09-06T08:22:13.355Z</time>
      </trkpt>
      <trkpt lat="48.41165" lon="7.3107">
        <ele>797</ele>
        <time>2020-09-06T08:22:14.355Z</time>
      </trkpt>
      <trkpt lat="48.41167" lon="7.3107">
        <ele>798</ele>
        <time>2020-09-06T08:22:15.355Z</time>
      </trkpt>
      <trkpt lat="48.41168" lon="7.31069">
        <ele>798</ele>
        <time>2020-09-06T08:22:16.355Z</time>
      </trkpt>
      <trkpt lat="48.41169" lon="7.31069">
        <ele>798</ele>
        <time>2020-09-06T08:22:17.355Z</time>
      </trkpt>
      <trkpt lat="48.4117" lon="7.31069">
        <ele>798</ele>
        <time>2020-09-06T08:22:18.356Z</time>
      </trkpt>
      <trkpt lat="48.41172" lon="7.31069">
        <ele>798</ele>
        <time>2020-09-06T08:22:19.356Z</time>
      </trkpt>
      <trkpt lat="48.41173" lon="7.31068">
        <ele>798</ele>
        <time>2020-09-06T08:22:20.355Z</time>
      </trkpt>
      <trkpt lat="48.41174" lon="7.31067">
        <ele>798</ele>
        <time>2020-09-06T08:22:21.355Z</time>
      </trkpt>
      <trkpt lat="48.41176" lon="7.31066">
        <ele>797</ele>
        <time>2020-09-06T08:22:22.355Z</time>
      </trkpt>
      <trkpt lat="48.41177" lon="7.31065">
        <ele>797</ele>
        <time>2020-09-06T08:22:23.356Z</time>
      </trkpt>
      <trkpt lat="48.41178" lon="7.31066">
        <ele>797</ele>
        <time>2020-09-06T08:22:24.356Z</time>
      </trkpt>
      <trkpt lat="48.41179" lon="7.31066">
        <ele>797</ele>
        <time>2020-09-06T08:22:25.355Z</time>
      </trkpt>
      <trkpt lat="48.4118" lon="7.31066">
        <ele>797</ele>
        <time>2020-09-06T08:22:26.356Z</time>
      </trkpt>
      <trkpt lat="48.41181" lon="7.31066">
        <ele>796</ele>
        <time>2020-09-06T08:22:27.356Z</time>
      </trkpt>
      <trkpt lat="48.41183" lon="7.31066">
        <ele>796</ele>
        <time>2020-09-06T08:22:28.355Z</time>
      </trkpt>
      <trkpt lat="48.41184" lon="7.31065">
        <ele>796</ele>
        <time>2020-09-06T08:22:29.356Z</time>
      </trkpt>
      <trkpt lat="48.41184" lon="7.31064">
        <ele>796</ele>
        <time>2020-09-06T08:22:30.356Z</time>
      </trkpt>
      <trkpt lat="48.41186" lon="7.31063">
        <ele>796</ele>
        <time>2020-09-06T08:22:31.355Z</time>
      </trkpt>
      <trkpt lat="48.41187" lon="7.31062">
        <ele>796</ele>
        <time>2020-09-06T08:22:32.356Z</time>
      </trkpt>
      <trkpt lat="48.41188" lon="7.31062">
        <ele>796</ele>
        <time>2020-09-06T08:22:33.356Z</time>
      </trkpt>
      <trkpt lat="48.4119" lon="7.31062">
        <ele>796</ele>
        <time>2020-09-06T08:22:34.355Z</time>
      </trkpt>
      <trkpt lat="48.41192" lon="7.31062">
        <ele>796</ele>
        <time>2020-09-06T08:22:35.356Z</time>
      </trkpt>
      <trkpt lat="48.41194" lon="7.31063">
        <ele>795</ele>
        <time>2020-09-06T08:22:36.355Z</time>
      </trkpt>
      <trkpt lat="48.41195" lon="7.31063">
        <ele>794</ele>
        <time>2020-09-06T08:22:37.355Z</time>
      </trkpt>
      <trkpt lat="48.41195" lon="7.31063">
        <ele>794</ele>
        <time>2020-09-06T08:22:38.355Z</time>
      </trkpt>
      <trkpt lat="48.41196" lon="7.31062">
        <ele>794</ele>
        <time>2020-09-06T08:22:39.355Z</time>
      </trkpt>
      <trkpt lat="48.41196" lon="7.31062">
        <ele>794</ele>
        <time>2020-09-06T08:22:40.355Z</time>
      </trkpt>
      <trkpt lat="48.41196" lon="7.31061">
        <ele>794</ele>
        <time>2020-09-06T08:22:41.355Z</time>
      </trkpt>
      <trkpt lat="48.41197" lon="7.31061">
        <ele>794</ele>
        <time>2020-09-06T08:22:42.356Z</time>
      </trkpt>
      <trkpt lat="48.41197" lon="7.31061">
        <ele>794</ele>
        <time>2020-09-06T08:22:43.355Z</time>
      </trkpt>
      <trkpt lat="48.41198" lon="7.3106">
        <ele>794</ele>
        <time>2020-09-06T08:22:44.355Z</time>
      </trkpt>
      <trkpt lat="48.41199" lon="7.3106">
        <ele>794</ele>
        <time>2020-09-06T08:22:45.355Z</time>
      </trkpt>
      <trkpt lat="48.412" lon="7.3106">
        <ele>794</ele>
        <time>2020-09-06T08:22:46.356Z</time>
      </trkpt>
      <trkpt lat="48.41201" lon="7.31061">
        <ele>794</ele>
        <time>2020-09-06T08:22:47.355Z</time>
      </trkpt>
      <trkpt lat="48.41202" lon="7.31061">
        <ele>794</ele>
        <time>2020-09-06T08:22:48.356Z</time>
      </trkpt>
      <trkpt lat="48.41202" lon="7.31061">
        <ele>794</ele>
        <time>2020-09-06T08:22:49.356Z</time>
      </trkpt>
      <trkpt lat="48.41203" lon="7.31061">
        <ele>794</ele>
        <time>2020-09-06T08:22:50.356Z</time>
      </trkpt>
      <trkpt lat="48.41204" lon="7.31061">
        <ele>795</ele>
        <time>2020-09-06T08:22:51.355Z</time>
      </trkpt>
      <trkpt lat="48.41205" lon="7.31059">
        <ele>795</ele>
        <time>2020-09-06T08:22:52.356Z</time>
      </trkpt>
      <trkpt lat="48.41206" lon="7.31058">
        <ele>795</ele>
        <time>2020-09-06T08:22:53.355Z</time>
      </trkpt>
      <trkpt lat="48.41207" lon="7.31058">
        <ele>796</ele>
        <time>2020-09-06T08:22:54.356Z</time>
      </trkpt>
      <trkpt lat="48.41208" lon="7.31057">
        <ele>796</ele>
        <time>2020-09-06T08:22:55.355Z</time>
      </trkpt>
      <trkpt lat="48.41208" lon="7.31055">
        <ele>797</ele>
        <time>2020-09-06T08:22:56.356Z</time>
      </trkpt>
      <trkpt lat="48.41208" lon="7.31056">
        <ele>798</ele>
        <time>2020-09-06T08:22:57.355Z</time>
      </trkpt>
      <trkpt lat="48.41209" lon="7.31056">
        <ele>798</ele>
        <time>2020-09-06T08:22:58.355Z</time>
      </trkpt>
      <trkpt lat="48.4121" lon="7.31056">
        <ele>798</ele>
        <time>2020-09-06T08:22:59.355Z</time>
      </trkpt>
      <trkpt lat="48.41211" lon="7.31055">
        <ele>798</ele>
        <time>2020-09-06T08:23:00.355Z</time>
      </trkpt>
      <trkpt lat="48.41212" lon="7.31055">
        <ele>798</ele>
        <time>2020-09-06T08:23:01.355Z</time>
      </trkpt>
      <trkpt lat="48.41213" lon="7.31054">
        <ele>798</ele>
        <time>2020-09-06T08:23:02.355Z</time>
      </trkpt>
      <trkpt lat="48.41213" lon="7.31054">
        <ele>798</ele>
        <time>2020-09-06T08:23:03.355Z</time>
      </trkpt>
      <trkpt lat="48.41215" lon="7.31055">
        <ele>798</ele>
        <time>2020-09-06T08:23:04.356Z</time>
      </trkpt>
      <trkpt lat="48.41216" lon="7.31055">
        <ele>797</ele>
        <time>2020-09-06T08:23:05.356Z</time>
      </trkpt>
      <trkpt lat="48.41218" lon="7.31055">
        <ele>797</ele>
        <time>2020-09-06T08:23:06.355Z</time>
      </trkpt>
      <trkpt lat="48.41219" lon="7.31055">
        <ele>797</ele>
        <time>2020-09-06T08:23:07.355Z</time>
      </trkpt>
      <trkpt lat="48.4122" lon="7.31055">
        <ele>797</ele>
        <time>2020-09-06T08:23:08.355Z</time>
      </trkpt>
      <trkpt lat="48.41222" lon="7.31055">
        <ele>796</ele>
        <time>2020-09-06T08:23:09.355Z</time>
      </trkpt>
      <trkpt lat="48.41223" lon="7.31055">
        <ele>796</ele>
        <time>2020-09-06T08:23:10.355Z</time>
      </trkpt>
      <trkpt lat="48.41224" lon="7.31055">
        <ele>796</ele>
        <time>2020-09-06T08:23:11.355Z</time>
      </trkpt>
      <trkpt lat="48.41225" lon="7.31055">
        <ele>795</ele>
        <time>2020-09-06T08:23:12.355Z</time>
      </trkpt>
      <trkpt lat="48.41227" lon="7.31055">
        <ele>795</ele>
        <time>2020-09-06T08:23:13.356Z</time>
      </trkpt>
      <trkpt lat="48.41228" lon="7.31056">
        <ele>795</ele>
        <time>2020-09-06T08:23:14.355Z</time>
      </trkpt>
      <trkpt lat="48.41229" lon="7.31056">
        <ele>795</ele>
        <time>2020-09-06T08:23:15.355Z</time>
      </trkpt>
      <trkpt lat="48.41231" lon="7.31056">
        <ele>796</ele>
        <time>2020-09-06T08:23:16.355Z</time>
      </trkpt>
      <trkpt lat="48.41232" lon="7.31056">
        <ele>796</ele>
        <time>2020-09-06T08:23:17.355Z</time>
      </trkpt>
      <trkpt lat="48.41233" lon="7.31056">
        <ele>796</ele>
        <time>2020-09-06T08:23:18.355Z</time>
      </trkpt>
      <trkpt lat="48.41234" lon="7.31055">
        <ele>796</ele>
        <time>2020-09-06T08:23:19.355Z</time>
      </trkpt>
      <trkpt lat="48.41235" lon="7.31056">
        <ele>796</ele>
        <time>2020-09-06T08:23:20.355Z</time>
      </trkpt>
      <trkpt lat="48.41236" lon="7.31055">
        <ele>796</ele>
        <time>2020-09-06T08:23:21.356Z</time>
      </trkpt>
      <trkpt lat="48.41237" lon="7.31054">
        <ele>797</ele>
        <time>2020-09-06T08:23:22.356Z</time>
      </trkpt>
      <trkpt lat="48.41239" lon="7.31054">
        <ele>797</ele>
        <time>2020-09-06T08:23:23.355Z</time>
      </trkpt>
      <trkpt lat="48.4124" lon="7.31054">
        <ele>797</ele>
        <time>2020-09-06T08:23:24.355Z</time>
      </trkpt>
      <trkpt lat="48.41242" lon="7.31055">
        <ele>797</ele>
        <time>2020-09-06T08:23:25.355Z</time>
      </trkpt>
      <trkpt lat="48.41243" lon="7.31054">
        <ele>797</ele>
        <time>2020-09-06T08:23:26.356Z</time>
      </trkpt>
      <trkpt lat="48.41244" lon="7.31054">
        <ele>796</ele>
        <time>2020-09-06T08:23:27.355Z</time>
      </trkpt>
      <trkpt lat="48.41246" lon="7.31053">
        <ele>796</ele>
        <time>2020-09-06T08:23:28.355Z</time>
      </trkpt>
      <trkpt lat="48.41247" lon="7.31053">
        <ele>796</ele>
        <time>2020-09-06T08:23:29.356Z</time>
      </trkpt>
      <trkpt lat="48.41249" lon="7.31054">
        <ele>796</ele>
        <time>2020-09-06T08:23:30.356Z</time>
      </trkpt>
      <trkpt lat="48.41251" lon="7.31053">
        <ele>796</ele>
        <time>2020-09-06T08:23:31.355Z</time>
      </trkpt>
      <trkpt lat="48.41253" lon="7.31054">
        <ele>797</ele>
        <time>2020-09-06T08:23:32.355Z</time>
      </trkpt>
      <trkpt lat="48.41255" lon="7.31054">
        <ele>796</ele>
        <time>2020-09-06T08:23:33.356Z</time>
      </trkpt>
      <trkpt lat="48.41256" lon="7.31053">
        <ele>796</ele>
        <time>2020-09-06T08:23:34.356Z</time>
      </trkpt>
      <trkpt lat="48.41258" lon="7.31052">
        <ele>796</ele>
        <time>2020-09-06T08:23:35.356Z</time>
      </trkpt>
      <trkpt lat="48.4126" lon="7.31052">
        <ele>796</ele>
        <time>2020-09-06T08:23:36.356Z</time>
      </trkpt>
      <trkpt lat="48.41261" lon="7.31052">
        <ele>796</ele>
        <time>2020-09-06T08:23:37.356Z</time>
      </trkpt>
      <trkpt lat="48.41263" lon="7.31053">
        <ele>796</ele>
        <time>2020-09-06T08:23:38.355Z</time>
      </trkpt>
      <trkpt lat="48.41264" lon="7.31053">
        <ele>795</ele>
        <time>2020-09-06T08:23:39.355Z</time>
      </trkpt>
      <trkpt lat="48.41265" lon="7.31053">
        <ele>795</ele>
        <time>2020-09-06T08:23:40.356Z</time>
      </trkpt>
      <trkpt lat="48.41266" lon="7.31053">
        <ele>794</ele>
        <time>2020-09-06T08:23:41.356Z</time>
      </trkpt>
      <trkpt lat="48.41268" lon="7.31053">
        <ele>794</ele>
        <time>2020-09-06T08:23:42.355Z</time>
      </trkpt>
      <trkpt lat="48.41269" lon="7.31054">
        <ele>794</ele>
        <time>2020-09-06T08:23:43.355Z</time>
      </trkpt>
      <trkpt lat="48.4127" lon="7.31054">
        <ele>794</ele>
        <time>2020-09-06T08:23:44.355Z</time>
      </trkpt>
      <trkpt lat="48.4127" lon="7.31055">
        <ele>794</ele>
        <time>2020-09-06T08:23:45.356Z</time>
      </trkpt>
      <trkpt lat="48.41272" lon="7.31057">
        <ele>794</ele>
        <time>2020-09-06T08:23:46.355Z</time>
      </trkpt>
      <trkpt lat="48.41273" lon="7.31058">
        <ele>794</ele>
        <time>2020-09-06T08:23:47.356Z</time>
      </trkpt>
      <trkpt lat="48.41274" lon="7.31059">
        <ele>795</ele>
        <time>2020-09-06T08:23:48.356Z</time>
      </trkpt>
      <trkpt lat="48.41276" lon="7.3106">
        <ele>795</ele>
        <time>2020-09-06T08:23:49.355Z</time>
      </trkpt>
      <trkpt lat="48.41277" lon="7.3106">
        <ele>795</ele>
        <time>2020-09-06T08:23:50.356Z</time>
      </trkpt>
      <trkpt lat="48.41278" lon="7.3106">
        <ele>794</ele>
        <time>2020-09-06T08:23:51.355Z</time>
      </trkpt>
      <trkpt lat="48.41279" lon="7.3106">
        <ele>794</ele>
        <time>2020-09-06T08:23:52.355Z</time>
      </trkpt>
      <trkpt lat="48.4128" lon="7.31061">
        <ele>794</ele>
        <time>2020-09-06T08:23:53.355Z</time>
      </trkpt>
      <trkpt lat="48.4128" lon="7.31061">
        <ele>794</ele>
        <time>2020-09-06T08:23:54.355Z</time>
      </trkpt>
      <trkpt lat="48.41281" lon="7.31062">
        <ele>794</ele>
        <time>2020-09-06T08:23:55.355Z</time>
      </trkpt>
      <trkpt lat="48.41281" lon="7.31061">
        <ele>794</ele>
        <time>2020-09-06T08:23:56.355Z</time>
      </trkpt>
      <trkpt lat="48.41283" lon="7.31061">
        <ele>794</ele>
        <time>2020-09-06T08:23:57.355Z</time>
      </trkpt>
      <trkpt lat="48.41286" lon="7.31061">
        <ele>794</ele>
        <time>2020-09-06T08:23:58.355Z</time>
      </trkpt>
      <trkpt lat="48.41288" lon="7.31062">
        <ele>794</ele>
        <time>2020-09-06T08:23:59.355Z</time>
      </trkpt>
      <trkpt lat="48.41289" lon="7.31063">
        <ele>794</ele>
        <time>2020-09-06T08:24:00.355Z</time>
      </trkpt>
      <trkpt lat="48.4129" lon="7.31063">
        <ele>795</ele>
        <time>2020-09-06T08:24:01.356Z</time>
      </trkpt>
      <trkpt lat="48.4129" lon="7.31063">
        <ele>795</ele>
        <time>2020-09-06T08:24:02.355Z</time>
      </trkpt>
      <trkpt lat="48.41291" lon="7.31064">
        <ele>795</ele>
        <time>2020-09-06T08:24:03.355Z</time>
      </trkpt>
      <trkpt lat="48.41292" lon="7.31065">
        <ele>796</ele>
        <time>2020-09-06T08:24:04.356Z</time>
      </trkpt>
      <trkpt lat="48.41293" lon="7.31065">
        <ele>796</ele>
        <time>2020-09-06T08:24:05.356Z</time>
      </trkpt>
      <trkpt lat="48.41293" lon="7.31066">
        <ele>796</ele>
        <time>2020-09-06T08:24:06.355Z</time>
      </trkpt>
      <trkpt lat="48.41294" lon="7.31067">
        <ele>796</ele>
        <time>2020-09-06T08:24:07.356Z</time>
      </trkpt>
      <trkpt lat="48.41295" lon="7.31067">
        <ele>797</ele>
        <time>2020-09-06T08:24:08.356Z</time>
      </trkpt>
      <trkpt lat="48.41295" lon="7.31068">
        <ele>797</ele>
        <time>2020-09-06T08:24:09.355Z</time>
      </trkpt>
      <trkpt lat="48.41296" lon="7.31067">
        <ele>797</ele>
        <time>2020-09-06T08:24:10.355Z</time>
      </trkpt>
      <trkpt lat="48.41297" lon="7.31068">
        <ele>797</ele>
        <time>2020-09-06T08:24:11.356Z</time>
      </trkpt>
      <trkpt lat="48.41299" lon="7.31068">
        <ele>796</ele>
        <time>2020-09-06T08:24:12.355Z</time>
      </trkpt>
      <trkpt lat="48.41301" lon="7.31067">
        <ele>796</ele>
        <time>2020-09-06T08:24:13.355Z</time>
      </trkpt>
      <trkpt lat="48.41302" lon="7.31067">
        <ele>795</ele>
        <time>2020-09-06T08:24:14.355Z</time>
      </trkpt>
      <trkpt lat="48.41304" lon="7.31066">
        <ele>795</ele>
        <time>2020-09-06T08:24:15.355Z</time>
      </trkpt>
      <trkpt lat="48.41306" lon="7.31067">
        <ele>795</ele>
        <time>2020-09-06T08:24:16.356Z</time>
      </trkpt>
      <trkpt lat="48.41307" lon="7.31067">
        <ele>795</ele>
        <time>2020-09-06T08:24:17.356Z</time>
      </trkpt>
      <trkpt lat="48.41309" lon="7.31067">
        <ele>795</ele>
        <time>2020-09-06T08:24:18.356Z</time>
      </trkpt>
      <trkpt lat="48.41311" lon="7.31068">
        <ele>795</ele>
        <time>2020-09-06T08:24:19.355Z</time>
      </trkpt>
      <trkpt lat="48.41312" lon="7.31069">
        <ele>795</ele>
        <time>2020-09-06T08:24:20.356Z</time>
      </trkpt>
      <trkpt lat="48.41313" lon="7.3107">
        <ele>795</ele>
        <time>2020-09-06T08:24:21.355Z</time>
      </trkpt>
      <trkpt lat="48.41315" lon="7.3107">
        <ele>795</ele>
        <time>2020-09-06T08:24:22.355Z</time>
      </trkpt>
      <trkpt lat="48.41316" lon="7.3107">
        <ele>796</ele>
        <time>2020-09-06T08:24:23.356Z</time>
      </trkpt>
      <trkpt lat="48.41318" lon="7.31069">
        <ele>796</ele>
        <time>2020-09-06T08:24:24.355Z</time>
      </trkpt>
      <trkpt lat="48.41319" lon="7.31068">
        <ele>796</ele>
        <time>2020-09-06T08:24:25.355Z</time>
      </trkpt>
      <trkpt lat="48.4132" lon="7.31068">
        <ele>796</ele>
        <time>2020-09-06T08:24:26.355Z</time>
      </trkpt>
      <trkpt lat="48.41321" lon="7.31068">
        <ele>796</ele>
        <time>2020-09-06T08:24:27.355Z</time>
      </trkpt>
      <trkpt lat="48.41322" lon="7.31068">
        <ele>796</ele>
        <time>2020-09-06T08:24:28.355Z</time>
      </trkpt>
      <trkpt lat="48.41323" lon="7.31068">
        <ele>796</ele>
        <time>2020-09-06T08:24:29.355Z</time>
      </trkpt>
      <trkpt lat="48.41325" lon="7.31069">
        <ele>796</ele>
        <time>2020-09-06T08:24:30.356Z</time>
      </trkpt>
      <trkpt lat="48.41326" lon="7.3107">
        <ele>796</ele>
        <time>2020-09-06T08:24:31.355Z</time>
      </trkpt>
      <trkpt lat="48.41327" lon="7.31069">
        <ele>797</ele>
        <time>2020-09-06T08:24:32.356Z</time>
      </trkpt>
      <trkpt lat="48.41328" lon="7.31069">
        <ele>797</ele>
        <time>2020-09-06T08:24:33.355Z</time>
      </trkpt>
      <trkpt lat="48.41329" lon="7.31069">
        <ele>797</ele>
        <time>2020-09-06T08:24:34.355Z</time>
      </trkpt>
      <trkpt lat="48.4133" lon="7.31069">
        <ele>797</ele>
        <time>2020-09-06T08:24:35.355Z</time>
      </trkpt>
      <trkpt lat="48.4133" lon="7.31068">
        <ele>797</ele>
        <time>2020-09-06T08:24:36.355Z</time>
      </trkpt>
      <trkpt lat="48.41331" lon="7.31067">
        <ele>797</ele>
        <time>2020-09-06T08:24:37.355Z</time>
      </trkpt>
      <trkpt lat="48.41332" lon="7.31068">
        <ele>798</ele>
        <time>2020-09-06T08:24:38.355Z</time>
      </trkpt>
      <trkpt lat="48.41334" lon="7.31068">
        <ele>797</ele>
        <time>2020-09-06T08:24:39.355Z</time>
      </trkpt>
      <trkpt lat="48.41335" lon="7.31068">
        <ele>797</ele>
        <time>2020-09-06T08:24:40.355Z</time>
      </trkpt>
      <trkpt lat="48.41336" lon="7.31067">
        <ele>797</ele>
        <time>2020-09-06T08:24:41.355Z</time>
      </trkpt>
      <trkpt lat="48.41337" lon="7.31067">
        <ele>797</ele>
        <time>2020-09-06T08:24:42.355Z</time>
      </trkpt>
      <trkpt lat="48.41337" lon="7.31066">
        <ele>797</ele>
        <time>2020-09-06T08:24:43.356Z</time>
      </trkpt>
      <trkpt lat="48.41338" lon="7.31066">
        <ele>798</ele>
        <time>2020-09-06T08:24:44.355Z</time>
      </trkpt>
      <trkpt lat="48.41339" lon="7.31066">
        <ele>798</ele>
        <time>2020-09-06T08:24:45.355Z</time>
      </trkpt>
      <trkpt lat="48.41341" lon="7.31066">
        <ele>799</ele>
        <time>2020-09-06T08:24:46.355Z</time>
      </trkpt>
      <trkpt lat="48.41342" lon="7.31066">
        <ele>799</ele>
        <time>2020-09-06T08:24:47.355Z</time>
      </trkpt>
      <trkpt lat="48.41343" lon="7.31067">
        <ele>800</ele>
        <time>2020-09-06T08:24:48.355Z</time>
      </trkpt>
      <trkpt lat="48.41344" lon="7.31067">
        <ele>800</ele>
        <time>2020-09-06T08:24:49.355Z</time>
      </trkpt>
      <trkpt lat="48.41345" lon="7.31068">
        <ele>800</ele>
        <time>2020-09-06T08:24:50.355Z</time>
      </trkpt>
      <trkpt lat="48.41346" lon="7.31068">
        <ele>800</ele>
        <time>2020-09-06T08:24:51.355Z</time>
      </trkpt>
      <trkpt lat="48.41347" lon="7.31068">
        <ele>800</ele>
        <time>2020-09-06T08:24:52.356Z</time>
      </trkpt>
      <trkpt lat="48.41348" lon="7.31068">
        <ele>800</ele>
        <time>2020-09-06T08:24:53.355Z</time>
      </trkpt>
      <trkpt lat="48.4135" lon="7.31068">
        <ele>800</ele>
        <time>2020-09-06T08:24:54.355Z</time>
      </trkpt>
      <trkpt lat="48.41351" lon="7.31069">
        <ele>799</ele>
        <time>2020-09-06T08:24:55.355Z</time>
      </trkpt>
      <trkpt lat="48.41352" lon="7.31068">
        <ele>799</ele>
        <time>2020-09-06T08:24:56.356Z</time>
      </trkpt>
      <trkpt lat="48.41353" lon="7.31068">
        <ele>799</ele>
        <time>2020-09-06T08:24:57.355Z</time>
      </trkpt>
      <trkpt lat="48.41354" lon="7.31067">
        <ele>799</ele>
        <time>2020-09-06T08:24:58.356Z</time>
      </trkpt>
      <trkpt lat="48.41356" lon="7.31067">
        <ele>798</ele>
        <time>2020-09-06T08:24:59.356Z</time>
      </trkpt>
      <trkpt lat="48.41357" lon="7.31068">
        <ele>798</ele>
        <time>2020-09-06T08:25:00.355Z</time>
      </trkpt>
      <trkpt lat="48.41359" lon="7.31068">
        <ele>797</ele>
        <time>2020-09-06T08:25:01.356Z</time>
      </trkpt>
      <trkpt lat="48.41359" lon="7.31068">
        <ele>797</ele>
        <time>2020-09-06T08:25:02.356Z</time>
      </trkpt>
      <trkpt lat="48.4136" lon="7.31068">
        <ele>797</ele>
        <time>2020-09-06T08:25:03.355Z</time>
      </trkpt>
      <trkpt lat="48.4136" lon="7.31069">
        <ele>797</ele>
        <time>2020-09-06T08:25:04.355Z</time>
      </trkpt>
      <trkpt lat="48.4136" lon="7.3107">
        <ele>797</ele>
        <time>2020-09-06T08:25:05.356Z</time>
      </trkpt>
      <trkpt lat="48.41361" lon="7.3107">
        <ele>796</ele>
        <time>2020-09-06T08:25:06.355Z</time>
      </trkpt>
      <trkpt lat="48.41362" lon="7.31071">
        <ele>796</ele>
        <time>2020-09-06T08:25:07.355Z</time>
      </trkpt>
      <trkpt lat="48.41363" lon="7.31072">
        <ele>796</ele>
        <time>2020-09-06T08:25:08.355Z</time>
      </trkpt>
      <trkpt lat="48.41365" lon="7.31072">
        <ele>796</ele>
        <time>2020-09-06T08:25:09.356Z</time>
      </trkpt>
      <trkpt lat="48.41366" lon="7.31073">
        <ele>796</ele>
        <time>2020-09-06T08:25:10.355Z</time>
      </trkpt>
      <trkpt lat="48.41367" lon="7.31073">
        <ele>797</ele>
        <time>2020-09-06T08:25:11.355Z</time>
      </trkpt>
      <trkpt lat="48.41368" lon="7.31074">
        <ele>797</ele>
        <time>2020-09-06T08:25:12.355Z</time>
      </trkpt>
      <trkpt lat="48.41369" lon="7.31074">
        <ele>798</ele>
        <time>2020-09-06T08:25:13.355Z</time>
      </trkpt>
      <trkpt lat="48.41371" lon="7.31075">
        <ele>799</ele>
        <time>2020-09-06T08:25:14.356Z</time>
      </trkpt>
      <trkpt lat="48.41373" lon="7.31075">
        <ele>800</ele>
        <time>2020-09-06T08:25:15.356Z</time>
      </trkpt>
      <trkpt lat="48.41374" lon="7.31076">
        <ele>800</ele>
        <time>2020-09-06T08:25:16.356Z</time>
      </trkpt>
      <trkpt lat="48.41375" lon="7.31077">
        <ele>801</ele>
        <time>2020-09-06T08:25:17.355Z</time>
      </trkpt>
      <trkpt lat="48.41377" lon="7.31077">
        <ele>802</ele>
        <time>2020-09-06T08:25:18.356Z</time>
      </trkpt>
      <trkpt lat="48.41379" lon="7.31077">
        <ele>802</ele>
        <time>2020-09-06T08:25:19.356Z</time>
      </trkpt>
      <trkpt lat="48.41381" lon="7.31077">
        <ele>802</ele>
        <time>2020-09-06T08:25:20.355Z</time>
      </trkpt>
      <trkpt lat="48.41382" lon="7.31077">
        <ele>802</ele>
        <time>2020-09-06T08:25:21.356Z</time>
      </trkpt>
      <trkpt lat="48.41383" lon="7.31077">
        <ele>802</ele>
        <time>2020-09-06T08:25:22.355Z</time>
      </trkpt>
      <trkpt lat="48.41385" lon="7.31077">
        <ele>802</ele>
        <time>2020-09-06T08:25:23.356Z</time>
      </trkpt>
      <trkpt lat="48.41386" lon="7.31078">
        <ele>802</ele>
        <time>2020-09-06T08:25:24.356Z</time>
      </trkpt>
      <trkpt lat="48.41387" lon="7.31078">
        <ele>802</ele>
        <time>2020-09-06T08:25:25.355Z</time>
      </trkpt>
      <trkpt lat="48.41387" lon="7.31078">
        <ele>803</ele>
        <time>2020-09-06T08:25:26.356Z</time>
      </trkpt>
      <trkpt lat="48.41388" lon="7.31078">
        <ele>803</ele>
        <time>2020-09-06T08:25:27.355Z</time>
      </trkpt>
      <trkpt lat="48.41389" lon="7.31078">
        <ele>803</ele>
        <time>2020-09-06T08:25:28.356Z</time>
      </trkpt>
      <trkpt lat="48.4139" lon="7.31077">
        <ele>804</ele>
        <time>2020-09-06T08:25:29.355Z</time>
      </trkpt>
      <trkpt lat="48.41391" lon="7.31077">
        <ele>804</ele>
        <time>2020-09-06T08:25:30.355Z</time>
      </trkpt>
      <trkpt lat="48.41392" lon="7.31076">
        <ele>804</ele>
        <time>2020-09-06T08:25:31.356Z</time>
      </trkpt>
      <trkpt lat="48.41393" lon="7.31076">
        <ele>804</ele>
        <time>2020-09-06T08:25:32.356Z</time>
      </trkpt>
      <trkpt lat="48.41395" lon="7.31076">
        <ele>805</ele>
        <time>2020-09-06T08:25:33.355Z</time>
      </trkpt>
      <trkpt lat="48.41396" lon="7.31076">
        <ele>805</ele>
        <time>2020-09-06T08:25:34.356Z</time>
      </trkpt>
      <trkpt lat="48.41398" lon="7.31076">
        <ele>805</ele>
        <time>2020-09-06T08:25:35.355Z</time>
      </trkpt>
      <trkpt lat="48.41398" lon="7.31075">
        <ele>805</ele>
        <time>2020-09-06T08:25:36.355Z</time>
      </trkpt>
      <trkpt lat="48.41399" lon="7.31075">
        <ele>805</ele>
        <time>2020-09-06T08:25:37.355Z</time>
      </trkpt>
      <trkpt lat="48.414" lon="7.31074">
        <ele>806</ele>
        <time>2020-09-06T08:25:38.356Z</time>
      </trkpt>
      <trkpt lat="48.41401" lon="7.31073">
        <ele>806</ele>
        <time>2020-09-06T08:25:39.356Z</time>
      </trkpt>
      <trkpt lat="48.41402" lon="7.31074">
        <ele>807</ele>
        <time>2020-09-06T08:25:40.355Z</time>
      </trkpt>
      <trkpt lat="48.41403" lon="7.31074">
        <ele>807</ele>
        <time>2020-09-06T08:25:41.355Z</time>
      </trkpt>
      <trkpt lat="48.41404" lon="7.31073">
        <ele>808</ele>
        <time>2020-09-06T08:25:42.356Z</time>
      </trkpt>
      <trkpt lat="48.41405" lon="7.31073">
        <ele>808</ele>
        <time>2020-09-06T08:25:43.355Z</time>
      </trkpt>
      <trkpt lat="48.41407" lon="7.31074">
        <ele>808</ele>
        <time>2020-09-06T08:25:44.355Z</time>
      </trkpt>
      <trkpt lat="48.41408" lon="7.31074">
        <ele>808</ele>
        <time>2020-09-06T08:25:45.355Z</time>
      </trkpt>
      <trkpt lat="48.41408" lon="7.31073">
        <ele>807</ele>
        <time>2020-09-06T08:25:46.356Z</time>
      </trkpt>
      <trkpt lat="48.41409" lon="7.31073">
        <ele>807</ele>
        <time>2020-09-06T08:25:47.355Z</time>
      </trkpt>
      <trkpt lat="48.4141" lon="7.31072">
        <ele>807</ele>
        <time>2020-09-06T08:25:48.356Z</time>
      </trkpt>
      <trkpt lat="48.4141" lon="7.31071">
        <ele>807</ele>
        <time>2020-09-06T08:25:49.355Z</time>
      </trkpt>
      <trkpt lat="48.41411" lon="7.31071">
        <ele>807</ele>
        <time>2020-09-06T08:25:50.355Z</time>
      </trkpt>
      <trkpt lat="48.41412" lon="7.3107">
        <ele>807</ele>
        <time>2020-09-06T08:25:51.355Z</time>
      </trkpt>
      <trkpt lat="48.41413" lon="7.31069">
        <ele>807</ele>
        <time>2020-09-06T08:25:52.356Z</time>
      </trkpt>
      <trkpt lat="48.41414" lon="7.31069">
        <ele>807</ele>
        <time>2020-09-06T08:25:53.356Z</time>
      </trkpt>
      <trkpt lat="48.41415" lon="7.31068">
        <ele>807</ele>
        <time>2020-09-06T08:25:54.356Z</time>
      </trkpt>
      <trkpt lat="48.41415" lon="7.31068">
        <ele>808</ele>
        <time>2020-09-06T08:25:55.355Z</time>
      </trkpt>
      <trkpt lat="48.41416" lon="7.31067">
        <ele>808</ele>
        <time>2020-09-06T08:25:56.356Z</time>
      </trkpt>
      <trkpt lat="48.41418" lon="7.31067">
        <ele>809</ele>
        <time>2020-09-06T08:25:57.356Z</time>
      </trkpt>
      <trkpt lat="48.41419" lon="7.31067">
        <ele>809</ele>
        <time>2020-09-06T08:25:58.355Z</time>
      </trkpt>
      <trkpt lat="48.4142" lon="7.31066">
        <ele>810</ele>
        <time>2020-09-06T08:25:59.355Z</time>
      </trkpt>
      <trkpt lat="48.41421" lon="7.31066">
        <ele>810</ele>
        <time>2020-09-06T08:26:00.356Z</time>
      </trkpt>
      <trkpt lat="48.41421" lon="7.31065">
        <ele>811</ele>
        <time>2020-09-06T08:26:01.355Z</time>
      </trkpt>
      <trkpt lat="48.41422" lon="7.31064">
        <ele>811</ele>
        <time>2020-09-06T08:26:02.355Z</time>
      </trkpt>
      <trkpt lat="48.41423" lon="7.31064">
        <ele>811</ele>
        <time>2020-09-06T08:26:03.356Z</time>
      </trkpt>
      <trkpt lat="48.41425" lon="7.31064">
        <ele>811</ele>
        <time>2020-09-06T08:26:04.355Z</time>
      </trkpt>
      <trkpt lat="48.41426" lon="7.31063">
        <ele>810</ele>
        <time>2020-09-06T08:26:05.356Z</time>
      </trkpt>
      <trkpt lat="48.41426" lon="7.31062">
        <ele>810</ele>
        <time>2020-09-06T08:26:06.355Z</time>
      </trkpt>
      <trkpt lat="48.41427" lon="7.3106">
        <ele>810</ele>
        <time>2020-09-06T08:26:07.356Z</time>
      </trkpt>
      <trkpt lat="48.41428" lon="7.31059">
        <ele>811</ele>
        <time>2020-09-06T08:26:08.355Z</time>
      </trkpt>
      <trkpt lat="48.4143" lon="7.31058">
        <ele>811</ele>
        <time>2020-09-06T08:26:09.356Z</time>
      </trkpt>
      <trkpt lat="48.41432" lon="7.31057">
        <ele>811</ele>
        <time>2020-09-06T08:26:10.355Z</time>
      </trkpt>
      <trkpt lat="48.41434" lon="7.31056">
        <ele>811</ele>
        <time>2020-09-06T08:26:11.356Z</time>
      </trkpt>
      <trkpt lat="48.41435" lon="7.31056">
        <ele>811</ele>
        <time>2020-09-06T08:26:12.355Z</time>
      </trkpt>
      <trkpt lat="48.41436" lon="7.31055">
        <ele>811</ele>
        <time>2020-09-06T08:26:13.355Z</time>
      </trkpt>
      <trkpt lat="48.41437" lon="7.31054">
        <ele>811</ele>
        <time>2020-09-06T08:26:14.356Z</time>
      </trkpt>
      <trkpt lat="48.41439" lon="7.31052">
        <ele>811</ele>
        <time>2020-09-06T08:26:15.355Z</time>
      </trkpt>
      <trkpt lat="48.41439" lon="7.31051">
        <ele>811</ele>
        <time>2020-09-06T08:26:16.355Z</time>
      </trkpt>
      <trkpt lat="48.4144" lon="7.3105">
        <ele>811</ele>
        <time>2020-09-06T08:26:17.356Z</time>
      </trkpt>
      <trkpt lat="48.41441" lon="7.31048">
        <ele>811</ele>
        <time>2020-09-06T08:26:18.356Z</time>
      </trkpt>
      <trkpt lat="48.41442" lon="7.31047">
        <ele>811</ele>
        <time>2020-09-06T08:26:19.355Z</time>
      </trkpt>
      <trkpt lat="48.41442" lon="7.31046">
        <ele>812</ele>
        <time>2020-09-06T08:26:20.355Z</time>
      </trkpt>
      <trkpt lat="48.41443" lon="7.31044">
        <ele>812</ele>
        <time>2020-09-06T08:26:21.356Z</time>
      </trkpt>
      <trkpt lat="48.41444" lon="7.31043">
        <ele>812</ele>
        <time>2020-09-06T08:26:22.356Z</time>
      </trkpt>
      <trkpt lat="48.41445" lon="7.31043">
        <ele>812</ele>
        <time>2020-09-06T08:26:23.356Z</time>
      </trkpt>
      <trkpt lat="48.41446" lon="7.31042">
        <ele>813</ele>
        <time>2020-09-06T08:26:24.356Z</time>
      </trkpt>
      <trkpt lat="48.41447" lon="7.31043">
        <ele>813</ele>
        <time>2020-09-06T08:26:25.356Z</time>
      </trkpt>
      <trkpt lat="48.41447" lon="7.31044">
        <ele>812</ele>
        <time>2020-09-06T08:26:26.356Z</time>
      </trkpt>
      <trkpt lat="48.41448" lon="7.31044">
        <ele>812</ele>
        <time>2020-09-06T08:26:27.356Z</time>
      </trkpt>
      <trkpt lat="48.4145" lon="7.31043">
        <ele>812</ele>
        <time>2020-09-06T08:26:28.356Z</time>
      </trkpt>
      <trkpt lat="48.41451" lon="7.31042">
        <ele>811</ele>
        <time>2020-09-06T08:26:29.356Z</time>
      </trkpt>
      <trkpt lat="48.41452" lon="7.31042">
        <ele>811</ele>
        <time>2020-09-06T08:26:30.356Z</time>
      </trkpt>
      <trkpt lat="48.41453" lon="7.31041">
        <ele>811</ele>
        <time>2020-09-06T08:26:31.355Z</time>
      </trkpt>
      <trkpt lat="48.41453" lon="7.3104">
        <ele>811</ele>
        <time>2020-09-06T08:26:32.356Z</time>
      </trkpt>
      <trkpt lat="48.41454" lon="7.3104">
        <ele>811</ele>
        <time>2020-09-06T08:26:33.356Z</time>
      </trkpt>
      <trkpt lat="48.41455" lon="7.31038">
        <ele>812</ele>
        <time>2020-09-06T08:26:34.356Z</time>
      </trkpt>
      <trkpt lat="48.41456" lon="7.31037">
        <ele>812</ele>
        <time>2020-09-06T08:26:35.355Z</time>
      </trkpt>
      <trkpt lat="48.41458" lon="7.31036">
        <ele>812</ele>
        <time>2020-09-06T08:26:36.356Z</time>
      </trkpt>
      <trkpt lat="48.41459" lon="7.31035">
        <ele>812</ele>
        <time>2020-09-06T08:26:37.355Z</time>
      </trkpt>
      <trkpt lat="48.4146" lon="7.31033">
        <ele>813</ele>
        <time>2020-09-06T08:26:38.355Z</time>
      </trkpt>
      <trkpt lat="48.41461" lon="7.31032">
        <ele>813</ele>
        <time>2020-09-06T08:26:39.356Z</time>
      </trkpt>
      <trkpt lat="48.41462" lon="7.31031">
        <ele>813</ele>
        <time>2020-09-06T08:26:40.356Z</time>
      </trkpt>
      <trkpt lat="48.41463" lon="7.3103">
        <ele>814</ele>
        <time>2020-09-06T08:26:41.355Z</time>
      </trkpt>
      <trkpt lat="48.41464" lon="7.31029">
        <ele>815</ele>
        <time>2020-09-06T08:26:42.356Z</time>
      </trkpt>
      <trkpt lat="48.41465" lon="7.31028">
        <ele>815</ele>
        <time>2020-09-06T08:26:43.356Z</time>
      </trkpt>
      <trkpt lat="48.41467" lon="7.31027">
        <ele>816</ele>
        <time>2020-09-06T08:26:44.356Z</time>
      </trkpt>
      <trkpt lat="48.41468" lon="7.31026">
        <ele>817</ele>
        <time>2020-09-06T08:26:45.356Z</time>
      </trkpt>
      <trkpt lat="48.4147" lon="7.31027">
        <ele>818</ele>
        <time>2020-09-06T08:26:46.355Z</time>
      </trkpt>
      <trkpt lat="48.41472" lon="7.31026">
        <ele>819</ele>
        <time>2020-09-06T08:26:47.356Z</time>
      </trkpt>
      <trkpt lat="48.41473" lon="7.31026">
        <ele>819</ele>
        <time>2020-09-06T08:26:48.355Z</time>
      </trkpt>
      <trkpt lat="48.41474" lon="7.31026">
        <ele>819</ele>
        <time>2020-09-06T08:26:49.356Z</time>
      </trkpt>
      <trkpt lat="48.41475" lon="7.31026">
        <ele>819</ele>
        <time>2020-09-06T08:26:50.356Z</time>
      </trkpt>
      <trkpt lat="48.41475" lon="7.31025">
        <ele>819</ele>
        <time>2020-09-06T08:26:51.355Z</time>
      </trkpt>
      <trkpt lat="48.41476" lon="7.31025">
        <ele>819</ele>
        <time>2020-09-06T08:26:52.356Z</time>
      </trkpt>
      <trkpt lat="48.41477" lon="7.31024">
        <ele>819</ele>
        <time>2020-09-06T08:26:53.356Z</time>
      </trkpt>
      <trkpt lat="48.41477" lon="7.31024">
        <ele>819</ele>
        <time>2020-09-06T08:26:54.356Z</time>
      </trkpt>
      <trkpt lat="48.41478" lon="7.31023">
        <ele>818</ele>
        <time>2020-09-06T08:26:55.355Z</time>
      </trkpt>
      <trkpt lat="48.41479" lon="7.31023">
        <ele>818</ele>
        <time>2020-09-06T08:26:56.356Z</time>
      </trkpt>
      <trkpt lat="48.41479" lon="7.31022">
        <ele>817</ele>
        <time>2020-09-06T08:26:57.356Z</time>
      </trkpt>
      <trkpt lat="48.4148" lon="7.31022">
        <ele>817</ele>
        <time>2020-09-06T08:26:58.356Z</time>
      </trkpt>
      <trkpt lat="48.41481" lon="7.31021">
        <ele>817</ele>
        <time>2020-09-06T08:26:59.356Z</time>
      </trkpt>
      <trkpt lat="48.41482" lon="7.31019">
        <ele>817</ele>
        <time>2020-09-06T08:27:00.355Z</time>
      </trkpt>
      <trkpt lat="48.41483" lon="7.31018">
        <ele>817</ele>
        <time>2020-09-06T08:27:01.356Z</time>
      </trkpt>
      <trkpt lat="48.41484" lon="7.31018">
        <ele>817</ele>
        <time>2020-09-06T08:27:02.356Z</time>
      </trkpt>
      <trkpt lat="48.41484" lon="7.31017">
        <ele>817</ele>
        <time>2020-09-06T08:27:03.356Z</time>
      </trkpt>
      <trkpt lat="48.41485" lon="7.31016">
        <ele>817</ele>
        <time>2020-09-06T08:27:04.356Z</time>
      </trkpt>
      <trkpt lat="48.41486" lon="7.31015">
        <ele>817</ele>
        <time>2020-09-06T08:27:05.356Z</time>
      </trkpt>
      <trkpt lat="48.41486" lon="7.31014">
        <ele>818</ele>
        <time>2020-09-06T08:27:06.356Z</time>
      </trkpt>
      <trkpt lat="48.41487" lon="7.31014">
        <ele>819</ele>
        <time>2020-09-06T08:27:07.356Z</time>
      </trkpt>
      <trkpt lat="48.41488" lon="7.31013">
        <ele>819</ele>
        <time>2020-09-06T08:27:08.356Z</time>
      </trkpt>
      <trkpt lat="48.41489" lon="7.31012">
        <ele>820</ele>
        <time>2020-09-06T08:27:09.356Z</time>
      </trkpt>
      <trkpt lat="48.4149" lon="7.31011">
        <ele>820</ele>
        <time>2020-09-06T08:27:10.355Z</time>
      </trkpt>
      <trkpt lat="48.41491" lon="7.3101">
        <ele>821</ele>
        <time>2020-09-06T08:27:11.356Z</time>
      </trkpt>
      <trkpt lat="48.41492" lon="7.3101">
        <ele>821</ele>
        <time>2020-09-06T08:27:12.356Z</time>
      </trkpt>
      <trkpt lat="48.41493" lon="7.31009">
        <ele>822</ele>
        <time>2020-09-06T08:27:13.356Z</time>
      </trkpt>
      <trkpt lat="48.41493" lon="7.31009">
        <ele>822</ele>
        <time>2020-09-06T08:27:14.355Z</time>
      </trkpt>
      <trkpt lat="48.41494" lon="7.31009">
        <ele>822</ele>
        <time>2020-09-06T08:27:15.356Z</time>
      </trkpt>
      <trkpt lat="48.41495" lon="7.31008">
        <ele>822</ele>
        <time>2020-09-06T08:27:16.355Z</time>
      </trkpt>
      <trkpt lat="48.41497" lon="7.31006">
        <ele>822</ele>
        <time>2020-09-06T08:27:17.355Z</time>
      </trkpt>
      <trkpt lat="48.41498" lon="7.31003">
        <ele>822</ele>
        <time>2020-09-06T08:27:18.355Z</time>
      </trkpt>
      <trkpt lat="48.41498" lon="7.31">
        <ele>821</ele>
        <time>2020-09-06T08:27:19.356Z</time>
      </trkpt>
      <trkpt lat="48.41499" lon="7.30998">
        <ele>821</ele>
        <time>2020-09-06T08:27:20.355Z</time>
      </trkpt>
      <trkpt lat="48.415" lon="7.30996">
        <ele>821</ele>
        <time>2020-09-06T08:27:21.356Z</time>
      </trkpt>
      <trkpt lat="48.41501" lon="7.30996">
        <ele>821</ele>
        <time>2020-09-06T08:27:22.356Z</time>
      </trkpt>
      <trkpt lat="48.41502" lon="7.30996">
        <ele>820</ele>
        <time>2020-09-06T08:27:23.356Z</time>
      </trkpt>
      <trkpt lat="48.41503" lon="7.30996">
        <ele>820</ele>
        <time>2020-09-06T08:27:24.356Z</time>
      </trkpt>
      <trkpt lat="48.41505" lon="7.30995">
        <ele>819</ele>
        <time>2020-09-06T08:27:25.356Z</time>
      </trkpt>
      <trkpt lat="48.41507" lon="7.30993">
        <ele>819</ele>
        <time>2020-09-06T08:27:26.356Z</time>
      </trkpt>
      <trkpt lat="48.41507" lon="7.30992">
        <ele>819</ele>
        <time>2020-09-06T08:27:27.356Z</time>
      </trkpt>
      <trkpt lat="48.41508" lon="7.30991">
        <ele>818</ele>
        <time>2020-09-06T08:27:28.356Z</time>
      </trkpt>
      <trkpt lat="48.41508" lon="7.30989">
        <ele>818</ele>
        <time>2020-09-06T08:27:29.355Z</time>
      </trkpt>
      <trkpt lat="48.41508" lon="7.30988">
        <ele>818</ele>
        <time>2020-09-06T08:27:30.356Z</time>
      </trkpt>
      <trkpt lat="48.41509" lon="7.30987">
        <ele>818</ele>
        <time>2020-09-06T08:27:31.356Z</time>
      </trkpt>
      <trkpt lat="48.4151" lon="7.30985">
        <ele>819</ele>
        <time>2020-09-06T08:27:32.356Z</time>
      </trkpt>
      <trkpt lat="48.41511" lon="7.30984">
        <ele>818</ele>
        <time>2020-09-06T08:27:33.356Z</time>
      </trkpt>
      <trkpt lat="48.41512" lon="7.30983">
        <ele>818</ele>
        <time>2020-09-06T08:27:34.355Z</time>
      </trkpt>
      <trkpt lat="48.41513" lon="7.30982">
        <ele>817</ele>
        <time>2020-09-06T08:27:35.355Z</time>
      </trkpt>
      <trkpt lat="48.41514" lon="7.30981">
        <ele>817</ele>
        <time>2020-09-06T08:27:36.356Z</time>
      </trkpt>
      <trkpt lat="48.41515" lon="7.30981">
        <ele>817</ele>
        <time>2020-09-06T08:27:37.356Z</time>
      </trkpt>
      <trkpt lat="48.41516" lon="7.30979">
        <ele>816</ele>
        <time>2020-09-06T08:27:38.356Z</time>
      </trkpt>
      <trkpt lat="48.41516" lon="7.30978">
        <ele>816</ele>
        <time>2020-09-06T08:27:39.356Z</time>
      </trkpt>
      <trkpt lat="48.41517" lon="7.30977">
        <ele>816</ele>
        <time>2020-09-06T08:27:40.355Z</time>
      </trkpt>
      <trkpt lat="48.41518" lon="7.30977">
        <ele>816</ele>
        <time>2020-09-06T08:27:41.356Z</time>
      </trkpt>
      <trkpt lat="48.41519" lon="7.30976">
        <ele>816</ele>
        <time>2020-09-06T08:27:42.355Z</time>
      </trkpt>
      <trkpt lat="48.41521" lon="7.30975">
        <ele>816</ele>
        <time>2020-09-06T08:27:43.356Z</time>
      </trkpt>
      <trkpt lat="48.41522" lon="7.30974">
        <ele>816</ele>
        <time>2020-09-06T08:27:44.356Z</time>
      </trkpt>
      <trkpt lat="48.41523" lon="7.30972">
        <ele>816</ele>
        <time>2020-09-06T08:27:45.356Z</time>
      </trkpt>
      <trkpt lat="48.41524" lon="7.30971">
        <ele>816</ele>
        <time>2020-09-06T08:27:46.356Z</time>
      </trkpt>
      <trkpt lat="48.41526" lon="7.3097">
        <ele>816</ele>
        <time>2020-09-06T08:27:47.356Z</time>
      </trkpt>
      <trkpt lat="48.41527" lon="7.30969">
        <ele>816</ele>
        <time>2020-09-06T08:27:48.356Z</time>
      </trkpt>
      <trkpt lat="48.41528" lon="7.30969">
        <ele>817</ele>
        <time>2020-09-06T08:27:49.356Z</time>
      </trkpt>
      <trkpt lat="48.41529" lon="7.30968">
        <ele>817</ele>
        <time>2020-09-06T08:27:50.356Z</time>
      </trkpt>
      <trkpt lat="48.4153" lon="7.30967">
        <ele>818</ele>
        <time>2020-09-06T08:27:51.356Z</time>
      </trkpt>
      <trkpt lat="48.41531" lon="7.30966">
        <ele>819</ele>
        <time>2020-09-06T08:27:52.356Z</time>
      </trkpt>
      <trkpt lat="48.41532" lon="7.30965">
        <ele>820</ele>
        <time>2020-09-06T08:27:53.356Z</time>
      </trkpt>
      <trkpt lat="48.41533" lon="7.30961">
        <ele>821</ele>
        <time>2020-09-06T08:27:54.356Z</time>
      </trkpt>
      <trkpt lat="48.41533" lon="7.30959">
        <ele>823</ele>
        <time>2020-09-06T08:27:55.356Z</time>
      </trkpt>
      <trkpt lat="48.41534" lon="7.30958">
        <ele>824</ele>
        <time>2020-09-06T08:27:56.356Z</time>
      </trkpt>
      <trkpt lat="48.41535" lon="7.30956">
        <ele>825</ele>
        <time>2020-09-06T08:27:57.356Z</time>
      </trkpt>
      <trkpt lat="48.41535" lon="7.30955">
        <ele>826</ele>
        <time>2020-09-06T08:27:58.356Z</time>
      </trkpt>
      <trkpt lat="48.41536" lon="7.30953">
        <ele>827</ele>
        <time>2020-09-06T08:27:59.356Z</time>
      </trkpt>
      <trkpt lat="48.41537" lon="7.30951">
        <ele>828</ele>
        <time>2020-09-06T08:28:00.356Z</time>
      </trkpt>
      <trkpt lat="48.41538" lon="7.3095">
        <ele>829</ele>
        <time>2020-09-06T08:28:01.356Z</time>
      </trkpt>
      <trkpt lat="48.41539" lon="7.30949">
        <ele>830</ele>
        <time>2020-09-06T08:28:02.356Z</time>
      </trkpt>
      <trkpt lat="48.4154" lon="7.30947">
        <ele>831</ele>
        <time>2020-09-06T08:28:03.356Z</time>
      </trkpt>
      <trkpt lat="48.4154" lon="7.30945">
        <ele>832</ele>
        <time>2020-09-06T08:28:04.356Z</time>
      </trkpt>
      <trkpt lat="48.4154" lon="7.30943">
        <ele>833</ele>
        <time>2020-09-06T08:28:05.356Z</time>
      </trkpt>
      <trkpt lat="48.41541" lon="7.30942">
        <ele>834</ele>
        <time>2020-09-06T08:28:06.356Z</time>
      </trkpt>
      <trkpt lat="48.41542" lon="7.30941">
        <ele>835</ele>
        <time>2020-09-06T08:28:07.356Z</time>
      </trkpt>
      <trkpt lat="48.41542" lon="7.3094">
        <ele>835</ele>
        <time>2020-09-06T08:28:08.355Z</time>
      </trkpt>
      <trkpt lat="48.41543" lon="7.30941">
        <ele>836</ele>
        <time>2020-09-06T08:28:09.356Z</time>
      </trkpt>
      <trkpt lat="48.41545" lon="7.30941">
        <ele>837</ele>
        <time>2020-09-06T08:28:10.356Z</time>
      </trkpt>
      <trkpt lat="48.41546" lon="7.30941">
        <ele>837</ele>
        <time>2020-09-06T08:28:11.356Z</time>
      </trkpt>
      <trkpt lat="48.41547" lon="7.3094">
        <ele>836</ele>
        <time>2020-09-06T08:28:12.356Z</time>
      </trkpt>
      <trkpt lat="48.41548" lon="7.30938">
        <ele>836</ele>
        <time>2020-09-06T08:28:13.356Z</time>
      </trkpt>
      <trkpt lat="48.41549" lon="7.30937">
        <ele>836</ele>
        <time>2020-09-06T08:28:14.356Z</time>
      </trkpt>
      <trkpt lat="48.41549" lon="7.30935">
        <ele>835</ele>
        <time>2020-09-06T08:28:15.356Z</time>
      </trkpt>
      <trkpt lat="48.4155" lon="7.30934">
        <ele>835</ele>
        <time>2020-09-06T08:28:16.355Z</time>
      </trkpt>
      <trkpt lat="48.41551" lon="7.30933">
        <ele>835</ele>
        <time>2020-09-06T08:28:17.355Z</time>
      </trkpt>
      <trkpt lat="48.41552" lon="7.30932">
        <ele>835</ele>
        <time>2020-09-06T08:28:18.356Z</time>
      </trkpt>
      <trkpt lat="48.41553" lon="7.30932">
        <ele>836</ele>
        <time>2020-09-06T08:28:19.356Z</time>
      </trkpt>
      <trkpt lat="48.41554" lon="7.30931">
        <ele>836</ele>
        <time>2020-09-06T08:28:20.355Z</time>
      </trkpt>
      <trkpt lat="48.41554" lon="7.3093">
        <ele>836</ele>
        <time>2020-09-06T08:28:21.355Z</time>
      </trkpt>
      <trkpt lat="48.41555" lon="7.30929">
        <ele>836</ele>
        <time>2020-09-06T08:28:22.355Z</time>
      </trkpt>
      <trkpt lat="48.41556" lon="7.30928">
        <ele>836</ele>
        <time>2020-09-06T08:28:23.356Z</time>
      </trkpt>
      <trkpt lat="48.41557" lon="7.30927">
        <ele>836</ele>
        <time>2020-09-06T08:28:24.355Z</time>
      </trkpt>
      <trkpt lat="48.41558" lon="7.30926">
        <ele>836</ele>
        <time>2020-09-06T08:28:25.356Z</time>
      </trkpt>
      <trkpt lat="48.41558" lon="7.30924">
        <ele>835</ele>
        <time>2020-09-06T08:28:26.355Z</time>
      </trkpt>
      <trkpt lat="48.41558" lon="7.30923">
        <ele>835</ele>
        <time>2020-09-06T08:28:27.356Z</time>
      </trkpt>
      <trkpt lat="48.41558" lon="7.30921">
        <ele>835</ele>
        <time>2020-09-06T08:28:28.356Z</time>
      </trkpt>
      <trkpt lat="48.41558" lon="7.30919">
        <ele>835</ele>
        <time>2020-09-06T08:28:29.356Z</time>
      </trkpt>
      <trkpt lat="48.41559" lon="7.30917">
        <ele>835</ele>
        <time>2020-09-06T08:28:30.356Z</time>
      </trkpt>
      <trkpt lat="48.41559" lon="7.30917">
        <ele>835</ele>
        <time>2020-09-06T08:28:31.356Z</time>
      </trkpt>
      <trkpt lat="48.4156" lon="7.30916">
        <ele>835</ele>
        <time>2020-09-06T08:28:32.356Z</time>
      </trkpt>
      <trkpt lat="48.4156" lon="7.30915">
        <ele>834</ele>
        <time>2020-09-06T08:28:33.356Z</time>
      </trkpt>
      <trkpt lat="48.4156" lon="7.30913">
        <ele>834</ele>
        <time>2020-09-06T08:28:34.355Z</time>
      </trkpt>
      <trkpt lat="48.4156" lon="7.30912">
        <ele>834</ele>
        <time>2020-09-06T08:28:35.356Z</time>
      </trkpt>
      <trkpt lat="48.41561" lon="7.30911">
        <ele>834</ele>
        <time>2020-09-06T08:28:36.355Z</time>
      </trkpt>
      <trkpt lat="48.41561" lon="7.3091">
        <ele>834</ele>
        <time>2020-09-06T08:28:37.356Z</time>
      </trkpt>
      <trkpt lat="48.41562" lon="7.30908">
        <ele>833</ele>
        <time>2020-09-06T08:28:38.355Z</time>
      </trkpt>
      <trkpt lat="48.41563" lon="7.30907">
        <ele>833</ele>
        <time>2020-09-06T08:28:39.356Z</time>
      </trkpt>
      <trkpt lat="48.41563" lon="7.30906">
        <ele>833</ele>
        <time>2020-09-06T08:28:40.355Z</time>
      </trkpt>
      <trkpt lat="48.41564" lon="7.30905">
        <ele>833</ele>
        <time>2020-09-06T08:28:41.356Z</time>
      </trkpt>
      <trkpt lat="48.41565" lon="7.30904">
        <ele>833</ele>
        <time>2020-09-06T08:28:42.355Z</time>
      </trkpt>
      <trkpt lat="48.41565" lon="7.30903">
        <ele>834</ele>
        <time>2020-09-06T08:28:43.355Z</time>
      </trkpt>
      <trkpt lat="48.41566" lon="7.30901">
        <ele>835</ele>
        <time>2020-09-06T08:28:44.356Z</time>
      </trkpt>
      <trkpt lat="48.41566" lon="7.309">
        <ele>835</ele>
        <time>2020-09-06T08:28:45.355Z</time>
      </trkpt>
      <trkpt lat="48.41567" lon="7.30898">
        <ele>835</ele>
        <time>2020-09-06T08:28:46.356Z</time>
      </trkpt>
      <trkpt lat="48.41567" lon="7.30897">
        <ele>835</ele>
        <time>2020-09-06T08:28:47.356Z</time>
      </trkpt>
      <trkpt lat="48.41568" lon="7.30896">
        <ele>836</ele>
        <time>2020-09-06T08:28:48.356Z</time>
      </trkpt>
      <trkpt lat="48.41568" lon="7.30895">
        <ele>836</ele>
        <time>2020-09-06T08:28:49.356Z</time>
      </trkpt>
      <trkpt lat="48.41569" lon="7.30893">
        <ele>835</ele>
        <time>2020-09-06T08:28:50.356Z</time>
      </trkpt>
      <trkpt lat="48.4157" lon="7.30891">
        <ele>835</ele>
        <time>2020-09-06T08:28:51.356Z</time>
      </trkpt>
      <trkpt lat="48.4157" lon="7.30889">
        <ele>835</ele>
        <time>2020-09-06T08:28:52.356Z</time>
      </trkpt>
      <trkpt lat="48.41571" lon="7.30887">
        <ele>835</ele>
        <time>2020-09-06T08:28:53.356Z</time>
      </trkpt>
      <trkpt lat="48.41572" lon="7.30885">
        <ele>836</ele>
        <time>2020-09-06T08:28:54.356Z</time>
      </trkpt>
      <trkpt lat="48.41573" lon="7.30884">
        <ele>836</ele>
        <time>2020-09-06T08:28:55.356Z</time>
      </trkpt>
      <trkpt lat="48.41574" lon="7.30882">
        <ele>836</ele>
        <time>2020-09-06T08:28:56.355Z</time>
      </trkpt>
      <trkpt lat="48.41574" lon="7.30881">
        <ele>836</ele>
        <time>2020-09-06T08:28:57.356Z</time>
      </trkpt>
      <trkpt lat="48.41575" lon="7.30879">
        <ele>837</ele>
        <time>2020-09-06T08:28:58.355Z</time>
      </trkpt>
      <trkpt lat="48.41576" lon="7.30878">
        <ele>837</ele>
        <time>2020-09-06T08:28:59.356Z</time>
      </trkpt>
      <trkpt lat="48.41576" lon="7.30876">
        <ele>837</ele>
        <time>2020-09-06T08:29:00.355Z</time>
      </trkpt>
      <trkpt lat="48.41576" lon="7.30874">
        <ele>837</ele>
        <time>2020-09-06T08:29:01.355Z</time>
      </trkpt>
      <trkpt lat="48.41576" lon="7.30872">
        <ele>837</ele>
        <time>2020-09-06T08:29:02.356Z</time>
      </trkpt>
      <trkpt lat="48.41577" lon="7.30872">
        <ele>837</ele>
        <time>2020-09-06T08:29:03.356Z</time>
      </trkpt>
      <trkpt lat="48.41578" lon="7.3087">
        <ele>837</ele>
        <time>2020-09-06T08:29:04.356Z</time>
      </trkpt>
      <trkpt lat="48.41579" lon="7.30869">
        <ele>837</ele>
        <time>2020-09-06T08:29:05.356Z</time>
      </trkpt>
      <trkpt lat="48.41579" lon="7.30868">
        <ele>837</ele>
        <time>2020-09-06T08:29:06.355Z</time>
      </trkpt>
      <trkpt lat="48.41581" lon="7.30865">
        <ele>837</ele>
        <time>2020-09-06T08:29:07.356Z</time>
      </trkpt>
      <trkpt lat="48.41581" lon="7.30862">
        <ele>837</ele>
        <time>2020-09-06T08:29:08.356Z</time>
      </trkpt>
      <trkpt lat="48.41583" lon="7.30861">
        <ele>837</ele>
        <time>2020-09-06T08:29:09.356Z</time>
      </trkpt>
      <trkpt lat="48.41583" lon="7.3086">
        <ele>838</ele>
        <time>2020-09-06T08:29:10.355Z</time>
      </trkpt>
      <trkpt lat="48.41584" lon="7.30859">
        <ele>838</ele>
        <time>2020-09-06T08:29:11.356Z</time>
      </trkpt>
      <trkpt lat="48.41585" lon="7.30857">
        <ele>839</ele>
        <time>2020-09-06T08:29:12.355Z</time>
      </trkpt>
      <trkpt lat="48.41586" lon="7.30855">
        <ele>839</ele>
        <time>2020-09-06T08:29:13.356Z</time>
      </trkpt>
      <trkpt lat="48.41586" lon="7.30854">
        <ele>839</ele>
        <time>2020-09-06T08:29:14.356Z</time>
      </trkpt>
      <trkpt lat="48.41587" lon="7.30853">
        <ele>839</ele>
        <time>2020-09-06T08:29:15.355Z</time>
      </trkpt>
      <trkpt lat="48.41587" lon="7.30852">
        <ele>839</ele>
        <time>2020-09-06T08:29:16.356Z</time>
      </trkpt>
      <trkpt lat="48.41587" lon="7.3085">
        <ele>839</ele>
        <time>2020-09-06T08:29:17.356Z</time>
      </trkpt>
      <trkpt lat="48.41588" lon="7.30848">
        <ele>839</ele>
        <time>2020-09-06T08:29:18.356Z</time>
      </trkpt>
      <trkpt lat="48.41588" lon="7.30845">
        <ele>839</ele>
        <time>2020-09-06T08:29:19.355Z</time>
      </trkpt>
      <trkpt lat="48.41589" lon="7.30841">
        <ele>839</ele>
        <time>2020-09-06T08:29:20.356Z</time>
      </trkpt>
      <trkpt lat="48.4159" lon="7.30839">
        <ele>839</ele>
        <time>2020-09-06T08:29:21.356Z</time>
      </trkpt>
      <trkpt lat="48.41591" lon="7.30838">
        <ele>839</ele>
        <time>2020-09-06T08:29:22.355Z</time>
      </trkpt>
      <trkpt lat="48.41592" lon="7.30835">
        <ele>839</ele>
        <time>2020-09-06T08:29:23.356Z</time>
      </trkpt>
      <trkpt lat="48.41593" lon="7.30834">
        <ele>839</ele>
        <time>2020-09-06T08:29:24.355Z</time>
      </trkpt>
      <trkpt lat="48.41593" lon="7.30832">
        <ele>840</ele>
        <time>2020-09-06T08:29:25.355Z</time>
      </trkpt>
      <trkpt lat="48.41594" lon="7.30831">
        <ele>840</ele>
        <time>2020-09-06T08:29:26.356Z</time>
      </trkpt>
      <trkpt lat="48.41594" lon="7.30831">
        <ele>840</ele>
        <time>2020-09-06T08:29:27.356Z</time>
      </trkpt>
      <trkpt lat="48.41594" lon="7.30829">
        <ele>840</ele>
        <time>2020-09-06T08:29:28.356Z</time>
      </trkpt>
      <trkpt lat="48.41594" lon="7.30827">
        <ele>840</ele>
        <time>2020-09-06T08:29:29.355Z</time>
      </trkpt>
      <trkpt lat="48.41595" lon="7.30825">
        <ele>840</ele>
        <time>2020-09-06T08:29:30.356Z</time>
      </trkpt>
      <trkpt lat="48.41596" lon="7.30823">
        <ele>840</ele>
        <time>2020-09-06T08:29:31.355Z</time>
      </trkpt>
      <trkpt lat="48.41597" lon="7.30821">
        <ele>840</ele>
        <time>2020-09-06T08:29:32.356Z</time>
      </trkpt>
      <trkpt lat="48.41598" lon="7.3082">
        <ele>841</ele>
        <time>2020-09-06T08:29:33.356Z</time>
      </trkpt>
      <trkpt lat="48.41599" lon="7.30819">
        <ele>841</ele>
        <time>2020-09-06T08:29:34.356Z</time>
      </trkpt>
      <trkpt lat="48.416" lon="7.30817">
        <ele>841</ele>
        <time>2020-09-06T08:29:35.356Z</time>
      </trkpt>
      <trkpt lat="48.41601" lon="7.30817">
        <ele>840</ele>
        <time>2020-09-06T08:29:36.356Z</time>
      </trkpt>
      <trkpt lat="48.41602" lon="7.30816">
        <ele>840</ele>
        <time>2020-09-06T08:29:37.356Z</time>
      </trkpt>
      <trkpt lat="48.41603" lon="7.30815">
        <ele>840</ele>
        <time>2020-09-06T08:29:38.356Z</time>
      </trkpt>
      <trkpt lat="48.41604" lon="7.30814">
        <ele>840</ele>
        <time>2020-09-06T08:29:39.356Z</time>
      </trkpt>
      <trkpt lat="48.41605" lon="7.30812">
        <ele>840</ele>
        <time>2020-09-06T08:29:40.356Z</time>
      </trkpt>
      <trkpt lat="48.41606" lon="7.30811">
        <ele>840</ele>
        <time>2020-09-06T08:29:41.355Z</time>
      </trkpt>
      <trkpt lat="48.41606" lon="7.30808">
        <ele>840</ele>
        <time>2020-09-06T08:29:42.356Z</time>
      </trkpt>
      <trkpt lat="48.41606" lon="7.30806">
        <ele>840</ele>
        <time>2020-09-06T08:29:43.356Z</time>
      </trkpt>
      <trkpt lat="48.41606" lon="7.30805">
        <ele>840</ele>
        <time>2020-09-06T08:29:44.356Z</time>
      </trkpt>
      <trkpt lat="48.41606" lon="7.30802">
        <ele>840</ele>
        <time>2020-09-06T08:29:45.356Z</time>
      </trkpt>
      <trkpt lat="48.41606" lon="7.308">
        <ele>840</ele>
        <time>2020-09-06T08:29:46.356Z</time>
      </trkpt>
      <trkpt lat="48.41606" lon="7.30799">
        <ele>840</ele>
        <time>2020-09-06T08:29:47.356Z</time>
      </trkpt>
      <trkpt lat="48.41607" lon="7.30797">
        <ele>840</ele>
        <time>2020-09-06T08:29:48.356Z</time>
      </trkpt>
      <trkpt lat="48.41608" lon="7.30796">
        <ele>840</ele>
        <time>2020-09-06T08:29:49.355Z</time>
      </trkpt>
      <trkpt lat="48.41609" lon="7.30795">
        <ele>839</ele>
        <time>2020-09-06T08:29:50.356Z</time>
      </trkpt>
      <trkpt lat="48.41609" lon="7.30794">
        <ele>839</ele>
        <time>2020-09-06T08:29:51.356Z</time>
      </trkpt>
      <trkpt lat="48.4161" lon="7.30793">
        <ele>839</ele>
        <time>2020-09-06T08:29:52.356Z</time>
      </trkpt>
      <trkpt lat="48.4161" lon="7.30793">
        <ele>839</ele>
        <time>2020-09-06T08:29:53.356Z</time>
      </trkpt>
      <trkpt lat="48.41611" lon="7.30792">
        <ele>838</ele>
        <time>2020-09-06T08:29:54.356Z</time>
      </trkpt>
      <trkpt lat="48.41611" lon="7.30791">
        <ele>838</ele>
        <time>2020-09-06T08:29:55.356Z</time>
      </trkpt>
      <trkpt lat="48.41612" lon="7.30789">
        <ele>838</ele>
        <time>2020-09-06T08:29:56.355Z</time>
      </trkpt>
      <trkpt lat="48.41613" lon="7.30788">
        <ele>837</ele>
        <time>2020-09-06T08:29:57.356Z</time>
      </trkpt>
      <trkpt lat="48.41613" lon="7.30787">
        <ele>837</ele>
        <time>2020-09-06T08:29:58.355Z</time>
      </trkpt>
      <trkpt lat="48.41614" lon="7.30786">
        <ele>837</ele>
        <time>2020-09-06T08:29:59.355Z</time>
      </trkpt>
      <trkpt lat="48.41615" lon="7.30785">
        <ele>836</ele>
        <time>2020-09-06T08:30:00.355Z</time>
      </trkpt>
      <trkpt lat="48.41616" lon="7.30783">
        <ele>835</ele>
        <time>2020-09-06T08:30:01.355Z</time>
      </trkpt>
      <trkpt lat="48.41616" lon="7.30782">
        <ele>834</ele>
        <time>2020-09-06T08:30:02.356Z</time>
      </trkpt>
      <trkpt lat="48.41617" lon="7.3078">
        <ele>833</ele>
        <time>2020-09-06T08:30:03.356Z</time>
      </trkpt>
      <trkpt lat="48.41617" lon="7.30779">
        <ele>833</ele>
        <time>2020-09-06T08:30:04.355Z</time>
      </trkpt>
      <trkpt lat="48.41618" lon="7.30778">
        <ele>832</ele>
        <time>2020-09-06T08:30:05.356Z</time>
      </trkpt>
      <trkpt lat="48.41618" lon="7.30776">
        <ele>831</ele>
        <time>2020-09-06T08:30:06.356Z</time>
      </trkpt>
      <trkpt lat="48.41618" lon="7.30774">
        <ele>830</ele>
        <time>2020-09-06T08:30:07.356Z</time>
      </trkpt>
      <trkpt lat="48.41618" lon="7.30772">
        <ele>830</ele>
        <time>2020-09-06T08:30:08.355Z</time>
      </trkpt>
      <trkpt lat="48.41618" lon="7.3077">
        <ele>829</ele>
        <time>2020-09-06T08:30:09.356Z</time>
      </trkpt>
      <trkpt lat="48.41619" lon="7.30766">
        <ele>828</ele>
        <time>2020-09-06T08:30:10.356Z</time>
      </trkpt>
      <trkpt lat="48.4162" lon="7.30765">
        <ele>828</ele>
        <time>2020-09-06T08:30:11.356Z</time>
      </trkpt>
      <trkpt lat="48.4162" lon="7.30763">
        <ele>827</ele>
        <time>2020-09-06T08:30:12.356Z</time>
      </trkpt>
      <trkpt lat="48.41621" lon="7.30762">
        <ele>826</ele>
        <time>2020-09-06T08:30:13.356Z</time>
      </trkpt>
      <trkpt lat="48.41622" lon="7.30762">
        <ele>826</ele>
        <time>2020-09-06T08:30:14.355Z</time>
      </trkpt>
      <trkpt lat="48.41623" lon="7.3076">
        <ele>825</ele>
        <time>2020-09-06T08:30:15.356Z</time>
      </trkpt>
      <trkpt lat="48.41625" lon="7.30758">
        <ele>825</ele>
        <time>2020-09-06T08:30:16.356Z</time>
      </trkpt>
      <trkpt lat="48.41626" lon="7.30757">
        <ele>824</ele>
        <time>2020-09-06T08:30:17.356Z</time>
      </trkpt>
      <trkpt lat="48.41626" lon="7.30756">
        <ele>824</ele>
        <time>2020-09-06T08:30:18.356Z</time>
      </trkpt>
      <trkpt lat="48.41627" lon="7.30755">
        <ele>824</ele>
        <time>2020-09-06T08:30:19.356Z</time>
      </trkpt>
      <trkpt lat="48.41628" lon="7.30755">
        <ele>824</ele>
        <time>2020-09-06T08:30:20.356Z</time>
      </trkpt>
      <trkpt lat="48.41629" lon="7.30754">
        <ele>823</ele>
        <time>2020-09-06T08:30:21.356Z</time>
      </trkpt>
      <trkpt lat="48.4163" lon="7.30752">
        <ele>823</ele>
        <time>2020-09-06T08:30:22.356Z</time>
      </trkpt>
      <trkpt lat="48.41631" lon="7.30751">
        <ele>823</ele>
        <time>2020-09-06T08:30:23.356Z</time>
      </trkpt>
      <trkpt lat="48.41631" lon="7.30749">
        <ele>823</ele>
        <time>2020-09-06T08:30:24.355Z</time>
      </trkpt>
      <trkpt lat="48.41632" lon="7.30747">
        <ele>822</ele>
        <time>2020-09-06T08:30:25.356Z</time>
      </trkpt>
      <trkpt lat="48.41633" lon="7.30745">
        <ele>822</ele>
        <time>2020-09-06T08:30:26.356Z</time>
      </trkpt>
      <trkpt lat="48.41633" lon="7.30744">
        <ele>821</ele>
        <time>2020-09-06T08:30:27.356Z</time>
      </trkpt>
      <trkpt lat="48.41634" lon="7.30742">
        <ele>821</ele>
        <time>2020-09-06T08:30:28.355Z</time>
      </trkpt>
      <trkpt lat="48.41635" lon="7.30742">
        <ele>821</ele>
        <time>2020-09-06T08:30:29.356Z</time>
      </trkpt>
      <trkpt lat="48.41636" lon="7.30741">
        <ele>820</ele>
        <time>2020-09-06T08:30:30.356Z</time>
      </trkpt>
      <trkpt lat="48.41637" lon="7.30741">
        <ele>820</ele>
        <time>2020-09-06T08:30:31.356Z</time>
      </trkpt>
      <trkpt lat="48.41638" lon="7.3074">
        <ele>819</ele>
        <time>2020-09-06T08:30:32.356Z</time>
      </trkpt>
      <trkpt lat="48.41638" lon="7.3074">
        <ele>819</ele>
        <time>2020-09-06T08:30:33.355Z</time>
      </trkpt>
      <trkpt lat="48.41639" lon="7.30739">
        <ele>818</ele>
        <time>2020-09-06T08:30:34.355Z</time>
      </trkpt>
      <trkpt lat="48.4164" lon="7.30738">
        <ele>818</ele>
        <time>2020-09-06T08:30:35.355Z</time>
      </trkpt>
      <trkpt lat="48.4164" lon="7.30737">
        <ele>817</ele>
        <time>2020-09-06T08:30:36.356Z</time>
      </trkpt>
      <trkpt lat="48.41641" lon="7.30736">
        <ele>817</ele>
        <time>2020-09-06T08:30:37.356Z</time>
      </trkpt>
      <trkpt lat="48.41642" lon="7.30735">
        <ele>816</ele>
        <time>2020-09-06T08:30:38.356Z</time>
      </trkpt>
      <trkpt lat="48.41643" lon="7.30734">
        <ele>816</ele>
        <time>2020-09-06T08:30:39.356Z</time>
      </trkpt>
      <trkpt lat="48.41643" lon="7.30732">
        <ele>815</ele>
        <time>2020-09-06T08:30:40.356Z</time>
      </trkpt>
      <trkpt lat="48.41644" lon="7.30731">
        <ele>816</ele>
        <time>2020-09-06T08:30:41.356Z</time>
      </trkpt>
      <trkpt lat="48.41645" lon="7.3073">
        <ele>816</ele>
        <time>2020-09-06T08:30:42.356Z</time>
      </trkpt>
      <trkpt lat="48.41646" lon="7.3073">
        <ele>817</ele>
        <time>2020-09-06T08:30:43.356Z</time>
      </trkpt>
      <trkpt lat="48.41647" lon="7.30729">
        <ele>818</ele>
        <time>2020-09-06T08:30:44.355Z</time>
      </trkpt>
      <trkpt lat="48.41649" lon="7.30728">
        <ele>819</ele>
        <time>2020-09-06T08:30:45.356Z</time>
      </trkpt>
      <trkpt lat="48.4165" lon="7.30728">
        <ele>820</ele>
        <time>2020-09-06T08:30:46.355Z</time>
      </trkpt>
      <trkpt lat="48.41651" lon="7.30729">
        <ele>821</ele>
        <time>2020-09-06T08:30:47.356Z</time>
      </trkpt>
      <trkpt lat="48.41652" lon="7.30729">
        <ele>822</ele>
        <time>2020-09-06T08:30:48.355Z</time>
      </trkpt>
      <trkpt lat="48.41654" lon="7.30729">
        <ele>823</ele>
        <time>2020-09-06T08:30:49.356Z</time>
      </trkpt>
      <trkpt lat="48.41655" lon="7.30728">
        <ele>824</ele>
        <time>2020-09-06T08:30:50.355Z</time>
      </trkpt>
      <trkpt lat="48.41656" lon="7.30727">
        <ele>825</ele>
        <time>2020-09-06T08:30:51.355Z</time>
      </trkpt>
      <trkpt lat="48.41657" lon="7.30727">
        <ele>826</ele>
        <time>2020-09-06T08:30:52.355Z</time>
      </trkpt>
      <trkpt lat="48.41657" lon="7.30727">
        <ele>827</ele>
        <time>2020-09-06T08:30:53.356Z</time>
      </trkpt>
      <trkpt lat="48.41657" lon="7.30727">
        <ele>827</ele>
        <time>2020-09-06T08:30:54.356Z</time>
      </trkpt>
      <trkpt lat="48.41658" lon="7.30726">
        <ele>827</ele>
        <time>2020-09-06T08:30:55.356Z</time>
      </trkpt>
      <trkpt lat="48.41659" lon="7.30725">
        <ele>828</ele>
        <time>2020-09-06T08:30:56.355Z</time>
      </trkpt>
      <trkpt lat="48.4166" lon="7.30724">
        <ele>828</ele>
        <time>2020-09-06T08:30:57.356Z</time>
      </trkpt>
      <trkpt lat="48.4166" lon="7.30723">
        <ele>828</ele>
        <time>2020-09-06T08:30:58.356Z</time>
      </trkpt>
      <trkpt lat="48.41661" lon="7.30722">
        <ele>829</ele>
        <time>2020-09-06T08:30:59.356Z</time>
      </trkpt>
      <trkpt lat="48.41661" lon="7.30721">
        <ele>829</ele>
        <time>2020-09-06T08:31:00.356Z</time>
      </trkpt>
      <trkpt lat="48.41662" lon="7.3072">
        <ele>830</ele>
        <time>2020-09-06T08:31:01.356Z</time>
      </trkpt>
      <trkpt lat="48.41663" lon="7.30719">
        <ele>831</ele>
        <time>2020-09-06T08:31:02.355Z</time>
      </trkpt>
      <trkpt lat="48.41664" lon="7.30718">
        <ele>832</ele>
        <time>2020-09-06T08:31:03.356Z</time>
      </trkpt>
      <trkpt lat="48.41664" lon="7.30717">
        <ele>833</ele>
        <time>2020-09-06T08:31:04.355Z</time>
      </trkpt>
      <trkpt lat="48.41665" lon="7.30717">
        <ele>834</ele>
        <time>2020-09-06T08:31:05.356Z</time>
      </trkpt>
      <trkpt lat="48.41666" lon="7.30717">
        <ele>834</ele>
        <time>2020-09-06T08:31:06.356Z</time>
      </trkpt>
      <trkpt lat="48.41667" lon="7.30717">
        <ele>834</ele>
        <time>2020-09-06T08:31:07.356Z</time>
      </trkpt>
      <trkpt lat="48.41668" lon="7.30716">
        <ele>834</ele>
        <time>2020-09-06T08:31:08.356Z</time>
      </trkpt>
      <trkpt lat="48.4167" lon="7.30716">
        <ele>834</ele>
        <time>2020-09-06T08:31:09.356Z</time>
      </trkpt>
      <trkpt lat="48.41672" lon="7.30716">
        <ele>834</ele>
        <time>2020-09-06T08:31:10.355Z</time>
      </trkpt>
      <trkpt lat="48.41673" lon="7.30715">
        <ele>834</ele>
        <time>2020-09-06T08:31:11.356Z</time>
      </trkpt>
      <trkpt lat="48.41674" lon="7.30714">
        <ele>833</ele>
        <time>2020-09-06T08:31:12.356Z</time>
      </trkpt>
      <trkpt lat="48.41675" lon="7.30714">
        <ele>833</ele>
        <time>2020-09-06T08:31:13.355Z</time>
      </trkpt>
      <trkpt lat="48.41676" lon="7.30713">
        <ele>833</ele>
        <time>2020-09-06T08:31:14.355Z</time>
      </trkpt>
      <trkpt lat="48.41677" lon="7.30712">
        <ele>834</ele>
        <time>2020-09-06T08:31:15.356Z</time>
      </trkpt>
      <trkpt lat="48.41677" lon="7.30711">
        <ele>835</ele>
        <time>2020-09-06T08:31:16.356Z</time>
      </trkpt>
      <trkpt lat="48.41678" lon="7.3071">
        <ele>836</ele>
        <time>2020-09-06T08:31:17.356Z</time>
      </trkpt>
      <trkpt lat="48.41679" lon="7.30709">
        <ele>837</ele>
        <time>2020-09-06T08:31:18.356Z</time>
      </trkpt>
      <trkpt lat="48.4168" lon="7.30708">
        <ele>837</ele>
        <time>2020-09-06T08:31:19.356Z</time>
      </trkpt>
      <trkpt lat="48.41681" lon="7.30708">
        <ele>837</ele>
        <time>2020-09-06T08:31:20.356Z</time>
      </trkpt>
      <trkpt lat="48.41682" lon="7.30707">
        <ele>837</ele>
        <time>2020-09-06T08:31:21.355Z</time>
      </trkpt>
      <trkpt lat="48.41684" lon="7.30707">
        <ele>837</ele>
        <time>2020-09-06T08:31:22.355Z</time>
      </trkpt>
      <trkpt lat="48.41685" lon="7.30706">
        <ele>837</ele>
        <time>2020-09-06T08:31:23.356Z</time>
      </trkpt>
      <trkpt lat="48.41686" lon="7.30706">
        <ele>836</ele>
        <time>2020-09-06T08:31:24.355Z</time>
      </trkpt>
      <trkpt lat="48.41688" lon="7.30705">
        <ele>835</ele>
        <time>2020-09-06T08:31:25.355Z</time>
      </trkpt>
      <trkpt lat="48.41689" lon="7.30705">
        <ele>835</ele>
        <time>2020-09-06T08:31:26.356Z</time>
      </trkpt>
      <trkpt lat="48.4169" lon="7.30704">
        <ele>834</ele>
        <time>2020-09-06T08:31:27.356Z</time>
      </trkpt>
      <trkpt lat="48.4169" lon="7.30704">
        <ele>834</ele>
        <time>2020-09-06T08:31:28.356Z</time>
      </trkpt>
      <trkpt lat="48.41692" lon="7.30703">
        <ele>834</ele>
        <time>2020-09-06T08:31:29.356Z</time>
      </trkpt>
      <trkpt lat="48.41693" lon="7.30703">
        <ele>833</ele>
        <time>2020-09-06T08:31:30.356Z</time>
      </trkpt>
      <trkpt lat="48.41694" lon="7.30702">
        <ele>833</ele>
        <time>2020-09-06T08:31:31.355Z</time>
      </trkpt>
      <trkpt lat="48.41695" lon="7.30701">
        <ele>833</ele>
        <time>2020-09-06T08:31:32.356Z</time>
      </trkpt>
      <trkpt lat="48.41696" lon="7.30701">
        <ele>833</ele>
        <time>2020-09-06T08:31:33.356Z</time>
      </trkpt>
      <trkpt lat="48.41698" lon="7.307">
        <ele>833</ele>
        <time>2020-09-06T08:31:34.355Z</time>
      </trkpt>
      <trkpt lat="48.41699" lon="7.30699">
        <ele>833</ele>
        <time>2020-09-06T08:31:35.355Z</time>
      </trkpt>
      <trkpt lat="48.417" lon="7.30697">
        <ele>833</ele>
        <time>2020-09-06T08:31:36.355Z</time>
      </trkpt>
      <trkpt lat="48.417" lon="7.30695">
        <ele>834</ele>
        <time>2020-09-06T08:31:37.356Z</time>
      </trkpt>
      <trkpt lat="48.41701" lon="7.30694">
        <ele>834</ele>
        <time>2020-09-06T08:31:38.356Z</time>
      </trkpt>
      <trkpt lat="48.41703" lon="7.30692">
        <ele>835</ele>
        <time>2020-09-06T08:31:39.356Z</time>
      </trkpt>
      <trkpt lat="48.41705" lon="7.30691">
        <ele>835</ele>
        <time>2020-09-06T08:31:40.356Z</time>
      </trkpt>
      <trkpt lat="48.41708" lon="7.3069">
        <ele>835</ele>
        <time>2020-09-06T08:31:41.356Z</time>
      </trkpt>
      <trkpt lat="48.41709" lon="7.30689">
        <ele>835</ele>
        <time>2020-09-06T08:31:42.356Z</time>
      </trkpt>
      <trkpt lat="48.4171" lon="7.30688">
        <ele>835</ele>
        <time>2020-09-06T08:31:43.356Z</time>
      </trkpt>
      <trkpt lat="48.41711" lon="7.30688">
        <ele>835</ele>
        <time>2020-09-06T08:31:44.356Z</time>
      </trkpt>
      <trkpt lat="48.41712" lon="7.30687">
        <ele>835</ele>
        <time>2020-09-06T08:31:45.356Z</time>
      </trkpt>
      <trkpt lat="48.41713" lon="7.30686">
        <ele>835</ele>
        <time>2020-09-06T08:31:46.355Z</time>
      </trkpt>
      <trkpt lat="48.41714" lon="7.30686">
        <ele>835</ele>
        <time>2020-09-06T08:31:47.355Z</time>
      </trkpt>
      <trkpt lat="48.41715" lon="7.30685">
        <ele>835</ele>
        <time>2020-09-06T08:31:48.356Z</time>
      </trkpt>
      <trkpt lat="48.41716" lon="7.30685">
        <ele>835</ele>
        <time>2020-09-06T08:31:49.355Z</time>
      </trkpt>
      <trkpt lat="48.41716" lon="7.30685">
        <ele>835</ele>
        <time>2020-09-06T08:31:50.355Z</time>
      </trkpt>
      <trkpt lat="48.41717" lon="7.30684">
        <ele>836</ele>
        <time>2020-09-06T08:31:51.356Z</time>
      </trkpt>
      <trkpt lat="48.41718" lon="7.30684">
        <ele>836</ele>
        <time>2020-09-06T08:31:52.356Z</time>
      </trkpt>
      <trkpt lat="48.41719" lon="7.30684">
        <ele>837</ele>
        <time>2020-09-06T08:31:53.356Z</time>
      </trkpt>
      <trkpt lat="48.41721" lon="7.30684">
        <ele>837</ele>
        <time>2020-09-06T08:31:54.356Z</time>
      </trkpt>
      <trkpt lat="48.41723" lon="7.30683">
        <ele>838</ele>
        <time>2020-09-06T08:31:55.355Z</time>
      </trkpt>
      <trkpt lat="48.41724" lon="7.30681">
        <ele>839</ele>
        <time>2020-09-06T08:31:56.355Z</time>
      </trkpt>
      <trkpt lat="48.41725" lon="7.3068">
        <ele>839</ele>
        <time>2020-09-06T08:31:57.355Z</time>
      </trkpt>
      <trkpt lat="48.41726" lon="7.3068">
        <ele>840</ele>
        <time>2020-09-06T08:31:58.355Z</time>
      </trkpt>
      <trkpt lat="48.41726" lon="7.3068">
        <ele>841</ele>
        <time>2020-09-06T08:31:59.355Z</time>
      </trkpt>
      <trkpt lat="48.41727" lon="7.30679">
        <ele>841</ele>
        <time>2020-09-06T08:32:00.356Z</time>
      </trkpt>
      <trkpt lat="48.41727" lon="7.30678">
        <ele>842</ele>
        <time>2020-09-06T08:32:01.356Z</time>
      </trkpt>
      <trkpt lat="48.41728" lon="7.30677">
        <ele>843</ele>
        <time>2020-09-06T08:32:02.356Z</time>
      </trkpt>
      <trkpt lat="48.41729" lon="7.30676">
        <ele>844</ele>
        <time>2020-09-06T08:32:03.355Z</time>
      </trkpt>
      <trkpt lat="48.41731" lon="7.30675">
        <ele>845</ele>
        <time>2020-09-06T08:32:04.356Z</time>
      </trkpt>
      <trkpt lat="48.41731" lon="7.30674">
        <ele>846</ele>
        <time>2020-09-06T08:32:05.356Z</time>
      </trkpt>
      <trkpt lat="48.41731" lon="7.30674">
        <ele>847</ele>
        <time>2020-09-06T08:32:06.356Z</time>
      </trkpt>
      <trkpt lat="48.41732" lon="7.30674">
        <ele>848</ele>
        <time>2020-09-06T08:32:07.356Z</time>
      </trkpt>
      <trkpt lat="48.41733" lon="7.30673">
        <ele>848</ele>
        <time>2020-09-06T08:32:08.355Z</time>
      </trkpt>
      <trkpt lat="48.41733" lon="7.30673">
        <ele>849</ele>
        <time>2020-09-06T08:32:09.356Z</time>
      </trkpt>
      <trkpt lat="48.41734" lon="7.30673">
        <ele>850</ele>
        <time>2020-09-06T08:32:10.356Z</time>
      </trkpt>
      <trkpt lat="48.41734" lon="7.30673">
        <ele>851</ele>
        <time>2020-09-06T08:32:11.356Z</time>
      </trkpt>
      <trkpt lat="48.41735" lon="7.30672">
        <ele>851</ele>
        <time>2020-09-06T08:32:12.356Z</time>
      </trkpt>
      <trkpt lat="48.41737" lon="7.30671">
        <ele>852</ele>
        <time>2020-09-06T08:32:13.356Z</time>
      </trkpt>
      <trkpt lat="48.41738" lon="7.30669">
        <ele>852</ele>
        <time>2020-09-06T08:32:14.356Z</time>
      </trkpt>
      <trkpt lat="48.41739" lon="7.30668">
        <ele>853</ele>
        <time>2020-09-06T08:32:15.356Z</time>
      </trkpt>
      <trkpt lat="48.4174" lon="7.30667">
        <ele>853</ele>
        <time>2020-09-06T08:32:16.356Z</time>
      </trkpt>
      <trkpt lat="48.41741" lon="7.30667">
        <ele>853</ele>
        <time>2020-09-06T08:32:17.355Z</time>
      </trkpt>
      <trkpt lat="48.41742" lon="7.30667">
        <ele>853</ele>
        <time>2020-09-06T08:32:18.356Z</time>
      </trkpt>
      <trkpt lat="48.41742" lon="7.30667">
        <ele>852</ele>
        <time>2020-09-06T08:32:19.356Z</time>
      </trkpt>
      <trkpt lat="48.41743" lon="7.30668">
        <ele>852</ele>
        <time>2020-09-06T08:32:20.356Z</time>
      </trkpt>
      <trkpt lat="48.41743" lon="7.30668">
        <ele>852</ele>
        <time>2020-09-06T08:32:21.356Z</time>
      </trkpt>
      <trkpt lat="48.41743" lon="7.30669">
        <ele>851</ele>
        <time>2020-09-06T08:32:22.356Z</time>
      </trkpt>
      <trkpt lat="48.41744" lon="7.30668">
        <ele>850</ele>
        <time>2020-09-06T08:32:23.356Z</time>
      </trkpt>
      <trkpt lat="48.41745" lon="7.30668">
        <ele>849</ele>
        <time>2020-09-06T08:32:24.355Z</time>
      </trkpt>
      <trkpt lat="48.41746" lon="7.30667">
        <ele>848</ele>
        <time>2020-09-06T08:32:25.356Z</time>
      </trkpt>
      <trkpt lat="48.41747" lon="7.30667">
        <ele>847</ele>
        <time>2020-09-06T08:32:26.356Z</time>
      </trkpt>
      <trkpt lat="48.41748" lon="7.30666">
        <ele>846</ele>
        <time>2020-09-06T08:32:27.355Z</time>
      </trkpt>
      <trkpt lat="48.41749" lon="7.30666">
        <ele>845</ele>
        <time>2020-09-06T08:32:28.356Z</time>
      </trkpt>
      <trkpt lat="48.4175" lon="7.30665">
        <ele>845</ele>
        <time>2020-09-06T08:32:29.356Z</time>
      </trkpt>
      <trkpt lat="48.4175" lon="7.30664">
        <ele>844</ele>
        <time>2020-09-06T08:32:30.356Z</time>
      </trkpt>
      <trkpt lat="48.41751" lon="7.30663">
        <ele>844</ele>
        <time>2020-09-06T08:32:31.356Z</time>
      </trkpt>
      <trkpt lat="48.41752" lon="7.30662">
        <ele>843</ele>
        <time>2020-09-06T08:32:32.356Z</time>
      </trkpt>
      <trkpt lat="48.41752" lon="7.30661">
        <ele>843</ele>
        <time>2020-09-06T08:32:33.355Z</time>
      </trkpt>
      <trkpt lat="48.41753" lon="7.3066">
        <ele>843</ele>
        <time>2020-09-06T08:32:34.356Z</time>
      </trkpt>
      <trkpt lat="48.41754" lon="7.30659">
        <ele>843</ele>
        <time>2020-09-06T08:32:35.355Z</time>
      </trkpt>
      <trkpt lat="48.41755" lon="7.30658">
        <ele>842</ele>
        <time>2020-09-06T08:32:36.356Z</time>
      </trkpt>
      <trkpt lat="48.41756" lon="7.30656">
        <ele>842</ele>
        <time>2020-09-06T08:32:37.355Z</time>
      </trkpt>
      <trkpt lat="48.41758" lon="7.30655">
        <ele>842</ele>
        <time>2020-09-06T08:32:38.356Z</time>
      </trkpt>
      <trkpt lat="48.4176" lon="7.30654">
        <ele>841</ele>
        <time>2020-09-06T08:32:39.355Z</time>
      </trkpt>
      <trkpt lat="48.41761" lon="7.30654">
        <ele>840</ele>
        <time>2020-09-06T08:32:40.355Z</time>
      </trkpt>
      <trkpt lat="48.41763" lon="7.30652">
        <ele>840</ele>
        <time>2020-09-06T08:32:41.356Z</time>
      </trkpt>
      <trkpt lat="48.41765" lon="7.30651">
        <ele>839</ele>
        <time>2020-09-06T08:32:42.356Z</time>
      </trkpt>
      <trkpt lat="48.41766" lon="7.3065">
        <ele>839</ele>
        <time>2020-09-06T08:32:43.356Z</time>
      </trkpt>
      <trkpt lat="48.41767" lon="7.30649">
        <ele>839</ele>
        <time>2020-09-06T08:32:44.355Z</time>
      </trkpt>
      <trkpt lat="48.41768" lon="7.30649">
        <ele>838</ele>
        <time>2020-09-06T08:32:45.356Z</time>
      </trkpt>
      <trkpt lat="48.41769" lon="7.30647">
        <ele>839</ele>
        <time>2020-09-06T08:32:46.356Z</time>
      </trkpt>
      <trkpt lat="48.41769" lon="7.30646">
        <ele>839</ele>
        <time>2020-09-06T08:32:47.356Z</time>
      </trkpt>
      <trkpt lat="48.41769" lon="7.30644">
        <ele>840</ele>
        <time>2020-09-06T08:32:48.355Z</time>
      </trkpt>
      <trkpt lat="48.41769" lon="7.30641">
        <ele>840</ele>
        <time>2020-09-06T08:32:49.356Z</time>
      </trkpt>
      <trkpt lat="48.41769" lon="7.3064">
        <ele>841</ele>
        <time>2020-09-06T08:32:50.356Z</time>
      </trkpt>
      <trkpt lat="48.41769" lon="7.30638">
        <ele>841</ele>
        <time>2020-09-06T08:32:51.355Z</time>
      </trkpt>
      <trkpt lat="48.41769" lon="7.30637">
        <ele>842</ele>
        <time>2020-09-06T08:32:52.355Z</time>
      </trkpt>
      <trkpt lat="48.41769" lon="7.30636">
        <ele>842</ele>
        <time>2020-09-06T08:32:53.356Z</time>
      </trkpt>
      <trkpt lat="48.41769" lon="7.30636">
        <ele>843</ele>
        <time>2020-09-06T08:32:54.356Z</time>
      </trkpt>
      <trkpt lat="48.41769" lon="7.30636">
        <ele>843</ele>
        <time>2020-09-06T08:32:55.355Z</time>
      </trkpt>
      <trkpt lat="48.41768" lon="7.30637">
        <ele>844</ele>
        <time>2020-09-06T08:32:56.356Z</time>
      </trkpt>
      <trkpt lat="48.41768" lon="7.30637">
        <ele>844</ele>
        <time>2020-09-06T08:32:57.356Z</time>
      </trkpt>
      <trkpt lat="48.41767" lon="7.30638">
        <ele>844</ele>
        <time>2020-09-06T08:32:58.356Z</time>
      </trkpt>
      <trkpt lat="48.41766" lon="7.30638">
        <ele>844</ele>
        <time>2020-09-06T08:32:59.356Z</time>
      </trkpt>
      <trkpt lat="48.41766" lon="7.30638">
        <ele>844</ele>
        <time>2020-09-06T08:33:00.356Z</time>
      </trkpt>
      <trkpt lat="48.41766" lon="7.30637">
        <ele>844</ele>
        <time>2020-09-06T08:33:01.355Z</time>
      </trkpt>
      <trkpt lat="48.41765" lon="7.30636">
        <ele>843</ele>
        <time>2020-09-06T08:33:02.355Z</time>
      </trkpt>
      <trkpt lat="48.41765" lon="7.30635">
        <ele>844</ele>
        <time>2020-09-06T08:33:03.356Z</time>
      </trkpt>
      <trkpt lat="48.41764" lon="7.30634">
        <ele>844</ele>
        <time>2020-09-06T08:33:04.356Z</time>
      </trkpt>
      <trkpt lat="48.41763" lon="7.30634">
        <ele>844</ele>
        <time>2020-09-06T08:33:05.355Z</time>
      </trkpt>
      <trkpt lat="48.41762" lon="7.30634">
        <ele>845</ele>
        <time>2020-09-06T08:33:06.356Z</time>
      </trkpt>
      <trkpt lat="48.41762" lon="7.30634">
        <ele>845</ele>
        <time>2020-09-06T08:33:07.355Z</time>
      </trkpt>
      <trkpt lat="48.41762" lon="7.30633">
        <ele>845</ele>
        <time>2020-09-06T08:33:08.355Z</time>
      </trkpt>
      <trkpt lat="48.41761" lon="7.30633">
        <ele>845</ele>
        <time>2020-09-06T08:33:09.356Z</time>
      </trkpt>
      <trkpt lat="48.4176" lon="7.30633">
        <ele>845</ele>
        <time>2020-09-06T08:33:10.356Z</time>
      </trkpt>
      <trkpt lat="48.41759" lon="7.30632">
        <ele>846</ele>
        <time>2020-09-06T08:33:11.356Z</time>
      </trkpt>
      <trkpt lat="48.41759" lon="7.30631">
        <ele>847</ele>
        <time>2020-09-06T08:33:12.356Z</time>
      </trkpt>
      <trkpt lat="48.41758" lon="7.3063">
        <ele>847</ele>
        <time>2020-09-06T08:33:13.356Z</time>
      </trkpt>
      <trkpt lat="48.41758" lon="7.30629">
        <ele>847</ele>
        <time>2020-09-06T08:33:14.356Z</time>
      </trkpt>
      <trkpt lat="48.41757" lon="7.30628">
        <ele>847</ele>
        <time>2020-09-06T08:33:15.355Z</time>
      </trkpt>
      <trkpt lat="48.41755" lon="7.30626">
        <ele>847</ele>
        <time>2020-09-06T08:33:16.355Z</time>
      </trkpt>
      <trkpt lat="48.41753" lon="7.30624">
        <ele>848</ele>
        <time>2020-09-06T08:33:17.356Z</time>
      </trkpt>
      <trkpt lat="48.41753" lon="7.30622">
        <ele>848</ele>
        <time>2020-09-06T08:33:18.356Z</time>
      </trkpt>
      <trkpt lat="48.41752" lon="7.3062">
        <ele>847</ele>
        <time>2020-09-06T08:33:19.356Z</time>
      </trkpt>
      <trkpt lat="48.41751" lon="7.30619">
        <ele>847</ele>
        <time>2020-09-06T08:33:20.355Z</time>
      </trkpt>
      <trkpt lat="48.41751" lon="7.30619">
        <ele>847</ele>
        <time>2020-09-06T08:33:21.356Z</time>
      </trkpt>
      <trkpt lat="48.41752" lon="7.30619">
        <ele>847</ele>
        <time>2020-09-06T08:33:22.356Z</time>
      </trkpt>
      <trkpt lat="48.41752" lon="7.30618">
        <ele>847</ele>
        <time>2020-09-06T08:33:23.356Z</time>
      </trkpt>
      <trkpt lat="48.41752" lon="7.30617">
        <ele>847</ele>
        <time>2020-09-06T08:33:24.356Z</time>
      </trkpt>
      <trkpt lat="48.41752" lon="7.30616">
        <ele>847</ele>
        <time>2020-09-06T08:33:25.356Z</time>
      </trkpt>
      <trkpt lat="48.41752" lon="7.30614">
        <ele>846</ele>
        <time>2020-09-06T08:33:26.356Z</time>
      </trkpt>
      <trkpt lat="48.41752" lon="7.30611">
        <ele>846</ele>
        <time>2020-09-06T08:33:27.356Z</time>
      </trkpt>
      <trkpt lat="48.41753" lon="7.30609">
        <ele>846</ele>
        <time>2020-09-06T08:33:28.355Z</time>
      </trkpt>
      <trkpt lat="48.41753" lon="7.30608">
        <ele>846</ele>
        <time>2020-09-06T08:33:29.356Z</time>
      </trkpt>
      <trkpt lat="48.41753" lon="7.30606">
        <ele>846</ele>
        <time>2020-09-06T08:33:30.356Z</time>
      </trkpt>
      <trkpt lat="48.41754" lon="7.30604">
        <ele>846</ele>
        <time>2020-09-06T08:33:31.356Z</time>
      </trkpt>
      <trkpt lat="48.41755" lon="7.30604">
        <ele>846</ele>
        <time>2020-09-06T08:33:32.355Z</time>
      </trkpt>
      <trkpt lat="48.41755" lon="7.30603">
        <ele>846</ele>
        <time>2020-09-06T08:33:33.356Z</time>
      </trkpt>
      <trkpt lat="48.41756" lon="7.30602">
        <ele>847</ele>
        <time>2020-09-06T08:33:34.355Z</time>
      </trkpt>
      <trkpt lat="48.41756" lon="7.306">
        <ele>847</ele>
        <time>2020-09-06T08:33:35.356Z</time>
      </trkpt>
      <trkpt lat="48.41756" lon="7.30597">
        <ele>847</ele>
        <time>2020-09-06T08:33:36.356Z</time>
      </trkpt>
      <trkpt lat="48.41755" lon="7.30594">
        <ele>847</ele>
        <time>2020-09-06T08:33:37.356Z</time>
      </trkpt>
      <trkpt lat="48.41756" lon="7.30593">
        <ele>847</ele>
        <time>2020-09-06T08:33:38.355Z</time>
      </trkpt>
      <trkpt lat="48.41757" lon="7.30591">
        <ele>848</ele>
        <time>2020-09-06T08:33:39.356Z</time>
      </trkpt>
      <trkpt lat="48.41757" lon="7.3059">
        <ele>848</ele>
        <time>2020-09-06T08:33:40.356Z</time>
      </trkpt>
      <trkpt lat="48.41759" lon="7.30587">
        <ele>848</ele>
        <time>2020-09-06T08:33:41.357Z</time>
      </trkpt>
      <trkpt lat="48.4176" lon="7.30587">
        <ele>849</ele>
        <time>2020-09-06T08:33:42.356Z</time>
      </trkpt>
      <trkpt lat="48.4176" lon="7.30586">
        <ele>849</ele>
        <time>2020-09-06T08:33:43.357Z</time>
      </trkpt>
      <trkpt lat="48.41761" lon="7.30585">
        <ele>850</ele>
        <time>2020-09-06T08:33:44.357Z</time>
      </trkpt>
      <trkpt lat="48.41761" lon="7.30585">
        <ele>850</ele>
        <time>2020-09-06T08:33:45.357Z</time>
      </trkpt>
      <trkpt lat="48.41761" lon="7.30584">
        <ele>850</ele>
        <time>2020-09-06T08:33:46.356Z</time>
      </trkpt>
      <trkpt lat="48.41761" lon="7.30584">
        <ele>850</ele>
        <time>2020-09-06T08:33:47.357Z</time>
      </trkpt>
      <trkpt lat="48.41762" lon="7.30583">
        <ele>849</ele>
        <time>2020-09-06T08:33:48.356Z</time>
      </trkpt>
      <trkpt lat="48.41762" lon="7.30582">
        <ele>849</ele>
        <time>2020-09-06T08:33:49.357Z</time>
      </trkpt>
      <trkpt lat="48.41763" lon="7.3058">
        <ele>849</ele>
        <time>2020-09-06T08:33:50.357Z</time>
      </trkpt>
      <trkpt lat="48.41764" lon="7.30577">
        <ele>849</ele>
        <time>2020-09-06T08:33:51.357Z</time>
      </trkpt>
      <trkpt lat="48.41765" lon="7.30575">
        <ele>849</ele>
        <time>2020-09-06T08:33:52.357Z</time>
      </trkpt>
      <trkpt lat="48.41765" lon="7.30573">
        <ele>849</ele>
        <time>2020-09-06T08:33:53.357Z</time>
      </trkpt>
      <trkpt lat="48.41766" lon="7.30572">
        <ele>849</ele>
        <time>2020-09-06T08:33:54.357Z</time>
      </trkpt>
      <trkpt lat="48.41767" lon="7.30571">
        <ele>849</ele>
        <time>2020-09-06T08:33:55.357Z</time>
      </trkpt>
      <trkpt lat="48.41768" lon="7.30571">
        <ele>849</ele>
        <time>2020-09-06T08:33:56.357Z</time>
      </trkpt>
      <trkpt lat="48.41768" lon="7.3057">
        <ele>850</ele>
        <time>2020-09-06T08:33:57.357Z</time>
      </trkpt>
      <trkpt lat="48.41768" lon="7.30569">
        <ele>850</ele>
        <time>2020-09-06T08:33:58.356Z</time>
      </trkpt>
      <trkpt lat="48.41769" lon="7.30568">
        <ele>850</ele>
        <time>2020-09-06T08:33:59.356Z</time>
      </trkpt>
      <trkpt lat="48.4177" lon="7.30567">
        <ele>850</ele>
        <time>2020-09-06T08:34:00.356Z</time>
      </trkpt>
      <trkpt lat="48.4177" lon="7.30566">
        <ele>851</ele>
        <time>2020-09-06T08:34:01.356Z</time>
      </trkpt>
      <trkpt lat="48.41771" lon="7.30565">
        <ele>852</ele>
        <time>2020-09-06T08:34:02.356Z</time>
      </trkpt>
      <trkpt lat="48.41771" lon="7.30564">
        <ele>852</ele>
        <time>2020-09-06T08:34:03.357Z</time>
      </trkpt>
      <trkpt lat="48.41771" lon="7.30563">
        <ele>853</ele>
        <time>2020-09-06T08:34:04.356Z</time>
      </trkpt>
      <trkpt lat="48.41771" lon="7.30563">
        <ele>853</ele>
        <time>2020-09-06T08:34:05.357Z</time>
      </trkpt>
      <trkpt lat="48.41771" lon="7.30562">
        <ele>854</ele>
        <time>2020-09-06T08:34:06.357Z</time>
      </trkpt>
      <trkpt lat="48.41771" lon="7.30561">
        <ele>854</ele>
        <time>2020-09-06T08:34:07.357Z</time>
      </trkpt>
      <trkpt lat="48.4177" lon="7.30561">
        <ele>854</ele>
        <time>2020-09-06T08:34:08.357Z</time>
      </trkpt>
      <trkpt lat="48.41769" lon="7.3056">
        <ele>854</ele>
        <time>2020-09-06T08:34:09.356Z</time>
      </trkpt>
      <trkpt lat="48.41769" lon="7.30559">
        <ele>855</ele>
        <time>2020-09-06T08:34:10.357Z</time>
      </trkpt>
      <trkpt lat="48.41769" lon="7.30557">
        <ele>855</ele>
        <time>2020-09-06T08:34:11.357Z</time>
      </trkpt>
      <trkpt lat="48.41768" lon="7.30555">
        <ele>856</ele>
        <time>2020-09-06T08:34:12.357Z</time>
      </trkpt>
      <trkpt lat="48.41768" lon="7.30553">
        <ele>856</ele>
        <time>2020-09-06T08:34:13.357Z</time>
      </trkpt>
      <trkpt lat="48.41767" lon="7.30552">
        <ele>856</ele>
        <time>2020-09-06T08:34:14.357Z</time>
      </trkpt>
      <trkpt lat="48.41767" lon="7.30551">
        <ele>856</ele>
        <time>2020-09-06T08:34:15.356Z</time>
      </trkpt>
      <trkpt lat="48.41767" lon="7.3055">
        <ele>856</ele>
        <time>2020-09-06T08:34:16.357Z</time>
      </trkpt>
      <trkpt lat="48.41767" lon="7.3055">
        <ele>856</ele>
        <time>2020-09-06T08:34:17.357Z</time>
      </trkpt>
      <trkpt lat="48.41765" lon="7.30549">
        <ele>856</ele>
        <time>2020-09-06T08:34:18.356Z</time>
      </trkpt>
      <trkpt lat="48.41764" lon="7.30549">
        <ele>857</ele>
        <time>2020-09-06T08:34:19.357Z</time>
      </trkpt>
      <trkpt lat="48.41763" lon="7.30548">
        <ele>857</ele>
        <time>2020-09-06T08:34:20.357Z</time>
      </trkpt>
      <trkpt lat="48.41762" lon="7.30547">
        <ele>858</ele>
        <time>2020-09-06T08:34:21.357Z</time>
      </trkpt>
      <trkpt lat="48.41761" lon="7.30546">
        <ele>858</ele>
        <time>2020-09-06T08:34:22.357Z</time>
      </trkpt>
      <trkpt lat="48.4176" lon="7.30545">
        <ele>859</ele>
        <time>2020-09-06T08:34:23.357Z</time>
      </trkpt>
      <trkpt lat="48.4176" lon="7.30544">
        <ele>859</ele>
        <time>2020-09-06T08:34:24.357Z</time>
      </trkpt>
      <trkpt lat="48.41759" lon="7.30543">
        <ele>859</ele>
        <time>2020-09-06T08:34:25.356Z</time>
      </trkpt>
      <trkpt lat="48.41757" lon="7.30541">
        <ele>860</ele>
        <time>2020-09-06T08:34:26.357Z</time>
      </trkpt>
      <trkpt lat="48.41756" lon="7.30541">
        <ele>860</ele>
        <time>2020-09-06T08:34:27.356Z</time>
      </trkpt>
      <trkpt lat="48.41756" lon="7.3054">
        <ele>860</ele>
        <time>2020-09-06T08:34:28.357Z</time>
      </trkpt>
      <trkpt lat="48.41755" lon="7.3054">
        <ele>860</ele>
        <time>2020-09-06T08:34:29.356Z</time>
      </trkpt>
      <trkpt lat="48.41755" lon="7.30539">
        <ele>860</ele>
        <time>2020-09-06T08:34:30.357Z</time>
      </trkpt>
      <trkpt lat="48.41754" lon="7.30538">
        <ele>859</ele>
        <time>2020-09-06T08:34:31.357Z</time>
      </trkpt>
      <trkpt lat="48.41754" lon="7.30536">
        <ele>860</ele>
        <time>2020-09-06T08:34:32.356Z</time>
      </trkpt>
      <trkpt lat="48.41753" lon="7.30535">
        <ele>860</ele>
        <time>2020-09-06T08:34:33.356Z</time>
      </trkpt>
      <trkpt lat="48.41753" lon="7.30534">
        <ele>860</ele>
        <time>2020-09-06T08:34:34.357Z</time>
      </trkpt>
      <trkpt lat="48.41752" lon="7.30533">
        <ele>860</ele>
        <time>2020-09-06T08:34:35.357Z</time>
      </trkpt>
      <trkpt lat="48.41752" lon="7.30531">
        <ele>860</ele>
        <time>2020-09-06T08:34:36.357Z</time>
      </trkpt>
      <trkpt lat="48.41752" lon="7.3053">
        <ele>859</ele>
        <time>2020-09-06T08:34:37.356Z</time>
      </trkpt>
      <trkpt lat="48.41751" lon="7.30529">
        <ele>859</ele>
        <time>2020-09-06T08:34:38.357Z</time>
      </trkpt>
      <trkpt lat="48.41751" lon="7.30528">
        <ele>859</ele>
        <time>2020-09-06T08:34:39.356Z</time>
      </trkpt>
      <trkpt lat="48.41751" lon="7.30528">
        <ele>859</ele>
        <time>2020-09-06T08:34:40.357Z</time>
      </trkpt>
      <trkpt lat="48.4175" lon="7.30527">
        <ele>859</ele>
        <time>2020-09-06T08:34:41.356Z</time>
      </trkpt>
      <trkpt lat="48.41749" lon="7.30526">
        <ele>859</ele>
        <time>2020-09-06T08:34:42.357Z</time>
      </trkpt>
      <trkpt lat="48.41749" lon="7.30525">
        <ele>859</ele>
        <time>2020-09-06T08:34:43.356Z</time>
      </trkpt>
      <trkpt lat="48.41749" lon="7.30524">
        <ele>859</ele>
        <time>2020-09-06T08:34:44.356Z</time>
      </trkpt>
      <trkpt lat="48.41748" lon="7.30522">
        <ele>859</ele>
        <time>2020-09-06T08:34:45.357Z</time>
      </trkpt>
      <trkpt lat="48.41747" lon="7.30521">
        <ele>858</ele>
        <time>2020-09-06T08:34:46.356Z</time>
      </trkpt>
      <trkpt lat="48.41747" lon="7.3052">
        <ele>858</ele>
        <time>2020-09-06T08:34:47.356Z</time>
      </trkpt>
      <trkpt lat="48.41746" lon="7.30519">
        <ele>858</ele>
        <time>2020-09-06T08:34:48.356Z</time>
      </trkpt>
      <trkpt lat="48.41745" lon="7.30519">
        <ele>857</ele>
        <time>2020-09-06T08:34:49.357Z</time>
      </trkpt>
      <trkpt lat="48.41744" lon="7.30518">
        <ele>857</ele>
        <time>2020-09-06T08:34:50.357Z</time>
      </trkpt>
      <trkpt lat="48.41744" lon="7.30516">
        <ele>856</ele>
        <time>2020-09-06T08:34:51.356Z</time>
      </trkpt>
      <trkpt lat="48.41743" lon="7.30514">
        <ele>857</ele>
        <time>2020-09-06T08:34:52.357Z</time>
      </trkpt>
      <trkpt lat="48.41742" lon="7.30511">
        <ele>857</ele>
        <time>2020-09-06T08:34:53.356Z</time>
      </trkpt>
      <trkpt lat="48.41741" lon="7.30507">
        <ele>857</ele>
        <time>2020-09-06T08:34:54.357Z</time>
      </trkpt>
      <trkpt lat="48.41741" lon="7.30505">
        <ele>857</ele>
        <time>2020-09-06T08:34:55.356Z</time>
      </trkpt>
      <trkpt lat="48.4174" lon="7.30503">
        <ele>857</ele>
        <time>2020-09-06T08:34:56.356Z</time>
      </trkpt>
      <trkpt lat="48.4174" lon="7.30501">
        <ele>857</ele>
        <time>2020-09-06T08:34:57.357Z</time>
      </trkpt>
      <trkpt lat="48.41739" lon="7.305">
        <ele>857</ele>
        <time>2020-09-06T08:34:58.357Z</time>
      </trkpt>
      <trkpt lat="48.41738" lon="7.30498">
        <ele>856</ele>
        <time>2020-09-06T08:34:59.356Z</time>
      </trkpt>
      <trkpt lat="48.41738" lon="7.30496">
        <ele>856</ele>
        <time>2020-09-06T08:35:00.356Z</time>
      </trkpt>
      <trkpt lat="48.41738" lon="7.30494">
        <ele>856</ele>
        <time>2020-09-06T08:35:01.356Z</time>
      </trkpt>
      <trkpt lat="48.41738" lon="7.30493">
        <ele>856</ele>
        <time>2020-09-06T08:35:02.356Z</time>
      </trkpt>
      <trkpt lat="48.41737" lon="7.30491">
        <ele>856</ele>
        <time>2020-09-06T08:35:03.357Z</time>
      </trkpt>
      <trkpt lat="48.41737" lon="7.30489">
        <ele>855</ele>
        <time>2020-09-06T08:35:04.356Z</time>
      </trkpt>
      <trkpt lat="48.41737" lon="7.30488">
        <ele>855</ele>
        <time>2020-09-06T08:35:05.356Z</time>
      </trkpt>
      <trkpt lat="48.41736" lon="7.30486">
        <ele>855</ele>
        <time>2020-09-06T08:35:06.357Z</time>
      </trkpt>
      <trkpt lat="48.41736" lon="7.30485">
        <ele>855</ele>
        <time>2020-09-06T08:35:07.356Z</time>
      </trkpt>
      <trkpt lat="48.41737" lon="7.30484">
        <ele>854</ele>
        <time>2020-09-06T08:35:08.357Z</time>
      </trkpt>
      <trkpt lat="48.41737" lon="7.30484">
        <ele>855</ele>
        <time>2020-09-06T08:35:09.357Z</time>
      </trkpt>
      <trkpt lat="48.41737" lon="7.30483">
        <ele>855</ele>
        <time>2020-09-06T08:35:10.357Z</time>
      </trkpt>
      <trkpt lat="48.41736" lon="7.30482">
        <ele>855</ele>
        <time>2020-09-06T08:35:11.356Z</time>
      </trkpt>
      <trkpt lat="48.41736" lon="7.30481">
        <ele>855</ele>
        <time>2020-09-06T08:35:12.357Z</time>
      </trkpt>
      <trkpt lat="48.41735" lon="7.30481">
        <ele>856</ele>
        <time>2020-09-06T08:35:13.356Z</time>
      </trkpt>
      <trkpt lat="48.41735" lon="7.3048">
        <ele>856</ele>
        <time>2020-09-06T08:35:14.357Z</time>
      </trkpt>
      <trkpt lat="48.41734" lon="7.30478">
        <ele>856</ele>
        <time>2020-09-06T08:35:15.357Z</time>
      </trkpt>
      <trkpt lat="48.41733" lon="7.30475">
        <ele>856</ele>
        <time>2020-09-06T08:35:16.356Z</time>
      </trkpt>
      <trkpt lat="48.41733" lon="7.30473">
        <ele>857</ele>
        <time>2020-09-06T08:35:17.356Z</time>
      </trkpt>
      <trkpt lat="48.41732" lon="7.3047">
        <ele>857</ele>
        <time>2020-09-06T08:35:18.356Z</time>
      </trkpt>
      <trkpt lat="48.41732" lon="7.30468">
        <ele>857</ele>
        <time>2020-09-06T08:35:19.357Z</time>
      </trkpt>
      <trkpt lat="48.41732" lon="7.30466">
        <ele>857</ele>
        <time>2020-09-06T08:35:20.356Z</time>
      </trkpt>
      <trkpt lat="48.41732" lon="7.30465">
        <ele>857</ele>
        <time>2020-09-06T08:35:21.357Z</time>
      </trkpt>
      <trkpt lat="48.41731" lon="7.30463">
        <ele>857</ele>
        <time>2020-09-06T08:35:22.357Z</time>
      </trkpt>
      <trkpt lat="48.41731" lon="7.30461">
        <ele>857</ele>
        <time>2020-09-06T08:35:23.356Z</time>
      </trkpt>
      <trkpt lat="48.4173" lon="7.30461">
        <ele>857</ele>
        <time>2020-09-06T08:35:24.357Z</time>
      </trkpt>
      <trkpt lat="48.41729" lon="7.30459">
        <ele>858</ele>
        <time>2020-09-06T08:35:25.357Z</time>
      </trkpt>
      <trkpt lat="48.41729" lon="7.30458">
        <ele>858</ele>
        <time>2020-09-06T08:35:26.356Z</time>
      </trkpt>
      <trkpt lat="48.41728" lon="7.30456">
        <ele>858</ele>
        <time>2020-09-06T08:35:27.357Z</time>
      </trkpt>
      <trkpt lat="48.41728" lon="7.30455">
        <ele>858</ele>
        <time>2020-09-06T08:35:28.357Z</time>
      </trkpt>
      <trkpt lat="48.41727" lon="7.30454">
        <ele>858</ele>
        <time>2020-09-06T08:35:29.357Z</time>
      </trkpt>
      <trkpt lat="48.41727" lon="7.30452">
        <ele>858</ele>
        <time>2020-09-06T08:35:30.357Z</time>
      </trkpt>
      <trkpt lat="48.41727" lon="7.30451">
        <ele>858</ele>
        <time>2020-09-06T08:35:31.357Z</time>
      </trkpt>
      <trkpt lat="48.41726" lon="7.30449">
        <ele>858</ele>
        <time>2020-09-06T08:35:32.357Z</time>
      </trkpt>
      <trkpt lat="48.41726" lon="7.30448">
        <ele>858</ele>
        <time>2020-09-06T08:35:33.356Z</time>
      </trkpt>
      <trkpt lat="48.41725" lon="7.30447">
        <ele>858</ele>
        <time>2020-09-06T08:35:34.356Z</time>
      </trkpt>
      <trkpt lat="48.41725" lon="7.30445">
        <ele>858</ele>
        <time>2020-09-06T08:35:35.357Z</time>
      </trkpt>
      <trkpt lat="48.41724" lon="7.30443">
        <ele>858</ele>
        <time>2020-09-06T08:35:36.356Z</time>
      </trkpt>
      <trkpt lat="48.41724" lon="7.30441">
        <ele>858</ele>
        <time>2020-09-06T08:35:37.356Z</time>
      </trkpt>
      <trkpt lat="48.41723" lon="7.30438">
        <ele>858</ele>
        <time>2020-09-06T08:35:38.356Z</time>
      </trkpt>
      <trkpt lat="48.41723" lon="7.30437">
        <ele>859</ele>
        <time>2020-09-06T08:35:39.357Z</time>
      </trkpt>
      <trkpt lat="48.41722" lon="7.30436">
        <ele>859</ele>
        <time>2020-09-06T08:35:40.356Z</time>
      </trkpt>
      <trkpt lat="48.41722" lon="7.30434">
        <ele>858</ele>
        <time>2020-09-06T08:35:41.357Z</time>
      </trkpt>
      <trkpt lat="48.41722" lon="7.30433">
        <ele>858</ele>
        <time>2020-09-06T08:35:42.356Z</time>
      </trkpt>
      <trkpt lat="48.41723" lon="7.30431">
        <ele>858</ele>
        <time>2020-09-06T08:35:43.356Z</time>
      </trkpt>
      <trkpt lat="48.41723" lon="7.30429">
        <ele>858</ele>
        <time>2020-09-06T08:35:44.356Z</time>
      </trkpt>
      <trkpt lat="48.41723" lon="7.30429">
        <ele>857</ele>
        <time>2020-09-06T08:35:45.357Z</time>
      </trkpt>
      <trkpt lat="48.41724" lon="7.30427">
        <ele>857</ele>
        <time>2020-09-06T08:35:46.356Z</time>
      </trkpt>
      <trkpt lat="48.41725" lon="7.30426">
        <ele>857</ele>
        <time>2020-09-06T08:35:47.356Z</time>
      </trkpt>
      <trkpt lat="48.41725" lon="7.30425">
        <ele>857</ele>
        <time>2020-09-06T08:35:48.356Z</time>
      </trkpt>
      <trkpt lat="48.41726" lon="7.30423">
        <ele>857</ele>
        <time>2020-09-06T08:35:49.356Z</time>
      </trkpt>
      <trkpt lat="48.41727" lon="7.30422">
        <ele>857</ele>
        <time>2020-09-06T08:35:50.356Z</time>
      </trkpt>
      <trkpt lat="48.41728" lon="7.30422">
        <ele>857</ele>
        <time>2020-09-06T08:35:51.356Z</time>
      </trkpt>
      <trkpt lat="48.41729" lon="7.30419">
        <ele>857</ele>
        <time>2020-09-06T08:35:52.357Z</time>
      </trkpt>
      <trkpt lat="48.41729" lon="7.30418">
        <ele>858</ele>
        <time>2020-09-06T08:35:53.356Z</time>
      </trkpt>
      <trkpt lat="48.4173" lon="7.30416">
        <ele>858</ele>
        <time>2020-09-06T08:35:54.356Z</time>
      </trkpt>
      <trkpt lat="48.41729" lon="7.30414">
        <ele>858</ele>
        <time>2020-09-06T08:35:55.356Z</time>
      </trkpt>
      <trkpt lat="48.41727" lon="7.30409">
        <ele>858</ele>
        <time>2020-09-06T08:35:56.357Z</time>
      </trkpt>
      <trkpt lat="48.41727" lon="7.30407">
        <ele>859</ele>
        <time>2020-09-06T08:35:57.357Z</time>
      </trkpt>
      <trkpt lat="48.41726" lon="7.30406">
        <ele>859</ele>
        <time>2020-09-06T08:35:58.357Z</time>
      </trkpt>
      <trkpt lat="48.41726" lon="7.30404">
        <ele>859</ele>
        <time>2020-09-06T08:35:59.358Z</time>
      </trkpt>
      <trkpt lat="48.41726" lon="7.30403">
        <ele>859</ele>
        <time>2020-09-06T08:36:00.357Z</time>
      </trkpt>
      <trkpt lat="48.41726" lon="7.30402">
        <ele>860</ele>
        <time>2020-09-06T08:36:01.358Z</time>
      </trkpt>
      <trkpt lat="48.41725" lon="7.30401">
        <ele>860</ele>
        <time>2020-09-06T08:36:02.358Z</time>
      </trkpt>
      <trkpt lat="48.41725" lon="7.304">
        <ele>861</ele>
        <time>2020-09-06T08:36:03.357Z</time>
      </trkpt>
      <trkpt lat="48.41725" lon="7.304">
        <ele>861</ele>
        <time>2020-09-06T08:36:04.358Z</time>
      </trkpt>
      <trkpt lat="48.41725" lon="7.30399">
        <ele>861</ele>
        <time>2020-09-06T08:36:05.357Z</time>
      </trkpt>
      <trkpt lat="48.41725" lon="7.30398">
        <ele>860</ele>
        <time>2020-09-06T08:36:06.357Z</time>
      </trkpt>
      <trkpt lat="48.41724" lon="7.30398">
        <ele>860</ele>
        <time>2020-09-06T08:36:07.357Z</time>
      </trkpt>
      <trkpt lat="48.41724" lon="7.30397">
        <ele>860</ele>
        <time>2020-09-06T08:36:08.357Z</time>
      </trkpt>
      <trkpt lat="48.41723" lon="7.30396">
        <ele>860</ele>
        <time>2020-09-06T08:36:09.358Z</time>
      </trkpt>
      <trkpt lat="48.41723" lon="7.30395">
        <ele>860</ele>
        <time>2020-09-06T08:36:10.357Z</time>
      </trkpt>
      <trkpt lat="48.41723" lon="7.30392">
        <ele>859</ele>
        <time>2020-09-06T08:36:11.359Z</time>
      </trkpt>
      <trkpt lat="48.41724" lon="7.30391">
        <ele>859</ele>
        <time>2020-09-06T08:36:12.358Z</time>
      </trkpt>
      <trkpt lat="48.41724" lon="7.3039">
        <ele>859</ele>
        <time>2020-09-06T08:36:13.359Z</time>
      </trkpt>
      <trkpt lat="48.41725" lon="7.3039">
        <ele>859</ele>
        <time>2020-09-06T08:36:14.358Z</time>
      </trkpt>
      <trkpt lat="48.41725" lon="7.30389">
        <ele>859</ele>
        <time>2020-09-06T08:36:15.359Z</time>
      </trkpt>
      <trkpt lat="48.41725" lon="7.30389">
        <ele>859</ele>
        <time>2020-09-06T08:36:16.358Z</time>
      </trkpt>
      <trkpt lat="48.41725" lon="7.30389">
        <ele>859</ele>
        <time>2020-09-06T08:36:17.359Z</time>
      </trkpt>
      <trkpt lat="48.41723" lon="7.30387">
        <ele>860</ele>
        <time>2020-09-06T08:36:18.358Z</time>
      </trkpt>
      <trkpt lat="48.41722" lon="7.30386">
        <ele>861</ele>
        <time>2020-09-06T08:36:19.358Z</time>
      </trkpt>
      <trkpt lat="48.41721" lon="7.30385">
        <ele>861</ele>
        <time>2020-09-06T08:36:20.358Z</time>
      </trkpt>
      <trkpt lat="48.41721" lon="7.30382">
        <ele>861</ele>
        <time>2020-09-06T08:36:21.358Z</time>
      </trkpt>
      <trkpt lat="48.4172" lon="7.30381">
        <ele>862</ele>
        <time>2020-09-06T08:36:22.358Z</time>
      </trkpt>
      <trkpt lat="48.41719" lon="7.30378">
        <ele>862</ele>
        <time>2020-09-06T08:36:23.358Z</time>
      </trkpt>
      <trkpt lat="48.41718" lon="7.30375">
        <ele>863</ele>
        <time>2020-09-06T08:36:24.358Z</time>
      </trkpt>
      <trkpt lat="48.41717" lon="7.30374">
        <ele>864</ele>
        <time>2020-09-06T08:36:25.358Z</time>
      </trkpt>
      <trkpt lat="48.41716" lon="7.30373">
        <ele>864</ele>
        <time>2020-09-06T08:36:26.358Z</time>
      </trkpt>
      <trkpt lat="48.41716" lon="7.30373">
        <ele>864</ele>
        <time>2020-09-06T08:36:27.358Z</time>
      </trkpt>
      <trkpt lat="48.41716" lon="7.30373">
        <ele>864</ele>
        <time>2020-09-06T08:36:28.358Z</time>
      </trkpt>
      <trkpt lat="48.41714" lon="7.30374">
        <ele>865</ele>
        <time>2020-09-06T08:36:29.360Z</time>
      </trkpt>
      <trkpt lat="48.41713" lon="7.30376">
        <ele>865</ele>
        <time>2020-09-06T08:36:30.360Z</time>
      </trkpt>
      <trkpt lat="48.41711" lon="7.30377">
        <ele>866</ele>
        <time>2020-09-06T08:36:31.359Z</time>
      </trkpt>
      <trkpt lat="48.4171" lon="7.30379">
        <ele>866</ele>
        <time>2020-09-06T08:36:32.360Z</time>
      </trkpt>
      <trkpt lat="48.41709" lon="7.3038">
        <ele>866</ele>
        <time>2020-09-06T08:36:33.360Z</time>
      </trkpt>
      <trkpt lat="48.41708" lon="7.30382">
        <ele>866</ele>
        <time>2020-09-06T08:36:34.359Z</time>
      </trkpt>
      <trkpt lat="48.41707" lon="7.30383">
        <ele>866</ele>
        <time>2020-09-06T08:36:35.360Z</time>
      </trkpt>
      <trkpt lat="48.41708" lon="7.30382">
        <ele>866</ele>
        <time>2020-09-06T08:36:36.359Z</time>
      </trkpt>
      <trkpt lat="48.41709" lon="7.3038">
        <ele>866</ele>
        <time>2020-09-06T08:36:37.360Z</time>
      </trkpt>
      <trkpt lat="48.4171" lon="7.30379">
        <ele>866</ele>
        <time>2020-09-06T08:36:38.359Z</time>
      </trkpt>
      <trkpt lat="48.4171" lon="7.30378">
        <ele>866</ele>
        <time>2020-09-06T08:36:39.359Z</time>
      </trkpt>
      <trkpt lat="48.41709" lon="7.30377">
        <ele>866</ele>
        <time>2020-09-06T08:36:40.360Z</time>
      </trkpt>
      <trkpt lat="48.41709" lon="7.30376">
        <ele>866</ele>
        <time>2020-09-06T08:36:41.360Z</time>
      </trkpt>
      <trkpt lat="48.41708" lon="7.30375">
        <ele>866</ele>
        <time>2020-09-06T08:36:42.359Z</time>
      </trkpt>
      <trkpt lat="48.41707" lon="7.30374">
        <ele>866</ele>
        <time>2020-09-06T08:36:43.360Z</time>
      </trkpt>
      <trkpt lat="48.41705" lon="7.30374">
        <ele>866</ele>
        <time>2020-09-06T08:36:44.359Z</time>
      </trkpt>
      <trkpt lat="48.41704" lon="7.30374">
        <ele>866</ele>
        <time>2020-09-06T08:36:45.360Z</time>
      </trkpt>
      <trkpt lat="48.41703" lon="7.30375">
        <ele>865</ele>
        <time>2020-09-06T08:36:46.359Z</time>
      </trkpt>
      <trkpt lat="48.41704" lon="7.30376">
        <ele>865</ele>
        <time>2020-09-06T08:36:47.360Z</time>
      </trkpt>
      <trkpt lat="48.41704" lon="7.30376">
        <ele>864</ele>
        <time>2020-09-06T08:36:48.360Z</time>
      </trkpt>
      <trkpt lat="48.41705" lon="7.30377">
        <ele>864</ele>
        <time>2020-09-06T08:36:49.360Z</time>
      </trkpt>
      <trkpt lat="48.41707" lon="7.30377">
        <ele>864</ele>
        <time>2020-09-06T08:36:50.360Z</time>
      </trkpt>
      <trkpt lat="48.41707" lon="7.30377">
        <ele>863</ele>
        <time>2020-09-06T08:36:51.359Z</time>
      </trkpt>
      <trkpt lat="48.41708" lon="7.30377">
        <ele>863</ele>
        <time>2020-09-06T08:36:52.359Z</time>
      </trkpt>
      <trkpt lat="48.41708" lon="7.30376">
        <ele>863</ele>
        <time>2020-09-06T08:36:53.360Z</time>
      </trkpt>
      <trkpt lat="48.41709" lon="7.30375">
        <ele>862</ele>
        <time>2020-09-06T08:36:54.359Z</time>
      </trkpt>
      <trkpt lat="48.41711" lon="7.30375">
        <ele>862</ele>
        <time>2020-09-06T08:36:55.359Z</time>
      </trkpt>
      <trkpt lat="48.41712" lon="7.30375">
        <ele>862</ele>
        <time>2020-09-06T08:36:56.359Z</time>
      </trkpt>
      <trkpt lat="48.41712" lon="7.30375">
        <ele>862</ele>
        <time>2020-09-06T08:36:57.360Z</time>
      </trkpt>
      <trkpt lat="48.41712" lon="7.30375">
        <ele>861</ele>
        <time>2020-09-06T08:36:58.360Z</time>
      </trkpt>
      <trkpt lat="48.41712" lon="7.30375">
        <ele>861</ele>
        <time>2020-09-06T08:36:59.359Z</time>
      </trkpt>
      <trkpt lat="48.41712" lon="7.30375">
        <ele>861</ele>
        <time>2020-09-06T08:37:00.360Z</time>
      </trkpt>
      <trkpt lat="48.41712" lon="7.30374">
        <ele>860</ele>
        <time>2020-09-06T08:37:01.360Z</time>
      </trkpt>
      <trkpt lat="48.41712" lon="7.30373">
        <ele>860</ele>
        <time>2020-09-06T08:37:02.360Z</time>
      </trkpt>
      <trkpt lat="48.41712" lon="7.30373">
        <ele>860</ele>
        <time>2020-09-06T08:37:03.360Z</time>
      </trkpt>
      <trkpt lat="48.41712" lon="7.30372">
        <ele>859</ele>
        <time>2020-09-06T08:37:04.360Z</time>
      </trkpt>
      <trkpt lat="48.41712" lon="7.30371">
        <ele>859</ele>
        <time>2020-09-06T08:37:05.360Z</time>
      </trkpt>
      <trkpt lat="48.41712" lon="7.3037">
        <ele>859</ele>
        <time>2020-09-06T08:37:06.360Z</time>
      </trkpt>
      <trkpt lat="48.41712" lon="7.3037">
        <ele>859</ele>
        <time>2020-09-06T08:37:07.360Z</time>
      </trkpt>
      <trkpt lat="48.41712" lon="7.3037">
        <ele>859</ele>
        <time>2020-09-06T08:37:08.359Z</time>
      </trkpt>
      <trkpt lat="48.41712" lon="7.30364">
        <ele>854</ele>
        <time>2020-09-06T08:37:09.360Z</time>
      </trkpt>
      <trkpt lat="48.41711" lon="7.30362">
        <ele>854</ele>
        <time>2020-09-06T08:37:10.360Z</time>
      </trkpt>
      <trkpt lat="48.4171" lon="7.30361">
        <ele>855</ele>
        <time>2020-09-06T08:37:11.359Z</time>
      </trkpt>
      <trkpt lat="48.41709" lon="7.3036">
        <ele>855</ele>
        <time>2020-09-06T08:37:12.360Z</time>
      </trkpt>
      <trkpt lat="48.41708" lon="7.30359">
        <ele>856</ele>
        <time>2020-09-06T08:37:13.359Z</time>
      </trkpt>
      <trkpt lat="48.41706" lon="7.30358">
        <ele>856</ele>
        <time>2020-09-06T08:37:14.359Z</time>
      </trkpt>
      <trkpt lat="48.41705" lon="7.30357">
        <ele>857</ele>
        <time>2020-09-06T08:37:15.360Z</time>
      </trkpt>
      <trkpt lat="48.41704" lon="7.30356">
        <ele>858</ele>
        <time>2020-09-06T08:37:16.360Z</time>
      </trkpt>
      <trkpt lat="48.41703" lon="7.30355">
        <ele>859</ele>
        <time>2020-09-06T08:37:17.359Z</time>
      </trkpt>
      <trkpt lat="48.41703" lon="7.30353">
        <ele>860</ele>
        <time>2020-09-06T08:37:18.359Z</time>
      </trkpt>
      <trkpt lat="48.41702" lon="7.30352">
        <ele>860</ele>
        <time>2020-09-06T08:37:19.360Z</time>
      </trkpt>
      <trkpt lat="48.41701" lon="7.30351">
        <ele>861</ele>
        <time>2020-09-06T08:37:20.360Z</time>
      </trkpt>
      <trkpt lat="48.417" lon="7.30349">
        <ele>862</ele>
        <time>2020-09-06T08:37:21.360Z</time>
      </trkpt>
      <trkpt lat="48.417" lon="7.30347">
        <ele>862</ele>
        <time>2020-09-06T08:37:22.359Z</time>
      </trkpt>
      <trkpt lat="48.41699" lon="7.30346">
        <ele>863</ele>
        <time>2020-09-06T08:37:23.360Z</time>
      </trkpt>
      <trkpt lat="48.41698" lon="7.30344">
        <ele>863</ele>
        <time>2020-09-06T08:37:24.359Z</time>
      </trkpt>
      <trkpt lat="48.41697" lon="7.30342">
        <ele>863</ele>
        <time>2020-09-06T08:37:25.360Z</time>
      </trkpt>
      <trkpt lat="48.41696" lon="7.3034">
        <ele>863</ele>
        <time>2020-09-06T08:37:26.359Z</time>
      </trkpt>
      <trkpt lat="48.41695" lon="7.30339">
        <ele>863</ele>
        <time>2020-09-06T08:37:27.360Z</time>
      </trkpt>
      <trkpt lat="48.41694" lon="7.30338">
        <ele>863</ele>
        <time>2020-09-06T08:37:28.359Z</time>
      </trkpt>
      <trkpt lat="48.41694" lon="7.30336">
        <ele>864</ele>
        <time>2020-09-06T08:37:29.360Z</time>
      </trkpt>
      <trkpt lat="48.41693" lon="7.30333">
        <ele>864</ele>
        <time>2020-09-06T08:37:30.360Z</time>
      </trkpt>
      <trkpt lat="48.41693" lon="7.3033">
        <ele>864</ele>
        <time>2020-09-06T08:37:31.360Z</time>
      </trkpt>
      <trkpt lat="48.41693" lon="7.30329">
        <ele>865</ele>
        <time>2020-09-06T08:37:32.360Z</time>
      </trkpt>
      <trkpt lat="48.41693" lon="7.30328">
        <ele>865</ele>
        <time>2020-09-06T08:37:33.360Z</time>
      </trkpt>
      <trkpt lat="48.41693" lon="7.30327">
        <ele>865</ele>
        <time>2020-09-06T08:37:34.360Z</time>
      </trkpt>
      <trkpt lat="48.41693" lon="7.30327">
        <ele>866</ele>
        <time>2020-09-06T08:37:35.359Z</time>
      </trkpt>
      <trkpt lat="48.41692" lon="7.30325">
        <ele>866</ele>
        <time>2020-09-06T08:37:36.360Z</time>
      </trkpt>
      <trkpt lat="48.4169" lon="7.30323">
        <ele>867</ele>
        <time>2020-09-06T08:37:37.360Z</time>
      </trkpt>
      <trkpt lat="48.4169" lon="7.30323">
        <ele>867</ele>
        <time>2020-09-06T08:37:38.360Z</time>
      </trkpt>
      <trkpt lat="48.41689" lon="7.30323">
        <ele>868</ele>
        <time>2020-09-06T08:37:39.359Z</time>
      </trkpt>
      <trkpt lat="48.41688" lon="7.30322">
        <ele>868</ele>
        <time>2020-09-06T08:37:40.360Z</time>
      </trkpt>
      <trkpt lat="48.41688" lon="7.30321">
        <ele>869</ele>
        <time>2020-09-06T08:37:41.360Z</time>
      </trkpt>
      <trkpt lat="48.41687" lon="7.3032">
        <ele>869</ele>
        <time>2020-09-06T08:37:42.360Z</time>
      </trkpt>
      <trkpt lat="48.41685" lon="7.30319">
        <ele>869</ele>
        <time>2020-09-06T08:37:43.360Z</time>
      </trkpt>
      <trkpt lat="48.41684" lon="7.30318">
        <ele>869</ele>
        <time>2020-09-06T08:37:44.360Z</time>
      </trkpt>
      <trkpt lat="48.41684" lon="7.30316">
        <ele>869</ele>
        <time>2020-09-06T08:37:45.360Z</time>
      </trkpt>
      <trkpt lat="48.41683" lon="7.30315">
        <ele>869</ele>
        <time>2020-09-06T08:37:46.360Z</time>
      </trkpt>
      <trkpt lat="48.41682" lon="7.30315">
        <ele>870</ele>
        <time>2020-09-06T08:37:47.359Z</time>
      </trkpt>
      <trkpt lat="48.41681" lon="7.30313">
        <ele>870</ele>
        <time>2020-09-06T08:37:48.360Z</time>
      </trkpt>
      <trkpt lat="48.4168" lon="7.30312">
        <ele>870</ele>
        <time>2020-09-06T08:37:49.359Z</time>
      </trkpt>
      <trkpt lat="48.4168" lon="7.3031">
        <ele>870</ele>
        <time>2020-09-06T08:37:50.359Z</time>
      </trkpt>
      <trkpt lat="48.4168" lon="7.30309">
        <ele>871</ele>
        <time>2020-09-06T08:37:51.359Z</time>
      </trkpt>
      <trkpt lat="48.4168" lon="7.30308">
        <ele>871</ele>
        <time>2020-09-06T08:37:52.360Z</time>
      </trkpt>
      <trkpt lat="48.4168" lon="7.30308">
        <ele>871</ele>
        <time>2020-09-06T08:37:53.360Z</time>
      </trkpt>
      <trkpt lat="48.41679" lon="7.30307">
        <ele>871</ele>
        <time>2020-09-06T08:37:54.360Z</time>
      </trkpt>
      <trkpt lat="48.41679" lon="7.30306">
        <ele>871</ele>
        <time>2020-09-06T08:37:55.360Z</time>
      </trkpt>
      <trkpt lat="48.41678" lon="7.30305">
        <ele>870</ele>
        <time>2020-09-06T08:37:56.360Z</time>
      </trkpt>
      <trkpt lat="48.41678" lon="7.30304">
        <ele>870</ele>
        <time>2020-09-06T08:37:57.360Z</time>
      </trkpt>
      <trkpt lat="48.41679" lon="7.30303">
        <ele>870</ele>
        <time>2020-09-06T08:37:58.360Z</time>
      </trkpt>
      <trkpt lat="48.41678" lon="7.30301">
        <ele>869</ele>
        <time>2020-09-06T08:37:59.360Z</time>
      </trkpt>
      <trkpt lat="48.41678" lon="7.303">
        <ele>868</ele>
        <time>2020-09-06T08:38:00.359Z</time>
      </trkpt>
      <trkpt lat="48.41676" lon="7.30294">
        <ele>866</ele>
        <time>2020-09-06T08:38:01.360Z</time>
      </trkpt>
      <trkpt lat="48.41676" lon="7.30293">
        <ele>866</ele>
        <time>2020-09-06T08:38:02.359Z</time>
      </trkpt>
      <trkpt lat="48.41674" lon="7.30288">
        <ele>868</ele>
        <time>2020-09-06T08:38:03.361Z</time>
      </trkpt>
      <trkpt lat="48.41673" lon="7.30287">
        <ele>868</ele>
        <time>2020-09-06T08:38:04.361Z</time>
      </trkpt>
      <trkpt lat="48.41672" lon="7.30285">
        <ele>869</ele>
        <time>2020-09-06T08:38:05.360Z</time>
      </trkpt>
      <trkpt lat="48.41671" lon="7.30283">
        <ele>869</ele>
        <time>2020-09-06T08:38:06.361Z</time>
      </trkpt>
      <trkpt lat="48.4167" lon="7.3028">
        <ele>869</ele>
        <time>2020-09-06T08:38:07.361Z</time>
      </trkpt>
      <trkpt lat="48.4167" lon="7.30277">
        <ele>869</ele>
        <time>2020-09-06T08:38:08.360Z</time>
      </trkpt>
      <trkpt lat="48.41671" lon="7.30275">
        <ele>869</ele>
        <time>2020-09-06T08:38:09.361Z</time>
      </trkpt>
      <trkpt lat="48.41671" lon="7.30273">
        <ele>869</ele>
        <time>2020-09-06T08:38:10.360Z</time>
      </trkpt>
      <trkpt lat="48.4167" lon="7.30271">
        <ele>870</ele>
        <time>2020-09-06T08:38:11.360Z</time>
      </trkpt>
      <trkpt lat="48.41669" lon="7.3027">
        <ele>870</ele>
        <time>2020-09-06T08:38:12.361Z</time>
      </trkpt>
      <trkpt lat="48.41669" lon="7.30268">
        <ele>870</ele>
        <time>2020-09-06T08:38:13.361Z</time>
      </trkpt>
      <trkpt lat="48.41669" lon="7.30267">
        <ele>870</ele>
        <time>2020-09-06T08:38:14.361Z</time>
      </trkpt>
      <trkpt lat="48.41669" lon="7.30265">
        <ele>871</ele>
        <time>2020-09-06T08:38:15.361Z</time>
      </trkpt>
      <trkpt lat="48.41669" lon="7.30263">
        <ele>872</ele>
        <time>2020-09-06T08:38:16.361Z</time>
      </trkpt>
      <trkpt lat="48.41669" lon="7.3026">
        <ele>872</ele>
        <time>2020-09-06T08:38:17.360Z</time>
      </trkpt>
      <trkpt lat="48.41669" lon="7.30258">
        <ele>873</ele>
        <time>2020-09-06T08:38:18.360Z</time>
      </trkpt>
      <trkpt lat="48.41668" lon="7.30256">
        <ele>873</ele>
        <time>2020-09-06T08:38:19.361Z</time>
      </trkpt>
      <trkpt lat="48.41667" lon="7.30254">
        <ele>874</ele>
        <time>2020-09-06T08:38:20.360Z</time>
      </trkpt>
      <trkpt lat="48.41667" lon="7.30252">
        <ele>874</ele>
        <time>2020-09-06T08:38:21.360Z</time>
      </trkpt>
      <trkpt lat="48.41666" lon="7.3025">
        <ele>874</ele>
        <time>2020-09-06T08:38:22.361Z</time>
      </trkpt>
      <trkpt lat="48.41665" lon="7.30248">
        <ele>874</ele>
        <time>2020-09-06T08:38:23.361Z</time>
      </trkpt>
      <trkpt lat="48.41665" lon="7.30246">
        <ele>874</ele>
        <time>2020-09-06T08:38:24.360Z</time>
      </trkpt>
      <trkpt lat="48.41665" lon="7.30245">
        <ele>874</ele>
        <time>2020-09-06T08:38:25.361Z</time>
      </trkpt>
      <trkpt lat="48.41665" lon="7.30244">
        <ele>875</ele>
        <time>2020-09-06T08:38:26.361Z</time>
      </trkpt>
      <trkpt lat="48.41665" lon="7.30243">
        <ele>875</ele>
        <time>2020-09-06T08:38:27.361Z</time>
      </trkpt>
      <trkpt lat="48.41665" lon="7.30241">
        <ele>875</ele>
        <time>2020-09-06T08:38:28.361Z</time>
      </trkpt>
      <trkpt lat="48.41666" lon="7.3024">
        <ele>875</ele>
        <time>2020-09-06T08:38:29.360Z</time>
      </trkpt>
      <trkpt lat="48.41666" lon="7.30239">
        <ele>874</ele>
        <time>2020-09-06T08:38:30.361Z</time>
      </trkpt>
      <trkpt lat="48.41666" lon="7.30238">
        <ele>874</ele>
        <time>2020-09-06T08:38:31.361Z</time>
      </trkpt>
      <trkpt lat="48.41666" lon="7.30237">
        <ele>874</ele>
        <time>2020-09-06T08:38:32.361Z</time>
      </trkpt>
      <trkpt lat="48.41665" lon="7.30235">
        <ele>874</ele>
        <time>2020-09-06T08:38:33.361Z</time>
      </trkpt>
      <trkpt lat="48.41665" lon="7.30234">
        <ele>874</ele>
        <time>2020-09-06T08:38:34.361Z</time>
      </trkpt>
      <trkpt lat="48.41665" lon="7.30232">
        <ele>874</ele>
        <time>2020-09-06T08:38:35.361Z</time>
      </trkpt>
      <trkpt lat="48.41664" lon="7.30231">
        <ele>874</ele>
        <time>2020-09-06T08:38:36.361Z</time>
      </trkpt>
      <trkpt lat="48.41665" lon="7.3023">
        <ele>875</ele>
        <time>2020-09-06T08:38:37.360Z</time>
      </trkpt>
      <trkpt lat="48.41665" lon="7.30229">
        <ele>875</ele>
        <time>2020-09-06T08:38:38.360Z</time>
      </trkpt>
      <trkpt lat="48.41665" lon="7.30227">
        <ele>875</ele>
        <time>2020-09-06T08:38:39.360Z</time>
      </trkpt>
      <trkpt lat="48.41664" lon="7.30226">
        <ele>875</ele>
        <time>2020-09-06T08:38:40.361Z</time>
      </trkpt>
      <trkpt lat="48.41664" lon="7.30224">
        <ele>875</ele>
        <time>2020-09-06T08:38:41.360Z</time>
      </trkpt>
      <trkpt lat="48.41663" lon="7.30223">
        <ele>875</ele>
        <time>2020-09-06T08:38:42.361Z</time>
      </trkpt>
      <trkpt lat="48.41663" lon="7.30221">
        <ele>875</ele>
        <time>2020-09-06T08:38:43.360Z</time>
      </trkpt>
      <trkpt lat="48.41662" lon="7.3022">
        <ele>876</ele>
        <time>2020-09-06T08:38:44.361Z</time>
      </trkpt>
      <trkpt lat="48.41662" lon="7.30218">
        <ele>876</ele>
        <time>2020-09-06T08:38:45.361Z</time>
      </trkpt>
      <trkpt lat="48.41661" lon="7.30217">
        <ele>876</ele>
        <time>2020-09-06T08:38:46.360Z</time>
      </trkpt>
      <trkpt lat="48.41661" lon="7.30212">
        <ele>877</ele>
        <time>2020-09-06T08:38:47.361Z</time>
      </trkpt>
      <trkpt lat="48.4166" lon="7.30208">
        <ele>877</ele>
        <time>2020-09-06T08:38:48.361Z</time>
      </trkpt>
      <trkpt lat="48.41659" lon="7.30206">
        <ele>877</ele>
        <time>2020-09-06T08:38:49.361Z</time>
      </trkpt>
      <trkpt lat="48.41658" lon="7.30205">
        <ele>877</ele>
        <time>2020-09-06T08:38:50.361Z</time>
      </trkpt>
      <trkpt lat="48.41657" lon="7.30202">
        <ele>876</ele>
        <time>2020-09-06T08:38:51.360Z</time>
      </trkpt>
      <trkpt lat="48.41657" lon="7.302">
        <ele>876</ele>
        <time>2020-09-06T08:38:52.360Z</time>
      </trkpt>
      <trkpt lat="48.41657" lon="7.30199">
        <ele>876</ele>
        <time>2020-09-06T08:38:53.361Z</time>
      </trkpt>
      <trkpt lat="48.41657" lon="7.30198">
        <ele>877</ele>
        <time>2020-09-06T08:38:54.361Z</time>
      </trkpt>
      <trkpt lat="48.41656" lon="7.30197">
        <ele>877</ele>
        <time>2020-09-06T08:38:55.361Z</time>
      </trkpt>
      <trkpt lat="48.41655" lon="7.30196">
        <ele>877</ele>
        <time>2020-09-06T08:38:56.361Z</time>
      </trkpt>
      <trkpt lat="48.41654" lon="7.30195">
        <ele>877</ele>
        <time>2020-09-06T08:38:57.360Z</time>
      </trkpt>
      <trkpt lat="48.41654" lon="7.30193">
        <ele>877</ele>
        <time>2020-09-06T08:38:58.360Z</time>
      </trkpt>
      <trkpt lat="48.41653" lon="7.30192">
        <ele>878</ele>
        <time>2020-09-06T08:38:59.361Z</time>
      </trkpt>
      <trkpt lat="48.41653" lon="7.3019">
        <ele>878</ele>
        <time>2020-09-06T08:39:00.361Z</time>
      </trkpt>
      <trkpt lat="48.41653" lon="7.30187">
        <ele>878</ele>
        <time>2020-09-06T08:39:01.360Z</time>
      </trkpt>
      <trkpt lat="48.41653" lon="7.30185">
        <ele>878</ele>
        <time>2020-09-06T08:39:02.360Z</time>
      </trkpt>
      <trkpt lat="48.41652" lon="7.30184">
        <ele>878</ele>
        <time>2020-09-06T08:39:03.361Z</time>
      </trkpt>
      <trkpt lat="48.41651" lon="7.30182">
        <ele>878</ele>
        <time>2020-09-06T08:39:04.361Z</time>
      </trkpt>
      <trkpt lat="48.41651" lon="7.3018">
        <ele>878</ele>
        <time>2020-09-06T08:39:05.361Z</time>
      </trkpt>
      <trkpt lat="48.4165" lon="7.30179">
        <ele>878</ele>
        <time>2020-09-06T08:39:06.360Z</time>
      </trkpt>
      <trkpt lat="48.41649" lon="7.30178">
        <ele>877</ele>
        <time>2020-09-06T08:39:07.361Z</time>
      </trkpt>
      <trkpt lat="48.41647" lon="7.30176">
        <ele>877</ele>
        <time>2020-09-06T08:39:08.361Z</time>
      </trkpt>
      <trkpt lat="48.41647" lon="7.30175">
        <ele>877</ele>
        <time>2020-09-06T08:39:09.360Z</time>
      </trkpt>
      <trkpt lat="48.41647" lon="7.30173">
        <ele>877</ele>
        <time>2020-09-06T08:39:10.361Z</time>
      </trkpt>
      <trkpt lat="48.41646" lon="7.30172">
        <ele>877</ele>
        <time>2020-09-06T08:39:11.361Z</time>
      </trkpt>
      <trkpt lat="48.41645" lon="7.3017">
        <ele>877</ele>
        <time>2020-09-06T08:39:12.361Z</time>
      </trkpt>
      <trkpt lat="48.41644" lon="7.30169">
        <ele>878</ele>
        <time>2020-09-06T08:39:13.361Z</time>
      </trkpt>
      <trkpt lat="48.41643" lon="7.30167">
        <ele>879</ele>
        <time>2020-09-06T08:39:14.362Z</time>
      </trkpt>
      <trkpt lat="48.41642" lon="7.30166">
        <ele>879</ele>
        <time>2020-09-06T08:39:15.362Z</time>
      </trkpt>
      <trkpt lat="48.41642" lon="7.30165">
        <ele>879</ele>
        <time>2020-09-06T08:39:16.361Z</time>
      </trkpt>
      <trkpt lat="48.41642" lon="7.30163">
        <ele>880</ele>
        <time>2020-09-06T08:39:17.362Z</time>
      </trkpt>
      <trkpt lat="48.41641" lon="7.30161">
        <ele>880</ele>
        <time>2020-09-06T08:39:18.362Z</time>
      </trkpt>
      <trkpt lat="48.41641" lon="7.30159">
        <ele>880</ele>
        <time>2020-09-06T08:39:19.362Z</time>
      </trkpt>
      <trkpt lat="48.41641" lon="7.30158">
        <ele>880</ele>
        <time>2020-09-06T08:39:20.362Z</time>
      </trkpt>
      <trkpt lat="48.4164" lon="7.30156">
        <ele>880</ele>
        <time>2020-09-06T08:39:21.362Z</time>
      </trkpt>
      <trkpt lat="48.41639" lon="7.30154">
        <ele>880</ele>
        <time>2020-09-06T08:39:22.362Z</time>
      </trkpt>
      <trkpt lat="48.41638" lon="7.30153">
        <ele>881</ele>
        <time>2020-09-06T08:39:23.362Z</time>
      </trkpt>
      <trkpt lat="48.41637" lon="7.3015">
        <ele>881</ele>
        <time>2020-09-06T08:39:24.362Z</time>
      </trkpt>
      <trkpt lat="48.41636" lon="7.30149">
        <ele>881</ele>
        <time>2020-09-06T08:39:25.362Z</time>
      </trkpt>
      <trkpt lat="48.41635" lon="7.30148">
        <ele>881</ele>
        <time>2020-09-06T08:39:26.362Z</time>
      </trkpt>
      <trkpt lat="48.41634" lon="7.30147">
        <ele>882</ele>
        <time>2020-09-06T08:39:27.361Z</time>
      </trkpt>
      <trkpt lat="48.41634" lon="7.30144">
        <ele>882</ele>
        <time>2020-09-06T08:39:28.362Z</time>
      </trkpt>
      <trkpt lat="48.41634" lon="7.30142">
        <ele>882</ele>
        <time>2020-09-06T08:39:29.362Z</time>
      </trkpt>
      <trkpt lat="48.41633" lon="7.3014">
        <ele>882</ele>
        <time>2020-09-06T08:39:30.362Z</time>
      </trkpt>
      <trkpt lat="48.41633" lon="7.30138">
        <ele>882</ele>
        <time>2020-09-06T08:39:31.362Z</time>
      </trkpt>
      <trkpt lat="48.41633" lon="7.30137">
        <ele>882</ele>
        <time>2020-09-06T08:39:32.362Z</time>
      </trkpt>
      <trkpt lat="48.41633" lon="7.30136">
        <ele>882</ele>
        <time>2020-09-06T08:39:33.361Z</time>
      </trkpt>
      <trkpt lat="48.41632" lon="7.30135">
        <ele>881</ele>
        <time>2020-09-06T08:39:34.362Z</time>
      </trkpt>
      <trkpt lat="48.41632" lon="7.30134">
        <ele>881</ele>
        <time>2020-09-06T08:39:35.361Z</time>
      </trkpt>
      <trkpt lat="48.41632" lon="7.30133">
        <ele>881</ele>
        <time>2020-09-06T08:39:36.361Z</time>
      </trkpt>
      <trkpt lat="48.41632" lon="7.30131">
        <ele>881</ele>
        <time>2020-09-06T08:39:37.361Z</time>
      </trkpt>
      <trkpt lat="48.41631" lon="7.30129">
        <ele>881</ele>
        <time>2020-09-06T08:39:38.362Z</time>
      </trkpt>
      <trkpt lat="48.41631" lon="7.30127">
        <ele>881</ele>
        <time>2020-09-06T08:39:39.362Z</time>
      </trkpt>
      <trkpt lat="48.41631" lon="7.30125">
        <ele>881</ele>
        <time>2020-09-06T08:39:40.362Z</time>
      </trkpt>
      <trkpt lat="48.4163" lon="7.30124">
        <ele>881</ele>
        <time>2020-09-06T08:39:41.361Z</time>
      </trkpt>
      <trkpt lat="48.4163" lon="7.30123">
        <ele>880</ele>
        <time>2020-09-06T08:39:42.362Z</time>
      </trkpt>
      <trkpt lat="48.41629" lon="7.30122">
        <ele>880</ele>
        <time>2020-09-06T08:39:43.362Z</time>
      </trkpt>
      <trkpt lat="48.41628" lon="7.30121">
        <ele>880</ele>
        <time>2020-09-06T08:39:44.362Z</time>
      </trkpt>
      <trkpt lat="48.41628" lon="7.30119">
        <ele>880</ele>
        <time>2020-09-06T08:39:45.361Z</time>
      </trkpt>
      <trkpt lat="48.41628" lon="7.30117">
        <ele>880</ele>
        <time>2020-09-06T08:39:46.362Z</time>
      </trkpt>
      <trkpt lat="48.41628" lon="7.30116">
        <ele>880</ele>
        <time>2020-09-06T08:39:47.361Z</time>
      </trkpt>
      <trkpt lat="48.41628" lon="7.30114">
        <ele>880</ele>
        <time>2020-09-06T08:39:48.362Z</time>
      </trkpt>
      <trkpt lat="48.41628" lon="7.30111">
        <ele>880</ele>
        <time>2020-09-06T08:39:49.362Z</time>
      </trkpt>
      <trkpt lat="48.41628" lon="7.30109">
        <ele>880</ele>
        <time>2020-09-06T08:39:50.361Z</time>
      </trkpt>
      <trkpt lat="48.41628" lon="7.30107">
        <ele>880</ele>
        <time>2020-09-06T08:39:51.362Z</time>
      </trkpt>
      <trkpt lat="48.41628" lon="7.30105">
        <ele>880</ele>
        <time>2020-09-06T08:39:52.362Z</time>
      </trkpt>
      <trkpt lat="48.41627" lon="7.30103">
        <ele>880</ele>
        <time>2020-09-06T08:39:53.361Z</time>
      </trkpt>
      <trkpt lat="48.41627" lon="7.30101">
        <ele>880</ele>
        <time>2020-09-06T08:39:54.362Z</time>
      </trkpt>
      <trkpt lat="48.41627" lon="7.30098">
        <ele>880</ele>
        <time>2020-09-06T08:39:55.362Z</time>
      </trkpt>
      <trkpt lat="48.41627" lon="7.30097">
        <ele>880</ele>
        <time>2020-09-06T08:39:56.361Z</time>
      </trkpt>
      <trkpt lat="48.41627" lon="7.30096">
        <ele>880</ele>
        <time>2020-09-06T08:39:57.361Z</time>
      </trkpt>
      <trkpt lat="48.41627" lon="7.30095">
        <ele>880</ele>
        <time>2020-09-06T08:39:58.362Z</time>
      </trkpt>
      <trkpt lat="48.41627" lon="7.30094">
        <ele>880</ele>
        <time>2020-09-06T08:39:59.362Z</time>
      </trkpt>
      <trkpt lat="48.41628" lon="7.30093">
        <ele>880</ele>
        <time>2020-09-06T08:40:00.362Z</time>
      </trkpt>
      <trkpt lat="48.41628" lon="7.30092">
        <ele>880</ele>
        <time>2020-09-06T08:40:01.362Z</time>
      </trkpt>
      <trkpt lat="48.41628" lon="7.3009">
        <ele>880</ele>
        <time>2020-09-06T08:40:02.362Z</time>
      </trkpt>
      <trkpt lat="48.41628" lon="7.30089">
        <ele>881</ele>
        <time>2020-09-06T08:40:03.362Z</time>
      </trkpt>
      <trkpt lat="48.41628" lon="7.30087">
        <ele>881</ele>
        <time>2020-09-06T08:40:04.361Z</time>
      </trkpt>
      <trkpt lat="48.41628" lon="7.30086">
        <ele>881</ele>
        <time>2020-09-06T08:40:05.362Z</time>
      </trkpt>
      <trkpt lat="48.41628" lon="7.30084">
        <ele>882</ele>
        <time>2020-09-06T08:40:06.362Z</time>
      </trkpt>
      <trkpt lat="48.41628" lon="7.30083">
        <ele>882</ele>
        <time>2020-09-06T08:40:07.362Z</time>
      </trkpt>
      <trkpt lat="48.41627" lon="7.30081">
        <ele>882</ele>
        <time>2020-09-06T08:40:08.362Z</time>
      </trkpt>
      <trkpt lat="48.41627" lon="7.30081">
        <ele>882</ele>
        <time>2020-09-06T08:40:09.362Z</time>
      </trkpt>
      <trkpt lat="48.41626" lon="7.30079">
        <ele>882</ele>
        <time>2020-09-06T08:40:10.362Z</time>
      </trkpt>
      <trkpt lat="48.41626" lon="7.30078">
        <ele>882</ele>
        <time>2020-09-06T08:40:11.362Z</time>
      </trkpt>
      <trkpt lat="48.41625" lon="7.30078">
        <ele>882</ele>
        <time>2020-09-06T08:40:12.362Z</time>
      </trkpt>
      <trkpt lat="48.41624" lon="7.30077">
        <ele>882</ele>
        <time>2020-09-06T08:40:13.361Z</time>
      </trkpt>
      <trkpt lat="48.41623" lon="7.30074">
        <ele>882</ele>
        <time>2020-09-06T08:40:14.362Z</time>
      </trkpt>
      <trkpt lat="48.41622" lon="7.30071">
        <ele>882</ele>
        <time>2020-09-06T08:40:15.361Z</time>
      </trkpt>
      <trkpt lat="48.41621" lon="7.30069">
        <ele>882</ele>
        <time>2020-09-06T08:40:16.362Z</time>
      </trkpt>
      <trkpt lat="48.41621" lon="7.30068">
        <ele>883</ele>
        <time>2020-09-06T08:40:17.361Z</time>
      </trkpt>
      <trkpt lat="48.4162" lon="7.30066">
        <ele>883</ele>
        <time>2020-09-06T08:40:18.362Z</time>
      </trkpt>
      <trkpt lat="48.41619" lon="7.30063">
        <ele>883</ele>
        <time>2020-09-06T08:40:19.362Z</time>
      </trkpt>
      <trkpt lat="48.41618" lon="7.30061">
        <ele>883</ele>
        <time>2020-09-06T08:40:20.362Z</time>
      </trkpt>
      <trkpt lat="48.41618" lon="7.3006">
        <ele>883</ele>
        <time>2020-09-06T08:40:21.362Z</time>
      </trkpt>
      <trkpt lat="48.41617" lon="7.30058">
        <ele>882</ele>
        <time>2020-09-06T08:40:22.361Z</time>
      </trkpt>
      <trkpt lat="48.41617" lon="7.30056">
        <ele>882</ele>
        <time>2020-09-06T08:40:23.361Z</time>
      </trkpt>
      <trkpt lat="48.41617" lon="7.30055">
        <ele>882</ele>
        <time>2020-09-06T08:40:24.361Z</time>
      </trkpt>
      <trkpt lat="48.41617" lon="7.30054">
        <ele>883</ele>
        <time>2020-09-06T08:40:25.362Z</time>
      </trkpt>
      <trkpt lat="48.41617" lon="7.30052">
        <ele>883</ele>
        <time>2020-09-06T08:40:26.361Z</time>
      </trkpt>
      <trkpt lat="48.41616" lon="7.30051">
        <ele>883</ele>
        <time>2020-09-06T08:40:27.362Z</time>
      </trkpt>
      <trkpt lat="48.41616" lon="7.30049">
        <ele>883</ele>
        <time>2020-09-06T08:40:28.362Z</time>
      </trkpt>
      <trkpt lat="48.41616" lon="7.30048">
        <ele>882</ele>
        <time>2020-09-06T08:40:29.361Z</time>
      </trkpt>
      <trkpt lat="48.41615" lon="7.30046">
        <ele>882</ele>
        <time>2020-09-06T08:40:30.361Z</time>
      </trkpt>
      <trkpt lat="48.41615" lon="7.30045">
        <ele>882</ele>
        <time>2020-09-06T08:40:31.362Z</time>
      </trkpt>
      <trkpt lat="48.41615" lon="7.30044">
        <ele>883</ele>
        <time>2020-09-06T08:40:32.362Z</time>
      </trkpt>
      <trkpt lat="48.41615" lon="7.30044">
        <ele>883</ele>
        <time>2020-09-06T08:40:33.362Z</time>
      </trkpt>
      <trkpt lat="48.41615" lon="7.30042">
        <ele>883</ele>
        <time>2020-09-06T08:40:34.361Z</time>
      </trkpt>
      <trkpt lat="48.41615" lon="7.30041">
        <ele>883</ele>
        <time>2020-09-06T08:40:35.361Z</time>
      </trkpt>
      <trkpt lat="48.41615" lon="7.30039">
        <ele>884</ele>
        <time>2020-09-06T08:40:36.361Z</time>
      </trkpt>
      <trkpt lat="48.41616" lon="7.30037">
        <ele>884</ele>
        <time>2020-09-06T08:40:37.362Z</time>
      </trkpt>
      <trkpt lat="48.41616" lon="7.30036">
        <ele>884</ele>
        <time>2020-09-06T08:40:38.362Z</time>
      </trkpt>
      <trkpt lat="48.41616" lon="7.30034">
        <ele>884</ele>
        <time>2020-09-06T08:40:39.361Z</time>
      </trkpt>
      <trkpt lat="48.41616" lon="7.30031">
        <ele>884</ele>
        <time>2020-09-06T08:40:40.362Z</time>
      </trkpt>
      <trkpt lat="48.41616" lon="7.30028">
        <ele>885</ele>
        <time>2020-09-06T08:40:41.361Z</time>
      </trkpt>
      <trkpt lat="48.41616" lon="7.30026">
        <ele>885</ele>
        <time>2020-09-06T08:40:42.361Z</time>
      </trkpt>
      <trkpt lat="48.41616" lon="7.30024">
        <ele>885</ele>
        <time>2020-09-06T08:40:43.361Z</time>
      </trkpt>
      <trkpt lat="48.41616" lon="7.30023">
        <ele>886</ele>
        <time>2020-09-06T08:40:44.362Z</time>
      </trkpt>
      <trkpt lat="48.41616" lon="7.30021">
        <ele>886</ele>
        <time>2020-09-06T08:40:45.362Z</time>
      </trkpt>
      <trkpt lat="48.41616" lon="7.3002">
        <ele>886</ele>
        <time>2020-09-06T08:40:46.361Z</time>
      </trkpt>
      <trkpt lat="48.41615" lon="7.3002">
        <ele>887</ele>
        <time>2020-09-06T08:40:47.362Z</time>
      </trkpt>
      <trkpt lat="48.41614" lon="7.30019">
        <ele>887</ele>
        <time>2020-09-06T08:40:48.361Z</time>
      </trkpt>
      <trkpt lat="48.41613" lon="7.30018">
        <ele>887</ele>
        <time>2020-09-06T08:40:49.362Z</time>
      </trkpt>
      <trkpt lat="48.41613" lon="7.30017">
        <ele>887</ele>
        <time>2020-09-06T08:40:50.361Z</time>
      </trkpt>
      <trkpt lat="48.41612" lon="7.30015">
        <ele>888</ele>
        <time>2020-09-06T08:40:51.362Z</time>
      </trkpt>
      <trkpt lat="48.41612" lon="7.30014">
        <ele>888</ele>
        <time>2020-09-06T08:40:52.362Z</time>
      </trkpt>
      <trkpt lat="48.41611" lon="7.30013">
        <ele>888</ele>
        <time>2020-09-06T08:40:53.361Z</time>
      </trkpt>
      <trkpt lat="48.4161" lon="7.30011">
        <ele>888</ele>
        <time>2020-09-06T08:40:54.362Z</time>
      </trkpt>
      <trkpt lat="48.4161" lon="7.30009">
        <ele>888</ele>
        <time>2020-09-06T08:40:55.361Z</time>
      </trkpt>
      <trkpt lat="48.4161" lon="7.30007">
        <ele>888</ele>
        <time>2020-09-06T08:40:56.362Z</time>
      </trkpt>
      <trkpt lat="48.41609" lon="7.30005">
        <ele>888</ele>
        <time>2020-09-06T08:40:57.361Z</time>
      </trkpt>
      <trkpt lat="48.41608" lon="7.30003">
        <ele>888</ele>
        <time>2020-09-06T08:40:58.361Z</time>
      </trkpt>
      <trkpt lat="48.41608" lon="7.30002">
        <ele>888</ele>
        <time>2020-09-06T08:40:59.362Z</time>
      </trkpt>
      <trkpt lat="48.41608" lon="7.29999">
        <ele>888</ele>
        <time>2020-09-06T08:41:00.361Z</time>
      </trkpt>
      <trkpt lat="48.41608" lon="7.29996">
        <ele>888</ele>
        <time>2020-09-06T08:41:01.361Z</time>
      </trkpt>
      <trkpt lat="48.41608" lon="7.29994">
        <ele>887</ele>
        <time>2020-09-06T08:41:02.361Z</time>
      </trkpt>
      <trkpt lat="48.41607" lon="7.29993">
        <ele>888</ele>
        <time>2020-09-06T08:41:03.362Z</time>
      </trkpt>
      <trkpt lat="48.41607" lon="7.29991">
        <ele>888</ele>
        <time>2020-09-06T08:41:04.361Z</time>
      </trkpt>
      <trkpt lat="48.41606" lon="7.29989">
        <ele>888</ele>
        <time>2020-09-06T08:41:05.361Z</time>
      </trkpt>
      <trkpt lat="48.41605" lon="7.29987">
        <ele>888</ele>
        <time>2020-09-06T08:41:06.362Z</time>
      </trkpt>
      <trkpt lat="48.41604" lon="7.29985">
        <ele>888</ele>
        <time>2020-09-06T08:41:07.362Z</time>
      </trkpt>
      <trkpt lat="48.41604" lon="7.29983">
        <ele>888</ele>
        <time>2020-09-06T08:41:08.362Z</time>
      </trkpt>
      <trkpt lat="48.41604" lon="7.29981">
        <ele>888</ele>
        <time>2020-09-06T08:41:09.361Z</time>
      </trkpt>
      <trkpt lat="48.41604" lon="7.29979">
        <ele>888</ele>
        <time>2020-09-06T08:41:10.362Z</time>
      </trkpt>
      <trkpt lat="48.41603" lon="7.29978">
        <ele>889</ele>
        <time>2020-09-06T08:41:11.362Z</time>
      </trkpt>
      <trkpt lat="48.41603" lon="7.29976">
        <ele>889</ele>
        <time>2020-09-06T08:41:12.362Z</time>
      </trkpt>
      <trkpt lat="48.41603" lon="7.29974">
        <ele>889</ele>
        <time>2020-09-06T08:41:13.362Z</time>
      </trkpt>
      <trkpt lat="48.41603" lon="7.29971">
        <ele>889</ele>
        <time>2020-09-06T08:41:14.362Z</time>
      </trkpt>
      <trkpt lat="48.41603" lon="7.29971">
        <ele>890</ele>
        <time>2020-09-06T08:41:15.361Z</time>
      </trkpt>
      <trkpt lat="48.41603" lon="7.2997">
        <ele>890</ele>
        <time>2020-09-06T08:41:16.362Z</time>
      </trkpt>
      <trkpt lat="48.41603" lon="7.2997">
        <ele>890</ele>
        <time>2020-09-06T08:41:17.362Z</time>
      </trkpt>
      <trkpt lat="48.41604" lon="7.29969">
        <ele>890</ele>
        <time>2020-09-06T08:41:18.361Z</time>
      </trkpt>
      <trkpt lat="48.41604" lon="7.29968">
        <ele>889</ele>
        <time>2020-09-06T08:41:19.361Z</time>
      </trkpt>
      <trkpt lat="48.41604" lon="7.29966">
        <ele>889</ele>
        <time>2020-09-06T08:41:20.361Z</time>
      </trkpt>
      <trkpt lat="48.41605" lon="7.29965">
        <ele>889</ele>
        <time>2020-09-06T08:41:21.362Z</time>
      </trkpt>
      <trkpt lat="48.41605" lon="7.29964">
        <ele>889</ele>
        <time>2020-09-06T08:41:22.362Z</time>
      </trkpt>
      <trkpt lat="48.41605" lon="7.29962">
        <ele>889</ele>
        <time>2020-09-06T08:41:23.362Z</time>
      </trkpt>
      <trkpt lat="48.41605" lon="7.29961">
        <ele>889</ele>
        <time>2020-09-06T08:41:24.362Z</time>
      </trkpt>
      <trkpt lat="48.41603" lon="7.29957">
        <ele>889</ele>
        <time>2020-09-06T08:41:25.362Z</time>
      </trkpt>
      <trkpt lat="48.41602" lon="7.29954">
        <ele>889</ele>
        <time>2020-09-06T08:41:26.361Z</time>
      </trkpt>
      <trkpt lat="48.41601" lon="7.29952">
        <ele>888</ele>
        <time>2020-09-06T08:41:27.361Z</time>
      </trkpt>
      <trkpt lat="48.41602" lon="7.2995">
        <ele>888</ele>
        <time>2020-09-06T08:41:28.362Z</time>
      </trkpt>
      <trkpt lat="48.41601" lon="7.29948">
        <ele>888</ele>
        <time>2020-09-06T08:41:29.362Z</time>
      </trkpt>
      <trkpt lat="48.416" lon="7.29946">
        <ele>887</ele>
        <time>2020-09-06T08:41:30.362Z</time>
      </trkpt>
      <trkpt lat="48.41599" lon="7.29945">
        <ele>887</ele>
        <time>2020-09-06T08:41:31.362Z</time>
      </trkpt>
      <trkpt lat="48.41599" lon="7.29944">
        <ele>886</ele>
        <time>2020-09-06T08:41:32.361Z</time>
      </trkpt>
      <trkpt lat="48.41599" lon="7.29942">
        <ele>886</ele>
        <time>2020-09-06T08:41:33.362Z</time>
      </trkpt>
      <trkpt lat="48.41599" lon="7.2994">
        <ele>886</ele>
        <time>2020-09-06T08:41:34.362Z</time>
      </trkpt>
      <trkpt lat="48.41598" lon="7.29938">
        <ele>885</ele>
        <time>2020-09-06T08:41:35.362Z</time>
      </trkpt>
      <trkpt lat="48.41598" lon="7.29937">
        <ele>885</ele>
        <time>2020-09-06T08:41:36.361Z</time>
      </trkpt>
      <trkpt lat="48.41598" lon="7.29935">
        <ele>885</ele>
        <time>2020-09-06T08:41:37.361Z</time>
      </trkpt>
      <trkpt lat="48.41598" lon="7.29934">
        <ele>885</ele>
        <time>2020-09-06T08:41:38.362Z</time>
      </trkpt>
      <trkpt lat="48.41599" lon="7.29933">
        <ele>885</ele>
        <time>2020-09-06T08:41:39.361Z</time>
      </trkpt>
      <trkpt lat="48.41599" lon="7.29932">
        <ele>885</ele>
        <time>2020-09-06T08:41:40.361Z</time>
      </trkpt>
      <trkpt lat="48.416" lon="7.2993">
        <ele>885</ele>
        <time>2020-09-06T08:41:41.362Z</time>
      </trkpt>
      <trkpt lat="48.41601" lon="7.29929">
        <ele>885</ele>
        <time>2020-09-06T08:41:42.362Z</time>
      </trkpt>
      <trkpt lat="48.41601" lon="7.29928">
        <ele>886</ele>
        <time>2020-09-06T08:41:43.362Z</time>
      </trkpt>
      <trkpt lat="48.41601" lon="7.29927">
        <ele>886</ele>
        <time>2020-09-06T08:41:44.361Z</time>
      </trkpt>
      <trkpt lat="48.416" lon="7.29926">
        <ele>887</ele>
        <time>2020-09-06T08:41:45.362Z</time>
      </trkpt>
      <trkpt lat="48.416" lon="7.29925">
        <ele>887</ele>
        <time>2020-09-06T08:41:46.362Z</time>
      </trkpt>
      <trkpt lat="48.416" lon="7.29924">
        <ele>888</ele>
        <time>2020-09-06T08:41:47.362Z</time>
      </trkpt>
      <trkpt lat="48.416" lon="7.29923">
        <ele>888</ele>
        <time>2020-09-06T08:41:48.361Z</time>
      </trkpt>
      <trkpt lat="48.416" lon="7.29923">
        <ele>889</ele>
        <time>2020-09-06T08:41:49.362Z</time>
      </trkpt>
      <trkpt lat="48.416" lon="7.29922">
        <ele>889</ele>
        <time>2020-09-06T08:41:50.361Z</time>
      </trkpt>
      <trkpt lat="48.416" lon="7.29921">
        <ele>889</ele>
        <time>2020-09-06T08:41:51.361Z</time>
      </trkpt>
      <trkpt lat="48.41599" lon="7.2992">
        <ele>890</ele>
        <time>2020-09-06T08:41:52.362Z</time>
      </trkpt>
      <trkpt lat="48.41599" lon="7.29918">
        <ele>890</ele>
        <time>2020-09-06T08:41:53.362Z</time>
      </trkpt>
      <trkpt lat="48.41599" lon="7.29917">
        <ele>890</ele>
        <time>2020-09-06T08:41:54.362Z</time>
      </trkpt>
      <trkpt lat="48.41599" lon="7.29916">
        <ele>890</ele>
        <time>2020-09-06T08:41:55.361Z</time>
      </trkpt>
      <trkpt lat="48.41598" lon="7.29915">
        <ele>890</ele>
        <time>2020-09-06T08:41:56.361Z</time>
      </trkpt>
      <trkpt lat="48.41597" lon="7.29914">
        <ele>890</ele>
        <time>2020-09-06T08:41:57.361Z</time>
      </trkpt>
      <trkpt lat="48.41597" lon="7.29913">
        <ele>890</ele>
        <time>2020-09-06T08:41:58.362Z</time>
      </trkpt>
      <trkpt lat="48.41596" lon="7.29911">
        <ele>890</ele>
        <time>2020-09-06T08:41:59.362Z</time>
      </trkpt>
      <trkpt lat="48.41595" lon="7.2991">
        <ele>890</ele>
        <time>2020-09-06T08:42:00.361Z</time>
      </trkpt>
      <trkpt lat="48.41594" lon="7.29907">
        <ele>891</ele>
        <time>2020-09-06T08:42:01.362Z</time>
      </trkpt>
      <trkpt lat="48.41594" lon="7.29904">
        <ele>891</ele>
        <time>2020-09-06T08:42:02.362Z</time>
      </trkpt>
      <trkpt lat="48.41593" lon="7.29901">
        <ele>891</ele>
        <time>2020-09-06T08:42:03.362Z</time>
      </trkpt>
      <trkpt lat="48.41593" lon="7.29899">
        <ele>891</ele>
        <time>2020-09-06T08:42:04.362Z</time>
      </trkpt>
      <trkpt lat="48.41592" lon="7.29897">
        <ele>892</ele>
        <time>2020-09-06T08:42:05.361Z</time>
      </trkpt>
      <trkpt lat="48.41592" lon="7.29897">
        <ele>892</ele>
        <time>2020-09-06T08:42:06.361Z</time>
      </trkpt>
      <trkpt lat="48.41591" lon="7.29897">
        <ele>892</ele>
        <time>2020-09-06T08:42:07.362Z</time>
      </trkpt>
      <trkpt lat="48.4159" lon="7.29897">
        <ele>892</ele>
        <time>2020-09-06T08:42:08.362Z</time>
      </trkpt>
      <trkpt lat="48.41589" lon="7.29895">
        <ele>893</ele>
        <time>2020-09-06T08:42:09.362Z</time>
      </trkpt>
      <trkpt lat="48.41589" lon="7.29894">
        <ele>893</ele>
        <time>2020-09-06T08:42:10.362Z</time>
      </trkpt>
      <trkpt lat="48.41588" lon="7.29893">
        <ele>893</ele>
        <time>2020-09-06T08:42:11.361Z</time>
      </trkpt>
      <trkpt lat="48.41588" lon="7.29892">
        <ele>893</ele>
        <time>2020-09-06T08:42:12.362Z</time>
      </trkpt>
      <trkpt lat="48.41588" lon="7.2989">
        <ele>894</ele>
        <time>2020-09-06T08:42:13.362Z</time>
      </trkpt>
      <trkpt lat="48.41588" lon="7.2989">
        <ele>894</ele>
        <time>2020-09-06T08:42:14.361Z</time>
      </trkpt>
      <trkpt lat="48.41587" lon="7.29888">
        <ele>895</ele>
        <time>2020-09-06T08:42:15.362Z</time>
      </trkpt>
      <trkpt lat="48.41587" lon="7.29887">
        <ele>895</ele>
        <time>2020-09-06T08:42:16.361Z</time>
      </trkpt>
      <trkpt lat="48.41587" lon="7.29885">
        <ele>896</ele>
        <time>2020-09-06T08:42:17.362Z</time>
      </trkpt>
      <trkpt lat="48.41587" lon="7.29883">
        <ele>896</ele>
        <time>2020-09-06T08:42:18.361Z</time>
      </trkpt>
      <trkpt lat="48.41586" lon="7.29882">
        <ele>896</ele>
        <time>2020-09-06T08:42:19.362Z</time>
      </trkpt>
      <trkpt lat="48.41586" lon="7.2988">
        <ele>897</ele>
        <time>2020-09-06T08:42:20.361Z</time>
      </trkpt>
      <trkpt lat="48.41586" lon="7.29878">
        <ele>897</ele>
        <time>2020-09-06T08:42:21.361Z</time>
      </trkpt>
      <trkpt lat="48.41585" lon="7.29876">
        <ele>898</ele>
        <time>2020-09-06T08:42:22.362Z</time>
      </trkpt>
      <trkpt lat="48.41585" lon="7.29873">
        <ele>899</ele>
        <time>2020-09-06T08:42:23.362Z</time>
      </trkpt>
      <trkpt lat="48.41584" lon="7.2987">
        <ele>899</ele>
        <time>2020-09-06T08:42:24.362Z</time>
      </trkpt>
      <trkpt lat="48.41584" lon="7.29869">
        <ele>899</ele>
        <time>2020-09-06T08:42:25.361Z</time>
      </trkpt>
      <trkpt lat="48.41584" lon="7.29868">
        <ele>900</ele>
        <time>2020-09-06T08:42:26.361Z</time>
      </trkpt>
      <trkpt lat="48.41584" lon="7.29867">
        <ele>900</ele>
        <time>2020-09-06T08:42:27.361Z</time>
      </trkpt>
      <trkpt lat="48.41583" lon="7.29865">
        <ele>901</ele>
        <time>2020-09-06T08:42:28.362Z</time>
      </trkpt>
      <trkpt lat="48.41583" lon="7.29863">
        <ele>901</ele>
        <time>2020-09-06T08:42:29.362Z</time>
      </trkpt>
      <trkpt lat="48.41583" lon="7.29862">
        <ele>901</ele>
        <time>2020-09-06T08:42:30.361Z</time>
      </trkpt>
      <trkpt lat="48.41582" lon="7.2986">
        <ele>902</ele>
        <time>2020-09-06T08:42:31.361Z</time>
      </trkpt>
      <trkpt lat="48.41582" lon="7.29858">
        <ele>902</ele>
        <time>2020-09-06T08:42:32.361Z</time>
      </trkpt>
      <trkpt lat="48.41582" lon="7.29857">
        <ele>903</ele>
        <time>2020-09-06T08:42:33.362Z</time>
      </trkpt>
      <trkpt lat="48.41582" lon="7.29856">
        <ele>903</ele>
        <time>2020-09-06T08:42:34.362Z</time>
      </trkpt>
      <trkpt lat="48.41582" lon="7.29854">
        <ele>903</ele>
        <time>2020-09-06T08:42:35.362Z</time>
      </trkpt>
      <trkpt lat="48.41582" lon="7.29852">
        <ele>904</ele>
        <time>2020-09-06T08:42:36.361Z</time>
      </trkpt>
      <trkpt lat="48.41581" lon="7.2985">
        <ele>904</ele>
        <time>2020-09-06T08:42:37.361Z</time>
      </trkpt>
      <trkpt lat="48.41581" lon="7.29849">
        <ele>905</ele>
        <time>2020-09-06T08:42:38.362Z</time>
      </trkpt>
      <trkpt lat="48.41581" lon="7.29848">
        <ele>905</ele>
        <time>2020-09-06T08:42:39.362Z</time>
      </trkpt>
      <trkpt lat="48.41581" lon="7.29846">
        <ele>905</ele>
        <time>2020-09-06T08:42:40.362Z</time>
      </trkpt>
      <trkpt lat="48.41581" lon="7.29845">
        <ele>905</ele>
        <time>2020-09-06T08:42:41.361Z</time>
      </trkpt>
      <trkpt lat="48.41581" lon="7.29844">
        <ele>905</ele>
        <time>2020-09-06T08:42:42.362Z</time>
      </trkpt>
      <trkpt lat="48.41581" lon="7.29842">
        <ele>905</ele>
        <time>2020-09-06T08:42:43.362Z</time>
      </trkpt>
      <trkpt lat="48.4158" lon="7.29841">
        <ele>905</ele>
        <time>2020-09-06T08:42:44.361Z</time>
      </trkpt>
      <trkpt lat="48.4158" lon="7.29839">
        <ele>905</ele>
        <time>2020-09-06T08:42:45.362Z</time>
      </trkpt>
      <trkpt lat="48.4158" lon="7.29837">
        <ele>905</ele>
        <time>2020-09-06T08:42:46.361Z</time>
      </trkpt>
      <trkpt lat="48.4158" lon="7.29835">
        <ele>905</ele>
        <time>2020-09-06T08:42:47.361Z</time>
      </trkpt>
      <trkpt lat="48.4158" lon="7.29834">
        <ele>905</ele>
        <time>2020-09-06T08:42:48.362Z</time>
      </trkpt>
      <trkpt lat="48.41579" lon="7.29832">
        <ele>905</ele>
        <time>2020-09-06T08:42:49.362Z</time>
      </trkpt>
      <trkpt lat="48.41579" lon="7.2983">
        <ele>905</ele>
        <time>2020-09-06T08:42:50.361Z</time>
      </trkpt>
      <trkpt lat="48.41579" lon="7.29828">
        <ele>905</ele>
        <time>2020-09-06T08:42:51.361Z</time>
      </trkpt>
      <trkpt lat="48.41579" lon="7.29826">
        <ele>905</ele>
        <time>2020-09-06T08:42:52.361Z</time>
      </trkpt>
      <trkpt lat="48.41578" lon="7.29825">
        <ele>905</ele>
        <time>2020-09-06T08:42:53.362Z</time>
      </trkpt>
      <trkpt lat="48.41578" lon="7.29823">
        <ele>905</ele>
        <time>2020-09-06T08:42:54.361Z</time>
      </trkpt>
      <trkpt lat="48.41578" lon="7.29821">
        <ele>905</ele>
        <time>2020-09-06T08:42:55.361Z</time>
      </trkpt>
      <trkpt lat="48.41578" lon="7.29819">
        <ele>905</ele>
        <time>2020-09-06T08:42:56.361Z</time>
      </trkpt>
      <trkpt lat="48.41578" lon="7.29817">
        <ele>905</ele>
        <time>2020-09-06T08:42:57.362Z</time>
      </trkpt>
      <trkpt lat="48.41578" lon="7.29815">
        <ele>904</ele>
        <time>2020-09-06T08:42:58.362Z</time>
      </trkpt>
      <trkpt lat="48.41578" lon="7.29813">
        <ele>904</ele>
        <time>2020-09-06T08:42:59.362Z</time>
      </trkpt>
      <trkpt lat="48.41578" lon="7.29808">
        <ele>904</ele>
        <time>2020-09-06T08:43:00.361Z</time>
      </trkpt>
      <trkpt lat="48.41577" lon="7.29804">
        <ele>904</ele>
        <time>2020-09-06T08:43:01.361Z</time>
      </trkpt>
      <trkpt lat="48.41576" lon="7.29802">
        <ele>904</ele>
        <time>2020-09-06T08:43:02.362Z</time>
      </trkpt>
      <trkpt lat="48.41575" lon="7.298">
        <ele>903</ele>
        <time>2020-09-06T08:43:03.362Z</time>
      </trkpt>
      <trkpt lat="48.41574" lon="7.29799">
        <ele>903</ele>
        <time>2020-09-06T08:43:04.361Z</time>
      </trkpt>
      <trkpt lat="48.41574" lon="7.29797">
        <ele>903</ele>
        <time>2020-09-06T08:43:05.361Z</time>
      </trkpt>
      <trkpt lat="48.41574" lon="7.29795">
        <ele>903</ele>
        <time>2020-09-06T08:43:06.361Z</time>
      </trkpt>
      <trkpt lat="48.41574" lon="7.29794">
        <ele>903</ele>
        <time>2020-09-06T08:43:07.362Z</time>
      </trkpt>
      <trkpt lat="48.41574" lon="7.29792">
        <ele>903</ele>
        <time>2020-09-06T08:43:08.362Z</time>
      </trkpt>
      <trkpt lat="48.41575" lon="7.29791">
        <ele>903</ele>
        <time>2020-09-06T08:43:09.361Z</time>
      </trkpt>
      <trkpt lat="48.41575" lon="7.29789">
        <ele>902</ele>
        <time>2020-09-06T08:43:10.362Z</time>
      </trkpt>
      <trkpt lat="48.41575" lon="7.29788">
        <ele>902</ele>
        <time>2020-09-06T08:43:11.361Z</time>
      </trkpt>
      <trkpt lat="48.41574" lon="7.29786">
        <ele>902</ele>
        <time>2020-09-06T08:43:12.362Z</time>
      </trkpt>
      <trkpt lat="48.41574" lon="7.29785">
        <ele>902</ele>
        <time>2020-09-06T08:43:13.362Z</time>
      </trkpt>
      <trkpt lat="48.41574" lon="7.29785">
        <ele>901</ele>
        <time>2020-09-06T08:43:14.362Z</time>
      </trkpt>
      <trkpt lat="48.41574" lon="7.29786">
        <ele>901</ele>
        <time>2020-09-06T08:43:15.361Z</time>
      </trkpt>
      <trkpt lat="48.41574" lon="7.29788">
        <ele>902</ele>
        <time>2020-09-06T08:43:16.361Z</time>
      </trkpt>
      <trkpt lat="48.41574" lon="7.2979">
        <ele>902</ele>
        <time>2020-09-06T08:43:17.361Z</time>
      </trkpt>
      <trkpt lat="48.41575" lon="7.29789">
        <ele>894</ele>
        <time>2020-09-06T08:43:18.363Z</time>
      </trkpt>
      <trkpt lat="48.41572" lon="7.29778">
        <ele>906</ele>
        <time>2020-09-06T08:43:19.363Z</time>
      </trkpt>
      <trkpt lat="48.41572" lon="7.29774">
        <ele>906</ele>
        <time>2020-09-06T08:43:20.362Z</time>
      </trkpt>
      <trkpt lat="48.41572" lon="7.29771">
        <ele>906</ele>
        <time>2020-09-06T08:43:21.362Z</time>
      </trkpt>
      <trkpt lat="48.41572" lon="7.29768">
        <ele>907</ele>
        <time>2020-09-06T08:43:22.362Z</time>
      </trkpt>
      <trkpt lat="48.41571" lon="7.29765">
        <ele>907</ele>
        <time>2020-09-06T08:43:23.362Z</time>
      </trkpt>
      <trkpt lat="48.41571" lon="7.29762">
        <ele>907</ele>
        <time>2020-09-06T08:43:24.363Z</time>
      </trkpt>
      <trkpt lat="48.41571" lon="7.29758">
        <ele>907</ele>
        <time>2020-09-06T08:43:25.363Z</time>
      </trkpt>
      <trkpt lat="48.4157" lon="7.29754">
        <ele>907</ele>
        <time>2020-09-06T08:43:26.362Z</time>
      </trkpt>
      <trkpt lat="48.4157" lon="7.29753">
        <ele>907</ele>
        <time>2020-09-06T08:43:27.362Z</time>
      </trkpt>
      <trkpt lat="48.4157" lon="7.29751">
        <ele>907</ele>
        <time>2020-09-06T08:43:28.363Z</time>
      </trkpt>
      <trkpt lat="48.41569" lon="7.29748">
        <ele>906</ele>
        <time>2020-09-06T08:43:29.362Z</time>
      </trkpt>
      <trkpt lat="48.41569" lon="7.29746">
        <ele>906</ele>
        <time>2020-09-06T08:43:30.362Z</time>
      </trkpt>
      <trkpt lat="48.41569" lon="7.29744">
        <ele>906</ele>
        <time>2020-09-06T08:43:31.363Z</time>
      </trkpt>
      <trkpt lat="48.41569" lon="7.29743">
        <ele>906</ele>
        <time>2020-09-06T08:43:32.363Z</time>
      </trkpt>
      <trkpt lat="48.41569" lon="7.29741">
        <ele>905</ele>
        <time>2020-09-06T08:43:33.362Z</time>
      </trkpt>
      <trkpt lat="48.41569" lon="7.2974">
        <ele>905</ele>
        <time>2020-09-06T08:43:34.362Z</time>
      </trkpt>
      <trkpt lat="48.41569" lon="7.29738">
        <ele>905</ele>
        <time>2020-09-06T08:43:35.363Z</time>
      </trkpt>
      <trkpt lat="48.41569" lon="7.29737">
        <ele>905</ele>
        <time>2020-09-06T08:43:36.362Z</time>
      </trkpt>
      <trkpt lat="48.4157" lon="7.29734">
        <ele>905</ele>
        <time>2020-09-06T08:43:37.362Z</time>
      </trkpt>
      <trkpt lat="48.4157" lon="7.29733">
        <ele>905</ele>
        <time>2020-09-06T08:43:38.362Z</time>
      </trkpt>
      <trkpt lat="48.41569" lon="7.29731">
        <ele>906</ele>
        <time>2020-09-06T08:43:39.363Z</time>
      </trkpt>
      <trkpt lat="48.41569" lon="7.2973">
        <ele>906</ele>
        <time>2020-09-06T08:43:40.363Z</time>
      </trkpt>
      <trkpt lat="48.41569" lon="7.29729">
        <ele>906</ele>
        <time>2020-09-06T08:43:41.363Z</time>
      </trkpt>
      <trkpt lat="48.41568" lon="7.29728">
        <ele>905</ele>
        <time>2020-09-06T08:43:42.363Z</time>
      </trkpt>
      <trkpt lat="48.41568" lon="7.29726">
        <ele>905</ele>
        <time>2020-09-06T08:43:43.363Z</time>
      </trkpt>
      <trkpt lat="48.41569" lon="7.29724">
        <ele>905</ele>
        <time>2020-09-06T08:43:44.363Z</time>
      </trkpt>
      <trkpt lat="48.41569" lon="7.29721">
        <ele>905</ele>
        <time>2020-09-06T08:43:45.363Z</time>
      </trkpt>
      <trkpt lat="48.41569" lon="7.29719">
        <ele>905</ele>
        <time>2020-09-06T08:43:46.363Z</time>
      </trkpt>
      <trkpt lat="48.4157" lon="7.29716">
        <ele>905</ele>
        <time>2020-09-06T08:43:47.363Z</time>
      </trkpt>
      <trkpt lat="48.41569" lon="7.29714">
        <ele>905</ele>
        <time>2020-09-06T08:43:48.362Z</time>
      </trkpt>
      <trkpt lat="48.41569" lon="7.29711">
        <ele>905</ele>
        <time>2020-09-06T08:43:49.363Z</time>
      </trkpt>
      <trkpt lat="48.41569" lon="7.29709">
        <ele>906</ele>
        <time>2020-09-06T08:43:50.363Z</time>
      </trkpt>
      <trkpt lat="48.41569" lon="7.29707">
        <ele>906</ele>
        <time>2020-09-06T08:43:51.362Z</time>
      </trkpt>
      <trkpt lat="48.4157" lon="7.29705">
        <ele>906</ele>
        <time>2020-09-06T08:43:52.363Z</time>
      </trkpt>
      <trkpt lat="48.4157" lon="7.29704">
        <ele>906</ele>
        <time>2020-09-06T08:43:53.363Z</time>
      </trkpt>
      <trkpt lat="48.4157" lon="7.29703">
        <ele>907</ele>
        <time>2020-09-06T08:43:54.363Z</time>
      </trkpt>
      <trkpt lat="48.4157" lon="7.29701">
        <ele>907</ele>
        <time>2020-09-06T08:43:55.362Z</time>
      </trkpt>
      <trkpt lat="48.4157" lon="7.297">
        <ele>908</ele>
        <time>2020-09-06T08:43:56.363Z</time>
      </trkpt>
      <trkpt lat="48.41569" lon="7.29698">
        <ele>909</ele>
        <time>2020-09-06T08:43:57.362Z</time>
      </trkpt>
      <trkpt lat="48.41569" lon="7.29697">
        <ele>909</ele>
        <time>2020-09-06T08:43:58.363Z</time>
      </trkpt>
      <trkpt lat="48.41568" lon="7.29695">
        <ele>910</ele>
        <time>2020-09-06T08:43:59.362Z</time>
      </trkpt>
      <trkpt lat="48.41568" lon="7.29693">
        <ele>910</ele>
        <time>2020-09-06T08:44:00.363Z</time>
      </trkpt>
      <trkpt lat="48.41568" lon="7.29692">
        <ele>910</ele>
        <time>2020-09-06T08:44:01.363Z</time>
      </trkpt>
      <trkpt lat="48.41568" lon="7.2969">
        <ele>910</ele>
        <time>2020-09-06T08:44:02.363Z</time>
      </trkpt>
      <trkpt lat="48.41567" lon="7.29689">
        <ele>910</ele>
        <time>2020-09-06T08:44:03.363Z</time>
      </trkpt>
      <trkpt lat="48.41567" lon="7.29688">
        <ele>910</ele>
        <time>2020-09-06T08:44:04.363Z</time>
      </trkpt>
      <trkpt lat="48.41566" lon="7.29687">
        <ele>911</ele>
        <time>2020-09-06T08:44:05.363Z</time>
      </trkpt>
      <trkpt lat="48.41566" lon="7.29687">
        <ele>911</ele>
        <time>2020-09-06T08:44:06.363Z</time>
      </trkpt>
      <trkpt lat="48.41565" lon="7.29686">
        <ele>911</ele>
        <time>2020-09-06T08:44:07.363Z</time>
      </trkpt>
      <trkpt lat="48.41564" lon="7.29687">
        <ele>912</ele>
        <time>2020-09-06T08:44:08.362Z</time>
      </trkpt>
      <trkpt lat="48.41562" lon="7.29687">
        <ele>912</ele>
        <time>2020-09-06T08:44:09.363Z</time>
      </trkpt>
      <trkpt lat="48.41561" lon="7.29687">
        <ele>912</ele>
        <time>2020-09-06T08:44:10.363Z</time>
      </trkpt>
      <trkpt lat="48.4156" lon="7.29687">
        <ele>912</ele>
        <time>2020-09-06T08:44:11.363Z</time>
      </trkpt>
      <trkpt lat="48.41559" lon="7.29688">
        <ele>913</ele>
        <time>2020-09-06T08:44:12.362Z</time>
      </trkpt>
      <trkpt lat="48.41558" lon="7.29689">
        <ele>913</ele>
        <time>2020-09-06T08:44:13.363Z</time>
      </trkpt>
      <trkpt lat="48.41557" lon="7.2969">
        <ele>913</ele>
        <time>2020-09-06T08:44:14.363Z</time>
      </trkpt>
      <trkpt lat="48.41556" lon="7.2969">
        <ele>913</ele>
        <time>2020-09-06T08:44:15.362Z</time>
      </trkpt>
      <trkpt lat="48.41555" lon="7.2969">
        <ele>913</ele>
        <time>2020-09-06T08:44:16.363Z</time>
      </trkpt>
      <trkpt lat="48.41553" lon="7.29691">
        <ele>913</ele>
        <time>2020-09-06T08:44:17.363Z</time>
      </trkpt>
      <trkpt lat="48.41552" lon="7.29692">
        <ele>913</ele>
        <time>2020-09-06T08:44:18.363Z</time>
      </trkpt>
      <trkpt lat="48.4155" lon="7.29692">
        <ele>913</ele>
        <time>2020-09-06T08:44:19.362Z</time>
      </trkpt>
      <trkpt lat="48.41549" lon="7.29694">
        <ele>914</ele>
        <time>2020-09-06T08:44:20.363Z</time>
      </trkpt>
      <trkpt lat="48.41548" lon="7.29694">
        <ele>914</ele>
        <time>2020-09-06T08:44:21.363Z</time>
      </trkpt>
      <trkpt lat="48.41547" lon="7.29693">
        <ele>914</ele>
        <time>2020-09-06T08:44:22.363Z</time>
      </trkpt>
      <trkpt lat="48.41546" lon="7.29693">
        <ele>914</ele>
        <time>2020-09-06T08:44:23.362Z</time>
      </trkpt>
      <trkpt lat="48.41545" lon="7.29692">
        <ele>914</ele>
        <time>2020-09-06T08:44:24.362Z</time>
      </trkpt>
      <trkpt lat="48.41545" lon="7.29691">
        <ele>913</ele>
        <time>2020-09-06T08:44:25.363Z</time>
      </trkpt>
      <trkpt lat="48.41543" lon="7.29689">
        <ele>913</ele>
        <time>2020-09-06T08:44:26.363Z</time>
      </trkpt>
      <trkpt lat="48.41542" lon="7.29689">
        <ele>913</ele>
        <time>2020-09-06T08:44:27.363Z</time>
      </trkpt>
      <trkpt lat="48.41541" lon="7.29689">
        <ele>912</ele>
        <time>2020-09-06T08:44:28.362Z</time>
      </trkpt>
      <trkpt lat="48.4154" lon="7.29689">
        <ele>912</ele>
        <time>2020-09-06T08:44:29.363Z</time>
      </trkpt>
      <trkpt lat="48.41539" lon="7.29688">
        <ele>912</ele>
        <time>2020-09-06T08:44:30.363Z</time>
      </trkpt>
      <trkpt lat="48.41539" lon="7.29688">
        <ele>913</ele>
        <time>2020-09-06T08:44:31.363Z</time>
      </trkpt>
      <trkpt lat="48.41538" lon="7.29689">
        <ele>913</ele>
        <time>2020-09-06T08:44:32.362Z</time>
      </trkpt>
      <trkpt lat="48.41537" lon="7.29689">
        <ele>914</ele>
        <time>2020-09-06T08:44:33.362Z</time>
      </trkpt>
      <trkpt lat="48.41536" lon="7.29689">
        <ele>915</ele>
        <time>2020-09-06T08:44:34.362Z</time>
      </trkpt>
      <trkpt lat="48.41535" lon="7.29688">
        <ele>915</ele>
        <time>2020-09-06T08:44:35.362Z</time>
      </trkpt>
      <trkpt lat="48.41533" lon="7.29688">
        <ele>915</ele>
        <time>2020-09-06T08:44:36.362Z</time>
      </trkpt>
      <trkpt lat="48.41532" lon="7.29688">
        <ele>916</ele>
        <time>2020-09-06T08:44:37.362Z</time>
      </trkpt>
      <trkpt lat="48.41531" lon="7.29688">
        <ele>916</ele>
        <time>2020-09-06T08:44:38.363Z</time>
      </trkpt>
      <trkpt lat="48.4153" lon="7.29687">
        <ele>916</ele>
        <time>2020-09-06T08:44:39.363Z</time>
      </trkpt>
      <trkpt lat="48.41528" lon="7.29688">
        <ele>916</ele>
        <time>2020-09-06T08:44:40.362Z</time>
      </trkpt>
      <trkpt lat="48.41527" lon="7.29687">
        <ele>917</ele>
        <time>2020-09-06T08:44:41.363Z</time>
      </trkpt>
      <trkpt lat="48.41526" lon="7.29687">
        <ele>917</ele>
        <time>2020-09-06T08:44:42.363Z</time>
      </trkpt>
      <trkpt lat="48.41525" lon="7.29687">
        <ele>918</ele>
        <time>2020-09-06T08:44:43.363Z</time>
      </trkpt>
      <trkpt lat="48.41524" lon="7.29687">
        <ele>918</ele>
        <time>2020-09-06T08:44:44.362Z</time>
      </trkpt>
      <trkpt lat="48.41523" lon="7.29687">
        <ele>919</ele>
        <time>2020-09-06T08:44:45.362Z</time>
      </trkpt>
      <trkpt lat="48.41522" lon="7.29687">
        <ele>919</ele>
        <time>2020-09-06T08:44:46.363Z</time>
      </trkpt>
      <trkpt lat="48.4152" lon="7.29686">
        <ele>919</ele>
        <time>2020-09-06T08:44:47.363Z</time>
      </trkpt>
      <trkpt lat="48.41519" lon="7.29685">
        <ele>919</ele>
        <time>2020-09-06T08:44:48.362Z</time>
      </trkpt>
      <trkpt lat="48.41518" lon="7.29685">
        <ele>919</ele>
        <time>2020-09-06T08:44:49.363Z</time>
      </trkpt>
      <trkpt lat="48.41518" lon="7.29684">
        <ele>919</ele>
        <time>2020-09-06T08:44:50.362Z</time>
      </trkpt>
      <trkpt lat="48.41517" lon="7.29684">
        <ele>919</ele>
        <time>2020-09-06T08:44:51.363Z</time>
      </trkpt>
      <trkpt lat="48.41516" lon="7.29682">
        <ele>919</ele>
        <time>2020-09-06T08:44:52.362Z</time>
      </trkpt>
      <trkpt lat="48.41515" lon="7.29681">
        <ele>919</ele>
        <time>2020-09-06T08:44:53.363Z</time>
      </trkpt>
      <trkpt lat="48.41514" lon="7.2968">
        <ele>919</ele>
        <time>2020-09-06T08:44:54.362Z</time>
      </trkpt>
      <trkpt lat="48.41514" lon="7.2968">
        <ele>920</ele>
        <time>2020-09-06T08:44:55.362Z</time>
      </trkpt>
      <trkpt lat="48.41512" lon="7.29679">
        <ele>920</ele>
        <time>2020-09-06T08:44:56.363Z</time>
      </trkpt>
      <trkpt lat="48.41511" lon="7.29679">
        <ele>920</ele>
        <time>2020-09-06T08:44:57.362Z</time>
      </trkpt>
      <trkpt lat="48.41509" lon="7.29679">
        <ele>920</ele>
        <time>2020-09-06T08:44:58.363Z</time>
      </trkpt>
      <trkpt lat="48.41508" lon="7.29677">
        <ele>920</ele>
        <time>2020-09-06T08:44:59.362Z</time>
      </trkpt>
      <trkpt lat="48.41508" lon="7.29676">
        <ele>920</ele>
        <time>2020-09-06T08:45:00.363Z</time>
      </trkpt>
      <trkpt lat="48.41507" lon="7.29674">
        <ele>920</ele>
        <time>2020-09-06T08:45:01.362Z</time>
      </trkpt>
      <trkpt lat="48.41505" lon="7.29673">
        <ele>920</ele>
        <time>2020-09-06T08:45:02.363Z</time>
      </trkpt>
      <trkpt lat="48.41505" lon="7.29673">
        <ele>920</ele>
        <time>2020-09-06T08:45:03.362Z</time>
      </trkpt>
      <trkpt lat="48.41504" lon="7.29672">
        <ele>920</ele>
        <time>2020-09-06T08:45:04.363Z</time>
      </trkpt>
      <trkpt lat="48.41504" lon="7.29671">
        <ele>920</ele>
        <time>2020-09-06T08:45:05.362Z</time>
      </trkpt>
      <trkpt lat="48.41504" lon="7.2967">
        <ele>920</ele>
        <time>2020-09-06T08:45:06.363Z</time>
      </trkpt>
      <trkpt lat="48.41504" lon="7.29669">
        <ele>919</ele>
        <time>2020-09-06T08:45:07.363Z</time>
      </trkpt>
      <trkpt lat="48.41503" lon="7.29668">
        <ele>919</ele>
        <time>2020-09-06T08:45:08.363Z</time>
      </trkpt>
      <trkpt lat="48.41502" lon="7.29667">
        <ele>918</ele>
        <time>2020-09-06T08:45:09.362Z</time>
      </trkpt>
      <trkpt lat="48.41501" lon="7.29666">
        <ele>918</ele>
        <time>2020-09-06T08:45:10.363Z</time>
      </trkpt>
      <trkpt lat="48.415" lon="7.29665">
        <ele>918</ele>
        <time>2020-09-06T08:45:11.363Z</time>
      </trkpt>
      <trkpt lat="48.41499" lon="7.29664">
        <ele>919</ele>
        <time>2020-09-06T08:45:12.363Z</time>
      </trkpt>
      <trkpt lat="48.41499" lon="7.29663">
        <ele>918</ele>
        <time>2020-09-06T08:45:13.362Z</time>
      </trkpt>
      <trkpt lat="48.41498" lon="7.29662">
        <ele>918</ele>
        <time>2020-09-06T08:45:14.363Z</time>
      </trkpt>
      <trkpt lat="48.41497" lon="7.29661">
        <ele>918</ele>
        <time>2020-09-06T08:45:15.363Z</time>
      </trkpt>
      <trkpt lat="48.41496" lon="7.29661">
        <ele>917</ele>
        <time>2020-09-06T08:45:16.363Z</time>
      </trkpt>
      <trkpt lat="48.41495" lon="7.2966">
        <ele>917</ele>
        <time>2020-09-06T08:45:17.363Z</time>
      </trkpt>
      <trkpt lat="48.41494" lon="7.2966">
        <ele>917</ele>
        <time>2020-09-06T08:45:18.362Z</time>
      </trkpt>
      <trkpt lat="48.41493" lon="7.29659">
        <ele>917</ele>
        <time>2020-09-06T08:45:19.362Z</time>
      </trkpt>
      <trkpt lat="48.41492" lon="7.29658">
        <ele>917</ele>
        <time>2020-09-06T08:45:20.363Z</time>
      </trkpt>
      <trkpt lat="48.41491" lon="7.29657">
        <ele>917</ele>
        <time>2020-09-06T08:45:21.362Z</time>
      </trkpt>
      <trkpt lat="48.4149" lon="7.29657">
        <ele>918</ele>
        <time>2020-09-06T08:45:22.363Z</time>
      </trkpt>
      <trkpt lat="48.4149" lon="7.29656">
        <ele>918</ele>
        <time>2020-09-06T08:45:23.363Z</time>
      </trkpt>
      <trkpt lat="48.41489" lon="7.29656">
        <ele>918</ele>
        <time>2020-09-06T08:45:24.363Z</time>
      </trkpt>
      <trkpt lat="48.41488" lon="7.29655">
        <ele>918</ele>
        <time>2020-09-06T08:45:25.363Z</time>
      </trkpt>
      <trkpt lat="48.41486" lon="7.29654">
        <ele>918</ele>
        <time>2020-09-06T08:45:26.362Z</time>
      </trkpt>
      <trkpt lat="48.41485" lon="7.29653">
        <ele>918</ele>
        <time>2020-09-06T08:45:27.363Z</time>
      </trkpt>
      <trkpt lat="48.41484" lon="7.29652">
        <ele>919</ele>
        <time>2020-09-06T08:45:28.363Z</time>
      </trkpt>
      <trkpt lat="48.41483" lon="7.29651">
        <ele>919</ele>
        <time>2020-09-06T08:45:29.363Z</time>
      </trkpt>
      <trkpt lat="48.41481" lon="7.2965">
        <ele>919</ele>
        <time>2020-09-06T08:45:30.362Z</time>
      </trkpt>
      <trkpt lat="48.41481" lon="7.29648">
        <ele>919</ele>
        <time>2020-09-06T08:45:31.362Z</time>
      </trkpt>
      <trkpt lat="48.41479" lon="7.29647">
        <ele>920</ele>
        <time>2020-09-06T08:45:32.362Z</time>
      </trkpt>
      <trkpt lat="48.41478" lon="7.29646">
        <ele>920</ele>
        <time>2020-09-06T08:45:33.363Z</time>
      </trkpt>
      <trkpt lat="48.41477" lon="7.29645">
        <ele>920</ele>
        <time>2020-09-06T08:45:34.363Z</time>
      </trkpt>
      <trkpt lat="48.41477" lon="7.29644">
        <ele>919</ele>
        <time>2020-09-06T08:45:35.363Z</time>
      </trkpt>
      <trkpt lat="48.41476" lon="7.29644">
        <ele>919</ele>
        <time>2020-09-06T08:45:36.363Z</time>
      </trkpt>
      <trkpt lat="48.41476" lon="7.29643">
        <ele>918</ele>
        <time>2020-09-06T08:45:37.363Z</time>
      </trkpt>
      <trkpt lat="48.41475" lon="7.29642">
        <ele>918</ele>
        <time>2020-09-06T08:45:38.363Z</time>
      </trkpt>
      <trkpt lat="48.41475" lon="7.2964">
        <ele>918</ele>
        <time>2020-09-06T08:45:39.363Z</time>
      </trkpt>
      <trkpt lat="48.41474" lon="7.29639">
        <ele>918</ele>
        <time>2020-09-06T08:45:40.362Z</time>
      </trkpt>
      <trkpt lat="48.41472" lon="7.29638">
        <ele>918</ele>
        <time>2020-09-06T08:45:41.363Z</time>
      </trkpt>
      <trkpt lat="48.41471" lon="7.29638">
        <ele>917</ele>
        <time>2020-09-06T08:45:42.362Z</time>
      </trkpt>
      <trkpt lat="48.4147" lon="7.29638">
        <ele>917</ele>
        <time>2020-09-06T08:45:43.363Z</time>
      </trkpt>
      <trkpt lat="48.41469" lon="7.29636">
        <ele>916</ele>
        <time>2020-09-06T08:45:44.363Z</time>
      </trkpt>
      <trkpt lat="48.41468" lon="7.29635">
        <ele>916</ele>
        <time>2020-09-06T08:45:45.362Z</time>
      </trkpt>
      <trkpt lat="48.41467" lon="7.29635">
        <ele>916</ele>
        <time>2020-09-06T08:45:46.363Z</time>
      </trkpt>
      <trkpt lat="48.41466" lon="7.29634">
        <ele>916</ele>
        <time>2020-09-06T08:45:47.363Z</time>
      </trkpt>
      <trkpt lat="48.41465" lon="7.29634">
        <ele>916</ele>
        <time>2020-09-06T08:45:48.363Z</time>
      </trkpt>
      <trkpt lat="48.41464" lon="7.29632">
        <ele>917</ele>
        <time>2020-09-06T08:45:49.363Z</time>
      </trkpt>
      <trkpt lat="48.41463" lon="7.29631">
        <ele>917</ele>
        <time>2020-09-06T08:45:50.363Z</time>
      </trkpt>
      <trkpt lat="48.41463" lon="7.29629">
        <ele>917</ele>
        <time>2020-09-06T08:45:51.363Z</time>
      </trkpt>
      <trkpt lat="48.41462" lon="7.29628">
        <ele>918</ele>
        <time>2020-09-06T08:45:52.362Z</time>
      </trkpt>
      <trkpt lat="48.41462" lon="7.29627">
        <ele>918</ele>
        <time>2020-09-06T08:45:53.363Z</time>
      </trkpt>
      <trkpt lat="48.41461" lon="7.29626">
        <ele>917</ele>
        <time>2020-09-06T08:45:54.363Z</time>
      </trkpt>
      <trkpt lat="48.4146" lon="7.29625">
        <ele>917</ele>
        <time>2020-09-06T08:45:55.362Z</time>
      </trkpt>
      <trkpt lat="48.41459" lon="7.29624">
        <ele>918</ele>
        <time>2020-09-06T08:45:56.363Z</time>
      </trkpt>
      <trkpt lat="48.41458" lon="7.29624">
        <ele>918</ele>
        <time>2020-09-06T08:45:57.363Z</time>
      </trkpt>
      <trkpt lat="48.41457" lon="7.29624">
        <ele>918</ele>
        <time>2020-09-06T08:45:58.363Z</time>
      </trkpt>
      <trkpt lat="48.41456" lon="7.29622">
        <ele>919</ele>
        <time>2020-09-06T08:45:59.362Z</time>
      </trkpt>
      <trkpt lat="48.41456" lon="7.29621">
        <ele>919</ele>
        <time>2020-09-06T08:46:00.363Z</time>
      </trkpt>
      <trkpt lat="48.41455" lon="7.2962">
        <ele>919</ele>
        <time>2020-09-06T08:46:01.363Z</time>
      </trkpt>
      <trkpt lat="48.41455" lon="7.29619">
        <ele>919</ele>
        <time>2020-09-06T08:46:02.362Z</time>
      </trkpt>
      <trkpt lat="48.41454" lon="7.29618">
        <ele>920</ele>
        <time>2020-09-06T08:46:03.363Z</time>
      </trkpt>
      <trkpt lat="48.41454" lon="7.29617">
        <ele>920</ele>
        <time>2020-09-06T08:46:04.362Z</time>
      </trkpt>
      <trkpt lat="48.41453" lon="7.29615">
        <ele>920</ele>
        <time>2020-09-06T08:46:05.363Z</time>
      </trkpt>
      <trkpt lat="48.41453" lon="7.29613">
        <ele>921</ele>
        <time>2020-09-06T08:46:06.363Z</time>
      </trkpt>
      <trkpt lat="48.41453" lon="7.29612">
        <ele>921</ele>
        <time>2020-09-06T08:46:07.362Z</time>
      </trkpt>
      <trkpt lat="48.41452" lon="7.2961">
        <ele>922</ele>
        <time>2020-09-06T08:46:08.363Z</time>
      </trkpt>
      <trkpt lat="48.41451" lon="7.29608">
        <ele>921</ele>
        <time>2020-09-06T08:46:09.363Z</time>
      </trkpt>
      <trkpt lat="48.4145" lon="7.29606">
        <ele>921</ele>
        <time>2020-09-06T08:46:10.363Z</time>
      </trkpt>
      <trkpt lat="48.41449" lon="7.29604">
        <ele>921</ele>
        <time>2020-09-06T08:46:11.363Z</time>
      </trkpt>
      <trkpt lat="48.41449" lon="7.29603">
        <ele>921</ele>
        <time>2020-09-06T08:46:12.362Z</time>
      </trkpt>
      <trkpt lat="48.41448" lon="7.29602">
        <ele>921</ele>
        <time>2020-09-06T08:46:13.363Z</time>
      </trkpt>
      <trkpt lat="48.41448" lon="7.29602">
        <ele>921</ele>
        <time>2020-09-06T08:46:14.363Z</time>
      </trkpt>
      <trkpt lat="48.41448" lon="7.29602">
        <ele>921</ele>
        <time>2020-09-06T08:46:15.363Z</time>
      </trkpt>
      <trkpt lat="48.41447" lon="7.29601">
        <ele>922</ele>
        <time>2020-09-06T08:46:16.363Z</time>
      </trkpt>
      <trkpt lat="48.41447" lon="7.296">
        <ele>921</ele>
        <time>2020-09-06T08:46:17.362Z</time>
      </trkpt>
      <trkpt lat="48.41446" lon="7.29599">
        <ele>921</ele>
        <time>2020-09-06T08:46:18.363Z</time>
      </trkpt>
      <trkpt lat="48.41445" lon="7.29598">
        <ele>921</ele>
        <time>2020-09-06T08:46:19.362Z</time>
      </trkpt>
      <trkpt lat="48.41445" lon="7.29597">
        <ele>921</ele>
        <time>2020-09-06T08:46:20.363Z</time>
      </trkpt>
      <trkpt lat="48.41444" lon="7.29596">
        <ele>921</ele>
        <time>2020-09-06T08:46:21.363Z</time>
      </trkpt>
      <trkpt lat="48.41444" lon="7.29595">
        <ele>921</ele>
        <time>2020-09-06T08:46:22.362Z</time>
      </trkpt>
      <trkpt lat="48.41444" lon="7.29594">
        <ele>922</ele>
        <time>2020-09-06T08:46:23.363Z</time>
      </trkpt>
      <trkpt lat="48.41444" lon="7.29592">
        <ele>922</ele>
        <time>2020-09-06T08:46:24.363Z</time>
      </trkpt>
      <trkpt lat="48.41444" lon="7.29591">
        <ele>922</ele>
        <time>2020-09-06T08:46:25.363Z</time>
      </trkpt>
      <trkpt lat="48.41444" lon="7.29589">
        <ele>923</ele>
        <time>2020-09-06T08:46:26.363Z</time>
      </trkpt>
      <trkpt lat="48.41443" lon="7.29588">
        <ele>923</ele>
        <time>2020-09-06T08:46:27.362Z</time>
      </trkpt>
      <trkpt lat="48.41443" lon="7.29586">
        <ele>923</ele>
        <time>2020-09-06T08:46:28.363Z</time>
      </trkpt>
      <trkpt lat="48.41442" lon="7.29584">
        <ele>923</ele>
        <time>2020-09-06T08:46:29.363Z</time>
      </trkpt>
      <trkpt lat="48.41441" lon="7.29583">
        <ele>924</ele>
        <time>2020-09-06T08:46:30.363Z</time>
      </trkpt>
      <trkpt lat="48.41439" lon="7.29582">
        <ele>925</ele>
        <time>2020-09-06T08:46:31.363Z</time>
      </trkpt>
      <trkpt lat="48.41438" lon="7.2958">
        <ele>925</ele>
        <time>2020-09-06T08:46:32.363Z</time>
      </trkpt>
      <trkpt lat="48.41437" lon="7.29576">
        <ele>926</ele>
        <time>2020-09-06T08:46:33.363Z</time>
      </trkpt>
      <trkpt lat="48.41437" lon="7.29573">
        <ele>926</ele>
        <time>2020-09-06T08:46:34.363Z</time>
      </trkpt>
      <trkpt lat="48.41436" lon="7.29571">
        <ele>927</ele>
        <time>2020-09-06T08:46:35.363Z</time>
      </trkpt>
      <trkpt lat="48.41436" lon="7.29569">
        <ele>927</ele>
        <time>2020-09-06T08:46:36.362Z</time>
      </trkpt>
      <trkpt lat="48.41435" lon="7.29568">
        <ele>927</ele>
        <time>2020-09-06T08:46:37.363Z</time>
      </trkpt>
      <trkpt lat="48.41434" lon="7.29567">
        <ele>928</ele>
        <time>2020-09-06T08:46:38.362Z</time>
      </trkpt>
      <trkpt lat="48.41434" lon="7.29566">
        <ele>928</ele>
        <time>2020-09-06T08:46:39.362Z</time>
      </trkpt>
      <trkpt lat="48.41433" lon="7.29565">
        <ele>928</ele>
        <time>2020-09-06T08:46:40.362Z</time>
      </trkpt>
      <trkpt lat="48.41432" lon="7.29564">
        <ele>929</ele>
        <time>2020-09-06T08:46:41.363Z</time>
      </trkpt>
      <trkpt lat="48.41431" lon="7.29562">
        <ele>929</ele>
        <time>2020-09-06T08:46:42.363Z</time>
      </trkpt>
      <trkpt lat="48.4143" lon="7.29561">
        <ele>929</ele>
        <time>2020-09-06T08:46:43.363Z</time>
      </trkpt>
      <trkpt lat="48.4143" lon="7.29559">
        <ele>929</ele>
        <time>2020-09-06T08:46:44.363Z</time>
      </trkpt>
      <trkpt lat="48.4143" lon="7.29559">
        <ele>929</ele>
        <time>2020-09-06T08:46:45.362Z</time>
      </trkpt>
      <trkpt lat="48.41429" lon="7.29557">
        <ele>929</ele>
        <time>2020-09-06T08:46:46.363Z</time>
      </trkpt>
      <trkpt lat="48.41429" lon="7.29555">
        <ele>930</ele>
        <time>2020-09-06T08:46:47.363Z</time>
      </trkpt>
      <trkpt lat="48.41428" lon="7.29555">
        <ele>930</ele>
        <time>2020-09-06T08:46:48.362Z</time>
      </trkpt>
      <trkpt lat="48.41427" lon="7.29554">
        <ele>930</ele>
        <time>2020-09-06T08:46:49.363Z</time>
      </trkpt>
      <trkpt lat="48.41426" lon="7.29553">
        <ele>930</ele>
        <time>2020-09-06T08:46:50.363Z</time>
      </trkpt>
      <trkpt lat="48.41425" lon="7.29552">
        <ele>929</ele>
        <time>2020-09-06T08:46:51.363Z</time>
      </trkpt>
      <trkpt lat="48.41425" lon="7.29551">
        <ele>929</ele>
        <time>2020-09-06T08:46:52.363Z</time>
      </trkpt>
      <trkpt lat="48.41425" lon="7.29549">
        <ele>929</ele>
        <time>2020-09-06T08:46:53.363Z</time>
      </trkpt>
      <trkpt lat="48.41425" lon="7.29548">
        <ele>929</ele>
        <time>2020-09-06T08:46:54.363Z</time>
      </trkpt>
      <trkpt lat="48.41425" lon="7.29546">
        <ele>928</ele>
        <time>2020-09-06T08:46:55.362Z</time>
      </trkpt>
      <trkpt lat="48.41425" lon="7.29545">
        <ele>928</ele>
        <time>2020-09-06T08:46:56.363Z</time>
      </trkpt>
      <trkpt lat="48.41424" lon="7.29544">
        <ele>928</ele>
        <time>2020-09-06T08:46:57.362Z</time>
      </trkpt>
      <trkpt lat="48.41424" lon="7.29543">
        <ele>928</ele>
        <time>2020-09-06T08:46:58.363Z</time>
      </trkpt>
      <trkpt lat="48.41424" lon="7.29542">
        <ele>929</ele>
        <time>2020-09-06T08:46:59.363Z</time>
      </trkpt>
      <trkpt lat="48.41423" lon="7.2954">
        <ele>929</ele>
        <time>2020-09-06T08:47:00.363Z</time>
      </trkpt>
      <trkpt lat="48.41423" lon="7.29539">
        <ele>930</ele>
        <time>2020-09-06T08:47:01.362Z</time>
      </trkpt>
      <trkpt lat="48.41423" lon="7.29538">
        <ele>930</ele>
        <time>2020-09-06T08:47:02.363Z</time>
      </trkpt>
      <trkpt lat="48.41423" lon="7.29537">
        <ele>931</ele>
        <time>2020-09-06T08:47:03.363Z</time>
      </trkpt>
      <trkpt lat="48.41422" lon="7.29535">
        <ele>932</ele>
        <time>2020-09-06T08:47:04.363Z</time>
      </trkpt>
      <trkpt lat="48.41421" lon="7.29533">
        <ele>932</ele>
        <time>2020-09-06T08:47:05.362Z</time>
      </trkpt>
      <trkpt lat="48.4142" lon="7.29532">
        <ele>933</ele>
        <time>2020-09-06T08:47:06.363Z</time>
      </trkpt>
      <trkpt lat="48.41419" lon="7.29531">
        <ele>934</ele>
        <time>2020-09-06T08:47:07.362Z</time>
      </trkpt>
      <trkpt lat="48.41419" lon="7.2953">
        <ele>935</ele>
        <time>2020-09-06T08:47:08.362Z</time>
      </trkpt>
      <trkpt lat="48.41418" lon="7.29529">
        <ele>935</ele>
        <time>2020-09-06T08:47:09.362Z</time>
      </trkpt>
      <trkpt lat="48.41418" lon="7.29528">
        <ele>936</ele>
        <time>2020-09-06T08:47:10.362Z</time>
      </trkpt>
      <trkpt lat="48.41418" lon="7.29527">
        <ele>936</ele>
        <time>2020-09-06T08:47:11.363Z</time>
      </trkpt>
      <trkpt lat="48.41417" lon="7.29526">
        <ele>936</ele>
        <time>2020-09-06T08:47:12.363Z</time>
      </trkpt>
      <trkpt lat="48.41417" lon="7.29525">
        <ele>937</ele>
        <time>2020-09-06T08:47:13.363Z</time>
      </trkpt>
      <trkpt lat="48.41416" lon="7.29524">
        <ele>937</ele>
        <time>2020-09-06T08:47:14.363Z</time>
      </trkpt>
      <trkpt lat="48.41416" lon="7.29522">
        <ele>937</ele>
        <time>2020-09-06T08:47:15.363Z</time>
      </trkpt>
      <trkpt lat="48.41416" lon="7.29521">
        <ele>938</ele>
        <time>2020-09-06T08:47:16.363Z</time>
      </trkpt>
      <trkpt lat="48.41415" lon="7.29519">
        <ele>938</ele>
        <time>2020-09-06T08:47:17.362Z</time>
      </trkpt>
      <trkpt lat="48.41415" lon="7.29518">
        <ele>938</ele>
        <time>2020-09-06T08:47:18.363Z</time>
      </trkpt>
      <trkpt lat="48.41414" lon="7.29517">
        <ele>938</ele>
        <time>2020-09-06T08:47:19.363Z</time>
      </trkpt>
      <trkpt lat="48.41413" lon="7.29516">
        <ele>939</ele>
        <time>2020-09-06T08:47:20.362Z</time>
      </trkpt>
      <trkpt lat="48.41412" lon="7.29514">
        <ele>939</ele>
        <time>2020-09-06T08:47:21.363Z</time>
      </trkpt>
      <trkpt lat="48.41412" lon="7.29513">
        <ele>939</ele>
        <time>2020-09-06T08:47:22.362Z</time>
      </trkpt>
      <trkpt lat="48.41412" lon="7.29511">
        <ele>939</ele>
        <time>2020-09-06T08:47:23.363Z</time>
      </trkpt>
      <trkpt lat="48.41411" lon="7.2951">
        <ele>939</ele>
        <time>2020-09-06T08:47:24.363Z</time>
      </trkpt>
      <trkpt lat="48.41411" lon="7.29508">
        <ele>938</ele>
        <time>2020-09-06T08:47:25.362Z</time>
      </trkpt>
      <trkpt lat="48.4141" lon="7.29507">
        <ele>938</ele>
        <time>2020-09-06T08:47:26.362Z</time>
      </trkpt>
      <trkpt lat="48.41409" lon="7.29506">
        <ele>938</ele>
        <time>2020-09-06T08:47:27.363Z</time>
      </trkpt>
      <trkpt lat="48.41409" lon="7.29505">
        <ele>938</ele>
        <time>2020-09-06T08:47:28.362Z</time>
      </trkpt>
      <trkpt lat="48.41408" lon="7.29505">
        <ele>938</ele>
        <time>2020-09-06T08:47:29.362Z</time>
      </trkpt>
      <trkpt lat="48.41407" lon="7.29504">
        <ele>938</ele>
        <time>2020-09-06T08:47:30.362Z</time>
      </trkpt>
      <trkpt lat="48.41406" lon="7.29503">
        <ele>939</ele>
        <time>2020-09-06T08:47:31.363Z</time>
      </trkpt>
      <trkpt lat="48.41406" lon="7.29502">
        <ele>939</ele>
        <time>2020-09-06T08:47:32.363Z</time>
      </trkpt>
      <trkpt lat="48.41405" lon="7.295">
        <ele>939</ele>
        <time>2020-09-06T08:47:33.363Z</time>
      </trkpt>
      <trkpt lat="48.41404" lon="7.29499">
        <ele>940</ele>
        <time>2020-09-06T08:47:34.363Z</time>
      </trkpt>
      <trkpt lat="48.41404" lon="7.29497">
        <ele>940</ele>
        <time>2020-09-06T08:47:35.363Z</time>
      </trkpt>
      <trkpt lat="48.41403" lon="7.29496">
        <ele>940</ele>
        <time>2020-09-06T08:47:36.362Z</time>
      </trkpt>
      <trkpt lat="48.41403" lon="7.29495">
        <ele>940</ele>
        <time>2020-09-06T08:47:37.363Z</time>
      </trkpt>
      <trkpt lat="48.41402" lon="7.29493">
        <ele>940</ele>
        <time>2020-09-06T08:47:38.363Z</time>
      </trkpt>
      <trkpt lat="48.41402" lon="7.29492">
        <ele>939</ele>
        <time>2020-09-06T08:47:39.362Z</time>
      </trkpt>
      <trkpt lat="48.41401" lon="7.29491">
        <ele>939</ele>
        <time>2020-09-06T08:47:40.362Z</time>
      </trkpt>
      <trkpt lat="48.41401" lon="7.29489">
        <ele>939</ele>
        <time>2020-09-06T08:47:41.363Z</time>
      </trkpt>
      <trkpt lat="48.41399" lon="7.29485">
        <ele>939</ele>
        <time>2020-09-06T08:47:42.363Z</time>
      </trkpt>
      <trkpt lat="48.41399" lon="7.29483">
        <ele>939</ele>
        <time>2020-09-06T08:47:43.363Z</time>
      </trkpt>
      <trkpt lat="48.41398" lon="7.29481">
        <ele>940</ele>
        <time>2020-09-06T08:47:44.363Z</time>
      </trkpt>
      <trkpt lat="48.41398" lon="7.2948">
        <ele>940</ele>
        <time>2020-09-06T08:47:45.362Z</time>
      </trkpt>
      <trkpt lat="48.41397" lon="7.29479">
        <ele>940</ele>
        <time>2020-09-06T08:47:46.363Z</time>
      </trkpt>
      <trkpt lat="48.41396" lon="7.29478">
        <ele>941</ele>
        <time>2020-09-06T08:47:47.362Z</time>
      </trkpt>
      <trkpt lat="48.41395" lon="7.29477">
        <ele>941</ele>
        <time>2020-09-06T08:47:48.363Z</time>
      </trkpt>
      <trkpt lat="48.41395" lon="7.29476">
        <ele>941</ele>
        <time>2020-09-06T08:47:49.363Z</time>
      </trkpt>
      <trkpt lat="48.41394" lon="7.29475">
        <ele>941</ele>
        <time>2020-09-06T08:47:50.363Z</time>
      </trkpt>
      <trkpt lat="48.41393" lon="7.29473">
        <ele>941</ele>
        <time>2020-09-06T08:47:51.363Z</time>
      </trkpt>
      <trkpt lat="48.41393" lon="7.29471">
        <ele>940</ele>
        <time>2020-09-06T08:47:52.363Z</time>
      </trkpt>
      <trkpt lat="48.41392" lon="7.29469">
        <ele>940</ele>
        <time>2020-09-06T08:47:53.363Z</time>
      </trkpt>
      <trkpt lat="48.41392" lon="7.29468">
        <ele>939</ele>
        <time>2020-09-06T08:47:54.362Z</time>
      </trkpt>
      <trkpt lat="48.41391" lon="7.29466">
        <ele>938</ele>
        <time>2020-09-06T08:47:55.362Z</time>
      </trkpt>
      <trkpt lat="48.4139" lon="7.29465">
        <ele>938</ele>
        <time>2020-09-06T08:47:56.363Z</time>
      </trkpt>
      <trkpt lat="48.41389" lon="7.29464">
        <ele>937</ele>
        <time>2020-09-06T08:47:57.363Z</time>
      </trkpt>
      <trkpt lat="48.41388" lon="7.29462">
        <ele>936</ele>
        <time>2020-09-06T08:47:58.363Z</time>
      </trkpt>
      <trkpt lat="48.41387" lon="7.29461">
        <ele>935</ele>
        <time>2020-09-06T08:47:59.362Z</time>
      </trkpt>
      <trkpt lat="48.41386" lon="7.2946">
        <ele>935</ele>
        <time>2020-09-06T08:48:00.362Z</time>
      </trkpt>
      <trkpt lat="48.41385" lon="7.29459">
        <ele>935</ele>
        <time>2020-09-06T08:48:01.362Z</time>
      </trkpt>
      <trkpt lat="48.41384" lon="7.29457">
        <ele>935</ele>
        <time>2020-09-06T08:48:02.363Z</time>
      </trkpt>
      <trkpt lat="48.41384" lon="7.29456">
        <ele>935</ele>
        <time>2020-09-06T08:48:03.363Z</time>
      </trkpt>
      <trkpt lat="48.41383" lon="7.29454">
        <ele>935</ele>
        <time>2020-09-06T08:48:04.363Z</time>
      </trkpt>
      <trkpt lat="48.41382" lon="7.29453">
        <ele>936</ele>
        <time>2020-09-06T08:48:05.362Z</time>
      </trkpt>
      <trkpt lat="48.41382" lon="7.29451">
        <ele>936</ele>
        <time>2020-09-06T08:48:06.362Z</time>
      </trkpt>
      <trkpt lat="48.41381" lon="7.2945">
        <ele>935</ele>
        <time>2020-09-06T08:48:07.363Z</time>
      </trkpt>
      <trkpt lat="48.41381" lon="7.29447">
        <ele>935</ele>
        <time>2020-09-06T08:48:08.363Z</time>
      </trkpt>
      <trkpt lat="48.4138" lon="7.29445">
        <ele>934</ele>
        <time>2020-09-06T08:48:09.363Z</time>
      </trkpt>
      <trkpt lat="48.4138" lon="7.29444">
        <ele>934</ele>
        <time>2020-09-06T08:48:10.362Z</time>
      </trkpt>
      <trkpt lat="48.4138" lon="7.29443">
        <ele>933</ele>
        <time>2020-09-06T08:48:11.362Z</time>
      </trkpt>
      <trkpt lat="48.41379" lon="7.29441">
        <ele>933</ele>
        <time>2020-09-06T08:48:12.362Z</time>
      </trkpt>
      <trkpt lat="48.41379" lon="7.2944">
        <ele>933</ele>
        <time>2020-09-06T08:48:13.362Z</time>
      </trkpt>
      <trkpt lat="48.41378" lon="7.29438">
        <ele>933</ele>
        <time>2020-09-06T08:48:14.363Z</time>
      </trkpt>
      <trkpt lat="48.41377" lon="7.29437">
        <ele>933</ele>
        <time>2020-09-06T08:48:15.362Z</time>
      </trkpt>
      <trkpt lat="48.41377" lon="7.29435">
        <ele>932</ele>
        <time>2020-09-06T08:48:16.363Z</time>
      </trkpt>
      <trkpt lat="48.41376" lon="7.29433">
        <ele>932</ele>
        <time>2020-09-06T08:48:17.363Z</time>
      </trkpt>
      <trkpt lat="48.41376" lon="7.29432">
        <ele>932</ele>
        <time>2020-09-06T08:48:18.363Z</time>
      </trkpt>
      <trkpt lat="48.41375" lon="7.29431">
        <ele>932</ele>
        <time>2020-09-06T08:48:19.363Z</time>
      </trkpt>
      <trkpt lat="48.41375" lon="7.29429">
        <ele>932</ele>
        <time>2020-09-06T08:48:20.362Z</time>
      </trkpt>
      <trkpt lat="48.41374" lon="7.29428">
        <ele>932</ele>
        <time>2020-09-06T08:48:21.363Z</time>
      </trkpt>
      <trkpt lat="48.41374" lon="7.29426">
        <ele>932</ele>
        <time>2020-09-06T08:48:22.363Z</time>
      </trkpt>
      <trkpt lat="48.41373" lon="7.29425">
        <ele>932</ele>
        <time>2020-09-06T08:48:23.362Z</time>
      </trkpt>
      <trkpt lat="48.41373" lon="7.29423">
        <ele>932</ele>
        <time>2020-09-06T08:48:24.362Z</time>
      </trkpt>
      <trkpt lat="48.41373" lon="7.29422">
        <ele>932</ele>
        <time>2020-09-06T08:48:25.363Z</time>
      </trkpt>
      <trkpt lat="48.41372" lon="7.29421">
        <ele>933</ele>
        <time>2020-09-06T08:48:26.362Z</time>
      </trkpt>
      <trkpt lat="48.41372" lon="7.29421">
        <ele>934</ele>
        <time>2020-09-06T08:48:27.363Z</time>
      </trkpt>
      <trkpt lat="48.41372" lon="7.29421">
        <ele>934</ele>
        <time>2020-09-06T08:48:28.363Z</time>
      </trkpt>
      <trkpt lat="48.41372" lon="7.29421">
        <ele>935</ele>
        <time>2020-09-06T08:48:29.363Z</time>
      </trkpt>
      <trkpt lat="48.41373" lon="7.29419">
        <ele>935</ele>
        <time>2020-09-06T08:48:30.364Z</time>
      </trkpt>
      <trkpt lat="48.41373" lon="7.29418">
        <ele>935</ele>
        <time>2020-09-06T08:48:31.363Z</time>
      </trkpt>
      <trkpt lat="48.41374" lon="7.29415">
        <ele>935</ele>
        <time>2020-09-06T08:48:32.363Z</time>
      </trkpt>
      <trkpt lat="48.41371" lon="7.2941">
        <ele>936</ele>
        <time>2020-09-06T08:48:33.366Z</time>
      </trkpt>
      <trkpt lat="48.4137" lon="7.29408">
        <ele>936</ele>
        <time>2020-09-06T08:48:34.366Z</time>
      </trkpt>
      <trkpt lat="48.4137" lon="7.29406">
        <ele>935</ele>
        <time>2020-09-06T08:48:35.365Z</time>
      </trkpt>
      <trkpt lat="48.41369" lon="7.29404">
        <ele>935</ele>
        <time>2020-09-06T08:48:36.366Z</time>
      </trkpt>
      <trkpt lat="48.41369" lon="7.29401">
        <ele>935</ele>
        <time>2020-09-06T08:48:37.366Z</time>
      </trkpt>
      <trkpt lat="48.41368" lon="7.29399">
        <ele>935</ele>
        <time>2020-09-06T08:48:38.365Z</time>
      </trkpt>
      <trkpt lat="48.41368" lon="7.29397">
        <ele>935</ele>
        <time>2020-09-06T08:48:39.366Z</time>
      </trkpt>
      <trkpt lat="48.41367" lon="7.29396">
        <ele>935</ele>
        <time>2020-09-06T08:48:40.366Z</time>
      </trkpt>
      <trkpt lat="48.41367" lon="7.29396">
        <ele>935</ele>
        <time>2020-09-06T08:48:41.366Z</time>
      </trkpt>
      <trkpt lat="48.41367" lon="7.29396">
        <ele>936</ele>
        <time>2020-09-06T08:48:42.368Z</time>
      </trkpt>
      <trkpt lat="48.41368" lon="7.29396">
        <ele>936</ele>
        <time>2020-09-06T08:48:43.368Z</time>
      </trkpt>
      <trkpt lat="48.41366" lon="7.29393">
        <ele>937</ele>
        <time>2020-09-06T08:48:44.368Z</time>
      </trkpt>
      <trkpt lat="48.41365" lon="7.29392">
        <ele>937</ele>
        <time>2020-09-06T08:48:45.368Z</time>
      </trkpt>
      <trkpt lat="48.41365" lon="7.2939">
        <ele>937</ele>
        <time>2020-09-06T08:48:46.368Z</time>
      </trkpt>
      <trkpt lat="48.41364" lon="7.29388">
        <ele>937</ele>
        <time>2020-09-06T08:48:47.368Z</time>
      </trkpt>
      <trkpt lat="48.41364" lon="7.29387">
        <ele>936</ele>
        <time>2020-09-06T08:48:48.368Z</time>
      </trkpt>
      <trkpt lat="48.41363" lon="7.29385">
        <ele>936</ele>
        <time>2020-09-06T08:48:49.368Z</time>
      </trkpt>
      <trkpt lat="48.41362" lon="7.29383">
        <ele>936</ele>
        <time>2020-09-06T08:48:50.368Z</time>
      </trkpt>
      <trkpt lat="48.4136" lon="7.29381">
        <ele>936</ele>
        <time>2020-09-06T08:48:51.368Z</time>
      </trkpt>
      <trkpt lat="48.41359" lon="7.2938">
        <ele>936</ele>
        <time>2020-09-06T08:48:52.368Z</time>
      </trkpt>
      <trkpt lat="48.41358" lon="7.29379">
        <ele>937</ele>
        <time>2020-09-06T08:48:53.368Z</time>
      </trkpt>
      <trkpt lat="48.41357" lon="7.29377">
        <ele>938</ele>
        <time>2020-09-06T08:48:54.368Z</time>
      </trkpt>
      <trkpt lat="48.41357" lon="7.29375">
        <ele>939</ele>
        <time>2020-09-06T08:48:55.368Z</time>
      </trkpt>
      <trkpt lat="48.41356" lon="7.29373">
        <ele>940</ele>
        <time>2020-09-06T08:48:56.368Z</time>
      </trkpt>
      <trkpt lat="48.41356" lon="7.2937">
        <ele>942</ele>
        <time>2020-09-06T08:48:57.367Z</time>
      </trkpt>
      <trkpt lat="48.41356" lon="7.29368">
        <ele>943</ele>
        <time>2020-09-06T08:48:58.367Z</time>
      </trkpt>
      <trkpt lat="48.41355" lon="7.29366">
        <ele>944</ele>
        <time>2020-09-06T08:48:59.368Z</time>
      </trkpt>
      <trkpt lat="48.41356" lon="7.29365">
        <ele>945</ele>
        <time>2020-09-06T08:49:00.367Z</time>
      </trkpt>
      <trkpt lat="48.41356" lon="7.29364">
        <ele>946</ele>
        <time>2020-09-06T08:49:01.368Z</time>
      </trkpt>
      <trkpt lat="48.41356" lon="7.29363">
        <ele>946</ele>
        <time>2020-09-06T08:49:02.368Z</time>
      </trkpt>
      <trkpt lat="48.41356" lon="7.29363">
        <ele>946</ele>
        <time>2020-09-06T08:49:03.367Z</time>
      </trkpt>
      <trkpt lat="48.41357" lon="7.29355">
        <ele>942</ele>
        <time>2020-09-06T08:49:04.368Z</time>
      </trkpt>
      <trkpt lat="48.41357" lon="7.29352">
        <ele>942</ele>
        <time>2020-09-06T08:49:05.368Z</time>
      </trkpt>
      <trkpt lat="48.41357" lon="7.2935">
        <ele>942</ele>
        <time>2020-09-06T08:49:06.367Z</time>
      </trkpt>
      <trkpt lat="48.41358" lon="7.29347">
        <ele>942</ele>
        <time>2020-09-06T08:49:07.367Z</time>
      </trkpt>
      <trkpt lat="48.41358" lon="7.29345">
        <ele>943</ele>
        <time>2020-09-06T08:49:08.368Z</time>
      </trkpt>
      <trkpt lat="48.41358" lon="7.29343">
        <ele>943</ele>
        <time>2020-09-06T08:49:09.367Z</time>
      </trkpt>
      <trkpt lat="48.41357" lon="7.29341">
        <ele>943</ele>
        <time>2020-09-06T08:49:10.368Z</time>
      </trkpt>
      <trkpt lat="48.41356" lon="7.2934">
        <ele>943</ele>
        <time>2020-09-06T08:49:11.367Z</time>
      </trkpt>
      <trkpt lat="48.41355" lon="7.29339">
        <ele>943</ele>
        <time>2020-09-06T08:49:12.367Z</time>
      </trkpt>
      <trkpt lat="48.41353" lon="7.29339">
        <ele>943</ele>
        <time>2020-09-06T08:49:13.367Z</time>
      </trkpt>
      <trkpt lat="48.41352" lon="7.29338">
        <ele>943</ele>
        <time>2020-09-06T08:49:14.368Z</time>
      </trkpt>
      <trkpt lat="48.41351" lon="7.29337">
        <ele>942</ele>
        <time>2020-09-06T08:49:15.368Z</time>
      </trkpt>
      <trkpt lat="48.4135" lon="7.29336">
        <ele>942</ele>
        <time>2020-09-06T08:49:16.368Z</time>
      </trkpt>
      <trkpt lat="48.41349" lon="7.29335">
        <ele>942</ele>
        <time>2020-09-06T08:49:17.368Z</time>
      </trkpt>
      <trkpt lat="48.41349" lon="7.29334">
        <ele>942</ele>
        <time>2020-09-06T08:49:18.368Z</time>
      </trkpt>
      <trkpt lat="48.41349" lon="7.29332">
        <ele>943</ele>
        <time>2020-09-06T08:49:19.367Z</time>
      </trkpt>
      <trkpt lat="48.41348" lon="7.2933">
        <ele>943</ele>
        <time>2020-09-06T08:49:20.368Z</time>
      </trkpt>
      <trkpt lat="48.41349" lon="7.29328">
        <ele>943</ele>
        <time>2020-09-06T08:49:21.368Z</time>
      </trkpt>
      <trkpt lat="48.41349" lon="7.29326">
        <ele>942</ele>
        <time>2020-09-06T08:49:22.368Z</time>
      </trkpt>
      <trkpt lat="48.41348" lon="7.29324">
        <ele>941</ele>
        <time>2020-09-06T08:49:23.368Z</time>
      </trkpt>
      <trkpt lat="48.41348" lon="7.29323">
        <ele>941</ele>
        <time>2020-09-06T08:49:24.368Z</time>
      </trkpt>
      <trkpt lat="48.41347" lon="7.29323">
        <ele>940</ele>
        <time>2020-09-06T08:49:25.368Z</time>
      </trkpt>
      <trkpt lat="48.41346" lon="7.29321">
        <ele>940</ele>
        <time>2020-09-06T08:49:26.368Z</time>
      </trkpt>
      <trkpt lat="48.41345" lon="7.2932">
        <ele>940</ele>
        <time>2020-09-06T08:49:27.368Z</time>
      </trkpt>
      <trkpt lat="48.41345" lon="7.29319">
        <ele>939</ele>
        <time>2020-09-06T08:49:28.367Z</time>
      </trkpt>
      <trkpt lat="48.41344" lon="7.29317">
        <ele>939</ele>
        <time>2020-09-06T08:49:29.367Z</time>
      </trkpt>
      <trkpt lat="48.41343" lon="7.29315">
        <ele>938</ele>
        <time>2020-09-06T08:49:30.368Z</time>
      </trkpt>
      <trkpt lat="48.41342" lon="7.29314">
        <ele>938</ele>
        <time>2020-09-06T08:49:31.368Z</time>
      </trkpt>
      <trkpt lat="48.41342" lon="7.29313">
        <ele>938</ele>
        <time>2020-09-06T08:49:32.368Z</time>
      </trkpt>
      <trkpt lat="48.41341" lon="7.29313">
        <ele>938</ele>
        <time>2020-09-06T08:49:33.368Z</time>
      </trkpt>
      <trkpt lat="48.4134" lon="7.29312">
        <ele>938</ele>
        <time>2020-09-06T08:49:34.368Z</time>
      </trkpt>
      <trkpt lat="48.41339" lon="7.29311">
        <ele>938</ele>
        <time>2020-09-06T08:49:35.368Z</time>
      </trkpt>
      <trkpt lat="48.41337" lon="7.2931">
        <ele>938</ele>
        <time>2020-09-06T08:49:36.367Z</time>
      </trkpt>
      <trkpt lat="48.41336" lon="7.29309">
        <ele>939</ele>
        <time>2020-09-06T08:49:37.367Z</time>
      </trkpt>
      <trkpt lat="48.41335" lon="7.29307">
        <ele>939</ele>
        <time>2020-09-06T08:49:38.368Z</time>
      </trkpt>
      <trkpt lat="48.41335" lon="7.29306">
        <ele>939</ele>
        <time>2020-09-06T08:49:39.368Z</time>
      </trkpt>
      <trkpt lat="48.41335" lon="7.29304">
        <ele>940</ele>
        <time>2020-09-06T08:49:40.368Z</time>
      </trkpt>
      <trkpt lat="48.41335" lon="7.29303">
        <ele>940</ele>
        <time>2020-09-06T08:49:41.368Z</time>
      </trkpt>
      <trkpt lat="48.41335" lon="7.29302">
        <ele>940</ele>
        <time>2020-09-06T08:49:42.368Z</time>
      </trkpt>
      <trkpt lat="48.41335" lon="7.293">
        <ele>940</ele>
        <time>2020-09-06T08:49:43.368Z</time>
      </trkpt>
      <trkpt lat="48.41334" lon="7.29299">
        <ele>939</ele>
        <time>2020-09-06T08:49:44.368Z</time>
      </trkpt>
      <trkpt lat="48.41333" lon="7.29297">
        <ele>939</ele>
        <time>2020-09-06T08:49:45.368Z</time>
      </trkpt>
      <trkpt lat="48.41333" lon="7.29296">
        <ele>939</ele>
        <time>2020-09-06T08:49:46.368Z</time>
      </trkpt>
      <trkpt lat="48.41331" lon="7.29296">
        <ele>938</ele>
        <time>2020-09-06T08:49:47.368Z</time>
      </trkpt>
      <trkpt lat="48.41329" lon="7.29296">
        <ele>938</ele>
        <time>2020-09-06T08:49:48.368Z</time>
      </trkpt>
      <trkpt lat="48.41328" lon="7.29296">
        <ele>938</ele>
        <time>2020-09-06T08:49:49.368Z</time>
      </trkpt>
      <trkpt lat="48.41327" lon="7.29295">
        <ele>938</ele>
        <time>2020-09-06T08:49:50.368Z</time>
      </trkpt>
      <trkpt lat="48.41327" lon="7.29294">
        <ele>938</ele>
        <time>2020-09-06T08:49:51.368Z</time>
      </trkpt>
      <trkpt lat="48.41326" lon="7.29293">
        <ele>938</ele>
        <time>2020-09-06T08:49:52.367Z</time>
      </trkpt>
      <trkpt lat="48.41325" lon="7.29292">
        <ele>938</ele>
        <time>2020-09-06T08:49:53.367Z</time>
      </trkpt>
      <trkpt lat="48.41325" lon="7.29291">
        <ele>938</ele>
        <time>2020-09-06T08:49:54.368Z</time>
      </trkpt>
      <trkpt lat="48.41324" lon="7.2929">
        <ele>939</ele>
        <time>2020-09-06T08:49:55.368Z</time>
      </trkpt>
      <trkpt lat="48.41324" lon="7.2929">
        <ele>939</ele>
        <time>2020-09-06T08:49:56.367Z</time>
      </trkpt>
      <trkpt lat="48.41323" lon="7.2929">
        <ele>940</ele>
        <time>2020-09-06T08:49:57.368Z</time>
      </trkpt>
      <trkpt lat="48.41322" lon="7.29289">
        <ele>940</ele>
        <time>2020-09-06T08:49:58.367Z</time>
      </trkpt>
      <trkpt lat="48.41321" lon="7.29288">
        <ele>941</ele>
        <time>2020-09-06T08:49:59.368Z</time>
      </trkpt>
      <trkpt lat="48.4132" lon="7.29288">
        <ele>942</ele>
        <time>2020-09-06T08:50:00.368Z</time>
      </trkpt>
      <trkpt lat="48.4132" lon="7.29286">
        <ele>942</ele>
        <time>2020-09-06T08:50:01.368Z</time>
      </trkpt>
      <trkpt lat="48.41319" lon="7.29285">
        <ele>943</ele>
        <time>2020-09-06T08:50:02.368Z</time>
      </trkpt>
      <trkpt lat="48.41319" lon="7.29285">
        <ele>944</ele>
        <time>2020-09-06T08:50:03.368Z</time>
      </trkpt>
      <trkpt lat="48.41318" lon="7.29283">
        <ele>944</ele>
        <time>2020-09-06T08:50:04.367Z</time>
      </trkpt>
      <trkpt lat="48.41317" lon="7.29283">
        <ele>945</ele>
        <time>2020-09-06T08:50:05.368Z</time>
      </trkpt>
      <trkpt lat="48.41315" lon="7.29286">
        <ele>946</ele>
        <time>2020-09-06T08:50:06.369Z</time>
      </trkpt>
      <trkpt lat="48.41314" lon="7.29286">
        <ele>946</ele>
        <time>2020-09-06T08:50:07.369Z</time>
      </trkpt>
      <trkpt lat="48.41314" lon="7.29285">
        <ele>945</ele>
        <time>2020-09-06T08:50:08.368Z</time>
      </trkpt>
      <trkpt lat="48.41313" lon="7.29284">
        <ele>944</ele>
        <time>2020-09-06T08:50:09.369Z</time>
      </trkpt>
      <trkpt lat="48.41312" lon="7.29284">
        <ele>944</ele>
        <time>2020-09-06T08:50:10.369Z</time>
      </trkpt>
      <trkpt lat="48.41311" lon="7.29283">
        <ele>943</ele>
        <time>2020-09-06T08:50:11.369Z</time>
      </trkpt>
      <trkpt lat="48.4131" lon="7.29283">
        <ele>942</ele>
        <time>2020-09-06T08:50:12.369Z</time>
      </trkpt>
      <trkpt lat="48.41309" lon="7.29283">
        <ele>942</ele>
        <time>2020-09-06T08:50:13.369Z</time>
      </trkpt>
      <trkpt lat="48.41308" lon="7.29283">
        <ele>941</ele>
        <time>2020-09-06T08:50:14.369Z</time>
      </trkpt>
      <trkpt lat="48.41307" lon="7.29283">
        <ele>940</ele>
        <time>2020-09-06T08:50:15.369Z</time>
      </trkpt>
      <trkpt lat="48.41306" lon="7.29283">
        <ele>940</ele>
        <time>2020-09-06T08:50:16.369Z</time>
      </trkpt>
      <trkpt lat="48.41305" lon="7.29282">
        <ele>940</ele>
        <time>2020-09-06T08:50:17.369Z</time>
      </trkpt>
      <trkpt lat="48.41304" lon="7.29282">
        <ele>940</ele>
        <time>2020-09-06T08:50:18.369Z</time>
      </trkpt>
      <trkpt lat="48.41302" lon="7.29282">
        <ele>940</ele>
        <time>2020-09-06T08:50:19.369Z</time>
      </trkpt>
      <trkpt lat="48.41301" lon="7.29282">
        <ele>940</ele>
        <time>2020-09-06T08:50:20.369Z</time>
      </trkpt>
      <trkpt lat="48.413" lon="7.29281">
        <ele>940</ele>
        <time>2020-09-06T08:50:21.369Z</time>
      </trkpt>
      <trkpt lat="48.41298" lon="7.2928">
        <ele>940</ele>
        <time>2020-09-06T08:50:22.368Z</time>
      </trkpt>
      <trkpt lat="48.41297" lon="7.29281">
        <ele>939</ele>
        <time>2020-09-06T08:50:23.369Z</time>
      </trkpt>
      <trkpt lat="48.41296" lon="7.29281">
        <ele>939</ele>
        <time>2020-09-06T08:50:24.369Z</time>
      </trkpt>
      <trkpt lat="48.41295" lon="7.29281">
        <ele>938</ele>
        <time>2020-09-06T08:50:25.369Z</time>
      </trkpt>
      <trkpt lat="48.41294" lon="7.29281">
        <ele>938</ele>
        <time>2020-09-06T08:50:26.369Z</time>
      </trkpt>
      <trkpt lat="48.41293" lon="7.29281">
        <ele>938</ele>
        <time>2020-09-06T08:50:27.368Z</time>
      </trkpt>
      <trkpt lat="48.41292" lon="7.29281">
        <ele>937</ele>
        <time>2020-09-06T08:50:28.368Z</time>
      </trkpt>
      <trkpt lat="48.41292" lon="7.29281">
        <ele>937</ele>
        <time>2020-09-06T08:50:29.369Z</time>
      </trkpt>
      <trkpt lat="48.41291" lon="7.29282">
        <ele>937</ele>
        <time>2020-09-06T08:50:30.368Z</time>
      </trkpt>
      <trkpt lat="48.41291" lon="7.29283">
        <ele>937</ele>
        <time>2020-09-06T08:50:31.368Z</time>
      </trkpt>
      <trkpt lat="48.4129" lon="7.29283">
        <ele>937</ele>
        <time>2020-09-06T08:50:32.369Z</time>
      </trkpt>
      <trkpt lat="48.4129" lon="7.29284">
        <ele>937</ele>
        <time>2020-09-06T08:50:33.369Z</time>
      </trkpt>
      <trkpt lat="48.4129" lon="7.29285">
        <ele>937</ele>
        <time>2020-09-06T08:50:34.369Z</time>
      </trkpt>
      <trkpt lat="48.4129" lon="7.29286">
        <ele>937</ele>
        <time>2020-09-06T08:50:35.368Z</time>
      </trkpt>
      <trkpt lat="48.41292" lon="7.2928">
        <ele>938</ele>
        <time>2020-09-06T08:50:36.370Z</time>
      </trkpt>
      <trkpt lat="48.41293" lon="7.2928">
        <ele>939</ele>
        <time>2020-09-06T08:50:37.369Z</time>
      </trkpt>
      <trkpt lat="48.41293" lon="7.2928">
        <ele>939</ele>
        <time>2020-09-06T08:50:38.370Z</time>
      </trkpt>
      <trkpt lat="48.41293" lon="7.2928">
        <ele>940</ele>
        <time>2020-09-06T08:50:39.369Z</time>
      </trkpt>
      <trkpt lat="48.41294" lon="7.2928">
        <ele>941</ele>
        <time>2020-09-06T08:50:40.371Z</time>
      </trkpt>
      <trkpt lat="48.41294" lon="7.2928">
        <ele>941</ele>
        <time>2020-09-06T08:50:41.371Z</time>
      </trkpt>
      <trkpt lat="48.41294" lon="7.2928">
        <ele>942</ele>
        <time>2020-09-06T08:50:42.371Z</time>
      </trkpt>
      <trkpt lat="48.41294" lon="7.29279">
        <ele>943</ele>
        <time>2020-09-06T08:50:43.372Z</time>
      </trkpt>
      <trkpt lat="48.41294" lon="7.29278">
        <ele>943</ele>
        <time>2020-09-06T08:50:44.371Z</time>
      </trkpt>
      <trkpt lat="48.41293" lon="7.29276">
        <ele>948</ele>
        <time>2020-09-06T08:50:45.372Z</time>
      </trkpt>
      <trkpt lat="48.41288" lon="7.29269">
        <ele>947</ele>
        <time>2020-09-06T08:50:46.372Z</time>
      </trkpt>
      <trkpt lat="48.41286" lon="7.29265">
        <ele>947</ele>
        <time>2020-09-06T08:50:47.374Z</time>
      </trkpt>
      <trkpt lat="48.41285" lon="7.29264">
        <ele>947</ele>
        <time>2020-09-06T08:50:48.373Z</time>
      </trkpt>
      <trkpt lat="48.41285" lon="7.29263">
        <ele>947</ele>
        <time>2020-09-06T08:50:49.373Z</time>
      </trkpt>
      <trkpt lat="48.41285" lon="7.29263">
        <ele>946</ele>
        <time>2020-09-06T08:50:50.374Z</time>
      </trkpt>
      <trkpt lat="48.41286" lon="7.29263">
        <ele>946</ele>
        <time>2020-09-06T08:50:51.374Z</time>
      </trkpt>
      <trkpt lat="48.41286" lon="7.29263">
        <ele>947</ele>
        <time>2020-09-06T08:50:52.374Z</time>
      </trkpt>
      <trkpt lat="48.41286" lon="7.29265">
        <ele>947</ele>
        <time>2020-09-06T08:50:53.375Z</time>
      </trkpt>
      <trkpt lat="48.41286" lon="7.29267">
        <ele>948</ele>
        <time>2020-09-06T08:50:54.375Z</time>
      </trkpt>
      <trkpt lat="48.41287" lon="7.29267">
        <ele>955</ele>
        <time>2020-09-06T08:50:55.375Z</time>
      </trkpt>
      <trkpt lat="48.41285" lon="7.29269">
        <ele>952</ele>
        <time>2020-09-06T08:50:56.374Z</time>
      </trkpt>
      <trkpt lat="48.41282" lon="7.29262">
        <ele>953</ele>
        <time>2020-09-06T08:50:57.375Z</time>
      </trkpt>
      <trkpt lat="48.41283" lon="7.29263">
        <ele>954</ele>
        <time>2020-09-06T08:50:58.375Z</time>
      </trkpt>
      <trkpt lat="48.41283" lon="7.29263">
        <ele>954</ele>
        <time>2020-09-06T08:50:59.374Z</time>
      </trkpt>
      <trkpt lat="48.41284" lon="7.29265">
        <ele>954</ele>
        <time>2020-09-06T08:51:00.375Z</time>
      </trkpt>
      <trkpt lat="48.41284" lon="7.29266">
        <ele>954</ele>
        <time>2020-09-06T08:51:01.375Z</time>
      </trkpt>
      <trkpt lat="48.41285" lon="7.29266">
        <ele>954</ele>
        <time>2020-09-06T08:51:02.375Z</time>
      </trkpt>
      <trkpt lat="48.41284" lon="7.29266">
        <ele>954</ele>
        <time>2020-09-06T08:51:03.374Z</time>
      </trkpt>
      <trkpt lat="48.41284" lon="7.29267">
        <ele>954</ele>
        <time>2020-09-06T08:51:04.375Z</time>
      </trkpt>
      <trkpt lat="48.41284" lon="7.29267">
        <ele>954</ele>
        <time>2020-09-06T08:51:05.375Z</time>
      </trkpt>
      <trkpt lat="48.41283" lon="7.29269">
        <ele>954</ele>
        <time>2020-09-06T08:51:06.375Z</time>
      </trkpt>
      <trkpt lat="48.41283" lon="7.29269">
        <ele>954</ele>
        <time>2020-09-06T08:51:07.375Z</time>
      </trkpt>
      <trkpt lat="48.41283" lon="7.29269">
        <ele>954</ele>
        <time>2020-09-06T08:51:08.374Z</time>
      </trkpt>
      <trkpt lat="48.41283" lon="7.29269">
        <ele>953</ele>
        <time>2020-09-06T08:51:09.375Z</time>
      </trkpt>
      <trkpt lat="48.41283" lon="7.29269">
        <ele>953</ele>
        <time>2020-09-06T08:51:10.375Z</time>
      </trkpt>
      <trkpt lat="48.41283" lon="7.29269">
        <ele>953</ele>
        <time>2020-09-06T08:51:11.375Z</time>
      </trkpt>
      <trkpt lat="48.41283" lon="7.29269">
        <ele>953</ele>
        <time>2020-09-06T08:51:12.375Z</time>
      </trkpt>
      <trkpt lat="48.41283" lon="7.29269">
        <ele>953</ele>
        <time>2020-09-06T08:51:13.375Z</time>
      </trkpt>
      <trkpt lat="48.41283" lon="7.29269">
        <ele>953</ele>
        <time>2020-09-06T08:51:14.375Z</time>
      </trkpt>
      <trkpt lat="48.41283" lon="7.29269">
        <ele>953</ele>
        <time>2020-09-06T08:51:15.375Z</time>
      </trkpt>
      <trkpt lat="48.41283" lon="7.29269">
        <ele>952</ele>
        <time>2020-09-06T08:51:16.375Z</time>
      </trkpt>
      <trkpt lat="48.41283" lon="7.29269">
        <ele>952</ele>
        <time>2020-09-06T08:51:17.374Z</time>
      </trkpt>
      <trkpt lat="48.41283" lon="7.29269">
        <ele>952</ele>
        <time>2020-09-06T08:51:18.375Z</time>
      </trkpt>
      <trkpt lat="48.41283" lon="7.29269">
        <ele>952</ele>
        <time>2020-09-06T08:51:19.375Z</time>
      </trkpt>
      <trkpt lat="48.41283" lon="7.29269">
        <ele>952</ele>
        <time>2020-09-06T08:51:20.375Z</time>
      </trkpt>
      <trkpt lat="48.41283" lon="7.29269">
        <ele>952</ele>
        <time>2020-09-06T08:51:21.374Z</time>
      </trkpt>
      <trkpt lat="48.41283" lon="7.29269">
        <ele>952</ele>
        <time>2020-09-06T08:51:22.375Z</time>
      </trkpt>
      <trkpt lat="48.41283" lon="7.29269">
        <ele>952</ele>
        <time>2020-09-06T08:51:23.375Z</time>
      </trkpt>
      <trkpt lat="48.41283" lon="7.29269">
        <ele>952</ele>
        <time>2020-09-06T08:51:24.374Z</time>
      </trkpt>
      <trkpt lat="48.41283" lon="7.29269">
        <ele>952</ele>
        <time>2020-09-06T08:51:25.374Z</time>
      </trkpt>
      <trkpt lat="48.41283" lon="7.29269">
        <ele>952</ele>
        <time>2020-09-06T08:51:26.375Z</time>
      </trkpt>
      <trkpt lat="48.41283" lon="7.29269">
        <ele>952</ele>
        <time>2020-09-06T08:51:27.375Z</time>
      </trkpt>
      <trkpt lat="48.41283" lon="7.29269">
        <ele>951</ele>
        <time>2020-09-06T08:51:28.375Z</time>
      </trkpt>
      <trkpt lat="48.41283" lon="7.29269">
        <ele>951</ele>
        <time>2020-09-06T08:51:29.374Z</time>
      </trkpt>
      <trkpt lat="48.41283" lon="7.29269">
        <ele>951</ele>
        <time>2020-09-06T08:51:30.375Z</time>
      </trkpt>
      <trkpt lat="48.41283" lon="7.29269">
        <ele>951</ele>
        <time>2020-09-06T08:51:31.375Z</time>
      </trkpt>
      <trkpt lat="48.41283" lon="7.29269">
        <ele>951</ele>
        <time>2020-09-06T08:51:32.375Z</time>
      </trkpt>
      <trkpt lat="48.41283" lon="7.29269">
        <ele>951</ele>
        <time>2020-09-06T08:51:33.375Z</time>
      </trkpt>
      <trkpt lat="48.41283" lon="7.29269">
        <ele>951</ele>
        <time>2020-09-06T08:51:34.375Z</time>
      </trkpt>
      <trkpt lat="48.41283" lon="7.29269">
        <ele>951</ele>
        <time>2020-09-06T08:51:35.375Z</time>
      </trkpt>
      <trkpt lat="48.41283" lon="7.2927">
        <ele>951</ele>
        <time>2020-09-06T08:51:36.375Z</time>
      </trkpt>
      <trkpt lat="48.41283" lon="7.2927">
        <ele>951</ele>
        <time>2020-09-06T08:51:37.375Z</time>
      </trkpt>
      <trkpt lat="48.41283" lon="7.29271">
        <ele>951</ele>
        <time>2020-09-06T08:51:38.375Z</time>
      </trkpt>
      <trkpt lat="48.41283" lon="7.29271">
        <ele>951</ele>
        <time>2020-09-06T08:51:39.374Z</time>
      </trkpt>
      <trkpt lat="48.41283" lon="7.29271">
        <ele>951</ele>
        <time>2020-09-06T08:51:40.375Z</time>
      </trkpt>
      <trkpt lat="48.41283" lon="7.29271">
        <ele>951</ele>
        <time>2020-09-06T08:51:41.375Z</time>
      </trkpt>
      <trkpt lat="48.41283" lon="7.29271">
        <ele>951</ele>
        <time>2020-09-06T08:51:42.374Z</time>
      </trkpt>
      <trkpt lat="48.41283" lon="7.29271">
        <ele>951</ele>
        <time>2020-09-06T08:51:43.375Z</time>
      </trkpt>
      <trkpt lat="48.41283" lon="7.29271">
        <ele>951</ele>
        <time>2020-09-06T08:51:44.375Z</time>
      </trkpt>
      <trkpt lat="48.41283" lon="7.29271">
        <ele>951</ele>
        <time>2020-09-06T08:51:45.375Z</time>
      </trkpt>
      <trkpt lat="48.41283" lon="7.29271">
        <ele>951</ele>
        <time>2020-09-06T08:51:46.375Z</time>
      </trkpt>
      <trkpt lat="48.41283" lon="7.29271">
        <ele>951</ele>
        <time>2020-09-06T08:51:47.375Z</time>
      </trkpt>
      <trkpt lat="48.41283" lon="7.29272">
        <ele>951</ele>
        <time>2020-09-06T08:51:48.375Z</time>
      </trkpt>
      <trkpt lat="48.41283" lon="7.29272">
        <ele>951</ele>
        <time>2020-09-06T08:51:49.374Z</time>
      </trkpt>
      <trkpt lat="48.41283" lon="7.29272">
        <ele>951</ele>
        <time>2020-09-06T08:51:50.375Z</time>
      </trkpt>
      <trkpt lat="48.41283" lon="7.29272">
        <ele>951</ele>
        <time>2020-09-06T08:51:51.374Z</time>
      </trkpt>
      <trkpt lat="48.41283" lon="7.29273">
        <ele>951</ele>
        <time>2020-09-06T08:51:52.375Z</time>
      </trkpt>
      <trkpt lat="48.41283" lon="7.29273">
        <ele>951</ele>
        <time>2020-09-06T08:51:53.375Z</time>
      </trkpt>
      <trkpt lat="48.41283" lon="7.29273">
        <ele>951</ele>
        <time>2020-09-06T08:51:54.375Z</time>
      </trkpt>
      <trkpt lat="48.41283" lon="7.29273">
        <ele>951</ele>
        <time>2020-09-06T08:51:55.375Z</time>
      </trkpt>
      <trkpt lat="48.41283" lon="7.29274">
        <ele>951</ele>
        <time>2020-09-06T08:51:56.375Z</time>
      </trkpt>
      <trkpt lat="48.41283" lon="7.29274">
        <ele>951</ele>
        <time>2020-09-06T08:51:57.375Z</time>
      </trkpt>
      <trkpt lat="48.41283" lon="7.29274">
        <ele>951</ele>
        <time>2020-09-06T08:51:58.375Z</time>
      </trkpt>
      <trkpt lat="48.41283" lon="7.29274">
        <ele>951</ele>
        <time>2020-09-06T08:51:59.375Z</time>
      </trkpt>
      <trkpt lat="48.41283" lon="7.29274">
        <ele>951</ele>
        <time>2020-09-06T08:52:00.375Z</time>
      </trkpt>
      <trkpt lat="48.41283" lon="7.29274">
        <ele>951</ele>
        <time>2020-09-06T08:52:01.375Z</time>
      </trkpt>
      <trkpt lat="48.41283" lon="7.29274">
        <ele>951</ele>
        <time>2020-09-06T08:52:02.375Z</time>
      </trkpt>
      <trkpt lat="48.41283" lon="7.29274">
        <ele>951</ele>
        <time>2020-09-06T08:52:03.375Z</time>
      </trkpt>
      <trkpt lat="48.41283" lon="7.29274">
        <ele>951</ele>
        <time>2020-09-06T08:52:04.375Z</time>
      </trkpt>
      <trkpt lat="48.41283" lon="7.29274">
        <ele>951</ele>
        <time>2020-09-06T08:52:05.375Z</time>
      </trkpt>
      <trkpt lat="48.41283" lon="7.29274">
        <ele>951</ele>
        <time>2020-09-06T08:52:06.375Z</time>
      </trkpt>
      <trkpt lat="48.41283" lon="7.29274">
        <ele>951</ele>
        <time>2020-09-06T08:52:07.374Z</time>
      </trkpt>
      <trkpt lat="48.41283" lon="7.29274">
        <ele>951</ele>
        <time>2020-09-06T08:52:08.375Z</time>
      </trkpt>
      <trkpt lat="48.41284" lon="7.29274">
        <ele>951</ele>
        <time>2020-09-06T08:52:09.374Z</time>
      </trkpt>
      <trkpt lat="48.41284" lon="7.29274">
        <ele>951</ele>
        <time>2020-09-06T08:52:10.375Z</time>
      </trkpt>
      <trkpt lat="48.41284" lon="7.29274">
        <ele>951</ele>
        <time>2020-09-06T08:52:11.375Z</time>
      </trkpt>
      <trkpt lat="48.41284" lon="7.29274">
        <ele>951</ele>
        <time>2020-09-06T08:52:12.375Z</time>
      </trkpt>
      <trkpt lat="48.41284" lon="7.29274">
        <ele>951</ele>
        <time>2020-09-06T08:52:13.374Z</time>
      </trkpt>
      <trkpt lat="48.41284" lon="7.29273">
        <ele>951</ele>
        <time>2020-09-06T08:52:14.375Z</time>
      </trkpt>
      <trkpt lat="48.41284" lon="7.29273">
        <ele>951</ele>
        <time>2020-09-06T08:52:15.375Z</time>
      </trkpt>
      <trkpt lat="48.41284" lon="7.29272">
        <ele>951</ele>
        <time>2020-09-06T08:52:16.375Z</time>
      </trkpt>
      <trkpt lat="48.41284" lon="7.29271">
        <ele>951</ele>
        <time>2020-09-06T08:52:17.375Z</time>
      </trkpt>
      <trkpt lat="48.41284" lon="7.29271">
        <ele>951</ele>
        <time>2020-09-06T08:52:18.375Z</time>
      </trkpt>
      <trkpt lat="48.41284" lon="7.29271">
        <ele>951</ele>
        <time>2020-09-06T08:52:19.374Z</time>
      </trkpt>
      <trkpt lat="48.41284" lon="7.29271">
        <ele>951</ele>
        <time>2020-09-06T08:52:20.375Z</time>
      </trkpt>
      <trkpt lat="48.41284" lon="7.2927">
        <ele>951</ele>
        <time>2020-09-06T08:52:21.375Z</time>
      </trkpt>
      <trkpt lat="48.41284" lon="7.2927">
        <ele>951</ele>
        <time>2020-09-06T08:52:22.374Z</time>
      </trkpt>
      <trkpt lat="48.41284" lon="7.2927">
        <ele>951</ele>
        <time>2020-09-06T08:52:23.375Z</time>
      </trkpt>
      <trkpt lat="48.41284" lon="7.2927">
        <ele>951</ele>
        <time>2020-09-06T08:52:24.375Z</time>
      </trkpt>
      <trkpt lat="48.41284" lon="7.2927">
        <ele>951</ele>
        <time>2020-09-06T08:52:25.375Z</time>
      </trkpt>
      <trkpt lat="48.41284" lon="7.29269">
        <ele>951</ele>
        <time>2020-09-06T08:52:26.374Z</time>
      </trkpt>
      <trkpt lat="48.41284" lon="7.29269">
        <ele>951</ele>
        <time>2020-09-06T08:52:27.375Z</time>
      </trkpt>
      <trkpt lat="48.41284" lon="7.29269">
        <ele>951</ele>
        <time>2020-09-06T08:52:28.375Z</time>
      </trkpt>
      <trkpt lat="48.41284" lon="7.29269">
        <ele>951</ele>
        <time>2020-09-06T08:52:29.375Z</time>
      </trkpt>
      <trkpt lat="48.41284" lon="7.29269">
        <ele>951</ele>
        <time>2020-09-06T08:52:30.375Z</time>
      </trkpt>
      <trkpt lat="48.41284" lon="7.29269">
        <ele>951</ele>
        <time>2020-09-06T08:52:31.375Z</time>
      </trkpt>
      <trkpt lat="48.41284" lon="7.29269">
        <ele>951</ele>
        <time>2020-09-06T08:52:32.374Z</time>
      </trkpt>
      <trkpt lat="48.41284" lon="7.29269">
        <ele>951</ele>
        <time>2020-09-06T08:52:33.375Z</time>
      </trkpt>
      <trkpt lat="48.41285" lon="7.29269">
        <ele>951</ele>
        <time>2020-09-06T08:52:34.375Z</time>
      </trkpt>
      <trkpt lat="48.41285" lon="7.29269">
        <ele>951</ele>
        <time>2020-09-06T08:52:35.375Z</time>
      </trkpt>
      <trkpt lat="48.41285" lon="7.29269">
        <ele>951</ele>
        <time>2020-09-06T08:52:36.375Z</time>
      </trkpt>
      <trkpt lat="48.41285" lon="7.29269">
        <ele>951</ele>
        <time>2020-09-06T08:52:37.375Z</time>
      </trkpt>
      <trkpt lat="48.41285" lon="7.29269">
        <ele>951</ele>
        <time>2020-09-06T08:52:38.374Z</time>
      </trkpt>
      <trkpt lat="48.41285" lon="7.29269">
        <ele>951</ele>
        <time>2020-09-06T08:52:39.375Z</time>
      </trkpt>
      <trkpt lat="48.41285" lon="7.29269">
        <ele>951</ele>
        <time>2020-09-06T08:52:40.375Z</time>
      </trkpt>
      <trkpt lat="48.41285" lon="7.29269">
        <ele>951</ele>
        <time>2020-09-06T08:52:41.375Z</time>
      </trkpt>
      <trkpt lat="48.41285" lon="7.29269">
        <ele>951</ele>
        <time>2020-09-06T08:52:42.374Z</time>
      </trkpt>
      <trkpt lat="48.41285" lon="7.29269">
        <ele>951</ele>
        <time>2020-09-06T08:52:43.375Z</time>
      </trkpt>
      <trkpt lat="48.41285" lon="7.29269">
        <ele>951</ele>
        <time>2020-09-06T08:52:44.375Z</time>
      </trkpt>
      <trkpt lat="48.41285" lon="7.29269">
        <ele>951</ele>
        <time>2020-09-06T08:52:45.375Z</time>
      </trkpt>
      <trkpt lat="48.41285" lon="7.29269">
        <ele>951</ele>
        <time>2020-09-06T08:52:46.374Z</time>
      </trkpt>
      <trkpt lat="48.41285" lon="7.29269">
        <ele>951</ele>
        <time>2020-09-06T08:52:47.375Z</time>
      </trkpt>
      <trkpt lat="48.41285" lon="7.29269">
        <ele>951</ele>
        <time>2020-09-06T08:52:48.374Z</time>
      </trkpt>
      <trkpt lat="48.41285" lon="7.29269">
        <ele>951</ele>
        <time>2020-09-06T08:52:49.375Z</time>
      </trkpt>
      <trkpt lat="48.41285" lon="7.29269">
        <ele>951</ele>
        <time>2020-09-06T08:52:50.375Z</time>
      </trkpt>
      <trkpt lat="48.41285" lon="7.29269">
        <ele>951</ele>
        <time>2020-09-06T08:52:51.375Z</time>
      </trkpt>
      <trkpt lat="48.41285" lon="7.2927">
        <ele>951</ele>
        <time>2020-09-06T08:52:52.374Z</time>
      </trkpt>
      <trkpt lat="48.41285" lon="7.2927">
        <ele>951</ele>
        <time>2020-09-06T08:52:53.375Z</time>
      </trkpt>
      <trkpt lat="48.41285" lon="7.2927">
        <ele>951</ele>
        <time>2020-09-06T08:52:54.374Z</time>
      </trkpt>
      <trkpt lat="48.41285" lon="7.2927">
        <ele>951</ele>
        <time>2020-09-06T08:52:55.375Z</time>
      </trkpt>
      <trkpt lat="48.41285" lon="7.29271">
        <ele>951</ele>
        <time>2020-09-06T08:52:56.375Z</time>
      </trkpt>
      <trkpt lat="48.41285" lon="7.29271">
        <ele>951</ele>
        <time>2020-09-06T08:52:57.375Z</time>
      </trkpt>
      <trkpt lat="48.41285" lon="7.29271">
        <ele>951</ele>
        <time>2020-09-06T08:52:58.375Z</time>
      </trkpt>
      <trkpt lat="48.41285" lon="7.29271">
        <ele>951</ele>
        <time>2020-09-06T08:52:59.375Z</time>
      </trkpt>
      <trkpt lat="48.41285" lon="7.29272">
        <ele>951</ele>
        <time>2020-09-06T08:53:00.374Z</time>
      </trkpt>
      <trkpt lat="48.41285" lon="7.29272">
        <ele>951</ele>
        <time>2020-09-06T08:53:01.375Z</time>
      </trkpt>
      <trkpt lat="48.41285" lon="7.29272">
        <ele>951</ele>
        <time>2020-09-06T08:53:02.375Z</time>
      </trkpt>
      <trkpt lat="48.41285" lon="7.29272">
        <ele>951</ele>
        <time>2020-09-06T08:53:03.375Z</time>
      </trkpt>
      <trkpt lat="48.41285" lon="7.29273">
        <ele>951</ele>
        <time>2020-09-06T08:53:04.375Z</time>
      </trkpt>
      <trkpt lat="48.41285" lon="7.29273">
        <ele>951</ele>
        <time>2020-09-06T08:53:05.374Z</time>
      </trkpt>
      <trkpt lat="48.41285" lon="7.29273">
        <ele>951</ele>
        <time>2020-09-06T08:53:06.375Z</time>
      </trkpt>
      <trkpt lat="48.41285" lon="7.29273">
        <ele>951</ele>
        <time>2020-09-06T08:53:07.374Z</time>
      </trkpt>
      <trkpt lat="48.41285" lon="7.29273">
        <ele>951</ele>
        <time>2020-09-06T08:53:08.374Z</time>
      </trkpt>
      <trkpt lat="48.41285" lon="7.29273">
        <ele>951</ele>
        <time>2020-09-06T08:53:09.375Z</time>
      </trkpt>
      <trkpt lat="48.41285" lon="7.29273">
        <ele>951</ele>
        <time>2020-09-06T08:53:10.374Z</time>
      </trkpt>
      <trkpt lat="48.41285" lon="7.29273">
        <ele>951</ele>
        <time>2020-09-06T08:53:11.375Z</time>
      </trkpt>
      <trkpt lat="48.41285" lon="7.29273">
        <ele>951</ele>
        <time>2020-09-06T08:53:12.375Z</time>
      </trkpt>
      <trkpt lat="48.41285" lon="7.29273">
        <ele>951</ele>
        <time>2020-09-06T08:53:13.374Z</time>
      </trkpt>
      <trkpt lat="48.41285" lon="7.29273">
        <ele>951</ele>
        <time>2020-09-06T08:53:14.375Z</time>
      </trkpt>
      <trkpt lat="48.41286" lon="7.29274">
        <ele>951</ele>
        <time>2020-09-06T08:53:15.375Z</time>
      </trkpt>
      <trkpt lat="48.41286" lon="7.29274">
        <ele>951</ele>
        <time>2020-09-06T08:53:16.375Z</time>
      </trkpt>
      <trkpt lat="48.41286" lon="7.29274">
        <ele>951</ele>
        <time>2020-09-06T08:53:17.374Z</time>
      </trkpt>
      <trkpt lat="48.41286" lon="7.29274">
        <ele>951</ele>
        <time>2020-09-06T08:53:18.375Z</time>
      </trkpt>
      <trkpt lat="48.41286" lon="7.29274">
        <ele>951</ele>
        <time>2020-09-06T08:53:19.375Z</time>
      </trkpt>
      <trkpt lat="48.41286" lon="7.29274">
        <ele>951</ele>
        <time>2020-09-06T08:53:20.375Z</time>
      </trkpt>
      <trkpt lat="48.41286" lon="7.29274">
        <ele>951</ele>
        <time>2020-09-06T08:53:21.374Z</time>
      </trkpt>
      <trkpt lat="48.41287" lon="7.29274">
        <ele>951</ele>
        <time>2020-09-06T08:53:22.375Z</time>
      </trkpt>
      <trkpt lat="48.41287" lon="7.29274">
        <ele>951</ele>
        <time>2020-09-06T08:53:23.375Z</time>
      </trkpt>
      <trkpt lat="48.41287" lon="7.29274">
        <ele>951</ele>
        <time>2020-09-06T08:53:24.375Z</time>
      </trkpt>
      <trkpt lat="48.41287" lon="7.29274">
        <ele>951</ele>
        <time>2020-09-06T08:53:25.375Z</time>
      </trkpt>
      <trkpt lat="48.41288" lon="7.29273">
        <ele>951</ele>
        <time>2020-09-06T08:53:26.375Z</time>
      </trkpt>
      <trkpt lat="48.41288" lon="7.29272">
        <ele>951</ele>
        <time>2020-09-06T08:53:27.375Z</time>
      </trkpt>
      <trkpt lat="48.41288" lon="7.29271">
        <ele>951</ele>
        <time>2020-09-06T08:53:28.374Z</time>
      </trkpt>
      <trkpt lat="48.41289" lon="7.2927">
        <ele>951</ele>
        <time>2020-09-06T08:53:29.375Z</time>
      </trkpt>
      <trkpt lat="48.41292" lon="7.29262">
        <ele>951</ele>
        <time>2020-09-06T08:53:30.377Z</time>
      </trkpt>
      <trkpt lat="48.41292" lon="7.29261">
        <ele>952</ele>
        <time>2020-09-06T08:53:31.377Z</time>
      </trkpt>
      <trkpt lat="48.41293" lon="7.2926">
        <ele>952</ele>
        <time>2020-09-06T08:53:32.376Z</time>
      </trkpt>
      <trkpt lat="48.41287" lon="7.29266">
        <ele>945</ele>
        <time>2020-09-06T08:53:33.377Z</time>
      </trkpt>
      <trkpt lat="48.41288" lon="7.29271">
        <ele>946</ele>
        <time>2020-09-06T08:53:34.378Z</time>
      </trkpt>
      <trkpt lat="48.41288" lon="7.29271">
        <ele>946</ele>
        <time>2020-09-06T08:53:35.377Z</time>
      </trkpt>
      <trkpt lat="48.41287" lon="7.29272">
        <ele>947</ele>
        <time>2020-09-06T08:53:36.377Z</time>
      </trkpt>
      <trkpt lat="48.41288" lon="7.29271">
        <ele>947</ele>
        <time>2020-09-06T08:53:37.377Z</time>
      </trkpt>
      <trkpt lat="48.41287" lon="7.29271">
        <ele>947</ele>
        <time>2020-09-06T08:53:38.378Z</time>
      </trkpt>
      <trkpt lat="48.41287" lon="7.29269">
        <ele>951</ele>
        <time>2020-09-06T08:53:39.379Z</time>
      </trkpt>
      <trkpt lat="48.41286" lon="7.29269">
        <ele>951</ele>
        <time>2020-09-06T08:53:40.379Z</time>
      </trkpt>
      <trkpt lat="48.41285" lon="7.29269">
        <ele>952</ele>
        <time>2020-09-06T08:53:41.378Z</time>
      </trkpt>
      <trkpt lat="48.41284" lon="7.2927">
        <ele>952</ele>
        <time>2020-09-06T08:53:42.379Z</time>
      </trkpt>
      <trkpt lat="48.41282" lon="7.2927">
        <ele>952</ele>
        <time>2020-09-06T08:53:43.379Z</time>
      </trkpt>
      <trkpt lat="48.41282" lon="7.2927">
        <ele>952</ele>
        <time>2020-09-06T08:53:44.379Z</time>
      </trkpt>
      <trkpt lat="48.41287" lon="7.29269">
        <ele>949</ele>
        <time>2020-09-06T08:53:45.380Z</time>
      </trkpt>
      <trkpt lat="48.41288" lon="7.29269">
        <ele>949</ele>
        <time>2020-09-06T08:53:46.380Z</time>
      </trkpt>
      <trkpt lat="48.41294" lon="7.29268">
        <ele>949</ele>
        <time>2020-09-06T08:53:47.380Z</time>
      </trkpt>
      <trkpt lat="48.41294" lon="7.29268">
        <ele>948</ele>
        <time>2020-09-06T08:53:48.380Z</time>
      </trkpt>
      <trkpt lat="48.41295" lon="7.29268">
        <ele>948</ele>
        <time>2020-09-06T08:53:49.379Z</time>
      </trkpt>
      <trkpt lat="48.41298" lon="7.29271">
        <ele>944</ele>
        <time>2020-09-06T08:53:50.381Z</time>
      </trkpt>
      <trkpt lat="48.41295" lon="7.2927">
        <ele>942</ele>
        <time>2020-09-06T08:53:51.381Z</time>
      </trkpt>
      <trkpt lat="48.41295" lon="7.2927">
        <ele>942</ele>
        <time>2020-09-06T08:53:52.381Z</time>
      </trkpt>
      <trkpt lat="48.41295" lon="7.29269">
        <ele>942</ele>
        <time>2020-09-06T08:53:53.380Z</time>
      </trkpt>
      <trkpt lat="48.41296" lon="7.29269">
        <ele>942</ele>
        <time>2020-09-06T08:53:54.380Z</time>
      </trkpt>
      <trkpt lat="48.41298" lon="7.2927">
        <ele>942</ele>
        <time>2020-09-06T08:53:55.381Z</time>
      </trkpt>
      <trkpt lat="48.413" lon="7.2927">
        <ele>942</ele>
        <time>2020-09-06T08:53:56.380Z</time>
      </trkpt>
      <trkpt lat="48.41301" lon="7.29271">
        <ele>942</ele>
        <time>2020-09-06T08:53:57.381Z</time>
      </trkpt>
      <trkpt lat="48.41303" lon="7.29271">
        <ele>942</ele>
        <time>2020-09-06T08:53:58.381Z</time>
      </trkpt>
      <trkpt lat="48.41305" lon="7.29271">
        <ele>942</ele>
        <time>2020-09-06T08:53:59.381Z</time>
      </trkpt>
      <trkpt lat="48.41308" lon="7.29272">
        <ele>942</ele>
        <time>2020-09-06T08:54:00.381Z</time>
      </trkpt>
      <trkpt lat="48.4131" lon="7.29272">
        <ele>942</ele>
        <time>2020-09-06T08:54:01.381Z</time>
      </trkpt>
      <trkpt lat="48.41312" lon="7.29273">
        <ele>942</ele>
        <time>2020-09-06T08:54:02.381Z</time>
      </trkpt>
      <trkpt lat="48.41313" lon="7.29273">
        <ele>942</ele>
        <time>2020-09-06T08:54:03.381Z</time>
      </trkpt>
      <trkpt lat="48.41314" lon="7.29273">
        <ele>942</ele>
        <time>2020-09-06T08:54:04.380Z</time>
      </trkpt>
      <trkpt lat="48.41314" lon="7.29273">
        <ele>942</ele>
        <time>2020-09-06T08:54:05.381Z</time>
      </trkpt>
      <trkpt lat="48.41313" lon="7.29273">
        <ele>942</ele>
        <time>2020-09-06T08:54:06.381Z</time>
      </trkpt>
      <trkpt lat="48.41313" lon="7.29273">
        <ele>942</ele>
        <time>2020-09-06T08:54:07.381Z</time>
      </trkpt>
      <trkpt lat="48.41312" lon="7.29274">
        <ele>942</ele>
        <time>2020-09-06T08:54:08.381Z</time>
      </trkpt>
      <trkpt lat="48.41312" lon="7.29274">
        <ele>942</ele>
        <time>2020-09-06T08:54:09.381Z</time>
      </trkpt>
      <trkpt lat="48.41312" lon="7.29274">
        <ele>942</ele>
        <time>2020-09-06T08:54:10.381Z</time>
      </trkpt>
      <trkpt lat="48.41312" lon="7.29273">
        <ele>942</ele>
        <time>2020-09-06T08:54:11.381Z</time>
      </trkpt>
      <trkpt lat="48.41311" lon="7.29273">
        <ele>941</ele>
        <time>2020-09-06T08:54:12.380Z</time>
      </trkpt>
      <trkpt lat="48.41311" lon="7.29273">
        <ele>941</ele>
        <time>2020-09-06T08:54:13.381Z</time>
      </trkpt>
      <trkpt lat="48.4131" lon="7.29273">
        <ele>941</ele>
        <time>2020-09-06T08:54:14.380Z</time>
      </trkpt>
      <trkpt lat="48.41309" lon="7.29272">
        <ele>941</ele>
        <time>2020-09-06T08:54:15.381Z</time>
      </trkpt>
      <trkpt lat="48.41309" lon="7.29271">
        <ele>940</ele>
        <time>2020-09-06T08:54:16.380Z</time>
      </trkpt>
      <trkpt lat="48.41308" lon="7.29271">
        <ele>940</ele>
        <time>2020-09-06T08:54:17.381Z</time>
      </trkpt>
      <trkpt lat="48.41307" lon="7.2927">
        <ele>940</ele>
        <time>2020-09-06T08:54:18.381Z</time>
      </trkpt>
      <trkpt lat="48.41307" lon="7.2927">
        <ele>940</ele>
        <time>2020-09-06T08:54:19.381Z</time>
      </trkpt>
      <trkpt lat="48.41307" lon="7.29269">
        <ele>940</ele>
        <time>2020-09-06T08:54:20.381Z</time>
      </trkpt>
      <trkpt lat="48.41307" lon="7.29268">
        <ele>940</ele>
        <time>2020-09-06T08:54:21.380Z</time>
      </trkpt>
      <trkpt lat="48.41306" lon="7.29268">
        <ele>940</ele>
        <time>2020-09-06T08:54:22.381Z</time>
      </trkpt>
      <trkpt lat="48.41306" lon="7.29268">
        <ele>941</ele>
        <time>2020-09-06T08:54:23.381Z</time>
      </trkpt>
      <trkpt lat="48.41305" lon="7.29268">
        <ele>941</ele>
        <time>2020-09-06T08:54:24.381Z</time>
      </trkpt>
      <trkpt lat="48.41304" lon="7.29267">
        <ele>942</ele>
        <time>2020-09-06T08:54:25.381Z</time>
      </trkpt>
      <trkpt lat="48.41304" lon="7.29265">
        <ele>942</ele>
        <time>2020-09-06T08:54:26.381Z</time>
      </trkpt>
      <trkpt lat="48.41303" lon="7.29263">
        <ele>942</ele>
        <time>2020-09-06T08:54:27.381Z</time>
      </trkpt>
      <trkpt lat="48.41303" lon="7.29262">
        <ele>943</ele>
        <time>2020-09-06T08:54:28.381Z</time>
      </trkpt>
      <trkpt lat="48.41302" lon="7.29261">
        <ele>943</ele>
        <time>2020-09-06T08:54:29.381Z</time>
      </trkpt>
      <trkpt lat="48.41301" lon="7.2926">
        <ele>943</ele>
        <time>2020-09-06T08:54:30.380Z</time>
      </trkpt>
      <trkpt lat="48.413" lon="7.29259">
        <ele>943</ele>
        <time>2020-09-06T08:54:31.381Z</time>
      </trkpt>
      <trkpt lat="48.413" lon="7.29258">
        <ele>944</ele>
        <time>2020-09-06T08:54:32.381Z</time>
      </trkpt>
      <trkpt lat="48.41299" lon="7.29256">
        <ele>944</ele>
        <time>2020-09-06T08:54:33.381Z</time>
      </trkpt>
      <trkpt lat="48.41298" lon="7.29255">
        <ele>945</ele>
        <time>2020-09-06T08:54:34.381Z</time>
      </trkpt>
      <trkpt lat="48.41297" lon="7.29254">
        <ele>945</ele>
        <time>2020-09-06T08:54:35.381Z</time>
      </trkpt>
      <trkpt lat="48.41296" lon="7.29253">
        <ele>946</ele>
        <time>2020-09-06T08:54:36.380Z</time>
      </trkpt>
      <trkpt lat="48.41295" lon="7.29253">
        <ele>947</ele>
        <time>2020-09-06T08:54:37.381Z</time>
      </trkpt>
      <trkpt lat="48.41294" lon="7.29252">
        <ele>947</ele>
        <time>2020-09-06T08:54:38.380Z</time>
      </trkpt>
      <trkpt lat="48.41293" lon="7.29252">
        <ele>948</ele>
        <time>2020-09-06T08:54:39.381Z</time>
      </trkpt>
      <trkpt lat="48.41291" lon="7.29252">
        <ele>948</ele>
        <time>2020-09-06T08:54:40.381Z</time>
      </trkpt>
      <trkpt lat="48.4129" lon="7.29252">
        <ele>949</ele>
        <time>2020-09-06T08:54:41.381Z</time>
      </trkpt>
      <trkpt lat="48.41288" lon="7.29252">
        <ele>950</ele>
        <time>2020-09-06T08:54:42.381Z</time>
      </trkpt>
      <trkpt lat="48.41287" lon="7.29252">
        <ele>950</ele>
        <time>2020-09-06T08:54:43.381Z</time>
      </trkpt>
      <trkpt lat="48.41286" lon="7.29252">
        <ele>951</ele>
        <time>2020-09-06T08:54:44.380Z</time>
      </trkpt>
      <trkpt lat="48.41285" lon="7.29252">
        <ele>952</ele>
        <time>2020-09-06T08:54:45.381Z</time>
      </trkpt>
      <trkpt lat="48.41284" lon="7.29252">
        <ele>952</ele>
        <time>2020-09-06T08:54:46.381Z</time>
      </trkpt>
      <trkpt lat="48.41283" lon="7.29251">
        <ele>953</ele>
        <time>2020-09-06T08:54:47.381Z</time>
      </trkpt>
      <trkpt lat="48.41282" lon="7.29251">
        <ele>953</ele>
        <time>2020-09-06T08:54:48.381Z</time>
      </trkpt>
      <trkpt lat="48.41281" lon="7.2925">
        <ele>954</ele>
        <time>2020-09-06T08:54:49.380Z</time>
      </trkpt>
      <trkpt lat="48.4128" lon="7.29249">
        <ele>955</ele>
        <time>2020-09-06T08:54:50.380Z</time>
      </trkpt>
      <trkpt lat="48.4128" lon="7.29248">
        <ele>955</ele>
        <time>2020-09-06T08:54:51.381Z</time>
      </trkpt>
      <trkpt lat="48.41279" lon="7.29248">
        <ele>956</ele>
        <time>2020-09-06T08:54:52.381Z</time>
      </trkpt>
      <trkpt lat="48.41278" lon="7.29248">
        <ele>956</ele>
        <time>2020-09-06T08:54:53.381Z</time>
      </trkpt>
      <trkpt lat="48.41277" lon="7.29248">
        <ele>957</ele>
        <time>2020-09-06T08:54:54.380Z</time>
      </trkpt>
      <trkpt lat="48.41276" lon="7.29247">
        <ele>957</ele>
        <time>2020-09-06T08:54:55.381Z</time>
      </trkpt>
      <trkpt lat="48.41275" lon="7.29247">
        <ele>958</ele>
        <time>2020-09-06T08:54:56.381Z</time>
      </trkpt>
      <trkpt lat="48.41273" lon="7.29247">
        <ele>958</ele>
        <time>2020-09-06T08:54:57.381Z</time>
      </trkpt>
      <trkpt lat="48.41272" lon="7.29247">
        <ele>959</ele>
        <time>2020-09-06T08:54:58.380Z</time>
      </trkpt>
      <trkpt lat="48.41271" lon="7.29248">
        <ele>959</ele>
        <time>2020-09-06T08:54:59.380Z</time>
      </trkpt>
      <trkpt lat="48.41269" lon="7.29248">
        <ele>959</ele>
        <time>2020-09-06T08:55:00.381Z</time>
      </trkpt>
      <trkpt lat="48.41269" lon="7.29246">
        <ele>959</ele>
        <time>2020-09-06T08:55:01.381Z</time>
      </trkpt>
      <trkpt lat="48.41269" lon="7.29243">
        <ele>958</ele>
        <time>2020-09-06T08:55:02.381Z</time>
      </trkpt>
      <trkpt lat="48.41268" lon="7.2924">
        <ele>958</ele>
        <time>2020-09-06T08:55:03.381Z</time>
      </trkpt>
      <trkpt lat="48.41268" lon="7.29239">
        <ele>958</ele>
        <time>2020-09-06T08:55:04.381Z</time>
      </trkpt>
      <trkpt lat="48.41267" lon="7.29238">
        <ele>957</ele>
        <time>2020-09-06T08:55:05.381Z</time>
      </trkpt>
      <trkpt lat="48.41267" lon="7.29237">
        <ele>956</ele>
        <time>2020-09-06T08:55:06.381Z</time>
      </trkpt>
      <trkpt lat="48.41267" lon="7.29236">
        <ele>955</ele>
        <time>2020-09-06T08:55:07.381Z</time>
      </trkpt>
      <trkpt lat="48.41266" lon="7.29235">
        <ele>955</ele>
        <time>2020-09-06T08:55:08.381Z</time>
      </trkpt>
      <trkpt lat="48.41266" lon="7.29234">
        <ele>954</ele>
        <time>2020-09-06T08:55:09.380Z</time>
      </trkpt>
      <trkpt lat="48.41264" lon="7.29233">
        <ele>954</ele>
        <time>2020-09-06T08:55:10.381Z</time>
      </trkpt>
      <trkpt lat="48.41263" lon="7.29232">
        <ele>954</ele>
        <time>2020-09-06T08:55:11.381Z</time>
      </trkpt>
      <trkpt lat="48.41263" lon="7.29232">
        <ele>953</ele>
        <time>2020-09-06T08:55:12.380Z</time>
      </trkpt>
      <trkpt lat="48.41262" lon="7.29232">
        <ele>953</ele>
        <time>2020-09-06T08:55:13.380Z</time>
      </trkpt>
      <trkpt lat="48.41261" lon="7.29232">
        <ele>953</ele>
        <time>2020-09-06T08:55:14.381Z</time>
      </trkpt>
      <trkpt lat="48.41261" lon="7.29231">
        <ele>953</ele>
        <time>2020-09-06T08:55:15.381Z</time>
      </trkpt>
      <trkpt lat="48.41259" lon="7.29231">
        <ele>952</ele>
        <time>2020-09-06T08:55:16.381Z</time>
      </trkpt>
      <trkpt lat="48.41258" lon="7.29231">
        <ele>952</ele>
        <time>2020-09-06T08:55:17.381Z</time>
      </trkpt>
      <trkpt lat="48.41257" lon="7.29231">
        <ele>952</ele>
        <time>2020-09-06T08:55:18.381Z</time>
      </trkpt>
      <trkpt lat="48.41256" lon="7.29232">
        <ele>952</ele>
        <time>2020-09-06T08:55:19.380Z</time>
      </trkpt>
      <trkpt lat="48.41255" lon="7.29232">
        <ele>953</ele>
        <time>2020-09-06T08:55:20.381Z</time>
      </trkpt>
      <trkpt lat="48.41254" lon="7.29233">
        <ele>953</ele>
        <time>2020-09-06T08:55:21.381Z</time>
      </trkpt>
      <trkpt lat="48.41253" lon="7.29233">
        <ele>953</ele>
        <time>2020-09-06T08:55:22.380Z</time>
      </trkpt>
      <trkpt lat="48.41253" lon="7.29232">
        <ele>953</ele>
        <time>2020-09-06T08:55:23.381Z</time>
      </trkpt>
      <trkpt lat="48.41253" lon="7.29231">
        <ele>953</ele>
        <time>2020-09-06T08:55:24.381Z</time>
      </trkpt>
      <trkpt lat="48.41253" lon="7.2923">
        <ele>954</ele>
        <time>2020-09-06T08:55:25.381Z</time>
      </trkpt>
      <trkpt lat="48.41252" lon="7.29229">
        <ele>954</ele>
        <time>2020-09-06T08:55:26.381Z</time>
      </trkpt>
      <trkpt lat="48.41252" lon="7.29228">
        <ele>954</ele>
        <time>2020-09-06T08:55:27.381Z</time>
      </trkpt>
      <trkpt lat="48.41251" lon="7.29227">
        <ele>955</ele>
        <time>2020-09-06T08:55:28.381Z</time>
      </trkpt>
      <trkpt lat="48.41251" lon="7.29227">
        <ele>955</ele>
        <time>2020-09-06T08:55:29.381Z</time>
      </trkpt>
      <trkpt lat="48.41251" lon="7.29226">
        <ele>955</ele>
        <time>2020-09-06T08:55:30.380Z</time>
      </trkpt>
      <trkpt lat="48.41251" lon="7.29225">
        <ele>955</ele>
        <time>2020-09-06T08:55:31.380Z</time>
      </trkpt>
      <trkpt lat="48.41251" lon="7.29224">
        <ele>955</ele>
        <time>2020-09-06T08:55:32.381Z</time>
      </trkpt>
      <trkpt lat="48.41251" lon="7.29223">
        <ele>956</ele>
        <time>2020-09-06T08:55:33.381Z</time>
      </trkpt>
      <trkpt lat="48.4125" lon="7.29222">
        <ele>956</ele>
        <time>2020-09-06T08:55:34.381Z</time>
      </trkpt>
      <trkpt lat="48.41249" lon="7.29222">
        <ele>957</ele>
        <time>2020-09-06T08:55:35.380Z</time>
      </trkpt>
      <trkpt lat="48.41248" lon="7.29222">
        <ele>957</ele>
        <time>2020-09-06T08:55:36.380Z</time>
      </trkpt>
      <trkpt lat="48.41247" lon="7.29222">
        <ele>958</ele>
        <time>2020-09-06T08:55:37.381Z</time>
      </trkpt>
      <trkpt lat="48.41246" lon="7.29222">
        <ele>958</ele>
        <time>2020-09-06T08:55:38.381Z</time>
      </trkpt>
      <trkpt lat="48.41245" lon="7.29222">
        <ele>958</ele>
        <time>2020-09-06T08:55:39.381Z</time>
      </trkpt>
      <trkpt lat="48.41244" lon="7.29221">
        <ele>958</ele>
        <time>2020-09-06T08:55:40.381Z</time>
      </trkpt>
      <trkpt lat="48.41244" lon="7.29221">
        <ele>958</ele>
        <time>2020-09-06T08:55:41.380Z</time>
      </trkpt>
      <trkpt lat="48.41243" lon="7.29221">
        <ele>958</ele>
        <time>2020-09-06T08:55:42.381Z</time>
      </trkpt>
      <trkpt lat="48.41242" lon="7.29221">
        <ele>958</ele>
        <time>2020-09-06T08:55:43.381Z</time>
      </trkpt>
      <trkpt lat="48.4124" lon="7.2922">
        <ele>958</ele>
        <time>2020-09-06T08:55:44.381Z</time>
      </trkpt>
      <trkpt lat="48.41239" lon="7.2922">
        <ele>958</ele>
        <time>2020-09-06T08:55:45.381Z</time>
      </trkpt>
      <trkpt lat="48.41238" lon="7.2922">
        <ele>957</ele>
        <time>2020-09-06T08:55:46.381Z</time>
      </trkpt>
      <trkpt lat="48.41237" lon="7.2922">
        <ele>957</ele>
        <time>2020-09-06T08:55:47.381Z</time>
      </trkpt>
      <trkpt lat="48.41235" lon="7.2922">
        <ele>957</ele>
        <time>2020-09-06T08:55:48.380Z</time>
      </trkpt>
      <trkpt lat="48.41233" lon="7.29221">
        <ele>956</ele>
        <time>2020-09-06T08:55:49.381Z</time>
      </trkpt>
      <trkpt lat="48.41232" lon="7.2922">
        <ele>956</ele>
        <time>2020-09-06T08:55:50.381Z</time>
      </trkpt>
      <trkpt lat="48.41231" lon="7.29219">
        <ele>956</ele>
        <time>2020-09-06T08:55:51.381Z</time>
      </trkpt>
      <trkpt lat="48.4123" lon="7.29218">
        <ele>956</ele>
        <time>2020-09-06T08:55:52.381Z</time>
      </trkpt>
      <trkpt lat="48.41228" lon="7.29218">
        <ele>956</ele>
        <time>2020-09-06T08:55:53.381Z</time>
      </trkpt>
      <trkpt lat="48.41226" lon="7.29218">
        <ele>957</ele>
        <time>2020-09-06T08:55:54.381Z</time>
      </trkpt>
      <trkpt lat="48.41225" lon="7.29218">
        <ele>956</ele>
        <time>2020-09-06T08:55:55.381Z</time>
      </trkpt>
      <trkpt lat="48.41223" lon="7.29218">
        <ele>956</ele>
        <time>2020-09-06T08:55:56.380Z</time>
      </trkpt>
      <trkpt lat="48.41223" lon="7.29217">
        <ele>956</ele>
        <time>2020-09-06T08:55:57.381Z</time>
      </trkpt>
      <trkpt lat="48.41222" lon="7.29217">
        <ele>956</ele>
        <time>2020-09-06T08:55:58.381Z</time>
      </trkpt>
      <trkpt lat="48.41222" lon="7.29216">
        <ele>956</ele>
        <time>2020-09-06T08:55:59.381Z</time>
      </trkpt>
      <trkpt lat="48.41221" lon="7.29216">
        <ele>956</ele>
        <time>2020-09-06T08:56:00.381Z</time>
      </trkpt>
      <trkpt lat="48.41219" lon="7.29216">
        <ele>956</ele>
        <time>2020-09-06T08:56:01.380Z</time>
      </trkpt>
      <trkpt lat="48.41218" lon="7.29215">
        <ele>955</ele>
        <time>2020-09-06T08:56:02.381Z</time>
      </trkpt>
      <trkpt lat="48.41217" lon="7.29215">
        <ele>955</ele>
        <time>2020-09-06T08:56:03.381Z</time>
      </trkpt>
      <trkpt lat="48.41216" lon="7.29215">
        <ele>955</ele>
        <time>2020-09-06T08:56:04.381Z</time>
      </trkpt>
      <trkpt lat="48.41215" lon="7.29215">
        <ele>955</ele>
        <time>2020-09-06T08:56:05.381Z</time>
      </trkpt>
      <trkpt lat="48.41214" lon="7.29215">
        <ele>955</ele>
        <time>2020-09-06T08:56:06.380Z</time>
      </trkpt>
      <trkpt lat="48.41213" lon="7.29215">
        <ele>955</ele>
        <time>2020-09-06T08:56:07.381Z</time>
      </trkpt>
      <trkpt lat="48.41212" lon="7.29214">
        <ele>955</ele>
        <time>2020-09-06T08:56:08.381Z</time>
      </trkpt>
      <trkpt lat="48.41211" lon="7.29214">
        <ele>954</ele>
        <time>2020-09-06T08:56:09.381Z</time>
      </trkpt>
      <trkpt lat="48.41209" lon="7.29214">
        <ele>954</ele>
        <time>2020-09-06T08:56:10.381Z</time>
      </trkpt>
      <trkpt lat="48.41209" lon="7.29214">
        <ele>953</ele>
        <time>2020-09-06T08:56:11.381Z</time>
      </trkpt>
      <trkpt lat="48.41208" lon="7.29215">
        <ele>953</ele>
        <time>2020-09-06T08:56:12.381Z</time>
      </trkpt>
      <trkpt lat="48.41205" lon="7.29217">
        <ele>953</ele>
        <time>2020-09-06T08:56:13.381Z</time>
      </trkpt>
      <trkpt lat="48.41204" lon="7.29218">
        <ele>953</ele>
        <time>2020-09-06T08:56:14.381Z</time>
      </trkpt>
      <trkpt lat="48.41203" lon="7.29219">
        <ele>953</ele>
        <time>2020-09-06T08:56:15.381Z</time>
      </trkpt>
      <trkpt lat="48.41202" lon="7.29219">
        <ele>953</ele>
        <time>2020-09-06T08:56:16.381Z</time>
      </trkpt>
      <trkpt lat="48.41201" lon="7.29218">
        <ele>953</ele>
        <time>2020-09-06T08:56:17.381Z</time>
      </trkpt>
      <trkpt lat="48.41199" lon="7.29217">
        <ele>953</ele>
        <time>2020-09-06T08:56:18.381Z</time>
      </trkpt>
      <trkpt lat="48.41198" lon="7.29217">
        <ele>953</ele>
        <time>2020-09-06T08:56:19.381Z</time>
      </trkpt>
      <trkpt lat="48.41197" lon="7.29216">
        <ele>953</ele>
        <time>2020-09-06T08:56:20.381Z</time>
      </trkpt>
      <trkpt lat="48.41196" lon="7.29216">
        <ele>953</ele>
        <time>2020-09-06T08:56:21.381Z</time>
      </trkpt>
      <trkpt lat="48.41195" lon="7.29216">
        <ele>953</ele>
        <time>2020-09-06T08:56:22.381Z</time>
      </trkpt>
      <trkpt lat="48.41194" lon="7.29216">
        <ele>953</ele>
        <time>2020-09-06T08:56:23.381Z</time>
      </trkpt>
      <trkpt lat="48.41193" lon="7.29216">
        <ele>953</ele>
        <time>2020-09-06T08:56:24.381Z</time>
      </trkpt>
      <trkpt lat="48.41192" lon="7.29217">
        <ele>953</ele>
        <time>2020-09-06T08:56:25.380Z</time>
      </trkpt>
      <trkpt lat="48.41191" lon="7.29217">
        <ele>953</ele>
        <time>2020-09-06T08:56:26.381Z</time>
      </trkpt>
      <trkpt lat="48.4119" lon="7.29217">
        <ele>953</ele>
        <time>2020-09-06T08:56:27.380Z</time>
      </trkpt>
      <trkpt lat="48.41189" lon="7.29218">
        <ele>953</ele>
        <time>2020-09-06T08:56:28.381Z</time>
      </trkpt>
      <trkpt lat="48.41189" lon="7.29219">
        <ele>953</ele>
        <time>2020-09-06T08:56:29.381Z</time>
      </trkpt>
      <trkpt lat="48.41188" lon="7.29221">
        <ele>954</ele>
        <time>2020-09-06T08:56:30.381Z</time>
      </trkpt>
      <trkpt lat="48.41187" lon="7.29222">
        <ele>954</ele>
        <time>2020-09-06T08:56:31.381Z</time>
      </trkpt>
      <trkpt lat="48.41187" lon="7.29222">
        <ele>955</ele>
        <time>2020-09-06T08:56:32.381Z</time>
      </trkpt>
      <trkpt lat="48.41186" lon="7.29222">
        <ele>955</ele>
        <time>2020-09-06T08:56:33.380Z</time>
      </trkpt>
      <trkpt lat="48.41185" lon="7.29221">
        <ele>955</ele>
        <time>2020-09-06T08:56:34.381Z</time>
      </trkpt>
      <trkpt lat="48.41184" lon="7.29221">
        <ele>954</ele>
        <time>2020-09-06T08:56:35.381Z</time>
      </trkpt>
      <trkpt lat="48.41183" lon="7.2922">
        <ele>954</ele>
        <time>2020-09-06T08:56:36.380Z</time>
      </trkpt>
      <trkpt lat="48.41182" lon="7.2922">
        <ele>954</ele>
        <time>2020-09-06T08:56:37.381Z</time>
      </trkpt>
      <trkpt lat="48.41181" lon="7.2922">
        <ele>954</ele>
        <time>2020-09-06T08:56:38.380Z</time>
      </trkpt>
      <trkpt lat="48.41181" lon="7.2922">
        <ele>954</ele>
        <time>2020-09-06T08:56:39.381Z</time>
      </trkpt>
      <trkpt lat="48.4118" lon="7.2922">
        <ele>954</ele>
        <time>2020-09-06T08:56:40.380Z</time>
      </trkpt>
      <trkpt lat="48.41179" lon="7.2922">
        <ele>954</ele>
        <time>2020-09-06T08:56:41.380Z</time>
      </trkpt>
      <trkpt lat="48.41178" lon="7.2922">
        <ele>954</ele>
        <time>2020-09-06T08:56:42.381Z</time>
      </trkpt>
      <trkpt lat="48.41177" lon="7.29219">
        <ele>954</ele>
        <time>2020-09-06T08:56:43.381Z</time>
      </trkpt>
      <trkpt lat="48.41176" lon="7.29219">
        <ele>954</ele>
        <time>2020-09-06T08:56:44.381Z</time>
      </trkpt>
      <trkpt lat="48.41175" lon="7.29219">
        <ele>954</ele>
        <time>2020-09-06T08:56:45.380Z</time>
      </trkpt>
      <trkpt lat="48.41173" lon="7.29219">
        <ele>954</ele>
        <time>2020-09-06T08:56:46.380Z</time>
      </trkpt>
      <trkpt lat="48.41173" lon="7.29219">
        <ele>954</ele>
        <time>2020-09-06T08:56:47.381Z</time>
      </trkpt>
      <trkpt lat="48.41172" lon="7.29219">
        <ele>954</ele>
        <time>2020-09-06T08:56:48.381Z</time>
      </trkpt>
      <trkpt lat="48.41171" lon="7.29219">
        <ele>954</ele>
        <time>2020-09-06T08:56:49.380Z</time>
      </trkpt>
      <trkpt lat="48.4117" lon="7.29219">
        <ele>954</ele>
        <time>2020-09-06T08:56:50.380Z</time>
      </trkpt>
      <trkpt lat="48.4117" lon="7.29219">
        <ele>954</ele>
        <time>2020-09-06T08:56:51.381Z</time>
      </trkpt>
      <trkpt lat="48.41169" lon="7.29219">
        <ele>954</ele>
        <time>2020-09-06T08:56:52.381Z</time>
      </trkpt>
      <trkpt lat="48.41168" lon="7.29219">
        <ele>954</ele>
        <time>2020-09-06T08:56:53.381Z</time>
      </trkpt>
      <trkpt lat="48.41167" lon="7.29219">
        <ele>955</ele>
        <time>2020-09-06T08:56:54.381Z</time>
      </trkpt>
      <trkpt lat="48.41167" lon="7.29218">
        <ele>955</ele>
        <time>2020-09-06T08:56:55.380Z</time>
      </trkpt>
      <trkpt lat="48.41166" lon="7.29218">
        <ele>956</ele>
        <time>2020-09-06T08:56:56.381Z</time>
      </trkpt>
      <trkpt lat="48.41165" lon="7.29218">
        <ele>956</ele>
        <time>2020-09-06T08:56:57.381Z</time>
      </trkpt>
      <trkpt lat="48.41164" lon="7.29217">
        <ele>956</ele>
        <time>2020-09-06T08:56:58.381Z</time>
      </trkpt>
      <trkpt lat="48.41164" lon="7.29218">
        <ele>956</ele>
        <time>2020-09-06T08:56:59.381Z</time>
      </trkpt>
      <trkpt lat="48.41164" lon="7.29218">
        <ele>956</ele>
        <time>2020-09-06T08:57:00.381Z</time>
      </trkpt>
      <trkpt lat="48.41164" lon="7.29217">
        <ele>957</ele>
        <time>2020-09-06T08:57:01.381Z</time>
      </trkpt>
      <trkpt lat="48.41165" lon="7.29214">
        <ele>953</ele>
        <time>2020-09-06T08:57:02.382Z</time>
      </trkpt>
      <trkpt lat="48.41164" lon="7.29213">
        <ele>953</ele>
        <time>2020-09-06T08:57:03.382Z</time>
      </trkpt>
      <trkpt lat="48.41163" lon="7.29213">
        <ele>953</ele>
        <time>2020-09-06T08:57:04.381Z</time>
      </trkpt>
      <trkpt lat="48.41162" lon="7.29212">
        <ele>953</ele>
        <time>2020-09-06T08:57:05.382Z</time>
      </trkpt>
      <trkpt lat="48.41161" lon="7.29211">
        <ele>953</ele>
        <time>2020-09-06T08:57:06.382Z</time>
      </trkpt>
      <trkpt lat="48.4116" lon="7.29211">
        <ele>953</ele>
        <time>2020-09-06T08:57:07.382Z</time>
      </trkpt>
      <trkpt lat="48.41158" lon="7.2921">
        <ele>952</ele>
        <time>2020-09-06T08:57:08.382Z</time>
      </trkpt>
      <trkpt lat="48.41157" lon="7.2921">
        <ele>952</ele>
        <time>2020-09-06T08:57:09.382Z</time>
      </trkpt>
      <trkpt lat="48.41156" lon="7.29209">
        <ele>952</ele>
        <time>2020-09-06T08:57:10.382Z</time>
      </trkpt>
      <trkpt lat="48.41154" lon="7.29208">
        <ele>952</ele>
        <time>2020-09-06T08:57:11.382Z</time>
      </trkpt>
      <trkpt lat="48.41152" lon="7.29206">
        <ele>952</ele>
        <time>2020-09-06T08:57:12.381Z</time>
      </trkpt>
      <trkpt lat="48.41151" lon="7.29206">
        <ele>952</ele>
        <time>2020-09-06T08:57:13.381Z</time>
      </trkpt>
      <trkpt lat="48.41151" lon="7.29205">
        <ele>952</ele>
        <time>2020-09-06T08:57:14.382Z</time>
      </trkpt>
      <trkpt lat="48.4115" lon="7.29204">
        <ele>952</ele>
        <time>2020-09-06T08:57:15.382Z</time>
      </trkpt>
      <trkpt lat="48.41149" lon="7.29204">
        <ele>952</ele>
        <time>2020-09-06T08:57:16.382Z</time>
      </trkpt>
      <trkpt lat="48.41148" lon="7.29203">
        <ele>952</ele>
        <time>2020-09-06T08:57:17.382Z</time>
      </trkpt>
      <trkpt lat="48.41147" lon="7.29202">
        <ele>952</ele>
        <time>2020-09-06T08:57:18.382Z</time>
      </trkpt>
      <trkpt lat="48.41145" lon="7.29201">
        <ele>952</ele>
        <time>2020-09-06T08:57:19.382Z</time>
      </trkpt>
      <trkpt lat="48.41144" lon="7.29199">
        <ele>952</ele>
        <time>2020-09-06T08:57:20.382Z</time>
      </trkpt>
      <trkpt lat="48.41142" lon="7.29198">
        <ele>952</ele>
        <time>2020-09-06T08:57:21.381Z</time>
      </trkpt>
      <trkpt lat="48.41141" lon="7.29198">
        <ele>953</ele>
        <time>2020-09-06T08:57:22.382Z</time>
      </trkpt>
      <trkpt lat="48.4114" lon="7.29196">
        <ele>953</ele>
        <time>2020-09-06T08:57:23.382Z</time>
      </trkpt>
      <trkpt lat="48.41139" lon="7.29195">
        <ele>954</ele>
        <time>2020-09-06T08:57:24.382Z</time>
      </trkpt>
      <trkpt lat="48.41138" lon="7.29195">
        <ele>954</ele>
        <time>2020-09-06T08:57:25.382Z</time>
      </trkpt>
      <trkpt lat="48.41137" lon="7.29195">
        <ele>954</ele>
        <time>2020-09-06T08:57:26.382Z</time>
      </trkpt>
      <trkpt lat="48.41137" lon="7.29195">
        <ele>954</ele>
        <time>2020-09-06T08:57:27.382Z</time>
      </trkpt>
      <trkpt lat="48.41136" lon="7.29192">
        <ele>954</ele>
        <time>2020-09-06T08:57:28.382Z</time>
      </trkpt>
      <trkpt lat="48.41135" lon="7.2919">
        <ele>954</ele>
        <time>2020-09-06T08:57:29.382Z</time>
      </trkpt>
      <trkpt lat="48.41134" lon="7.2919">
        <ele>954</ele>
        <time>2020-09-06T08:57:30.382Z</time>
      </trkpt>
      <trkpt lat="48.41132" lon="7.29189">
        <ele>954</ele>
        <time>2020-09-06T08:57:31.382Z</time>
      </trkpt>
      <trkpt lat="48.41131" lon="7.29189">
        <ele>954</ele>
        <time>2020-09-06T08:57:32.382Z</time>
      </trkpt>
      <trkpt lat="48.4113" lon="7.29189">
        <ele>954</ele>
        <time>2020-09-06T08:57:33.382Z</time>
      </trkpt>
      <trkpt lat="48.4113" lon="7.29189">
        <ele>954</ele>
        <time>2020-09-06T08:57:34.382Z</time>
      </trkpt>
      <trkpt lat="48.41129" lon="7.29188">
        <ele>954</ele>
        <time>2020-09-06T08:57:35.382Z</time>
      </trkpt>
      <trkpt lat="48.41128" lon="7.29187">
        <ele>954</ele>
        <time>2020-09-06T08:57:36.382Z</time>
      </trkpt>
      <trkpt lat="48.41127" lon="7.29185">
        <ele>954</ele>
        <time>2020-09-06T08:57:37.382Z</time>
      </trkpt>
      <trkpt lat="48.41127" lon="7.29184">
        <ele>953</ele>
        <time>2020-09-06T08:57:38.382Z</time>
      </trkpt>
      <trkpt lat="48.41126" lon="7.29183">
        <ele>953</ele>
        <time>2020-09-06T08:57:39.381Z</time>
      </trkpt>
      <trkpt lat="48.41125" lon="7.29182">
        <ele>953</ele>
        <time>2020-09-06T08:57:40.381Z</time>
      </trkpt>
      <trkpt lat="48.41124" lon="7.29182">
        <ele>953</ele>
        <time>2020-09-06T08:57:41.382Z</time>
      </trkpt>
      <trkpt lat="48.41122" lon="7.29181">
        <ele>954</ele>
        <time>2020-09-06T08:57:42.381Z</time>
      </trkpt>
      <trkpt lat="48.41121" lon="7.2918">
        <ele>954</ele>
        <time>2020-09-06T08:57:43.381Z</time>
      </trkpt>
      <trkpt lat="48.4112" lon="7.29179">
        <ele>954</ele>
        <time>2020-09-06T08:57:44.382Z</time>
      </trkpt>
      <trkpt lat="48.41119" lon="7.29178">
        <ele>954</ele>
        <time>2020-09-06T08:57:45.382Z</time>
      </trkpt>
      <trkpt lat="48.41118" lon="7.29178">
        <ele>954</ele>
        <time>2020-09-06T08:57:46.382Z</time>
      </trkpt>
      <trkpt lat="48.41117" lon="7.29177">
        <ele>953</ele>
        <time>2020-09-06T08:57:47.382Z</time>
      </trkpt>
      <trkpt lat="48.41116" lon="7.29176">
        <ele>953</ele>
        <time>2020-09-06T08:57:48.382Z</time>
      </trkpt>
      <trkpt lat="48.41116" lon="7.29174">
        <ele>952</ele>
        <time>2020-09-06T08:57:49.382Z</time>
      </trkpt>
      <trkpt lat="48.41115" lon="7.29173">
        <ele>952</ele>
        <time>2020-09-06T08:57:50.382Z</time>
      </trkpt>
      <trkpt lat="48.41114" lon="7.29172">
        <ele>952</ele>
        <time>2020-09-06T08:57:51.382Z</time>
      </trkpt>
      <trkpt lat="48.41114" lon="7.2917">
        <ele>952</ele>
        <time>2020-09-06T08:57:52.382Z</time>
      </trkpt>
      <trkpt lat="48.41113" lon="7.29169">
        <ele>951</ele>
        <time>2020-09-06T08:57:53.382Z</time>
      </trkpt>
      <trkpt lat="48.41112" lon="7.29168">
        <ele>951</ele>
        <time>2020-09-06T08:57:54.382Z</time>
      </trkpt>
      <trkpt lat="48.4111" lon="7.29166">
        <ele>951</ele>
        <time>2020-09-06T08:57:55.382Z</time>
      </trkpt>
      <trkpt lat="48.4111" lon="7.29165">
        <ele>951</ele>
        <time>2020-09-06T08:57:56.382Z</time>
      </trkpt>
      <trkpt lat="48.41109" lon="7.29164">
        <ele>951</ele>
        <time>2020-09-06T08:57:57.382Z</time>
      </trkpt>
      <trkpt lat="48.41108" lon="7.29164">
        <ele>951</ele>
        <time>2020-09-06T08:57:58.381Z</time>
      </trkpt>
      <trkpt lat="48.41106" lon="7.29164">
        <ele>951</ele>
        <time>2020-09-06T08:57:59.382Z</time>
      </trkpt>
      <trkpt lat="48.41102" lon="7.29161">
        <ele>952</ele>
        <time>2020-09-06T08:58:00.381Z</time>
      </trkpt>
      <trkpt lat="48.41101" lon="7.2916">
        <ele>953</ele>
        <time>2020-09-06T08:58:01.381Z</time>
      </trkpt>
      <trkpt lat="48.411" lon="7.29158">
        <ele>953</ele>
        <time>2020-09-06T08:58:02.382Z</time>
      </trkpt>
      <trkpt lat="48.411" lon="7.29157">
        <ele>953</ele>
        <time>2020-09-06T08:58:03.381Z</time>
      </trkpt>
      <trkpt lat="48.41099" lon="7.29156">
        <ele>953</ele>
        <time>2020-09-06T08:58:04.382Z</time>
      </trkpt>
      <trkpt lat="48.41098" lon="7.29154">
        <ele>953</ele>
        <time>2020-09-06T08:58:05.381Z</time>
      </trkpt>
      <trkpt lat="48.41097" lon="7.29153">
        <ele>954</ele>
        <time>2020-09-06T08:58:06.381Z</time>
      </trkpt>
      <trkpt lat="48.41095" lon="7.29153">
        <ele>954</ele>
        <time>2020-09-06T08:58:07.382Z</time>
      </trkpt>
      <trkpt lat="48.41094" lon="7.29153">
        <ele>954</ele>
        <time>2020-09-06T08:58:08.382Z</time>
      </trkpt>
      <trkpt lat="48.41092" lon="7.29152">
        <ele>955</ele>
        <time>2020-09-06T08:58:09.382Z</time>
      </trkpt>
      <trkpt lat="48.41091" lon="7.29151">
        <ele>955</ele>
        <time>2020-09-06T08:58:10.382Z</time>
      </trkpt>
      <trkpt lat="48.4109" lon="7.2915">
        <ele>956</ele>
        <time>2020-09-06T08:58:11.382Z</time>
      </trkpt>
      <trkpt lat="48.41089" lon="7.29149">
        <ele>956</ele>
        <time>2020-09-06T08:58:12.381Z</time>
      </trkpt>
      <trkpt lat="48.41089" lon="7.29148">
        <ele>956</ele>
        <time>2020-09-06T08:58:13.381Z</time>
      </trkpt>
      <trkpt lat="48.41088" lon="7.29146">
        <ele>956</ele>
        <time>2020-09-06T08:58:14.382Z</time>
      </trkpt>
      <trkpt lat="48.41088" lon="7.29145">
        <ele>956</ele>
        <time>2020-09-06T08:58:15.382Z</time>
      </trkpt>
      <trkpt lat="48.41087" lon="7.29143">
        <ele>957</ele>
        <time>2020-09-06T08:58:16.382Z</time>
      </trkpt>
      <trkpt lat="48.41087" lon="7.29141">
        <ele>957</ele>
        <time>2020-09-06T08:58:17.382Z</time>
      </trkpt>
      <trkpt lat="48.41086" lon="7.2914">
        <ele>957</ele>
        <time>2020-09-06T08:58:18.382Z</time>
      </trkpt>
      <trkpt lat="48.41085" lon="7.29139">
        <ele>957</ele>
        <time>2020-09-06T08:58:19.382Z</time>
      </trkpt>
      <trkpt lat="48.41084" lon="7.29139">
        <ele>958</ele>
        <time>2020-09-06T08:58:20.382Z</time>
      </trkpt>
      <trkpt lat="48.41083" lon="7.29138">
        <ele>958</ele>
        <time>2020-09-06T08:58:21.382Z</time>
      </trkpt>
      <trkpt lat="48.41082" lon="7.29136">
        <ele>959</ele>
        <time>2020-09-06T08:58:22.382Z</time>
      </trkpt>
      <trkpt lat="48.4108" lon="7.29135">
        <ele>959</ele>
        <time>2020-09-06T08:58:23.382Z</time>
      </trkpt>
      <trkpt lat="48.4108" lon="7.29134">
        <ele>959</ele>
        <time>2020-09-06T08:58:24.382Z</time>
      </trkpt>
      <trkpt lat="48.41078" lon="7.29133">
        <ele>959</ele>
        <time>2020-09-06T08:58:25.381Z</time>
      </trkpt>
      <trkpt lat="48.41077" lon="7.29131">
        <ele>959</ele>
        <time>2020-09-06T08:58:26.382Z</time>
      </trkpt>
      <trkpt lat="48.41075" lon="7.2913">
        <ele>959</ele>
        <time>2020-09-06T08:58:27.382Z</time>
      </trkpt>
      <trkpt lat="48.41073" lon="7.29129">
        <ele>960</ele>
        <time>2020-09-06T08:58:28.381Z</time>
      </trkpt>
      <trkpt lat="48.41072" lon="7.29128">
        <ele>960</ele>
        <time>2020-09-06T08:58:29.381Z</time>
      </trkpt>
      <trkpt lat="48.41072" lon="7.29128">
        <ele>960</ele>
        <time>2020-09-06T08:58:30.381Z</time>
      </trkpt>
      <trkpt lat="48.41071" lon="7.29128">
        <ele>960</ele>
        <time>2020-09-06T08:58:31.382Z</time>
      </trkpt>
      <trkpt lat="48.4107" lon="7.29126">
        <ele>960</ele>
        <time>2020-09-06T08:58:32.382Z</time>
      </trkpt>
      <trkpt lat="48.4107" lon="7.29125">
        <ele>960</ele>
        <time>2020-09-06T08:58:33.382Z</time>
      </trkpt>
      <trkpt lat="48.41071" lon="7.29125">
        <ele>960</ele>
        <time>2020-09-06T08:58:34.382Z</time>
      </trkpt>
      <trkpt lat="48.4107" lon="7.29123">
        <ele>960</ele>
        <time>2020-09-06T08:58:35.382Z</time>
      </trkpt>
      <trkpt lat="48.41069" lon="7.29122">
        <ele>960</ele>
        <time>2020-09-06T08:58:36.382Z</time>
      </trkpt>
      <trkpt lat="48.41068" lon="7.2912">
        <ele>960</ele>
        <time>2020-09-06T08:58:37.382Z</time>
      </trkpt>
      <trkpt lat="48.41067" lon="7.29118">
        <ele>960</ele>
        <time>2020-09-06T08:58:38.382Z</time>
      </trkpt>
      <trkpt lat="48.41067" lon="7.29117">
        <ele>960</ele>
        <time>2020-09-06T08:58:39.382Z</time>
      </trkpt>
      <trkpt lat="48.41066" lon="7.29116">
        <ele>961</ele>
        <time>2020-09-06T08:58:40.382Z</time>
      </trkpt>
      <trkpt lat="48.41066" lon="7.29115">
        <ele>961</ele>
        <time>2020-09-06T08:58:41.382Z</time>
      </trkpt>
      <trkpt lat="48.41066" lon="7.29114">
        <ele>961</ele>
        <time>2020-09-06T08:58:42.382Z</time>
      </trkpt>
      <trkpt lat="48.41065" lon="7.29112">
        <ele>960</ele>
        <time>2020-09-06T08:58:43.382Z</time>
      </trkpt>
      <trkpt lat="48.41064" lon="7.29111">
        <ele>960</ele>
        <time>2020-09-06T08:58:44.381Z</time>
      </trkpt>
      <trkpt lat="48.41063" lon="7.2911">
        <ele>960</ele>
        <time>2020-09-06T08:58:45.382Z</time>
      </trkpt>
      <trkpt lat="48.41063" lon="7.29108">
        <ele>960</ele>
        <time>2020-09-06T08:58:46.381Z</time>
      </trkpt>
      <trkpt lat="48.41062" lon="7.29107">
        <ele>960</ele>
        <time>2020-09-06T08:58:47.382Z</time>
      </trkpt>
      <trkpt lat="48.41062" lon="7.29106">
        <ele>960</ele>
        <time>2020-09-06T08:58:48.382Z</time>
      </trkpt>
      <trkpt lat="48.41062" lon="7.29105">
        <ele>960</ele>
        <time>2020-09-06T08:58:49.382Z</time>
      </trkpt>
      <trkpt lat="48.41062" lon="7.29104">
        <ele>960</ele>
        <time>2020-09-06T08:58:50.381Z</time>
      </trkpt>
      <trkpt lat="48.41061" lon="7.29102">
        <ele>961</ele>
        <time>2020-09-06T08:58:51.382Z</time>
      </trkpt>
      <trkpt lat="48.41061" lon="7.29101">
        <ele>961</ele>
        <time>2020-09-06T08:58:52.381Z</time>
      </trkpt>
      <trkpt lat="48.41061" lon="7.291">
        <ele>961</ele>
        <time>2020-09-06T08:58:53.382Z</time>
      </trkpt>
      <trkpt lat="48.41061" lon="7.29099">
        <ele>961</ele>
        <time>2020-09-06T08:58:54.381Z</time>
      </trkpt>
      <trkpt lat="48.4106" lon="7.29098">
        <ele>961</ele>
        <time>2020-09-06T08:58:55.381Z</time>
      </trkpt>
      <trkpt lat="48.4106" lon="7.29097">
        <ele>962</ele>
        <time>2020-09-06T08:58:56.382Z</time>
      </trkpt>
      <trkpt lat="48.41059" lon="7.29096">
        <ele>962</ele>
        <time>2020-09-06T08:58:57.382Z</time>
      </trkpt>
      <trkpt lat="48.41058" lon="7.29095">
        <ele>963</ele>
        <time>2020-09-06T08:58:58.382Z</time>
      </trkpt>
      <trkpt lat="48.41057" lon="7.29094">
        <ele>964</ele>
        <time>2020-09-06T08:58:59.381Z</time>
      </trkpt>
      <trkpt lat="48.41056" lon="7.29092">
        <ele>964</ele>
        <time>2020-09-06T08:59:00.382Z</time>
      </trkpt>
      <trkpt lat="48.41054" lon="7.29092">
        <ele>965</ele>
        <time>2020-09-06T08:59:01.382Z</time>
      </trkpt>
      <trkpt lat="48.41054" lon="7.29091">
        <ele>965</ele>
        <time>2020-09-06T08:59:02.382Z</time>
      </trkpt>
      <trkpt lat="48.41054" lon="7.2909">
        <ele>965</ele>
        <time>2020-09-06T08:59:03.382Z</time>
      </trkpt>
      <trkpt lat="48.41053" lon="7.29089">
        <ele>966</ele>
        <time>2020-09-06T08:59:04.382Z</time>
      </trkpt>
      <trkpt lat="48.41052" lon="7.29086">
        <ele>966</ele>
        <time>2020-09-06T08:59:05.382Z</time>
      </trkpt>
      <trkpt lat="48.4105" lon="7.29083">
        <ele>966</ele>
        <time>2020-09-06T08:59:06.382Z</time>
      </trkpt>
      <trkpt lat="48.41049" lon="7.2908">
        <ele>966</ele>
        <time>2020-09-06T08:59:07.382Z</time>
      </trkpt>
      <trkpt lat="48.41048" lon="7.29077">
        <ele>966</ele>
        <time>2020-09-06T08:59:08.382Z</time>
      </trkpt>
      <trkpt lat="48.41047" lon="7.29075">
        <ele>966</ele>
        <time>2020-09-06T08:59:09.382Z</time>
      </trkpt>
      <trkpt lat="48.41047" lon="7.29074">
        <ele>966</ele>
        <time>2020-09-06T08:59:10.381Z</time>
      </trkpt>
      <trkpt lat="48.41047" lon="7.29072">
        <ele>966</ele>
        <time>2020-09-06T08:59:11.381Z</time>
      </trkpt>
      <trkpt lat="48.41047" lon="7.29072">
        <ele>965</ele>
        <time>2020-09-06T08:59:12.382Z</time>
      </trkpt>
      <trkpt lat="48.41046" lon="7.2907">
        <ele>965</ele>
        <time>2020-09-06T08:59:13.381Z</time>
      </trkpt>
      <trkpt lat="48.41046" lon="7.29069">
        <ele>965</ele>
        <time>2020-09-06T08:59:14.382Z</time>
      </trkpt>
      <trkpt lat="48.41046" lon="7.29068">
        <ele>965</ele>
        <time>2020-09-06T08:59:15.382Z</time>
      </trkpt>
      <trkpt lat="48.41046" lon="7.29067">
        <ele>965</ele>
        <time>2020-09-06T08:59:16.382Z</time>
      </trkpt>
      <trkpt lat="48.41046" lon="7.29065">
        <ele>965</ele>
        <time>2020-09-06T08:59:17.381Z</time>
      </trkpt>
      <trkpt lat="48.41046" lon="7.29064">
        <ele>964</ele>
        <time>2020-09-06T08:59:18.382Z</time>
      </trkpt>
      <trkpt lat="48.41046" lon="7.29063">
        <ele>964</ele>
        <time>2020-09-06T08:59:19.382Z</time>
      </trkpt>
      <trkpt lat="48.41046" lon="7.29061">
        <ele>964</ele>
        <time>2020-09-06T08:59:20.382Z</time>
      </trkpt>
      <trkpt lat="48.41045" lon="7.2906">
        <ele>964</ele>
        <time>2020-09-06T08:59:21.381Z</time>
      </trkpt>
      <trkpt lat="48.41045" lon="7.29059">
        <ele>964</ele>
        <time>2020-09-06T08:59:22.382Z</time>
      </trkpt>
      <trkpt lat="48.41044" lon="7.29058">
        <ele>964</ele>
        <time>2020-09-06T08:59:23.382Z</time>
      </trkpt>
      <trkpt lat="48.41044" lon="7.29056">
        <ele>964</ele>
        <time>2020-09-06T08:59:24.382Z</time>
      </trkpt>
      <trkpt lat="48.41044" lon="7.29054">
        <ele>964</ele>
        <time>2020-09-06T08:59:25.382Z</time>
      </trkpt>
      <trkpt lat="48.41044" lon="7.29052">
        <ele>964</ele>
        <time>2020-09-06T08:59:26.381Z</time>
      </trkpt>
      <trkpt lat="48.41044" lon="7.2905">
        <ele>965</ele>
        <time>2020-09-06T08:59:27.382Z</time>
      </trkpt>
      <trkpt lat="48.41043" lon="7.29049">
        <ele>965</ele>
        <time>2020-09-06T08:59:28.382Z</time>
      </trkpt>
      <trkpt lat="48.41043" lon="7.29048">
        <ele>965</ele>
        <time>2020-09-06T08:59:29.382Z</time>
      </trkpt>
      <trkpt lat="48.41042" lon="7.29047">
        <ele>965</ele>
        <time>2020-09-06T08:59:30.382Z</time>
      </trkpt>
      <trkpt lat="48.41042" lon="7.29045">
        <ele>965</ele>
        <time>2020-09-06T08:59:31.382Z</time>
      </trkpt>
      <trkpt lat="48.41041" lon="7.29044">
        <ele>965</ele>
        <time>2020-09-06T08:59:32.382Z</time>
      </trkpt>
      <trkpt lat="48.41041" lon="7.29043">
        <ele>966</ele>
        <time>2020-09-06T08:59:33.382Z</time>
      </trkpt>
      <trkpt lat="48.4104" lon="7.29043">
        <ele>966</ele>
        <time>2020-09-06T08:59:34.381Z</time>
      </trkpt>
      <trkpt lat="48.41039" lon="7.29042">
        <ele>966</ele>
        <time>2020-09-06T08:59:35.382Z</time>
      </trkpt>
      <trkpt lat="48.41037" lon="7.29039">
        <ele>966</ele>
        <time>2020-09-06T08:59:36.381Z</time>
      </trkpt>
      <trkpt lat="48.41036" lon="7.29037">
        <ele>966</ele>
        <time>2020-09-06T08:59:37.382Z</time>
      </trkpt>
      <trkpt lat="48.41035" lon="7.29036">
        <ele>966</ele>
        <time>2020-09-06T08:59:38.382Z</time>
      </trkpt>
      <trkpt lat="48.41034" lon="7.29035">
        <ele>966</ele>
        <time>2020-09-06T08:59:39.381Z</time>
      </trkpt>
      <trkpt lat="48.41033" lon="7.29035">
        <ele>966</ele>
        <time>2020-09-06T08:59:40.381Z</time>
      </trkpt>
      <trkpt lat="48.41032" lon="7.29034">
        <ele>966</ele>
        <time>2020-09-06T08:59:41.382Z</time>
      </trkpt>
      <trkpt lat="48.41032" lon="7.29033">
        <ele>966</ele>
        <time>2020-09-06T08:59:42.382Z</time>
      </trkpt>
      <trkpt lat="48.41031" lon="7.29032">
        <ele>966</ele>
        <time>2020-09-06T08:59:43.382Z</time>
      </trkpt>
      <trkpt lat="48.4103" lon="7.29031">
        <ele>966</ele>
        <time>2020-09-06T08:59:44.382Z</time>
      </trkpt>
      <trkpt lat="48.41028" lon="7.2903">
        <ele>966</ele>
        <time>2020-09-06T08:59:45.381Z</time>
      </trkpt>
      <trkpt lat="48.41027" lon="7.29029">
        <ele>966</ele>
        <time>2020-09-06T08:59:46.382Z</time>
      </trkpt>
      <trkpt lat="48.41027" lon="7.29028">
        <ele>966</ele>
        <time>2020-09-06T08:59:47.382Z</time>
      </trkpt>
      <trkpt lat="48.41026" lon="7.29027">
        <ele>966</ele>
        <time>2020-09-06T08:59:48.381Z</time>
      </trkpt>
      <trkpt lat="48.41025" lon="7.29027">
        <ele>966</ele>
        <time>2020-09-06T08:59:49.382Z</time>
      </trkpt>
      <trkpt lat="48.41024" lon="7.29026">
        <ele>966</ele>
        <time>2020-09-06T08:59:50.382Z</time>
      </trkpt>
      <trkpt lat="48.41023" lon="7.29024">
        <ele>966</ele>
        <time>2020-09-06T08:59:51.381Z</time>
      </trkpt>
      <trkpt lat="48.41022" lon="7.29022">
        <ele>966</ele>
        <time>2020-09-06T08:59:52.382Z</time>
      </trkpt>
      <trkpt lat="48.41021" lon="7.2902">
        <ele>966</ele>
        <time>2020-09-06T08:59:53.381Z</time>
      </trkpt>
      <trkpt lat="48.4102" lon="7.2902">
        <ele>966</ele>
        <time>2020-09-06T08:59:54.381Z</time>
      </trkpt>
      <trkpt lat="48.41019" lon="7.29019">
        <ele>966</ele>
        <time>2020-09-06T08:59:55.382Z</time>
      </trkpt>
      <trkpt lat="48.41018" lon="7.29019">
        <ele>966</ele>
        <time>2020-09-06T08:59:56.382Z</time>
      </trkpt>
      <trkpt lat="48.41017" lon="7.29019">
        <ele>967</ele>
        <time>2020-09-06T08:59:57.382Z</time>
      </trkpt>
      <trkpt lat="48.41016" lon="7.29019">
        <ele>967</ele>
        <time>2020-09-06T08:59:58.381Z</time>
      </trkpt>
      <trkpt lat="48.41016" lon="7.29019">
        <ele>967</ele>
        <time>2020-09-06T08:59:59.382Z</time>
      </trkpt>
      <trkpt lat="48.41015" lon="7.29019">
        <ele>967</ele>
        <time>2020-09-06T09:00:00.382Z</time>
      </trkpt>
      <trkpt lat="48.41014" lon="7.2902">
        <ele>968</ele>
        <time>2020-09-06T09:00:01.382Z</time>
      </trkpt>
      <trkpt lat="48.41013" lon="7.29019">
        <ele>968</ele>
        <time>2020-09-06T09:00:02.382Z</time>
      </trkpt>
      <trkpt lat="48.41012" lon="7.29018">
        <ele>969</ele>
        <time>2020-09-06T09:00:03.381Z</time>
      </trkpt>
      <trkpt lat="48.4101" lon="7.29017">
        <ele>969</ele>
        <time>2020-09-06T09:00:04.382Z</time>
      </trkpt>
      <trkpt lat="48.41009" lon="7.29017">
        <ele>969</ele>
        <time>2020-09-06T09:00:05.382Z</time>
      </trkpt>
      <trkpt lat="48.41008" lon="7.29016">
        <ele>969</ele>
        <time>2020-09-06T09:00:06.381Z</time>
      </trkpt>
      <trkpt lat="48.41007" lon="7.29016">
        <ele>969</ele>
        <time>2020-09-06T09:00:07.381Z</time>
      </trkpt>
      <trkpt lat="48.41006" lon="7.29014">
        <ele>969</ele>
        <time>2020-09-06T09:00:08.382Z</time>
      </trkpt>
      <trkpt lat="48.41005" lon="7.29013">
        <ele>969</ele>
        <time>2020-09-06T09:00:09.382Z</time>
      </trkpt>
      <trkpt lat="48.41004" lon="7.29012">
        <ele>969</ele>
        <time>2020-09-06T09:00:10.382Z</time>
      </trkpt>
      <trkpt lat="48.41003" lon="7.29011">
        <ele>969</ele>
        <time>2020-09-06T09:00:11.381Z</time>
      </trkpt>
      <trkpt lat="48.41002" lon="7.29011">
        <ele>969</ele>
        <time>2020-09-06T09:00:12.382Z</time>
      </trkpt>
      <trkpt lat="48.41001" lon="7.2901">
        <ele>969</ele>
        <time>2020-09-06T09:00:13.382Z</time>
      </trkpt>
      <trkpt lat="48.41" lon="7.29009">
        <ele>969</ele>
        <time>2020-09-06T09:00:14.382Z</time>
      </trkpt>
      <trkpt lat="48.40999" lon="7.29009">
        <ele>969</ele>
        <time>2020-09-06T09:00:15.382Z</time>
      </trkpt>
      <trkpt lat="48.40997" lon="7.29008">
        <ele>969</ele>
        <time>2020-09-06T09:00:16.381Z</time>
      </trkpt>
      <trkpt lat="48.40995" lon="7.29008">
        <ele>969</ele>
        <time>2020-09-06T09:00:17.381Z</time>
      </trkpt>
      <trkpt lat="48.40993" lon="7.29007">
        <ele>969</ele>
        <time>2020-09-06T09:00:18.382Z</time>
      </trkpt>
      <trkpt lat="48.40992" lon="7.29007">
        <ele>969</ele>
        <time>2020-09-06T09:00:19.382Z</time>
      </trkpt>
      <trkpt lat="48.4099" lon="7.29006">
        <ele>969</ele>
        <time>2020-09-06T09:00:20.382Z</time>
      </trkpt>
      <trkpt lat="48.40988" lon="7.29005">
        <ele>969</ele>
        <time>2020-09-06T09:00:21.381Z</time>
      </trkpt>
      <trkpt lat="48.40987" lon="7.29004">
        <ele>969</ele>
        <time>2020-09-06T09:00:22.381Z</time>
      </trkpt>
      <trkpt lat="48.40986" lon="7.29004">
        <ele>969</ele>
        <time>2020-09-06T09:00:23.382Z</time>
      </trkpt>
      <trkpt lat="48.40985" lon="7.29003">
        <ele>969</ele>
        <time>2020-09-06T09:00:24.382Z</time>
      </trkpt>
      <trkpt lat="48.40984" lon="7.29002">
        <ele>969</ele>
        <time>2020-09-06T09:00:25.382Z</time>
      </trkpt>
      <trkpt lat="48.40983" lon="7.29001">
        <ele>969</ele>
        <time>2020-09-06T09:00:26.381Z</time>
      </trkpt>
      <trkpt lat="48.40982" lon="7.29001">
        <ele>969</ele>
        <time>2020-09-06T09:00:27.382Z</time>
      </trkpt>
      <trkpt lat="48.40982" lon="7.29">
        <ele>969</ele>
        <time>2020-09-06T09:00:28.382Z</time>
      </trkpt>
      <trkpt lat="48.40981" lon="7.29">
        <ele>969</ele>
        <time>2020-09-06T09:00:29.382Z</time>
      </trkpt>
      <trkpt lat="48.4098" lon="7.28999">
        <ele>969</ele>
        <time>2020-09-06T09:00:30.381Z</time>
      </trkpt>
      <trkpt lat="48.40979" lon="7.28998">
        <ele>969</ele>
        <time>2020-09-06T09:00:31.381Z</time>
      </trkpt>
      <trkpt lat="48.40978" lon="7.28998">
        <ele>969</ele>
        <time>2020-09-06T09:00:32.381Z</time>
      </trkpt>
      <trkpt lat="48.40976" lon="7.28999">
        <ele>970</ele>
        <time>2020-09-06T09:00:33.382Z</time>
      </trkpt>
      <trkpt lat="48.40975" lon="7.28999">
        <ele>970</ele>
        <time>2020-09-06T09:00:34.382Z</time>
      </trkpt>
      <trkpt lat="48.40974" lon="7.29">
        <ele>971</ele>
        <time>2020-09-06T09:00:35.382Z</time>
      </trkpt>
      <trkpt lat="48.40973" lon="7.29">
        <ele>971</ele>
        <time>2020-09-06T09:00:36.382Z</time>
      </trkpt>
      <trkpt lat="48.40971" lon="7.29">
        <ele>971</ele>
        <time>2020-09-06T09:00:37.382Z</time>
      </trkpt>
      <trkpt lat="48.4097" lon="7.29001">
        <ele>972</ele>
        <time>2020-09-06T09:00:38.382Z</time>
      </trkpt>
      <trkpt lat="48.40969" lon="7.29001">
        <ele>972</ele>
        <time>2020-09-06T09:00:39.382Z</time>
      </trkpt>
      <trkpt lat="48.40968" lon="7.29001">
        <ele>972</ele>
        <time>2020-09-06T09:00:40.382Z</time>
      </trkpt>
      <trkpt lat="48.40967" lon="7.29001">
        <ele>972</ele>
        <time>2020-09-06T09:00:41.382Z</time>
      </trkpt>
      <trkpt lat="48.40965" lon="7.29">
        <ele>973</ele>
        <time>2020-09-06T09:00:42.382Z</time>
      </trkpt>
      <trkpt lat="48.40964" lon="7.29">
        <ele>973</ele>
        <time>2020-09-06T09:00:43.382Z</time>
      </trkpt>
      <trkpt lat="48.40962" lon="7.29001">
        <ele>973</ele>
        <time>2020-09-06T09:00:44.382Z</time>
      </trkpt>
      <trkpt lat="48.40961" lon="7.29001">
        <ele>973</ele>
        <time>2020-09-06T09:00:45.382Z</time>
      </trkpt>
      <trkpt lat="48.40959" lon="7.29">
        <ele>974</ele>
        <time>2020-09-06T09:00:46.382Z</time>
      </trkpt>
      <trkpt lat="48.40958" lon="7.29001">
        <ele>974</ele>
        <time>2020-09-06T09:00:47.382Z</time>
      </trkpt>
      <trkpt lat="48.40957" lon="7.29002">
        <ele>974</ele>
        <time>2020-09-06T09:00:48.382Z</time>
      </trkpt>
      <trkpt lat="48.40956" lon="7.29003">
        <ele>975</ele>
        <time>2020-09-06T09:00:49.381Z</time>
      </trkpt>
      <trkpt lat="48.40954" lon="7.29003">
        <ele>975</ele>
        <time>2020-09-06T09:00:50.382Z</time>
      </trkpt>
      <trkpt lat="48.40953" lon="7.29003">
        <ele>976</ele>
        <time>2020-09-06T09:00:51.382Z</time>
      </trkpt>
      <trkpt lat="48.40952" lon="7.29003">
        <ele>976</ele>
        <time>2020-09-06T09:00:52.382Z</time>
      </trkpt>
      <trkpt lat="48.4095" lon="7.29003">
        <ele>977</ele>
        <time>2020-09-06T09:00:53.382Z</time>
      </trkpt>
      <trkpt lat="48.40949" lon="7.29003">
        <ele>977</ele>
        <time>2020-09-06T09:00:54.381Z</time>
      </trkpt>
      <trkpt lat="48.40948" lon="7.29003">
        <ele>977</ele>
        <time>2020-09-06T09:00:55.382Z</time>
      </trkpt>
      <trkpt lat="48.40947" lon="7.29003">
        <ele>978</ele>
        <time>2020-09-06T09:00:56.381Z</time>
      </trkpt>
      <trkpt lat="48.40946" lon="7.29004">
        <ele>978</ele>
        <time>2020-09-06T09:00:57.381Z</time>
      </trkpt>
      <trkpt lat="48.40944" lon="7.29004">
        <ele>978</ele>
        <time>2020-09-06T09:00:58.382Z</time>
      </trkpt>
      <trkpt lat="48.40943" lon="7.29005">
        <ele>978</ele>
        <time>2020-09-06T09:00:59.382Z</time>
      </trkpt>
      <trkpt lat="48.40942" lon="7.29004">
        <ele>978</ele>
        <time>2020-09-06T09:01:00.382Z</time>
      </trkpt>
      <trkpt lat="48.40941" lon="7.29004">
        <ele>979</ele>
        <time>2020-09-06T09:01:01.382Z</time>
      </trkpt>
      <trkpt lat="48.4094" lon="7.29004">
        <ele>979</ele>
        <time>2020-09-06T09:01:02.381Z</time>
      </trkpt>
      <trkpt lat="48.40939" lon="7.29003">
        <ele>979</ele>
        <time>2020-09-06T09:01:03.382Z</time>
      </trkpt>
      <trkpt lat="48.40938" lon="7.29003">
        <ele>980</ele>
        <time>2020-09-06T09:01:04.382Z</time>
      </trkpt>
      <trkpt lat="48.40937" lon="7.29004">
        <ele>981</ele>
        <time>2020-09-06T09:01:05.382Z</time>
      </trkpt>
      <trkpt lat="48.40936" lon="7.29003">
        <ele>982</ele>
        <time>2020-09-06T09:01:06.382Z</time>
      </trkpt>
      <trkpt lat="48.40935" lon="7.29003">
        <ele>982</ele>
        <time>2020-09-06T09:01:07.382Z</time>
      </trkpt>
      <trkpt lat="48.40934" lon="7.29004">
        <ele>983</ele>
        <time>2020-09-06T09:01:08.382Z</time>
      </trkpt>
      <trkpt lat="48.40932" lon="7.29003">
        <ele>983</ele>
        <time>2020-09-06T09:01:09.382Z</time>
      </trkpt>
      <trkpt lat="48.40931" lon="7.29003">
        <ele>983</ele>
        <time>2020-09-06T09:01:10.381Z</time>
      </trkpt>
      <trkpt lat="48.40929" lon="7.29002">
        <ele>983</ele>
        <time>2020-09-06T09:01:11.382Z</time>
      </trkpt>
      <trkpt lat="48.40928" lon="7.29002">
        <ele>983</ele>
        <time>2020-09-06T09:01:12.381Z</time>
      </trkpt>
      <trkpt lat="48.40927" lon="7.29001">
        <ele>982</ele>
        <time>2020-09-06T09:01:13.381Z</time>
      </trkpt>
      <trkpt lat="48.40926" lon="7.29001">
        <ele>982</ele>
        <time>2020-09-06T09:01:14.382Z</time>
      </trkpt>
      <trkpt lat="48.40925" lon="7.29001">
        <ele>981</ele>
        <time>2020-09-06T09:01:15.382Z</time>
      </trkpt>
      <trkpt lat="48.40924" lon="7.29001">
        <ele>981</ele>
        <time>2020-09-06T09:01:16.382Z</time>
      </trkpt>
      <trkpt lat="48.40922" lon="7.29">
        <ele>981</ele>
        <time>2020-09-06T09:01:17.382Z</time>
      </trkpt>
      <trkpt lat="48.40921" lon="7.29">
        <ele>980</ele>
        <time>2020-09-06T09:01:18.382Z</time>
      </trkpt>
      <trkpt lat="48.4092" lon="7.28999">
        <ele>980</ele>
        <time>2020-09-06T09:01:19.382Z</time>
      </trkpt>
      <trkpt lat="48.40918" lon="7.28998">
        <ele>980</ele>
        <time>2020-09-06T09:01:20.382Z</time>
      </trkpt>
      <trkpt lat="48.40918" lon="7.28998">
        <ele>979</ele>
        <time>2020-09-06T09:01:21.382Z</time>
      </trkpt>
      <trkpt lat="48.40917" lon="7.28998">
        <ele>979</ele>
        <time>2020-09-06T09:01:22.381Z</time>
      </trkpt>
      <trkpt lat="48.40916" lon="7.28997">
        <ele>979</ele>
        <time>2020-09-06T09:01:23.382Z</time>
      </trkpt>
      <trkpt lat="48.40915" lon="7.28996">
        <ele>979</ele>
        <time>2020-09-06T09:01:24.381Z</time>
      </trkpt>
      <trkpt lat="48.40914" lon="7.28995">
        <ele>979</ele>
        <time>2020-09-06T09:01:25.382Z</time>
      </trkpt>
      <trkpt lat="48.40914" lon="7.28994">
        <ele>979</ele>
        <time>2020-09-06T09:01:26.382Z</time>
      </trkpt>
      <trkpt lat="48.40913" lon="7.28993">
        <ele>979</ele>
        <time>2020-09-06T09:01:27.381Z</time>
      </trkpt>
      <trkpt lat="48.40912" lon="7.28992">
        <ele>979</ele>
        <time>2020-09-06T09:01:28.382Z</time>
      </trkpt>
      <trkpt lat="48.40911" lon="7.2899">
        <ele>979</ele>
        <time>2020-09-06T09:01:29.381Z</time>
      </trkpt>
      <trkpt lat="48.4091" lon="7.28988">
        <ele>978</ele>
        <time>2020-09-06T09:01:30.381Z</time>
      </trkpt>
      <trkpt lat="48.40909" lon="7.28987">
        <ele>978</ele>
        <time>2020-09-06T09:01:31.381Z</time>
      </trkpt>
      <trkpt lat="48.40908" lon="7.28985">
        <ele>978</ele>
        <time>2020-09-06T09:01:32.382Z</time>
      </trkpt>
      <trkpt lat="48.40907" lon="7.28984">
        <ele>978</ele>
        <time>2020-09-06T09:01:33.382Z</time>
      </trkpt>
      <trkpt lat="48.40907" lon="7.28984">
        <ele>978</ele>
        <time>2020-09-06T09:01:34.382Z</time>
      </trkpt>
      <trkpt lat="48.40905" lon="7.28983">
        <ele>979</ele>
        <time>2020-09-06T09:01:35.382Z</time>
      </trkpt>
      <trkpt lat="48.40904" lon="7.28983">
        <ele>979</ele>
        <time>2020-09-06T09:01:36.382Z</time>
      </trkpt>
      <trkpt lat="48.40903" lon="7.28983">
        <ele>980</ele>
        <time>2020-09-06T09:01:37.381Z</time>
      </trkpt>
      <trkpt lat="48.40902" lon="7.28982">
        <ele>980</ele>
        <time>2020-09-06T09:01:38.381Z</time>
      </trkpt>
      <trkpt lat="48.40902" lon="7.28981">
        <ele>981</ele>
        <time>2020-09-06T09:01:39.381Z</time>
      </trkpt>
      <trkpt lat="48.40901" lon="7.2898">
        <ele>981</ele>
        <time>2020-09-06T09:01:40.382Z</time>
      </trkpt>
      <trkpt lat="48.40901" lon="7.2898">
        <ele>981</ele>
        <time>2020-09-06T09:01:41.381Z</time>
      </trkpt>
      <trkpt lat="48.409" lon="7.28979">
        <ele>981</ele>
        <time>2020-09-06T09:01:42.383Z</time>
      </trkpt>
      <trkpt lat="48.40899" lon="7.28979">
        <ele>981</ele>
        <time>2020-09-06T09:01:43.383Z</time>
      </trkpt>
      <trkpt lat="48.40898" lon="7.28978">
        <ele>981</ele>
        <time>2020-09-06T09:01:44.382Z</time>
      </trkpt>
      <trkpt lat="48.40897" lon="7.28977">
        <ele>981</ele>
        <time>2020-09-06T09:01:45.382Z</time>
      </trkpt>
      <trkpt lat="48.40896" lon="7.28977">
        <ele>981</ele>
        <time>2020-09-06T09:01:46.382Z</time>
      </trkpt>
      <trkpt lat="48.40895" lon="7.28977">
        <ele>980</ele>
        <time>2020-09-06T09:01:47.383Z</time>
      </trkpt>
      <trkpt lat="48.40894" lon="7.28976">
        <ele>980</ele>
        <time>2020-09-06T09:01:48.383Z</time>
      </trkpt>
      <trkpt lat="48.40893" lon="7.28976">
        <ele>979</ele>
        <time>2020-09-06T09:01:49.383Z</time>
      </trkpt>
      <trkpt lat="48.40892" lon="7.28975">
        <ele>979</ele>
        <time>2020-09-06T09:01:50.382Z</time>
      </trkpt>
      <trkpt lat="48.40891" lon="7.28974">
        <ele>979</ele>
        <time>2020-09-06T09:01:51.383Z</time>
      </trkpt>
      <trkpt lat="48.40889" lon="7.28973">
        <ele>979</ele>
        <time>2020-09-06T09:01:52.383Z</time>
      </trkpt>
      <trkpt lat="48.40888" lon="7.28972">
        <ele>979</ele>
        <time>2020-09-06T09:01:53.383Z</time>
      </trkpt>
      <trkpt lat="48.40887" lon="7.2897">
        <ele>978</ele>
        <time>2020-09-06T09:01:54.383Z</time>
      </trkpt>
      <trkpt lat="48.40885" lon="7.28968">
        <ele>978</ele>
        <time>2020-09-06T09:01:55.382Z</time>
      </trkpt>
      <trkpt lat="48.40884" lon="7.28966">
        <ele>978</ele>
        <time>2020-09-06T09:01:56.383Z</time>
      </trkpt>
      <trkpt lat="48.40883" lon="7.28963">
        <ele>977</ele>
        <time>2020-09-06T09:01:57.383Z</time>
      </trkpt>
      <trkpt lat="48.40882" lon="7.28962">
        <ele>977</ele>
        <time>2020-09-06T09:01:58.383Z</time>
      </trkpt>
      <trkpt lat="48.40882" lon="7.28961">
        <ele>977</ele>
        <time>2020-09-06T09:01:59.383Z</time>
      </trkpt>
      <trkpt lat="48.40881" lon="7.2896">
        <ele>976</ele>
        <time>2020-09-06T09:02:00.382Z</time>
      </trkpt>
      <trkpt lat="48.4088" lon="7.2896">
        <ele>976</ele>
        <time>2020-09-06T09:02:01.383Z</time>
      </trkpt>
      <trkpt lat="48.40879" lon="7.28959">
        <ele>976</ele>
        <time>2020-09-06T09:02:02.383Z</time>
      </trkpt>
      <trkpt lat="48.40878" lon="7.28958">
        <ele>976</ele>
        <time>2020-09-06T09:02:03.383Z</time>
      </trkpt>
      <trkpt lat="48.40877" lon="7.28958">
        <ele>976</ele>
        <time>2020-09-06T09:02:04.383Z</time>
      </trkpt>
      <trkpt lat="48.40877" lon="7.28957">
        <ele>976</ele>
        <time>2020-09-06T09:02:05.383Z</time>
      </trkpt>
      <trkpt lat="48.40876" lon="7.28957">
        <ele>976</ele>
        <time>2020-09-06T09:02:06.382Z</time>
      </trkpt>
      <trkpt lat="48.40874" lon="7.28955">
        <ele>976</ele>
        <time>2020-09-06T09:02:07.383Z</time>
      </trkpt>
      <trkpt lat="48.40873" lon="7.28954">
        <ele>977</ele>
        <time>2020-09-06T09:02:08.383Z</time>
      </trkpt>
      <trkpt lat="48.40873" lon="7.28952">
        <ele>977</ele>
        <time>2020-09-06T09:02:09.383Z</time>
      </trkpt>
      <trkpt lat="48.40871" lon="7.28951">
        <ele>977</ele>
        <time>2020-09-06T09:02:10.382Z</time>
      </trkpt>
      <trkpt lat="48.4087" lon="7.28949">
        <ele>977</ele>
        <time>2020-09-06T09:02:11.383Z</time>
      </trkpt>
      <trkpt lat="48.40869" lon="7.28947">
        <ele>977</ele>
        <time>2020-09-06T09:02:12.382Z</time>
      </trkpt>
      <trkpt lat="48.40868" lon="7.28946">
        <ele>977</ele>
        <time>2020-09-06T09:02:13.383Z</time>
      </trkpt>
      <trkpt lat="48.40867" lon="7.28946">
        <ele>978</ele>
        <time>2020-09-06T09:02:14.383Z</time>
      </trkpt>
      <trkpt lat="48.40867" lon="7.28946">
        <ele>978</ele>
        <time>2020-09-06T09:02:15.383Z</time>
      </trkpt>
      <trkpt lat="48.40867" lon="7.28947">
        <ele>978</ele>
        <time>2020-09-06T09:02:16.383Z</time>
      </trkpt>
      <trkpt lat="48.40867" lon="7.28946">
        <ele>978</ele>
        <time>2020-09-06T09:02:17.383Z</time>
      </trkpt>
      <trkpt lat="48.40867" lon="7.28945">
        <ele>978</ele>
        <time>2020-09-06T09:02:18.383Z</time>
      </trkpt>
      <trkpt lat="48.40866" lon="7.28943">
        <ele>978</ele>
        <time>2020-09-06T09:02:19.382Z</time>
      </trkpt>
      <trkpt lat="48.40866" lon="7.28942">
        <ele>978</ele>
        <time>2020-09-06T09:02:20.383Z</time>
      </trkpt>
      <trkpt lat="48.40865" lon="7.28941">
        <ele>978</ele>
        <time>2020-09-06T09:02:21.383Z</time>
      </trkpt>
      <trkpt lat="48.40863" lon="7.2894">
        <ele>978</ele>
        <time>2020-09-06T09:02:22.383Z</time>
      </trkpt>
      <trkpt lat="48.40863" lon="7.28939">
        <ele>978</ele>
        <time>2020-09-06T09:02:23.383Z</time>
      </trkpt>
      <trkpt lat="48.40862" lon="7.28938">
        <ele>978</ele>
        <time>2020-09-06T09:02:24.383Z</time>
      </trkpt>
      <trkpt lat="48.40861" lon="7.28937">
        <ele>978</ele>
        <time>2020-09-06T09:02:25.383Z</time>
      </trkpt>
      <trkpt lat="48.4086" lon="7.28937">
        <ele>978</ele>
        <time>2020-09-06T09:02:26.383Z</time>
      </trkpt>
      <trkpt lat="48.4086" lon="7.28936">
        <ele>979</ele>
        <time>2020-09-06T09:02:27.383Z</time>
      </trkpt>
      <trkpt lat="48.40859" lon="7.28935">
        <ele>979</ele>
        <time>2020-09-06T09:02:28.382Z</time>
      </trkpt>
      <trkpt lat="48.40858" lon="7.28934">
        <ele>979</ele>
        <time>2020-09-06T09:02:29.383Z</time>
      </trkpt>
      <trkpt lat="48.40858" lon="7.28933">
        <ele>980</ele>
        <time>2020-09-06T09:02:30.382Z</time>
      </trkpt>
      <trkpt lat="48.40857" lon="7.28931">
        <ele>980</ele>
        <time>2020-09-06T09:02:31.383Z</time>
      </trkpt>
      <trkpt lat="48.40856" lon="7.2893">
        <ele>980</ele>
        <time>2020-09-06T09:02:32.383Z</time>
      </trkpt>
      <trkpt lat="48.40855" lon="7.28928">
        <ele>981</ele>
        <time>2020-09-06T09:02:33.382Z</time>
      </trkpt>
      <trkpt lat="48.40854" lon="7.28926">
        <ele>981</ele>
        <time>2020-09-06T09:02:34.383Z</time>
      </trkpt>
      <trkpt lat="48.40852" lon="7.28924">
        <ele>981</ele>
        <time>2020-09-06T09:02:35.383Z</time>
      </trkpt>
      <trkpt lat="48.40851" lon="7.28923">
        <ele>981</ele>
        <time>2020-09-06T09:02:36.383Z</time>
      </trkpt>
      <trkpt lat="48.4085" lon="7.28922">
        <ele>981</ele>
        <time>2020-09-06T09:02:37.383Z</time>
      </trkpt>
      <trkpt lat="48.40849" lon="7.2892">
        <ele>980</ele>
        <time>2020-09-06T09:02:38.383Z</time>
      </trkpt>
      <trkpt lat="48.40849" lon="7.28919">
        <ele>980</ele>
        <time>2020-09-06T09:02:39.383Z</time>
      </trkpt>
      <trkpt lat="48.40848" lon="7.28916">
        <ele>980</ele>
        <time>2020-09-06T09:02:40.382Z</time>
      </trkpt>
      <trkpt lat="48.40848" lon="7.28914">
        <ele>980</ele>
        <time>2020-09-06T09:02:41.383Z</time>
      </trkpt>
      <trkpt lat="48.40847" lon="7.28912">
        <ele>980</ele>
        <time>2020-09-06T09:02:42.383Z</time>
      </trkpt>
      <trkpt lat="48.40845" lon="7.28909">
        <ele>980</ele>
        <time>2020-09-06T09:02:43.383Z</time>
      </trkpt>
      <trkpt lat="48.40845" lon="7.28907">
        <ele>980</ele>
        <time>2020-09-06T09:02:44.382Z</time>
      </trkpt>
      <trkpt lat="48.40844" lon="7.28907">
        <ele>980</ele>
        <time>2020-09-06T09:02:45.383Z</time>
      </trkpt>
      <trkpt lat="48.40843" lon="7.28906">
        <ele>981</ele>
        <time>2020-09-06T09:02:46.383Z</time>
      </trkpt>
      <trkpt lat="48.40842" lon="7.28905">
        <ele>981</ele>
        <time>2020-09-06T09:02:47.383Z</time>
      </trkpt>
      <trkpt lat="48.40842" lon="7.28904">
        <ele>981</ele>
        <time>2020-09-06T09:02:48.382Z</time>
      </trkpt>
      <trkpt lat="48.40841" lon="7.28903">
        <ele>981</ele>
        <time>2020-09-06T09:02:49.383Z</time>
      </trkpt>
      <trkpt lat="48.4084" lon="7.28901">
        <ele>982</ele>
        <time>2020-09-06T09:02:50.383Z</time>
      </trkpt>
      <trkpt lat="48.4084" lon="7.289">
        <ele>982</ele>
        <time>2020-09-06T09:02:51.382Z</time>
      </trkpt>
      <trkpt lat="48.40839" lon="7.28898">
        <ele>982</ele>
        <time>2020-09-06T09:02:52.383Z</time>
      </trkpt>
      <trkpt lat="48.40838" lon="7.28896">
        <ele>982</ele>
        <time>2020-09-06T09:02:53.383Z</time>
      </trkpt>
      <trkpt lat="48.40837" lon="7.28895">
        <ele>983</ele>
        <time>2020-09-06T09:02:54.383Z</time>
      </trkpt>
      <trkpt lat="48.40836" lon="7.28893">
        <ele>983</ele>
        <time>2020-09-06T09:02:55.383Z</time>
      </trkpt>
      <trkpt lat="48.40835" lon="7.28892">
        <ele>983</ele>
        <time>2020-09-06T09:02:56.382Z</time>
      </trkpt>
      <trkpt lat="48.40834" lon="7.2889">
        <ele>983</ele>
        <time>2020-09-06T09:02:57.383Z</time>
      </trkpt>
      <trkpt lat="48.40832" lon="7.28887">
        <ele>983</ele>
        <time>2020-09-06T09:02:58.383Z</time>
      </trkpt>
      <trkpt lat="48.40831" lon="7.28885">
        <ele>983</ele>
        <time>2020-09-06T09:02:59.382Z</time>
      </trkpt>
      <trkpt lat="48.4083" lon="7.28883">
        <ele>983</ele>
        <time>2020-09-06T09:03:00.383Z</time>
      </trkpt>
      <trkpt lat="48.4083" lon="7.28881">
        <ele>983</ele>
        <time>2020-09-06T09:03:01.383Z</time>
      </trkpt>
      <trkpt lat="48.40829" lon="7.2888">
        <ele>983</ele>
        <time>2020-09-06T09:03:02.383Z</time>
      </trkpt>
      <trkpt lat="48.40829" lon="7.28878">
        <ele>983</ele>
        <time>2020-09-06T09:03:03.382Z</time>
      </trkpt>
      <trkpt lat="48.40829" lon="7.28877">
        <ele>983</ele>
        <time>2020-09-06T09:03:04.383Z</time>
      </trkpt>
      <trkpt lat="48.40828" lon="7.28875">
        <ele>983</ele>
        <time>2020-09-06T09:03:05.383Z</time>
      </trkpt>
      <trkpt lat="48.40828" lon="7.28873">
        <ele>983</ele>
        <time>2020-09-06T09:03:06.383Z</time>
      </trkpt>
      <trkpt lat="48.40828" lon="7.28871">
        <ele>983</ele>
        <time>2020-09-06T09:03:07.383Z</time>
      </trkpt>
      <trkpt lat="48.40827" lon="7.28869">
        <ele>983</ele>
        <time>2020-09-06T09:03:08.382Z</time>
      </trkpt>
      <trkpt lat="48.40826" lon="7.28868">
        <ele>984</ele>
        <time>2020-09-06T09:03:09.383Z</time>
      </trkpt>
      <trkpt lat="48.40825" lon="7.28866">
        <ele>985</ele>
        <time>2020-09-06T09:03:10.383Z</time>
      </trkpt>
      <trkpt lat="48.40824" lon="7.28864">
        <ele>985</ele>
        <time>2020-09-06T09:03:11.383Z</time>
      </trkpt>
      <trkpt lat="48.40824" lon="7.28863">
        <ele>985</ele>
        <time>2020-09-06T09:03:12.383Z</time>
      </trkpt>
      <trkpt lat="48.40824" lon="7.28862">
        <ele>985</ele>
        <time>2020-09-06T09:03:13.382Z</time>
      </trkpt>
      <trkpt lat="48.40824" lon="7.28861">
        <ele>985</ele>
        <time>2020-09-06T09:03:14.383Z</time>
      </trkpt>
      <trkpt lat="48.40823" lon="7.28861">
        <ele>985</ele>
        <time>2020-09-06T09:03:15.383Z</time>
      </trkpt>
      <trkpt lat="48.40823" lon="7.28859">
        <ele>985</ele>
        <time>2020-09-06T09:03:16.382Z</time>
      </trkpt>
      <trkpt lat="48.40822" lon="7.28858">
        <ele>986</ele>
        <time>2020-09-06T09:03:17.383Z</time>
      </trkpt>
      <trkpt lat="48.40821" lon="7.28857">
        <ele>986</ele>
        <time>2020-09-06T09:03:18.383Z</time>
      </trkpt>
      <trkpt lat="48.4082" lon="7.28857">
        <ele>986</ele>
        <time>2020-09-06T09:03:19.383Z</time>
      </trkpt>
      <trkpt lat="48.40819" lon="7.28856">
        <ele>986</ele>
        <time>2020-09-06T09:03:20.382Z</time>
      </trkpt>
      <trkpt lat="48.40818" lon="7.28854">
        <ele>986</ele>
        <time>2020-09-06T09:03:21.383Z</time>
      </trkpt>
      <trkpt lat="48.40817" lon="7.28852">
        <ele>985</ele>
        <time>2020-09-06T09:03:22.382Z</time>
      </trkpt>
      <trkpt lat="48.40817" lon="7.2885">
        <ele>985</ele>
        <time>2020-09-06T09:03:23.383Z</time>
      </trkpt>
      <trkpt lat="48.40816" lon="7.28848">
        <ele>985</ele>
        <time>2020-09-06T09:03:24.383Z</time>
      </trkpt>
      <trkpt lat="48.40815" lon="7.28847">
        <ele>985</ele>
        <time>2020-09-06T09:03:25.383Z</time>
      </trkpt>
      <trkpt lat="48.40815" lon="7.28846">
        <ele>985</ele>
        <time>2020-09-06T09:03:26.383Z</time>
      </trkpt>
      <trkpt lat="48.40815" lon="7.28845">
        <ele>985</ele>
        <time>2020-09-06T09:03:27.383Z</time>
      </trkpt>
      <trkpt lat="48.40814" lon="7.28843">
        <ele>985</ele>
        <time>2020-09-06T09:03:28.383Z</time>
      </trkpt>
      <trkpt lat="48.40814" lon="7.28842">
        <ele>985</ele>
        <time>2020-09-06T09:03:29.383Z</time>
      </trkpt>
      <trkpt lat="48.40813" lon="7.28841">
        <ele>985</ele>
        <time>2020-09-06T09:03:30.383Z</time>
      </trkpt>
      <trkpt lat="48.40812" lon="7.28839">
        <ele>985</ele>
        <time>2020-09-06T09:03:31.383Z</time>
      </trkpt>
      <trkpt lat="48.40812" lon="7.28838">
        <ele>985</ele>
        <time>2020-09-06T09:03:32.382Z</time>
      </trkpt>
      <trkpt lat="48.40812" lon="7.28837">
        <ele>985</ele>
        <time>2020-09-06T09:03:33.383Z</time>
      </trkpt>
      <trkpt lat="48.40811" lon="7.28836">
        <ele>985</ele>
        <time>2020-09-06T09:03:34.383Z</time>
      </trkpt>
      <trkpt lat="48.40811" lon="7.28835">
        <ele>985</ele>
        <time>2020-09-06T09:03:35.383Z</time>
      </trkpt>
      <trkpt lat="48.4081" lon="7.28834">
        <ele>985</ele>
        <time>2020-09-06T09:03:36.383Z</time>
      </trkpt>
      <trkpt lat="48.4081" lon="7.28833">
        <ele>985</ele>
        <time>2020-09-06T09:03:37.382Z</time>
      </trkpt>
      <trkpt lat="48.40809" lon="7.28832">
        <ele>985</ele>
        <time>2020-09-06T09:03:38.382Z</time>
      </trkpt>
      <trkpt lat="48.40808" lon="7.28831">
        <ele>985</ele>
        <time>2020-09-06T09:03:39.383Z</time>
      </trkpt>
      <trkpt lat="48.40808" lon="7.2883">
        <ele>986</ele>
        <time>2020-09-06T09:03:40.383Z</time>
      </trkpt>
      <trkpt lat="48.40807" lon="7.28828">
        <ele>986</ele>
        <time>2020-09-06T09:03:41.383Z</time>
      </trkpt>
      <trkpt lat="48.40806" lon="7.28825">
        <ele>987</ele>
        <time>2020-09-06T09:03:42.383Z</time>
      </trkpt>
      <trkpt lat="48.40805" lon="7.28823">
        <ele>987</ele>
        <time>2020-09-06T09:03:43.382Z</time>
      </trkpt>
      <trkpt lat="48.40804" lon="7.28822">
        <ele>988</ele>
        <time>2020-09-06T09:03:44.383Z</time>
      </trkpt>
      <trkpt lat="48.40804" lon="7.2882">
        <ele>988</ele>
        <time>2020-09-06T09:03:45.383Z</time>
      </trkpt>
      <trkpt lat="48.40804" lon="7.28819">
        <ele>989</ele>
        <time>2020-09-06T09:03:46.383Z</time>
      </trkpt>
      <trkpt lat="48.40803" lon="7.28816">
        <ele>989</ele>
        <time>2020-09-06T09:03:47.383Z</time>
      </trkpt>
      <trkpt lat="48.40803" lon="7.28814">
        <ele>989</ele>
        <time>2020-09-06T09:03:48.383Z</time>
      </trkpt>
      <trkpt lat="48.40803" lon="7.28812">
        <ele>990</ele>
        <time>2020-09-06T09:03:49.383Z</time>
      </trkpt>
      <trkpt lat="48.40802" lon="7.28811">
        <ele>990</ele>
        <time>2020-09-06T09:03:50.382Z</time>
      </trkpt>
      <trkpt lat="48.40802" lon="7.28809">
        <ele>990</ele>
        <time>2020-09-06T09:03:51.383Z</time>
      </trkpt>
      <trkpt lat="48.40802" lon="7.28807">
        <ele>990</ele>
        <time>2020-09-06T09:03:52.383Z</time>
      </trkpt>
      <trkpt lat="48.40802" lon="7.28806">
        <ele>990</ele>
        <time>2020-09-06T09:03:53.382Z</time>
      </trkpt>
      <trkpt lat="48.40802" lon="7.28804">
        <ele>990</ele>
        <time>2020-09-06T09:03:54.383Z</time>
      </trkpt>
      <trkpt lat="48.40802" lon="7.28803">
        <ele>990</ele>
        <time>2020-09-06T09:03:55.383Z</time>
      </trkpt>
      <trkpt lat="48.40801" lon="7.28801">
        <ele>990</ele>
        <time>2020-09-06T09:03:56.383Z</time>
      </trkpt>
      <trkpt lat="48.408" lon="7.288">
        <ele>990</ele>
        <time>2020-09-06T09:03:57.382Z</time>
      </trkpt>
      <trkpt lat="48.408" lon="7.288">
        <ele>991</ele>
        <time>2020-09-06T09:03:58.383Z</time>
      </trkpt>
      <trkpt lat="48.40798" lon="7.28798">
        <ele>991</ele>
        <time>2020-09-06T09:03:59.383Z</time>
      </trkpt>
      <trkpt lat="48.40797" lon="7.28797">
        <ele>991</ele>
        <time>2020-09-06T09:04:00.383Z</time>
      </trkpt>
      <trkpt lat="48.40797" lon="7.28795">
        <ele>991</ele>
        <time>2020-09-06T09:04:01.383Z</time>
      </trkpt>
      <trkpt lat="48.40796" lon="7.28793">
        <ele>990</ele>
        <time>2020-09-06T09:04:02.383Z</time>
      </trkpt>
      <trkpt lat="48.40795" lon="7.28792">
        <ele>990</ele>
        <time>2020-09-06T09:04:03.382Z</time>
      </trkpt>
      <trkpt lat="48.40795" lon="7.2879">
        <ele>990</ele>
        <time>2020-09-06T09:04:04.383Z</time>
      </trkpt>
      <trkpt lat="48.40795" lon="7.28789">
        <ele>990</ele>
        <time>2020-09-06T09:04:05.383Z</time>
      </trkpt>
      <trkpt lat="48.40794" lon="7.28787">
        <ele>989</ele>
        <time>2020-09-06T09:04:06.382Z</time>
      </trkpt>
      <trkpt lat="48.40794" lon="7.28786">
        <ele>989</ele>
        <time>2020-09-06T09:04:07.383Z</time>
      </trkpt>
      <trkpt lat="48.40793" lon="7.28784">
        <ele>989</ele>
        <time>2020-09-06T09:04:08.383Z</time>
      </trkpt>
      <trkpt lat="48.40792" lon="7.28782">
        <ele>989</ele>
        <time>2020-09-06T09:04:09.383Z</time>
      </trkpt>
      <trkpt lat="48.40792" lon="7.28779">
        <ele>989</ele>
        <time>2020-09-06T09:04:10.382Z</time>
      </trkpt>
      <trkpt lat="48.40791" lon="7.28777">
        <ele>989</ele>
        <time>2020-09-06T09:04:11.383Z</time>
      </trkpt>
      <trkpt lat="48.40791" lon="7.28775">
        <ele>989</ele>
        <time>2020-09-06T09:04:12.383Z</time>
      </trkpt>
      <trkpt lat="48.4079" lon="7.28774">
        <ele>989</ele>
        <time>2020-09-06T09:04:13.383Z</time>
      </trkpt>
      <trkpt lat="48.40789" lon="7.28772">
        <ele>989</ele>
        <time>2020-09-06T09:04:14.382Z</time>
      </trkpt>
      <trkpt lat="48.40789" lon="7.2877">
        <ele>989</ele>
        <time>2020-09-06T09:04:15.383Z</time>
      </trkpt>
      <trkpt lat="48.40788" lon="7.28769">
        <ele>989</ele>
        <time>2020-09-06T09:04:16.383Z</time>
      </trkpt>
      <trkpt lat="48.40787" lon="7.28767">
        <ele>989</ele>
        <time>2020-09-06T09:04:17.382Z</time>
      </trkpt>
      <trkpt lat="48.40787" lon="7.28765">
        <ele>989</ele>
        <time>2020-09-06T09:04:18.383Z</time>
      </trkpt>
      <trkpt lat="48.40787" lon="7.28763">
        <ele>988</ele>
        <time>2020-09-06T09:04:19.382Z</time>
      </trkpt>
      <trkpt lat="48.40786" lon="7.28761">
        <ele>989</ele>
        <time>2020-09-06T09:04:20.383Z</time>
      </trkpt>
      <trkpt lat="48.40785" lon="7.2876">
        <ele>989</ele>
        <time>2020-09-06T09:04:21.382Z</time>
      </trkpt>
      <trkpt lat="48.40785" lon="7.28758">
        <ele>989</ele>
        <time>2020-09-06T09:04:22.382Z</time>
      </trkpt>
      <trkpt lat="48.40785" lon="7.28756">
        <ele>989</ele>
        <time>2020-09-06T09:04:23.382Z</time>
      </trkpt>
      <trkpt lat="48.40785" lon="7.28756">
        <ele>990</ele>
        <time>2020-09-06T09:04:24.382Z</time>
      </trkpt>
      <trkpt lat="48.40785" lon="7.28755">
        <ele>990</ele>
        <time>2020-09-06T09:04:25.382Z</time>
      </trkpt>
      <trkpt lat="48.40785" lon="7.28754">
        <ele>990</ele>
        <time>2020-09-06T09:04:26.383Z</time>
      </trkpt>
      <trkpt lat="48.40785" lon="7.28754">
        <ele>990</ele>
        <time>2020-09-06T09:04:27.383Z</time>
      </trkpt>
      <trkpt lat="48.40784" lon="7.28753">
        <ele>990</ele>
        <time>2020-09-06T09:04:28.383Z</time>
      </trkpt>
      <trkpt lat="48.40783" lon="7.2875">
        <ele>990</ele>
        <time>2020-09-06T09:04:29.382Z</time>
      </trkpt>
      <trkpt lat="48.40781" lon="7.28748">
        <ele>990</ele>
        <time>2020-09-06T09:04:30.383Z</time>
      </trkpt>
      <trkpt lat="48.40781" lon="7.28746">
        <ele>991</ele>
        <time>2020-09-06T09:04:31.383Z</time>
      </trkpt>
      <trkpt lat="48.40781" lon="7.28745">
        <ele>991</ele>
        <time>2020-09-06T09:04:32.383Z</time>
      </trkpt>
      <trkpt lat="48.4078" lon="7.28744">
        <ele>992</ele>
        <time>2020-09-06T09:04:33.383Z</time>
      </trkpt>
      <trkpt lat="48.4078" lon="7.28743">
        <ele>992</ele>
        <time>2020-09-06T09:04:34.382Z</time>
      </trkpt>
      <trkpt lat="48.4078" lon="7.28742">
        <ele>992</ele>
        <time>2020-09-06T09:04:35.382Z</time>
      </trkpt>
      <trkpt lat="48.4078" lon="7.2874">
        <ele>992</ele>
        <time>2020-09-06T09:04:36.383Z</time>
      </trkpt>
      <trkpt lat="48.40779" lon="7.28739">
        <ele>992</ele>
        <time>2020-09-06T09:04:37.382Z</time>
      </trkpt>
      <trkpt lat="48.40779" lon="7.28737">
        <ele>992</ele>
        <time>2020-09-06T09:04:38.383Z</time>
      </trkpt>
      <trkpt lat="48.40778" lon="7.28735">
        <ele>992</ele>
        <time>2020-09-06T09:04:39.383Z</time>
      </trkpt>
      <trkpt lat="48.40778" lon="7.28733">
        <ele>992</ele>
        <time>2020-09-06T09:04:40.383Z</time>
      </trkpt>
      <trkpt lat="48.40777" lon="7.28731">
        <ele>992</ele>
        <time>2020-09-06T09:04:41.383Z</time>
      </trkpt>
      <trkpt lat="48.40777" lon="7.2873">
        <ele>992</ele>
        <time>2020-09-06T09:04:42.383Z</time>
      </trkpt>
      <trkpt lat="48.40777" lon="7.28729">
        <ele>992</ele>
        <time>2020-09-06T09:04:43.382Z</time>
      </trkpt>
      <trkpt lat="48.40776" lon="7.28728">
        <ele>992</ele>
        <time>2020-09-06T09:04:44.383Z</time>
      </trkpt>
      <trkpt lat="48.40776" lon="7.28727">
        <ele>992</ele>
        <time>2020-09-06T09:04:45.382Z</time>
      </trkpt>
      <trkpt lat="48.40777" lon="7.28725">
        <ele>993</ele>
        <time>2020-09-06T09:04:46.383Z</time>
      </trkpt>
      <trkpt lat="48.40777" lon="7.28724">
        <ele>993</ele>
        <time>2020-09-06T09:04:47.383Z</time>
      </trkpt>
      <trkpt lat="48.40776" lon="7.28722">
        <ele>993</ele>
        <time>2020-09-06T09:04:48.383Z</time>
      </trkpt>
      <trkpt lat="48.40776" lon="7.2872">
        <ele>994</ele>
        <time>2020-09-06T09:04:49.383Z</time>
      </trkpt>
      <trkpt lat="48.40776" lon="7.28719">
        <ele>994</ele>
        <time>2020-09-06T09:04:50.382Z</time>
      </trkpt>
      <trkpt lat="48.40775" lon="7.28717">
        <ele>994</ele>
        <time>2020-09-06T09:04:51.383Z</time>
      </trkpt>
      <trkpt lat="48.40775" lon="7.28716">
        <ele>994</ele>
        <time>2020-09-06T09:04:52.383Z</time>
      </trkpt>
      <trkpt lat="48.40775" lon="7.28714">
        <ele>994</ele>
        <time>2020-09-06T09:04:53.383Z</time>
      </trkpt>
      <trkpt lat="48.40774" lon="7.28712">
        <ele>994</ele>
        <time>2020-09-06T09:04:54.383Z</time>
      </trkpt>
      <trkpt lat="48.40773" lon="7.2871">
        <ele>994</ele>
        <time>2020-09-06T09:04:55.383Z</time>
      </trkpt>
      <trkpt lat="48.40772" lon="7.28708">
        <ele>994</ele>
        <time>2020-09-06T09:04:56.382Z</time>
      </trkpt>
      <trkpt lat="48.40772" lon="7.28707">
        <ele>994</ele>
        <time>2020-09-06T09:04:57.383Z</time>
      </trkpt>
      <trkpt lat="48.40772" lon="7.28706">
        <ele>995</ele>
        <time>2020-09-06T09:04:58.383Z</time>
      </trkpt>
      <trkpt lat="48.40772" lon="7.28705">
        <ele>995</ele>
        <time>2020-09-06T09:04:59.382Z</time>
      </trkpt>
      <trkpt lat="48.40771" lon="7.28703">
        <ele>995</ele>
        <time>2020-09-06T09:05:00.383Z</time>
      </trkpt>
      <trkpt lat="48.4077" lon="7.28701">
        <ele>995</ele>
        <time>2020-09-06T09:05:01.383Z</time>
      </trkpt>
      <trkpt lat="48.40769" lon="7.28699">
        <ele>995</ele>
        <time>2020-09-06T09:05:02.382Z</time>
      </trkpt>
      <trkpt lat="48.40769" lon="7.28697">
        <ele>995</ele>
        <time>2020-09-06T09:05:03.383Z</time>
      </trkpt>
      <trkpt lat="48.40769" lon="7.28696">
        <ele>995</ele>
        <time>2020-09-06T09:05:04.383Z</time>
      </trkpt>
      <trkpt lat="48.40769" lon="7.28693">
        <ele>994</ele>
        <time>2020-09-06T09:05:05.382Z</time>
      </trkpt>
      <trkpt lat="48.40769" lon="7.28691">
        <ele>994</ele>
        <time>2020-09-06T09:05:06.383Z</time>
      </trkpt>
      <trkpt lat="48.40768" lon="7.2869">
        <ele>995</ele>
        <time>2020-09-06T09:05:07.383Z</time>
      </trkpt>
      <trkpt lat="48.40768" lon="7.28689">
        <ele>995</ele>
        <time>2020-09-06T09:05:08.383Z</time>
      </trkpt>
      <trkpt lat="48.40768" lon="7.28688">
        <ele>995</ele>
        <time>2020-09-06T09:05:09.383Z</time>
      </trkpt>
      <trkpt lat="48.40768" lon="7.28686">
        <ele>996</ele>
        <time>2020-09-06T09:05:10.382Z</time>
      </trkpt>
      <trkpt lat="48.40768" lon="7.28685">
        <ele>996</ele>
        <time>2020-09-06T09:05:11.383Z</time>
      </trkpt>
      <trkpt lat="48.40768" lon="7.28683">
        <ele>996</ele>
        <time>2020-09-06T09:05:12.383Z</time>
      </trkpt>
      <trkpt lat="48.40768" lon="7.28682">
        <ele>996</ele>
        <time>2020-09-06T09:05:13.383Z</time>
      </trkpt>
      <trkpt lat="48.40768" lon="7.28681">
        <ele>996</ele>
        <time>2020-09-06T09:05:14.383Z</time>
      </trkpt>
      <trkpt lat="48.40768" lon="7.2868">
        <ele>997</ele>
        <time>2020-09-06T09:05:15.382Z</time>
      </trkpt>
      <trkpt lat="48.40767" lon="7.2868">
        <ele>997</ele>
        <time>2020-09-06T09:05:16.383Z</time>
      </trkpt>
      <trkpt lat="48.40767" lon="7.28677">
        <ele>997</ele>
        <time>2020-09-06T09:05:17.383Z</time>
      </trkpt>
      <trkpt lat="48.40767" lon="7.28675">
        <ele>997</ele>
        <time>2020-09-06T09:05:18.383Z</time>
      </trkpt>
      <trkpt lat="48.40766" lon="7.28673">
        <ele>998</ele>
        <time>2020-09-06T09:05:19.383Z</time>
      </trkpt>
      <trkpt lat="48.40765" lon="7.28672">
        <ele>998</ele>
        <time>2020-09-06T09:05:20.383Z</time>
      </trkpt>
      <trkpt lat="48.40764" lon="7.28671">
        <ele>998</ele>
        <time>2020-09-06T09:05:21.383Z</time>
      </trkpt>
      <trkpt lat="48.40764" lon="7.28669">
        <ele>998</ele>
        <time>2020-09-06T09:05:22.383Z</time>
      </trkpt>
      <trkpt lat="48.40763" lon="7.28667">
        <ele>998</ele>
        <time>2020-09-06T09:05:23.382Z</time>
      </trkpt>
      <trkpt lat="48.40762" lon="7.28664">
        <ele>998</ele>
        <time>2020-09-06T09:05:24.383Z</time>
      </trkpt>
      <trkpt lat="48.40762" lon="7.28663">
        <ele>998</ele>
        <time>2020-09-06T09:05:25.383Z</time>
      </trkpt>
      <trkpt lat="48.40762" lon="7.28661">
        <ele>998</ele>
        <time>2020-09-06T09:05:26.383Z</time>
      </trkpt>
      <trkpt lat="48.40762" lon="7.28659">
        <ele>999</ele>
        <time>2020-09-06T09:05:27.383Z</time>
      </trkpt>
      <trkpt lat="48.40762" lon="7.28657">
        <ele>999</ele>
        <time>2020-09-06T09:05:28.382Z</time>
      </trkpt>
      <trkpt lat="48.40762" lon="7.28656">
        <ele>999</ele>
        <time>2020-09-06T09:05:29.383Z</time>
      </trkpt>
      <trkpt lat="48.40761" lon="7.28654">
        <ele>999</ele>
        <time>2020-09-06T09:05:30.382Z</time>
      </trkpt>
      <trkpt lat="48.4076" lon="7.28652">
        <ele>999</ele>
        <time>2020-09-06T09:05:31.383Z</time>
      </trkpt>
      <trkpt lat="48.4076" lon="7.28651">
        <ele>999</ele>
        <time>2020-09-06T09:05:32.382Z</time>
      </trkpt>
      <trkpt lat="48.4076" lon="7.28649">
        <ele>1000</ele>
        <time>2020-09-06T09:05:33.383Z</time>
      </trkpt>
      <trkpt lat="48.40759" lon="7.28648">
        <ele>1000</ele>
        <time>2020-09-06T09:05:34.382Z</time>
      </trkpt>
      <trkpt lat="48.40759" lon="7.28647">
        <ele>1000</ele>
        <time>2020-09-06T09:05:35.383Z</time>
      </trkpt>
      <trkpt lat="48.40759" lon="7.28646">
        <ele>1000</ele>
        <time>2020-09-06T09:05:36.383Z</time>
      </trkpt>
      <trkpt lat="48.40758" lon="7.28645">
        <ele>1000</ele>
        <time>2020-09-06T09:05:37.383Z</time>
      </trkpt>
      <trkpt lat="48.40758" lon="7.28643">
        <ele>999</ele>
        <time>2020-09-06T09:05:38.383Z</time>
      </trkpt>
      <trkpt lat="48.40758" lon="7.28641">
        <ele>999</ele>
        <time>2020-09-06T09:05:39.383Z</time>
      </trkpt>
      <trkpt lat="48.40758" lon="7.28639">
        <ele>999</ele>
        <time>2020-09-06T09:05:40.383Z</time>
      </trkpt>
      <trkpt lat="48.40758" lon="7.28637">
        <ele>999</ele>
        <time>2020-09-06T09:05:41.383Z</time>
      </trkpt>
      <trkpt lat="48.40759" lon="7.28635">
        <ele>999</ele>
        <time>2020-09-06T09:05:42.383Z</time>
      </trkpt>
      <trkpt lat="48.40759" lon="7.28632">
        <ele>1000</ele>
        <time>2020-09-06T09:05:43.382Z</time>
      </trkpt>
      <trkpt lat="48.40759" lon="7.2863">
        <ele>1000</ele>
        <time>2020-09-06T09:05:44.383Z</time>
      </trkpt>
      <trkpt lat="48.40759" lon="7.28625">
        <ele>1000</ele>
        <time>2020-09-06T09:05:45.382Z</time>
      </trkpt>
      <trkpt lat="48.40759" lon="7.28622">
        <ele>1000</ele>
        <time>2020-09-06T09:05:46.383Z</time>
      </trkpt>
      <trkpt lat="48.40758" lon="7.2862">
        <ele>1000</ele>
        <time>2020-09-06T09:05:47.383Z</time>
      </trkpt>
      <trkpt lat="48.40758" lon="7.28619">
        <ele>1000</ele>
        <time>2020-09-06T09:05:48.383Z</time>
      </trkpt>
      <trkpt lat="48.40759" lon="7.28616">
        <ele>1000</ele>
        <time>2020-09-06T09:05:49.382Z</time>
      </trkpt>
      <trkpt lat="48.40759" lon="7.28614">
        <ele>1000</ele>
        <time>2020-09-06T09:05:50.383Z</time>
      </trkpt>
      <trkpt lat="48.40758" lon="7.28613">
        <ele>1000</ele>
        <time>2020-09-06T09:05:51.383Z</time>
      </trkpt>
      <trkpt lat="48.40758" lon="7.28613">
        <ele>1000</ele>
        <time>2020-09-06T09:05:52.383Z</time>
      </trkpt>
      <trkpt lat="48.40758" lon="7.28612">
        <ele>1000</ele>
        <time>2020-09-06T09:05:53.383Z</time>
      </trkpt>
      <trkpt lat="48.40757" lon="7.2861">
        <ele>1000</ele>
        <time>2020-09-06T09:05:54.383Z</time>
      </trkpt>
      <trkpt lat="48.40757" lon="7.28606">
        <ele>1000</ele>
        <time>2020-09-06T09:05:55.382Z</time>
      </trkpt>
      <trkpt lat="48.40756" lon="7.28603">
        <ele>1000</ele>
        <time>2020-09-06T09:05:56.383Z</time>
      </trkpt>
      <trkpt lat="48.40756" lon="7.28601">
        <ele>1001</ele>
        <time>2020-09-06T09:05:57.383Z</time>
      </trkpt>
      <trkpt lat="48.40755" lon="7.28599">
        <ele>1000</ele>
        <time>2020-09-06T09:05:58.383Z</time>
      </trkpt>
      <trkpt lat="48.40755" lon="7.28598">
        <ele>1000</ele>
        <time>2020-09-06T09:05:59.382Z</time>
      </trkpt>
      <trkpt lat="48.40756" lon="7.28597">
        <ele>1000</ele>
        <time>2020-09-06T09:06:00.383Z</time>
      </trkpt>
      <trkpt lat="48.40757" lon="7.28596">
        <ele>1000</ele>
        <time>2020-09-06T09:06:01.382Z</time>
      </trkpt>
      <trkpt lat="48.40757" lon="7.28595">
        <ele>1000</ele>
        <time>2020-09-06T09:06:02.383Z</time>
      </trkpt>
      <trkpt lat="48.40757" lon="7.28594">
        <ele>999</ele>
        <time>2020-09-06T09:06:03.383Z</time>
      </trkpt>
      <trkpt lat="48.40757" lon="7.28593">
        <ele>999</ele>
        <time>2020-09-06T09:06:04.383Z</time>
      </trkpt>
      <trkpt lat="48.40757" lon="7.28591">
        <ele>999</ele>
        <time>2020-09-06T09:06:05.383Z</time>
      </trkpt>
      <trkpt lat="48.40757" lon="7.2859">
        <ele>1000</ele>
        <time>2020-09-06T09:06:06.382Z</time>
      </trkpt>
      <trkpt lat="48.40757" lon="7.28589">
        <ele>1000</ele>
        <time>2020-09-06T09:06:07.382Z</time>
      </trkpt>
      <trkpt lat="48.40758" lon="7.28588">
        <ele>1000</ele>
        <time>2020-09-06T09:06:08.383Z</time>
      </trkpt>
      <trkpt lat="48.40758" lon="7.28587">
        <ele>1001</ele>
        <time>2020-09-06T09:06:09.383Z</time>
      </trkpt>
      <trkpt lat="48.40758" lon="7.28586">
        <ele>1002</ele>
        <time>2020-09-06T09:06:10.383Z</time>
      </trkpt>
      <trkpt lat="48.40759" lon="7.28584">
        <ele>1003</ele>
        <time>2020-09-06T09:06:11.383Z</time>
      </trkpt>
      <trkpt lat="48.4076" lon="7.28583">
        <ele>1003</ele>
        <time>2020-09-06T09:06:12.383Z</time>
      </trkpt>
      <trkpt lat="48.4076" lon="7.28582">
        <ele>1003</ele>
        <time>2020-09-06T09:06:13.383Z</time>
      </trkpt>
      <trkpt lat="48.4076" lon="7.2858">
        <ele>1003</ele>
        <time>2020-09-06T09:06:14.383Z</time>
      </trkpt>
      <trkpt lat="48.40761" lon="7.28578">
        <ele>1003</ele>
        <time>2020-09-06T09:06:15.382Z</time>
      </trkpt>
      <trkpt lat="48.40761" lon="7.28577">
        <ele>1004</ele>
        <time>2020-09-06T09:06:16.383Z</time>
      </trkpt>
      <trkpt lat="48.40761" lon="7.28575">
        <ele>1004</ele>
        <time>2020-09-06T09:06:17.382Z</time>
      </trkpt>
      <trkpt lat="48.40762" lon="7.28573">
        <ele>1004</ele>
        <time>2020-09-06T09:06:18.382Z</time>
      </trkpt>
      <trkpt lat="48.40762" lon="7.2857">
        <ele>1004</ele>
        <time>2020-09-06T09:06:19.382Z</time>
      </trkpt>
      <trkpt lat="48.40762" lon="7.28567">
        <ele>1004</ele>
        <time>2020-09-06T09:06:20.382Z</time>
      </trkpt>
      <trkpt lat="48.40761" lon="7.28563">
        <ele>1003</ele>
        <time>2020-09-06T09:06:21.383Z</time>
      </trkpt>
      <trkpt lat="48.40761" lon="7.2856">
        <ele>1003</ele>
        <time>2020-09-06T09:06:22.382Z</time>
      </trkpt>
      <trkpt lat="48.40761" lon="7.28557">
        <ele>1003</ele>
        <time>2020-09-06T09:06:23.383Z</time>
      </trkpt>
      <trkpt lat="48.40761" lon="7.28555">
        <ele>1003</ele>
        <time>2020-09-06T09:06:24.383Z</time>
      </trkpt>
      <trkpt lat="48.40762" lon="7.28552">
        <ele>1002</ele>
        <time>2020-09-06T09:06:25.383Z</time>
      </trkpt>
      <trkpt lat="48.40762" lon="7.2855">
        <ele>1002</ele>
        <time>2020-09-06T09:06:26.382Z</time>
      </trkpt>
      <trkpt lat="48.40763" lon="7.28548">
        <ele>1002</ele>
        <time>2020-09-06T09:06:27.382Z</time>
      </trkpt>
      <trkpt lat="48.40763" lon="7.28546">
        <ele>1001</ele>
        <time>2020-09-06T09:06:28.382Z</time>
      </trkpt>
      <trkpt lat="48.40763" lon="7.28544">
        <ele>1001</ele>
        <time>2020-09-06T09:06:29.383Z</time>
      </trkpt>
      <trkpt lat="48.40763" lon="7.28542">
        <ele>1001</ele>
        <time>2020-09-06T09:06:30.383Z</time>
      </trkpt>
      <trkpt lat="48.40763" lon="7.28539">
        <ele>1001</ele>
        <time>2020-09-06T09:06:31.383Z</time>
      </trkpt>
      <trkpt lat="48.40763" lon="7.28537">
        <ele>1002</ele>
        <time>2020-09-06T09:06:32.382Z</time>
      </trkpt>
      <trkpt lat="48.40764" lon="7.28536">
        <ele>1002</ele>
        <time>2020-09-06T09:06:33.383Z</time>
      </trkpt>
      <trkpt lat="48.40763" lon="7.28534">
        <ele>1002</ele>
        <time>2020-09-06T09:06:34.383Z</time>
      </trkpt>
      <trkpt lat="48.40763" lon="7.28533">
        <ele>1002</ele>
        <time>2020-09-06T09:06:35.383Z</time>
      </trkpt>
      <trkpt lat="48.40762" lon="7.28532">
        <ele>1002</ele>
        <time>2020-09-06T09:06:36.383Z</time>
      </trkpt>
      <trkpt lat="48.40762" lon="7.2853">
        <ele>1003</ele>
        <time>2020-09-06T09:06:37.383Z</time>
      </trkpt>
      <trkpt lat="48.40762" lon="7.28527">
        <ele>1003</ele>
        <time>2020-09-06T09:06:38.382Z</time>
      </trkpt>
      <trkpt lat="48.40761" lon="7.28526">
        <ele>1003</ele>
        <time>2020-09-06T09:06:39.383Z</time>
      </trkpt>
      <trkpt lat="48.40761" lon="7.28524">
        <ele>1003</ele>
        <time>2020-09-06T09:06:40.383Z</time>
      </trkpt>
      <trkpt lat="48.40761" lon="7.28523">
        <ele>1003</ele>
        <time>2020-09-06T09:06:41.383Z</time>
      </trkpt>
      <trkpt lat="48.40761" lon="7.28522">
        <ele>1002</ele>
        <time>2020-09-06T09:06:42.383Z</time>
      </trkpt>
      <trkpt lat="48.40762" lon="7.28521">
        <ele>1002</ele>
        <time>2020-09-06T09:06:43.383Z</time>
      </trkpt>
      <trkpt lat="48.40763" lon="7.2852">
        <ele>1002</ele>
        <time>2020-09-06T09:06:44.383Z</time>
      </trkpt>
      <trkpt lat="48.40763" lon="7.2852">
        <ele>1002</ele>
        <time>2020-09-06T09:06:45.383Z</time>
      </trkpt>
      <trkpt lat="48.40763" lon="7.28519">
        <ele>1002</ele>
        <time>2020-09-06T09:06:46.383Z</time>
      </trkpt>
      <trkpt lat="48.40763" lon="7.28517">
        <ele>1003</ele>
        <time>2020-09-06T09:06:47.383Z</time>
      </trkpt>
      <trkpt lat="48.40764" lon="7.28515">
        <ele>1003</ele>
        <time>2020-09-06T09:06:48.382Z</time>
      </trkpt>
      <trkpt lat="48.40764" lon="7.28514">
        <ele>1003</ele>
        <time>2020-09-06T09:06:49.383Z</time>
      </trkpt>
      <trkpt lat="48.40764" lon="7.28512">
        <ele>1003</ele>
        <time>2020-09-06T09:06:50.383Z</time>
      </trkpt>
      <trkpt lat="48.40765" lon="7.28511">
        <ele>1003</ele>
        <time>2020-09-06T09:06:51.383Z</time>
      </trkpt>
      <trkpt lat="48.40765" lon="7.2851">
        <ele>1003</ele>
        <time>2020-09-06T09:06:52.383Z</time>
      </trkpt>
      <trkpt lat="48.40766" lon="7.28508">
        <ele>1004</ele>
        <time>2020-09-06T09:06:53.382Z</time>
      </trkpt>
      <trkpt lat="48.40766" lon="7.28507">
        <ele>1004</ele>
        <time>2020-09-06T09:06:54.383Z</time>
      </trkpt>
      <trkpt lat="48.40767" lon="7.28506">
        <ele>1004</ele>
        <time>2020-09-06T09:06:55.383Z</time>
      </trkpt>
      <trkpt lat="48.40767" lon="7.28504">
        <ele>1004</ele>
        <time>2020-09-06T09:06:56.382Z</time>
      </trkpt>
      <trkpt lat="48.40767" lon="7.28503">
        <ele>1004</ele>
        <time>2020-09-06T09:06:57.383Z</time>
      </trkpt>
      <trkpt lat="48.40767" lon="7.28502">
        <ele>1004</ele>
        <time>2020-09-06T09:06:58.383Z</time>
      </trkpt>
      <trkpt lat="48.40766" lon="7.285">
        <ele>1004</ele>
        <time>2020-09-06T09:06:59.383Z</time>
      </trkpt>
      <trkpt lat="48.40766" lon="7.28499">
        <ele>1004</ele>
        <time>2020-09-06T09:07:00.382Z</time>
      </trkpt>
      <trkpt lat="48.40765" lon="7.28497">
        <ele>1005</ele>
        <time>2020-09-06T09:07:01.382Z</time>
      </trkpt>
      <trkpt lat="48.40764" lon="7.28494">
        <ele>1005</ele>
        <time>2020-09-06T09:07:02.383Z</time>
      </trkpt>
      <trkpt lat="48.40763" lon="7.28492">
        <ele>1005</ele>
        <time>2020-09-06T09:07:03.383Z</time>
      </trkpt>
      <trkpt lat="48.40762" lon="7.28489">
        <ele>1004</ele>
        <time>2020-09-06T09:07:04.383Z</time>
      </trkpt>
      <trkpt lat="48.40761" lon="7.28487">
        <ele>1004</ele>
        <time>2020-09-06T09:07:05.383Z</time>
      </trkpt>
      <trkpt lat="48.40761" lon="7.28484">
        <ele>1003</ele>
        <time>2020-09-06T09:07:06.383Z</time>
      </trkpt>
      <trkpt lat="48.40761" lon="7.28482">
        <ele>1003</ele>
        <time>2020-09-06T09:07:07.383Z</time>
      </trkpt>
      <trkpt lat="48.40761" lon="7.28479">
        <ele>1003</ele>
        <time>2020-09-06T09:07:08.383Z</time>
      </trkpt>
      <trkpt lat="48.40761" lon="7.28477">
        <ele>1003</ele>
        <time>2020-09-06T09:07:09.383Z</time>
      </trkpt>
      <trkpt lat="48.40761" lon="7.28475">
        <ele>1003</ele>
        <time>2020-09-06T09:07:10.383Z</time>
      </trkpt>
      <trkpt lat="48.40761" lon="7.28475">
        <ele>1004</ele>
        <time>2020-09-06T09:07:11.382Z</time>
      </trkpt>
      <trkpt lat="48.40761" lon="7.28473">
        <ele>1004</ele>
        <time>2020-09-06T09:07:12.383Z</time>
      </trkpt>
      <trkpt lat="48.40761" lon="7.28471">
        <ele>1004</ele>
        <time>2020-09-06T09:07:13.383Z</time>
      </trkpt>
      <trkpt lat="48.40761" lon="7.28469">
        <ele>1004</ele>
        <time>2020-09-06T09:07:14.383Z</time>
      </trkpt>
      <trkpt lat="48.40762" lon="7.28467">
        <ele>1004</ele>
        <time>2020-09-06T09:07:15.383Z</time>
      </trkpt>
      <trkpt lat="48.40761" lon="7.28465">
        <ele>1004</ele>
        <time>2020-09-06T09:07:16.383Z</time>
      </trkpt>
      <trkpt lat="48.40762" lon="7.28462">
        <ele>1004</ele>
        <time>2020-09-06T09:07:17.382Z</time>
      </trkpt>
      <trkpt lat="48.40761" lon="7.2846">
        <ele>1004</ele>
        <time>2020-09-06T09:07:18.383Z</time>
      </trkpt>
      <trkpt lat="48.40761" lon="7.28458">
        <ele>1004</ele>
        <time>2020-09-06T09:07:19.382Z</time>
      </trkpt>
      <trkpt lat="48.40761" lon="7.28456">
        <ele>1004</ele>
        <time>2020-09-06T09:07:20.383Z</time>
      </trkpt>
      <trkpt lat="48.40761" lon="7.28454">
        <ele>1004</ele>
        <time>2020-09-06T09:07:21.382Z</time>
      </trkpt>
      <trkpt lat="48.40761" lon="7.28453">
        <ele>1004</ele>
        <time>2020-09-06T09:07:22.383Z</time>
      </trkpt>
      <trkpt lat="48.40761" lon="7.28451">
        <ele>1004</ele>
        <time>2020-09-06T09:07:23.383Z</time>
      </trkpt>
      <trkpt lat="48.40761" lon="7.2845">
        <ele>1004</ele>
        <time>2020-09-06T09:07:24.383Z</time>
      </trkpt>
      <trkpt lat="48.40761" lon="7.28448">
        <ele>1004</ele>
        <time>2020-09-06T09:07:25.383Z</time>
      </trkpt>
      <trkpt lat="48.40761" lon="7.28447">
        <ele>1004</ele>
        <time>2020-09-06T09:07:26.383Z</time>
      </trkpt>
      <trkpt lat="48.40761" lon="7.28445">
        <ele>1004</ele>
        <time>2020-09-06T09:07:27.383Z</time>
      </trkpt>
      <trkpt lat="48.40762" lon="7.28444">
        <ele>1004</ele>
        <time>2020-09-06T09:07:28.382Z</time>
      </trkpt>
      <trkpt lat="48.40762" lon="7.28443">
        <ele>1004</ele>
        <time>2020-09-06T09:07:29.383Z</time>
      </trkpt>
      <trkpt lat="48.40762" lon="7.28441">
        <ele>1004</ele>
        <time>2020-09-06T09:07:30.382Z</time>
      </trkpt>
      <trkpt lat="48.40762" lon="7.2844">
        <ele>1004</ele>
        <time>2020-09-06T09:07:31.383Z</time>
      </trkpt>
      <trkpt lat="48.40761" lon="7.28439">
        <ele>1004</ele>
        <time>2020-09-06T09:07:32.382Z</time>
      </trkpt>
      <trkpt lat="48.4076" lon="7.28437">
        <ele>1004</ele>
        <time>2020-09-06T09:07:33.383Z</time>
      </trkpt>
      <trkpt lat="48.4076" lon="7.28435">
        <ele>1004</ele>
        <time>2020-09-06T09:07:34.383Z</time>
      </trkpt>
      <trkpt lat="48.4076" lon="7.28433">
        <ele>1005</ele>
        <time>2020-09-06T09:07:35.383Z</time>
      </trkpt>
      <trkpt lat="48.4076" lon="7.28432">
        <ele>1005</ele>
        <time>2020-09-06T09:07:36.382Z</time>
      </trkpt>
      <trkpt lat="48.4076" lon="7.2843">
        <ele>1005</ele>
        <time>2020-09-06T09:07:37.383Z</time>
      </trkpt>
      <trkpt lat="48.4076" lon="7.28429">
        <ele>1005</ele>
        <time>2020-09-06T09:07:38.383Z</time>
      </trkpt>
      <trkpt lat="48.40761" lon="7.28428">
        <ele>1005</ele>
        <time>2020-09-06T09:07:39.383Z</time>
      </trkpt>
      <trkpt lat="48.40761" lon="7.28428">
        <ele>1005</ele>
        <time>2020-09-06T09:07:40.383Z</time>
      </trkpt>
      <trkpt lat="48.40762" lon="7.28426">
        <ele>1005</ele>
        <time>2020-09-06T09:07:41.383Z</time>
      </trkpt>
      <trkpt lat="48.40762" lon="7.28425">
        <ele>1005</ele>
        <time>2020-09-06T09:07:42.383Z</time>
      </trkpt>
      <trkpt lat="48.40762" lon="7.28423">
        <ele>1006</ele>
        <time>2020-09-06T09:07:43.382Z</time>
      </trkpt>
      <trkpt lat="48.40762" lon="7.28422">
        <ele>1006</ele>
        <time>2020-09-06T09:07:44.383Z</time>
      </trkpt>
      <trkpt lat="48.40763" lon="7.2842">
        <ele>1006</ele>
        <time>2020-09-06T09:07:45.382Z</time>
      </trkpt>
      <trkpt lat="48.40763" lon="7.28419">
        <ele>1006</ele>
        <time>2020-09-06T09:07:46.383Z</time>
      </trkpt>
      <trkpt lat="48.40762" lon="7.28418">
        <ele>1005</ele>
        <time>2020-09-06T09:07:47.383Z</time>
      </trkpt>
      <trkpt lat="48.40763" lon="7.28418">
        <ele>1005</ele>
        <time>2020-09-06T09:07:48.383Z</time>
      </trkpt>
      <trkpt lat="48.40762" lon="7.28418">
        <ele>1005</ele>
        <time>2020-09-06T09:07:49.383Z</time>
      </trkpt>
      <trkpt lat="48.40761" lon="7.28416">
        <ele>1003</ele>
        <time>2020-09-06T09:07:50.383Z</time>
      </trkpt>
      <trkpt lat="48.4076" lon="7.28415">
        <ele>1003</ele>
        <time>2020-09-06T09:07:51.383Z</time>
      </trkpt>
      <trkpt lat="48.4076" lon="7.28414">
        <ele>1002</ele>
        <time>2020-09-06T09:07:52.383Z</time>
      </trkpt>
      <trkpt lat="48.40759" lon="7.28412">
        <ele>1002</ele>
        <time>2020-09-06T09:07:53.383Z</time>
      </trkpt>
      <trkpt lat="48.4076" lon="7.28403">
        <ele>1002</ele>
        <time>2020-09-06T09:07:54.384Z</time>
      </trkpt>
      <trkpt lat="48.40761" lon="7.284">
        <ele>1002</ele>
        <time>2020-09-06T09:07:55.383Z</time>
      </trkpt>
      <trkpt lat="48.40761" lon="7.28398">
        <ele>1002</ele>
        <time>2020-09-06T09:07:56.383Z</time>
      </trkpt>
      <trkpt lat="48.40761" lon="7.28395">
        <ele>1002</ele>
        <time>2020-09-06T09:07:57.384Z</time>
      </trkpt>
      <trkpt lat="48.40762" lon="7.28392">
        <ele>1002</ele>
        <time>2020-09-06T09:07:58.383Z</time>
      </trkpt>
      <trkpt lat="48.40762" lon="7.28389">
        <ele>1002</ele>
        <time>2020-09-06T09:07:59.384Z</time>
      </trkpt>
      <trkpt lat="48.40762" lon="7.28386">
        <ele>1003</ele>
        <time>2020-09-06T09:08:00.383Z</time>
      </trkpt>
      <trkpt lat="48.40762" lon="7.28383">
        <ele>1003</ele>
        <time>2020-09-06T09:08:01.383Z</time>
      </trkpt>
      <trkpt lat="48.40763" lon="7.28381">
        <ele>1004</ele>
        <time>2020-09-06T09:08:02.384Z</time>
      </trkpt>
      <trkpt lat="48.40763" lon="7.2838">
        <ele>1004</ele>
        <time>2020-09-06T09:08:03.384Z</time>
      </trkpt>
      <trkpt lat="48.40763" lon="7.28377">
        <ele>1004</ele>
        <time>2020-09-06T09:08:04.383Z</time>
      </trkpt>
      <trkpt lat="48.40763" lon="7.28375">
        <ele>1005</ele>
        <time>2020-09-06T09:08:05.384Z</time>
      </trkpt>
      <trkpt lat="48.40763" lon="7.28374">
        <ele>1006</ele>
        <time>2020-09-06T09:08:06.383Z</time>
      </trkpt>
      <trkpt lat="48.40765" lon="7.28372">
        <ele>1006</ele>
        <time>2020-09-06T09:08:07.385Z</time>
      </trkpt>
      <trkpt lat="48.40765" lon="7.28371">
        <ele>1006</ele>
        <time>2020-09-06T09:08:08.385Z</time>
      </trkpt>
      <trkpt lat="48.40767" lon="7.28371">
        <ele>1013</ele>
        <time>2020-09-06T09:08:09.384Z</time>
      </trkpt>
      <trkpt lat="48.40767" lon="7.28371">
        <ele>1013</ele>
        <time>2020-09-06T09:08:10.385Z</time>
      </trkpt>
      <trkpt lat="48.40767" lon="7.28371">
        <ele>1013</ele>
        <time>2020-09-06T09:08:11.384Z</time>
      </trkpt>
      <trkpt lat="48.40766" lon="7.2837">
        <ele>1013</ele>
        <time>2020-09-06T09:08:12.385Z</time>
      </trkpt>
      <trkpt lat="48.40765" lon="7.28369">
        <ele>1013</ele>
        <time>2020-09-06T09:08:13.386Z</time>
      </trkpt>
      <trkpt lat="48.40764" lon="7.28368">
        <ele>1013</ele>
        <time>2020-09-06T09:08:14.385Z</time>
      </trkpt>
      <trkpt lat="48.40764" lon="7.28366">
        <ele>1013</ele>
        <time>2020-09-06T09:08:15.386Z</time>
      </trkpt>
      <trkpt lat="48.40764" lon="7.28365">
        <ele>1013</ele>
        <time>2020-09-06T09:08:16.386Z</time>
      </trkpt>
      <trkpt lat="48.40763" lon="7.28363">
        <ele>1013</ele>
        <time>2020-09-06T09:08:17.386Z</time>
      </trkpt>
      <trkpt lat="48.40762" lon="7.28362">
        <ele>1013</ele>
        <time>2020-09-06T09:08:18.386Z</time>
      </trkpt>
      <trkpt lat="48.40762" lon="7.28361">
        <ele>1013</ele>
        <time>2020-09-06T09:08:19.386Z</time>
      </trkpt>
      <trkpt lat="48.40761" lon="7.28359">
        <ele>1013</ele>
        <time>2020-09-06T09:08:20.386Z</time>
      </trkpt>
      <trkpt lat="48.40761" lon="7.28357">
        <ele>1013</ele>
        <time>2020-09-06T09:08:21.386Z</time>
      </trkpt>
      <trkpt lat="48.4076" lon="7.28354">
        <ele>1013</ele>
        <time>2020-09-06T09:08:22.385Z</time>
      </trkpt>
      <trkpt lat="48.4076" lon="7.28352">
        <ele>1013</ele>
        <time>2020-09-06T09:08:23.386Z</time>
      </trkpt>
      <trkpt lat="48.4076" lon="7.2835">
        <ele>1013</ele>
        <time>2020-09-06T09:08:24.385Z</time>
      </trkpt>
      <trkpt lat="48.40759" lon="7.28347">
        <ele>1013</ele>
        <time>2020-09-06T09:08:25.386Z</time>
      </trkpt>
      <trkpt lat="48.40759" lon="7.28346">
        <ele>1013</ele>
        <time>2020-09-06T09:08:26.386Z</time>
      </trkpt>
      <trkpt lat="48.40758" lon="7.28346">
        <ele>1013</ele>
        <time>2020-09-06T09:08:27.386Z</time>
      </trkpt>
      <trkpt lat="48.40758" lon="7.28344">
        <ele>1012</ele>
        <time>2020-09-06T09:08:28.386Z</time>
      </trkpt>
      <trkpt lat="48.40758" lon="7.28341">
        <ele>1012</ele>
        <time>2020-09-06T09:08:29.386Z</time>
      </trkpt>
      <trkpt lat="48.40757" lon="7.28339">
        <ele>1012</ele>
        <time>2020-09-06T09:08:30.386Z</time>
      </trkpt>
      <trkpt lat="48.40756" lon="7.28336">
        <ele>1012</ele>
        <time>2020-09-06T09:08:31.386Z</time>
      </trkpt>
      <trkpt lat="48.40756" lon="7.28334">
        <ele>1012</ele>
        <time>2020-09-06T09:08:32.386Z</time>
      </trkpt>
      <trkpt lat="48.40756" lon="7.28331">
        <ele>1012</ele>
        <time>2020-09-06T09:08:33.385Z</time>
      </trkpt>
      <trkpt lat="48.40756" lon="7.28328">
        <ele>1012</ele>
        <time>2020-09-06T09:08:34.386Z</time>
      </trkpt>
      <trkpt lat="48.40756" lon="7.28326">
        <ele>1012</ele>
        <time>2020-09-06T09:08:35.385Z</time>
      </trkpt>
      <trkpt lat="48.40756" lon="7.28325">
        <ele>1012</ele>
        <time>2020-09-06T09:08:36.386Z</time>
      </trkpt>
      <trkpt lat="48.40756" lon="7.28324">
        <ele>1012</ele>
        <time>2020-09-06T09:08:37.385Z</time>
      </trkpt>
      <trkpt lat="48.40756" lon="7.28323">
        <ele>1012</ele>
        <time>2020-09-06T09:08:38.386Z</time>
      </trkpt>
      <trkpt lat="48.40757" lon="7.28322">
        <ele>1012</ele>
        <time>2020-09-06T09:08:39.385Z</time>
      </trkpt>
      <trkpt lat="48.40757" lon="7.28321">
        <ele>1012</ele>
        <time>2020-09-06T09:08:40.385Z</time>
      </trkpt>
      <trkpt lat="48.40758" lon="7.2832">
        <ele>1011</ele>
        <time>2020-09-06T09:08:41.386Z</time>
      </trkpt>
      <trkpt lat="48.40758" lon="7.28319">
        <ele>1011</ele>
        <time>2020-09-06T09:08:42.386Z</time>
      </trkpt>
      <trkpt lat="48.40758" lon="7.28318">
        <ele>1011</ele>
        <time>2020-09-06T09:08:43.386Z</time>
      </trkpt>
      <trkpt lat="48.40758" lon="7.28318">
        <ele>1011</ele>
        <time>2020-09-06T09:08:44.385Z</time>
      </trkpt>
      <trkpt lat="48.40759" lon="7.28317">
        <ele>1011</ele>
        <time>2020-09-06T09:08:45.386Z</time>
      </trkpt>
      <trkpt lat="48.40759" lon="7.28316">
        <ele>1011</ele>
        <time>2020-09-06T09:08:46.386Z</time>
      </trkpt>
      <trkpt lat="48.40759" lon="7.28315">
        <ele>1011</ele>
        <time>2020-09-06T09:08:47.386Z</time>
      </trkpt>
      <trkpt lat="48.40758" lon="7.28312">
        <ele>1011</ele>
        <time>2020-09-06T09:08:48.386Z</time>
      </trkpt>
      <trkpt lat="48.40757" lon="7.2831">
        <ele>1011</ele>
        <time>2020-09-06T09:08:49.386Z</time>
      </trkpt>
      <trkpt lat="48.40756" lon="7.28307">
        <ele>1012</ele>
        <time>2020-09-06T09:08:50.386Z</time>
      </trkpt>
      <trkpt lat="48.40756" lon="7.28304">
        <ele>1012</ele>
        <time>2020-09-06T09:08:51.386Z</time>
      </trkpt>
      <trkpt lat="48.40755" lon="7.28303">
        <ele>1012</ele>
        <time>2020-09-06T09:08:52.385Z</time>
      </trkpt>
      <trkpt lat="48.40755" lon="7.28301">
        <ele>1013</ele>
        <time>2020-09-06T09:08:53.386Z</time>
      </trkpt>
      <trkpt lat="48.40755" lon="7.28299">
        <ele>1013</ele>
        <time>2020-09-06T09:08:54.386Z</time>
      </trkpt>
      <trkpt lat="48.40756" lon="7.28296">
        <ele>1013</ele>
        <time>2020-09-06T09:08:55.386Z</time>
      </trkpt>
      <trkpt lat="48.40756" lon="7.28294">
        <ele>1014</ele>
        <time>2020-09-06T09:08:56.386Z</time>
      </trkpt>
      <trkpt lat="48.40756" lon="7.28291">
        <ele>1015</ele>
        <time>2020-09-06T09:08:57.386Z</time>
      </trkpt>
      <trkpt lat="48.40756" lon="7.2829">
        <ele>1015</ele>
        <time>2020-09-06T09:08:58.385Z</time>
      </trkpt>
      <trkpt lat="48.40755" lon="7.28289">
        <ele>1016</ele>
        <time>2020-09-06T09:08:59.386Z</time>
      </trkpt>
      <trkpt lat="48.40755" lon="7.28288">
        <ele>1016</ele>
        <time>2020-09-06T09:09:00.386Z</time>
      </trkpt>
      <trkpt lat="48.40756" lon="7.28286">
        <ele>1016</ele>
        <time>2020-09-06T09:09:01.386Z</time>
      </trkpt>
      <trkpt lat="48.40756" lon="7.28285">
        <ele>1016</ele>
        <time>2020-09-06T09:09:02.385Z</time>
      </trkpt>
      <trkpt lat="48.40756" lon="7.28283">
        <ele>1016</ele>
        <time>2020-09-06T09:09:03.386Z</time>
      </trkpt>
      <trkpt lat="48.40755" lon="7.28282">
        <ele>1016</ele>
        <time>2020-09-06T09:09:04.386Z</time>
      </trkpt>
      <trkpt lat="48.40755" lon="7.2828">
        <ele>1016</ele>
        <time>2020-09-06T09:09:05.386Z</time>
      </trkpt>
      <trkpt lat="48.40754" lon="7.28278">
        <ele>1016</ele>
        <time>2020-09-06T09:09:06.385Z</time>
      </trkpt>
      <trkpt lat="48.40754" lon="7.28277">
        <ele>1016</ele>
        <time>2020-09-06T09:09:07.385Z</time>
      </trkpt>
      <trkpt lat="48.40754" lon="7.28275">
        <ele>1016</ele>
        <time>2020-09-06T09:09:08.386Z</time>
      </trkpt>
      <trkpt lat="48.40754" lon="7.28274">
        <ele>1016</ele>
        <time>2020-09-06T09:09:09.386Z</time>
      </trkpt>
      <trkpt lat="48.40754" lon="7.28272">
        <ele>1016</ele>
        <time>2020-09-06T09:09:10.386Z</time>
      </trkpt>
      <trkpt lat="48.40754" lon="7.28269">
        <ele>1016</ele>
        <time>2020-09-06T09:09:11.385Z</time>
      </trkpt>
      <trkpt lat="48.40754" lon="7.28267">
        <ele>1016</ele>
        <time>2020-09-06T09:09:12.386Z</time>
      </trkpt>
      <trkpt lat="48.40754" lon="7.28266">
        <ele>1016</ele>
        <time>2020-09-06T09:09:13.386Z</time>
      </trkpt>
      <trkpt lat="48.40754" lon="7.28263">
        <ele>1016</ele>
        <time>2020-09-06T09:09:14.386Z</time>
      </trkpt>
      <trkpt lat="48.40753" lon="7.28261">
        <ele>1016</ele>
        <time>2020-09-06T09:09:15.385Z</time>
      </trkpt>
      <trkpt lat="48.40752" lon="7.28259">
        <ele>1016</ele>
        <time>2020-09-06T09:09:16.386Z</time>
      </trkpt>
      <trkpt lat="48.40751" lon="7.28258">
        <ele>1016</ele>
        <time>2020-09-06T09:09:17.386Z</time>
      </trkpt>
      <trkpt lat="48.40751" lon="7.28256">
        <ele>1016</ele>
        <time>2020-09-06T09:09:18.386Z</time>
      </trkpt>
      <trkpt lat="48.40751" lon="7.28255">
        <ele>1016</ele>
        <time>2020-09-06T09:09:19.385Z</time>
      </trkpt>
      <trkpt lat="48.40751" lon="7.28254">
        <ele>1016</ele>
        <time>2020-09-06T09:09:20.385Z</time>
      </trkpt>
      <trkpt lat="48.40751" lon="7.28252">
        <ele>1015</ele>
        <time>2020-09-06T09:09:21.386Z</time>
      </trkpt>
      <trkpt lat="48.40751" lon="7.28251">
        <ele>1016</ele>
        <time>2020-09-06T09:09:22.386Z</time>
      </trkpt>
      <trkpt lat="48.40751" lon="7.2825">
        <ele>1016</ele>
        <time>2020-09-06T09:09:23.386Z</time>
      </trkpt>
      <trkpt lat="48.40751" lon="7.28247">
        <ele>1016</ele>
        <time>2020-09-06T09:09:24.386Z</time>
      </trkpt>
      <trkpt lat="48.40751" lon="7.28244">
        <ele>1017</ele>
        <time>2020-09-06T09:09:25.386Z</time>
      </trkpt>
      <trkpt lat="48.4075" lon="7.28241">
        <ele>1017</ele>
        <time>2020-09-06T09:09:26.386Z</time>
      </trkpt>
      <trkpt lat="48.4075" lon="7.28239">
        <ele>1017</ele>
        <time>2020-09-06T09:09:27.386Z</time>
      </trkpt>
      <trkpt lat="48.4075" lon="7.28237">
        <ele>1017</ele>
        <time>2020-09-06T09:09:28.385Z</time>
      </trkpt>
      <trkpt lat="48.4075" lon="7.28236">
        <ele>1017</ele>
        <time>2020-09-06T09:09:29.386Z</time>
      </trkpt>
      <trkpt lat="48.40751" lon="7.28235">
        <ele>1017</ele>
        <time>2020-09-06T09:09:30.386Z</time>
      </trkpt>
      <trkpt lat="48.40751" lon="7.28234">
        <ele>1017</ele>
        <time>2020-09-06T09:09:31.386Z</time>
      </trkpt>
      <trkpt lat="48.40751" lon="7.28232">
        <ele>1017</ele>
        <time>2020-09-06T09:09:32.385Z</time>
      </trkpt>
      <trkpt lat="48.40752" lon="7.28231">
        <ele>1017</ele>
        <time>2020-09-06T09:09:33.386Z</time>
      </trkpt>
      <trkpt lat="48.40752" lon="7.2823">
        <ele>1017</ele>
        <time>2020-09-06T09:09:34.386Z</time>
      </trkpt>
      <trkpt lat="48.40751" lon="7.28228">
        <ele>1017</ele>
        <time>2020-09-06T09:09:35.386Z</time>
      </trkpt>
      <trkpt lat="48.40751" lon="7.28227">
        <ele>1017</ele>
        <time>2020-09-06T09:09:36.385Z</time>
      </trkpt>
      <trkpt lat="48.40751" lon="7.28226">
        <ele>1017</ele>
        <time>2020-09-06T09:09:37.386Z</time>
      </trkpt>
      <trkpt lat="48.40751" lon="7.28224">
        <ele>1017</ele>
        <time>2020-09-06T09:09:38.386Z</time>
      </trkpt>
      <trkpt lat="48.40751" lon="7.28223">
        <ele>1017</ele>
        <time>2020-09-06T09:09:39.386Z</time>
      </trkpt>
      <trkpt lat="48.40751" lon="7.28221">
        <ele>1017</ele>
        <time>2020-09-06T09:09:40.386Z</time>
      </trkpt>
      <trkpt lat="48.4075" lon="7.2822">
        <ele>1017</ele>
        <time>2020-09-06T09:09:41.386Z</time>
      </trkpt>
      <trkpt lat="48.4075" lon="7.28218">
        <ele>1017</ele>
        <time>2020-09-06T09:09:42.385Z</time>
      </trkpt>
      <trkpt lat="48.4075" lon="7.28217">
        <ele>1016</ele>
        <time>2020-09-06T09:09:43.385Z</time>
      </trkpt>
      <trkpt lat="48.4075" lon="7.28215">
        <ele>1016</ele>
        <time>2020-09-06T09:09:44.386Z</time>
      </trkpt>
      <trkpt lat="48.4075" lon="7.28214">
        <ele>1016</ele>
        <time>2020-09-06T09:09:45.386Z</time>
      </trkpt>
      <trkpt lat="48.4075" lon="7.28212">
        <ele>1016</ele>
        <time>2020-09-06T09:09:46.386Z</time>
      </trkpt>
      <trkpt lat="48.40749" lon="7.2821">
        <ele>1016</ele>
        <time>2020-09-06T09:09:47.385Z</time>
      </trkpt>
      <trkpt lat="48.40749" lon="7.28208">
        <ele>1016</ele>
        <time>2020-09-06T09:09:48.386Z</time>
      </trkpt>
      <trkpt lat="48.40749" lon="7.28206">
        <ele>1016</ele>
        <time>2020-09-06T09:09:49.385Z</time>
      </trkpt>
      <trkpt lat="48.40749" lon="7.28205">
        <ele>1016</ele>
        <time>2020-09-06T09:09:50.386Z</time>
      </trkpt>
      <trkpt lat="48.40749" lon="7.28203">
        <ele>1016</ele>
        <time>2020-09-06T09:09:51.386Z</time>
      </trkpt>
      <trkpt lat="48.40749" lon="7.28199">
        <ele>1016</ele>
        <time>2020-09-06T09:09:52.386Z</time>
      </trkpt>
      <trkpt lat="48.40748" lon="7.28195">
        <ele>1016</ele>
        <time>2020-09-06T09:09:53.386Z</time>
      </trkpt>
      <trkpt lat="48.40748" lon="7.28192">
        <ele>1016</ele>
        <time>2020-09-06T09:09:54.385Z</time>
      </trkpt>
      <trkpt lat="48.40748" lon="7.2819">
        <ele>1016</ele>
        <time>2020-09-06T09:09:55.386Z</time>
      </trkpt>
      <trkpt lat="48.40748" lon="7.28189">
        <ele>1016</ele>
        <time>2020-09-06T09:09:56.386Z</time>
      </trkpt>
      <trkpt lat="48.40747" lon="7.28188">
        <ele>1016</ele>
        <time>2020-09-06T09:09:57.385Z</time>
      </trkpt>
      <trkpt lat="48.40746" lon="7.28186">
        <ele>1016</ele>
        <time>2020-09-06T09:09:58.386Z</time>
      </trkpt>
      <trkpt lat="48.40746" lon="7.28185">
        <ele>1016</ele>
        <time>2020-09-06T09:09:59.386Z</time>
      </trkpt>
      <trkpt lat="48.40746" lon="7.28183">
        <ele>1016</ele>
        <time>2020-09-06T09:10:00.385Z</time>
      </trkpt>
      <trkpt lat="48.40746" lon="7.28182">
        <ele>1016</ele>
        <time>2020-09-06T09:10:01.386Z</time>
      </trkpt>
      <trkpt lat="48.40746" lon="7.28181">
        <ele>1016</ele>
        <time>2020-09-06T09:10:02.386Z</time>
      </trkpt>
      <trkpt lat="48.40746" lon="7.2818">
        <ele>1015</ele>
        <time>2020-09-06T09:10:03.386Z</time>
      </trkpt>
      <trkpt lat="48.40746" lon="7.28178">
        <ele>1015</ele>
        <time>2020-09-06T09:10:04.386Z</time>
      </trkpt>
      <trkpt lat="48.40745" lon="7.28177">
        <ele>1015</ele>
        <time>2020-09-06T09:10:05.386Z</time>
      </trkpt>
      <trkpt lat="48.40744" lon="7.28175">
        <ele>1014</ele>
        <time>2020-09-06T09:10:06.385Z</time>
      </trkpt>
      <trkpt lat="48.40744" lon="7.28173">
        <ele>1014</ele>
        <time>2020-09-06T09:10:07.386Z</time>
      </trkpt>
      <trkpt lat="48.40744" lon="7.2817">
        <ele>1014</ele>
        <time>2020-09-06T09:10:08.386Z</time>
      </trkpt>
      <trkpt lat="48.40743" lon="7.28169">
        <ele>1014</ele>
        <time>2020-09-06T09:10:09.386Z</time>
      </trkpt>
      <trkpt lat="48.40742" lon="7.28167">
        <ele>1014</ele>
        <time>2020-09-06T09:10:10.386Z</time>
      </trkpt>
      <trkpt lat="48.40741" lon="7.28166">
        <ele>1014</ele>
        <time>2020-09-06T09:10:11.385Z</time>
      </trkpt>
      <trkpt lat="48.4074" lon="7.28165">
        <ele>1014</ele>
        <time>2020-09-06T09:10:12.385Z</time>
      </trkpt>
      <trkpt lat="48.40739" lon="7.28163">
        <ele>1014</ele>
        <time>2020-09-06T09:10:13.385Z</time>
      </trkpt>
      <trkpt lat="48.40738" lon="7.28161">
        <ele>1014</ele>
        <time>2020-09-06T09:10:14.386Z</time>
      </trkpt>
      <trkpt lat="48.40737" lon="7.28159">
        <ele>1015</ele>
        <time>2020-09-06T09:10:15.386Z</time>
      </trkpt>
      <trkpt lat="48.40737" lon="7.28156">
        <ele>1015</ele>
        <time>2020-09-06T09:10:16.386Z</time>
      </trkpt>
      <trkpt lat="48.40737" lon="7.28155">
        <ele>1015</ele>
        <time>2020-09-06T09:10:17.385Z</time>
      </trkpt>
      <trkpt lat="48.40736" lon="7.28152">
        <ele>1015</ele>
        <time>2020-09-06T09:10:18.386Z</time>
      </trkpt>
      <trkpt lat="48.40735" lon="7.2815">
        <ele>1015</ele>
        <time>2020-09-06T09:10:19.386Z</time>
      </trkpt>
      <trkpt lat="48.40736" lon="7.28148">
        <ele>1015</ele>
        <time>2020-09-06T09:10:20.386Z</time>
      </trkpt>
      <trkpt lat="48.40736" lon="7.28146">
        <ele>1015</ele>
        <time>2020-09-06T09:10:21.386Z</time>
      </trkpt>
      <trkpt lat="48.40736" lon="7.28145">
        <ele>1015</ele>
        <time>2020-09-06T09:10:22.386Z</time>
      </trkpt>
      <trkpt lat="48.40736" lon="7.28143">
        <ele>1015</ele>
        <time>2020-09-06T09:10:23.386Z</time>
      </trkpt>
      <trkpt lat="48.40736" lon="7.28141">
        <ele>1015</ele>
        <time>2020-09-06T09:10:24.386Z</time>
      </trkpt>
      <trkpt lat="48.40735" lon="7.28138">
        <ele>1015</ele>
        <time>2020-09-06T09:10:25.386Z</time>
      </trkpt>
      <trkpt lat="48.40735" lon="7.28136">
        <ele>1015</ele>
        <time>2020-09-06T09:10:26.386Z</time>
      </trkpt>
      <trkpt lat="48.40735" lon="7.28133">
        <ele>1015</ele>
        <time>2020-09-06T09:10:27.385Z</time>
      </trkpt>
      <trkpt lat="48.40735" lon="7.28131">
        <ele>1015</ele>
        <time>2020-09-06T09:10:28.385Z</time>
      </trkpt>
      <trkpt lat="48.40735" lon="7.2813">
        <ele>1016</ele>
        <time>2020-09-06T09:10:29.386Z</time>
      </trkpt>
      <trkpt lat="48.40735" lon="7.28129">
        <ele>1016</ele>
        <time>2020-09-06T09:10:30.386Z</time>
      </trkpt>
      <trkpt lat="48.40735" lon="7.28127">
        <ele>1016</ele>
        <time>2020-09-06T09:10:31.386Z</time>
      </trkpt>
      <trkpt lat="48.40735" lon="7.28126">
        <ele>1016</ele>
        <time>2020-09-06T09:10:32.385Z</time>
      </trkpt>
      <trkpt lat="48.40734" lon="7.28125">
        <ele>1017</ele>
        <time>2020-09-06T09:10:33.385Z</time>
      </trkpt>
      <trkpt lat="48.40734" lon="7.28124">
        <ele>1017</ele>
        <time>2020-09-06T09:10:34.386Z</time>
      </trkpt>
      <trkpt lat="48.40734" lon="7.28123">
        <ele>1017</ele>
        <time>2020-09-06T09:10:35.386Z</time>
      </trkpt>
      <trkpt lat="48.40734" lon="7.28123">
        <ele>1017</ele>
        <time>2020-09-06T09:10:36.385Z</time>
      </trkpt>
      <trkpt lat="48.40734" lon="7.28121">
        <ele>1017</ele>
        <time>2020-09-06T09:10:37.386Z</time>
      </trkpt>
      <trkpt lat="48.40735" lon="7.2812">
        <ele>1017</ele>
        <time>2020-09-06T09:10:38.386Z</time>
      </trkpt>
      <trkpt lat="48.40735" lon="7.28118">
        <ele>1017</ele>
        <time>2020-09-06T09:10:39.386Z</time>
      </trkpt>
      <trkpt lat="48.40735" lon="7.28117">
        <ele>1016</ele>
        <time>2020-09-06T09:10:40.386Z</time>
      </trkpt>
      <trkpt lat="48.40735" lon="7.28116">
        <ele>1016</ele>
        <time>2020-09-06T09:10:41.386Z</time>
      </trkpt>
      <trkpt lat="48.40734" lon="7.28115">
        <ele>1016</ele>
        <time>2020-09-06T09:10:42.385Z</time>
      </trkpt>
      <trkpt lat="48.40734" lon="7.28113">
        <ele>1016</ele>
        <time>2020-09-06T09:10:43.386Z</time>
      </trkpt>
      <trkpt lat="48.40733" lon="7.28112">
        <ele>1016</ele>
        <time>2020-09-06T09:10:44.386Z</time>
      </trkpt>
      <trkpt lat="48.40734" lon="7.28111">
        <ele>1016</ele>
        <time>2020-09-06T09:10:45.386Z</time>
      </trkpt>
      <trkpt lat="48.40734" lon="7.2811">
        <ele>1016</ele>
        <time>2020-09-06T09:10:46.386Z</time>
      </trkpt>
      <trkpt lat="48.40734" lon="7.28108">
        <ele>1016</ele>
        <time>2020-09-06T09:10:47.386Z</time>
      </trkpt>
      <trkpt lat="48.40733" lon="7.28107">
        <ele>1016</ele>
        <time>2020-09-06T09:10:48.386Z</time>
      </trkpt>
      <trkpt lat="48.40733" lon="7.28105">
        <ele>1015</ele>
        <time>2020-09-06T09:10:49.385Z</time>
      </trkpt>
      <trkpt lat="48.40733" lon="7.28104">
        <ele>1015</ele>
        <time>2020-09-06T09:10:50.386Z</time>
      </trkpt>
      <trkpt lat="48.40733" lon="7.28103">
        <ele>1014</ele>
        <time>2020-09-06T09:10:51.386Z</time>
      </trkpt>
      <trkpt lat="48.40733" lon="7.28101">
        <ele>1014</ele>
        <time>2020-09-06T09:10:52.385Z</time>
      </trkpt>
      <trkpt lat="48.40733" lon="7.281">
        <ele>1014</ele>
        <time>2020-09-06T09:10:53.386Z</time>
      </trkpt>
      <trkpt lat="48.40733" lon="7.28098">
        <ele>1014</ele>
        <time>2020-09-06T09:10:54.386Z</time>
      </trkpt>
      <trkpt lat="48.40733" lon="7.28096">
        <ele>1014</ele>
        <time>2020-09-06T09:10:55.386Z</time>
      </trkpt>
      <trkpt lat="48.40733" lon="7.28095">
        <ele>1014</ele>
        <time>2020-09-06T09:10:56.386Z</time>
      </trkpt>
      <trkpt lat="48.40732" lon="7.28092">
        <ele>1014</ele>
        <time>2020-09-06T09:10:57.385Z</time>
      </trkpt>
      <trkpt lat="48.4073" lon="7.2809">
        <ele>1014</ele>
        <time>2020-09-06T09:10:58.385Z</time>
      </trkpt>
      <trkpt lat="48.4073" lon="7.28089">
        <ele>1014</ele>
        <time>2020-09-06T09:10:59.385Z</time>
      </trkpt>
      <trkpt lat="48.4073" lon="7.28085">
        <ele>1014</ele>
        <time>2020-09-06T09:11:00.386Z</time>
      </trkpt>
      <trkpt lat="48.40729" lon="7.28081">
        <ele>1014</ele>
        <time>2020-09-06T09:11:01.385Z</time>
      </trkpt>
      <trkpt lat="48.40729" lon="7.28078">
        <ele>1014</ele>
        <time>2020-09-06T09:11:02.385Z</time>
      </trkpt>
      <trkpt lat="48.40728" lon="7.28077">
        <ele>1014</ele>
        <time>2020-09-06T09:11:03.386Z</time>
      </trkpt>
      <trkpt lat="48.40728" lon="7.28075">
        <ele>1014</ele>
        <time>2020-09-06T09:11:04.385Z</time>
      </trkpt>
      <trkpt lat="48.40728" lon="7.28072">
        <ele>1014</ele>
        <time>2020-09-06T09:11:05.386Z</time>
      </trkpt>
      <trkpt lat="48.40727" lon="7.2807">
        <ele>1015</ele>
        <time>2020-09-06T09:11:06.386Z</time>
      </trkpt>
      <trkpt lat="48.40727" lon="7.28068">
        <ele>1015</ele>
        <time>2020-09-06T09:11:07.386Z</time>
      </trkpt>
      <trkpt lat="48.40727" lon="7.28066">
        <ele>1015</ele>
        <time>2020-09-06T09:11:08.386Z</time>
      </trkpt>
      <trkpt lat="48.40727" lon="7.28064">
        <ele>1015</ele>
        <time>2020-09-06T09:11:09.386Z</time>
      </trkpt>
      <trkpt lat="48.40726" lon="7.28062">
        <ele>1015</ele>
        <time>2020-09-06T09:11:10.386Z</time>
      </trkpt>
      <trkpt lat="48.40726" lon="7.28059">
        <ele>1016</ele>
        <time>2020-09-06T09:11:11.385Z</time>
      </trkpt>
      <trkpt lat="48.40726" lon="7.28057">
        <ele>1016</ele>
        <time>2020-09-06T09:11:12.385Z</time>
      </trkpt>
      <trkpt lat="48.40727" lon="7.28054">
        <ele>1017</ele>
        <time>2020-09-06T09:11:13.386Z</time>
      </trkpt>
      <trkpt lat="48.40727" lon="7.28053">
        <ele>1017</ele>
        <time>2020-09-06T09:11:14.386Z</time>
      </trkpt>
      <trkpt lat="48.40727" lon="7.28051">
        <ele>1018</ele>
        <time>2020-09-06T09:11:15.386Z</time>
      </trkpt>
      <trkpt lat="48.40727" lon="7.2805">
        <ele>1018</ele>
        <time>2020-09-06T09:11:16.385Z</time>
      </trkpt>
      <trkpt lat="48.40728" lon="7.28049">
        <ele>1019</ele>
        <time>2020-09-06T09:11:17.385Z</time>
      </trkpt>
      <trkpt lat="48.40728" lon="7.28048">
        <ele>1019</ele>
        <time>2020-09-06T09:11:18.386Z</time>
      </trkpt>
      <trkpt lat="48.40728" lon="7.28047">
        <ele>1019</ele>
        <time>2020-09-06T09:11:19.385Z</time>
      </trkpt>
      <trkpt lat="48.40728" lon="7.28045">
        <ele>1020</ele>
        <time>2020-09-06T09:11:20.386Z</time>
      </trkpt>
      <trkpt lat="48.40728" lon="7.28044">
        <ele>1020</ele>
        <time>2020-09-06T09:11:21.386Z</time>
      </trkpt>
      <trkpt lat="48.40729" lon="7.28043">
        <ele>1020</ele>
        <time>2020-09-06T09:11:22.386Z</time>
      </trkpt>
      <trkpt lat="48.40729" lon="7.28042">
        <ele>1021</ele>
        <time>2020-09-06T09:11:23.385Z</time>
      </trkpt>
      <trkpt lat="48.4073" lon="7.28041">
        <ele>1021</ele>
        <time>2020-09-06T09:11:24.386Z</time>
      </trkpt>
      <trkpt lat="48.4073" lon="7.28039">
        <ele>1022</ele>
        <time>2020-09-06T09:11:25.385Z</time>
      </trkpt>
      <trkpt lat="48.4073" lon="7.28036">
        <ele>1022</ele>
        <time>2020-09-06T09:11:26.386Z</time>
      </trkpt>
      <trkpt lat="48.40731" lon="7.28035">
        <ele>1022</ele>
        <time>2020-09-06T09:11:27.386Z</time>
      </trkpt>
      <trkpt lat="48.40731" lon="7.28033">
        <ele>1022</ele>
        <time>2020-09-06T09:11:28.386Z</time>
      </trkpt>
      <trkpt lat="48.40731" lon="7.28032">
        <ele>1023</ele>
        <time>2020-09-06T09:11:29.385Z</time>
      </trkpt>
      <trkpt lat="48.40732" lon="7.2803">
        <ele>1023</ele>
        <time>2020-09-06T09:11:30.386Z</time>
      </trkpt>
      <trkpt lat="48.40732" lon="7.28029">
        <ele>1023</ele>
        <time>2020-09-06T09:11:31.386Z</time>
      </trkpt>
      <trkpt lat="48.40733" lon="7.28028">
        <ele>1023</ele>
        <time>2020-09-06T09:11:32.385Z</time>
      </trkpt>
      <trkpt lat="48.40733" lon="7.28027">
        <ele>1023</ele>
        <time>2020-09-06T09:11:33.386Z</time>
      </trkpt>
      <trkpt lat="48.40733" lon="7.28024">
        <ele>1023</ele>
        <time>2020-09-06T09:11:34.386Z</time>
      </trkpt>
      <trkpt lat="48.40734" lon="7.28021">
        <ele>1023</ele>
        <time>2020-09-06T09:11:35.386Z</time>
      </trkpt>
      <trkpt lat="48.40734" lon="7.28017">
        <ele>1022</ele>
        <time>2020-09-06T09:11:36.386Z</time>
      </trkpt>
      <trkpt lat="48.40734" lon="7.28015">
        <ele>1022</ele>
        <time>2020-09-06T09:11:37.385Z</time>
      </trkpt>
      <trkpt lat="48.40733" lon="7.28013">
        <ele>1021</ele>
        <time>2020-09-06T09:11:38.386Z</time>
      </trkpt>
      <trkpt lat="48.40732" lon="7.28011">
        <ele>1021</ele>
        <time>2020-09-06T09:11:39.386Z</time>
      </trkpt>
      <trkpt lat="48.40733" lon="7.2801">
        <ele>1021</ele>
        <time>2020-09-06T09:11:40.386Z</time>
      </trkpt>
      <trkpt lat="48.40733" lon="7.28009">
        <ele>1021</ele>
        <time>2020-09-06T09:11:41.385Z</time>
      </trkpt>
      <trkpt lat="48.40734" lon="7.28008">
        <ele>1021</ele>
        <time>2020-09-06T09:11:42.385Z</time>
      </trkpt>
      <trkpt lat="48.40735" lon="7.28008">
        <ele>1021</ele>
        <time>2020-09-06T09:11:43.386Z</time>
      </trkpt>
      <trkpt lat="48.40735" lon="7.28007">
        <ele>1021</ele>
        <time>2020-09-06T09:11:44.386Z</time>
      </trkpt>
      <trkpt lat="48.40736" lon="7.28006">
        <ele>1021</ele>
        <time>2020-09-06T09:11:45.386Z</time>
      </trkpt>
      <trkpt lat="48.40736" lon="7.28006">
        <ele>1021</ele>
        <time>2020-09-06T09:11:46.386Z</time>
      </trkpt>
      <trkpt lat="48.40736" lon="7.28005">
        <ele>1021</ele>
        <time>2020-09-06T09:11:47.386Z</time>
      </trkpt>
      <trkpt lat="48.40737" lon="7.28004">
        <ele>1021</ele>
        <time>2020-09-06T09:11:48.386Z</time>
      </trkpt>
      <trkpt lat="48.40737" lon="7.28003">
        <ele>1021</ele>
        <time>2020-09-06T09:11:49.386Z</time>
      </trkpt>
      <trkpt lat="48.40737" lon="7.28003">
        <ele>1021</ele>
        <time>2020-09-06T09:11:50.386Z</time>
      </trkpt>
      <trkpt lat="48.40737" lon="7.28002">
        <ele>1022</ele>
        <time>2020-09-06T09:11:51.385Z</time>
      </trkpt>
      <trkpt lat="48.40738" lon="7.28001">
        <ele>1023</ele>
        <time>2020-09-06T09:11:52.386Z</time>
      </trkpt>
      <trkpt lat="48.40738" lon="7.28">
        <ele>1023</ele>
        <time>2020-09-06T09:11:53.385Z</time>
      </trkpt>
      <trkpt lat="48.40739" lon="7.27999">
        <ele>1024</ele>
        <time>2020-09-06T09:11:54.386Z</time>
      </trkpt>
      <trkpt lat="48.40739" lon="7.27998">
        <ele>1025</ele>
        <time>2020-09-06T09:11:55.386Z</time>
      </trkpt>
      <trkpt lat="48.40739" lon="7.27997">
        <ele>1026</ele>
        <time>2020-09-06T09:11:56.385Z</time>
      </trkpt>
      <trkpt lat="48.40738" lon="7.27995">
        <ele>1026</ele>
        <time>2020-09-06T09:11:57.386Z</time>
      </trkpt>
      <trkpt lat="48.40737" lon="7.27993">
        <ele>1027</ele>
        <time>2020-09-06T09:11:58.386Z</time>
      </trkpt>
      <trkpt lat="48.40737" lon="7.2799">
        <ele>1028</ele>
        <time>2020-09-06T09:11:59.386Z</time>
      </trkpt>
      <trkpt lat="48.40737" lon="7.27988">
        <ele>1029</ele>
        <time>2020-09-06T09:12:00.386Z</time>
      </trkpt>
      <trkpt lat="48.40737" lon="7.27986">
        <ele>1029</ele>
        <time>2020-09-06T09:12:01.385Z</time>
      </trkpt>
      <trkpt lat="48.40736" lon="7.27984">
        <ele>1030</ele>
        <time>2020-09-06T09:12:02.386Z</time>
      </trkpt>
      <trkpt lat="48.40736" lon="7.27982">
        <ele>1030</ele>
        <time>2020-09-06T09:12:03.386Z</time>
      </trkpt>
      <trkpt lat="48.40736" lon="7.2798">
        <ele>1031</ele>
        <time>2020-09-06T09:12:04.386Z</time>
      </trkpt>
      <trkpt lat="48.40736" lon="7.27979">
        <ele>1031</ele>
        <time>2020-09-06T09:12:05.386Z</time>
      </trkpt>
      <trkpt lat="48.40735" lon="7.27978">
        <ele>1032</ele>
        <time>2020-09-06T09:12:06.386Z</time>
      </trkpt>
      <trkpt lat="48.40735" lon="7.27977">
        <ele>1032</ele>
        <time>2020-09-06T09:12:07.385Z</time>
      </trkpt>
      <trkpt lat="48.40734" lon="7.27975">
        <ele>1033</ele>
        <time>2020-09-06T09:12:08.386Z</time>
      </trkpt>
      <trkpt lat="48.40734" lon="7.27974">
        <ele>1033</ele>
        <time>2020-09-06T09:12:09.386Z</time>
      </trkpt>
      <trkpt lat="48.40734" lon="7.27973">
        <ele>1034</ele>
        <time>2020-09-06T09:12:10.386Z</time>
      </trkpt>
      <trkpt lat="48.40733" lon="7.27972">
        <ele>1034</ele>
        <time>2020-09-06T09:12:11.386Z</time>
      </trkpt>
      <trkpt lat="48.40732" lon="7.2797">
        <ele>1034</ele>
        <time>2020-09-06T09:12:12.386Z</time>
      </trkpt>
      <trkpt lat="48.40732" lon="7.27969">
        <ele>1035</ele>
        <time>2020-09-06T09:12:13.385Z</time>
      </trkpt>
      <trkpt lat="48.40731" lon="7.27967">
        <ele>1035</ele>
        <time>2020-09-06T09:12:14.385Z</time>
      </trkpt>
      <trkpt lat="48.40731" lon="7.27966">
        <ele>1035</ele>
        <time>2020-09-06T09:12:15.386Z</time>
      </trkpt>
      <trkpt lat="48.4073" lon="7.27964">
        <ele>1035</ele>
        <time>2020-09-06T09:12:16.385Z</time>
      </trkpt>
      <trkpt lat="48.4073" lon="7.27962">
        <ele>1035</ele>
        <time>2020-09-06T09:12:17.386Z</time>
      </trkpt>
      <trkpt lat="48.4073" lon="7.2796">
        <ele>1034</ele>
        <time>2020-09-06T09:12:18.386Z</time>
      </trkpt>
      <trkpt lat="48.4073" lon="7.27958">
        <ele>1034</ele>
        <time>2020-09-06T09:12:19.386Z</time>
      </trkpt>
      <trkpt lat="48.40731" lon="7.27956">
        <ele>1034</ele>
        <time>2020-09-06T09:12:20.385Z</time>
      </trkpt>
      <trkpt lat="48.4073" lon="7.27955">
        <ele>1034</ele>
        <time>2020-09-06T09:12:21.386Z</time>
      </trkpt>
      <trkpt lat="48.40731" lon="7.27953">
        <ele>1034</ele>
        <time>2020-09-06T09:12:22.386Z</time>
      </trkpt>
      <trkpt lat="48.40731" lon="7.27951">
        <ele>1034</ele>
        <time>2020-09-06T09:12:23.386Z</time>
      </trkpt>
      <trkpt lat="48.40731" lon="7.27948">
        <ele>1034</ele>
        <time>2020-09-06T09:12:24.386Z</time>
      </trkpt>
      <trkpt lat="48.40732" lon="7.27947">
        <ele>1034</ele>
        <time>2020-09-06T09:12:25.386Z</time>
      </trkpt>
      <trkpt lat="48.40732" lon="7.27944">
        <ele>1034</ele>
        <time>2020-09-06T09:12:26.386Z</time>
      </trkpt>
      <trkpt lat="48.40732" lon="7.27943">
        <ele>1034</ele>
        <time>2020-09-06T09:12:27.386Z</time>
      </trkpt>
      <trkpt lat="48.40732" lon="7.27942">
        <ele>1034</ele>
        <time>2020-09-06T09:12:28.386Z</time>
      </trkpt>
      <trkpt lat="48.40732" lon="7.2794">
        <ele>1034</ele>
        <time>2020-09-06T09:12:29.386Z</time>
      </trkpt>
      <trkpt lat="48.40732" lon="7.27938">
        <ele>1034</ele>
        <time>2020-09-06T09:12:30.385Z</time>
      </trkpt>
      <trkpt lat="48.40732" lon="7.27937">
        <ele>1034</ele>
        <time>2020-09-06T09:12:31.386Z</time>
      </trkpt>
      <trkpt lat="48.40732" lon="7.27936">
        <ele>1034</ele>
        <time>2020-09-06T09:12:32.386Z</time>
      </trkpt>
      <trkpt lat="48.40732" lon="7.27935">
        <ele>1034</ele>
        <time>2020-09-06T09:12:33.386Z</time>
      </trkpt>
      <trkpt lat="48.40732" lon="7.27933">
        <ele>1034</ele>
        <time>2020-09-06T09:12:34.386Z</time>
      </trkpt>
      <trkpt lat="48.40732" lon="7.27931">
        <ele>1034</ele>
        <time>2020-09-06T09:12:35.386Z</time>
      </trkpt>
      <trkpt lat="48.40732" lon="7.2793">
        <ele>1034</ele>
        <time>2020-09-06T09:12:36.385Z</time>
      </trkpt>
      <trkpt lat="48.40732" lon="7.27928">
        <ele>1034</ele>
        <time>2020-09-06T09:12:37.386Z</time>
      </trkpt>
      <trkpt lat="48.40732" lon="7.27926">
        <ele>1034</ele>
        <time>2020-09-06T09:12:38.386Z</time>
      </trkpt>
      <trkpt lat="48.40731" lon="7.27925">
        <ele>1034</ele>
        <time>2020-09-06T09:12:39.386Z</time>
      </trkpt>
      <trkpt lat="48.40731" lon="7.27924">
        <ele>1034</ele>
        <time>2020-09-06T09:12:40.385Z</time>
      </trkpt>
      <trkpt lat="48.40732" lon="7.27922">
        <ele>1034</ele>
        <time>2020-09-06T09:12:41.385Z</time>
      </trkpt>
      <trkpt lat="48.40732" lon="7.27921">
        <ele>1034</ele>
        <time>2020-09-06T09:12:42.386Z</time>
      </trkpt>
      <trkpt lat="48.40732" lon="7.27919">
        <ele>1034</ele>
        <time>2020-09-06T09:12:43.386Z</time>
      </trkpt>
      <trkpt lat="48.40733" lon="7.27918">
        <ele>1034</ele>
        <time>2020-09-06T09:12:44.385Z</time>
      </trkpt>
      <trkpt lat="48.40733" lon="7.27917">
        <ele>1034</ele>
        <time>2020-09-06T09:12:45.386Z</time>
      </trkpt>
      <trkpt lat="48.40734" lon="7.27915">
        <ele>1035</ele>
        <time>2020-09-06T09:12:46.385Z</time>
      </trkpt>
      <trkpt lat="48.40734" lon="7.27914">
        <ele>1035</ele>
        <time>2020-09-06T09:12:47.386Z</time>
      </trkpt>
      <trkpt lat="48.40734" lon="7.27911">
        <ele>1035</ele>
        <time>2020-09-06T09:12:48.385Z</time>
      </trkpt>
      <trkpt lat="48.40734" lon="7.27908">
        <ele>1035</ele>
        <time>2020-09-06T09:12:49.386Z</time>
      </trkpt>
      <trkpt lat="48.40733" lon="7.27905">
        <ele>1035</ele>
        <time>2020-09-06T09:12:50.386Z</time>
      </trkpt>
      <trkpt lat="48.40733" lon="7.27903">
        <ele>1034</ele>
        <time>2020-09-06T09:12:51.386Z</time>
      </trkpt>
      <trkpt lat="48.40733" lon="7.27902">
        <ele>1034</ele>
        <time>2020-09-06T09:12:52.386Z</time>
      </trkpt>
      <trkpt lat="48.40733" lon="7.279">
        <ele>1034</ele>
        <time>2020-09-06T09:12:53.386Z</time>
      </trkpt>
      <trkpt lat="48.40733" lon="7.27899">
        <ele>1034</ele>
        <time>2020-09-06T09:12:54.386Z</time>
      </trkpt>
      <trkpt lat="48.40734" lon="7.27898">
        <ele>1034</ele>
        <time>2020-09-06T09:12:55.385Z</time>
      </trkpt>
      <trkpt lat="48.40733" lon="7.27896">
        <ele>1034</ele>
        <time>2020-09-06T09:12:56.386Z</time>
      </trkpt>
      <trkpt lat="48.40734" lon="7.27895">
        <ele>1034</ele>
        <time>2020-09-06T09:12:57.386Z</time>
      </trkpt>
      <trkpt lat="48.40734" lon="7.27894">
        <ele>1034</ele>
        <time>2020-09-06T09:12:58.386Z</time>
      </trkpt>
      <trkpt lat="48.40734" lon="7.27892">
        <ele>1034</ele>
        <time>2020-09-06T09:12:59.386Z</time>
      </trkpt>
      <trkpt lat="48.40734" lon="7.27891">
        <ele>1034</ele>
        <time>2020-09-06T09:13:00.385Z</time>
      </trkpt>
      <trkpt lat="48.40735" lon="7.2789">
        <ele>1034</ele>
        <time>2020-09-06T09:13:01.386Z</time>
      </trkpt>
      <trkpt lat="48.40735" lon="7.27889">
        <ele>1034</ele>
        <time>2020-09-06T09:13:02.385Z</time>
      </trkpt>
      <trkpt lat="48.40734" lon="7.27887">
        <ele>1034</ele>
        <time>2020-09-06T09:13:03.386Z</time>
      </trkpt>
      <trkpt lat="48.40734" lon="7.27886">
        <ele>1034</ele>
        <time>2020-09-06T09:13:04.386Z</time>
      </trkpt>
      <trkpt lat="48.40735" lon="7.27885">
        <ele>1034</ele>
        <time>2020-09-06T09:13:05.386Z</time>
      </trkpt>
      <trkpt lat="48.40734" lon="7.27883">
        <ele>1034</ele>
        <time>2020-09-06T09:13:06.385Z</time>
      </trkpt>
      <trkpt lat="48.40734" lon="7.27881">
        <ele>1034</ele>
        <time>2020-09-06T09:13:07.386Z</time>
      </trkpt>
      <trkpt lat="48.40734" lon="7.2788">
        <ele>1034</ele>
        <time>2020-09-06T09:13:08.385Z</time>
      </trkpt>
      <trkpt lat="48.40733" lon="7.27878">
        <ele>1035</ele>
        <time>2020-09-06T09:13:09.385Z</time>
      </trkpt>
      <trkpt lat="48.40733" lon="7.27876">
        <ele>1035</ele>
        <time>2020-09-06T09:13:10.386Z</time>
      </trkpt>
      <trkpt lat="48.40732" lon="7.27874">
        <ele>1035</ele>
        <time>2020-09-06T09:13:11.386Z</time>
      </trkpt>
      <trkpt lat="48.40732" lon="7.27873">
        <ele>1035</ele>
        <time>2020-09-06T09:13:12.385Z</time>
      </trkpt>
      <trkpt lat="48.40732" lon="7.27873">
        <ele>1036</ele>
        <time>2020-09-06T09:13:13.385Z</time>
      </trkpt>
      <trkpt lat="48.40732" lon="7.27872">
        <ele>1036</ele>
        <time>2020-09-06T09:13:14.385Z</time>
      </trkpt>
      <trkpt lat="48.40733" lon="7.2787">
        <ele>1036</ele>
        <time>2020-09-06T09:13:15.386Z</time>
      </trkpt>
      <trkpt lat="48.40732" lon="7.27868">
        <ele>1036</ele>
        <time>2020-09-06T09:13:16.386Z</time>
      </trkpt>
      <trkpt lat="48.40732" lon="7.27866">
        <ele>1036</ele>
        <time>2020-09-06T09:13:17.385Z</time>
      </trkpt>
      <trkpt lat="48.40733" lon="7.27865">
        <ele>1035</ele>
        <time>2020-09-06T09:13:18.386Z</time>
      </trkpt>
      <trkpt lat="48.40733" lon="7.27864">
        <ele>1035</ele>
        <time>2020-09-06T09:13:19.385Z</time>
      </trkpt>
      <trkpt lat="48.40733" lon="7.27862">
        <ele>1035</ele>
        <time>2020-09-06T09:13:20.386Z</time>
      </trkpt>
      <trkpt lat="48.40734" lon="7.27861">
        <ele>1034</ele>
        <time>2020-09-06T09:13:21.386Z</time>
      </trkpt>
      <trkpt lat="48.40734" lon="7.2786">
        <ele>1035</ele>
        <time>2020-09-06T09:13:22.386Z</time>
      </trkpt>
      <trkpt lat="48.40735" lon="7.27858">
        <ele>1035</ele>
        <time>2020-09-06T09:13:23.386Z</time>
      </trkpt>
      <trkpt lat="48.40735" lon="7.27857">
        <ele>1035</ele>
        <time>2020-09-06T09:13:24.385Z</time>
      </trkpt>
      <trkpt lat="48.40735" lon="7.27856">
        <ele>1035</ele>
        <time>2020-09-06T09:13:25.385Z</time>
      </trkpt>
      <trkpt lat="48.40735" lon="7.27854">
        <ele>1035</ele>
        <time>2020-09-06T09:13:26.386Z</time>
      </trkpt>
      <trkpt lat="48.40735" lon="7.27853">
        <ele>1035</ele>
        <time>2020-09-06T09:13:27.385Z</time>
      </trkpt>
      <trkpt lat="48.40736" lon="7.27851">
        <ele>1036</ele>
        <time>2020-09-06T09:13:28.385Z</time>
      </trkpt>
      <trkpt lat="48.40737" lon="7.2785">
        <ele>1036</ele>
        <time>2020-09-06T09:13:29.385Z</time>
      </trkpt>
      <trkpt lat="48.40738" lon="7.27849">
        <ele>1036</ele>
        <time>2020-09-06T09:13:30.385Z</time>
      </trkpt>
      <trkpt lat="48.40739" lon="7.27847">
        <ele>1037</ele>
        <time>2020-09-06T09:13:31.386Z</time>
      </trkpt>
      <trkpt lat="48.4074" lon="7.27844">
        <ele>1037</ele>
        <time>2020-09-06T09:13:32.386Z</time>
      </trkpt>
      <trkpt lat="48.4074" lon="7.27843">
        <ele>1037</ele>
        <time>2020-09-06T09:13:33.385Z</time>
      </trkpt>
      <trkpt lat="48.40741" lon="7.27842">
        <ele>1038</ele>
        <time>2020-09-06T09:13:34.386Z</time>
      </trkpt>
      <trkpt lat="48.40741" lon="7.27841">
        <ele>1038</ele>
        <time>2020-09-06T09:13:35.385Z</time>
      </trkpt>
      <trkpt lat="48.40741" lon="7.27839">
        <ele>1038</ele>
        <time>2020-09-06T09:13:36.385Z</time>
      </trkpt>
      <trkpt lat="48.40741" lon="7.27837">
        <ele>1038</ele>
        <time>2020-09-06T09:13:37.386Z</time>
      </trkpt>
      <trkpt lat="48.40741" lon="7.27835">
        <ele>1038</ele>
        <time>2020-09-06T09:13:38.385Z</time>
      </trkpt>
      <trkpt lat="48.40741" lon="7.27833">
        <ele>1038</ele>
        <time>2020-09-06T09:13:39.385Z</time>
      </trkpt>
      <trkpt lat="48.40741" lon="7.27831">
        <ele>1038</ele>
        <time>2020-09-06T09:13:40.385Z</time>
      </trkpt>
      <trkpt lat="48.40741" lon="7.2783">
        <ele>1038</ele>
        <time>2020-09-06T09:13:41.385Z</time>
      </trkpt>
      <trkpt lat="48.40741" lon="7.27828">
        <ele>1038</ele>
        <time>2020-09-06T09:13:42.386Z</time>
      </trkpt>
      <trkpt lat="48.40741" lon="7.27825">
        <ele>1038</ele>
        <time>2020-09-06T09:13:43.385Z</time>
      </trkpt>
      <trkpt lat="48.40741" lon="7.27823">
        <ele>1038</ele>
        <time>2020-09-06T09:13:44.386Z</time>
      </trkpt>
      <trkpt lat="48.40742" lon="7.27821">
        <ele>1039</ele>
        <time>2020-09-06T09:13:45.385Z</time>
      </trkpt>
      <trkpt lat="48.40742" lon="7.27819">
        <ele>1039</ele>
        <time>2020-09-06T09:13:46.385Z</time>
      </trkpt>
      <trkpt lat="48.40742" lon="7.27817">
        <ele>1039</ele>
        <time>2020-09-06T09:13:47.385Z</time>
      </trkpt>
      <trkpt lat="48.40742" lon="7.27815">
        <ele>1039</ele>
        <time>2020-09-06T09:13:48.385Z</time>
      </trkpt>
      <trkpt lat="48.40742" lon="7.27813">
        <ele>1039</ele>
        <time>2020-09-06T09:13:49.386Z</time>
      </trkpt>
      <trkpt lat="48.40743" lon="7.27812">
        <ele>1040</ele>
        <time>2020-09-06T09:13:50.386Z</time>
      </trkpt>
      <trkpt lat="48.40743" lon="7.2781">
        <ele>1040</ele>
        <time>2020-09-06T09:13:51.386Z</time>
      </trkpt>
      <trkpt lat="48.40744" lon="7.27808">
        <ele>1040</ele>
        <time>2020-09-06T09:13:52.385Z</time>
      </trkpt>
      <trkpt lat="48.40744" lon="7.27806">
        <ele>1041</ele>
        <time>2020-09-06T09:13:53.386Z</time>
      </trkpt>
      <trkpt lat="48.40744" lon="7.27804">
        <ele>1041</ele>
        <time>2020-09-06T09:13:54.385Z</time>
      </trkpt>
      <trkpt lat="48.40744" lon="7.27803">
        <ele>1042</ele>
        <time>2020-09-06T09:13:55.385Z</time>
      </trkpt>
      <trkpt lat="48.40745" lon="7.27801">
        <ele>1042</ele>
        <time>2020-09-06T09:13:56.386Z</time>
      </trkpt>
      <trkpt lat="48.40745" lon="7.278">
        <ele>1043</ele>
        <time>2020-09-06T09:13:57.386Z</time>
      </trkpt>
      <trkpt lat="48.40744" lon="7.27798">
        <ele>1043</ele>
        <time>2020-09-06T09:13:58.386Z</time>
      </trkpt>
      <trkpt lat="48.40745" lon="7.27796">
        <ele>1044</ele>
        <time>2020-09-06T09:13:59.385Z</time>
      </trkpt>
      <trkpt lat="48.40745" lon="7.27795">
        <ele>1044</ele>
        <time>2020-09-06T09:14:00.386Z</time>
      </trkpt>
      <trkpt lat="48.40745" lon="7.27794">
        <ele>1044</ele>
        <time>2020-09-06T09:14:01.386Z</time>
      </trkpt>
      <trkpt lat="48.40745" lon="7.27793">
        <ele>1045</ele>
        <time>2020-09-06T09:14:02.385Z</time>
      </trkpt>
      <trkpt lat="48.40745" lon="7.27791">
        <ele>1045</ele>
        <time>2020-09-06T09:14:03.386Z</time>
      </trkpt>
      <trkpt lat="48.40744" lon="7.27788">
        <ele>1045</ele>
        <time>2020-09-06T09:14:04.385Z</time>
      </trkpt>
      <trkpt lat="48.40743" lon="7.27786">
        <ele>1046</ele>
        <time>2020-09-06T09:14:05.385Z</time>
      </trkpt>
      <trkpt lat="48.40742" lon="7.27785">
        <ele>1046</ele>
        <time>2020-09-06T09:14:06.386Z</time>
      </trkpt>
      <trkpt lat="48.40741" lon="7.27783">
        <ele>1046</ele>
        <time>2020-09-06T09:14:07.385Z</time>
      </trkpt>
      <trkpt lat="48.40741" lon="7.27781">
        <ele>1046</ele>
        <time>2020-09-06T09:14:08.385Z</time>
      </trkpt>
      <trkpt lat="48.40742" lon="7.2778">
        <ele>1047</ele>
        <time>2020-09-06T09:14:09.385Z</time>
      </trkpt>
      <trkpt lat="48.40743" lon="7.27779">
        <ele>1047</ele>
        <time>2020-09-06T09:14:10.386Z</time>
      </trkpt>
      <trkpt lat="48.40743" lon="7.27777">
        <ele>1046</ele>
        <time>2020-09-06T09:14:11.386Z</time>
      </trkpt>
      <trkpt lat="48.40743" lon="7.27775">
        <ele>1046</ele>
        <time>2020-09-06T09:14:12.385Z</time>
      </trkpt>
      <trkpt lat="48.40744" lon="7.27774">
        <ele>1046</ele>
        <time>2020-09-06T09:14:13.386Z</time>
      </trkpt>
      <trkpt lat="48.40744" lon="7.27773">
        <ele>1046</ele>
        <time>2020-09-06T09:14:14.386Z</time>
      </trkpt>
      <trkpt lat="48.40745" lon="7.27771">
        <ele>1046</ele>
        <time>2020-09-06T09:14:15.385Z</time>
      </trkpt>
      <trkpt lat="48.40745" lon="7.2777">
        <ele>1046</ele>
        <time>2020-09-06T09:14:16.386Z</time>
      </trkpt>
      <trkpt lat="48.40746" lon="7.27768">
        <ele>1046</ele>
        <time>2020-09-06T09:14:17.386Z</time>
      </trkpt>
      <trkpt lat="48.40746" lon="7.27767">
        <ele>1046</ele>
        <time>2020-09-06T09:14:18.386Z</time>
      </trkpt>
      <trkpt lat="48.40746" lon="7.27765">
        <ele>1046</ele>
        <time>2020-09-06T09:14:19.386Z</time>
      </trkpt>
      <trkpt lat="48.40746" lon="7.27764">
        <ele>1046</ele>
        <time>2020-09-06T09:14:20.385Z</time>
      </trkpt>
      <trkpt lat="48.40747" lon="7.27763">
        <ele>1046</ele>
        <time>2020-09-06T09:14:21.386Z</time>
      </trkpt>
      <trkpt lat="48.40748" lon="7.27762">
        <ele>1046</ele>
        <time>2020-09-06T09:14:22.385Z</time>
      </trkpt>
      <trkpt lat="48.40747" lon="7.2776">
        <ele>1046</ele>
        <time>2020-09-06T09:14:23.385Z</time>
      </trkpt>
      <trkpt lat="48.40747" lon="7.27758">
        <ele>1046</ele>
        <time>2020-09-06T09:14:24.385Z</time>
      </trkpt>
      <trkpt lat="48.40747" lon="7.27757">
        <ele>1045</ele>
        <time>2020-09-06T09:14:25.385Z</time>
      </trkpt>
      <trkpt lat="48.40748" lon="7.27755">
        <ele>1045</ele>
        <time>2020-09-06T09:14:26.386Z</time>
      </trkpt>
      <trkpt lat="48.40748" lon="7.27754">
        <ele>1044</ele>
        <time>2020-09-06T09:14:27.386Z</time>
      </trkpt>
      <trkpt lat="48.40748" lon="7.27753">
        <ele>1044</ele>
        <time>2020-09-06T09:14:28.385Z</time>
      </trkpt>
      <trkpt lat="48.40749" lon="7.27752">
        <ele>1044</ele>
        <time>2020-09-06T09:14:29.385Z</time>
      </trkpt>
      <trkpt lat="48.40749" lon="7.27753">
        <ele>1043</ele>
        <time>2020-09-06T09:14:30.385Z</time>
      </trkpt>
      <trkpt lat="48.40752" lon="7.27749">
        <ele>1043</ele>
        <time>2020-09-06T09:14:31.387Z</time>
      </trkpt>
      <trkpt lat="48.40751" lon="7.27747">
        <ele>1043</ele>
        <time>2020-09-06T09:14:32.387Z</time>
      </trkpt>
      <trkpt lat="48.4075" lon="7.27748">
        <ele>1043</ele>
        <time>2020-09-06T09:14:33.386Z</time>
      </trkpt>
      <trkpt lat="48.4075" lon="7.27748">
        <ele>1042</ele>
        <time>2020-09-06T09:14:34.387Z</time>
      </trkpt>
      <trkpt lat="48.40752" lon="7.27749">
        <ele>1042</ele>
        <time>2020-09-06T09:14:35.387Z</time>
      </trkpt>
      <trkpt lat="48.40746" lon="7.27753">
        <ele>1046</ele>
        <time>2020-09-06T09:14:36.388Z</time>
      </trkpt>
      <trkpt lat="48.40746" lon="7.2775">
        <ele>1046</ele>
        <time>2020-09-06T09:14:37.388Z</time>
      </trkpt>
      <trkpt lat="48.40745" lon="7.27746">
        <ele>1046</ele>
        <time>2020-09-06T09:14:38.387Z</time>
      </trkpt>
      <trkpt lat="48.40745" lon="7.27743">
        <ele>1046</ele>
        <time>2020-09-06T09:14:39.387Z</time>
      </trkpt>
      <trkpt lat="48.40745" lon="7.2774">
        <ele>1046</ele>
        <time>2020-09-06T09:14:40.387Z</time>
      </trkpt>
      <trkpt lat="48.40745" lon="7.27736">
        <ele>1046</ele>
        <time>2020-09-06T09:14:41.387Z</time>
      </trkpt>
      <trkpt lat="48.40745" lon="7.27733">
        <ele>1046</ele>
        <time>2020-09-06T09:14:42.387Z</time>
      </trkpt>
      <trkpt lat="48.40745" lon="7.2773">
        <ele>1046</ele>
        <time>2020-09-06T09:14:43.388Z</time>
      </trkpt>
      <trkpt lat="48.40745" lon="7.27728">
        <ele>1046</ele>
        <time>2020-09-06T09:14:44.388Z</time>
      </trkpt>
      <trkpt lat="48.40745" lon="7.27725">
        <ele>1046</ele>
        <time>2020-09-06T09:14:45.387Z</time>
      </trkpt>
      <trkpt lat="48.40745" lon="7.27722">
        <ele>1046</ele>
        <time>2020-09-06T09:14:46.388Z</time>
      </trkpt>
      <trkpt lat="48.40744" lon="7.2772">
        <ele>1046</ele>
        <time>2020-09-06T09:14:47.387Z</time>
      </trkpt>
      <trkpt lat="48.40744" lon="7.27718">
        <ele>1046</ele>
        <time>2020-09-06T09:14:48.387Z</time>
      </trkpt>
      <trkpt lat="48.40744" lon="7.27716">
        <ele>1045</ele>
        <time>2020-09-06T09:14:49.387Z</time>
      </trkpt>
      <trkpt lat="48.40743" lon="7.27715">
        <ele>1045</ele>
        <time>2020-09-06T09:14:50.387Z</time>
      </trkpt>
      <trkpt lat="48.40743" lon="7.27712">
        <ele>1044</ele>
        <time>2020-09-06T09:14:51.388Z</time>
      </trkpt>
      <trkpt lat="48.40744" lon="7.27711">
        <ele>1044</ele>
        <time>2020-09-06T09:14:52.387Z</time>
      </trkpt>
      <trkpt lat="48.40744" lon="7.27709">
        <ele>1044</ele>
        <time>2020-09-06T09:14:53.387Z</time>
      </trkpt>
      <trkpt lat="48.40744" lon="7.27708">
        <ele>1043</ele>
        <time>2020-09-06T09:14:54.387Z</time>
      </trkpt>
      <trkpt lat="48.40744" lon="7.27707">
        <ele>1043</ele>
        <time>2020-09-06T09:14:55.387Z</time>
      </trkpt>
      <trkpt lat="48.40745" lon="7.27706">
        <ele>1043</ele>
        <time>2020-09-06T09:14:56.388Z</time>
      </trkpt>
      <trkpt lat="48.40746" lon="7.27704">
        <ele>1043</ele>
        <time>2020-09-06T09:14:57.388Z</time>
      </trkpt>
      <trkpt lat="48.40746" lon="7.27702">
        <ele>1044</ele>
        <time>2020-09-06T09:14:58.387Z</time>
      </trkpt>
      <trkpt lat="48.40746" lon="7.27699">
        <ele>1044</ele>
        <time>2020-09-06T09:14:59.387Z</time>
      </trkpt>
      <trkpt lat="48.40747" lon="7.27698">
        <ele>1045</ele>
        <time>2020-09-06T09:15:00.387Z</time>
      </trkpt>
      <trkpt lat="48.40747" lon="7.27696">
        <ele>1046</ele>
        <time>2020-09-06T09:15:01.388Z</time>
      </trkpt>
      <trkpt lat="48.40747" lon="7.27693">
        <ele>1047</ele>
        <time>2020-09-06T09:15:02.388Z</time>
      </trkpt>
      <trkpt lat="48.40747" lon="7.27691">
        <ele>1048</ele>
        <time>2020-09-06T09:15:03.387Z</time>
      </trkpt>
      <trkpt lat="48.40748" lon="7.2769">
        <ele>1049</ele>
        <time>2020-09-06T09:15:04.387Z</time>
      </trkpt>
      <trkpt lat="48.40749" lon="7.27689">
        <ele>1050</ele>
        <time>2020-09-06T09:15:05.387Z</time>
      </trkpt>
      <trkpt lat="48.40749" lon="7.27688">
        <ele>1050</ele>
        <time>2020-09-06T09:15:06.387Z</time>
      </trkpt>
      <trkpt lat="48.4075" lon="7.27686">
        <ele>1049</ele>
        <time>2020-09-06T09:15:07.387Z</time>
      </trkpt>
      <trkpt lat="48.4075" lon="7.27685">
        <ele>1049</ele>
        <time>2020-09-06T09:15:08.387Z</time>
      </trkpt>
      <trkpt lat="48.4075" lon="7.27684">
        <ele>1048</ele>
        <time>2020-09-06T09:15:09.388Z</time>
      </trkpt>
      <trkpt lat="48.40751" lon="7.27683">
        <ele>1048</ele>
        <time>2020-09-06T09:15:10.387Z</time>
      </trkpt>
      <trkpt lat="48.40751" lon="7.27682">
        <ele>1047</ele>
        <time>2020-09-06T09:15:11.388Z</time>
      </trkpt>
      <trkpt lat="48.40751" lon="7.27681">
        <ele>1047</ele>
        <time>2020-09-06T09:15:12.387Z</time>
      </trkpt>
      <trkpt lat="48.40751" lon="7.2768">
        <ele>1046</ele>
        <time>2020-09-06T09:15:13.387Z</time>
      </trkpt>
      <trkpt lat="48.40751" lon="7.27679">
        <ele>1046</ele>
        <time>2020-09-06T09:15:14.387Z</time>
      </trkpt>
      <trkpt lat="48.40752" lon="7.27677">
        <ele>1045</ele>
        <time>2020-09-06T09:15:15.387Z</time>
      </trkpt>
      <trkpt lat="48.40753" lon="7.27675">
        <ele>1045</ele>
        <time>2020-09-06T09:15:16.388Z</time>
      </trkpt>
      <trkpt lat="48.40752" lon="7.27673">
        <ele>1045</ele>
        <time>2020-09-06T09:15:17.387Z</time>
      </trkpt>
      <trkpt lat="48.40752" lon="7.2767">
        <ele>1046</ele>
        <time>2020-09-06T09:15:18.387Z</time>
      </trkpt>
      <trkpt lat="48.40751" lon="7.27667">
        <ele>1046</ele>
        <time>2020-09-06T09:15:19.388Z</time>
      </trkpt>
      <trkpt lat="48.4075" lon="7.27663">
        <ele>1047</ele>
        <time>2020-09-06T09:15:20.387Z</time>
      </trkpt>
      <trkpt lat="48.40749" lon="7.27661">
        <ele>1047</ele>
        <time>2020-09-06T09:15:21.388Z</time>
      </trkpt>
      <trkpt lat="48.40749" lon="7.27659">
        <ele>1047</ele>
        <time>2020-09-06T09:15:22.388Z</time>
      </trkpt>
      <trkpt lat="48.40748" lon="7.27657">
        <ele>1047</ele>
        <time>2020-09-06T09:15:23.387Z</time>
      </trkpt>
      <trkpt lat="48.40747" lon="7.27655">
        <ele>1047</ele>
        <time>2020-09-06T09:15:24.387Z</time>
      </trkpt>
      <trkpt lat="48.40748" lon="7.27653">
        <ele>1047</ele>
        <time>2020-09-06T09:15:25.387Z</time>
      </trkpt>
      <trkpt lat="48.40748" lon="7.27651">
        <ele>1048</ele>
        <time>2020-09-06T09:15:26.387Z</time>
      </trkpt>
      <trkpt lat="48.40748" lon="7.27649">
        <ele>1048</ele>
        <time>2020-09-06T09:15:27.387Z</time>
      </trkpt>
      <trkpt lat="48.40748" lon="7.27647">
        <ele>1050</ele>
        <time>2020-09-06T09:15:28.387Z</time>
      </trkpt>
      <trkpt lat="48.40747" lon="7.27646">
        <ele>1051</ele>
        <time>2020-09-06T09:15:29.387Z</time>
      </trkpt>
      <trkpt lat="48.40747" lon="7.27644">
        <ele>1051</ele>
        <time>2020-09-06T09:15:30.387Z</time>
      </trkpt>
      <trkpt lat="48.40747" lon="7.27641">
        <ele>1052</ele>
        <time>2020-09-06T09:15:31.387Z</time>
      </trkpt>
      <trkpt lat="48.40747" lon="7.27639">
        <ele>1053</ele>
        <time>2020-09-06T09:15:32.387Z</time>
      </trkpt>
      <trkpt lat="48.40748" lon="7.27638">
        <ele>1053</ele>
        <time>2020-09-06T09:15:33.388Z</time>
      </trkpt>
      <trkpt lat="48.40749" lon="7.27637">
        <ele>1053</ele>
        <time>2020-09-06T09:15:34.387Z</time>
      </trkpt>
      <trkpt lat="48.40749" lon="7.27635">
        <ele>1053</ele>
        <time>2020-09-06T09:15:35.387Z</time>
      </trkpt>
      <trkpt lat="48.40749" lon="7.27634">
        <ele>1053</ele>
        <time>2020-09-06T09:15:36.388Z</time>
      </trkpt>
      <trkpt lat="48.4075" lon="7.27632">
        <ele>1053</ele>
        <time>2020-09-06T09:15:37.387Z</time>
      </trkpt>
      <trkpt lat="48.40751" lon="7.2763">
        <ele>1053</ele>
        <time>2020-09-06T09:15:38.387Z</time>
      </trkpt>
      <trkpt lat="48.40751" lon="7.27629">
        <ele>1053</ele>
        <time>2020-09-06T09:15:39.388Z</time>
      </trkpt>
      <trkpt lat="48.40752" lon="7.27629">
        <ele>1053</ele>
        <time>2020-09-06T09:15:40.388Z</time>
      </trkpt>
      <trkpt lat="48.40753" lon="7.27628">
        <ele>1053</ele>
        <time>2020-09-06T09:15:41.388Z</time>
      </trkpt>
      <trkpt lat="48.40754" lon="7.27627">
        <ele>1052</ele>
        <time>2020-09-06T09:15:42.388Z</time>
      </trkpt>
      <trkpt lat="48.40754" lon="7.27626">
        <ele>1051</ele>
        <time>2020-09-06T09:15:43.388Z</time>
      </trkpt>
      <trkpt lat="48.40754" lon="7.27625">
        <ele>1051</ele>
        <time>2020-09-06T09:15:44.388Z</time>
      </trkpt>
      <trkpt lat="48.40754" lon="7.27624">
        <ele>1050</ele>
        <time>2020-09-06T09:15:45.388Z</time>
      </trkpt>
      <trkpt lat="48.40754" lon="7.27624">
        <ele>1050</ele>
        <time>2020-09-06T09:15:46.388Z</time>
      </trkpt>
      <trkpt lat="48.40754" lon="7.27623">
        <ele>1050</ele>
        <time>2020-09-06T09:15:47.387Z</time>
      </trkpt>
      <trkpt lat="48.40754" lon="7.27622">
        <ele>1050</ele>
        <time>2020-09-06T09:15:48.388Z</time>
      </trkpt>
      <trkpt lat="48.40754" lon="7.27622">
        <ele>1049</ele>
        <time>2020-09-06T09:15:49.388Z</time>
      </trkpt>
      <trkpt lat="48.40754" lon="7.27622">
        <ele>1048</ele>
        <time>2020-09-06T09:15:50.388Z</time>
      </trkpt>
      <trkpt lat="48.40755" lon="7.27621">
        <ele>1048</ele>
        <time>2020-09-06T09:15:51.388Z</time>
      </trkpt>
      <trkpt lat="48.40756" lon="7.27619">
        <ele>1048</ele>
        <time>2020-09-06T09:15:52.388Z</time>
      </trkpt>
      <trkpt lat="48.40756" lon="7.27618">
        <ele>1048</ele>
        <time>2020-09-06T09:15:53.388Z</time>
      </trkpt>
      <trkpt lat="48.40756" lon="7.27616">
        <ele>1049</ele>
        <time>2020-09-06T09:15:54.388Z</time>
      </trkpt>
      <trkpt lat="48.40756" lon="7.27616">
        <ele>1049</ele>
        <time>2020-09-06T09:15:55.388Z</time>
      </trkpt>
      <trkpt lat="48.40757" lon="7.27615">
        <ele>1048</ele>
        <time>2020-09-06T09:15:56.388Z</time>
      </trkpt>
      <trkpt lat="48.40758" lon="7.27614">
        <ele>1047</ele>
        <time>2020-09-06T09:15:57.388Z</time>
      </trkpt>
      <trkpt lat="48.40758" lon="7.27613">
        <ele>1046</ele>
        <time>2020-09-06T09:15:58.388Z</time>
      </trkpt>
      <trkpt lat="48.40758" lon="7.27611">
        <ele>1045</ele>
        <time>2020-09-06T09:15:59.388Z</time>
      </trkpt>
      <trkpt lat="48.40758" lon="7.27609">
        <ele>1044</ele>
        <time>2020-09-06T09:16:00.388Z</time>
      </trkpt>
      <trkpt lat="48.40757" lon="7.27607">
        <ele>1044</ele>
        <time>2020-09-06T09:16:01.388Z</time>
      </trkpt>
      <trkpt lat="48.40756" lon="7.27605">
        <ele>1044</ele>
        <time>2020-09-06T09:16:02.388Z</time>
      </trkpt>
      <trkpt lat="48.40757" lon="7.27604">
        <ele>1044</ele>
        <time>2020-09-06T09:16:03.388Z</time>
      </trkpt>
      <trkpt lat="48.40757" lon="7.27603">
        <ele>1044</ele>
        <time>2020-09-06T09:16:04.388Z</time>
      </trkpt>
      <trkpt lat="48.40758" lon="7.27602">
        <ele>1044</ele>
        <time>2020-09-06T09:16:05.388Z</time>
      </trkpt>
      <trkpt lat="48.40759" lon="7.27601">
        <ele>1044</ele>
        <time>2020-09-06T09:16:06.388Z</time>
      </trkpt>
      <trkpt lat="48.40759" lon="7.276">
        <ele>1043</ele>
        <time>2020-09-06T09:16:07.388Z</time>
      </trkpt>
      <trkpt lat="48.40759" lon="7.27598">
        <ele>1043</ele>
        <time>2020-09-06T09:16:08.388Z</time>
      </trkpt>
      <trkpt lat="48.4076" lon="7.27597">
        <ele>1043</ele>
        <time>2020-09-06T09:16:09.388Z</time>
      </trkpt>
      <trkpt lat="48.4076" lon="7.27596">
        <ele>1043</ele>
        <time>2020-09-06T09:16:10.388Z</time>
      </trkpt>
      <trkpt lat="48.4076" lon="7.27595">
        <ele>1043</ele>
        <time>2020-09-06T09:16:11.388Z</time>
      </trkpt>
      <trkpt lat="48.4076" lon="7.27594">
        <ele>1044</ele>
        <time>2020-09-06T09:16:12.388Z</time>
      </trkpt>
      <trkpt lat="48.4076" lon="7.27592">
        <ele>1044</ele>
        <time>2020-09-06T09:16:13.388Z</time>
      </trkpt>
      <trkpt lat="48.40761" lon="7.27591">
        <ele>1045</ele>
        <time>2020-09-06T09:16:14.388Z</time>
      </trkpt>
      <trkpt lat="48.40761" lon="7.27589">
        <ele>1046</ele>
        <time>2020-09-06T09:16:15.387Z</time>
      </trkpt>
      <trkpt lat="48.40761" lon="7.27588">
        <ele>1046</ele>
        <time>2020-09-06T09:16:16.388Z</time>
      </trkpt>
      <trkpt lat="48.40761" lon="7.27586">
        <ele>1047</ele>
        <time>2020-09-06T09:16:17.388Z</time>
      </trkpt>
      <trkpt lat="48.40761" lon="7.27585">
        <ele>1047</ele>
        <time>2020-09-06T09:16:18.388Z</time>
      </trkpt>
      <trkpt lat="48.40761" lon="7.27583">
        <ele>1047</ele>
        <time>2020-09-06T09:16:19.388Z</time>
      </trkpt>
      <trkpt lat="48.40761" lon="7.27581">
        <ele>1048</ele>
        <time>2020-09-06T09:16:20.387Z</time>
      </trkpt>
      <trkpt lat="48.40761" lon="7.27579">
        <ele>1048</ele>
        <time>2020-09-06T09:16:21.388Z</time>
      </trkpt>
      <trkpt lat="48.40761" lon="7.27577">
        <ele>1048</ele>
        <time>2020-09-06T09:16:22.388Z</time>
      </trkpt>
      <trkpt lat="48.40762" lon="7.27574">
        <ele>1049</ele>
        <time>2020-09-06T09:16:23.387Z</time>
      </trkpt>
      <trkpt lat="48.40762" lon="7.27572">
        <ele>1049</ele>
        <time>2020-09-06T09:16:24.387Z</time>
      </trkpt>
      <trkpt lat="48.40762" lon="7.27568">
        <ele>1050</ele>
        <time>2020-09-06T09:16:25.388Z</time>
      </trkpt>
      <trkpt lat="48.40762" lon="7.27567">
        <ele>1050</ele>
        <time>2020-09-06T09:16:26.388Z</time>
      </trkpt>
      <trkpt lat="48.40763" lon="7.27565">
        <ele>1051</ele>
        <time>2020-09-06T09:16:27.388Z</time>
      </trkpt>
      <trkpt lat="48.40763" lon="7.27564">
        <ele>1051</ele>
        <time>2020-09-06T09:16:28.388Z</time>
      </trkpt>
      <trkpt lat="48.40764" lon="7.27562">
        <ele>1051</ele>
        <time>2020-09-06T09:16:29.388Z</time>
      </trkpt>
      <trkpt lat="48.40764" lon="7.2756">
        <ele>1052</ele>
        <time>2020-09-06T09:16:30.388Z</time>
      </trkpt>
      <trkpt lat="48.40765" lon="7.27559">
        <ele>1052</ele>
        <time>2020-09-06T09:16:31.387Z</time>
      </trkpt>
      <trkpt lat="48.40765" lon="7.27557">
        <ele>1052</ele>
        <time>2020-09-06T09:16:32.388Z</time>
      </trkpt>
      <trkpt lat="48.40766" lon="7.27556">
        <ele>1053</ele>
        <time>2020-09-06T09:16:33.388Z</time>
      </trkpt>
      <trkpt lat="48.40767" lon="7.27554">
        <ele>1053</ele>
        <time>2020-09-06T09:16:34.387Z</time>
      </trkpt>
      <trkpt lat="48.40768" lon="7.27553">
        <ele>1053</ele>
        <time>2020-09-06T09:16:35.388Z</time>
      </trkpt>
      <trkpt lat="48.40768" lon="7.27552">
        <ele>1054</ele>
        <time>2020-09-06T09:16:36.388Z</time>
      </trkpt>
      <trkpt lat="48.40769" lon="7.27551">
        <ele>1054</ele>
        <time>2020-09-06T09:16:37.387Z</time>
      </trkpt>
      <trkpt lat="48.4077" lon="7.2755">
        <ele>1054</ele>
        <time>2020-09-06T09:16:38.388Z</time>
      </trkpt>
      <trkpt lat="48.4077" lon="7.27548">
        <ele>1054</ele>
        <time>2020-09-06T09:16:39.388Z</time>
      </trkpt>
      <trkpt lat="48.4077" lon="7.27547">
        <ele>1055</ele>
        <time>2020-09-06T09:16:40.388Z</time>
      </trkpt>
      <trkpt lat="48.40771" lon="7.27545">
        <ele>1055</ele>
        <time>2020-09-06T09:16:41.387Z</time>
      </trkpt>
      <trkpt lat="48.40771" lon="7.27543">
        <ele>1055</ele>
        <time>2020-09-06T09:16:42.388Z</time>
      </trkpt>
      <trkpt lat="48.40771" lon="7.27541">
        <ele>1056</ele>
        <time>2020-09-06T09:16:43.388Z</time>
      </trkpt>
      <trkpt lat="48.40771" lon="7.27539">
        <ele>1056</ele>
        <time>2020-09-06T09:16:44.388Z</time>
      </trkpt>
      <trkpt lat="48.40771" lon="7.27536">
        <ele>1056</ele>
        <time>2020-09-06T09:16:45.387Z</time>
      </trkpt>
      <trkpt lat="48.40771" lon="7.27534">
        <ele>1056</ele>
        <time>2020-09-06T09:16:46.388Z</time>
      </trkpt>
      <trkpt lat="48.40771" lon="7.27533">
        <ele>1056</ele>
        <time>2020-09-06T09:16:47.387Z</time>
      </trkpt>
      <trkpt lat="48.40771" lon="7.27532">
        <ele>1056</ele>
        <time>2020-09-06T09:16:48.387Z</time>
      </trkpt>
      <trkpt lat="48.40771" lon="7.2753">
        <ele>1056</ele>
        <time>2020-09-06T09:16:49.388Z</time>
      </trkpt>
      <trkpt lat="48.40772" lon="7.27527">
        <ele>1056</ele>
        <time>2020-09-06T09:16:50.388Z</time>
      </trkpt>
      <trkpt lat="48.40771" lon="7.27525">
        <ele>1055</ele>
        <time>2020-09-06T09:16:51.388Z</time>
      </trkpt>
      <trkpt lat="48.40771" lon="7.27524">
        <ele>1054</ele>
        <time>2020-09-06T09:16:52.388Z</time>
      </trkpt>
      <trkpt lat="48.40772" lon="7.27522">
        <ele>1053</ele>
        <time>2020-09-06T09:16:53.387Z</time>
      </trkpt>
      <trkpt lat="48.40773" lon="7.2752">
        <ele>1053</ele>
        <time>2020-09-06T09:16:54.388Z</time>
      </trkpt>
      <trkpt lat="48.40773" lon="7.27518">
        <ele>1052</ele>
        <time>2020-09-06T09:16:55.388Z</time>
      </trkpt>
      <trkpt lat="48.40773" lon="7.27517">
        <ele>1052</ele>
        <time>2020-09-06T09:16:56.388Z</time>
      </trkpt>
      <trkpt lat="48.40774" lon="7.27516">
        <ele>1053</ele>
        <time>2020-09-06T09:16:57.388Z</time>
      </trkpt>
      <trkpt lat="48.40774" lon="7.27515">
        <ele>1053</ele>
        <time>2020-09-06T09:16:58.388Z</time>
      </trkpt>
      <trkpt lat="48.40775" lon="7.27514">
        <ele>1053</ele>
        <time>2020-09-06T09:16:59.387Z</time>
      </trkpt>
      <trkpt lat="48.40775" lon="7.27512">
        <ele>1053</ele>
        <time>2020-09-06T09:17:00.388Z</time>
      </trkpt>
      <trkpt lat="48.40776" lon="7.27511">
        <ele>1053</ele>
        <time>2020-09-06T09:17:01.387Z</time>
      </trkpt>
      <trkpt lat="48.40777" lon="7.27509">
        <ele>1054</ele>
        <time>2020-09-06T09:17:02.387Z</time>
      </trkpt>
      <trkpt lat="48.40777" lon="7.27508">
        <ele>1054</ele>
        <time>2020-09-06T09:17:03.388Z</time>
      </trkpt>
      <trkpt lat="48.40778" lon="7.27507">
        <ele>1054</ele>
        <time>2020-09-06T09:17:04.388Z</time>
      </trkpt>
      <trkpt lat="48.40779" lon="7.27506">
        <ele>1054</ele>
        <time>2020-09-06T09:17:05.388Z</time>
      </trkpt>
      <trkpt lat="48.40779" lon="7.27505">
        <ele>1054</ele>
        <time>2020-09-06T09:17:06.388Z</time>
      </trkpt>
      <trkpt lat="48.40779" lon="7.27503">
        <ele>1054</ele>
        <time>2020-09-06T09:17:07.388Z</time>
      </trkpt>
      <trkpt lat="48.40779" lon="7.27502">
        <ele>1053</ele>
        <time>2020-09-06T09:17:08.388Z</time>
      </trkpt>
      <trkpt lat="48.40779" lon="7.27501">
        <ele>1053</ele>
        <time>2020-09-06T09:17:09.387Z</time>
      </trkpt>
      <trkpt lat="48.40779" lon="7.27499">
        <ele>1053</ele>
        <time>2020-09-06T09:17:10.388Z</time>
      </trkpt>
      <trkpt lat="48.40778" lon="7.27497">
        <ele>1053</ele>
        <time>2020-09-06T09:17:11.388Z</time>
      </trkpt>
      <trkpt lat="48.40778" lon="7.27494">
        <ele>1053</ele>
        <time>2020-09-06T09:17:12.387Z</time>
      </trkpt>
      <trkpt lat="48.40777" lon="7.27491">
        <ele>1053</ele>
        <time>2020-09-06T09:17:13.388Z</time>
      </trkpt>
      <trkpt lat="48.40777" lon="7.27488">
        <ele>1053</ele>
        <time>2020-09-06T09:17:14.388Z</time>
      </trkpt>
      <trkpt lat="48.40777" lon="7.27486">
        <ele>1053</ele>
        <time>2020-09-06T09:17:15.388Z</time>
      </trkpt>
      <trkpt lat="48.40777" lon="7.27484">
        <ele>1053</ele>
        <time>2020-09-06T09:17:16.388Z</time>
      </trkpt>
      <trkpt lat="48.40778" lon="7.27483">
        <ele>1054</ele>
        <time>2020-09-06T09:17:17.387Z</time>
      </trkpt>
      <trkpt lat="48.40778" lon="7.27481">
        <ele>1054</ele>
        <time>2020-09-06T09:17:18.388Z</time>
      </trkpt>
      <trkpt lat="48.40779" lon="7.27479">
        <ele>1054</ele>
        <time>2020-09-06T09:17:19.388Z</time>
      </trkpt>
      <trkpt lat="48.40779" lon="7.27477">
        <ele>1055</ele>
        <time>2020-09-06T09:17:20.387Z</time>
      </trkpt>
      <trkpt lat="48.40778" lon="7.27475">
        <ele>1055</ele>
        <time>2020-09-06T09:17:21.388Z</time>
      </trkpt>
      <trkpt lat="48.40779" lon="7.27474">
        <ele>1055</ele>
        <time>2020-09-06T09:17:22.388Z</time>
      </trkpt>
      <trkpt lat="48.40779" lon="7.27473">
        <ele>1055</ele>
        <time>2020-09-06T09:17:23.387Z</time>
      </trkpt>
      <trkpt lat="48.4078" lon="7.27472">
        <ele>1055</ele>
        <time>2020-09-06T09:17:24.387Z</time>
      </trkpt>
      <trkpt lat="48.4078" lon="7.27471">
        <ele>1055</ele>
        <time>2020-09-06T09:17:25.387Z</time>
      </trkpt>
      <trkpt lat="48.40781" lon="7.27469">
        <ele>1055</ele>
        <time>2020-09-06T09:17:26.388Z</time>
      </trkpt>
      <trkpt lat="48.40781" lon="7.27468">
        <ele>1054</ele>
        <time>2020-09-06T09:17:27.388Z</time>
      </trkpt>
      <trkpt lat="48.40782" lon="7.27467">
        <ele>1054</ele>
        <time>2020-09-06T09:17:28.388Z</time>
      </trkpt>
      <trkpt lat="48.40782" lon="7.27465">
        <ele>1053</ele>
        <time>2020-09-06T09:17:29.388Z</time>
      </trkpt>
      <trkpt lat="48.40782" lon="7.27464">
        <ele>1053</ele>
        <time>2020-09-06T09:17:30.388Z</time>
      </trkpt>
      <trkpt lat="48.40782" lon="7.27462">
        <ele>1053</ele>
        <time>2020-09-06T09:17:31.388Z</time>
      </trkpt>
      <trkpt lat="48.40783" lon="7.2746">
        <ele>1053</ele>
        <time>2020-09-06T09:17:32.387Z</time>
      </trkpt>
      <trkpt lat="48.40783" lon="7.27458">
        <ele>1053</ele>
        <time>2020-09-06T09:17:33.388Z</time>
      </trkpt>
      <trkpt lat="48.40783" lon="7.27456">
        <ele>1053</ele>
        <time>2020-09-06T09:17:34.388Z</time>
      </trkpt>
      <trkpt lat="48.40784" lon="7.27455">
        <ele>1054</ele>
        <time>2020-09-06T09:17:35.388Z</time>
      </trkpt>
      <trkpt lat="48.40784" lon="7.27454">
        <ele>1054</ele>
        <time>2020-09-06T09:17:36.388Z</time>
      </trkpt>
      <trkpt lat="48.40784" lon="7.27453">
        <ele>1054</ele>
        <time>2020-09-06T09:17:37.387Z</time>
      </trkpt>
      <trkpt lat="48.40785" lon="7.27452">
        <ele>1054</ele>
        <time>2020-09-06T09:17:38.388Z</time>
      </trkpt>
      <trkpt lat="48.40785" lon="7.2745">
        <ele>1054</ele>
        <time>2020-09-06T09:17:39.387Z</time>
      </trkpt>
      <trkpt lat="48.40785" lon="7.27449">
        <ele>1054</ele>
        <time>2020-09-06T09:17:40.388Z</time>
      </trkpt>
      <trkpt lat="48.40786" lon="7.27447">
        <ele>1055</ele>
        <time>2020-09-06T09:17:41.387Z</time>
      </trkpt>
      <trkpt lat="48.40787" lon="7.27446">
        <ele>1055</ele>
        <time>2020-09-06T09:17:42.388Z</time>
      </trkpt>
      <trkpt lat="48.40787" lon="7.27445">
        <ele>1055</ele>
        <time>2020-09-06T09:17:43.388Z</time>
      </trkpt>
      <trkpt lat="48.40788" lon="7.27444">
        <ele>1055</ele>
        <time>2020-09-06T09:17:44.387Z</time>
      </trkpt>
      <trkpt lat="48.40789" lon="7.27443">
        <ele>1055</ele>
        <time>2020-09-06T09:17:45.388Z</time>
      </trkpt>
      <trkpt lat="48.40789" lon="7.27441">
        <ele>1056</ele>
        <time>2020-09-06T09:17:46.388Z</time>
      </trkpt>
      <trkpt lat="48.40789" lon="7.2744">
        <ele>1056</ele>
        <time>2020-09-06T09:17:47.388Z</time>
      </trkpt>
      <trkpt lat="48.4079" lon="7.27438">
        <ele>1056</ele>
        <time>2020-09-06T09:17:48.387Z</time>
      </trkpt>
      <trkpt lat="48.4079" lon="7.27437">
        <ele>1056</ele>
        <time>2020-09-06T09:17:49.388Z</time>
      </trkpt>
      <trkpt lat="48.40791" lon="7.27435">
        <ele>1056</ele>
        <time>2020-09-06T09:17:50.388Z</time>
      </trkpt>
      <trkpt lat="48.40791" lon="7.27433">
        <ele>1056</ele>
        <time>2020-09-06T09:17:51.387Z</time>
      </trkpt>
      <trkpt lat="48.40791" lon="7.27432">
        <ele>1056</ele>
        <time>2020-09-06T09:17:52.388Z</time>
      </trkpt>
      <trkpt lat="48.40791" lon="7.2743">
        <ele>1056</ele>
        <time>2020-09-06T09:17:53.388Z</time>
      </trkpt>
      <trkpt lat="48.40791" lon="7.27429">
        <ele>1056</ele>
        <time>2020-09-06T09:17:54.388Z</time>
      </trkpt>
      <trkpt lat="48.40791" lon="7.27427">
        <ele>1055</ele>
        <time>2020-09-06T09:17:55.388Z</time>
      </trkpt>
      <trkpt lat="48.40791" lon="7.27426">
        <ele>1055</ele>
        <time>2020-09-06T09:17:56.387Z</time>
      </trkpt>
      <trkpt lat="48.40792" lon="7.27424">
        <ele>1055</ele>
        <time>2020-09-06T09:17:57.388Z</time>
      </trkpt>
      <trkpt lat="48.40792" lon="7.27423">
        <ele>1055</ele>
        <time>2020-09-06T09:17:58.387Z</time>
      </trkpt>
      <trkpt lat="48.40792" lon="7.27421">
        <ele>1055</ele>
        <time>2020-09-06T09:17:59.388Z</time>
      </trkpt>
      <trkpt lat="48.40793" lon="7.2742">
        <ele>1054</ele>
        <time>2020-09-06T09:18:00.388Z</time>
      </trkpt>
      <trkpt lat="48.40793" lon="7.27418">
        <ele>1054</ele>
        <time>2020-09-06T09:18:01.388Z</time>
      </trkpt>
      <trkpt lat="48.40794" lon="7.27417">
        <ele>1053</ele>
        <time>2020-09-06T09:18:02.388Z</time>
      </trkpt>
      <trkpt lat="48.40794" lon="7.27415">
        <ele>1053</ele>
        <time>2020-09-06T09:18:03.388Z</time>
      </trkpt>
      <trkpt lat="48.40794" lon="7.27414">
        <ele>1053</ele>
        <time>2020-09-06T09:18:04.388Z</time>
      </trkpt>
      <trkpt lat="48.40795" lon="7.27414">
        <ele>1053</ele>
        <time>2020-09-06T09:18:05.388Z</time>
      </trkpt>
      <trkpt lat="48.40795" lon="7.27414">
        <ele>1052</ele>
        <time>2020-09-06T09:18:06.387Z</time>
      </trkpt>
      <trkpt lat="48.40796" lon="7.27413">
        <ele>1052</ele>
        <time>2020-09-06T09:18:07.388Z</time>
      </trkpt>
      <trkpt lat="48.40797" lon="7.27412">
        <ele>1052</ele>
        <time>2020-09-06T09:18:08.388Z</time>
      </trkpt>
      <trkpt lat="48.40797" lon="7.27412">
        <ele>1053</ele>
        <time>2020-09-06T09:18:09.387Z</time>
      </trkpt>
      <trkpt lat="48.40797" lon="7.27411">
        <ele>1053</ele>
        <time>2020-09-06T09:18:10.388Z</time>
      </trkpt>
      <trkpt lat="48.40797" lon="7.27409">
        <ele>1052</ele>
        <time>2020-09-06T09:18:11.388Z</time>
      </trkpt>
      <trkpt lat="48.40797" lon="7.27408">
        <ele>1052</ele>
        <time>2020-09-06T09:18:12.388Z</time>
      </trkpt>
      <trkpt lat="48.40797" lon="7.27406">
        <ele>1052</ele>
        <time>2020-09-06T09:18:13.387Z</time>
      </trkpt>
      <trkpt lat="48.40797" lon="7.27404">
        <ele>1052</ele>
        <time>2020-09-06T09:18:14.388Z</time>
      </trkpt>
      <trkpt lat="48.40796" lon="7.27402">
        <ele>1053</ele>
        <time>2020-09-06T09:18:15.388Z</time>
      </trkpt>
      <trkpt lat="48.40797" lon="7.27402">
        <ele>1053</ele>
        <time>2020-09-06T09:18:16.388Z</time>
      </trkpt>
      <trkpt lat="48.40798" lon="7.27402">
        <ele>1053</ele>
        <time>2020-09-06T09:18:17.388Z</time>
      </trkpt>
      <trkpt lat="48.40798" lon="7.27402">
        <ele>1052</ele>
        <time>2020-09-06T09:18:18.388Z</time>
      </trkpt>
      <trkpt lat="48.40798" lon="7.27401">
        <ele>1052</ele>
        <time>2020-09-06T09:18:19.388Z</time>
      </trkpt>
      <trkpt lat="48.40798" lon="7.274">
        <ele>1051</ele>
        <time>2020-09-06T09:18:20.389Z</time>
      </trkpt>
      <trkpt lat="48.40798" lon="7.27399">
        <ele>1051</ele>
        <time>2020-09-06T09:18:21.389Z</time>
      </trkpt>
      <trkpt lat="48.40798" lon="7.27399">
        <ele>1051</ele>
        <time>2020-09-06T09:18:22.388Z</time>
      </trkpt>
      <trkpt lat="48.40798" lon="7.27397">
        <ele>1051</ele>
        <time>2020-09-06T09:18:23.388Z</time>
      </trkpt>
      <trkpt lat="48.40797" lon="7.27395">
        <ele>1051</ele>
        <time>2020-09-06T09:18:24.388Z</time>
      </trkpt>
      <trkpt lat="48.40795" lon="7.27392">
        <ele>1051</ele>
        <time>2020-09-06T09:18:25.389Z</time>
      </trkpt>
      <trkpt lat="48.40794" lon="7.2739">
        <ele>1051</ele>
        <time>2020-09-06T09:18:26.388Z</time>
      </trkpt>
      <trkpt lat="48.40794" lon="7.27388">
        <ele>1051</ele>
        <time>2020-09-06T09:18:27.389Z</time>
      </trkpt>
      <trkpt lat="48.40794" lon="7.27387">
        <ele>1051</ele>
        <time>2020-09-06T09:18:28.388Z</time>
      </trkpt>
      <trkpt lat="48.40794" lon="7.27385">
        <ele>1052</ele>
        <time>2020-09-06T09:18:29.388Z</time>
      </trkpt>
      <trkpt lat="48.40793" lon="7.27383">
        <ele>1052</ele>
        <time>2020-09-06T09:18:30.389Z</time>
      </trkpt>
      <trkpt lat="48.40793" lon="7.27381">
        <ele>1053</ele>
        <time>2020-09-06T09:18:31.389Z</time>
      </trkpt>
      <trkpt lat="48.40792" lon="7.27379">
        <ele>1053</ele>
        <time>2020-09-06T09:18:32.388Z</time>
      </trkpt>
      <trkpt lat="48.40791" lon="7.27377">
        <ele>1054</ele>
        <time>2020-09-06T09:18:33.388Z</time>
      </trkpt>
      <trkpt lat="48.40791" lon="7.27375">
        <ele>1054</ele>
        <time>2020-09-06T09:18:34.389Z</time>
      </trkpt>
      <trkpt lat="48.40791" lon="7.27373">
        <ele>1054</ele>
        <time>2020-09-06T09:18:35.388Z</time>
      </trkpt>
      <trkpt lat="48.40792" lon="7.27372">
        <ele>1054</ele>
        <time>2020-09-06T09:18:36.388Z</time>
      </trkpt>
      <trkpt lat="48.40792" lon="7.2737">
        <ele>1054</ele>
        <time>2020-09-06T09:18:37.388Z</time>
      </trkpt>
      <trkpt lat="48.40792" lon="7.27369">
        <ele>1055</ele>
        <time>2020-09-06T09:18:38.388Z</time>
      </trkpt>
      <trkpt lat="48.40792" lon="7.27367">
        <ele>1055</ele>
        <time>2020-09-06T09:18:39.389Z</time>
      </trkpt>
      <trkpt lat="48.40791" lon="7.27366">
        <ele>1056</ele>
        <time>2020-09-06T09:18:40.389Z</time>
      </trkpt>
      <trkpt lat="48.40792" lon="7.27364">
        <ele>1056</ele>
        <time>2020-09-06T09:18:41.388Z</time>
      </trkpt>
      <trkpt lat="48.40792" lon="7.27362">
        <ele>1056</ele>
        <time>2020-09-06T09:18:42.389Z</time>
      </trkpt>
      <trkpt lat="48.40792" lon="7.2736">
        <ele>1057</ele>
        <time>2020-09-06T09:18:43.388Z</time>
      </trkpt>
      <trkpt lat="48.40792" lon="7.27358">
        <ele>1057</ele>
        <time>2020-09-06T09:18:44.389Z</time>
      </trkpt>
      <trkpt lat="48.40792" lon="7.27357">
        <ele>1057</ele>
        <time>2020-09-06T09:18:45.389Z</time>
      </trkpt>
      <trkpt lat="48.40793" lon="7.27356">
        <ele>1057</ele>
        <time>2020-09-06T09:18:46.388Z</time>
      </trkpt>
      <trkpt lat="48.40793" lon="7.27354">
        <ele>1057</ele>
        <time>2020-09-06T09:18:47.388Z</time>
      </trkpt>
      <trkpt lat="48.40793" lon="7.27353">
        <ele>1056</ele>
        <time>2020-09-06T09:18:48.389Z</time>
      </trkpt>
      <trkpt lat="48.40793" lon="7.27351">
        <ele>1056</ele>
        <time>2020-09-06T09:18:49.389Z</time>
      </trkpt>
      <trkpt lat="48.40793" lon="7.2735">
        <ele>1056</ele>
        <time>2020-09-06T09:18:50.389Z</time>
      </trkpt>
      <trkpt lat="48.40793" lon="7.27348">
        <ele>1056</ele>
        <time>2020-09-06T09:18:51.389Z</time>
      </trkpt>
      <trkpt lat="48.40793" lon="7.27346">
        <ele>1056</ele>
        <time>2020-09-06T09:18:52.389Z</time>
      </trkpt>
      <trkpt lat="48.40793" lon="7.27345">
        <ele>1056</ele>
        <time>2020-09-06T09:18:53.389Z</time>
      </trkpt>
      <trkpt lat="48.40794" lon="7.27344">
        <ele>1057</ele>
        <time>2020-09-06T09:18:54.389Z</time>
      </trkpt>
      <trkpt lat="48.40795" lon="7.27343">
        <ele>1057</ele>
        <time>2020-09-06T09:18:55.389Z</time>
      </trkpt>
      <trkpt lat="48.40796" lon="7.27343">
        <ele>1057</ele>
        <time>2020-09-06T09:18:56.388Z</time>
      </trkpt>
      <trkpt lat="48.40797" lon="7.27342">
        <ele>1057</ele>
        <time>2020-09-06T09:18:57.389Z</time>
      </trkpt>
      <trkpt lat="48.40798" lon="7.27342">
        <ele>1056</ele>
        <time>2020-09-06T09:18:58.389Z</time>
      </trkpt>
      <trkpt lat="48.40799" lon="7.27341">
        <ele>1056</ele>
        <time>2020-09-06T09:18:59.388Z</time>
      </trkpt>
      <trkpt lat="48.408" lon="7.2734">
        <ele>1056</ele>
        <time>2020-09-06T09:19:00.388Z</time>
      </trkpt>
      <trkpt lat="48.40801" lon="7.27339">
        <ele>1056</ele>
        <time>2020-09-06T09:19:01.389Z</time>
      </trkpt>
      <trkpt lat="48.40802" lon="7.27337">
        <ele>1056</ele>
        <time>2020-09-06T09:19:02.388Z</time>
      </trkpt>
      <trkpt lat="48.40802" lon="7.27336">
        <ele>1057</ele>
        <time>2020-09-06T09:19:03.389Z</time>
      </trkpt>
      <trkpt lat="48.40803" lon="7.27336">
        <ele>1057</ele>
        <time>2020-09-06T09:19:04.389Z</time>
      </trkpt>
      <trkpt lat="48.40802" lon="7.27335">
        <ele>1057</ele>
        <time>2020-09-06T09:19:05.389Z</time>
      </trkpt>
      <trkpt lat="48.40802" lon="7.27333">
        <ele>1058</ele>
        <time>2020-09-06T09:19:06.389Z</time>
      </trkpt>
      <trkpt lat="48.40802" lon="7.27332">
        <ele>1058</ele>
        <time>2020-09-06T09:19:07.389Z</time>
      </trkpt>
      <trkpt lat="48.40802" lon="7.27331">
        <ele>1057</ele>
        <time>2020-09-06T09:19:08.389Z</time>
      </trkpt>
      <trkpt lat="48.40802" lon="7.27329">
        <ele>1057</ele>
        <time>2020-09-06T09:19:09.388Z</time>
      </trkpt>
      <trkpt lat="48.40802" lon="7.27327">
        <ele>1057</ele>
        <time>2020-09-06T09:19:10.389Z</time>
      </trkpt>
      <trkpt lat="48.40801" lon="7.27326">
        <ele>1057</ele>
        <time>2020-09-06T09:19:11.389Z</time>
      </trkpt>
      <trkpt lat="48.40801" lon="7.27324">
        <ele>1057</ele>
        <time>2020-09-06T09:19:12.389Z</time>
      </trkpt>
      <trkpt lat="48.40801" lon="7.27323">
        <ele>1056</ele>
        <time>2020-09-06T09:19:13.389Z</time>
      </trkpt>
      <trkpt lat="48.40801" lon="7.27322">
        <ele>1056</ele>
        <time>2020-09-06T09:19:14.389Z</time>
      </trkpt>
      <trkpt lat="48.40801" lon="7.2732">
        <ele>1057</ele>
        <time>2020-09-06T09:19:15.389Z</time>
      </trkpt>
      <trkpt lat="48.408" lon="7.27318">
        <ele>1057</ele>
        <time>2020-09-06T09:19:16.389Z</time>
      </trkpt>
      <trkpt lat="48.408" lon="7.27316">
        <ele>1058</ele>
        <time>2020-09-06T09:19:17.389Z</time>
      </trkpt>
      <trkpt lat="48.408" lon="7.27314">
        <ele>1058</ele>
        <time>2020-09-06T09:19:18.388Z</time>
      </trkpt>
      <trkpt lat="48.408" lon="7.27312">
        <ele>1058</ele>
        <time>2020-09-06T09:19:19.388Z</time>
      </trkpt>
      <trkpt lat="48.408" lon="7.27311">
        <ele>1058</ele>
        <time>2020-09-06T09:19:20.389Z</time>
      </trkpt>
      <trkpt lat="48.408" lon="7.27309">
        <ele>1058</ele>
        <time>2020-09-06T09:19:21.389Z</time>
      </trkpt>
      <trkpt lat="48.408" lon="7.27308">
        <ele>1057</ele>
        <time>2020-09-06T09:19:22.388Z</time>
      </trkpt>
      <trkpt lat="48.40801" lon="7.27306">
        <ele>1057</ele>
        <time>2020-09-06T09:19:23.389Z</time>
      </trkpt>
      <trkpt lat="48.40801" lon="7.27305">
        <ele>1056</ele>
        <time>2020-09-06T09:19:24.389Z</time>
      </trkpt>
      <trkpt lat="48.40802" lon="7.27304">
        <ele>1055</ele>
        <time>2020-09-06T09:19:25.388Z</time>
      </trkpt>
      <trkpt lat="48.40803" lon="7.27303">
        <ele>1054</ele>
        <time>2020-09-06T09:19:26.388Z</time>
      </trkpt>
      <trkpt lat="48.40803" lon="7.27302">
        <ele>1054</ele>
        <time>2020-09-06T09:19:27.388Z</time>
      </trkpt>
      <trkpt lat="48.40803" lon="7.27301">
        <ele>1054</ele>
        <time>2020-09-06T09:19:28.389Z</time>
      </trkpt>
      <trkpt lat="48.40802" lon="7.273">
        <ele>1054</ele>
        <time>2020-09-06T09:19:29.388Z</time>
      </trkpt>
      <trkpt lat="48.40802" lon="7.27299">
        <ele>1054</ele>
        <time>2020-09-06T09:19:30.389Z</time>
      </trkpt>
      <trkpt lat="48.40801" lon="7.27299">
        <ele>1055</ele>
        <time>2020-09-06T09:19:31.389Z</time>
      </trkpt>
      <trkpt lat="48.40801" lon="7.27299">
        <ele>1056</ele>
        <time>2020-09-06T09:19:32.388Z</time>
      </trkpt>
      <trkpt lat="48.40801" lon="7.27299">
        <ele>1056</ele>
        <time>2020-09-06T09:19:33.388Z</time>
      </trkpt>
      <trkpt lat="48.40802" lon="7.27298">
        <ele>1056</ele>
        <time>2020-09-06T09:19:34.389Z</time>
      </trkpt>
      <trkpt lat="48.40801" lon="7.27298">
        <ele>1056</ele>
        <time>2020-09-06T09:19:35.388Z</time>
      </trkpt>
      <trkpt lat="48.40801" lon="7.273">
        <ele>1057</ele>
        <time>2020-09-06T09:19:36.389Z</time>
      </trkpt>
      <trkpt lat="48.40801" lon="7.273">
        <ele>1057</ele>
        <time>2020-09-06T09:19:37.390Z</time>
      </trkpt>
      <trkpt lat="48.40801" lon="7.27299">
        <ele>1057</ele>
        <time>2020-09-06T09:19:38.389Z</time>
      </trkpt>
      <trkpt lat="48.40801" lon="7.27299">
        <ele>1057</ele>
        <time>2020-09-06T09:19:39.390Z</time>
      </trkpt>
      <trkpt lat="48.40802" lon="7.27298">
        <ele>1056</ele>
        <time>2020-09-06T09:19:40.390Z</time>
      </trkpt>
      <trkpt lat="48.40802" lon="7.27298">
        <ele>1056</ele>
        <time>2020-09-06T09:19:41.390Z</time>
      </trkpt>
      <trkpt lat="48.408" lon="7.27287">
        <ele>1055</ele>
        <time>2020-09-06T09:19:42.390Z</time>
      </trkpt>
      <trkpt lat="48.40799" lon="7.27285">
        <ele>1055</ele>
        <time>2020-09-06T09:19:43.390Z</time>
      </trkpt>
      <trkpt lat="48.40799" lon="7.27283">
        <ele>1055</ele>
        <time>2020-09-06T09:19:44.390Z</time>
      </trkpt>
      <trkpt lat="48.40799" lon="7.27281">
        <ele>1056</ele>
        <time>2020-09-06T09:19:45.390Z</time>
      </trkpt>
      <trkpt lat="48.40799" lon="7.27278">
        <ele>1055</ele>
        <time>2020-09-06T09:19:46.390Z</time>
      </trkpt>
      <trkpt lat="48.40799" lon="7.27276">
        <ele>1055</ele>
        <time>2020-09-06T09:19:47.390Z</time>
      </trkpt>
      <trkpt lat="48.40799" lon="7.27274">
        <ele>1055</ele>
        <time>2020-09-06T09:19:48.390Z</time>
      </trkpt>
      <trkpt lat="48.40799" lon="7.27272">
        <ele>1055</ele>
        <time>2020-09-06T09:19:49.391Z</time>
      </trkpt>
      <trkpt lat="48.40799" lon="7.2727">
        <ele>1055</ele>
        <time>2020-09-06T09:19:50.390Z</time>
      </trkpt>
      <trkpt lat="48.40799" lon="7.27269">
        <ele>1055</ele>
        <time>2020-09-06T09:19:51.390Z</time>
      </trkpt>
      <trkpt lat="48.40799" lon="7.27267">
        <ele>1055</ele>
        <time>2020-09-06T09:19:52.390Z</time>
      </trkpt>
      <trkpt lat="48.40799" lon="7.27266">
        <ele>1055</ele>
        <time>2020-09-06T09:19:53.391Z</time>
      </trkpt>
      <trkpt lat="48.40798" lon="7.27264">
        <ele>1055</ele>
        <time>2020-09-06T09:19:54.390Z</time>
      </trkpt>
      <trkpt lat="48.40798" lon="7.27262">
        <ele>1055</ele>
        <time>2020-09-06T09:19:55.390Z</time>
      </trkpt>
      <trkpt lat="48.40799" lon="7.27261">
        <ele>1055</ele>
        <time>2020-09-06T09:19:56.390Z</time>
      </trkpt>
      <trkpt lat="48.40799" lon="7.27259">
        <ele>1055</ele>
        <time>2020-09-06T09:19:57.390Z</time>
      </trkpt>
      <trkpt lat="48.40799" lon="7.27257">
        <ele>1055</ele>
        <time>2020-09-06T09:19:58.390Z</time>
      </trkpt>
      <trkpt lat="48.40799" lon="7.27255">
        <ele>1055</ele>
        <time>2020-09-06T09:19:59.390Z</time>
      </trkpt>
      <trkpt lat="48.408" lon="7.27254">
        <ele>1056</ele>
        <time>2020-09-06T09:20:00.391Z</time>
      </trkpt>
      <trkpt lat="48.408" lon="7.27252">
        <ele>1056</ele>
        <time>2020-09-06T09:20:01.390Z</time>
      </trkpt>
      <trkpt lat="48.408" lon="7.2725">
        <ele>1057</ele>
        <time>2020-09-06T09:20:02.390Z</time>
      </trkpt>
      <trkpt lat="48.40801" lon="7.27248">
        <ele>1057</ele>
        <time>2020-09-06T09:20:03.391Z</time>
      </trkpt>
      <trkpt lat="48.40801" lon="7.27247">
        <ele>1057</ele>
        <time>2020-09-06T09:20:04.390Z</time>
      </trkpt>
      <trkpt lat="48.40802" lon="7.27245">
        <ele>1056</ele>
        <time>2020-09-06T09:20:05.390Z</time>
      </trkpt>
      <trkpt lat="48.40803" lon="7.27244">
        <ele>1056</ele>
        <time>2020-09-06T09:20:06.391Z</time>
      </trkpt>
      <trkpt lat="48.40803" lon="7.27243">
        <ele>1055</ele>
        <time>2020-09-06T09:20:07.390Z</time>
      </trkpt>
      <trkpt lat="48.40804" lon="7.27241">
        <ele>1055</ele>
        <time>2020-09-06T09:20:08.391Z</time>
      </trkpt>
      <trkpt lat="48.40804" lon="7.2724">
        <ele>1055</ele>
        <time>2020-09-06T09:20:09.390Z</time>
      </trkpt>
      <trkpt lat="48.40804" lon="7.27239">
        <ele>1054</ele>
        <time>2020-09-06T09:20:10.390Z</time>
      </trkpt>
      <trkpt lat="48.40805" lon="7.27238">
        <ele>1054</ele>
        <time>2020-09-06T09:20:11.390Z</time>
      </trkpt>
      <trkpt lat="48.40805" lon="7.27236">
        <ele>1054</ele>
        <time>2020-09-06T09:20:12.390Z</time>
      </trkpt>
      <trkpt lat="48.40805" lon="7.27235">
        <ele>1053</ele>
        <time>2020-09-06T09:20:13.390Z</time>
      </trkpt>
      <trkpt lat="48.40805" lon="7.27235">
        <ele>1053</ele>
        <time>2020-09-06T09:20:14.391Z</time>
      </trkpt>
      <trkpt lat="48.40805" lon="7.27233">
        <ele>1053</ele>
        <time>2020-09-06T09:20:15.391Z</time>
      </trkpt>
      <trkpt lat="48.40805" lon="7.27232">
        <ele>1053</ele>
        <time>2020-09-06T09:20:16.390Z</time>
      </trkpt>
      <trkpt lat="48.40804" lon="7.27231">
        <ele>1052</ele>
        <time>2020-09-06T09:20:17.390Z</time>
      </trkpt>
      <trkpt lat="48.40804" lon="7.27229">
        <ele>1052</ele>
        <time>2020-09-06T09:20:18.390Z</time>
      </trkpt>
      <trkpt lat="48.40804" lon="7.27228">
        <ele>1053</ele>
        <time>2020-09-06T09:20:19.390Z</time>
      </trkpt>
      <trkpt lat="48.40803" lon="7.27226">
        <ele>1053</ele>
        <time>2020-09-06T09:20:20.390Z</time>
      </trkpt>
      <trkpt lat="48.40803" lon="7.27225">
        <ele>1053</ele>
        <time>2020-09-06T09:20:21.390Z</time>
      </trkpt>
      <trkpt lat="48.40802" lon="7.27223">
        <ele>1053</ele>
        <time>2020-09-06T09:20:22.391Z</time>
      </trkpt>
      <trkpt lat="48.40802" lon="7.27222">
        <ele>1053</ele>
        <time>2020-09-06T09:20:23.391Z</time>
      </trkpt>
      <trkpt lat="48.40802" lon="7.2722">
        <ele>1053</ele>
        <time>2020-09-06T09:20:24.390Z</time>
      </trkpt>
      <trkpt lat="48.40802" lon="7.27218">
        <ele>1052</ele>
        <time>2020-09-06T09:20:25.390Z</time>
      </trkpt>
      <trkpt lat="48.40802" lon="7.27217">
        <ele>1052</ele>
        <time>2020-09-06T09:20:26.391Z</time>
      </trkpt>
      <trkpt lat="48.40802" lon="7.27215">
        <ele>1052</ele>
        <time>2020-09-06T09:20:27.390Z</time>
      </trkpt>
      <trkpt lat="48.40802" lon="7.27214">
        <ele>1051</ele>
        <time>2020-09-06T09:20:28.390Z</time>
      </trkpt>
      <trkpt lat="48.40801" lon="7.27211">
        <ele>1051</ele>
        <time>2020-09-06T09:20:29.391Z</time>
      </trkpt>
      <trkpt lat="48.40801" lon="7.2721">
        <ele>1051</ele>
        <time>2020-09-06T09:20:30.390Z</time>
      </trkpt>
      <trkpt lat="48.40801" lon="7.27208">
        <ele>1051</ele>
        <time>2020-09-06T09:20:31.390Z</time>
      </trkpt>
      <trkpt lat="48.40801" lon="7.27206">
        <ele>1051</ele>
        <time>2020-09-06T09:20:32.390Z</time>
      </trkpt>
      <trkpt lat="48.408" lon="7.27204">
        <ele>1051</ele>
        <time>2020-09-06T09:20:33.390Z</time>
      </trkpt>
      <trkpt lat="48.408" lon="7.27202">
        <ele>1052</ele>
        <time>2020-09-06T09:20:34.390Z</time>
      </trkpt>
      <trkpt lat="48.408" lon="7.272">
        <ele>1052</ele>
        <time>2020-09-06T09:20:35.390Z</time>
      </trkpt>
      <trkpt lat="48.40799" lon="7.27198">
        <ele>1052</ele>
        <time>2020-09-06T09:20:36.391Z</time>
      </trkpt>
      <trkpt lat="48.40798" lon="7.27197">
        <ele>1052</ele>
        <time>2020-09-06T09:20:37.390Z</time>
      </trkpt>
      <trkpt lat="48.40797" lon="7.27195">
        <ele>1053</ele>
        <time>2020-09-06T09:20:38.391Z</time>
      </trkpt>
      <trkpt lat="48.40796" lon="7.27193">
        <ele>1053</ele>
        <time>2020-09-06T09:20:39.390Z</time>
      </trkpt>
      <trkpt lat="48.40795" lon="7.27192">
        <ele>1053</ele>
        <time>2020-09-06T09:20:40.390Z</time>
      </trkpt>
      <trkpt lat="48.40795" lon="7.2719">
        <ele>1054</ele>
        <time>2020-09-06T09:20:41.390Z</time>
      </trkpt>
      <trkpt lat="48.40794" lon="7.27188">
        <ele>1054</ele>
        <time>2020-09-06T09:20:42.390Z</time>
      </trkpt>
      <trkpt lat="48.40793" lon="7.27186">
        <ele>1054</ele>
        <time>2020-09-06T09:20:43.390Z</time>
      </trkpt>
      <trkpt lat="48.40793" lon="7.27185">
        <ele>1054</ele>
        <time>2020-09-06T09:20:44.390Z</time>
      </trkpt>
      <trkpt lat="48.40792" lon="7.27183">
        <ele>1054</ele>
        <time>2020-09-06T09:20:45.391Z</time>
      </trkpt>
      <trkpt lat="48.40792" lon="7.27181">
        <ele>1054</ele>
        <time>2020-09-06T09:20:46.390Z</time>
      </trkpt>
      <trkpt lat="48.40791" lon="7.2718">
        <ele>1054</ele>
        <time>2020-09-06T09:20:47.390Z</time>
      </trkpt>
      <trkpt lat="48.4079" lon="7.27178">
        <ele>1054</ele>
        <time>2020-09-06T09:20:48.391Z</time>
      </trkpt>
      <trkpt lat="48.4079" lon="7.27176">
        <ele>1054</ele>
        <time>2020-09-06T09:20:49.390Z</time>
      </trkpt>
      <trkpt lat="48.40789" lon="7.27175">
        <ele>1054</ele>
        <time>2020-09-06T09:20:50.391Z</time>
      </trkpt>
      <trkpt lat="48.40789" lon="7.27173">
        <ele>1054</ele>
        <time>2020-09-06T09:20:51.390Z</time>
      </trkpt>
      <trkpt lat="48.40788" lon="7.27171">
        <ele>1054</ele>
        <time>2020-09-06T09:20:52.391Z</time>
      </trkpt>
      <trkpt lat="48.40787" lon="7.27169">
        <ele>1054</ele>
        <time>2020-09-06T09:20:53.390Z</time>
      </trkpt>
      <trkpt lat="48.40787" lon="7.27168">
        <ele>1054</ele>
        <time>2020-09-06T09:20:54.391Z</time>
      </trkpt>
      <trkpt lat="48.40787" lon="7.27165">
        <ele>1054</ele>
        <time>2020-09-06T09:20:55.391Z</time>
      </trkpt>
      <trkpt lat="48.40787" lon="7.27163">
        <ele>1054</ele>
        <time>2020-09-06T09:20:56.390Z</time>
      </trkpt>
      <trkpt lat="48.40787" lon="7.27162">
        <ele>1054</ele>
        <time>2020-09-06T09:20:57.390Z</time>
      </trkpt>
      <trkpt lat="48.40787" lon="7.27161">
        <ele>1054</ele>
        <time>2020-09-06T09:20:58.390Z</time>
      </trkpt>
      <trkpt lat="48.40787" lon="7.27159">
        <ele>1054</ele>
        <time>2020-09-06T09:20:59.390Z</time>
      </trkpt>
      <trkpt lat="48.40787" lon="7.27158">
        <ele>1053</ele>
        <time>2020-09-06T09:21:00.391Z</time>
      </trkpt>
      <trkpt lat="48.40787" lon="7.27156">
        <ele>1053</ele>
        <time>2020-09-06T09:21:01.390Z</time>
      </trkpt>
      <trkpt lat="48.40787" lon="7.27155">
        <ele>1053</ele>
        <time>2020-09-06T09:21:02.390Z</time>
      </trkpt>
      <trkpt lat="48.40787" lon="7.27153">
        <ele>1053</ele>
        <time>2020-09-06T09:21:03.390Z</time>
      </trkpt>
      <trkpt lat="48.40786" lon="7.27151">
        <ele>1053</ele>
        <time>2020-09-06T09:21:04.390Z</time>
      </trkpt>
      <trkpt lat="48.40786" lon="7.27149">
        <ele>1053</ele>
        <time>2020-09-06T09:21:05.391Z</time>
      </trkpt>
      <trkpt lat="48.40785" lon="7.27148">
        <ele>1053</ele>
        <time>2020-09-06T09:21:06.390Z</time>
      </trkpt>
      <trkpt lat="48.40785" lon="7.27145">
        <ele>1053</ele>
        <time>2020-09-06T09:21:07.390Z</time>
      </trkpt>
      <trkpt lat="48.40785" lon="7.27143">
        <ele>1053</ele>
        <time>2020-09-06T09:21:08.390Z</time>
      </trkpt>
      <trkpt lat="48.40784" lon="7.27142">
        <ele>1053</ele>
        <time>2020-09-06T09:21:09.390Z</time>
      </trkpt>
      <trkpt lat="48.40784" lon="7.2714">
        <ele>1054</ele>
        <time>2020-09-06T09:21:10.390Z</time>
      </trkpt>
      <trkpt lat="48.40784" lon="7.27138">
        <ele>1054</ele>
        <time>2020-09-06T09:21:11.390Z</time>
      </trkpt>
      <trkpt lat="48.40784" lon="7.27136">
        <ele>1054</ele>
        <time>2020-09-06T09:21:12.390Z</time>
      </trkpt>
      <trkpt lat="48.40784" lon="7.27135">
        <ele>1054</ele>
        <time>2020-09-06T09:21:13.390Z</time>
      </trkpt>
      <trkpt lat="48.40784" lon="7.27133">
        <ele>1054</ele>
        <time>2020-09-06T09:21:14.390Z</time>
      </trkpt>
      <trkpt lat="48.40784" lon="7.27132">
        <ele>1053</ele>
        <time>2020-09-06T09:21:15.390Z</time>
      </trkpt>
      <trkpt lat="48.40784" lon="7.27131">
        <ele>1053</ele>
        <time>2020-09-06T09:21:16.390Z</time>
      </trkpt>
      <trkpt lat="48.40784" lon="7.27129">
        <ele>1053</ele>
        <time>2020-09-06T09:21:17.390Z</time>
      </trkpt>
      <trkpt lat="48.40783" lon="7.27128">
        <ele>1053</ele>
        <time>2020-09-06T09:21:18.390Z</time>
      </trkpt>
      <trkpt lat="48.40783" lon="7.27127">
        <ele>1054</ele>
        <time>2020-09-06T09:21:19.390Z</time>
      </trkpt>
      <trkpt lat="48.40783" lon="7.27125">
        <ele>1054</ele>
        <time>2020-09-06T09:21:20.391Z</time>
      </trkpt>
      <trkpt lat="48.40782" lon="7.27123">
        <ele>1054</ele>
        <time>2020-09-06T09:21:21.390Z</time>
      </trkpt>
      <trkpt lat="48.40782" lon="7.27121">
        <ele>1054</ele>
        <time>2020-09-06T09:21:22.390Z</time>
      </trkpt>
      <trkpt lat="48.40781" lon="7.2712">
        <ele>1054</ele>
        <time>2020-09-06T09:21:23.390Z</time>
      </trkpt>
      <trkpt lat="48.40781" lon="7.27118">
        <ele>1053</ele>
        <time>2020-09-06T09:21:24.390Z</time>
      </trkpt>
      <trkpt lat="48.40781" lon="7.27116">
        <ele>1053</ele>
        <time>2020-09-06T09:21:25.390Z</time>
      </trkpt>
      <trkpt lat="48.40781" lon="7.27115">
        <ele>1053</ele>
        <time>2020-09-06T09:21:26.390Z</time>
      </trkpt>
      <trkpt lat="48.4078" lon="7.27113">
        <ele>1053</ele>
        <time>2020-09-06T09:21:27.391Z</time>
      </trkpt>
      <trkpt lat="48.4078" lon="7.27111">
        <ele>1053</ele>
        <time>2020-09-06T09:21:28.390Z</time>
      </trkpt>
      <trkpt lat="48.4078" lon="7.2711">
        <ele>1052</ele>
        <time>2020-09-06T09:21:29.390Z</time>
      </trkpt>
      <trkpt lat="48.4078" lon="7.27108">
        <ele>1052</ele>
        <time>2020-09-06T09:21:30.390Z</time>
      </trkpt>
      <trkpt lat="48.40779" lon="7.27106">
        <ele>1053</ele>
        <time>2020-09-06T09:21:31.391Z</time>
      </trkpt>
      <trkpt lat="48.40779" lon="7.27104">
        <ele>1053</ele>
        <time>2020-09-06T09:21:32.390Z</time>
      </trkpt>
      <trkpt lat="48.40778" lon="7.27103">
        <ele>1053</ele>
        <time>2020-09-06T09:21:33.390Z</time>
      </trkpt>
      <trkpt lat="48.40778" lon="7.27101">
        <ele>1053</ele>
        <time>2020-09-06T09:21:34.391Z</time>
      </trkpt>
      <trkpt lat="48.40778" lon="7.27099">
        <ele>1053</ele>
        <time>2020-09-06T09:21:35.391Z</time>
      </trkpt>
      <trkpt lat="48.40778" lon="7.27097">
        <ele>1053</ele>
        <time>2020-09-06T09:21:36.390Z</time>
      </trkpt>
      <trkpt lat="48.40778" lon="7.27095">
        <ele>1053</ele>
        <time>2020-09-06T09:21:37.391Z</time>
      </trkpt>
      <trkpt lat="48.40777" lon="7.27094">
        <ele>1053</ele>
        <time>2020-09-06T09:21:38.391Z</time>
      </trkpt>
      <trkpt lat="48.40777" lon="7.27092">
        <ele>1053</ele>
        <time>2020-09-06T09:21:39.390Z</time>
      </trkpt>
      <trkpt lat="48.40777" lon="7.2709">
        <ele>1053</ele>
        <time>2020-09-06T09:21:40.390Z</time>
      </trkpt>
      <trkpt lat="48.40777" lon="7.27088">
        <ele>1054</ele>
        <time>2020-09-06T09:21:41.391Z</time>
      </trkpt>
      <trkpt lat="48.40776" lon="7.27086">
        <ele>1054</ele>
        <time>2020-09-06T09:21:42.390Z</time>
      </trkpt>
      <trkpt lat="48.40776" lon="7.27084">
        <ele>1054</ele>
        <time>2020-09-06T09:21:43.391Z</time>
      </trkpt>
      <trkpt lat="48.40775" lon="7.27082">
        <ele>1054</ele>
        <time>2020-09-06T09:21:44.390Z</time>
      </trkpt>
      <trkpt lat="48.40775" lon="7.2708">
        <ele>1054</ele>
        <time>2020-09-06T09:21:45.390Z</time>
      </trkpt>
      <trkpt lat="48.40774" lon="7.27078">
        <ele>1054</ele>
        <time>2020-09-06T09:21:46.390Z</time>
      </trkpt>
      <trkpt lat="48.40774" lon="7.27077">
        <ele>1054</ele>
        <time>2020-09-06T09:21:47.391Z</time>
      </trkpt>
      <trkpt lat="48.40774" lon="7.27075">
        <ele>1054</ele>
        <time>2020-09-06T09:21:48.390Z</time>
      </trkpt>
      <trkpt lat="48.40773" lon="7.27073">
        <ele>1053</ele>
        <time>2020-09-06T09:21:49.390Z</time>
      </trkpt>
      <trkpt lat="48.40773" lon="7.27071">
        <ele>1053</ele>
        <time>2020-09-06T09:21:50.390Z</time>
      </trkpt>
      <trkpt lat="48.40773" lon="7.27069">
        <ele>1053</ele>
        <time>2020-09-06T09:21:51.390Z</time>
      </trkpt>
      <trkpt lat="48.40772" lon="7.27068">
        <ele>1053</ele>
        <time>2020-09-06T09:21:52.391Z</time>
      </trkpt>
      <trkpt lat="48.40772" lon="7.27066">
        <ele>1052</ele>
        <time>2020-09-06T09:21:53.390Z</time>
      </trkpt>
      <trkpt lat="48.40771" lon="7.27064">
        <ele>1053</ele>
        <time>2020-09-06T09:21:54.390Z</time>
      </trkpt>
      <trkpt lat="48.40771" lon="7.27063">
        <ele>1052</ele>
        <time>2020-09-06T09:21:55.390Z</time>
      </trkpt>
      <trkpt lat="48.4077" lon="7.27061">
        <ele>1052</ele>
        <time>2020-09-06T09:21:56.390Z</time>
      </trkpt>
      <trkpt lat="48.4077" lon="7.2706">
        <ele>1052</ele>
        <time>2020-09-06T09:21:57.391Z</time>
      </trkpt>
      <trkpt lat="48.40769" lon="7.27058">
        <ele>1052</ele>
        <time>2020-09-06T09:21:58.390Z</time>
      </trkpt>
      <trkpt lat="48.40769" lon="7.27056">
        <ele>1052</ele>
        <time>2020-09-06T09:21:59.390Z</time>
      </trkpt>
      <trkpt lat="48.40768" lon="7.27054">
        <ele>1051</ele>
        <time>2020-09-06T09:22:00.391Z</time>
      </trkpt>
      <trkpt lat="48.40768" lon="7.27052">
        <ele>1051</ele>
        <time>2020-09-06T09:22:01.391Z</time>
      </trkpt>
      <trkpt lat="48.40768" lon="7.2705">
        <ele>1051</ele>
        <time>2020-09-06T09:22:02.390Z</time>
      </trkpt>
      <trkpt lat="48.40768" lon="7.27048">
        <ele>1050</ele>
        <time>2020-09-06T09:22:03.390Z</time>
      </trkpt>
      <trkpt lat="48.40768" lon="7.27047">
        <ele>1050</ele>
        <time>2020-09-06T09:22:04.390Z</time>
      </trkpt>
      <trkpt lat="48.40768" lon="7.27045">
        <ele>1050</ele>
        <time>2020-09-06T09:22:05.390Z</time>
      </trkpt>
      <trkpt lat="48.40768" lon="7.27043">
        <ele>1050</ele>
        <time>2020-09-06T09:22:06.390Z</time>
      </trkpt>
      <trkpt lat="48.40768" lon="7.27041">
        <ele>1050</ele>
        <time>2020-09-06T09:22:07.390Z</time>
      </trkpt>
      <trkpt lat="48.40768" lon="7.27039">
        <ele>1050</ele>
        <time>2020-09-06T09:22:08.390Z</time>
      </trkpt>
      <trkpt lat="48.40768" lon="7.27038">
        <ele>1050</ele>
        <time>2020-09-06T09:22:09.390Z</time>
      </trkpt>
      <trkpt lat="48.40768" lon="7.27036">
        <ele>1050</ele>
        <time>2020-09-06T09:22:10.390Z</time>
      </trkpt>
      <trkpt lat="48.40768" lon="7.27034">
        <ele>1050</ele>
        <time>2020-09-06T09:22:11.390Z</time>
      </trkpt>
      <trkpt lat="48.40768" lon="7.27032">
        <ele>1050</ele>
        <time>2020-09-06T09:22:12.390Z</time>
      </trkpt>
      <trkpt lat="48.40768" lon="7.2703">
        <ele>1050</ele>
        <time>2020-09-06T09:22:13.391Z</time>
      </trkpt>
      <trkpt lat="48.40768" lon="7.27028">
        <ele>1050</ele>
        <time>2020-09-06T09:22:14.390Z</time>
      </trkpt>
      <trkpt lat="48.40768" lon="7.27026">
        <ele>1051</ele>
        <time>2020-09-06T09:22:15.390Z</time>
      </trkpt>
      <trkpt lat="48.40768" lon="7.27024">
        <ele>1051</ele>
        <time>2020-09-06T09:22:16.390Z</time>
      </trkpt>
      <trkpt lat="48.40768" lon="7.27023">
        <ele>1050</ele>
        <time>2020-09-06T09:22:17.391Z</time>
      </trkpt>
      <trkpt lat="48.40768" lon="7.27021">
        <ele>1050</ele>
        <time>2020-09-06T09:22:18.390Z</time>
      </trkpt>
      <trkpt lat="48.40768" lon="7.27019">
        <ele>1050</ele>
        <time>2020-09-06T09:22:19.391Z</time>
      </trkpt>
      <trkpt lat="48.40767" lon="7.27017">
        <ele>1050</ele>
        <time>2020-09-06T09:22:20.391Z</time>
      </trkpt>
      <trkpt lat="48.40767" lon="7.27015">
        <ele>1050</ele>
        <time>2020-09-06T09:22:21.390Z</time>
      </trkpt>
      <trkpt lat="48.40767" lon="7.27013">
        <ele>1050</ele>
        <time>2020-09-06T09:22:22.390Z</time>
      </trkpt>
      <trkpt lat="48.40767" lon="7.27011">
        <ele>1050</ele>
        <time>2020-09-06T09:22:23.390Z</time>
      </trkpt>
      <trkpt lat="48.40767" lon="7.2701">
        <ele>1050</ele>
        <time>2020-09-06T09:22:24.390Z</time>
      </trkpt>
      <trkpt lat="48.40767" lon="7.27008">
        <ele>1050</ele>
        <time>2020-09-06T09:22:25.390Z</time>
      </trkpt>
      <trkpt lat="48.40767" lon="7.27006">
        <ele>1049</ele>
        <time>2020-09-06T09:22:26.390Z</time>
      </trkpt>
      <trkpt lat="48.40767" lon="7.27004">
        <ele>1049</ele>
        <time>2020-09-06T09:22:27.390Z</time>
      </trkpt>
      <trkpt lat="48.40767" lon="7.27002">
        <ele>1049</ele>
        <time>2020-09-06T09:22:28.390Z</time>
      </trkpt>
      <trkpt lat="48.40767" lon="7.27">
        <ele>1049</ele>
        <time>2020-09-06T09:22:29.390Z</time>
      </trkpt>
      <trkpt lat="48.40767" lon="7.26998">
        <ele>1049</ele>
        <time>2020-09-06T09:22:30.391Z</time>
      </trkpt>
      <trkpt lat="48.40767" lon="7.26996">
        <ele>1048</ele>
        <time>2020-09-06T09:22:31.390Z</time>
      </trkpt>
      <trkpt lat="48.40766" lon="7.26994">
        <ele>1048</ele>
        <time>2020-09-06T09:22:32.390Z</time>
      </trkpt>
      <trkpt lat="48.40766" lon="7.26992">
        <ele>1048</ele>
        <time>2020-09-06T09:22:33.390Z</time>
      </trkpt>
      <trkpt lat="48.40766" lon="7.2699">
        <ele>1048</ele>
        <time>2020-09-06T09:22:34.391Z</time>
      </trkpt>
      <trkpt lat="48.40766" lon="7.26988">
        <ele>1048</ele>
        <time>2020-09-06T09:22:35.390Z</time>
      </trkpt>
      <trkpt lat="48.40765" lon="7.26986">
        <ele>1048</ele>
        <time>2020-09-06T09:22:36.391Z</time>
      </trkpt>
      <trkpt lat="48.40765" lon="7.26984">
        <ele>1048</ele>
        <time>2020-09-06T09:22:37.391Z</time>
      </trkpt>
      <trkpt lat="48.40765" lon="7.26982">
        <ele>1048</ele>
        <time>2020-09-06T09:22:38.390Z</time>
      </trkpt>
      <trkpt lat="48.40765" lon="7.2698">
        <ele>1048</ele>
        <time>2020-09-06T09:22:39.391Z</time>
      </trkpt>
      <trkpt lat="48.40764" lon="7.26978">
        <ele>1048</ele>
        <time>2020-09-06T09:22:40.390Z</time>
      </trkpt>
      <trkpt lat="48.40764" lon="7.26976">
        <ele>1048</ele>
        <time>2020-09-06T09:22:41.390Z</time>
      </trkpt>
      <trkpt lat="48.40764" lon="7.26975">
        <ele>1048</ele>
        <time>2020-09-06T09:22:42.390Z</time>
      </trkpt>
      <trkpt lat="48.40764" lon="7.26973">
        <ele>1048</ele>
        <time>2020-09-06T09:22:43.390Z</time>
      </trkpt>
      <trkpt lat="48.40764" lon="7.26971">
        <ele>1048</ele>
        <time>2020-09-06T09:22:44.390Z</time>
      </trkpt>
      <trkpt lat="48.40763" lon="7.26969">
        <ele>1048</ele>
        <time>2020-09-06T09:22:45.391Z</time>
      </trkpt>
      <trkpt lat="48.40763" lon="7.26967">
        <ele>1047</ele>
        <time>2020-09-06T09:22:46.390Z</time>
      </trkpt>
      <trkpt lat="48.40763" lon="7.26965">
        <ele>1047</ele>
        <time>2020-09-06T09:22:47.390Z</time>
      </trkpt>
      <trkpt lat="48.40763" lon="7.26963">
        <ele>1047</ele>
        <time>2020-09-06T09:22:48.390Z</time>
      </trkpt>
      <trkpt lat="48.40763" lon="7.26961">
        <ele>1047</ele>
        <time>2020-09-06T09:22:49.390Z</time>
      </trkpt>
      <trkpt lat="48.40763" lon="7.26959">
        <ele>1047</ele>
        <time>2020-09-06T09:22:50.391Z</time>
      </trkpt>
      <trkpt lat="48.40763" lon="7.26957">
        <ele>1048</ele>
        <time>2020-09-06T09:22:51.391Z</time>
      </trkpt>
      <trkpt lat="48.40762" lon="7.26955">
        <ele>1048</ele>
        <time>2020-09-06T09:22:52.391Z</time>
      </trkpt>
      <trkpt lat="48.40762" lon="7.26953">
        <ele>1048</ele>
        <time>2020-09-06T09:22:53.391Z</time>
      </trkpt>
      <trkpt lat="48.40762" lon="7.26952">
        <ele>1048</ele>
        <time>2020-09-06T09:22:54.391Z</time>
      </trkpt>
      <trkpt lat="48.40763" lon="7.26951">
        <ele>1048</ele>
        <time>2020-09-06T09:22:55.391Z</time>
      </trkpt>
      <trkpt lat="48.40763" lon="7.2695">
        <ele>1048</ele>
        <time>2020-09-06T09:22:56.390Z</time>
      </trkpt>
      <trkpt lat="48.40763" lon="7.2695">
        <ele>1048</ele>
        <time>2020-09-06T09:22:57.390Z</time>
      </trkpt>
      <trkpt lat="48.40762" lon="7.26949">
        <ele>1048</ele>
        <time>2020-09-06T09:22:58.391Z</time>
      </trkpt>
      <trkpt lat="48.40762" lon="7.26949">
        <ele>1048</ele>
        <time>2020-09-06T09:22:59.390Z</time>
      </trkpt>
      <trkpt lat="48.40761" lon="7.26948">
        <ele>1048</ele>
        <time>2020-09-06T09:23:00.390Z</time>
      </trkpt>
      <trkpt lat="48.40761" lon="7.26946">
        <ele>1048</ele>
        <time>2020-09-06T09:23:01.390Z</time>
      </trkpt>
      <trkpt lat="48.40761" lon="7.26944">
        <ele>1048</ele>
        <time>2020-09-06T09:23:02.390Z</time>
      </trkpt>
      <trkpt lat="48.40761" lon="7.26943">
        <ele>1048</ele>
        <time>2020-09-06T09:23:03.390Z</time>
      </trkpt>
      <trkpt lat="48.4076" lon="7.26941">
        <ele>1048</ele>
        <time>2020-09-06T09:23:04.391Z</time>
      </trkpt>
      <trkpt lat="48.4076" lon="7.2694">
        <ele>1048</ele>
        <time>2020-09-06T09:23:05.391Z</time>
      </trkpt>
      <trkpt lat="48.4076" lon="7.26938">
        <ele>1048</ele>
        <time>2020-09-06T09:23:06.391Z</time>
      </trkpt>
      <trkpt lat="48.40759" lon="7.26936">
        <ele>1048</ele>
        <time>2020-09-06T09:23:07.390Z</time>
      </trkpt>
      <trkpt lat="48.40759" lon="7.26934">
        <ele>1048</ele>
        <time>2020-09-06T09:23:08.390Z</time>
      </trkpt>
      <trkpt lat="48.40759" lon="7.26932">
        <ele>1048</ele>
        <time>2020-09-06T09:23:09.391Z</time>
      </trkpt>
      <trkpt lat="48.40759" lon="7.2693">
        <ele>1048</ele>
        <time>2020-09-06T09:23:10.391Z</time>
      </trkpt>
      <trkpt lat="48.40759" lon="7.26928">
        <ele>1048</ele>
        <time>2020-09-06T09:23:11.390Z</time>
      </trkpt>
      <trkpt lat="48.40759" lon="7.26926">
        <ele>1048</ele>
        <time>2020-09-06T09:23:12.391Z</time>
      </trkpt>
      <trkpt lat="48.40759" lon="7.26924">
        <ele>1048</ele>
        <time>2020-09-06T09:23:13.390Z</time>
      </trkpt>
      <trkpt lat="48.40759" lon="7.26922">
        <ele>1048</ele>
        <time>2020-09-06T09:23:14.391Z</time>
      </trkpt>
      <trkpt lat="48.40759" lon="7.2692">
        <ele>1048</ele>
        <time>2020-09-06T09:23:15.390Z</time>
      </trkpt>
      <trkpt lat="48.40758" lon="7.26919">
        <ele>1048</ele>
        <time>2020-09-06T09:23:16.390Z</time>
      </trkpt>
      <trkpt lat="48.40758" lon="7.26917">
        <ele>1048</ele>
        <time>2020-09-06T09:23:17.390Z</time>
      </trkpt>
      <trkpt lat="48.40758" lon="7.26916">
        <ele>1048</ele>
        <time>2020-09-06T09:23:18.390Z</time>
      </trkpt>
      <trkpt lat="48.40758" lon="7.26914">
        <ele>1048</ele>
        <time>2020-09-06T09:23:19.390Z</time>
      </trkpt>
      <trkpt lat="48.40757" lon="7.26913">
        <ele>1047</ele>
        <time>2020-09-06T09:23:20.390Z</time>
      </trkpt>
      <trkpt lat="48.40757" lon="7.26911">
        <ele>1047</ele>
        <time>2020-09-06T09:23:21.391Z</time>
      </trkpt>
      <trkpt lat="48.40757" lon="7.26909">
        <ele>1047</ele>
        <time>2020-09-06T09:23:22.391Z</time>
      </trkpt>
      <trkpt lat="48.40756" lon="7.26907">
        <ele>1047</ele>
        <time>2020-09-06T09:23:23.391Z</time>
      </trkpt>
      <trkpt lat="48.40756" lon="7.26905">
        <ele>1047</ele>
        <time>2020-09-06T09:23:24.390Z</time>
      </trkpt>
      <trkpt lat="48.40755" lon="7.26903">
        <ele>1047</ele>
        <time>2020-09-06T09:23:25.390Z</time>
      </trkpt>
      <trkpt lat="48.40755" lon="7.26901">
        <ele>1047</ele>
        <time>2020-09-06T09:23:26.391Z</time>
      </trkpt>
      <trkpt lat="48.40754" lon="7.269">
        <ele>1047</ele>
        <time>2020-09-06T09:23:27.391Z</time>
      </trkpt>
      <trkpt lat="48.40754" lon="7.26898">
        <ele>1047</ele>
        <time>2020-09-06T09:23:28.390Z</time>
      </trkpt>
      <trkpt lat="48.40753" lon="7.26896">
        <ele>1047</ele>
        <time>2020-09-06T09:23:29.390Z</time>
      </trkpt>
      <trkpt lat="48.40753" lon="7.26894">
        <ele>1047</ele>
        <time>2020-09-06T09:23:30.391Z</time>
      </trkpt>
      <trkpt lat="48.40752" lon="7.26892">
        <ele>1047</ele>
        <time>2020-09-06T09:23:31.390Z</time>
      </trkpt>
      <trkpt lat="48.40752" lon="7.26891">
        <ele>1048</ele>
        <time>2020-09-06T09:23:32.390Z</time>
      </trkpt>
      <trkpt lat="48.40752" lon="7.26889">
        <ele>1048</ele>
        <time>2020-09-06T09:23:33.391Z</time>
      </trkpt>
      <trkpt lat="48.40751" lon="7.26888">
        <ele>1048</ele>
        <time>2020-09-06T09:23:34.391Z</time>
      </trkpt>
      <trkpt lat="48.40751" lon="7.26886">
        <ele>1048</ele>
        <time>2020-09-06T09:23:35.390Z</time>
      </trkpt>
      <trkpt lat="48.40751" lon="7.26884">
        <ele>1048</ele>
        <time>2020-09-06T09:23:36.391Z</time>
      </trkpt>
      <trkpt lat="48.4075" lon="7.26883">
        <ele>1048</ele>
        <time>2020-09-06T09:23:37.390Z</time>
      </trkpt>
      <trkpt lat="48.4075" lon="7.26881">
        <ele>1048</ele>
        <time>2020-09-06T09:23:38.391Z</time>
      </trkpt>
      <trkpt lat="48.40749" lon="7.26879">
        <ele>1048</ele>
        <time>2020-09-06T09:23:39.390Z</time>
      </trkpt>
      <trkpt lat="48.4075" lon="7.26877">
        <ele>1048</ele>
        <time>2020-09-06T09:23:40.390Z</time>
      </trkpt>
      <trkpt lat="48.4075" lon="7.26874">
        <ele>1048</ele>
        <time>2020-09-06T09:23:41.390Z</time>
      </trkpt>
      <trkpt lat="48.4075" lon="7.26873">
        <ele>1048</ele>
        <time>2020-09-06T09:23:42.390Z</time>
      </trkpt>
      <trkpt lat="48.4075" lon="7.26871">
        <ele>1048</ele>
        <time>2020-09-06T09:23:43.391Z</time>
      </trkpt>
      <trkpt lat="48.4075" lon="7.26869">
        <ele>1048</ele>
        <time>2020-09-06T09:23:44.390Z</time>
      </trkpt>
      <trkpt lat="48.4075" lon="7.26867">
        <ele>1048</ele>
        <time>2020-09-06T09:23:45.390Z</time>
      </trkpt>
      <trkpt lat="48.4075" lon="7.26865">
        <ele>1048</ele>
        <time>2020-09-06T09:23:46.391Z</time>
      </trkpt>
      <trkpt lat="48.40749" lon="7.26863">
        <ele>1048</ele>
        <time>2020-09-06T09:23:47.390Z</time>
      </trkpt>
      <trkpt lat="48.40749" lon="7.26862">
        <ele>1048</ele>
        <time>2020-09-06T09:23:48.391Z</time>
      </trkpt>
      <trkpt lat="48.40749" lon="7.2686">
        <ele>1048</ele>
        <time>2020-09-06T09:23:49.390Z</time>
      </trkpt>
      <trkpt lat="48.40748" lon="7.26858">
        <ele>1048</ele>
        <time>2020-09-06T09:23:50.391Z</time>
      </trkpt>
      <trkpt lat="48.40748" lon="7.26857">
        <ele>1048</ele>
        <time>2020-09-06T09:23:51.390Z</time>
      </trkpt>
      <trkpt lat="48.40747" lon="7.26855">
        <ele>1048</ele>
        <time>2020-09-06T09:23:52.391Z</time>
      </trkpt>
      <trkpt lat="48.40747" lon="7.26853">
        <ele>1048</ele>
        <time>2020-09-06T09:23:53.390Z</time>
      </trkpt>
      <trkpt lat="48.40746" lon="7.26851">
        <ele>1049</ele>
        <time>2020-09-06T09:23:54.391Z</time>
      </trkpt>
      <trkpt lat="48.40747" lon="7.26849">
        <ele>1049</ele>
        <time>2020-09-06T09:23:55.390Z</time>
      </trkpt>
      <trkpt lat="48.40747" lon="7.26847">
        <ele>1049</ele>
        <time>2020-09-06T09:23:56.391Z</time>
      </trkpt>
      <trkpt lat="48.40747" lon="7.26845">
        <ele>1049</ele>
        <time>2020-09-06T09:23:57.391Z</time>
      </trkpt>
      <trkpt lat="48.40747" lon="7.26844">
        <ele>1049</ele>
        <time>2020-09-06T09:23:58.391Z</time>
      </trkpt>
      <trkpt lat="48.40747" lon="7.26842">
        <ele>1049</ele>
        <time>2020-09-06T09:23:59.391Z</time>
      </trkpt>
      <trkpt lat="48.40747" lon="7.2684">
        <ele>1049</ele>
        <time>2020-09-06T09:24:00.390Z</time>
      </trkpt>
      <trkpt lat="48.40747" lon="7.26838">
        <ele>1049</ele>
        <time>2020-09-06T09:24:01.391Z</time>
      </trkpt>
      <trkpt lat="48.40747" lon="7.26837">
        <ele>1049</ele>
        <time>2020-09-06T09:24:02.390Z</time>
      </trkpt>
      <trkpt lat="48.40747" lon="7.26835">
        <ele>1049</ele>
        <time>2020-09-06T09:24:03.390Z</time>
      </trkpt>
      <trkpt lat="48.40747" lon="7.26833">
        <ele>1048</ele>
        <time>2020-09-06T09:24:04.390Z</time>
      </trkpt>
      <trkpt lat="48.40747" lon="7.26831">
        <ele>1048</ele>
        <time>2020-09-06T09:24:05.390Z</time>
      </trkpt>
      <trkpt lat="48.40747" lon="7.2683">
        <ele>1048</ele>
        <time>2020-09-06T09:24:06.391Z</time>
      </trkpt>
      <trkpt lat="48.40747" lon="7.26828">
        <ele>1048</ele>
        <time>2020-09-06T09:24:07.390Z</time>
      </trkpt>
      <trkpt lat="48.40746" lon="7.26826">
        <ele>1048</ele>
        <time>2020-09-06T09:24:08.391Z</time>
      </trkpt>
      <trkpt lat="48.40746" lon="7.26825">
        <ele>1047</ele>
        <time>2020-09-06T09:24:09.391Z</time>
      </trkpt>
      <trkpt lat="48.40746" lon="7.26823">
        <ele>1048</ele>
        <time>2020-09-06T09:24:10.391Z</time>
      </trkpt>
      <trkpt lat="48.40746" lon="7.26821">
        <ele>1048</ele>
        <time>2020-09-06T09:24:11.390Z</time>
      </trkpt>
      <trkpt lat="48.40746" lon="7.26819">
        <ele>1048</ele>
        <time>2020-09-06T09:24:12.390Z</time>
      </trkpt>
      <trkpt lat="48.40747" lon="7.26817">
        <ele>1048</ele>
        <time>2020-09-06T09:24:13.391Z</time>
      </trkpt>
      <trkpt lat="48.40747" lon="7.26816">
        <ele>1047</ele>
        <time>2020-09-06T09:24:14.390Z</time>
      </trkpt>
      <trkpt lat="48.40747" lon="7.26814">
        <ele>1047</ele>
        <time>2020-09-06T09:24:15.390Z</time>
      </trkpt>
      <trkpt lat="48.40747" lon="7.26812">
        <ele>1047</ele>
        <time>2020-09-06T09:24:16.391Z</time>
      </trkpt>
      <trkpt lat="48.40747" lon="7.2681">
        <ele>1047</ele>
        <time>2020-09-06T09:24:17.390Z</time>
      </trkpt>
      <trkpt lat="48.40747" lon="7.26808">
        <ele>1047</ele>
        <time>2020-09-06T09:24:18.390Z</time>
      </trkpt>
      <trkpt lat="48.40747" lon="7.26806">
        <ele>1047</ele>
        <time>2020-09-06T09:24:19.390Z</time>
      </trkpt>
      <trkpt lat="48.40747" lon="7.26805">
        <ele>1047</ele>
        <time>2020-09-06T09:24:20.390Z</time>
      </trkpt>
      <trkpt lat="48.40748" lon="7.26805">
        <ele>1048</ele>
        <time>2020-09-06T09:24:21.390Z</time>
      </trkpt>
      <trkpt lat="48.40748" lon="7.26804">
        <ele>1048</ele>
        <time>2020-09-06T09:24:22.390Z</time>
      </trkpt>
      <trkpt lat="48.40748" lon="7.26804">
        <ele>1048</ele>
        <time>2020-09-06T09:24:23.391Z</time>
      </trkpt>
      <trkpt lat="48.40748" lon="7.26803">
        <ele>1048</ele>
        <time>2020-09-06T09:24:24.390Z</time>
      </trkpt>
      <trkpt lat="48.40748" lon="7.26801">
        <ele>1048</ele>
        <time>2020-09-06T09:24:25.390Z</time>
      </trkpt>
      <trkpt lat="48.40749" lon="7.268">
        <ele>1047</ele>
        <time>2020-09-06T09:24:26.391Z</time>
      </trkpt>
      <trkpt lat="48.40749" lon="7.26798">
        <ele>1047</ele>
        <time>2020-09-06T09:24:27.390Z</time>
      </trkpt>
      <trkpt lat="48.40749" lon="7.26796">
        <ele>1047</ele>
        <time>2020-09-06T09:24:28.391Z</time>
      </trkpt>
      <trkpt lat="48.40749" lon="7.26794">
        <ele>1047</ele>
        <time>2020-09-06T09:24:29.390Z</time>
      </trkpt>
      <trkpt lat="48.4075" lon="7.26792">
        <ele>1046</ele>
        <time>2020-09-06T09:24:30.390Z</time>
      </trkpt>
      <trkpt lat="48.4075" lon="7.26791">
        <ele>1046</ele>
        <time>2020-09-06T09:24:31.390Z</time>
      </trkpt>
      <trkpt lat="48.4075" lon="7.26789">
        <ele>1046</ele>
        <time>2020-09-06T09:24:32.390Z</time>
      </trkpt>
      <trkpt lat="48.4075" lon="7.26787">
        <ele>1046</ele>
        <time>2020-09-06T09:24:33.390Z</time>
      </trkpt>
      <trkpt lat="48.4075" lon="7.26785">
        <ele>1046</ele>
        <time>2020-09-06T09:24:34.390Z</time>
      </trkpt>
      <trkpt lat="48.4075" lon="7.26784">
        <ele>1046</ele>
        <time>2020-09-06T09:24:35.390Z</time>
      </trkpt>
      <trkpt lat="48.4075" lon="7.26782">
        <ele>1046</ele>
        <time>2020-09-06T09:24:36.390Z</time>
      </trkpt>
      <trkpt lat="48.4075" lon="7.2678">
        <ele>1046</ele>
        <time>2020-09-06T09:24:37.390Z</time>
      </trkpt>
      <trkpt lat="48.4075" lon="7.26779">
        <ele>1045</ele>
        <time>2020-09-06T09:24:38.390Z</time>
      </trkpt>
      <trkpt lat="48.40751" lon="7.26777">
        <ele>1045</ele>
        <time>2020-09-06T09:24:39.390Z</time>
      </trkpt>
      <trkpt lat="48.40751" lon="7.26775">
        <ele>1045</ele>
        <time>2020-09-06T09:24:40.390Z</time>
      </trkpt>
      <trkpt lat="48.40752" lon="7.26773">
        <ele>1046</ele>
        <time>2020-09-06T09:24:41.391Z</time>
      </trkpt>
      <trkpt lat="48.40752" lon="7.26771">
        <ele>1046</ele>
        <time>2020-09-06T09:24:42.391Z</time>
      </trkpt>
      <trkpt lat="48.40752" lon="7.2677">
        <ele>1046</ele>
        <time>2020-09-06T09:24:43.390Z</time>
      </trkpt>
      <trkpt lat="48.40753" lon="7.26768">
        <ele>1046</ele>
        <time>2020-09-06T09:24:44.391Z</time>
      </trkpt>
      <trkpt lat="48.40753" lon="7.26766">
        <ele>1045</ele>
        <time>2020-09-06T09:24:45.390Z</time>
      </trkpt>
      <trkpt lat="48.40753" lon="7.26765">
        <ele>1045</ele>
        <time>2020-09-06T09:24:46.390Z</time>
      </trkpt>
      <trkpt lat="48.40754" lon="7.26763">
        <ele>1044</ele>
        <time>2020-09-06T09:24:47.390Z</time>
      </trkpt>
      <trkpt lat="48.40754" lon="7.26761">
        <ele>1045</ele>
        <time>2020-09-06T09:24:48.391Z</time>
      </trkpt>
      <trkpt lat="48.40754" lon="7.26759">
        <ele>1045</ele>
        <time>2020-09-06T09:24:49.391Z</time>
      </trkpt>
      <trkpt lat="48.40754" lon="7.26757">
        <ele>1045</ele>
        <time>2020-09-06T09:24:50.390Z</time>
      </trkpt>
      <trkpt lat="48.40755" lon="7.26755">
        <ele>1045</ele>
        <time>2020-09-06T09:24:51.390Z</time>
      </trkpt>
      <trkpt lat="48.40755" lon="7.26753">
        <ele>1046</ele>
        <time>2020-09-06T09:24:52.390Z</time>
      </trkpt>
      <trkpt lat="48.40756" lon="7.26751">
        <ele>1046</ele>
        <time>2020-09-06T09:24:53.390Z</time>
      </trkpt>
      <trkpt lat="48.40756" lon="7.26749">
        <ele>1046</ele>
        <time>2020-09-06T09:24:54.390Z</time>
      </trkpt>
      <trkpt lat="48.40757" lon="7.26748">
        <ele>1047</ele>
        <time>2020-09-06T09:24:55.391Z</time>
      </trkpt>
      <trkpt lat="48.40757" lon="7.26746">
        <ele>1047</ele>
        <time>2020-09-06T09:24:56.390Z</time>
      </trkpt>
      <trkpt lat="48.40758" lon="7.26744">
        <ele>1047</ele>
        <time>2020-09-06T09:24:57.390Z</time>
      </trkpt>
      <trkpt lat="48.40758" lon="7.26743">
        <ele>1047</ele>
        <time>2020-09-06T09:24:58.391Z</time>
      </trkpt>
      <trkpt lat="48.40759" lon="7.26741">
        <ele>1047</ele>
        <time>2020-09-06T09:24:59.390Z</time>
      </trkpt>
      <trkpt lat="48.40759" lon="7.2674">
        <ele>1047</ele>
        <time>2020-09-06T09:25:00.391Z</time>
      </trkpt>
      <trkpt lat="48.4076" lon="7.26738">
        <ele>1047</ele>
        <time>2020-09-06T09:25:01.390Z</time>
      </trkpt>
      <trkpt lat="48.4076" lon="7.26737">
        <ele>1046</ele>
        <time>2020-09-06T09:25:02.391Z</time>
      </trkpt>
      <trkpt lat="48.40761" lon="7.26735">
        <ele>1046</ele>
        <time>2020-09-06T09:25:03.391Z</time>
      </trkpt>
      <trkpt lat="48.40761" lon="7.26733">
        <ele>1046</ele>
        <time>2020-09-06T09:25:04.390Z</time>
      </trkpt>
      <trkpt lat="48.40761" lon="7.26732">
        <ele>1046</ele>
        <time>2020-09-06T09:25:05.390Z</time>
      </trkpt>
      <trkpt lat="48.40762" lon="7.2673">
        <ele>1046</ele>
        <time>2020-09-06T09:25:06.390Z</time>
      </trkpt>
      <trkpt lat="48.40762" lon="7.26728">
        <ele>1046</ele>
        <time>2020-09-06T09:25:07.390Z</time>
      </trkpt>
      <trkpt lat="48.40763" lon="7.26727">
        <ele>1046</ele>
        <time>2020-09-06T09:25:08.390Z</time>
      </trkpt>
      <trkpt lat="48.40763" lon="7.26725">
        <ele>1046</ele>
        <time>2020-09-06T09:25:09.390Z</time>
      </trkpt>
      <trkpt lat="48.40764" lon="7.26723">
        <ele>1046</ele>
        <time>2020-09-06T09:25:10.390Z</time>
      </trkpt>
      <trkpt lat="48.40764" lon="7.26722">
        <ele>1046</ele>
        <time>2020-09-06T09:25:11.391Z</time>
      </trkpt>
      <trkpt lat="48.40765" lon="7.2672">
        <ele>1046</ele>
        <time>2020-09-06T09:25:12.390Z</time>
      </trkpt>
      <trkpt lat="48.40765" lon="7.26718">
        <ele>1046</ele>
        <time>2020-09-06T09:25:13.390Z</time>
      </trkpt>
      <trkpt lat="48.40766" lon="7.26717">
        <ele>1046</ele>
        <time>2020-09-06T09:25:14.390Z</time>
      </trkpt>
      <trkpt lat="48.40767" lon="7.26715">
        <ele>1046</ele>
        <time>2020-09-06T09:25:15.390Z</time>
      </trkpt>
      <trkpt lat="48.40767" lon="7.26713">
        <ele>1046</ele>
        <time>2020-09-06T09:25:16.391Z</time>
      </trkpt>
      <trkpt lat="48.40768" lon="7.26711">
        <ele>1046</ele>
        <time>2020-09-06T09:25:17.391Z</time>
      </trkpt>
      <trkpt lat="48.40768" lon="7.2671">
        <ele>1046</ele>
        <time>2020-09-06T09:25:18.390Z</time>
      </trkpt>
      <trkpt lat="48.40769" lon="7.26708">
        <ele>1046</ele>
        <time>2020-09-06T09:25:19.391Z</time>
      </trkpt>
      <trkpt lat="48.40769" lon="7.26706">
        <ele>1046</ele>
        <time>2020-09-06T09:25:20.390Z</time>
      </trkpt>
      <trkpt lat="48.4077" lon="7.26704">
        <ele>1046</ele>
        <time>2020-09-06T09:25:21.390Z</time>
      </trkpt>
      <trkpt lat="48.40771" lon="7.26703">
        <ele>1046</ele>
        <time>2020-09-06T09:25:22.390Z</time>
      </trkpt>
      <trkpt lat="48.40771" lon="7.26701">
        <ele>1046</ele>
        <time>2020-09-06T09:25:23.391Z</time>
      </trkpt>
      <trkpt lat="48.40772" lon="7.26699">
        <ele>1045</ele>
        <time>2020-09-06T09:25:24.390Z</time>
      </trkpt>
      <trkpt lat="48.40772" lon="7.26698">
        <ele>1045</ele>
        <time>2020-09-06T09:25:25.390Z</time>
      </trkpt>
      <trkpt lat="48.40773" lon="7.26696">
        <ele>1045</ele>
        <time>2020-09-06T09:25:26.390Z</time>
      </trkpt>
      <trkpt lat="48.40774" lon="7.26694">
        <ele>1044</ele>
        <time>2020-09-06T09:25:27.390Z</time>
      </trkpt>
      <trkpt lat="48.40774" lon="7.26693">
        <ele>1044</ele>
        <time>2020-09-06T09:25:28.390Z</time>
      </trkpt>
      <trkpt lat="48.40775" lon="7.26691">
        <ele>1043</ele>
        <time>2020-09-06T09:25:29.390Z</time>
      </trkpt>
      <trkpt lat="48.40775" lon="7.26689">
        <ele>1043</ele>
        <time>2020-09-06T09:25:30.390Z</time>
      </trkpt>
      <trkpt lat="48.40776" lon="7.26687">
        <ele>1043</ele>
        <time>2020-09-06T09:25:31.390Z</time>
      </trkpt>
      <trkpt lat="48.40776" lon="7.26685">
        <ele>1043</ele>
        <time>2020-09-06T09:25:32.390Z</time>
      </trkpt>
      <trkpt lat="48.40777" lon="7.26682">
        <ele>1044</ele>
        <time>2020-09-06T09:25:33.391Z</time>
      </trkpt>
      <trkpt lat="48.40777" lon="7.26681">
        <ele>1044</ele>
        <time>2020-09-06T09:25:34.390Z</time>
      </trkpt>
      <trkpt lat="48.40777" lon="7.26679">
        <ele>1044</ele>
        <time>2020-09-06T09:25:35.390Z</time>
      </trkpt>
      <trkpt lat="48.40778" lon="7.26677">
        <ele>1045</ele>
        <time>2020-09-06T09:25:36.391Z</time>
      </trkpt>
      <trkpt lat="48.40778" lon="7.26675">
        <ele>1045</ele>
        <time>2020-09-06T09:25:37.390Z</time>
      </trkpt>
      <trkpt lat="48.40778" lon="7.26673">
        <ele>1045</ele>
        <time>2020-09-06T09:25:38.391Z</time>
      </trkpt>
      <trkpt lat="48.40778" lon="7.26671">
        <ele>1045</ele>
        <time>2020-09-06T09:25:39.391Z</time>
      </trkpt>
      <trkpt lat="48.40778" lon="7.2667">
        <ele>1045</ele>
        <time>2020-09-06T09:25:40.390Z</time>
      </trkpt>
      <trkpt lat="48.40779" lon="7.26668">
        <ele>1045</ele>
        <time>2020-09-06T09:25:41.391Z</time>
      </trkpt>
      <trkpt lat="48.40779" lon="7.26666">
        <ele>1045</ele>
        <time>2020-09-06T09:25:42.390Z</time>
      </trkpt>
      <trkpt lat="48.40779" lon="7.26664">
        <ele>1045</ele>
        <time>2020-09-06T09:25:43.391Z</time>
      </trkpt>
      <trkpt lat="48.40779" lon="7.26662">
        <ele>1045</ele>
        <time>2020-09-06T09:25:44.391Z</time>
      </trkpt>
      <trkpt lat="48.4078" lon="7.26661">
        <ele>1045</ele>
        <time>2020-09-06T09:25:45.390Z</time>
      </trkpt>
      <trkpt lat="48.4078" lon="7.2666">
        <ele>1045</ele>
        <time>2020-09-06T09:25:46.390Z</time>
      </trkpt>
      <trkpt lat="48.4078" lon="7.26658">
        <ele>1045</ele>
        <time>2020-09-06T09:25:47.390Z</time>
      </trkpt>
      <trkpt lat="48.40781" lon="7.26656">
        <ele>1044</ele>
        <time>2020-09-06T09:25:48.390Z</time>
      </trkpt>
      <trkpt lat="48.40781" lon="7.26655">
        <ele>1044</ele>
        <time>2020-09-06T09:25:49.391Z</time>
      </trkpt>
      <trkpt lat="48.40782" lon="7.26653">
        <ele>1044</ele>
        <time>2020-09-06T09:25:50.391Z</time>
      </trkpt>
      <trkpt lat="48.40782" lon="7.26651">
        <ele>1044</ele>
        <time>2020-09-06T09:25:51.390Z</time>
      </trkpt>
      <trkpt lat="48.40782" lon="7.26649">
        <ele>1043</ele>
        <time>2020-09-06T09:25:52.390Z</time>
      </trkpt>
      <trkpt lat="48.40783" lon="7.26647">
        <ele>1043</ele>
        <time>2020-09-06T09:25:53.390Z</time>
      </trkpt>
      <trkpt lat="48.40783" lon="7.26645">
        <ele>1043</ele>
        <time>2020-09-06T09:25:54.391Z</time>
      </trkpt>
      <trkpt lat="48.40784" lon="7.26643">
        <ele>1043</ele>
        <time>2020-09-06T09:25:55.391Z</time>
      </trkpt>
      <trkpt lat="48.40785" lon="7.26641">
        <ele>1042</ele>
        <time>2020-09-06T09:25:56.391Z</time>
      </trkpt>
      <trkpt lat="48.40785" lon="7.26638">
        <ele>1042</ele>
        <time>2020-09-06T09:25:57.390Z</time>
      </trkpt>
      <trkpt lat="48.40786" lon="7.26636">
        <ele>1042</ele>
        <time>2020-09-06T09:25:58.391Z</time>
      </trkpt>
      <trkpt lat="48.40786" lon="7.26634">
        <ele>1043</ele>
        <time>2020-09-06T09:25:59.390Z</time>
      </trkpt>
      <trkpt lat="48.40787" lon="7.26632">
        <ele>1043</ele>
        <time>2020-09-06T09:26:00.390Z</time>
      </trkpt>
      <trkpt lat="48.40787" lon="7.2663">
        <ele>1042</ele>
        <time>2020-09-06T09:26:01.390Z</time>
      </trkpt>
      <trkpt lat="48.40787" lon="7.26628">
        <ele>1042</ele>
        <time>2020-09-06T09:26:02.390Z</time>
      </trkpt>
      <trkpt lat="48.40788" lon="7.26626">
        <ele>1042</ele>
        <time>2020-09-06T09:26:03.390Z</time>
      </trkpt>
      <trkpt lat="48.40788" lon="7.26625">
        <ele>1042</ele>
        <time>2020-09-06T09:26:04.391Z</time>
      </trkpt>
      <trkpt lat="48.40788" lon="7.26623">
        <ele>1042</ele>
        <time>2020-09-06T09:26:05.390Z</time>
      </trkpt>
      <trkpt lat="48.40789" lon="7.26622">
        <ele>1042</ele>
        <time>2020-09-06T09:26:06.390Z</time>
      </trkpt>
      <trkpt lat="48.40789" lon="7.26621">
        <ele>1042</ele>
        <time>2020-09-06T09:26:07.390Z</time>
      </trkpt>
      <trkpt lat="48.40789" lon="7.26619">
        <ele>1042</ele>
        <time>2020-09-06T09:26:08.390Z</time>
      </trkpt>
      <trkpt lat="48.40789" lon="7.26617">
        <ele>1042</ele>
        <time>2020-09-06T09:26:09.390Z</time>
      </trkpt>
      <trkpt lat="48.40789" lon="7.26616">
        <ele>1042</ele>
        <time>2020-09-06T09:26:10.390Z</time>
      </trkpt>
      <trkpt lat="48.40789" lon="7.26614">
        <ele>1042</ele>
        <time>2020-09-06T09:26:11.390Z</time>
      </trkpt>
      <trkpt lat="48.4079" lon="7.26613">
        <ele>1042</ele>
        <time>2020-09-06T09:26:12.391Z</time>
      </trkpt>
      <trkpt lat="48.4079" lon="7.26612">
        <ele>1043</ele>
        <time>2020-09-06T09:26:13.390Z</time>
      </trkpt>
      <trkpt lat="48.4079" lon="7.2661">
        <ele>1043</ele>
        <time>2020-09-06T09:26:14.391Z</time>
      </trkpt>
      <trkpt lat="48.4079" lon="7.26609">
        <ele>1043</ele>
        <time>2020-09-06T09:26:15.391Z</time>
      </trkpt>
      <trkpt lat="48.4079" lon="7.26607">
        <ele>1044</ele>
        <time>2020-09-06T09:26:16.391Z</time>
      </trkpt>
      <trkpt lat="48.4079" lon="7.26606">
        <ele>1044</ele>
        <time>2020-09-06T09:26:17.390Z</time>
      </trkpt>
      <trkpt lat="48.4079" lon="7.26604">
        <ele>1044</ele>
        <time>2020-09-06T09:26:18.390Z</time>
      </trkpt>
      <trkpt lat="48.40791" lon="7.26602">
        <ele>1044</ele>
        <time>2020-09-06T09:26:19.390Z</time>
      </trkpt>
      <trkpt lat="48.4079" lon="7.26599">
        <ele>1044</ele>
        <time>2020-09-06T09:26:20.391Z</time>
      </trkpt>
      <trkpt lat="48.4079" lon="7.26597">
        <ele>1044</ele>
        <time>2020-09-06T09:26:21.390Z</time>
      </trkpt>
      <trkpt lat="48.40791" lon="7.26595">
        <ele>1044</ele>
        <time>2020-09-06T09:26:22.391Z</time>
      </trkpt>
      <trkpt lat="48.40791" lon="7.26593">
        <ele>1043</ele>
        <time>2020-09-06T09:26:23.391Z</time>
      </trkpt>
      <trkpt lat="48.40791" lon="7.26591">
        <ele>1043</ele>
        <time>2020-09-06T09:26:24.390Z</time>
      </trkpt>
      <trkpt lat="48.40791" lon="7.26589">
        <ele>1043</ele>
        <time>2020-09-06T09:26:25.390Z</time>
      </trkpt>
      <trkpt lat="48.40791" lon="7.26587">
        <ele>1044</ele>
        <time>2020-09-06T09:26:26.391Z</time>
      </trkpt>
      <trkpt lat="48.40791" lon="7.26585">
        <ele>1044</ele>
        <time>2020-09-06T09:26:27.390Z</time>
      </trkpt>
      <trkpt lat="48.40791" lon="7.26583">
        <ele>1044</ele>
        <time>2020-09-06T09:26:28.391Z</time>
      </trkpt>
      <trkpt lat="48.40791" lon="7.26581">
        <ele>1044</ele>
        <time>2020-09-06T09:26:29.390Z</time>
      </trkpt>
      <trkpt lat="48.40791" lon="7.26579">
        <ele>1044</ele>
        <time>2020-09-06T09:26:30.390Z</time>
      </trkpt>
      <trkpt lat="48.40792" lon="7.26578">
        <ele>1044</ele>
        <time>2020-09-06T09:26:31.390Z</time>
      </trkpt>
      <trkpt lat="48.40792" lon="7.26576">
        <ele>1044</ele>
        <time>2020-09-06T09:26:32.390Z</time>
      </trkpt>
      <trkpt lat="48.40792" lon="7.26574">
        <ele>1044</ele>
        <time>2020-09-06T09:26:33.390Z</time>
      </trkpt>
      <trkpt lat="48.40792" lon="7.26572">
        <ele>1044</ele>
        <time>2020-09-06T09:26:34.390Z</time>
      </trkpt>
      <trkpt lat="48.40792" lon="7.2657">
        <ele>1043</ele>
        <time>2020-09-06T09:26:35.390Z</time>
      </trkpt>
      <trkpt lat="48.40792" lon="7.26568">
        <ele>1044</ele>
        <time>2020-09-06T09:26:36.391Z</time>
      </trkpt>
      <trkpt lat="48.40792" lon="7.26567">
        <ele>1044</ele>
        <time>2020-09-06T09:26:37.391Z</time>
      </trkpt>
      <trkpt lat="48.40792" lon="7.26565">
        <ele>1044</ele>
        <time>2020-09-06T09:26:38.390Z</time>
      </trkpt>
      <trkpt lat="48.40793" lon="7.26563">
        <ele>1043</ele>
        <time>2020-09-06T09:26:39.390Z</time>
      </trkpt>
      <trkpt lat="48.40792" lon="7.26561">
        <ele>1043</ele>
        <time>2020-09-06T09:26:40.391Z</time>
      </trkpt>
      <trkpt lat="48.40793" lon="7.26559">
        <ele>1043</ele>
        <time>2020-09-06T09:26:41.390Z</time>
      </trkpt>
      <trkpt lat="48.40793" lon="7.26558">
        <ele>1043</ele>
        <time>2020-09-06T09:26:42.390Z</time>
      </trkpt>
      <trkpt lat="48.40792" lon="7.26556">
        <ele>1043</ele>
        <time>2020-09-06T09:26:43.390Z</time>
      </trkpt>
      <trkpt lat="48.40792" lon="7.26554">
        <ele>1043</ele>
        <time>2020-09-06T09:26:44.391Z</time>
      </trkpt>
      <trkpt lat="48.40792" lon="7.26552">
        <ele>1043</ele>
        <time>2020-09-06T09:26:45.390Z</time>
      </trkpt>
      <trkpt lat="48.40792" lon="7.2655">
        <ele>1043</ele>
        <time>2020-09-06T09:26:46.390Z</time>
      </trkpt>
      <trkpt lat="48.40792" lon="7.26548">
        <ele>1043</ele>
        <time>2020-09-06T09:26:47.390Z</time>
      </trkpt>
      <trkpt lat="48.40792" lon="7.26546">
        <ele>1043</ele>
        <time>2020-09-06T09:26:48.390Z</time>
      </trkpt>
      <trkpt lat="48.40792" lon="7.26544">
        <ele>1043</ele>
        <time>2020-09-06T09:26:49.390Z</time>
      </trkpt>
      <trkpt lat="48.40792" lon="7.26543">
        <ele>1043</ele>
        <time>2020-09-06T09:26:50.391Z</time>
      </trkpt>
      <trkpt lat="48.40792" lon="7.26541">
        <ele>1043</ele>
        <time>2020-09-06T09:26:51.391Z</time>
      </trkpt>
      <trkpt lat="48.40792" lon="7.26539">
        <ele>1043</ele>
        <time>2020-09-06T09:26:52.390Z</time>
      </trkpt>
      <trkpt lat="48.40791" lon="7.26538">
        <ele>1042</ele>
        <time>2020-09-06T09:26:53.390Z</time>
      </trkpt>
      <trkpt lat="48.40791" lon="7.26536">
        <ele>1042</ele>
        <time>2020-09-06T09:26:54.390Z</time>
      </trkpt>
      <trkpt lat="48.40792" lon="7.26534">
        <ele>1042</ele>
        <time>2020-09-06T09:26:55.390Z</time>
      </trkpt>
      <trkpt lat="48.40792" lon="7.26532">
        <ele>1042</ele>
        <time>2020-09-06T09:26:56.391Z</time>
      </trkpt>
      <trkpt lat="48.40792" lon="7.2653">
        <ele>1041</ele>
        <time>2020-09-06T09:26:57.391Z</time>
      </trkpt>
      <trkpt lat="48.40792" lon="7.26528">
        <ele>1041</ele>
        <time>2020-09-06T09:26:58.391Z</time>
      </trkpt>
      <trkpt lat="48.40791" lon="7.26526">
        <ele>1041</ele>
        <time>2020-09-06T09:26:59.391Z</time>
      </trkpt>
      <trkpt lat="48.40791" lon="7.26525">
        <ele>1041</ele>
        <time>2020-09-06T09:27:00.391Z</time>
      </trkpt>
      <trkpt lat="48.40791" lon="7.26523">
        <ele>1041</ele>
        <time>2020-09-06T09:27:01.390Z</time>
      </trkpt>
      <trkpt lat="48.40791" lon="7.26521">
        <ele>1041</ele>
        <time>2020-09-06T09:27:02.390Z</time>
      </trkpt>
      <trkpt lat="48.40791" lon="7.26519">
        <ele>1041</ele>
        <time>2020-09-06T09:27:03.390Z</time>
      </trkpt>
      <trkpt lat="48.40791" lon="7.26517">
        <ele>1041</ele>
        <time>2020-09-06T09:27:04.391Z</time>
      </trkpt>
      <trkpt lat="48.4079" lon="7.26515">
        <ele>1040</ele>
        <time>2020-09-06T09:27:05.390Z</time>
      </trkpt>
      <trkpt lat="48.4079" lon="7.26513">
        <ele>1040</ele>
        <time>2020-09-06T09:27:06.391Z</time>
      </trkpt>
      <trkpt lat="48.4079" lon="7.26511">
        <ele>1040</ele>
        <time>2020-09-06T09:27:07.391Z</time>
      </trkpt>
      <trkpt lat="48.4079" lon="7.26509">
        <ele>1040</ele>
        <time>2020-09-06T09:27:08.390Z</time>
      </trkpt>
      <trkpt lat="48.40789" lon="7.26508">
        <ele>1040</ele>
        <time>2020-09-06T09:27:09.390Z</time>
      </trkpt>
      <trkpt lat="48.40789" lon="7.26506">
        <ele>1040</ele>
        <time>2020-09-06T09:27:10.391Z</time>
      </trkpt>
      <trkpt lat="48.40789" lon="7.26505">
        <ele>1040</ele>
        <time>2020-09-06T09:27:11.391Z</time>
      </trkpt>
      <trkpt lat="48.40789" lon="7.26503">
        <ele>1041</ele>
        <time>2020-09-06T09:27:12.390Z</time>
      </trkpt>
      <trkpt lat="48.40789" lon="7.26502">
        <ele>1041</ele>
        <time>2020-09-06T09:27:13.390Z</time>
      </trkpt>
      <trkpt lat="48.40789" lon="7.265">
        <ele>1041</ele>
        <time>2020-09-06T09:27:14.391Z</time>
      </trkpt>
      <trkpt lat="48.4079" lon="7.26498">
        <ele>1041</ele>
        <time>2020-09-06T09:27:15.390Z</time>
      </trkpt>
      <trkpt lat="48.4079" lon="7.26496">
        <ele>1041</ele>
        <time>2020-09-06T09:27:16.390Z</time>
      </trkpt>
      <trkpt lat="48.4079" lon="7.26495">
        <ele>1041</ele>
        <time>2020-09-06T09:27:17.390Z</time>
      </trkpt>
      <trkpt lat="48.40789" lon="7.26493">
        <ele>1041</ele>
        <time>2020-09-06T09:27:18.391Z</time>
      </trkpt>
      <trkpt lat="48.40789" lon="7.26491">
        <ele>1041</ele>
        <time>2020-09-06T09:27:19.390Z</time>
      </trkpt>
      <trkpt lat="48.4079" lon="7.2649">
        <ele>1040</ele>
        <time>2020-09-06T09:27:20.391Z</time>
      </trkpt>
      <trkpt lat="48.40789" lon="7.26488">
        <ele>1040</ele>
        <time>2020-09-06T09:27:21.390Z</time>
      </trkpt>
      <trkpt lat="48.40789" lon="7.26486">
        <ele>1040</ele>
        <time>2020-09-06T09:27:22.390Z</time>
      </trkpt>
      <trkpt lat="48.40789" lon="7.26484">
        <ele>1039</ele>
        <time>2020-09-06T09:27:23.390Z</time>
      </trkpt>
      <trkpt lat="48.40789" lon="7.26483">
        <ele>1039</ele>
        <time>2020-09-06T09:27:24.390Z</time>
      </trkpt>
      <trkpt lat="48.40789" lon="7.26481">
        <ele>1039</ele>
        <time>2020-09-06T09:27:25.391Z</time>
      </trkpt>
      <trkpt lat="48.40789" lon="7.26479">
        <ele>1039</ele>
        <time>2020-09-06T09:27:26.390Z</time>
      </trkpt>
      <trkpt lat="48.40789" lon="7.26478">
        <ele>1039</ele>
        <time>2020-09-06T09:27:27.390Z</time>
      </trkpt>
      <trkpt lat="48.40789" lon="7.26476">
        <ele>1040</ele>
        <time>2020-09-06T09:27:28.391Z</time>
      </trkpt>
      <trkpt lat="48.40789" lon="7.26474">
        <ele>1040</ele>
        <time>2020-09-06T09:27:29.391Z</time>
      </trkpt>
      <trkpt lat="48.40788" lon="7.26472">
        <ele>1040</ele>
        <time>2020-09-06T09:27:30.390Z</time>
      </trkpt>
      <trkpt lat="48.40788" lon="7.26471">
        <ele>1041</ele>
        <time>2020-09-06T09:27:31.391Z</time>
      </trkpt>
      <trkpt lat="48.40788" lon="7.26469">
        <ele>1041</ele>
        <time>2020-09-06T09:27:32.390Z</time>
      </trkpt>
      <trkpt lat="48.40787" lon="7.26468">
        <ele>1040</ele>
        <time>2020-09-06T09:27:33.390Z</time>
      </trkpt>
      <trkpt lat="48.40787" lon="7.26466">
        <ele>1040</ele>
        <time>2020-09-06T09:27:34.390Z</time>
      </trkpt>
      <trkpt lat="48.40787" lon="7.26465">
        <ele>1039</ele>
        <time>2020-09-06T09:27:35.391Z</time>
      </trkpt>
      <trkpt lat="48.40787" lon="7.26463">
        <ele>1039</ele>
        <time>2020-09-06T09:27:36.390Z</time>
      </trkpt>
      <trkpt lat="48.40786" lon="7.26461">
        <ele>1039</ele>
        <time>2020-09-06T09:27:37.390Z</time>
      </trkpt>
      <trkpt lat="48.40786" lon="7.26459">
        <ele>1039</ele>
        <time>2020-09-06T09:27:38.390Z</time>
      </trkpt>
      <trkpt lat="48.40786" lon="7.26458">
        <ele>1039</ele>
        <time>2020-09-06T09:27:39.391Z</time>
      </trkpt>
      <trkpt lat="48.40786" lon="7.26456">
        <ele>1038</ele>
        <time>2020-09-06T09:27:40.390Z</time>
      </trkpt>
      <trkpt lat="48.40786" lon="7.26454">
        <ele>1038</ele>
        <time>2020-09-06T09:27:41.390Z</time>
      </trkpt>
      <trkpt lat="48.40785" lon="7.26452">
        <ele>1039</ele>
        <time>2020-09-06T09:27:42.390Z</time>
      </trkpt>
      <trkpt lat="48.40785" lon="7.2645">
        <ele>1039</ele>
        <time>2020-09-06T09:27:43.390Z</time>
      </trkpt>
      <trkpt lat="48.40785" lon="7.26448">
        <ele>1039</ele>
        <time>2020-09-06T09:27:44.391Z</time>
      </trkpt>
      <trkpt lat="48.40785" lon="7.26447">
        <ele>1039</ele>
        <time>2020-09-06T09:27:45.390Z</time>
      </trkpt>
      <trkpt lat="48.40784" lon="7.26445">
        <ele>1038</ele>
        <time>2020-09-06T09:27:46.391Z</time>
      </trkpt>
      <trkpt lat="48.40784" lon="7.26443">
        <ele>1038</ele>
        <time>2020-09-06T09:27:47.390Z</time>
      </trkpt>
      <trkpt lat="48.40784" lon="7.26441">
        <ele>1038</ele>
        <time>2020-09-06T09:27:48.390Z</time>
      </trkpt>
      <trkpt lat="48.40784" lon="7.2644">
        <ele>1038</ele>
        <time>2020-09-06T09:27:49.391Z</time>
      </trkpt>
      <trkpt lat="48.40784" lon="7.26438">
        <ele>1038</ele>
        <time>2020-09-06T09:27:50.390Z</time>
      </trkpt>
      <trkpt lat="48.40784" lon="7.26436">
        <ele>1037</ele>
        <time>2020-09-06T09:27:51.390Z</time>
      </trkpt>
      <trkpt lat="48.40785" lon="7.26435">
        <ele>1037</ele>
        <time>2020-09-06T09:27:52.391Z</time>
      </trkpt>
      <trkpt lat="48.40785" lon="7.26433">
        <ele>1036</ele>
        <time>2020-09-06T09:27:53.390Z</time>
      </trkpt>
      <trkpt lat="48.40785" lon="7.26431">
        <ele>1037</ele>
        <time>2020-09-06T09:27:54.391Z</time>
      </trkpt>
      <trkpt lat="48.40784" lon="7.26429">
        <ele>1037</ele>
        <time>2020-09-06T09:27:55.390Z</time>
      </trkpt>
      <trkpt lat="48.40784" lon="7.26428">
        <ele>1037</ele>
        <time>2020-09-06T09:27:56.391Z</time>
      </trkpt>
      <trkpt lat="48.40785" lon="7.26426">
        <ele>1037</ele>
        <time>2020-09-06T09:27:57.391Z</time>
      </trkpt>
      <trkpt lat="48.40785" lon="7.26423">
        <ele>1037</ele>
        <time>2020-09-06T09:27:58.391Z</time>
      </trkpt>
      <trkpt lat="48.40785" lon="7.26422">
        <ele>1036</ele>
        <time>2020-09-06T09:27:59.390Z</time>
      </trkpt>
      <trkpt lat="48.40785" lon="7.2642">
        <ele>1036</ele>
        <time>2020-09-06T09:28:00.391Z</time>
      </trkpt>
      <trkpt lat="48.40784" lon="7.26418">
        <ele>1035</ele>
        <time>2020-09-06T09:28:01.391Z</time>
      </trkpt>
      <trkpt lat="48.40784" lon="7.26417">
        <ele>1035</ele>
        <time>2020-09-06T09:28:02.390Z</time>
      </trkpt>
      <trkpt lat="48.40784" lon="7.26415">
        <ele>1035</ele>
        <time>2020-09-06T09:28:03.390Z</time>
      </trkpt>
      <trkpt lat="48.40783" lon="7.26413">
        <ele>1034</ele>
        <time>2020-09-06T09:28:04.391Z</time>
      </trkpt>
      <trkpt lat="48.40783" lon="7.26411">
        <ele>1034</ele>
        <time>2020-09-06T09:28:05.391Z</time>
      </trkpt>
      <trkpt lat="48.40783" lon="7.26409">
        <ele>1034</ele>
        <time>2020-09-06T09:28:06.391Z</time>
      </trkpt>
      <trkpt lat="48.40783" lon="7.26408">
        <ele>1033</ele>
        <time>2020-09-06T09:28:07.390Z</time>
      </trkpt>
      <trkpt lat="48.40782" lon="7.26406">
        <ele>1033</ele>
        <time>2020-09-06T09:28:08.390Z</time>
      </trkpt>
      <trkpt lat="48.40782" lon="7.26404">
        <ele>1032</ele>
        <time>2020-09-06T09:28:09.390Z</time>
      </trkpt>
      <trkpt lat="48.40782" lon="7.26402">
        <ele>1032</ele>
        <time>2020-09-06T09:28:10.391Z</time>
      </trkpt>
      <trkpt lat="48.40781" lon="7.264">
        <ele>1032</ele>
        <time>2020-09-06T09:28:11.390Z</time>
      </trkpt>
      <trkpt lat="48.40781" lon="7.26399">
        <ele>1032</ele>
        <time>2020-09-06T09:28:12.390Z</time>
      </trkpt>
      <trkpt lat="48.40781" lon="7.26397">
        <ele>1032</ele>
        <time>2020-09-06T09:28:13.390Z</time>
      </trkpt>
      <trkpt lat="48.4078" lon="7.26396">
        <ele>1032</ele>
        <time>2020-09-06T09:28:14.391Z</time>
      </trkpt>
      <trkpt lat="48.4078" lon="7.26395">
        <ele>1032</ele>
        <time>2020-09-06T09:28:15.390Z</time>
      </trkpt>
      <trkpt lat="48.4078" lon="7.26393">
        <ele>1032</ele>
        <time>2020-09-06T09:28:16.391Z</time>
      </trkpt>
      <trkpt lat="48.40779" lon="7.26391">
        <ele>1032</ele>
        <time>2020-09-06T09:28:17.391Z</time>
      </trkpt>
      <trkpt lat="48.40779" lon="7.2639">
        <ele>1032</ele>
        <time>2020-09-06T09:28:18.391Z</time>
      </trkpt>
      <trkpt lat="48.40779" lon="7.26388">
        <ele>1032</ele>
        <time>2020-09-06T09:28:19.390Z</time>
      </trkpt>
      <trkpt lat="48.40779" lon="7.26387">
        <ele>1031</ele>
        <time>2020-09-06T09:28:20.390Z</time>
      </trkpt>
      <trkpt lat="48.40779" lon="7.26385">
        <ele>1031</ele>
        <time>2020-09-06T09:28:21.391Z</time>
      </trkpt>
      <trkpt lat="48.40779" lon="7.26383">
        <ele>1031</ele>
        <time>2020-09-06T09:28:22.391Z</time>
      </trkpt>
      <trkpt lat="48.40779" lon="7.26382">
        <ele>1031</ele>
        <time>2020-09-06T09:28:23.390Z</time>
      </trkpt>
      <trkpt lat="48.40779" lon="7.2638">
        <ele>1031</ele>
        <time>2020-09-06T09:28:24.390Z</time>
      </trkpt>
      <trkpt lat="48.40778" lon="7.26378">
        <ele>1031</ele>
        <time>2020-09-06T09:28:25.391Z</time>
      </trkpt>
      <trkpt lat="48.40778" lon="7.26377">
        <ele>1032</ele>
        <time>2020-09-06T09:28:26.390Z</time>
      </trkpt>
      <trkpt lat="48.40777" lon="7.26375">
        <ele>1032</ele>
        <time>2020-09-06T09:28:27.390Z</time>
      </trkpt>
      <trkpt lat="48.40777" lon="7.26374">
        <ele>1032</ele>
        <time>2020-09-06T09:28:28.391Z</time>
      </trkpt>
      <trkpt lat="48.40777" lon="7.26372">
        <ele>1032</ele>
        <time>2020-09-06T09:28:29.390Z</time>
      </trkpt>
      <trkpt lat="48.40777" lon="7.26371">
        <ele>1032</ele>
        <time>2020-09-06T09:28:30.391Z</time>
      </trkpt>
      <trkpt lat="48.40776" lon="7.26369">
        <ele>1032</ele>
        <time>2020-09-06T09:28:31.391Z</time>
      </trkpt>
      <trkpt lat="48.40776" lon="7.26367">
        <ele>1031</ele>
        <time>2020-09-06T09:28:32.390Z</time>
      </trkpt>
      <trkpt lat="48.40776" lon="7.26366">
        <ele>1031</ele>
        <time>2020-09-06T09:28:33.390Z</time>
      </trkpt>
      <trkpt lat="48.40776" lon="7.26364">
        <ele>1031</ele>
        <time>2020-09-06T09:28:34.391Z</time>
      </trkpt>
      <trkpt lat="48.40776" lon="7.26362">
        <ele>1031</ele>
        <time>2020-09-06T09:28:35.391Z</time>
      </trkpt>
      <trkpt lat="48.40775" lon="7.26361">
        <ele>1030</ele>
        <time>2020-09-06T09:28:36.390Z</time>
      </trkpt>
      <trkpt lat="48.40775" lon="7.26359">
        <ele>1030</ele>
        <time>2020-09-06T09:28:37.391Z</time>
      </trkpt>
      <trkpt lat="48.40775" lon="7.26357">
        <ele>1030</ele>
        <time>2020-09-06T09:28:38.390Z</time>
      </trkpt>
      <trkpt lat="48.40775" lon="7.26356">
        <ele>1030</ele>
        <time>2020-09-06T09:28:39.390Z</time>
      </trkpt>
      <trkpt lat="48.40775" lon="7.26354">
        <ele>1030</ele>
        <time>2020-09-06T09:28:40.390Z</time>
      </trkpt>
      <trkpt lat="48.40774" lon="7.26353">
        <ele>1030</ele>
        <time>2020-09-06T09:28:41.390Z</time>
      </trkpt>
      <trkpt lat="48.40774" lon="7.26351">
        <ele>1031</ele>
        <time>2020-09-06T09:28:42.391Z</time>
      </trkpt>
      <trkpt lat="48.40774" lon="7.26349">
        <ele>1030</ele>
        <time>2020-09-06T09:28:43.390Z</time>
      </trkpt>
      <trkpt lat="48.40774" lon="7.26348">
        <ele>1030</ele>
        <time>2020-09-06T09:28:44.390Z</time>
      </trkpt>
      <trkpt lat="48.40774" lon="7.26345">
        <ele>1030</ele>
        <time>2020-09-06T09:28:45.391Z</time>
      </trkpt>
      <trkpt lat="48.40774" lon="7.26343">
        <ele>1030</ele>
        <time>2020-09-06T09:28:46.391Z</time>
      </trkpt>
      <trkpt lat="48.40775" lon="7.26342">
        <ele>1029</ele>
        <time>2020-09-06T09:28:47.390Z</time>
      </trkpt>
      <trkpt lat="48.40775" lon="7.2634">
        <ele>1029</ele>
        <time>2020-09-06T09:28:48.391Z</time>
      </trkpt>
      <trkpt lat="48.40775" lon="7.26338">
        <ele>1029</ele>
        <time>2020-09-06T09:28:49.390Z</time>
      </trkpt>
      <trkpt lat="48.40776" lon="7.26336">
        <ele>1029</ele>
        <time>2020-09-06T09:28:50.390Z</time>
      </trkpt>
      <trkpt lat="48.40776" lon="7.26335">
        <ele>1029</ele>
        <time>2020-09-06T09:28:51.390Z</time>
      </trkpt>
      <trkpt lat="48.40777" lon="7.26333">
        <ele>1029</ele>
        <time>2020-09-06T09:28:52.391Z</time>
      </trkpt>
      <trkpt lat="48.40777" lon="7.26332">
        <ele>1029</ele>
        <time>2020-09-06T09:28:53.390Z</time>
      </trkpt>
      <trkpt lat="48.40777" lon="7.2633">
        <ele>1029</ele>
        <time>2020-09-06T09:28:54.390Z</time>
      </trkpt>
      <trkpt lat="48.40776" lon="7.26329">
        <ele>1030</ele>
        <time>2020-09-06T09:28:55.390Z</time>
      </trkpt>
      <trkpt lat="48.40776" lon="7.26327">
        <ele>1030</ele>
        <time>2020-09-06T09:28:56.390Z</time>
      </trkpt>
      <trkpt lat="48.40776" lon="7.26325">
        <ele>1030</ele>
        <time>2020-09-06T09:28:57.390Z</time>
      </trkpt>
      <trkpt lat="48.40776" lon="7.26324">
        <ele>1030</ele>
        <time>2020-09-06T09:28:58.390Z</time>
      </trkpt>
      <trkpt lat="48.40776" lon="7.26322">
        <ele>1030</ele>
        <time>2020-09-06T09:28:59.390Z</time>
      </trkpt>
      <trkpt lat="48.40775" lon="7.26321">
        <ele>1030</ele>
        <time>2020-09-06T09:29:00.391Z</time>
      </trkpt>
      <trkpt lat="48.40775" lon="7.26319">
        <ele>1030</ele>
        <time>2020-09-06T09:29:01.390Z</time>
      </trkpt>
      <trkpt lat="48.40775" lon="7.26318">
        <ele>1030</ele>
        <time>2020-09-06T09:29:02.391Z</time>
      </trkpt>
      <trkpt lat="48.40776" lon="7.26316">
        <ele>1029</ele>
        <time>2020-09-06T09:29:03.390Z</time>
      </trkpt>
      <trkpt lat="48.40776" lon="7.26314">
        <ele>1029</ele>
        <time>2020-09-06T09:29:04.391Z</time>
      </trkpt>
      <trkpt lat="48.40776" lon="7.26312">
        <ele>1029</ele>
        <time>2020-09-06T09:29:05.390Z</time>
      </trkpt>
      <trkpt lat="48.40776" lon="7.26311">
        <ele>1028</ele>
        <time>2020-09-06T09:29:06.390Z</time>
      </trkpt>
      <trkpt lat="48.40776" lon="7.26309">
        <ele>1028</ele>
        <time>2020-09-06T09:29:07.391Z</time>
      </trkpt>
      <trkpt lat="48.40776" lon="7.26307">
        <ele>1028</ele>
        <time>2020-09-06T09:29:08.391Z</time>
      </trkpt>
      <trkpt lat="48.40776" lon="7.26305">
        <ele>1027</ele>
        <time>2020-09-06T09:29:09.391Z</time>
      </trkpt>
      <trkpt lat="48.40776" lon="7.26304">
        <ele>1027</ele>
        <time>2020-09-06T09:29:10.391Z</time>
      </trkpt>
      <trkpt lat="48.40775" lon="7.26303">
        <ele>1027</ele>
        <time>2020-09-06T09:29:11.390Z</time>
      </trkpt>
      <trkpt lat="48.40775" lon="7.26302">
        <ele>1027</ele>
        <time>2020-09-06T09:29:12.391Z</time>
      </trkpt>
      <trkpt lat="48.40774" lon="7.263">
        <ele>1027</ele>
        <time>2020-09-06T09:29:13.390Z</time>
      </trkpt>
      <trkpt lat="48.40774" lon="7.26299">
        <ele>1027</ele>
        <time>2020-09-06T09:29:14.390Z</time>
      </trkpt>
      <trkpt lat="48.40774" lon="7.26298">
        <ele>1026</ele>
        <time>2020-09-06T09:29:15.390Z</time>
      </trkpt>
      <trkpt lat="48.40774" lon="7.26296">
        <ele>1026</ele>
        <time>2020-09-06T09:29:16.391Z</time>
      </trkpt>
      <trkpt lat="48.40774" lon="7.26295">
        <ele>1025</ele>
        <time>2020-09-06T09:29:17.391Z</time>
      </trkpt>
      <trkpt lat="48.40774" lon="7.26293">
        <ele>1025</ele>
        <time>2020-09-06T09:29:18.391Z</time>
      </trkpt>
      <trkpt lat="48.40773" lon="7.26292">
        <ele>1025</ele>
        <time>2020-09-06T09:29:19.390Z</time>
      </trkpt>
      <trkpt lat="48.40773" lon="7.2629">
        <ele>1025</ele>
        <time>2020-09-06T09:29:20.390Z</time>
      </trkpt>
      <trkpt lat="48.40773" lon="7.26289">
        <ele>1025</ele>
        <time>2020-09-06T09:29:21.390Z</time>
      </trkpt>
      <trkpt lat="48.40772" lon="7.26287">
        <ele>1025</ele>
        <time>2020-09-06T09:29:22.391Z</time>
      </trkpt>
      <trkpt lat="48.40772" lon="7.26285">
        <ele>1025</ele>
        <time>2020-09-06T09:29:23.391Z</time>
      </trkpt>
      <trkpt lat="48.40772" lon="7.26284">
        <ele>1025</ele>
        <time>2020-09-06T09:29:24.390Z</time>
      </trkpt>
      <trkpt lat="48.40771" lon="7.26282">
        <ele>1025</ele>
        <time>2020-09-06T09:29:25.390Z</time>
      </trkpt>
      <trkpt lat="48.40771" lon="7.26281">
        <ele>1025</ele>
        <time>2020-09-06T09:29:26.390Z</time>
      </trkpt>
      <trkpt lat="48.40771" lon="7.26279">
        <ele>1025</ele>
        <time>2020-09-06T09:29:27.391Z</time>
      </trkpt>
      <trkpt lat="48.40771" lon="7.26278">
        <ele>1025</ele>
        <time>2020-09-06T09:29:28.390Z</time>
      </trkpt>
      <trkpt lat="48.4077" lon="7.26277">
        <ele>1025</ele>
        <time>2020-09-06T09:29:29.390Z</time>
      </trkpt>
      <trkpt lat="48.4077" lon="7.26276">
        <ele>1025</ele>
        <time>2020-09-06T09:29:30.390Z</time>
      </trkpt>
      <trkpt lat="48.4077" lon="7.26274">
        <ele>1024</ele>
        <time>2020-09-06T09:29:31.390Z</time>
      </trkpt>
      <trkpt lat="48.40769" lon="7.26273">
        <ele>1025</ele>
        <time>2020-09-06T09:29:32.391Z</time>
      </trkpt>
      <trkpt lat="48.40769" lon="7.26272">
        <ele>1024</ele>
        <time>2020-09-06T09:29:33.391Z</time>
      </trkpt>
      <trkpt lat="48.40769" lon="7.2627">
        <ele>1024</ele>
        <time>2020-09-06T09:29:34.390Z</time>
      </trkpt>
      <trkpt lat="48.40769" lon="7.26269">
        <ele>1024</ele>
        <time>2020-09-06T09:29:35.390Z</time>
      </trkpt>
      <trkpt lat="48.40769" lon="7.26267">
        <ele>1024</ele>
        <time>2020-09-06T09:29:36.390Z</time>
      </trkpt>
      <trkpt lat="48.40769" lon="7.26266">
        <ele>1024</ele>
        <time>2020-09-06T09:29:37.390Z</time>
      </trkpt>
      <trkpt lat="48.40769" lon="7.26265">
        <ele>1023</ele>
        <time>2020-09-06T09:29:38.390Z</time>
      </trkpt>
      <trkpt lat="48.40768" lon="7.26264">
        <ele>1023</ele>
        <time>2020-09-06T09:29:39.390Z</time>
      </trkpt>
      <trkpt lat="48.40768" lon="7.26263">
        <ele>1022</ele>
        <time>2020-09-06T09:29:40.390Z</time>
      </trkpt>
      <trkpt lat="48.40768" lon="7.26262">
        <ele>1022</ele>
        <time>2020-09-06T09:29:41.390Z</time>
      </trkpt>
      <trkpt lat="48.40768" lon="7.2626">
        <ele>1021</ele>
        <time>2020-09-06T09:29:42.391Z</time>
      </trkpt>
      <trkpt lat="48.40768" lon="7.26259">
        <ele>1021</ele>
        <time>2020-09-06T09:29:43.390Z</time>
      </trkpt>
      <trkpt lat="48.40767" lon="7.26258">
        <ele>1020</ele>
        <time>2020-09-06T09:29:44.391Z</time>
      </trkpt>
      <trkpt lat="48.40767" lon="7.26257">
        <ele>1020</ele>
        <time>2020-09-06T09:29:45.390Z</time>
      </trkpt>
      <trkpt lat="48.40767" lon="7.26255">
        <ele>1020</ele>
        <time>2020-09-06T09:29:46.391Z</time>
      </trkpt>
      <trkpt lat="48.40767" lon="7.26254">
        <ele>1020</ele>
        <time>2020-09-06T09:29:47.391Z</time>
      </trkpt>
      <trkpt lat="48.40767" lon="7.26252">
        <ele>1020</ele>
        <time>2020-09-06T09:29:48.390Z</time>
      </trkpt>
      <trkpt lat="48.40766" lon="7.26251">
        <ele>1020</ele>
        <time>2020-09-06T09:29:49.390Z</time>
      </trkpt>
      <trkpt lat="48.40766" lon="7.26249">
        <ele>1020</ele>
        <time>2020-09-06T09:29:50.390Z</time>
      </trkpt>
      <trkpt lat="48.40767" lon="7.26248">
        <ele>1020</ele>
        <time>2020-09-06T09:29:51.390Z</time>
      </trkpt>
      <trkpt lat="48.40767" lon="7.26246">
        <ele>1020</ele>
        <time>2020-09-06T09:29:52.390Z</time>
      </trkpt>
      <trkpt lat="48.40767" lon="7.26245">
        <ele>1019</ele>
        <time>2020-09-06T09:29:53.391Z</time>
      </trkpt>
      <trkpt lat="48.40767" lon="7.26244">
        <ele>1019</ele>
        <time>2020-09-06T09:29:54.391Z</time>
      </trkpt>
      <trkpt lat="48.40767" lon="7.26243">
        <ele>1018</ele>
        <time>2020-09-06T09:29:55.391Z</time>
      </trkpt>
      <trkpt lat="48.40767" lon="7.26241">
        <ele>1018</ele>
        <time>2020-09-06T09:29:56.391Z</time>
      </trkpt>
      <trkpt lat="48.40767" lon="7.26239">
        <ele>1018</ele>
        <time>2020-09-06T09:29:57.391Z</time>
      </trkpt>
      <trkpt lat="48.40767" lon="7.26238">
        <ele>1017</ele>
        <time>2020-09-06T09:29:58.390Z</time>
      </trkpt>
      <trkpt lat="48.40768" lon="7.26236">
        <ele>1017</ele>
        <time>2020-09-06T09:29:59.390Z</time>
      </trkpt>
      <trkpt lat="48.40768" lon="7.26234">
        <ele>1017</ele>
        <time>2020-09-06T09:30:00.391Z</time>
      </trkpt>
      <trkpt lat="48.40768" lon="7.26233">
        <ele>1016</ele>
        <time>2020-09-06T09:30:01.390Z</time>
      </trkpt>
      <trkpt lat="48.40768" lon="7.26231">
        <ele>1016</ele>
        <time>2020-09-06T09:30:02.391Z</time>
      </trkpt>
      <trkpt lat="48.40768" lon="7.2623">
        <ele>1015</ele>
        <time>2020-09-06T09:30:03.390Z</time>
      </trkpt>
      <trkpt lat="48.40768" lon="7.26229">
        <ele>1015</ele>
        <time>2020-09-06T09:30:04.390Z</time>
      </trkpt>
      <trkpt lat="48.40767" lon="7.26227">
        <ele>1014</ele>
        <time>2020-09-06T09:30:05.391Z</time>
      </trkpt>
      <trkpt lat="48.40767" lon="7.26226">
        <ele>1014</ele>
        <time>2020-09-06T09:30:06.390Z</time>
      </trkpt>
      <trkpt lat="48.40767" lon="7.26224">
        <ele>1014</ele>
        <time>2020-09-06T09:30:07.390Z</time>
      </trkpt>
      <trkpt lat="48.40767" lon="7.26223">
        <ele>1013</ele>
        <time>2020-09-06T09:30:08.390Z</time>
      </trkpt>
      <trkpt lat="48.40767" lon="7.26221">
        <ele>1013</ele>
        <time>2020-09-06T09:30:09.391Z</time>
      </trkpt>
      <trkpt lat="48.40767" lon="7.26219">
        <ele>1013</ele>
        <time>2020-09-06T09:30:10.391Z</time>
      </trkpt>
      <trkpt lat="48.40767" lon="7.26218">
        <ele>1012</ele>
        <time>2020-09-06T09:30:11.390Z</time>
      </trkpt>
      <trkpt lat="48.40767" lon="7.26216">
        <ele>1012</ele>
        <time>2020-09-06T09:30:12.391Z</time>
      </trkpt>
      <trkpt lat="48.40767" lon="7.26215">
        <ele>1012</ele>
        <time>2020-09-06T09:30:13.391Z</time>
      </trkpt>
      <trkpt lat="48.40768" lon="7.26213">
        <ele>1011</ele>
        <time>2020-09-06T09:30:14.391Z</time>
      </trkpt>
      <trkpt lat="48.40768" lon="7.26212">
        <ele>1011</ele>
        <time>2020-09-06T09:30:15.391Z</time>
      </trkpt>
      <trkpt lat="48.40767" lon="7.26211">
        <ele>1012</ele>
        <time>2020-09-06T09:30:16.391Z</time>
      </trkpt>
      <trkpt lat="48.40767" lon="7.26209">
        <ele>1012</ele>
        <time>2020-09-06T09:30:17.391Z</time>
      </trkpt>
      <trkpt lat="48.40767" lon="7.26207">
        <ele>1012</ele>
        <time>2020-09-06T09:30:18.390Z</time>
      </trkpt>
      <trkpt lat="48.40766" lon="7.26206">
        <ele>1012</ele>
        <time>2020-09-06T09:30:19.390Z</time>
      </trkpt>
      <trkpt lat="48.40766" lon="7.26204">
        <ele>1011</ele>
        <time>2020-09-06T09:30:20.391Z</time>
      </trkpt>
      <trkpt lat="48.40766" lon="7.26202">
        <ele>1011</ele>
        <time>2020-09-06T09:30:21.391Z</time>
      </trkpt>
      <trkpt lat="48.40765" lon="7.262">
        <ele>1011</ele>
        <time>2020-09-06T09:30:22.390Z</time>
      </trkpt>
      <trkpt lat="48.40765" lon="7.26199">
        <ele>1011</ele>
        <time>2020-09-06T09:30:23.391Z</time>
      </trkpt>
      <trkpt lat="48.40764" lon="7.26197">
        <ele>1011</ele>
        <time>2020-09-06T09:30:24.390Z</time>
      </trkpt>
      <trkpt lat="48.40764" lon="7.26195">
        <ele>1011</ele>
        <time>2020-09-06T09:30:25.390Z</time>
      </trkpt>
      <trkpt lat="48.40764" lon="7.26194">
        <ele>1011</ele>
        <time>2020-09-06T09:30:26.391Z</time>
      </trkpt>
      <trkpt lat="48.40763" lon="7.26192">
        <ele>1011</ele>
        <time>2020-09-06T09:30:27.390Z</time>
      </trkpt>
      <trkpt lat="48.40763" lon="7.26191">
        <ele>1011</ele>
        <time>2020-09-06T09:30:28.391Z</time>
      </trkpt>
      <trkpt lat="48.40762" lon="7.26189">
        <ele>1010</ele>
        <time>2020-09-06T09:30:29.390Z</time>
      </trkpt>
      <trkpt lat="48.40762" lon="7.26188">
        <ele>1010</ele>
        <time>2020-09-06T09:30:30.391Z</time>
      </trkpt>
      <trkpt lat="48.40761" lon="7.26187">
        <ele>1010</ele>
        <time>2020-09-06T09:30:31.390Z</time>
      </trkpt>
      <trkpt lat="48.4076" lon="7.26185">
        <ele>1011</ele>
        <time>2020-09-06T09:30:32.390Z</time>
      </trkpt>
      <trkpt lat="48.4076" lon="7.26184">
        <ele>1011</ele>
        <time>2020-09-06T09:30:33.390Z</time>
      </trkpt>
      <trkpt lat="48.4076" lon="7.26182">
        <ele>1011</ele>
        <time>2020-09-06T09:30:34.390Z</time>
      </trkpt>
      <trkpt lat="48.40759" lon="7.26181">
        <ele>1011</ele>
        <time>2020-09-06T09:30:35.390Z</time>
      </trkpt>
      <trkpt lat="48.40758" lon="7.26179">
        <ele>1011</ele>
        <time>2020-09-06T09:30:36.390Z</time>
      </trkpt>
      <trkpt lat="48.40758" lon="7.26177">
        <ele>1011</ele>
        <time>2020-09-06T09:30:37.391Z</time>
      </trkpt>
      <trkpt lat="48.40758" lon="7.26175">
        <ele>1011</ele>
        <time>2020-09-06T09:30:38.390Z</time>
      </trkpt>
      <trkpt lat="48.40758" lon="7.26173">
        <ele>1010</ele>
        <time>2020-09-06T09:30:39.390Z</time>
      </trkpt>
      <trkpt lat="48.40757" lon="7.26171">
        <ele>1010</ele>
        <time>2020-09-06T09:30:40.391Z</time>
      </trkpt>
      <trkpt lat="48.40757" lon="7.2617">
        <ele>1009</ele>
        <time>2020-09-06T09:30:41.391Z</time>
      </trkpt>
      <trkpt lat="48.40757" lon="7.26168">
        <ele>1009</ele>
        <time>2020-09-06T09:30:42.390Z</time>
      </trkpt>
      <trkpt lat="48.40757" lon="7.26166">
        <ele>1009</ele>
        <time>2020-09-06T09:30:43.391Z</time>
      </trkpt>
      <trkpt lat="48.40757" lon="7.26164">
        <ele>1009</ele>
        <time>2020-09-06T09:30:44.390Z</time>
      </trkpt>
      <trkpt lat="48.40757" lon="7.26163">
        <ele>1009</ele>
        <time>2020-09-06T09:30:45.391Z</time>
      </trkpt>
      <trkpt lat="48.40757" lon="7.26161">
        <ele>1009</ele>
        <time>2020-09-06T09:30:46.390Z</time>
      </trkpt>
      <trkpt lat="48.40757" lon="7.26159">
        <ele>1008</ele>
        <time>2020-09-06T09:30:47.390Z</time>
      </trkpt>
      <trkpt lat="48.40757" lon="7.26158">
        <ele>1008</ele>
        <time>2020-09-06T09:30:48.391Z</time>
      </trkpt>
      <trkpt lat="48.40756" lon="7.26156">
        <ele>1007</ele>
        <time>2020-09-06T09:30:49.391Z</time>
      </trkpt>
      <trkpt lat="48.40756" lon="7.26154">
        <ele>1007</ele>
        <time>2020-09-06T09:30:50.391Z</time>
      </trkpt>
      <trkpt lat="48.40756" lon="7.26152">
        <ele>1007</ele>
        <time>2020-09-06T09:30:51.390Z</time>
      </trkpt>
      <trkpt lat="48.40755" lon="7.26151">
        <ele>1007</ele>
        <time>2020-09-06T09:30:52.390Z</time>
      </trkpt>
      <trkpt lat="48.40755" lon="7.26149">
        <ele>1007</ele>
        <time>2020-09-06T09:30:53.390Z</time>
      </trkpt>
      <trkpt lat="48.40755" lon="7.26147">
        <ele>1007</ele>
        <time>2020-09-06T09:30:54.390Z</time>
      </trkpt>
      <trkpt lat="48.40754" lon="7.26145">
        <ele>1007</ele>
        <time>2020-09-06T09:30:55.391Z</time>
      </trkpt>
      <trkpt lat="48.40754" lon="7.26144">
        <ele>1007</ele>
        <time>2020-09-06T09:30:56.391Z</time>
      </trkpt>
      <trkpt lat="48.40753" lon="7.26143">
        <ele>1007</ele>
        <time>2020-09-06T09:30:57.390Z</time>
      </trkpt>
      <trkpt lat="48.40753" lon="7.26141">
        <ele>1006</ele>
        <time>2020-09-06T09:30:58.390Z</time>
      </trkpt>
      <trkpt lat="48.40752" lon="7.2614">
        <ele>1006</ele>
        <time>2020-09-06T09:30:59.390Z</time>
      </trkpt>
      <trkpt lat="48.40752" lon="7.26139">
        <ele>1005</ele>
        <time>2020-09-06T09:31:00.390Z</time>
      </trkpt>
      <trkpt lat="48.40751" lon="7.26138">
        <ele>1005</ele>
        <time>2020-09-06T09:31:01.391Z</time>
      </trkpt>
      <trkpt lat="48.40751" lon="7.26137">
        <ele>1005</ele>
        <time>2020-09-06T09:31:02.390Z</time>
      </trkpt>
      <trkpt lat="48.4075" lon="7.26136">
        <ele>1006</ele>
        <time>2020-09-06T09:31:03.391Z</time>
      </trkpt>
      <trkpt lat="48.40749" lon="7.26134">
        <ele>1006</ele>
        <time>2020-09-06T09:31:04.391Z</time>
      </trkpt>
      <trkpt lat="48.40749" lon="7.26133">
        <ele>1006</ele>
        <time>2020-09-06T09:31:05.390Z</time>
      </trkpt>
      <trkpt lat="48.40748" lon="7.26132">
        <ele>1006</ele>
        <time>2020-09-06T09:31:06.390Z</time>
      </trkpt>
      <trkpt lat="48.40747" lon="7.26131">
        <ele>1006</ele>
        <time>2020-09-06T09:31:07.390Z</time>
      </trkpt>
      <trkpt lat="48.40746" lon="7.2613">
        <ele>1006</ele>
        <time>2020-09-06T09:31:08.390Z</time>
      </trkpt>
      <trkpt lat="48.40745" lon="7.26129">
        <ele>1006</ele>
        <time>2020-09-06T09:31:09.390Z</time>
      </trkpt>
      <trkpt lat="48.40745" lon="7.26127">
        <ele>1007</ele>
        <time>2020-09-06T09:31:10.391Z</time>
      </trkpt>
      <trkpt lat="48.40744" lon="7.26126">
        <ele>1006</ele>
        <time>2020-09-06T09:31:11.390Z</time>
      </trkpt>
      <trkpt lat="48.40744" lon="7.26125">
        <ele>1006</ele>
        <time>2020-09-06T09:31:12.390Z</time>
      </trkpt>
      <trkpt lat="48.40743" lon="7.26125">
        <ele>1006</ele>
        <time>2020-09-06T09:31:13.390Z</time>
      </trkpt>
      <trkpt lat="48.40742" lon="7.26124">
        <ele>1006</ele>
        <time>2020-09-06T09:31:14.390Z</time>
      </trkpt>
      <trkpt lat="48.40741" lon="7.26123">
        <ele>1006</ele>
        <time>2020-09-06T09:31:15.390Z</time>
      </trkpt>
      <trkpt lat="48.40741" lon="7.26122">
        <ele>1006</ele>
        <time>2020-09-06T09:31:16.391Z</time>
      </trkpt>
      <trkpt lat="48.4074" lon="7.26121">
        <ele>1006</ele>
        <time>2020-09-06T09:31:17.390Z</time>
      </trkpt>
      <trkpt lat="48.4074" lon="7.2612">
        <ele>1005</ele>
        <time>2020-09-06T09:31:18.390Z</time>
      </trkpt>
      <trkpt lat="48.40739" lon="7.26119">
        <ele>1005</ele>
        <time>2020-09-06T09:31:19.391Z</time>
      </trkpt>
      <trkpt lat="48.4074" lon="7.26118">
        <ele>1005</ele>
        <time>2020-09-06T09:31:20.391Z</time>
      </trkpt>
      <trkpt lat="48.4074" lon="7.26117">
        <ele>1005</ele>
        <time>2020-09-06T09:31:21.390Z</time>
      </trkpt>
      <trkpt lat="48.4074" lon="7.26117">
        <ele>1005</ele>
        <time>2020-09-06T09:31:22.391Z</time>
      </trkpt>
      <trkpt lat="48.40742" lon="7.26114">
        <ele>1005</ele>
        <time>2020-09-06T09:31:23.391Z</time>
      </trkpt>
      <trkpt lat="48.40741" lon="7.26114">
        <ele>1005</ele>
        <time>2020-09-06T09:31:24.391Z</time>
      </trkpt>
      <trkpt lat="48.4074" lon="7.26114">
        <ele>1006</ele>
        <time>2020-09-06T09:31:25.392Z</time>
      </trkpt>
      <trkpt lat="48.4074" lon="7.26112">
        <ele>1006</ele>
        <time>2020-09-06T09:31:26.391Z</time>
      </trkpt>
      <trkpt lat="48.40738" lon="7.26112">
        <ele>1006</ele>
        <time>2020-09-06T09:31:27.392Z</time>
      </trkpt>
      <trkpt lat="48.40738" lon="7.26112">
        <ele>1006</ele>
        <time>2020-09-06T09:31:28.391Z</time>
      </trkpt>
      <trkpt lat="48.40738" lon="7.26111">
        <ele>1006</ele>
        <time>2020-09-06T09:31:29.392Z</time>
      </trkpt>
      <trkpt lat="48.40737" lon="7.26109">
        <ele>1006</ele>
        <time>2020-09-06T09:31:30.391Z</time>
      </trkpt>
      <trkpt lat="48.40737" lon="7.26108">
        <ele>1006</ele>
        <time>2020-09-06T09:31:31.391Z</time>
      </trkpt>
      <trkpt lat="48.40737" lon="7.26107">
        <ele>1006</ele>
        <time>2020-09-06T09:31:32.392Z</time>
      </trkpt>
      <trkpt lat="48.40737" lon="7.26106">
        <ele>1006</ele>
        <time>2020-09-06T09:31:33.392Z</time>
      </trkpt>
      <trkpt lat="48.40737" lon="7.26105">
        <ele>1006</ele>
        <time>2020-09-06T09:31:34.392Z</time>
      </trkpt>
      <trkpt lat="48.40736" lon="7.26104">
        <ele>1005</ele>
        <time>2020-09-06T09:31:35.391Z</time>
      </trkpt>
      <trkpt lat="48.40736" lon="7.26102">
        <ele>1005</ele>
        <time>2020-09-06T09:31:36.391Z</time>
      </trkpt>
      <trkpt lat="48.40737" lon="7.26102">
        <ele>1005</ele>
        <time>2020-09-06T09:31:37.392Z</time>
      </trkpt>
      <trkpt lat="48.40736" lon="7.261">
        <ele>1006</ele>
        <time>2020-09-06T09:31:38.391Z</time>
      </trkpt>
      <trkpt lat="48.40736" lon="7.26099">
        <ele>1007</ele>
        <time>2020-09-06T09:31:39.391Z</time>
      </trkpt>
      <trkpt lat="48.40736" lon="7.26098">
        <ele>1007</ele>
        <time>2020-09-06T09:31:40.391Z</time>
      </trkpt>
      <trkpt lat="48.40735" lon="7.26096">
        <ele>1008</ele>
        <time>2020-09-06T09:31:41.391Z</time>
      </trkpt>
      <trkpt lat="48.40735" lon="7.26095">
        <ele>1009</ele>
        <time>2020-09-06T09:31:42.392Z</time>
      </trkpt>
      <trkpt lat="48.40735" lon="7.26094">
        <ele>1009</ele>
        <time>2020-09-06T09:31:43.391Z</time>
      </trkpt>
      <trkpt lat="48.40735" lon="7.26093">
        <ele>1009</ele>
        <time>2020-09-06T09:31:44.391Z</time>
      </trkpt>
      <trkpt lat="48.40735" lon="7.26093">
        <ele>1009</ele>
        <time>2020-09-06T09:31:45.392Z</time>
      </trkpt>
      <trkpt lat="48.40734" lon="7.26092">
        <ele>1009</ele>
        <time>2020-09-06T09:31:46.392Z</time>
      </trkpt>
      <trkpt lat="48.40733" lon="7.2609">
        <ele>1009</ele>
        <time>2020-09-06T09:31:47.391Z</time>
      </trkpt>
      <trkpt lat="48.40733" lon="7.26089">
        <ele>1008</ele>
        <time>2020-09-06T09:31:48.391Z</time>
      </trkpt>
      <trkpt lat="48.40732" lon="7.26089">
        <ele>1008</ele>
        <time>2020-09-06T09:31:49.392Z</time>
      </trkpt>
      <trkpt lat="48.40732" lon="7.26088">
        <ele>1008</ele>
        <time>2020-09-06T09:31:51.505Z</time>
      </trkpt>
      <trkpt lat="48.40731" lon="7.26087">
        <ele>1008</ele>
        <time>2020-09-06T09:31:52.504Z</time>
      </trkpt>
      <trkpt lat="48.40731" lon="7.26086">
        <ele>1007</ele>
        <time>2020-09-06T09:31:53.505Z</time>
      </trkpt>
      <trkpt lat="48.40731" lon="7.26085">
        <ele>1007</ele>
        <time>2020-09-06T09:31:54.505Z</time>
      </trkpt>
      <trkpt lat="48.4073" lon="7.26084">
        <ele>1006</ele>
        <time>2020-09-06T09:31:55.505Z</time>
      </trkpt>
      <trkpt lat="48.4073" lon="7.26083">
        <ele>1006</ele>
        <time>2020-09-06T09:31:56.504Z</time>
      </trkpt>
      <trkpt lat="48.4073" lon="7.26083">
        <ele>1006</ele>
        <time>2020-09-06T09:31:57.505Z</time>
      </trkpt>
      <trkpt lat="48.4073" lon="7.26082">
        <ele>1006</ele>
        <time>2020-09-06T09:31:58.504Z</time>
      </trkpt>
      <trkpt lat="48.40729" lon="7.26081">
        <ele>1006</ele>
        <time>2020-09-06T09:31:59.504Z</time>
      </trkpt>
      <trkpt lat="48.40729" lon="7.26081">
        <ele>1006</ele>
        <time>2020-09-06T09:32:00.504Z</time>
      </trkpt>
      <trkpt lat="48.40729" lon="7.2608">
        <ele>1007</ele>
        <time>2020-09-06T09:32:01.505Z</time>
      </trkpt>
      <trkpt lat="48.40728" lon="7.26079">
        <ele>1007</ele>
        <time>2020-09-06T09:32:02.504Z</time>
      </trkpt>
      <trkpt lat="48.40728" lon="7.26077">
        <ele>1007</ele>
        <time>2020-09-06T09:32:03.505Z</time>
      </trkpt>
      <trkpt lat="48.40728" lon="7.26076">
        <ele>1007</ele>
        <time>2020-09-06T09:32:04.504Z</time>
      </trkpt>
      <trkpt lat="48.40728" lon="7.26074">
        <ele>1008</ele>
        <time>2020-09-06T09:32:05.504Z</time>
      </trkpt>
      <trkpt lat="48.40727" lon="7.26073">
        <ele>1008</ele>
        <time>2020-09-06T09:32:06.505Z</time>
      </trkpt>
      <trkpt lat="48.40726" lon="7.26072">
        <ele>1009</ele>
        <time>2020-09-06T09:32:07.504Z</time>
      </trkpt>
      <trkpt lat="48.40726" lon="7.2607">
        <ele>1009</ele>
        <time>2020-09-06T09:32:08.504Z</time>
      </trkpt>
      <trkpt lat="48.40726" lon="7.26068">
        <ele>1009</ele>
        <time>2020-09-06T09:32:09.504Z</time>
      </trkpt>
      <trkpt lat="48.40726" lon="7.26067">
        <ele>1010</ele>
        <time>2020-09-06T09:32:10.504Z</time>
      </trkpt>
      <trkpt lat="48.40726" lon="7.26066">
        <ele>1010</ele>
        <time>2020-09-06T09:32:11.504Z</time>
      </trkpt>
      <trkpt lat="48.40726" lon="7.26064">
        <ele>1010</ele>
        <time>2020-09-06T09:32:12.504Z</time>
      </trkpt>
      <trkpt lat="48.40726" lon="7.26062">
        <ele>1011</ele>
        <time>2020-09-06T09:32:13.504Z</time>
      </trkpt>
      <trkpt lat="48.40726" lon="7.26061">
        <ele>1011</ele>
        <time>2020-09-06T09:32:14.504Z</time>
      </trkpt>
      <trkpt lat="48.40726" lon="7.26059">
        <ele>1011</ele>
        <time>2020-09-06T09:32:15.504Z</time>
      </trkpt>
      <trkpt lat="48.40726" lon="7.26057">
        <ele>1012</ele>
        <time>2020-09-06T09:32:16.504Z</time>
      </trkpt>
      <trkpt lat="48.40726" lon="7.26056">
        <ele>1012</ele>
        <time>2020-09-06T09:32:17.504Z</time>
      </trkpt>
      <trkpt lat="48.40726" lon="7.26055">
        <ele>1012</ele>
        <time>2020-09-06T09:32:18.505Z</time>
      </trkpt>
      <trkpt lat="48.40726" lon="7.26054">
        <ele>1013</ele>
        <time>2020-09-06T09:32:19.504Z</time>
      </trkpt>
      <trkpt lat="48.40725" lon="7.26052">
        <ele>1013</ele>
        <time>2020-09-06T09:32:20.505Z</time>
      </trkpt>
      <trkpt lat="48.40725" lon="7.26051">
        <ele>1013</ele>
        <time>2020-09-06T09:32:21.504Z</time>
      </trkpt>
      <trkpt lat="48.40725" lon="7.2605">
        <ele>1013</ele>
        <time>2020-09-06T09:32:22.505Z</time>
      </trkpt>
      <trkpt lat="48.40725" lon="7.26048">
        <ele>1013</ele>
        <time>2020-09-06T09:32:23.505Z</time>
      </trkpt>
      <trkpt lat="48.40725" lon="7.26046">
        <ele>1012</ele>
        <time>2020-09-06T09:32:24.504Z</time>
      </trkpt>
      <trkpt lat="48.40725" lon="7.26045">
        <ele>1012</ele>
        <time>2020-09-06T09:32:25.505Z</time>
      </trkpt>
      <trkpt lat="48.40725" lon="7.26044">
        <ele>1011</ele>
        <time>2020-09-06T09:32:26.504Z</time>
      </trkpt>
      <trkpt lat="48.40725" lon="7.26043">
        <ele>1011</ele>
        <time>2020-09-06T09:32:27.505Z</time>
      </trkpt>
      <trkpt lat="48.40726" lon="7.26042">
        <ele>1010</ele>
        <time>2020-09-06T09:32:28.505Z</time>
      </trkpt>
      <trkpt lat="48.40725" lon="7.2604">
        <ele>1009</ele>
        <time>2020-09-06T09:32:29.505Z</time>
      </trkpt>
      <trkpt lat="48.40725" lon="7.26038">
        <ele>1009</ele>
        <time>2020-09-06T09:32:30.505Z</time>
      </trkpt>
      <trkpt lat="48.40725" lon="7.26036">
        <ele>1008</ele>
        <time>2020-09-06T09:32:31.504Z</time>
      </trkpt>
      <trkpt lat="48.40725" lon="7.26034">
        <ele>1008</ele>
        <time>2020-09-06T09:32:32.504Z</time>
      </trkpt>
      <trkpt lat="48.40725" lon="7.26033">
        <ele>1008</ele>
        <time>2020-09-06T09:32:33.505Z</time>
      </trkpt>
      <trkpt lat="48.40725" lon="7.26032">
        <ele>1008</ele>
        <time>2020-09-06T09:32:34.505Z</time>
      </trkpt>
      <trkpt lat="48.40724" lon="7.26031">
        <ele>1007</ele>
        <time>2020-09-06T09:32:35.504Z</time>
      </trkpt>
      <trkpt lat="48.40724" lon="7.26029">
        <ele>1007</ele>
        <time>2020-09-06T09:32:36.504Z</time>
      </trkpt>
      <trkpt lat="48.40723" lon="7.26028">
        <ele>1007</ele>
        <time>2020-09-06T09:32:37.504Z</time>
      </trkpt>
      <trkpt lat="48.40723" lon="7.26026">
        <ele>1006</ele>
        <time>2020-09-06T09:32:38.504Z</time>
      </trkpt>
      <trkpt lat="48.40722" lon="7.26025">
        <ele>1005</ele>
        <time>2020-09-06T09:32:39.505Z</time>
      </trkpt>
      <trkpt lat="48.40722" lon="7.26024">
        <ele>1005</ele>
        <time>2020-09-06T09:32:40.504Z</time>
      </trkpt>
      <trkpt lat="48.40721" lon="7.26023">
        <ele>1004</ele>
        <time>2020-09-06T09:32:41.504Z</time>
      </trkpt>
      <trkpt lat="48.40721" lon="7.26022">
        <ele>1003</ele>
        <time>2020-09-06T09:32:42.504Z</time>
      </trkpt>
      <trkpt lat="48.4072" lon="7.26022">
        <ele>1003</ele>
        <time>2020-09-06T09:32:43.505Z</time>
      </trkpt>
      <trkpt lat="48.40719" lon="7.26021">
        <ele>1003</ele>
        <time>2020-09-06T09:32:44.505Z</time>
      </trkpt>
      <trkpt lat="48.40719" lon="7.2602">
        <ele>1003</ele>
        <time>2020-09-06T09:32:45.504Z</time>
      </trkpt>
      <trkpt lat="48.40718" lon="7.26019">
        <ele>1003</ele>
        <time>2020-09-06T09:32:46.504Z</time>
      </trkpt>
      <trkpt lat="48.40717" lon="7.26019">
        <ele>1003</ele>
        <time>2020-09-06T09:32:47.505Z</time>
      </trkpt>
      <trkpt lat="48.40716" lon="7.26018">
        <ele>1002</ele>
        <time>2020-09-06T09:32:48.505Z</time>
      </trkpt>
      <trkpt lat="48.40715" lon="7.26017">
        <ele>1002</ele>
        <time>2020-09-06T09:32:49.504Z</time>
      </trkpt>
      <trkpt lat="48.40714" lon="7.26016">
        <ele>1001</ele>
        <time>2020-09-06T09:32:50.505Z</time>
      </trkpt>
      <trkpt lat="48.40713" lon="7.26015">
        <ele>1001</ele>
        <time>2020-09-06T09:32:51.504Z</time>
      </trkpt>
      <trkpt lat="48.40712" lon="7.26014">
        <ele>1001</ele>
        <time>2020-09-06T09:32:52.504Z</time>
      </trkpt>
      <trkpt lat="48.40711" lon="7.26013">
        <ele>1000</ele>
        <time>2020-09-06T09:32:53.504Z</time>
      </trkpt>
      <trkpt lat="48.40711" lon="7.26012">
        <ele>1000</ele>
        <time>2020-09-06T09:32:54.505Z</time>
      </trkpt>
      <trkpt lat="48.4071" lon="7.26011">
        <ele>1000</ele>
        <time>2020-09-06T09:32:55.504Z</time>
      </trkpt>
      <trkpt lat="48.40709" lon="7.2601">
        <ele>1000</ele>
        <time>2020-09-06T09:32:56.505Z</time>
      </trkpt>
      <trkpt lat="48.40708" lon="7.26009">
        <ele>1000</ele>
        <time>2020-09-06T09:32:57.505Z</time>
      </trkpt>
      <trkpt lat="48.40707" lon="7.26008">
        <ele>1000</ele>
        <time>2020-09-06T09:32:58.504Z</time>
      </trkpt>
      <trkpt lat="48.40706" lon="7.26006">
        <ele>1000</ele>
        <time>2020-09-06T09:32:59.505Z</time>
      </trkpt>
      <trkpt lat="48.40705" lon="7.26005">
        <ele>1000</ele>
        <time>2020-09-06T09:33:00.505Z</time>
      </trkpt>
      <trkpt lat="48.40704" lon="7.26004">
        <ele>1000</ele>
        <time>2020-09-06T09:33:01.504Z</time>
      </trkpt>
      <trkpt lat="48.40703" lon="7.26003">
        <ele>1000</ele>
        <time>2020-09-06T09:33:02.504Z</time>
      </trkpt>
      <trkpt lat="48.40702" lon="7.26001">
        <ele>1000</ele>
        <time>2020-09-06T09:33:03.504Z</time>
      </trkpt>
      <trkpt lat="48.40702" lon="7.26">
        <ele>1000</ele>
        <time>2020-09-06T09:33:04.504Z</time>
      </trkpt>
      <trkpt lat="48.40701" lon="7.25998">
        <ele>1000</ele>
        <time>2020-09-06T09:33:05.504Z</time>
      </trkpt>
      <trkpt lat="48.40701" lon="7.25997">
        <ele>1000</ele>
        <time>2020-09-06T09:33:06.505Z</time>
      </trkpt>
      <trkpt lat="48.407" lon="7.25996">
        <ele>1000</ele>
        <time>2020-09-06T09:33:07.504Z</time>
      </trkpt>
      <trkpt lat="48.40699" lon="7.25995">
        <ele>1000</ele>
        <time>2020-09-06T09:33:08.504Z</time>
      </trkpt>
      <trkpt lat="48.40699" lon="7.25993">
        <ele>1000</ele>
        <time>2020-09-06T09:33:09.504Z</time>
      </trkpt>
      <trkpt lat="48.40698" lon="7.25992">
        <ele>999</ele>
        <time>2020-09-06T09:33:10.505Z</time>
      </trkpt>
      <trkpt lat="48.40697" lon="7.25991">
        <ele>999</ele>
        <time>2020-09-06T09:33:11.504Z</time>
      </trkpt>
      <trkpt lat="48.40697" lon="7.2599">
        <ele>999</ele>
        <time>2020-09-06T09:33:12.505Z</time>
      </trkpt>
      <trkpt lat="48.40696" lon="7.25989">
        <ele>999</ele>
        <time>2020-09-06T09:33:13.505Z</time>
      </trkpt>
      <trkpt lat="48.40696" lon="7.25987">
        <ele>999</ele>
        <time>2020-09-06T09:33:14.504Z</time>
      </trkpt>
      <trkpt lat="48.40695" lon="7.25985">
        <ele>998</ele>
        <time>2020-09-06T09:33:15.505Z</time>
      </trkpt>
      <trkpt lat="48.40694" lon="7.25984">
        <ele>998</ele>
        <time>2020-09-06T09:33:16.504Z</time>
      </trkpt>
      <trkpt lat="48.40694" lon="7.25982">
        <ele>998</ele>
        <time>2020-09-06T09:33:17.504Z</time>
      </trkpt>
      <trkpt lat="48.40693" lon="7.25981">
        <ele>998</ele>
        <time>2020-09-06T09:33:18.504Z</time>
      </trkpt>
      <trkpt lat="48.40693" lon="7.25979">
        <ele>998</ele>
        <time>2020-09-06T09:33:19.504Z</time>
      </trkpt>
      <trkpt lat="48.40693" lon="7.25977">
        <ele>998</ele>
        <time>2020-09-06T09:33:20.504Z</time>
      </trkpt>
      <trkpt lat="48.40693" lon="7.25976">
        <ele>998</ele>
        <time>2020-09-06T09:33:21.505Z</time>
      </trkpt>
      <trkpt lat="48.40693" lon="7.25974">
        <ele>998</ele>
        <time>2020-09-06T09:33:22.505Z</time>
      </trkpt>
      <trkpt lat="48.40692" lon="7.25972">
        <ele>998</ele>
        <time>2020-09-06T09:33:23.504Z</time>
      </trkpt>
      <trkpt lat="48.40692" lon="7.2597">
        <ele>998</ele>
        <time>2020-09-06T09:33:24.504Z</time>
      </trkpt>
      <trkpt lat="48.40692" lon="7.25968">
        <ele>998</ele>
        <time>2020-09-06T09:33:25.505Z</time>
      </trkpt>
      <trkpt lat="48.40693" lon="7.25967">
        <ele>998</ele>
        <time>2020-09-06T09:33:26.505Z</time>
      </trkpt>
      <trkpt lat="48.40693" lon="7.25965">
        <ele>998</ele>
        <time>2020-09-06T09:33:27.504Z</time>
      </trkpt>
      <trkpt lat="48.40693" lon="7.25963">
        <ele>998</ele>
        <time>2020-09-06T09:33:28.504Z</time>
      </trkpt>
      <trkpt lat="48.40693" lon="7.25961">
        <ele>998</ele>
        <time>2020-09-06T09:33:29.505Z</time>
      </trkpt>
      <trkpt lat="48.40694" lon="7.25959">
        <ele>998</ele>
        <time>2020-09-06T09:33:30.505Z</time>
      </trkpt>
      <trkpt lat="48.40694" lon="7.25957">
        <ele>998</ele>
        <time>2020-09-06T09:33:31.505Z</time>
      </trkpt>
      <trkpt lat="48.40694" lon="7.25955">
        <ele>998</ele>
        <time>2020-09-06T09:33:32.504Z</time>
      </trkpt>
      <trkpt lat="48.40694" lon="7.25954">
        <ele>998</ele>
        <time>2020-09-06T09:33:33.504Z</time>
      </trkpt>
      <trkpt lat="48.40695" lon="7.25952">
        <ele>998</ele>
        <time>2020-09-06T09:33:34.505Z</time>
      </trkpt>
      <trkpt lat="48.40695" lon="7.2595">
        <ele>998</ele>
        <time>2020-09-06T09:33:35.504Z</time>
      </trkpt>
      <trkpt lat="48.40695" lon="7.25949">
        <ele>998</ele>
        <time>2020-09-06T09:33:36.504Z</time>
      </trkpt>
      <trkpt lat="48.40696" lon="7.25947">
        <ele>998</ele>
        <time>2020-09-06T09:33:37.504Z</time>
      </trkpt>
      <trkpt lat="48.40696" lon="7.25946">
        <ele>998</ele>
        <time>2020-09-06T09:33:38.505Z</time>
      </trkpt>
      <trkpt lat="48.40696" lon="7.25944">
        <ele>998</ele>
        <time>2020-09-06T09:33:39.504Z</time>
      </trkpt>
      <trkpt lat="48.40697" lon="7.25942">
        <ele>997</ele>
        <time>2020-09-06T09:33:40.504Z</time>
      </trkpt>
      <trkpt lat="48.40697" lon="7.25941">
        <ele>997</ele>
        <time>2020-09-06T09:33:41.504Z</time>
      </trkpt>
      <trkpt lat="48.40697" lon="7.25939">
        <ele>997</ele>
        <time>2020-09-06T09:33:42.505Z</time>
      </trkpt>
      <trkpt lat="48.40697" lon="7.25938">
        <ele>998</ele>
        <time>2020-09-06T09:33:43.504Z</time>
      </trkpt>
      <trkpt lat="48.40698" lon="7.25936">
        <ele>998</ele>
        <time>2020-09-06T09:33:44.504Z</time>
      </trkpt>
      <trkpt lat="48.40698" lon="7.25935">
        <ele>998</ele>
        <time>2020-09-06T09:33:45.505Z</time>
      </trkpt>
      <trkpt lat="48.40698" lon="7.25933">
        <ele>998</ele>
        <time>2020-09-06T09:33:46.504Z</time>
      </trkpt>
      <trkpt lat="48.40698" lon="7.25931">
        <ele>997</ele>
        <time>2020-09-06T09:33:47.504Z</time>
      </trkpt>
      <trkpt lat="48.40698" lon="7.2593">
        <ele>997</ele>
        <time>2020-09-06T09:33:48.504Z</time>
      </trkpt>
      <trkpt lat="48.40698" lon="7.25928">
        <ele>997</ele>
        <time>2020-09-06T09:33:49.504Z</time>
      </trkpt>
      <trkpt lat="48.40699" lon="7.25926">
        <ele>997</ele>
        <time>2020-09-06T09:33:50.504Z</time>
      </trkpt>
      <trkpt lat="48.40699" lon="7.25924">
        <ele>997</ele>
        <time>2020-09-06T09:33:51.505Z</time>
      </trkpt>
      <trkpt lat="48.40699" lon="7.25923">
        <ele>997</ele>
        <time>2020-09-06T09:33:52.504Z</time>
      </trkpt>
      <trkpt lat="48.40699" lon="7.25921">
        <ele>997</ele>
        <time>2020-09-06T09:33:53.505Z</time>
      </trkpt>
      <trkpt lat="48.40699" lon="7.25919">
        <ele>997</ele>
        <time>2020-09-06T09:33:54.504Z</time>
      </trkpt>
      <trkpt lat="48.407" lon="7.25918">
        <ele>997</ele>
        <time>2020-09-06T09:33:55.505Z</time>
      </trkpt>
      <trkpt lat="48.407" lon="7.25916">
        <ele>997</ele>
        <time>2020-09-06T09:33:56.505Z</time>
      </trkpt>
      <trkpt lat="48.407" lon="7.25915">
        <ele>997</ele>
        <time>2020-09-06T09:33:57.505Z</time>
      </trkpt>
      <trkpt lat="48.407" lon="7.25913">
        <ele>997</ele>
        <time>2020-09-06T09:33:58.504Z</time>
      </trkpt>
      <trkpt lat="48.40701" lon="7.25912">
        <ele>997</ele>
        <time>2020-09-06T09:33:59.504Z</time>
      </trkpt>
      <trkpt lat="48.40701" lon="7.2591">
        <ele>997</ele>
        <time>2020-09-06T09:34:00.505Z</time>
      </trkpt>
      <trkpt lat="48.40702" lon="7.25908">
        <ele>997</ele>
        <time>2020-09-06T09:34:01.505Z</time>
      </trkpt>
      <trkpt lat="48.40702" lon="7.25907">
        <ele>997</ele>
        <time>2020-09-06T09:34:02.505Z</time>
      </trkpt>
      <trkpt lat="48.40702" lon="7.25905">
        <ele>997</ele>
        <time>2020-09-06T09:34:03.505Z</time>
      </trkpt>
      <trkpt lat="48.40702" lon="7.25904">
        <ele>998</ele>
        <time>2020-09-06T09:34:04.504Z</time>
      </trkpt>
      <trkpt lat="48.40703" lon="7.25902">
        <ele>998</ele>
        <time>2020-09-06T09:34:05.505Z</time>
      </trkpt>
      <trkpt lat="48.40703" lon="7.259">
        <ele>998</ele>
        <time>2020-09-06T09:34:06.505Z</time>
      </trkpt>
      <trkpt lat="48.40703" lon="7.25899">
        <ele>999</ele>
        <time>2020-09-06T09:34:07.504Z</time>
      </trkpt>
      <trkpt lat="48.40704" lon="7.25898">
        <ele>999</ele>
        <time>2020-09-06T09:34:08.504Z</time>
      </trkpt>
      <trkpt lat="48.40704" lon="7.25897">
        <ele>999</ele>
        <time>2020-09-06T09:34:09.505Z</time>
      </trkpt>
      <trkpt lat="48.40704" lon="7.25897">
        <ele>999</ele>
        <time>2020-09-06T09:34:10.505Z</time>
      </trkpt>
      <trkpt lat="48.40704" lon="7.25896">
        <ele>998</ele>
        <time>2020-09-06T09:34:11.505Z</time>
      </trkpt>
      <trkpt lat="48.40704" lon="7.25895">
        <ele>998</ele>
        <time>2020-09-06T09:34:12.504Z</time>
      </trkpt>
      <trkpt lat="48.40704" lon="7.25894">
        <ele>998</ele>
        <time>2020-09-06T09:34:13.504Z</time>
      </trkpt>
      <trkpt lat="48.40704" lon="7.25893">
        <ele>998</ele>
        <time>2020-09-06T09:34:14.504Z</time>
      </trkpt>
      <trkpt lat="48.40704" lon="7.25893">
        <ele>998</ele>
        <time>2020-09-06T09:34:15.505Z</time>
      </trkpt>
      <trkpt lat="48.40705" lon="7.25891">
        <ele>998</ele>
        <time>2020-09-06T09:34:16.504Z</time>
      </trkpt>
      <trkpt lat="48.40705" lon="7.2589">
        <ele>999</ele>
        <time>2020-09-06T09:34:17.505Z</time>
      </trkpt>
      <trkpt lat="48.40705" lon="7.25889">
        <ele>999</ele>
        <time>2020-09-06T09:34:18.504Z</time>
      </trkpt>
      <trkpt lat="48.40705" lon="7.25888">
        <ele>999</ele>
        <time>2020-09-06T09:34:19.505Z</time>
      </trkpt>
      <trkpt lat="48.40705" lon="7.25887">
        <ele>999</ele>
        <time>2020-09-06T09:34:20.505Z</time>
      </trkpt>
      <trkpt lat="48.40705" lon="7.25886">
        <ele>999</ele>
        <time>2020-09-06T09:34:21.504Z</time>
      </trkpt>
      <trkpt lat="48.40705" lon="7.25885">
        <ele>999</ele>
        <time>2020-09-06T09:34:22.505Z</time>
      </trkpt>
      <trkpt lat="48.40706" lon="7.25883">
        <ele>999</ele>
        <time>2020-09-06T09:34:23.504Z</time>
      </trkpt>
      <trkpt lat="48.40706" lon="7.25882">
        <ele>999</ele>
        <time>2020-09-06T09:34:24.504Z</time>
      </trkpt>
      <trkpt lat="48.40707" lon="7.25881">
        <ele>998</ele>
        <time>2020-09-06T09:34:25.505Z</time>
      </trkpt>
      <trkpt lat="48.40707" lon="7.2588">
        <ele>998</ele>
        <time>2020-09-06T09:34:26.504Z</time>
      </trkpt>
      <trkpt lat="48.40707" lon="7.25879">
        <ele>999</ele>
        <time>2020-09-06T09:34:27.504Z</time>
      </trkpt>
      <trkpt lat="48.40708" lon="7.25877">
        <ele>999</ele>
        <time>2020-09-06T09:34:28.505Z</time>
      </trkpt>
      <trkpt lat="48.40708" lon="7.25876">
        <ele>999</ele>
        <time>2020-09-06T09:34:29.505Z</time>
      </trkpt>
      <trkpt lat="48.40708" lon="7.25874">
        <ele>1000</ele>
        <time>2020-09-06T09:34:30.504Z</time>
      </trkpt>
      <trkpt lat="48.40708" lon="7.25873">
        <ele>1000</ele>
        <time>2020-09-06T09:34:31.504Z</time>
      </trkpt>
      <trkpt lat="48.40709" lon="7.25871">
        <ele>1000</ele>
        <time>2020-09-06T09:34:32.504Z</time>
      </trkpt>
      <trkpt lat="48.40709" lon="7.2587">
        <ele>1000</ele>
        <time>2020-09-06T09:34:33.504Z</time>
      </trkpt>
      <trkpt lat="48.40709" lon="7.25868">
        <ele>1001</ele>
        <time>2020-09-06T09:34:34.504Z</time>
      </trkpt>
      <trkpt lat="48.4071" lon="7.25866">
        <ele>1001</ele>
        <time>2020-09-06T09:34:35.504Z</time>
      </trkpt>
      <trkpt lat="48.40711" lon="7.25865">
        <ele>1001</ele>
        <time>2020-09-06T09:34:36.504Z</time>
      </trkpt>
      <trkpt lat="48.40712" lon="7.25863">
        <ele>1002</ele>
        <time>2020-09-06T09:34:37.504Z</time>
      </trkpt>
      <trkpt lat="48.40712" lon="7.25861">
        <ele>1002</ele>
        <time>2020-09-06T09:34:38.504Z</time>
      </trkpt>
      <trkpt lat="48.40713" lon="7.2586">
        <ele>1002</ele>
        <time>2020-09-06T09:34:39.504Z</time>
      </trkpt>
      <trkpt lat="48.40713" lon="7.25858">
        <ele>1002</ele>
        <time>2020-09-06T09:34:40.504Z</time>
      </trkpt>
      <trkpt lat="48.40713" lon="7.25856">
        <ele>1003</ele>
        <time>2020-09-06T09:34:41.504Z</time>
      </trkpt>
      <trkpt lat="48.40713" lon="7.25854">
        <ele>1003</ele>
        <time>2020-09-06T09:34:42.504Z</time>
      </trkpt>
      <trkpt lat="48.40713" lon="7.25852">
        <ele>1004</ele>
        <time>2020-09-06T09:34:43.504Z</time>
      </trkpt>
      <trkpt lat="48.40714" lon="7.25851">
        <ele>1004</ele>
        <time>2020-09-06T09:34:44.504Z</time>
      </trkpt>
      <trkpt lat="48.40714" lon="7.25851">
        <ele>1004</ele>
        <time>2020-09-06T09:34:45.505Z</time>
      </trkpt>
      <trkpt lat="48.40715" lon="7.25849">
        <ele>1004</ele>
        <time>2020-09-06T09:34:46.504Z</time>
      </trkpt>
      <trkpt lat="48.40716" lon="7.25848">
        <ele>1003</ele>
        <time>2020-09-06T09:34:47.504Z</time>
      </trkpt>
      <trkpt lat="48.40716" lon="7.25847">
        <ele>1003</ele>
        <time>2020-09-06T09:34:48.504Z</time>
      </trkpt>
      <trkpt lat="48.40717" lon="7.25846">
        <ele>1002</ele>
        <time>2020-09-06T09:34:49.504Z</time>
      </trkpt>
      <trkpt lat="48.40717" lon="7.25844">
        <ele>1002</ele>
        <time>2020-09-06T09:34:50.504Z</time>
      </trkpt>
      <trkpt lat="48.40717" lon="7.25843">
        <ele>1002</ele>
        <time>2020-09-06T09:34:51.504Z</time>
      </trkpt>
      <trkpt lat="48.40718" lon="7.25841">
        <ele>1001</ele>
        <time>2020-09-06T09:34:52.505Z</time>
      </trkpt>
      <trkpt lat="48.40718" lon="7.2584">
        <ele>1001</ele>
        <time>2020-09-06T09:34:53.505Z</time>
      </trkpt>
      <trkpt lat="48.40719" lon="7.25839">
        <ele>1001</ele>
        <time>2020-09-06T09:34:54.505Z</time>
      </trkpt>
      <trkpt lat="48.40719" lon="7.25837">
        <ele>1001</ele>
        <time>2020-09-06T09:34:55.505Z</time>
      </trkpt>
      <trkpt lat="48.4072" lon="7.25835">
        <ele>1001</ele>
        <time>2020-09-06T09:34:56.505Z</time>
      </trkpt>
      <trkpt lat="48.4072" lon="7.25834">
        <ele>1001</ele>
        <time>2020-09-06T09:34:57.505Z</time>
      </trkpt>
      <trkpt lat="48.4072" lon="7.25833">
        <ele>1002</ele>
        <time>2020-09-06T09:34:58.504Z</time>
      </trkpt>
      <trkpt lat="48.40721" lon="7.25832">
        <ele>1002</ele>
        <time>2020-09-06T09:34:59.504Z</time>
      </trkpt>
      <trkpt lat="48.40721" lon="7.2583">
        <ele>1003</ele>
        <time>2020-09-06T09:35:00.504Z</time>
      </trkpt>
      <trkpt lat="48.40722" lon="7.25828">
        <ele>1003</ele>
        <time>2020-09-06T09:35:01.504Z</time>
      </trkpt>
      <trkpt lat="48.40721" lon="7.25827">
        <ele>1002</ele>
        <time>2020-09-06T09:35:02.504Z</time>
      </trkpt>
      <trkpt lat="48.40721" lon="7.25825">
        <ele>1002</ele>
        <time>2020-09-06T09:35:03.505Z</time>
      </trkpt>
      <trkpt lat="48.40721" lon="7.25824">
        <ele>1002</ele>
        <time>2020-09-06T09:35:04.505Z</time>
      </trkpt>
      <trkpt lat="48.40721" lon="7.25822">
        <ele>1002</ele>
        <time>2020-09-06T09:35:05.505Z</time>
      </trkpt>
      <trkpt lat="48.40722" lon="7.25821">
        <ele>1002</ele>
        <time>2020-09-06T09:35:06.504Z</time>
      </trkpt>
      <trkpt lat="48.40721" lon="7.2582">
        <ele>1002</ele>
        <time>2020-09-06T09:35:07.505Z</time>
      </trkpt>
      <trkpt lat="48.40721" lon="7.25819">
        <ele>1002</ele>
        <time>2020-09-06T09:35:08.504Z</time>
      </trkpt>
      <trkpt lat="48.40722" lon="7.25818">
        <ele>1002</ele>
        <time>2020-09-06T09:35:09.504Z</time>
      </trkpt>
      <trkpt lat="48.40721" lon="7.25815">
        <ele>1002</ele>
        <time>2020-09-06T09:35:10.505Z</time>
      </trkpt>
      <trkpt lat="48.40721" lon="7.25813">
        <ele>1002</ele>
        <time>2020-09-06T09:35:11.505Z</time>
      </trkpt>
      <trkpt lat="48.40722" lon="7.25812">
        <ele>1003</ele>
        <time>2020-09-06T09:35:12.505Z</time>
      </trkpt>
      <trkpt lat="48.40722" lon="7.2581">
        <ele>1003</ele>
        <time>2020-09-06T09:35:13.505Z</time>
      </trkpt>
      <trkpt lat="48.40722" lon="7.25808">
        <ele>1003</ele>
        <time>2020-09-06T09:35:14.504Z</time>
      </trkpt>
      <trkpt lat="48.40722" lon="7.25806">
        <ele>1004</ele>
        <time>2020-09-06T09:35:15.504Z</time>
      </trkpt>
      <trkpt lat="48.40722" lon="7.25804">
        <ele>1004</ele>
        <time>2020-09-06T09:35:16.504Z</time>
      </trkpt>
      <trkpt lat="48.40722" lon="7.25803">
        <ele>1004</ele>
        <time>2020-09-06T09:35:17.504Z</time>
      </trkpt>
      <trkpt lat="48.40722" lon="7.25801">
        <ele>1004</ele>
        <time>2020-09-06T09:35:18.505Z</time>
      </trkpt>
      <trkpt lat="48.40722" lon="7.258">
        <ele>1003</ele>
        <time>2020-09-06T09:35:19.504Z</time>
      </trkpt>
      <trkpt lat="48.40722" lon="7.25798">
        <ele>1003</ele>
        <time>2020-09-06T09:35:20.504Z</time>
      </trkpt>
      <trkpt lat="48.40723" lon="7.25797">
        <ele>1002</ele>
        <time>2020-09-06T09:35:21.505Z</time>
      </trkpt>
      <trkpt lat="48.40723" lon="7.25795">
        <ele>1002</ele>
        <time>2020-09-06T09:35:22.505Z</time>
      </trkpt>
      <trkpt lat="48.40723" lon="7.25794">
        <ele>1002</ele>
        <time>2020-09-06T09:35:23.504Z</time>
      </trkpt>
      <trkpt lat="48.40724" lon="7.25793">
        <ele>1001</ele>
        <time>2020-09-06T09:35:24.505Z</time>
      </trkpt>
      <trkpt lat="48.40724" lon="7.25791">
        <ele>1001</ele>
        <time>2020-09-06T09:35:25.505Z</time>
      </trkpt>
      <trkpt lat="48.40725" lon="7.2579">
        <ele>1001</ele>
        <time>2020-09-06T09:35:26.504Z</time>
      </trkpt>
      <trkpt lat="48.40725" lon="7.25788">
        <ele>1001</ele>
        <time>2020-09-06T09:35:27.505Z</time>
      </trkpt>
      <trkpt lat="48.40725" lon="7.25787">
        <ele>1001</ele>
        <time>2020-09-06T09:35:28.505Z</time>
      </trkpt>
      <trkpt lat="48.40725" lon="7.25786">
        <ele>1001</ele>
        <time>2020-09-06T09:35:29.504Z</time>
      </trkpt>
      <trkpt lat="48.40725" lon="7.25784">
        <ele>1001</ele>
        <time>2020-09-06T09:35:30.504Z</time>
      </trkpt>
      <trkpt lat="48.40725" lon="7.25782">
        <ele>1000</ele>
        <time>2020-09-06T09:35:31.504Z</time>
      </trkpt>
      <trkpt lat="48.40725" lon="7.25782">
        <ele>1001</ele>
        <time>2020-09-06T09:35:32.504Z</time>
      </trkpt>
      <trkpt lat="48.40725" lon="7.25781">
        <ele>1001</ele>
        <time>2020-09-06T09:35:33.505Z</time>
      </trkpt>
      <trkpt lat="48.40725" lon="7.25779">
        <ele>1001</ele>
        <time>2020-09-06T09:35:34.505Z</time>
      </trkpt>
      <trkpt lat="48.40725" lon="7.25778">
        <ele>1001</ele>
        <time>2020-09-06T09:35:35.504Z</time>
      </trkpt>
      <trkpt lat="48.40725" lon="7.25776">
        <ele>1001</ele>
        <time>2020-09-06T09:35:36.504Z</time>
      </trkpt>
      <trkpt lat="48.40726" lon="7.25775">
        <ele>1002</ele>
        <time>2020-09-06T09:35:37.504Z</time>
      </trkpt>
      <trkpt lat="48.40726" lon="7.25774">
        <ele>1002</ele>
        <time>2020-09-06T09:35:38.505Z</time>
      </trkpt>
      <trkpt lat="48.40726" lon="7.25772">
        <ele>1002</ele>
        <time>2020-09-06T09:35:39.504Z</time>
      </trkpt>
      <trkpt lat="48.40726" lon="7.2577">
        <ele>1002</ele>
        <time>2020-09-06T09:35:40.504Z</time>
      </trkpt>
      <trkpt lat="48.40727" lon="7.25769">
        <ele>1002</ele>
        <time>2020-09-06T09:35:41.504Z</time>
      </trkpt>
      <trkpt lat="48.40727" lon="7.25767">
        <ele>1002</ele>
        <time>2020-09-06T09:35:42.505Z</time>
      </trkpt>
      <trkpt lat="48.40727" lon="7.25766">
        <ele>1002</ele>
        <time>2020-09-06T09:35:43.505Z</time>
      </trkpt>
      <trkpt lat="48.40727" lon="7.25764">
        <ele>1003</ele>
        <time>2020-09-06T09:35:44.504Z</time>
      </trkpt>
      <trkpt lat="48.40727" lon="7.25763">
        <ele>1003</ele>
        <time>2020-09-06T09:35:45.505Z</time>
      </trkpt>
      <trkpt lat="48.40727" lon="7.25761">
        <ele>1003</ele>
        <time>2020-09-06T09:35:46.504Z</time>
      </trkpt>
      <trkpt lat="48.40728" lon="7.25761">
        <ele>1003</ele>
        <time>2020-09-06T09:35:47.505Z</time>
      </trkpt>
      <trkpt lat="48.40728" lon="7.25759">
        <ele>1003</ele>
        <time>2020-09-06T09:35:48.505Z</time>
      </trkpt>
      <trkpt lat="48.40728" lon="7.25758">
        <ele>1003</ele>
        <time>2020-09-06T09:35:49.504Z</time>
      </trkpt>
      <trkpt lat="48.40728" lon="7.25756">
        <ele>1004</ele>
        <time>2020-09-06T09:35:50.504Z</time>
      </trkpt>
      <trkpt lat="48.40727" lon="7.25755">
        <ele>1004</ele>
        <time>2020-09-06T09:35:51.504Z</time>
      </trkpt>
      <trkpt lat="48.40726" lon="7.25754">
        <ele>1005</ele>
        <time>2020-09-06T09:35:52.504Z</time>
      </trkpt>
      <trkpt lat="48.40726" lon="7.25752">
        <ele>1005</ele>
        <time>2020-09-06T09:35:53.504Z</time>
      </trkpt>
      <trkpt lat="48.40727" lon="7.25751">
        <ele>1005</ele>
        <time>2020-09-06T09:35:54.504Z</time>
      </trkpt>
      <trkpt lat="48.40727" lon="7.25751">
        <ele>1005</ele>
        <time>2020-09-06T09:35:55.504Z</time>
      </trkpt>
      <trkpt lat="48.40728" lon="7.25752">
        <ele>1005</ele>
        <time>2020-09-06T09:35:56.504Z</time>
      </trkpt>
      <trkpt lat="48.40729" lon="7.25752">
        <ele>1005</ele>
        <time>2020-09-06T09:35:57.505Z</time>
      </trkpt>
      <trkpt lat="48.40729" lon="7.25752">
        <ele>1005</ele>
        <time>2020-09-06T09:35:58.505Z</time>
      </trkpt>
      <trkpt lat="48.40728" lon="7.25753">
        <ele>1005</ele>
        <time>2020-09-06T09:35:59.505Z</time>
      </trkpt>
      <trkpt lat="48.40729" lon="7.25751">
        <ele>1004</ele>
        <time>2020-09-06T09:36:00.506Z</time>
      </trkpt>
      <trkpt lat="48.40729" lon="7.2575">
        <ele>1005</ele>
        <time>2020-09-06T09:36:01.505Z</time>
      </trkpt>
      <trkpt lat="48.4073" lon="7.25749">
        <ele>1005</ele>
        <time>2020-09-06T09:36:02.506Z</time>
      </trkpt>
      <trkpt lat="48.4073" lon="7.25749">
        <ele>1005</ele>
        <time>2020-09-06T09:36:03.506Z</time>
      </trkpt>
      <trkpt lat="48.4073" lon="7.25749">
        <ele>1005</ele>
        <time>2020-09-06T09:36:04.506Z</time>
      </trkpt>
      <trkpt lat="48.40731" lon="7.25749">
        <ele>1004</ele>
        <time>2020-09-06T09:36:05.506Z</time>
      </trkpt>
      <trkpt lat="48.40732" lon="7.25748">
        <ele>1004</ele>
        <time>2020-09-06T09:36:06.506Z</time>
      </trkpt>
      <trkpt lat="48.40732" lon="7.25748">
        <ele>1003</ele>
        <time>2020-09-06T09:36:07.506Z</time>
      </trkpt>
      <trkpt lat="48.40732" lon="7.25748">
        <ele>1003</ele>
        <time>2020-09-06T09:36:08.506Z</time>
      </trkpt>
      <trkpt lat="48.40732" lon="7.25748">
        <ele>1002</ele>
        <time>2020-09-06T09:36:09.506Z</time>
      </trkpt>
      <trkpt lat="48.40732" lon="7.25748">
        <ele>1001</ele>
        <time>2020-09-06T09:36:10.508Z</time>
      </trkpt>
      <trkpt lat="48.40732" lon="7.25747">
        <ele>1001</ele>
        <time>2020-09-06T09:36:11.508Z</time>
      </trkpt>
      <trkpt lat="48.40732" lon="7.25748">
        <ele>1001</ele>
        <time>2020-09-06T09:36:12.507Z</time>
      </trkpt>
      <trkpt lat="48.40737" lon="7.25743">
        <ele>999</ele>
        <time>2020-09-06T09:36:13.510Z</time>
      </trkpt>
      <trkpt lat="48.40738" lon="7.25742">
        <ele>1000</ele>
        <time>2020-09-06T09:36:14.510Z</time>
      </trkpt>
      <trkpt lat="48.40739" lon="7.2574">
        <ele>1000</ele>
        <time>2020-09-06T09:36:15.509Z</time>
      </trkpt>
      <trkpt lat="48.40741" lon="7.25738">
        <ele>1000</ele>
        <time>2020-09-06T09:36:16.510Z</time>
      </trkpt>
      <trkpt lat="48.40742" lon="7.25737">
        <ele>1000</ele>
        <time>2020-09-06T09:36:17.510Z</time>
      </trkpt>
      <trkpt lat="48.40743" lon="7.25735">
        <ele>1001</ele>
        <time>2020-09-06T09:36:18.510Z</time>
      </trkpt>
      <trkpt lat="48.40744" lon="7.25733">
        <ele>1002</ele>
        <time>2020-09-06T09:36:19.510Z</time>
      </trkpt>
      <trkpt lat="48.40746" lon="7.25731">
        <ele>1002</ele>
        <time>2020-09-06T09:36:20.509Z</time>
      </trkpt>
      <trkpt lat="48.40746" lon="7.2573">
        <ele>1003</ele>
        <time>2020-09-06T09:36:21.510Z</time>
      </trkpt>
      <trkpt lat="48.40746" lon="7.25727">
        <ele>1004</ele>
        <time>2020-09-06T09:36:22.510Z</time>
      </trkpt>
      <trkpt lat="48.40747" lon="7.25725">
        <ele>1005</ele>
        <time>2020-09-06T09:36:23.510Z</time>
      </trkpt>
      <trkpt lat="48.40748" lon="7.25723">
        <ele>1006</ele>
        <time>2020-09-06T09:36:24.510Z</time>
      </trkpt>
      <trkpt lat="48.40749" lon="7.25723">
        <ele>1007</ele>
        <time>2020-09-06T09:36:25.510Z</time>
      </trkpt>
      <trkpt lat="48.40751" lon="7.25724">
        <ele>1007</ele>
        <time>2020-09-06T09:36:26.510Z</time>
      </trkpt>
      <trkpt lat="48.40752" lon="7.25725">
        <ele>1008</ele>
        <time>2020-09-06T09:36:27.510Z</time>
      </trkpt>
      <trkpt lat="48.40753" lon="7.25726">
        <ele>1008</ele>
        <time>2020-09-06T09:36:28.510Z</time>
      </trkpt>
      <trkpt lat="48.40751" lon="7.25726">
        <ele>1008</ele>
        <time>2020-09-06T09:36:29.510Z</time>
      </trkpt>
      <trkpt lat="48.40746" lon="7.2572">
        <ele>1003</ele>
        <time>2020-09-06T09:36:30.511Z</time>
      </trkpt>
      <trkpt lat="48.40746" lon="7.25719">
        <ele>1003</ele>
        <time>2020-09-06T09:36:31.510Z</time>
      </trkpt>
      <trkpt lat="48.40747" lon="7.25719">
        <ele>1003</ele>
        <time>2020-09-06T09:36:32.510Z</time>
      </trkpt>
      <trkpt lat="48.40749" lon="7.25717">
        <ele>1003</ele>
        <time>2020-09-06T09:36:33.511Z</time>
      </trkpt>
      <trkpt lat="48.4075" lon="7.25716">
        <ele>1003</ele>
        <time>2020-09-06T09:36:34.510Z</time>
      </trkpt>
      <trkpt lat="48.40752" lon="7.25715">
        <ele>1003</ele>
        <time>2020-09-06T09:36:35.511Z</time>
      </trkpt>
      <trkpt lat="48.40753" lon="7.25714">
        <ele>1003</ele>
        <time>2020-09-06T09:36:36.511Z</time>
      </trkpt>
      <trkpt lat="48.40754" lon="7.25712">
        <ele>1003</ele>
        <time>2020-09-06T09:36:37.511Z</time>
      </trkpt>
      <trkpt lat="48.40755" lon="7.25711">
        <ele>1003</ele>
        <time>2020-09-06T09:36:38.510Z</time>
      </trkpt>
      <trkpt lat="48.40757" lon="7.2571">
        <ele>1003</ele>
        <time>2020-09-06T09:36:39.511Z</time>
      </trkpt>
      <trkpt lat="48.40758" lon="7.25709">
        <ele>1004</ele>
        <time>2020-09-06T09:36:40.510Z</time>
      </trkpt>
      <trkpt lat="48.40759" lon="7.25708">
        <ele>1004</ele>
        <time>2020-09-06T09:36:41.511Z</time>
      </trkpt>
      <trkpt lat="48.40759" lon="7.25708">
        <ele>1005</ele>
        <time>2020-09-06T09:36:42.511Z</time>
      </trkpt>
      <trkpt lat="48.4076" lon="7.25708">
        <ele>1005</ele>
        <time>2020-09-06T09:36:43.511Z</time>
      </trkpt>
      <trkpt lat="48.4076" lon="7.25708">
        <ele>1005</ele>
        <time>2020-09-06T09:36:44.511Z</time>
      </trkpt>
      <trkpt lat="48.4076" lon="7.25708">
        <ele>1005</ele>
        <time>2020-09-06T09:36:45.511Z</time>
      </trkpt>
      <trkpt lat="48.4076" lon="7.25709">
        <ele>1005</ele>
        <time>2020-09-06T09:36:46.511Z</time>
      </trkpt>
      <trkpt lat="48.4076" lon="7.25709">
        <ele>1005</ele>
        <time>2020-09-06T09:36:47.511Z</time>
      </trkpt>
      <trkpt lat="48.4076" lon="7.25709">
        <ele>1005</ele>
        <time>2020-09-06T09:36:48.510Z</time>
      </trkpt>
      <trkpt lat="48.4076" lon="7.25709">
        <ele>1005</ele>
        <time>2020-09-06T09:36:49.511Z</time>
      </trkpt>
      <trkpt lat="48.4076" lon="7.25709">
        <ele>1005</ele>
        <time>2020-09-06T09:36:50.510Z</time>
      </trkpt>
      <trkpt lat="48.4076" lon="7.25709">
        <ele>1005</ele>
        <time>2020-09-06T09:36:51.511Z</time>
      </trkpt>
      <trkpt lat="48.40761" lon="7.25709">
        <ele>1005</ele>
        <time>2020-09-06T09:36:52.511Z</time>
      </trkpt>
      <trkpt lat="48.40761" lon="7.25709">
        <ele>1005</ele>
        <time>2020-09-06T09:36:53.511Z</time>
      </trkpt>
      <trkpt lat="48.40761" lon="7.25709">
        <ele>1005</ele>
        <time>2020-09-06T09:36:54.511Z</time>
      </trkpt>
      <trkpt lat="48.40761" lon="7.25709">
        <ele>1005</ele>
        <time>2020-09-06T09:36:55.511Z</time>
      </trkpt>
      <trkpt lat="48.40761" lon="7.25709">
        <ele>1005</ele>
        <time>2020-09-06T09:36:56.510Z</time>
      </trkpt>
      <trkpt lat="48.40761" lon="7.25709">
        <ele>1005</ele>
        <time>2020-09-06T09:36:57.511Z</time>
      </trkpt>
      <trkpt lat="48.40761" lon="7.25709">
        <ele>1005</ele>
        <time>2020-09-06T09:36:58.511Z</time>
      </trkpt>
      <trkpt lat="48.40761" lon="7.25709">
        <ele>1004</ele>
        <time>2020-09-06T09:36:59.511Z</time>
      </trkpt>
      <trkpt lat="48.40761" lon="7.25709">
        <ele>1004</ele>
        <time>2020-09-06T09:37:00.511Z</time>
      </trkpt>
      <trkpt lat="48.4076" lon="7.25709">
        <ele>1004</ele>
        <time>2020-09-06T09:37:01.511Z</time>
      </trkpt>
      <trkpt lat="48.4076" lon="7.25709">
        <ele>1004</ele>
        <time>2020-09-06T09:37:02.511Z</time>
      </trkpt>
      <trkpt lat="48.4076" lon="7.25709">
        <ele>1003</ele>
        <time>2020-09-06T09:37:03.510Z</time>
      </trkpt>
      <trkpt lat="48.4076" lon="7.25709">
        <ele>1003</ele>
        <time>2020-09-06T09:37:04.511Z</time>
      </trkpt>
      <trkpt lat="48.4076" lon="7.25709">
        <ele>1003</ele>
        <time>2020-09-06T09:37:05.511Z</time>
      </trkpt>
      <trkpt lat="48.4076" lon="7.25709">
        <ele>1003</ele>
        <time>2020-09-06T09:37:06.511Z</time>
      </trkpt>
      <trkpt lat="48.4076" lon="7.25709">
        <ele>1003</ele>
        <time>2020-09-06T09:37:07.511Z</time>
      </trkpt>
      <trkpt lat="48.4076" lon="7.25709">
        <ele>1002</ele>
        <time>2020-09-06T09:37:08.511Z</time>
      </trkpt>
      <trkpt lat="48.4076" lon="7.25709">
        <ele>1002</ele>
        <time>2020-09-06T09:37:09.510Z</time>
      </trkpt>
      <trkpt lat="48.4076" lon="7.25709">
        <ele>1002</ele>
        <time>2020-09-06T09:37:10.510Z</time>
      </trkpt>
      <trkpt lat="48.4076" lon="7.25709">
        <ele>1002</ele>
        <time>2020-09-06T09:37:11.511Z</time>
      </trkpt>
      <trkpt lat="48.4076" lon="7.25709">
        <ele>1002</ele>
        <time>2020-09-06T09:37:12.511Z</time>
      </trkpt>
      <trkpt lat="48.4076" lon="7.25709">
        <ele>1002</ele>
        <time>2020-09-06T09:37:13.511Z</time>
      </trkpt>
      <trkpt lat="48.4076" lon="7.25709">
        <ele>1002</ele>
        <time>2020-09-06T09:37:14.511Z</time>
      </trkpt>
      <trkpt lat="48.4076" lon="7.25709">
        <ele>1002</ele>
        <time>2020-09-06T09:37:15.510Z</time>
      </trkpt>
      <trkpt lat="48.4076" lon="7.25709">
        <ele>1002</ele>
        <time>2020-09-06T09:37:16.511Z</time>
      </trkpt>
      <trkpt lat="48.4076" lon="7.25709">
        <ele>1002</ele>
        <time>2020-09-06T09:37:17.511Z</time>
      </trkpt>
      <trkpt lat="48.4076" lon="7.25708">
        <ele>1002</ele>
        <time>2020-09-06T09:37:18.511Z</time>
      </trkpt>
      <trkpt lat="48.4076" lon="7.25708">
        <ele>1002</ele>
        <time>2020-09-06T09:37:19.511Z</time>
      </trkpt>
      <trkpt lat="48.4076" lon="7.25707">
        <ele>1002</ele>
        <time>2020-09-06T09:37:20.511Z</time>
      </trkpt>
      <trkpt lat="48.40761" lon="7.25707">
        <ele>1002</ele>
        <time>2020-09-06T09:37:21.510Z</time>
      </trkpt>
      <trkpt lat="48.40761" lon="7.25707">
        <ele>1001</ele>
        <time>2020-09-06T09:37:22.510Z</time>
      </trkpt>
      <trkpt lat="48.40761" lon="7.25706">
        <ele>1001</ele>
        <time>2020-09-06T09:37:23.510Z</time>
      </trkpt>
      <trkpt lat="48.40761" lon="7.25706">
        <ele>1001</ele>
        <time>2020-09-06T09:37:24.510Z</time>
      </trkpt>
      <trkpt lat="48.40761" lon="7.25706">
        <ele>1001</ele>
        <time>2020-09-06T09:37:25.511Z</time>
      </trkpt>
      <trkpt lat="48.40761" lon="7.25706">
        <ele>1001</ele>
        <time>2020-09-06T09:37:26.510Z</time>
      </trkpt>
      <trkpt lat="48.40761" lon="7.25706">
        <ele>1001</ele>
        <time>2020-09-06T09:37:27.510Z</time>
      </trkpt>
      <trkpt lat="48.40761" lon="7.25706">
        <ele>1001</ele>
        <time>2020-09-06T09:37:28.510Z</time>
      </trkpt>
      <trkpt lat="48.40761" lon="7.25705">
        <ele>1001</ele>
        <time>2020-09-06T09:37:29.511Z</time>
      </trkpt>
      <trkpt lat="48.40761" lon="7.25705">
        <ele>1001</ele>
        <time>2020-09-06T09:37:30.510Z</time>
      </trkpt>
      <trkpt lat="48.40762" lon="7.25702">
        <ele>1001</ele>
        <time>2020-09-06T09:37:31.510Z</time>
      </trkpt>
      <trkpt lat="48.40763" lon="7.257">
        <ele>1001</ele>
        <time>2020-09-06T09:37:32.511Z</time>
      </trkpt>
      <trkpt lat="48.40763" lon="7.25698">
        <ele>1001</ele>
        <time>2020-09-06T09:37:33.511Z</time>
      </trkpt>
      <trkpt lat="48.40764" lon="7.25696">
        <ele>1001</ele>
        <time>2020-09-06T09:37:34.511Z</time>
      </trkpt>
      <trkpt lat="48.40765" lon="7.25696">
        <ele>1002</ele>
        <time>2020-09-06T09:37:35.510Z</time>
      </trkpt>
      <trkpt lat="48.40767" lon="7.25695">
        <ele>1002</ele>
        <time>2020-09-06T09:37:36.511Z</time>
      </trkpt>
      <trkpt lat="48.40768" lon="7.25694">
        <ele>1002</ele>
        <time>2020-09-06T09:37:37.511Z</time>
      </trkpt>
      <trkpt lat="48.40769" lon="7.25694">
        <ele>1001</ele>
        <time>2020-09-06T09:37:38.511Z</time>
      </trkpt>
      <trkpt lat="48.40771" lon="7.25694">
        <ele>1001</ele>
        <time>2020-09-06T09:37:39.511Z</time>
      </trkpt>
      <trkpt lat="48.40772" lon="7.25694">
        <ele>1002</ele>
        <time>2020-09-06T09:37:40.511Z</time>
      </trkpt>
      <trkpt lat="48.40772" lon="7.25694">
        <ele>1002</ele>
        <time>2020-09-06T09:37:41.511Z</time>
      </trkpt>
      <trkpt lat="48.40773" lon="7.25694">
        <ele>1002</ele>
        <time>2020-09-06T09:37:42.511Z</time>
      </trkpt>
      <trkpt lat="48.40774" lon="7.25694">
        <ele>1003</ele>
        <time>2020-09-06T09:37:43.511Z</time>
      </trkpt>
      <trkpt lat="48.40774" lon="7.25694">
        <ele>1003</ele>
        <time>2020-09-06T09:37:44.511Z</time>
      </trkpt>
      <trkpt lat="48.40775" lon="7.25693">
        <ele>1003</ele>
        <time>2020-09-06T09:37:45.511Z</time>
      </trkpt>
      <trkpt lat="48.40776" lon="7.25694">
        <ele>1004</ele>
        <time>2020-09-06T09:37:46.511Z</time>
      </trkpt>
      <trkpt lat="48.40777" lon="7.25694">
        <ele>1004</ele>
        <time>2020-09-06T09:37:47.511Z</time>
      </trkpt>
      <trkpt lat="48.40778" lon="7.25693">
        <ele>1005</ele>
        <time>2020-09-06T09:37:48.510Z</time>
      </trkpt>
      <trkpt lat="48.40779" lon="7.25693">
        <ele>1006</ele>
        <time>2020-09-06T09:37:49.511Z</time>
      </trkpt>
      <trkpt lat="48.4078" lon="7.25692">
        <ele>1006</ele>
        <time>2020-09-06T09:37:50.510Z</time>
      </trkpt>
      <trkpt lat="48.40781" lon="7.25692">
        <ele>1006</ele>
        <time>2020-09-06T09:37:51.511Z</time>
      </trkpt>
      <trkpt lat="48.40782" lon="7.25691">
        <ele>1007</ele>
        <time>2020-09-06T09:37:52.511Z</time>
      </trkpt>
      <trkpt lat="48.40783" lon="7.2569">
        <ele>1007</ele>
        <time>2020-09-06T09:37:53.511Z</time>
      </trkpt>
      <trkpt lat="48.40783" lon="7.2569">
        <ele>1007</ele>
        <time>2020-09-06T09:37:54.511Z</time>
      </trkpt>
      <trkpt lat="48.40785" lon="7.25689">
        <ele>1008</ele>
        <time>2020-09-06T09:37:55.511Z</time>
      </trkpt>
      <trkpt lat="48.40785" lon="7.25689">
        <ele>1008</ele>
        <time>2020-09-06T09:37:56.511Z</time>
      </trkpt>
      <trkpt lat="48.40785" lon="7.25689">
        <ele>1008</ele>
        <time>2020-09-06T09:37:57.511Z</time>
      </trkpt>
      <trkpt lat="48.40785" lon="7.25689">
        <ele>1007</ele>
        <time>2020-09-06T09:37:58.511Z</time>
      </trkpt>
      <trkpt lat="48.40785" lon="7.25688">
        <ele>1008</ele>
        <time>2020-09-06T09:37:59.511Z</time>
      </trkpt>
      <trkpt lat="48.40785" lon="7.25688">
        <ele>1009</ele>
        <time>2020-09-06T09:38:00.511Z</time>
      </trkpt>
      <trkpt lat="48.40786" lon="7.25687">
        <ele>1009</ele>
        <time>2020-09-06T09:38:01.511Z</time>
      </trkpt>
      <trkpt lat="48.40782" lon="7.2569">
        <ele>997</ele>
        <time>2020-09-06T09:38:02.512Z</time>
      </trkpt>
      <trkpt lat="48.4078" lon="7.25689">
        <ele>998</ele>
        <time>2020-09-06T09:38:03.511Z</time>
      </trkpt>
      <trkpt lat="48.40778" lon="7.25689">
        <ele>998</ele>
        <time>2020-09-06T09:38:04.511Z</time>
      </trkpt>
      <trkpt lat="48.40776" lon="7.25689">
        <ele>998</ele>
        <time>2020-09-06T09:38:05.512Z</time>
      </trkpt>
      <trkpt lat="48.40774" lon="7.25689">
        <ele>999</ele>
        <time>2020-09-06T09:38:06.512Z</time>
      </trkpt>
      <trkpt lat="48.40773" lon="7.25689">
        <ele>999</ele>
        <time>2020-09-06T09:38:07.512Z</time>
      </trkpt>
      <trkpt lat="48.40771" lon="7.25689">
        <ele>999</ele>
        <time>2020-09-06T09:38:08.512Z</time>
      </trkpt>
      <trkpt lat="48.40769" lon="7.25689">
        <ele>1000</ele>
        <time>2020-09-06T09:38:09.512Z</time>
      </trkpt>
      <trkpt lat="48.40768" lon="7.25689">
        <ele>1001</ele>
        <time>2020-09-06T09:38:10.512Z</time>
      </trkpt>
      <trkpt lat="48.40767" lon="7.25689">
        <ele>1002</ele>
        <time>2020-09-06T09:38:11.512Z</time>
      </trkpt>
      <trkpt lat="48.40766" lon="7.25689">
        <ele>1003</ele>
        <time>2020-09-06T09:38:12.512Z</time>
      </trkpt>
      <trkpt lat="48.40766" lon="7.25689">
        <ele>1003</ele>
        <time>2020-09-06T09:38:13.512Z</time>
      </trkpt>
      <trkpt lat="48.40765" lon="7.25689">
        <ele>1003</ele>
        <time>2020-09-06T09:38:14.512Z</time>
      </trkpt>
      <trkpt lat="48.40765" lon="7.2569">
        <ele>1003</ele>
        <time>2020-09-06T09:38:15.511Z</time>
      </trkpt>
      <trkpt lat="48.40765" lon="7.2569">
        <ele>1003</ele>
        <time>2020-09-06T09:38:16.512Z</time>
      </trkpt>
      <trkpt lat="48.40765" lon="7.25691">
        <ele>1003</ele>
        <time>2020-09-06T09:38:17.512Z</time>
      </trkpt>
      <trkpt lat="48.40765" lon="7.25692">
        <ele>1003</ele>
        <time>2020-09-06T09:38:18.512Z</time>
      </trkpt>
      <trkpt lat="48.40764" lon="7.25692">
        <ele>1003</ele>
        <time>2020-09-06T09:38:19.512Z</time>
      </trkpt>
      <trkpt lat="48.40763" lon="7.25693">
        <ele>1003</ele>
        <time>2020-09-06T09:38:20.512Z</time>
      </trkpt>
      <trkpt lat="48.40763" lon="7.25693">
        <ele>1003</ele>
        <time>2020-09-06T09:38:21.511Z</time>
      </trkpt>
      <trkpt lat="48.40762" lon="7.25694">
        <ele>1003</ele>
        <time>2020-09-06T09:38:22.511Z</time>
      </trkpt>
      <trkpt lat="48.4076" lon="7.25695">
        <ele>1003</ele>
        <time>2020-09-06T09:38:23.512Z</time>
      </trkpt>
      <trkpt lat="48.40759" lon="7.25696">
        <ele>1002</ele>
        <time>2020-09-06T09:38:24.512Z</time>
      </trkpt>
      <trkpt lat="48.40758" lon="7.25697">
        <ele>1002</ele>
        <time>2020-09-06T09:38:25.512Z</time>
      </trkpt>
      <trkpt lat="48.40757" lon="7.25698">
        <ele>1002</ele>
        <time>2020-09-06T09:38:26.512Z</time>
      </trkpt>
      <trkpt lat="48.40757" lon="7.25698">
        <ele>1002</ele>
        <time>2020-09-06T09:38:27.512Z</time>
      </trkpt>
      <trkpt lat="48.40756" lon="7.25699">
        <ele>1002</ele>
        <time>2020-09-06T09:38:28.512Z</time>
      </trkpt>
      <trkpt lat="48.40755" lon="7.25699">
        <ele>1001</ele>
        <time>2020-09-06T09:38:29.512Z</time>
      </trkpt>
      <trkpt lat="48.40755" lon="7.257">
        <ele>1001</ele>
        <time>2020-09-06T09:38:30.512Z</time>
      </trkpt>
      <trkpt lat="48.40754" lon="7.257">
        <ele>1001</ele>
        <time>2020-09-06T09:38:31.512Z</time>
      </trkpt>
      <trkpt lat="48.40753" lon="7.257">
        <ele>1001</ele>
        <time>2020-09-06T09:38:32.511Z</time>
      </trkpt>
      <trkpt lat="48.40752" lon="7.257">
        <ele>1001</ele>
        <time>2020-09-06T09:38:33.512Z</time>
      </trkpt>
      <trkpt lat="48.40751" lon="7.257">
        <ele>1001</ele>
        <time>2020-09-06T09:38:34.512Z</time>
      </trkpt>
      <trkpt lat="48.4075" lon="7.25701">
        <ele>1001</ele>
        <time>2020-09-06T09:38:35.512Z</time>
      </trkpt>
      <trkpt lat="48.40749" lon="7.25701">
        <ele>1001</ele>
        <time>2020-09-06T09:38:36.512Z</time>
      </trkpt>
      <trkpt lat="48.40748" lon="7.25702">
        <ele>1000</ele>
        <time>2020-09-06T09:38:37.512Z</time>
      </trkpt>
      <trkpt lat="48.40747" lon="7.25703">
        <ele>1000</ele>
        <time>2020-09-06T09:38:38.512Z</time>
      </trkpt>
      <trkpt lat="48.40746" lon="7.25703">
        <ele>1001</ele>
        <time>2020-09-06T09:38:39.512Z</time>
      </trkpt>
      <trkpt lat="48.40745" lon="7.25704">
        <ele>1001</ele>
        <time>2020-09-06T09:38:40.512Z</time>
      </trkpt>
      <trkpt lat="48.40744" lon="7.25705">
        <ele>1001</ele>
        <time>2020-09-06T09:38:41.512Z</time>
      </trkpt>
      <trkpt lat="48.40743" lon="7.25705">
        <ele>1000</ele>
        <time>2020-09-06T09:38:42.511Z</time>
      </trkpt>
      <trkpt lat="48.40742" lon="7.25706">
        <ele>1000</ele>
        <time>2020-09-06T09:38:43.511Z</time>
      </trkpt>
      <trkpt lat="48.40741" lon="7.25707">
        <ele>1001</ele>
        <time>2020-09-06T09:38:44.511Z</time>
      </trkpt>
      <trkpt lat="48.4074" lon="7.25708">
        <ele>1001</ele>
        <time>2020-09-06T09:38:45.512Z</time>
      </trkpt>
      <trkpt lat="48.40739" lon="7.25708">
        <ele>1001</ele>
        <time>2020-09-06T09:38:46.512Z</time>
      </trkpt>
      <trkpt lat="48.40738" lon="7.25709">
        <ele>1002</ele>
        <time>2020-09-06T09:38:47.512Z</time>
      </trkpt>
      <trkpt lat="48.40737" lon="7.2571">
        <ele>1002</ele>
        <time>2020-09-06T09:38:48.512Z</time>
      </trkpt>
      <trkpt lat="48.40736" lon="7.25711">
        <ele>1002</ele>
        <time>2020-09-06T09:38:49.511Z</time>
      </trkpt>
      <trkpt lat="48.40736" lon="7.25712">
        <ele>1001</ele>
        <time>2020-09-06T09:38:50.512Z</time>
      </trkpt>
      <trkpt lat="48.40735" lon="7.25714">
        <ele>1001</ele>
        <time>2020-09-06T09:38:51.512Z</time>
      </trkpt>
      <trkpt lat="48.40735" lon="7.25715">
        <ele>1001</ele>
        <time>2020-09-06T09:38:52.512Z</time>
      </trkpt>
      <trkpt lat="48.40734" lon="7.25716">
        <ele>1001</ele>
        <time>2020-09-06T09:38:53.512Z</time>
      </trkpt>
      <trkpt lat="48.40734" lon="7.25717">
        <ele>1001</ele>
        <time>2020-09-06T09:38:54.512Z</time>
      </trkpt>
      <trkpt lat="48.40733" lon="7.25719">
        <ele>1001</ele>
        <time>2020-09-06T09:38:55.512Z</time>
      </trkpt>
      <trkpt lat="48.40732" lon="7.2572">
        <ele>1000</ele>
        <time>2020-09-06T09:38:56.512Z</time>
      </trkpt>
      <trkpt lat="48.40732" lon="7.25721">
        <ele>1000</ele>
        <time>2020-09-06T09:38:57.512Z</time>
      </trkpt>
      <trkpt lat="48.40731" lon="7.25722">
        <ele>1001</ele>
        <time>2020-09-06T09:38:58.512Z</time>
      </trkpt>
      <trkpt lat="48.40731" lon="7.25724">
        <ele>1001</ele>
        <time>2020-09-06T09:38:59.512Z</time>
      </trkpt>
      <trkpt lat="48.40731" lon="7.25725">
        <ele>1001</ele>
        <time>2020-09-06T09:39:00.512Z</time>
      </trkpt>
      <trkpt lat="48.4073" lon="7.25726">
        <ele>1001</ele>
        <time>2020-09-06T09:39:01.512Z</time>
      </trkpt>
      <trkpt lat="48.4073" lon="7.25727">
        <ele>1001</ele>
        <time>2020-09-06T09:39:02.511Z</time>
      </trkpt>
      <trkpt lat="48.40729" lon="7.2573">
        <ele>1001</ele>
        <time>2020-09-06T09:39:03.512Z</time>
      </trkpt>
      <trkpt lat="48.40729" lon="7.25732">
        <ele>1002</ele>
        <time>2020-09-06T09:39:04.511Z</time>
      </trkpt>
      <trkpt lat="48.40729" lon="7.25733">
        <ele>1002</ele>
        <time>2020-09-06T09:39:05.511Z</time>
      </trkpt>
      <trkpt lat="48.40728" lon="7.25735">
        <ele>1003</ele>
        <time>2020-09-06T09:39:06.512Z</time>
      </trkpt>
      <trkpt lat="48.40728" lon="7.25737">
        <ele>1003</ele>
        <time>2020-09-06T09:39:07.512Z</time>
      </trkpt>
      <trkpt lat="48.40727" lon="7.25738">
        <ele>1003</ele>
        <time>2020-09-06T09:39:08.512Z</time>
      </trkpt>
      <trkpt lat="48.40726" lon="7.2574">
        <ele>1004</ele>
        <time>2020-09-06T09:39:09.512Z</time>
      </trkpt>
      <trkpt lat="48.40726" lon="7.25741">
        <ele>1004</ele>
        <time>2020-09-06T09:39:10.511Z</time>
      </trkpt>
      <trkpt lat="48.40725" lon="7.25743">
        <ele>1004</ele>
        <time>2020-09-06T09:39:11.512Z</time>
      </trkpt>
      <trkpt lat="48.40725" lon="7.25744">
        <ele>1003</ele>
        <time>2020-09-06T09:39:12.511Z</time>
      </trkpt>
      <trkpt lat="48.40724" lon="7.25745">
        <ele>1003</ele>
        <time>2020-09-06T09:39:13.512Z</time>
      </trkpt>
      <trkpt lat="48.40723" lon="7.25746">
        <ele>1002</ele>
        <time>2020-09-06T09:39:14.512Z</time>
      </trkpt>
      <trkpt lat="48.40722" lon="7.25747">
        <ele>1002</ele>
        <time>2020-09-06T09:39:15.512Z</time>
      </trkpt>
      <trkpt lat="48.40722" lon="7.25749">
        <ele>1002</ele>
        <time>2020-09-06T09:39:16.512Z</time>
      </trkpt>
      <trkpt lat="48.40721" lon="7.25751">
        <ele>1002</ele>
        <time>2020-09-06T09:39:17.512Z</time>
      </trkpt>
      <trkpt lat="48.4072" lon="7.25752">
        <ele>1002</ele>
        <time>2020-09-06T09:39:18.512Z</time>
      </trkpt>
      <trkpt lat="48.40719" lon="7.25753">
        <ele>1002</ele>
        <time>2020-09-06T09:39:19.512Z</time>
      </trkpt>
      <trkpt lat="48.40718" lon="7.25754">
        <ele>1001</ele>
        <time>2020-09-06T09:39:20.511Z</time>
      </trkpt>
      <trkpt lat="48.40717" lon="7.25756">
        <ele>1002</ele>
        <time>2020-09-06T09:39:21.512Z</time>
      </trkpt>
      <trkpt lat="48.40717" lon="7.25757">
        <ele>1002</ele>
        <time>2020-09-06T09:39:22.512Z</time>
      </trkpt>
      <trkpt lat="48.40716" lon="7.25757">
        <ele>1002</ele>
        <time>2020-09-06T09:39:23.512Z</time>
      </trkpt>
      <trkpt lat="48.40716" lon="7.25757">
        <ele>1003</ele>
        <time>2020-09-06T09:39:24.511Z</time>
      </trkpt>
      <trkpt lat="48.40715" lon="7.25756">
        <ele>1003</ele>
        <time>2020-09-06T09:39:25.512Z</time>
      </trkpt>
      <trkpt lat="48.40715" lon="7.25755">
        <ele>1003</ele>
        <time>2020-09-06T09:39:26.512Z</time>
      </trkpt>
      <trkpt lat="48.40714" lon="7.25755">
        <ele>1003</ele>
        <time>2020-09-06T09:39:27.512Z</time>
      </trkpt>
      <trkpt lat="48.40714" lon="7.25756">
        <ele>1003</ele>
        <time>2020-09-06T09:39:28.512Z</time>
      </trkpt>
      <trkpt lat="48.40713" lon="7.25756">
        <ele>1004</ele>
        <time>2020-09-06T09:39:29.512Z</time>
      </trkpt>
      <trkpt lat="48.40712" lon="7.25757">
        <ele>1004</ele>
        <time>2020-09-06T09:39:30.512Z</time>
      </trkpt>
      <trkpt lat="48.40711" lon="7.25758">
        <ele>1005</ele>
        <time>2020-09-06T09:39:31.512Z</time>
      </trkpt>
      <trkpt lat="48.4071" lon="7.25758">
        <ele>1005</ele>
        <time>2020-09-06T09:39:32.512Z</time>
      </trkpt>
      <trkpt lat="48.40708" lon="7.25758">
        <ele>1005</ele>
        <time>2020-09-06T09:39:33.512Z</time>
      </trkpt>
      <trkpt lat="48.40708" lon="7.25758">
        <ele>1005</ele>
        <time>2020-09-06T09:39:34.512Z</time>
      </trkpt>
      <trkpt lat="48.40707" lon="7.25757">
        <ele>1005</ele>
        <time>2020-09-06T09:39:35.512Z</time>
      </trkpt>
      <trkpt lat="48.40706" lon="7.25758">
        <ele>1005</ele>
        <time>2020-09-06T09:39:36.512Z</time>
      </trkpt>
      <trkpt lat="48.40705" lon="7.25759">
        <ele>1005</ele>
        <time>2020-09-06T09:39:37.511Z</time>
      </trkpt>
      <trkpt lat="48.40705" lon="7.2576">
        <ele>1004</ele>
        <time>2020-09-06T09:39:38.512Z</time>
      </trkpt>
      <trkpt lat="48.40704" lon="7.25762">
        <ele>1004</ele>
        <time>2020-09-06T09:39:39.512Z</time>
      </trkpt>
      <trkpt lat="48.40703" lon="7.25763">
        <ele>1004</ele>
        <time>2020-09-06T09:39:40.512Z</time>
      </trkpt>
      <trkpt lat="48.40702" lon="7.25765">
        <ele>1004</ele>
        <time>2020-09-06T09:39:41.512Z</time>
      </trkpt>
      <trkpt lat="48.40701" lon="7.25767">
        <ele>1004</ele>
        <time>2020-09-06T09:39:42.512Z</time>
      </trkpt>
      <trkpt lat="48.40701" lon="7.25769">
        <ele>1005</ele>
        <time>2020-09-06T09:39:43.512Z</time>
      </trkpt>
      <trkpt lat="48.407" lon="7.2577">
        <ele>1005</ele>
        <time>2020-09-06T09:39:44.512Z</time>
      </trkpt>
      <trkpt lat="48.407" lon="7.25771">
        <ele>1005</ele>
        <time>2020-09-06T09:39:45.512Z</time>
      </trkpt>
      <trkpt lat="48.407" lon="7.25773">
        <ele>1004</ele>
        <time>2020-09-06T09:39:46.512Z</time>
      </trkpt>
      <trkpt lat="48.407" lon="7.25775">
        <ele>1004</ele>
        <time>2020-09-06T09:39:47.512Z</time>
      </trkpt>
      <trkpt lat="48.40699" lon="7.25776">
        <ele>1004</ele>
        <time>2020-09-06T09:39:48.512Z</time>
      </trkpt>
      <trkpt lat="48.40699" lon="7.25778">
        <ele>1004</ele>
        <time>2020-09-06T09:39:49.512Z</time>
      </trkpt>
      <trkpt lat="48.40699" lon="7.25779">
        <ele>1003</ele>
        <time>2020-09-06T09:39:50.512Z</time>
      </trkpt>
      <trkpt lat="48.40698" lon="7.25781">
        <ele>1003</ele>
        <time>2020-09-06T09:39:51.511Z</time>
      </trkpt>
      <trkpt lat="48.40698" lon="7.25782">
        <ele>1003</ele>
        <time>2020-09-06T09:39:52.511Z</time>
      </trkpt>
      <trkpt lat="48.40698" lon="7.25784">
        <ele>1002</ele>
        <time>2020-09-06T09:39:53.511Z</time>
      </trkpt>
      <trkpt lat="48.40698" lon="7.25785">
        <ele>1002</ele>
        <time>2020-09-06T09:39:54.512Z</time>
      </trkpt>
      <trkpt lat="48.40698" lon="7.25787">
        <ele>1002</ele>
        <time>2020-09-06T09:39:55.512Z</time>
      </trkpt>
      <trkpt lat="48.40698" lon="7.25789">
        <ele>1002</ele>
        <time>2020-09-06T09:39:56.512Z</time>
      </trkpt>
      <trkpt lat="48.40698" lon="7.25792">
        <ele>1001</ele>
        <time>2020-09-06T09:39:57.512Z</time>
      </trkpt>
      <trkpt lat="48.40698" lon="7.25795">
        <ele>1001</ele>
        <time>2020-09-06T09:39:58.511Z</time>
      </trkpt>
      <trkpt lat="48.40698" lon="7.25798">
        <ele>1001</ele>
        <time>2020-09-06T09:39:59.512Z</time>
      </trkpt>
      <trkpt lat="48.40698" lon="7.25799">
        <ele>1001</ele>
        <time>2020-09-06T09:40:00.512Z</time>
      </trkpt>
      <trkpt lat="48.40698" lon="7.25799">
        <ele>1001</ele>
        <time>2020-09-06T09:40:01.512Z</time>
      </trkpt>
      <trkpt lat="48.40698" lon="7.25801">
        <ele>1002</ele>
        <time>2020-09-06T09:40:02.512Z</time>
      </trkpt>
      <trkpt lat="48.40697" lon="7.25802">
        <ele>1002</ele>
        <time>2020-09-06T09:40:03.511Z</time>
      </trkpt>
      <trkpt lat="48.40697" lon="7.25804">
        <ele>1003</ele>
        <time>2020-09-06T09:40:04.512Z</time>
      </trkpt>
      <trkpt lat="48.40696" lon="7.25806">
        <ele>1003</ele>
        <time>2020-09-06T09:40:05.512Z</time>
      </trkpt>
      <trkpt lat="48.40696" lon="7.25807">
        <ele>1003</ele>
        <time>2020-09-06T09:40:06.512Z</time>
      </trkpt>
      <trkpt lat="48.40695" lon="7.25808">
        <ele>1002</ele>
        <time>2020-09-06T09:40:07.512Z</time>
      </trkpt>
      <trkpt lat="48.40695" lon="7.25809">
        <ele>1002</ele>
        <time>2020-09-06T09:40:08.512Z</time>
      </trkpt>
      <trkpt lat="48.40694" lon="7.2581">
        <ele>1001</ele>
        <time>2020-09-06T09:40:09.512Z</time>
      </trkpt>
      <trkpt lat="48.40694" lon="7.25812">
        <ele>1000</ele>
        <time>2020-09-06T09:40:10.512Z</time>
      </trkpt>
      <trkpt lat="48.40693" lon="7.25814">
        <ele>1000</ele>
        <time>2020-09-06T09:40:11.511Z</time>
      </trkpt>
      <trkpt lat="48.40693" lon="7.25816">
        <ele>1000</ele>
        <time>2020-09-06T09:40:12.512Z</time>
      </trkpt>
      <trkpt lat="48.40692" lon="7.25819">
        <ele>1000</ele>
        <time>2020-09-06T09:40:13.512Z</time>
      </trkpt>
      <trkpt lat="48.40691" lon="7.2582">
        <ele>1000</ele>
        <time>2020-09-06T09:40:14.511Z</time>
      </trkpt>
      <trkpt lat="48.4069" lon="7.25822">
        <ele>1000</ele>
        <time>2020-09-06T09:40:15.512Z</time>
      </trkpt>
      <trkpt lat="48.40689" lon="7.25823">
        <ele>1000</ele>
        <time>2020-09-06T09:40:16.512Z</time>
      </trkpt>
      <trkpt lat="48.40689" lon="7.25824">
        <ele>1001</ele>
        <time>2020-09-06T09:40:17.512Z</time>
      </trkpt>
      <trkpt lat="48.40689" lon="7.25825">
        <ele>1001</ele>
        <time>2020-09-06T09:40:18.512Z</time>
      </trkpt>
      <trkpt lat="48.40688" lon="7.25826">
        <ele>1001</ele>
        <time>2020-09-06T09:40:19.512Z</time>
      </trkpt>
      <trkpt lat="48.40687" lon="7.25828">
        <ele>1002</ele>
        <time>2020-09-06T09:40:20.512Z</time>
      </trkpt>
      <trkpt lat="48.40687" lon="7.25829">
        <ele>1003</ele>
        <time>2020-09-06T09:40:21.512Z</time>
      </trkpt>
      <trkpt lat="48.40686" lon="7.25831">
        <ele>1004</ele>
        <time>2020-09-06T09:40:22.512Z</time>
      </trkpt>
      <trkpt lat="48.40685" lon="7.25832">
        <ele>1004</ele>
        <time>2020-09-06T09:40:23.512Z</time>
      </trkpt>
      <trkpt lat="48.40684" lon="7.25834">
        <ele>1004</ele>
        <time>2020-09-06T09:40:24.512Z</time>
      </trkpt>
      <trkpt lat="48.40683" lon="7.25834">
        <ele>1004</ele>
        <time>2020-09-06T09:40:25.512Z</time>
      </trkpt>
      <trkpt lat="48.40682" lon="7.25836">
        <ele>1004</ele>
        <time>2020-09-06T09:40:26.512Z</time>
      </trkpt>
      <trkpt lat="48.40681" lon="7.25837">
        <ele>1005</ele>
        <time>2020-09-06T09:40:27.512Z</time>
      </trkpt>
      <trkpt lat="48.4068" lon="7.25839">
        <ele>1005</ele>
        <time>2020-09-06T09:40:28.511Z</time>
      </trkpt>
      <trkpt lat="48.40679" lon="7.2584">
        <ele>1005</ele>
        <time>2020-09-06T09:40:29.512Z</time>
      </trkpt>
      <trkpt lat="48.40678" lon="7.25843">
        <ele>1006</ele>
        <time>2020-09-06T09:40:30.512Z</time>
      </trkpt>
      <trkpt lat="48.40677" lon="7.25844">
        <ele>1006</ele>
        <time>2020-09-06T09:40:31.512Z</time>
      </trkpt>
      <trkpt lat="48.40676" lon="7.25845">
        <ele>1007</ele>
        <time>2020-09-06T09:40:32.511Z</time>
      </trkpt>
      <trkpt lat="48.40676" lon="7.25845">
        <ele>1007</ele>
        <time>2020-09-06T09:40:33.512Z</time>
      </trkpt>
      <trkpt lat="48.40675" lon="7.25845">
        <ele>1008</ele>
        <time>2020-09-06T09:40:34.512Z</time>
      </trkpt>
      <trkpt lat="48.40674" lon="7.25846">
        <ele>1008</ele>
        <time>2020-09-06T09:40:35.512Z</time>
      </trkpt>
      <trkpt lat="48.40673" lon="7.25847">
        <ele>1008</ele>
        <time>2020-09-06T09:40:36.512Z</time>
      </trkpt>
      <trkpt lat="48.40671" lon="7.25847">
        <ele>1008</ele>
        <time>2020-09-06T09:40:37.512Z</time>
      </trkpt>
      <trkpt lat="48.4067" lon="7.25849">
        <ele>1008</ele>
        <time>2020-09-06T09:40:38.512Z</time>
      </trkpt>
      <trkpt lat="48.40669" lon="7.2585">
        <ele>1007</ele>
        <time>2020-09-06T09:40:39.511Z</time>
      </trkpt>
      <trkpt lat="48.40668" lon="7.2585">
        <ele>1007</ele>
        <time>2020-09-06T09:40:40.511Z</time>
      </trkpt>
      <trkpt lat="48.40667" lon="7.25851">
        <ele>1006</ele>
        <time>2020-09-06T09:40:41.512Z</time>
      </trkpt>
      <trkpt lat="48.40666" lon="7.25852">
        <ele>1006</ele>
        <time>2020-09-06T09:40:42.512Z</time>
      </trkpt>
      <trkpt lat="48.40666" lon="7.25852">
        <ele>1006</ele>
        <time>2020-09-06T09:40:43.511Z</time>
      </trkpt>
      <trkpt lat="48.40665" lon="7.25853">
        <ele>1006</ele>
        <time>2020-09-06T09:40:44.511Z</time>
      </trkpt>
      <trkpt lat="48.40664" lon="7.25855">
        <ele>1006</ele>
        <time>2020-09-06T09:40:45.512Z</time>
      </trkpt>
      <trkpt lat="48.40663" lon="7.25856">
        <ele>1006</ele>
        <time>2020-09-06T09:40:46.512Z</time>
      </trkpt>
      <trkpt lat="48.40662" lon="7.25858">
        <ele>1007</ele>
        <time>2020-09-06T09:40:47.512Z</time>
      </trkpt>
      <trkpt lat="48.40662" lon="7.25859">
        <ele>1007</ele>
        <time>2020-09-06T09:40:48.511Z</time>
      </trkpt>
      <trkpt lat="48.40661" lon="7.25859">
        <ele>1008</ele>
        <time>2020-09-06T09:40:49.511Z</time>
      </trkpt>
      <trkpt lat="48.4066" lon="7.2586">
        <ele>1008</ele>
        <time>2020-09-06T09:40:50.512Z</time>
      </trkpt>
      <trkpt lat="48.40659" lon="7.25861">
        <ele>1009</ele>
        <time>2020-09-06T09:40:51.512Z</time>
      </trkpt>
      <trkpt lat="48.40658" lon="7.25861">
        <ele>1010</ele>
        <time>2020-09-06T09:40:52.512Z</time>
      </trkpt>
      <trkpt lat="48.40657" lon="7.25862">
        <ele>1010</ele>
        <time>2020-09-06T09:40:53.512Z</time>
      </trkpt>
      <trkpt lat="48.40656" lon="7.25862">
        <ele>1011</ele>
        <time>2020-09-06T09:40:54.511Z</time>
      </trkpt>
      <trkpt lat="48.40656" lon="7.25862">
        <ele>1011</ele>
        <time>2020-09-06T09:40:55.511Z</time>
      </trkpt>
      <trkpt lat="48.40655" lon="7.25862">
        <ele>1011</ele>
        <time>2020-09-06T09:40:56.512Z</time>
      </trkpt>
      <trkpt lat="48.40655" lon="7.25861">
        <ele>1012</ele>
        <time>2020-09-06T09:40:57.512Z</time>
      </trkpt>
      <trkpt lat="48.40654" lon="7.25861">
        <ele>1013</ele>
        <time>2020-09-06T09:40:58.511Z</time>
      </trkpt>
      <trkpt lat="48.40653" lon="7.2586">
        <ele>1013</ele>
        <time>2020-09-06T09:40:59.512Z</time>
      </trkpt>
      <trkpt lat="48.40653" lon="7.2586">
        <ele>1013</ele>
        <time>2020-09-06T09:41:00.512Z</time>
      </trkpt>
      <trkpt lat="48.40652" lon="7.25861">
        <ele>1012</ele>
        <time>2020-09-06T09:41:01.511Z</time>
      </trkpt>
      <trkpt lat="48.40652" lon="7.25863">
        <ele>1011</ele>
        <time>2020-09-06T09:41:02.512Z</time>
      </trkpt>
      <trkpt lat="48.40651" lon="7.25864">
        <ele>1011</ele>
        <time>2020-09-06T09:41:03.512Z</time>
      </trkpt>
      <trkpt lat="48.4065" lon="7.25866">
        <ele>1011</ele>
        <time>2020-09-06T09:41:04.511Z</time>
      </trkpt>
      <trkpt lat="48.40649" lon="7.25866">
        <ele>1011</ele>
        <time>2020-09-06T09:41:05.512Z</time>
      </trkpt>
      <trkpt lat="48.40648" lon="7.25867">
        <ele>1010</ele>
        <time>2020-09-06T09:41:06.512Z</time>
      </trkpt>
      <trkpt lat="48.40647" lon="7.25867">
        <ele>1009</ele>
        <time>2020-09-06T09:41:07.511Z</time>
      </trkpt>
      <trkpt lat="48.40646" lon="7.25867">
        <ele>1008</ele>
        <time>2020-09-06T09:41:08.511Z</time>
      </trkpt>
      <trkpt lat="48.40645" lon="7.25868">
        <ele>1008</ele>
        <time>2020-09-06T09:41:09.511Z</time>
      </trkpt>
      <trkpt lat="48.40645" lon="7.25868">
        <ele>1008</ele>
        <time>2020-09-06T09:41:10.511Z</time>
      </trkpt>
      <trkpt lat="48.40644" lon="7.25869">
        <ele>1008</ele>
        <time>2020-09-06T09:41:11.511Z</time>
      </trkpt>
      <trkpt lat="48.40643" lon="7.2587">
        <ele>1008</ele>
        <time>2020-09-06T09:41:12.511Z</time>
      </trkpt>
      <trkpt lat="48.40642" lon="7.2587">
        <ele>1009</ele>
        <time>2020-09-06T09:41:13.512Z</time>
      </trkpt>
      <trkpt lat="48.40641" lon="7.25871">
        <ele>1009</ele>
        <time>2020-09-06T09:41:14.512Z</time>
      </trkpt>
      <trkpt lat="48.4064" lon="7.25872">
        <ele>1009</ele>
        <time>2020-09-06T09:41:15.512Z</time>
      </trkpt>
      <trkpt lat="48.40639" lon="7.25873">
        <ele>1009</ele>
        <time>2020-09-06T09:41:16.512Z</time>
      </trkpt>
      <trkpt lat="48.40637" lon="7.25874">
        <ele>1008</ele>
        <time>2020-09-06T09:41:17.512Z</time>
      </trkpt>
      <trkpt lat="48.40636" lon="7.25875">
        <ele>1008</ele>
        <time>2020-09-06T09:41:18.512Z</time>
      </trkpt>
      <trkpt lat="48.40635" lon="7.25876">
        <ele>1008</ele>
        <time>2020-09-06T09:41:19.511Z</time>
      </trkpt>
      <trkpt lat="48.40634" lon="7.25877">
        <ele>1008</ele>
        <time>2020-09-06T09:41:20.512Z</time>
      </trkpt>
      <trkpt lat="48.40633" lon="7.25877">
        <ele>1008</ele>
        <time>2020-09-06T09:41:21.512Z</time>
      </trkpt>
      <trkpt lat="48.40633" lon="7.25878">
        <ele>1008</ele>
        <time>2020-09-06T09:41:22.511Z</time>
      </trkpt>
      <trkpt lat="48.40632" lon="7.25879">
        <ele>1008</ele>
        <time>2020-09-06T09:41:23.511Z</time>
      </trkpt>
      <trkpt lat="48.40631" lon="7.2588">
        <ele>1008</ele>
        <time>2020-09-06T09:41:24.512Z</time>
      </trkpt>
      <trkpt lat="48.4063" lon="7.2588">
        <ele>1008</ele>
        <time>2020-09-06T09:41:25.511Z</time>
      </trkpt>
      <trkpt lat="48.40629" lon="7.25881">
        <ele>1008</ele>
        <time>2020-09-06T09:41:26.512Z</time>
      </trkpt>
      <trkpt lat="48.40628" lon="7.25882">
        <ele>1008</ele>
        <time>2020-09-06T09:41:27.512Z</time>
      </trkpt>
      <trkpt lat="48.40627" lon="7.25882">
        <ele>1008</ele>
        <time>2020-09-06T09:41:28.512Z</time>
      </trkpt>
      <trkpt lat="48.40626" lon="7.25883">
        <ele>1008</ele>
        <time>2020-09-06T09:41:29.512Z</time>
      </trkpt>
      <trkpt lat="48.40625" lon="7.25883">
        <ele>1008</ele>
        <time>2020-09-06T09:41:30.511Z</time>
      </trkpt>
      <trkpt lat="48.40624" lon="7.25883">
        <ele>1008</ele>
        <time>2020-09-06T09:41:31.512Z</time>
      </trkpt>
      <trkpt lat="48.40623" lon="7.25883">
        <ele>1008</ele>
        <time>2020-09-06T09:41:32.512Z</time>
      </trkpt>
      <trkpt lat="48.40622" lon="7.25883">
        <ele>1009</ele>
        <time>2020-09-06T09:41:33.511Z</time>
      </trkpt>
      <trkpt lat="48.40622" lon="7.25883">
        <ele>1010</ele>
        <time>2020-09-06T09:41:34.511Z</time>
      </trkpt>
      <trkpt lat="48.40621" lon="7.25884">
        <ele>1010</ele>
        <time>2020-09-06T09:41:35.512Z</time>
      </trkpt>
      <trkpt lat="48.4062" lon="7.25884">
        <ele>1011</ele>
        <time>2020-09-06T09:41:36.512Z</time>
      </trkpt>
      <trkpt lat="48.40618" lon="7.25885">
        <ele>1011</ele>
        <time>2020-09-06T09:41:37.512Z</time>
      </trkpt>
      <trkpt lat="48.40617" lon="7.25886">
        <ele>1011</ele>
        <time>2020-09-06T09:41:38.511Z</time>
      </trkpt>
      <trkpt lat="48.40616" lon="7.25886">
        <ele>1011</ele>
        <time>2020-09-06T09:41:39.512Z</time>
      </trkpt>
      <trkpt lat="48.40615" lon="7.25886">
        <ele>1010</ele>
        <time>2020-09-06T09:41:40.512Z</time>
      </trkpt>
      <trkpt lat="48.40614" lon="7.25887">
        <ele>1010</ele>
        <time>2020-09-06T09:41:41.512Z</time>
      </trkpt>
      <trkpt lat="48.40613" lon="7.25887">
        <ele>1010</ele>
        <time>2020-09-06T09:41:42.512Z</time>
      </trkpt>
      <trkpt lat="48.40611" lon="7.25887">
        <ele>1010</ele>
        <time>2020-09-06T09:41:43.512Z</time>
      </trkpt>
      <trkpt lat="48.4061" lon="7.25887">
        <ele>1009</ele>
        <time>2020-09-06T09:41:44.511Z</time>
      </trkpt>
      <trkpt lat="48.40609" lon="7.25888">
        <ele>1009</ele>
        <time>2020-09-06T09:41:45.512Z</time>
      </trkpt>
      <trkpt lat="48.40608" lon="7.25888">
        <ele>1009</ele>
        <time>2020-09-06T09:41:46.512Z</time>
      </trkpt>
      <trkpt lat="48.40606" lon="7.25888">
        <ele>1008</ele>
        <time>2020-09-06T09:41:47.512Z</time>
      </trkpt>
      <trkpt lat="48.40605" lon="7.25888">
        <ele>1008</ele>
        <time>2020-09-06T09:41:48.511Z</time>
      </trkpt>
      <trkpt lat="48.40604" lon="7.25888">
        <ele>1008</ele>
        <time>2020-09-06T09:41:49.512Z</time>
      </trkpt>
      <trkpt lat="48.40602" lon="7.25888">
        <ele>1009</ele>
        <time>2020-09-06T09:41:50.512Z</time>
      </trkpt>
      <trkpt lat="48.40601" lon="7.25889">
        <ele>1009</ele>
        <time>2020-09-06T09:41:51.511Z</time>
      </trkpt>
      <trkpt lat="48.40599" lon="7.25889">
        <ele>1009</ele>
        <time>2020-09-06T09:41:52.512Z</time>
      </trkpt>
      <trkpt lat="48.40598" lon="7.25889">
        <ele>1009</ele>
        <time>2020-09-06T09:41:53.512Z</time>
      </trkpt>
      <trkpt lat="48.40597" lon="7.2589">
        <ele>1009</ele>
        <time>2020-09-06T09:41:54.512Z</time>
      </trkpt>
      <trkpt lat="48.40595" lon="7.25891">
        <ele>1009</ele>
        <time>2020-09-06T09:41:55.512Z</time>
      </trkpt>
      <trkpt lat="48.40594" lon="7.25891">
        <ele>1009</ele>
        <time>2020-09-06T09:41:56.512Z</time>
      </trkpt>
      <trkpt lat="48.40593" lon="7.25891">
        <ele>1009</ele>
        <time>2020-09-06T09:41:57.512Z</time>
      </trkpt>
      <trkpt lat="48.40591" lon="7.25891">
        <ele>1009</ele>
        <time>2020-09-06T09:41:58.511Z</time>
      </trkpt>
      <trkpt lat="48.4059" lon="7.25891">
        <ele>1010</ele>
        <time>2020-09-06T09:41:59.512Z</time>
      </trkpt>
      <trkpt lat="48.40589" lon="7.25891">
        <ele>1010</ele>
        <time>2020-09-06T09:42:00.511Z</time>
      </trkpt>
      <trkpt lat="48.40588" lon="7.25891">
        <ele>1010</ele>
        <time>2020-09-06T09:42:01.512Z</time>
      </trkpt>
      <trkpt lat="48.40587" lon="7.2589">
        <ele>1010</ele>
        <time>2020-09-06T09:42:02.512Z</time>
      </trkpt>
      <trkpt lat="48.40587" lon="7.2589">
        <ele>1010</ele>
        <time>2020-09-06T09:42:03.512Z</time>
      </trkpt>
      <trkpt lat="48.40587" lon="7.2589">
        <ele>1010</ele>
        <time>2020-09-06T09:42:04.512Z</time>
      </trkpt>
      <trkpt lat="48.40586" lon="7.25891">
        <ele>1010</ele>
        <time>2020-09-06T09:42:05.512Z</time>
      </trkpt>
      <trkpt lat="48.40586" lon="7.25891">
        <ele>1010</ele>
        <time>2020-09-06T09:42:06.512Z</time>
      </trkpt>
      <trkpt lat="48.40586" lon="7.25891">
        <ele>1010</ele>
        <time>2020-09-06T09:42:07.512Z</time>
      </trkpt>
      <trkpt lat="48.40585" lon="7.25892">
        <ele>1010</ele>
        <time>2020-09-06T09:42:08.512Z</time>
      </trkpt>
      <trkpt lat="48.40585" lon="7.25892">
        <ele>1010</ele>
        <time>2020-09-06T09:42:09.512Z</time>
      </trkpt>
      <trkpt lat="48.40583" lon="7.25892">
        <ele>1009</ele>
        <time>2020-09-06T09:42:10.512Z</time>
      </trkpt>
      <trkpt lat="48.40582" lon="7.25893">
        <ele>1009</ele>
        <time>2020-09-06T09:42:11.512Z</time>
      </trkpt>
      <trkpt lat="48.4058" lon="7.25893">
        <ele>1009</ele>
        <time>2020-09-06T09:42:12.512Z</time>
      </trkpt>
      <trkpt lat="48.40578" lon="7.25894">
        <ele>1009</ele>
        <time>2020-09-06T09:42:13.512Z</time>
      </trkpt>
      <trkpt lat="48.40577" lon="7.25895">
        <ele>1009</ele>
        <time>2020-09-06T09:42:14.512Z</time>
      </trkpt>
      <trkpt lat="48.40576" lon="7.25895">
        <ele>1010</ele>
        <time>2020-09-06T09:42:15.511Z</time>
      </trkpt>
      <trkpt lat="48.40574" lon="7.25896">
        <ele>1010</ele>
        <time>2020-09-06T09:42:16.512Z</time>
      </trkpt>
      <trkpt lat="48.40573" lon="7.25896">
        <ele>1011</ele>
        <time>2020-09-06T09:42:17.511Z</time>
      </trkpt>
      <trkpt lat="48.40571" lon="7.25897">
        <ele>1011</ele>
        <time>2020-09-06T09:42:18.512Z</time>
      </trkpt>
      <trkpt lat="48.4057" lon="7.25898">
        <ele>1012</ele>
        <time>2020-09-06T09:42:19.512Z</time>
      </trkpt>
      <trkpt lat="48.40568" lon="7.25898">
        <ele>1011</ele>
        <time>2020-09-06T09:42:20.512Z</time>
      </trkpt>
      <trkpt lat="48.40567" lon="7.25898">
        <ele>1011</ele>
        <time>2020-09-06T09:42:21.511Z</time>
      </trkpt>
      <trkpt lat="48.40566" lon="7.25899">
        <ele>1010</ele>
        <time>2020-09-06T09:42:22.512Z</time>
      </trkpt>
      <trkpt lat="48.40564" lon="7.25899">
        <ele>1010</ele>
        <time>2020-09-06T09:42:23.512Z</time>
      </trkpt>
      <trkpt lat="48.40563" lon="7.259">
        <ele>1009</ele>
        <time>2020-09-06T09:42:24.512Z</time>
      </trkpt>
      <trkpt lat="48.40561" lon="7.259">
        <ele>1009</ele>
        <time>2020-09-06T09:42:25.512Z</time>
      </trkpt>
      <trkpt lat="48.4056" lon="7.25901">
        <ele>1009</ele>
        <time>2020-09-06T09:42:26.512Z</time>
      </trkpt>
      <trkpt lat="48.40559" lon="7.25902">
        <ele>1009</ele>
        <time>2020-09-06T09:42:27.512Z</time>
      </trkpt>
      <trkpt lat="48.40557" lon="7.25902">
        <ele>1009</ele>
        <time>2020-09-06T09:42:28.512Z</time>
      </trkpt>
      <trkpt lat="48.40556" lon="7.25903">
        <ele>1009</ele>
        <time>2020-09-06T09:42:29.512Z</time>
      </trkpt>
      <trkpt lat="48.40555" lon="7.25903">
        <ele>1008</ele>
        <time>2020-09-06T09:42:30.512Z</time>
      </trkpt>
      <trkpt lat="48.40553" lon="7.25904">
        <ele>1008</ele>
        <time>2020-09-06T09:42:31.511Z</time>
      </trkpt>
      <trkpt lat="48.40552" lon="7.25904">
        <ele>1008</ele>
        <time>2020-09-06T09:42:32.512Z</time>
      </trkpt>
      <trkpt lat="48.40551" lon="7.25905">
        <ele>1008</ele>
        <time>2020-09-06T09:42:33.512Z</time>
      </trkpt>
      <trkpt lat="48.40549" lon="7.25905">
        <ele>1008</ele>
        <time>2020-09-06T09:42:34.512Z</time>
      </trkpt>
      <trkpt lat="48.40548" lon="7.25906">
        <ele>1008</ele>
        <time>2020-09-06T09:42:35.511Z</time>
      </trkpt>
      <trkpt lat="48.40547" lon="7.25905">
        <ele>1008</ele>
        <time>2020-09-06T09:42:36.512Z</time>
      </trkpt>
      <trkpt lat="48.40546" lon="7.25905">
        <ele>1009</ele>
        <time>2020-09-06T09:42:37.511Z</time>
      </trkpt>
      <trkpt lat="48.40545" lon="7.25906">
        <ele>1009</ele>
        <time>2020-09-06T09:42:38.511Z</time>
      </trkpt>
      <trkpt lat="48.40543" lon="7.25906">
        <ele>1009</ele>
        <time>2020-09-06T09:42:39.512Z</time>
      </trkpt>
      <trkpt lat="48.40542" lon="7.25907">
        <ele>1009</ele>
        <time>2020-09-06T09:42:40.512Z</time>
      </trkpt>
      <trkpt lat="48.40541" lon="7.25908">
        <ele>1009</ele>
        <time>2020-09-06T09:42:41.512Z</time>
      </trkpt>
      <trkpt lat="48.4054" lon="7.25909">
        <ele>1009</ele>
        <time>2020-09-06T09:42:42.512Z</time>
      </trkpt>
      <trkpt lat="48.40538" lon="7.25909">
        <ele>1009</ele>
        <time>2020-09-06T09:42:43.511Z</time>
      </trkpt>
      <trkpt lat="48.40537" lon="7.25909">
        <ele>1008</ele>
        <time>2020-09-06T09:42:44.512Z</time>
      </trkpt>
      <trkpt lat="48.40536" lon="7.2591">
        <ele>1008</ele>
        <time>2020-09-06T09:42:45.512Z</time>
      </trkpt>
      <trkpt lat="48.40535" lon="7.25911">
        <ele>1009</ele>
        <time>2020-09-06T09:42:46.512Z</time>
      </trkpt>
      <trkpt lat="48.40533" lon="7.25912">
        <ele>1009</ele>
        <time>2020-09-06T09:42:47.511Z</time>
      </trkpt>
      <trkpt lat="48.40532" lon="7.25913">
        <ele>1009</ele>
        <time>2020-09-06T09:42:48.512Z</time>
      </trkpt>
      <trkpt lat="48.40531" lon="7.25913">
        <ele>1010</ele>
        <time>2020-09-06T09:42:49.512Z</time>
      </trkpt>
      <trkpt lat="48.4053" lon="7.25914">
        <ele>1010</ele>
        <time>2020-09-06T09:42:50.512Z</time>
      </trkpt>
      <trkpt lat="48.40529" lon="7.25914">
        <ele>1010</ele>
        <time>2020-09-06T09:42:51.512Z</time>
      </trkpt>
      <trkpt lat="48.40528" lon="7.25915">
        <ele>1010</ele>
        <time>2020-09-06T09:42:52.511Z</time>
      </trkpt>
      <trkpt lat="48.40527" lon="7.25916">
        <ele>1010</ele>
        <time>2020-09-06T09:42:53.512Z</time>
      </trkpt>
      <trkpt lat="48.40526" lon="7.25916">
        <ele>1010</ele>
        <time>2020-09-06T09:42:54.512Z</time>
      </trkpt>
      <trkpt lat="48.40524" lon="7.25917">
        <ele>1010</ele>
        <time>2020-09-06T09:42:55.512Z</time>
      </trkpt>
      <trkpt lat="48.40523" lon="7.25917">
        <ele>1010</ele>
        <time>2020-09-06T09:42:56.512Z</time>
      </trkpt>
      <trkpt lat="48.40522" lon="7.25917">
        <ele>1010</ele>
        <time>2020-09-06T09:42:57.512Z</time>
      </trkpt>
      <trkpt lat="48.40521" lon="7.25918">
        <ele>1010</ele>
        <time>2020-09-06T09:42:58.512Z</time>
      </trkpt>
      <trkpt lat="48.4052" lon="7.25918">
        <ele>1009</ele>
        <time>2020-09-06T09:42:59.512Z</time>
      </trkpt>
      <trkpt lat="48.40519" lon="7.25918">
        <ele>1009</ele>
        <time>2020-09-06T09:43:00.512Z</time>
      </trkpt>
      <trkpt lat="48.40518" lon="7.25918">
        <ele>1009</ele>
        <time>2020-09-06T09:43:01.511Z</time>
      </trkpt>
      <trkpt lat="48.40517" lon="7.25918">
        <ele>1009</ele>
        <time>2020-09-06T09:43:02.511Z</time>
      </trkpt>
      <trkpt lat="48.40515" lon="7.25917">
        <ele>1009</ele>
        <time>2020-09-06T09:43:03.512Z</time>
      </trkpt>
      <trkpt lat="48.40514" lon="7.25917">
        <ele>1009</ele>
        <time>2020-09-06T09:43:04.512Z</time>
      </trkpt>
      <trkpt lat="48.40513" lon="7.25917">
        <ele>1009</ele>
        <time>2020-09-06T09:43:05.511Z</time>
      </trkpt>
      <trkpt lat="48.40512" lon="7.25917">
        <ele>1009</ele>
        <time>2020-09-06T09:43:06.511Z</time>
      </trkpt>
      <trkpt lat="48.4051" lon="7.25918">
        <ele>1010</ele>
        <time>2020-09-06T09:43:07.511Z</time>
      </trkpt>
      <trkpt lat="48.40509" lon="7.25918">
        <ele>1010</ele>
        <time>2020-09-06T09:43:08.512Z</time>
      </trkpt>
      <trkpt lat="48.40508" lon="7.25919">
        <ele>1011</ele>
        <time>2020-09-06T09:43:09.512Z</time>
      </trkpt>
      <trkpt lat="48.40506" lon="7.25919">
        <ele>1012</ele>
        <time>2020-09-06T09:43:10.512Z</time>
      </trkpt>
      <trkpt lat="48.40505" lon="7.25919">
        <ele>1013</ele>
        <time>2020-09-06T09:43:11.511Z</time>
      </trkpt>
      <trkpt lat="48.40504" lon="7.25919">
        <ele>1013</ele>
        <time>2020-09-06T09:43:12.511Z</time>
      </trkpt>
      <trkpt lat="48.40502" lon="7.25919">
        <ele>1014</ele>
        <time>2020-09-06T09:43:13.512Z</time>
      </trkpt>
      <trkpt lat="48.40501" lon="7.25919">
        <ele>1014</ele>
        <time>2020-09-06T09:43:14.512Z</time>
      </trkpt>
      <trkpt lat="48.405" lon="7.25919">
        <ele>1014</ele>
        <time>2020-09-06T09:43:15.511Z</time>
      </trkpt>
      <trkpt lat="48.40499" lon="7.25919">
        <ele>1014</ele>
        <time>2020-09-06T09:43:16.511Z</time>
      </trkpt>
      <trkpt lat="48.40498" lon="7.2592">
        <ele>1014</ele>
        <time>2020-09-06T09:43:17.511Z</time>
      </trkpt>
      <trkpt lat="48.40497" lon="7.2592">
        <ele>1014</ele>
        <time>2020-09-06T09:43:18.512Z</time>
      </trkpt>
      <trkpt lat="48.40495" lon="7.25921">
        <ele>1014</ele>
        <time>2020-09-06T09:43:19.512Z</time>
      </trkpt>
      <trkpt lat="48.40494" lon="7.25922">
        <ele>1015</ele>
        <time>2020-09-06T09:43:20.512Z</time>
      </trkpt>
      <trkpt lat="48.40493" lon="7.25922">
        <ele>1015</ele>
        <time>2020-09-06T09:43:21.512Z</time>
      </trkpt>
      <trkpt lat="48.40492" lon="7.25923">
        <ele>1015</ele>
        <time>2020-09-06T09:43:22.511Z</time>
      </trkpt>
      <trkpt lat="48.40491" lon="7.25923">
        <ele>1014</ele>
        <time>2020-09-06T09:43:23.512Z</time>
      </trkpt>
      <trkpt lat="48.40489" lon="7.25924">
        <ele>1014</ele>
        <time>2020-09-06T09:43:24.512Z</time>
      </trkpt>
      <trkpt lat="48.40488" lon="7.25924">
        <ele>1014</ele>
        <time>2020-09-06T09:43:25.512Z</time>
      </trkpt>
      <trkpt lat="48.40487" lon="7.25925">
        <ele>1015</ele>
        <time>2020-09-06T09:43:26.512Z</time>
      </trkpt>
      <trkpt lat="48.40486" lon="7.25926">
        <ele>1014</ele>
        <time>2020-09-06T09:43:27.511Z</time>
      </trkpt>
      <trkpt lat="48.40485" lon="7.25926">
        <ele>1015</ele>
        <time>2020-09-06T09:43:28.511Z</time>
      </trkpt>
      <trkpt lat="48.40483" lon="7.25926">
        <ele>1015</ele>
        <time>2020-09-06T09:43:29.512Z</time>
      </trkpt>
      <trkpt lat="48.40482" lon="7.25926">
        <ele>1015</ele>
        <time>2020-09-06T09:43:30.512Z</time>
      </trkpt>
      <trkpt lat="48.40481" lon="7.25926">
        <ele>1014</ele>
        <time>2020-09-06T09:43:31.512Z</time>
      </trkpt>
      <trkpt lat="48.40479" lon="7.25925">
        <ele>1014</ele>
        <time>2020-09-06T09:43:32.511Z</time>
      </trkpt>
      <trkpt lat="48.40478" lon="7.25925">
        <ele>1014</ele>
        <time>2020-09-06T09:43:33.511Z</time>
      </trkpt>
      <trkpt lat="48.40477" lon="7.25925">
        <ele>1013</ele>
        <time>2020-09-06T09:43:34.512Z</time>
      </trkpt>
      <trkpt lat="48.40475" lon="7.25925">
        <ele>1013</ele>
        <time>2020-09-06T09:43:35.511Z</time>
      </trkpt>
      <trkpt lat="48.40474" lon="7.25924">
        <ele>1013</ele>
        <time>2020-09-06T09:43:36.512Z</time>
      </trkpt>
      <trkpt lat="48.40473" lon="7.25924">
        <ele>1013</ele>
        <time>2020-09-06T09:43:37.511Z</time>
      </trkpt>
      <trkpt lat="48.40472" lon="7.25923">
        <ele>1013</ele>
        <time>2020-09-06T09:43:38.511Z</time>
      </trkpt>
      <trkpt lat="48.40471" lon="7.25923">
        <ele>1013</ele>
        <time>2020-09-06T09:43:39.511Z</time>
      </trkpt>
      <trkpt lat="48.4047" lon="7.25922">
        <ele>1013</ele>
        <time>2020-09-06T09:43:40.511Z</time>
      </trkpt>
      <trkpt lat="48.40468" lon="7.25922">
        <ele>1013</ele>
        <time>2020-09-06T09:43:41.511Z</time>
      </trkpt>
      <trkpt lat="48.40467" lon="7.25922">
        <ele>1013</ele>
        <time>2020-09-06T09:43:42.512Z</time>
      </trkpt>
      <trkpt lat="48.40466" lon="7.25922">
        <ele>1013</ele>
        <time>2020-09-06T09:43:43.512Z</time>
      </trkpt>
      <trkpt lat="48.40465" lon="7.25922">
        <ele>1013</ele>
        <time>2020-09-06T09:43:44.511Z</time>
      </trkpt>
      <trkpt lat="48.40463" lon="7.25922">
        <ele>1013</ele>
        <time>2020-09-06T09:43:45.512Z</time>
      </trkpt>
      <trkpt lat="48.40462" lon="7.25922">
        <ele>1013</ele>
        <time>2020-09-06T09:43:46.511Z</time>
      </trkpt>
      <trkpt lat="48.40461" lon="7.25923">
        <ele>1014</ele>
        <time>2020-09-06T09:43:47.511Z</time>
      </trkpt>
      <trkpt lat="48.40459" lon="7.25923">
        <ele>1013</ele>
        <time>2020-09-06T09:43:48.511Z</time>
      </trkpt>
      <trkpt lat="48.40458" lon="7.25923">
        <ele>1013</ele>
        <time>2020-09-06T09:43:49.512Z</time>
      </trkpt>
      <trkpt lat="48.40457" lon="7.25923">
        <ele>1013</ele>
        <time>2020-09-06T09:43:50.512Z</time>
      </trkpt>
      <trkpt lat="48.40456" lon="7.25923">
        <ele>1013</ele>
        <time>2020-09-06T09:43:51.511Z</time>
      </trkpt>
      <trkpt lat="48.40455" lon="7.25923">
        <ele>1013</ele>
        <time>2020-09-06T09:43:52.511Z</time>
      </trkpt>
      <trkpt lat="48.40453" lon="7.25924">
        <ele>1013</ele>
        <time>2020-09-06T09:43:53.511Z</time>
      </trkpt>
      <trkpt lat="48.40452" lon="7.25924">
        <ele>1013</ele>
        <time>2020-09-06T09:43:54.512Z</time>
      </trkpt>
      <trkpt lat="48.40451" lon="7.25924">
        <ele>1014</ele>
        <time>2020-09-06T09:43:55.512Z</time>
      </trkpt>
      <trkpt lat="48.4045" lon="7.25924">
        <ele>1014</ele>
        <time>2020-09-06T09:43:56.511Z</time>
      </trkpt>
      <trkpt lat="48.40448" lon="7.25925">
        <ele>1014</ele>
        <time>2020-09-06T09:43:57.511Z</time>
      </trkpt>
      <trkpt lat="48.40447" lon="7.25925">
        <ele>1014</ele>
        <time>2020-09-06T09:43:58.512Z</time>
      </trkpt>
      <trkpt lat="48.40446" lon="7.25926">
        <ele>1015</ele>
        <time>2020-09-06T09:43:59.512Z</time>
      </trkpt>
      <trkpt lat="48.40445" lon="7.25925">
        <ele>1015</ele>
        <time>2020-09-06T09:44:00.511Z</time>
      </trkpt>
      <trkpt lat="48.40444" lon="7.25925">
        <ele>1015</ele>
        <time>2020-09-06T09:44:01.511Z</time>
      </trkpt>
      <trkpt lat="48.40444" lon="7.25925">
        <ele>1016</ele>
        <time>2020-09-06T09:44:02.511Z</time>
      </trkpt>
      <trkpt lat="48.40443" lon="7.25926">
        <ele>1016</ele>
        <time>2020-09-06T09:44:03.511Z</time>
      </trkpt>
      <trkpt lat="48.40443" lon="7.25926">
        <ele>1015</ele>
        <time>2020-09-06T09:44:04.511Z</time>
      </trkpt>
      <trkpt lat="48.40442" lon="7.25926">
        <ele>1015</ele>
        <time>2020-09-06T09:44:05.511Z</time>
      </trkpt>
      <trkpt lat="48.40441" lon="7.25926">
        <ele>1014</ele>
        <time>2020-09-06T09:44:06.511Z</time>
      </trkpt>
      <trkpt lat="48.4044" lon="7.25927">
        <ele>1014</ele>
        <time>2020-09-06T09:44:07.511Z</time>
      </trkpt>
      <trkpt lat="48.40439" lon="7.25927">
        <ele>1014</ele>
        <time>2020-09-06T09:44:08.512Z</time>
      </trkpt>
      <trkpt lat="48.40438" lon="7.25926">
        <ele>1013</ele>
        <time>2020-09-06T09:44:09.511Z</time>
      </trkpt>
      <trkpt lat="48.40436" lon="7.25926">
        <ele>1013</ele>
        <time>2020-09-06T09:44:10.511Z</time>
      </trkpt>
      <trkpt lat="48.40435" lon="7.25926">
        <ele>1012</ele>
        <time>2020-09-06T09:44:11.511Z</time>
      </trkpt>
      <trkpt lat="48.40434" lon="7.25926">
        <ele>1012</ele>
        <time>2020-09-06T09:44:12.511Z</time>
      </trkpt>
      <trkpt lat="48.40433" lon="7.25925">
        <ele>1012</ele>
        <time>2020-09-06T09:44:13.511Z</time>
      </trkpt>
      <trkpt lat="48.40432" lon="7.25926">
        <ele>1012</ele>
        <time>2020-09-06T09:44:14.511Z</time>
      </trkpt>
      <trkpt lat="48.40431" lon="7.25926">
        <ele>1013</ele>
        <time>2020-09-06T09:44:15.511Z</time>
      </trkpt>
      <trkpt lat="48.40429" lon="7.25926">
        <ele>1013</ele>
        <time>2020-09-06T09:44:16.511Z</time>
      </trkpt>
      <trkpt lat="48.40428" lon="7.25927">
        <ele>1014</ele>
        <time>2020-09-06T09:44:17.511Z</time>
      </trkpt>
      <trkpt lat="48.40427" lon="7.25927">
        <ele>1014</ele>
        <time>2020-09-06T09:44:18.511Z</time>
      </trkpt>
      <trkpt lat="48.40426" lon="7.25927">
        <ele>1014</ele>
        <time>2020-09-06T09:44:19.511Z</time>
      </trkpt>
      <trkpt lat="48.40424" lon="7.25927">
        <ele>1015</ele>
        <time>2020-09-06T09:44:20.511Z</time>
      </trkpt>
      <trkpt lat="48.40423" lon="7.25927">
        <ele>1015</ele>
        <time>2020-09-06T09:44:21.512Z</time>
      </trkpt>
      <trkpt lat="48.40422" lon="7.25927">
        <ele>1015</ele>
        <time>2020-09-06T09:44:22.512Z</time>
      </trkpt>
      <trkpt lat="48.4042" lon="7.25927">
        <ele>1014</ele>
        <time>2020-09-06T09:44:23.512Z</time>
      </trkpt>
      <trkpt lat="48.40419" lon="7.25927">
        <ele>1014</ele>
        <time>2020-09-06T09:44:24.511Z</time>
      </trkpt>
      <trkpt lat="48.40418" lon="7.25927">
        <ele>1014</ele>
        <time>2020-09-06T09:44:25.512Z</time>
      </trkpt>
      <trkpt lat="48.40417" lon="7.25928">
        <ele>1014</ele>
        <time>2020-09-06T09:44:26.512Z</time>
      </trkpt>
      <trkpt lat="48.40415" lon="7.25928">
        <ele>1015</ele>
        <time>2020-09-06T09:44:27.511Z</time>
      </trkpt>
      <trkpt lat="48.40414" lon="7.25928">
        <ele>1015</ele>
        <time>2020-09-06T09:44:28.512Z</time>
      </trkpt>
      <trkpt lat="48.40413" lon="7.25929">
        <ele>1016</ele>
        <time>2020-09-06T09:44:29.512Z</time>
      </trkpt>
      <trkpt lat="48.40412" lon="7.25929">
        <ele>1016</ele>
        <time>2020-09-06T09:44:30.512Z</time>
      </trkpt>
      <trkpt lat="48.4041" lon="7.25929">
        <ele>1017</ele>
        <time>2020-09-06T09:44:31.512Z</time>
      </trkpt>
      <trkpt lat="48.40409" lon="7.25929">
        <ele>1017</ele>
        <time>2020-09-06T09:44:32.512Z</time>
      </trkpt>
      <trkpt lat="48.40408" lon="7.25929">
        <ele>1017</ele>
        <time>2020-09-06T09:44:33.512Z</time>
      </trkpt>
      <trkpt lat="48.40407" lon="7.2593">
        <ele>1018</ele>
        <time>2020-09-06T09:44:34.512Z</time>
      </trkpt>
      <trkpt lat="48.40406" lon="7.2593">
        <ele>1018</ele>
        <time>2020-09-06T09:44:35.512Z</time>
      </trkpt>
      <trkpt lat="48.40405" lon="7.25931">
        <ele>1019</ele>
        <time>2020-09-06T09:44:36.512Z</time>
      </trkpt>
      <trkpt lat="48.40404" lon="7.25932">
        <ele>1019</ele>
        <time>2020-09-06T09:44:37.512Z</time>
      </trkpt>
      <trkpt lat="48.40403" lon="7.25933">
        <ele>1019</ele>
        <time>2020-09-06T09:44:38.511Z</time>
      </trkpt>
      <trkpt lat="48.40402" lon="7.25933">
        <ele>1020</ele>
        <time>2020-09-06T09:44:39.511Z</time>
      </trkpt>
      <trkpt lat="48.404" lon="7.25934">
        <ele>1019</ele>
        <time>2020-09-06T09:44:40.512Z</time>
      </trkpt>
      <trkpt lat="48.40399" lon="7.25935">
        <ele>1019</ele>
        <time>2020-09-06T09:44:41.511Z</time>
      </trkpt>
      <trkpt lat="48.40398" lon="7.25936">
        <ele>1019</ele>
        <time>2020-09-06T09:44:42.511Z</time>
      </trkpt>
      <trkpt lat="48.40397" lon="7.25937">
        <ele>1019</ele>
        <time>2020-09-06T09:44:43.512Z</time>
      </trkpt>
      <trkpt lat="48.40397" lon="7.25937">
        <ele>1019</ele>
        <time>2020-09-06T09:44:44.512Z</time>
      </trkpt>
      <trkpt lat="48.40396" lon="7.25938">
        <ele>1019</ele>
        <time>2020-09-06T09:44:45.512Z</time>
      </trkpt>
      <trkpt lat="48.40395" lon="7.25939">
        <ele>1019</ele>
        <time>2020-09-06T09:44:46.512Z</time>
      </trkpt>
      <trkpt lat="48.40394" lon="7.25941">
        <ele>1018</ele>
        <time>2020-09-06T09:44:47.512Z</time>
      </trkpt>
      <trkpt lat="48.40393" lon="7.25942">
        <ele>1018</ele>
        <time>2020-09-06T09:44:48.511Z</time>
      </trkpt>
      <trkpt lat="48.40393" lon="7.25944">
        <ele>1018</ele>
        <time>2020-09-06T09:44:49.512Z</time>
      </trkpt>
      <trkpt lat="48.40392" lon="7.25945">
        <ele>1017</ele>
        <time>2020-09-06T09:44:50.512Z</time>
      </trkpt>
      <trkpt lat="48.40392" lon="7.25947">
        <ele>1017</ele>
        <time>2020-09-06T09:44:51.512Z</time>
      </trkpt>
      <trkpt lat="48.40391" lon="7.25948">
        <ele>1017</ele>
        <time>2020-09-06T09:44:52.512Z</time>
      </trkpt>
      <trkpt lat="48.40391" lon="7.2595">
        <ele>1018</ele>
        <time>2020-09-06T09:44:53.512Z</time>
      </trkpt>
      <trkpt lat="48.4039" lon="7.25951">
        <ele>1018</ele>
        <time>2020-09-06T09:44:54.512Z</time>
      </trkpt>
      <trkpt lat="48.40389" lon="7.25953">
        <ele>1018</ele>
        <time>2020-09-06T09:44:55.511Z</time>
      </trkpt>
      <trkpt lat="48.40389" lon="7.25955">
        <ele>1019</ele>
        <time>2020-09-06T09:44:56.512Z</time>
      </trkpt>
      <trkpt lat="48.40388" lon="7.25956">
        <ele>1019</ele>
        <time>2020-09-06T09:44:57.511Z</time>
      </trkpt>
      <trkpt lat="48.40387" lon="7.25958">
        <ele>1019</ele>
        <time>2020-09-06T09:44:58.512Z</time>
      </trkpt>
      <trkpt lat="48.40387" lon="7.25959">
        <ele>1019</ele>
        <time>2020-09-06T09:44:59.512Z</time>
      </trkpt>
      <trkpt lat="48.40386" lon="7.25961">
        <ele>1019</ele>
        <time>2020-09-06T09:45:00.512Z</time>
      </trkpt>
      <trkpt lat="48.40386" lon="7.25961">
        <ele>1019</ele>
        <time>2020-09-06T09:45:01.512Z</time>
      </trkpt>
      <trkpt lat="48.40386" lon="7.25962">
        <ele>1020</ele>
        <time>2020-09-06T09:45:02.511Z</time>
      </trkpt>
      <trkpt lat="48.40386" lon="7.25963">
        <ele>1020</ele>
        <time>2020-09-06T09:45:03.511Z</time>
      </trkpt>
      <trkpt lat="48.40385" lon="7.25963">
        <ele>1020</ele>
        <time>2020-09-06T09:45:04.512Z</time>
      </trkpt>
      <trkpt lat="48.40385" lon="7.25964">
        <ele>1020</ele>
        <time>2020-09-06T09:45:05.512Z</time>
      </trkpt>
      <trkpt lat="48.40385" lon="7.25965">
        <ele>1020</ele>
        <time>2020-09-06T09:45:06.512Z</time>
      </trkpt>
      <trkpt lat="48.40384" lon="7.25966">
        <ele>1021</ele>
        <time>2020-09-06T09:45:07.511Z</time>
      </trkpt>
      <trkpt lat="48.40384" lon="7.25966">
        <ele>1021</ele>
        <time>2020-09-06T09:45:08.512Z</time>
      </trkpt>
      <trkpt lat="48.40384" lon="7.25968">
        <ele>1021</ele>
        <time>2020-09-06T09:45:09.511Z</time>
      </trkpt>
      <trkpt lat="48.40384" lon="7.25969">
        <ele>1021</ele>
        <time>2020-09-06T09:45:10.512Z</time>
      </trkpt>
      <trkpt lat="48.40383" lon="7.2597">
        <ele>1021</ele>
        <time>2020-09-06T09:45:11.512Z</time>
      </trkpt>
      <trkpt lat="48.40382" lon="7.25971">
        <ele>1021</ele>
        <time>2020-09-06T09:45:12.512Z</time>
      </trkpt>
      <trkpt lat="48.40382" lon="7.25973">
        <ele>1021</ele>
        <time>2020-09-06T09:45:13.512Z</time>
      </trkpt>
      <trkpt lat="48.40381" lon="7.25974">
        <ele>1021</ele>
        <time>2020-09-06T09:45:14.512Z</time>
      </trkpt>
      <trkpt lat="48.40381" lon="7.25975">
        <ele>1021</ele>
        <time>2020-09-06T09:45:15.512Z</time>
      </trkpt>
      <trkpt lat="48.4038" lon="7.25977">
        <ele>1021</ele>
        <time>2020-09-06T09:45:16.512Z</time>
      </trkpt>
      <trkpt lat="48.4038" lon="7.25978">
        <ele>1021</ele>
        <time>2020-09-06T09:45:17.512Z</time>
      </trkpt>
      <trkpt lat="48.4038" lon="7.25979">
        <ele>1022</ele>
        <time>2020-09-06T09:45:18.512Z</time>
      </trkpt>
      <trkpt lat="48.40379" lon="7.25981">
        <ele>1022</ele>
        <time>2020-09-06T09:45:19.512Z</time>
      </trkpt>
      <trkpt lat="48.40379" lon="7.25982">
        <ele>1021</ele>
        <time>2020-09-06T09:45:20.512Z</time>
      </trkpt>
      <trkpt lat="48.40378" lon="7.25983">
        <ele>1021</ele>
        <time>2020-09-06T09:45:21.512Z</time>
      </trkpt>
      <trkpt lat="48.40378" lon="7.25984">
        <ele>1020</ele>
        <time>2020-09-06T09:45:22.512Z</time>
      </trkpt>
      <trkpt lat="48.40377" lon="7.25985">
        <ele>1020</ele>
        <time>2020-09-06T09:45:23.511Z</time>
      </trkpt>
      <trkpt lat="48.40377" lon="7.25986">
        <ele>1020</ele>
        <time>2020-09-06T09:45:24.512Z</time>
      </trkpt>
      <trkpt lat="48.40377" lon="7.25988">
        <ele>1020</ele>
        <time>2020-09-06T09:45:25.512Z</time>
      </trkpt>
      <trkpt lat="48.40376" lon="7.25989">
        <ele>1020</ele>
        <time>2020-09-06T09:45:26.511Z</time>
      </trkpt>
      <trkpt lat="48.40375" lon="7.2599">
        <ele>1020</ele>
        <time>2020-09-06T09:45:27.512Z</time>
      </trkpt>
      <trkpt lat="48.40375" lon="7.25992">
        <ele>1020</ele>
        <time>2020-09-06T09:45:28.512Z</time>
      </trkpt>
      <trkpt lat="48.40374" lon="7.25993">
        <ele>1020</ele>
        <time>2020-09-06T09:45:29.512Z</time>
      </trkpt>
      <trkpt lat="48.40373" lon="7.25994">
        <ele>1020</ele>
        <time>2020-09-06T09:45:30.512Z</time>
      </trkpt>
      <trkpt lat="48.40373" lon="7.25996">
        <ele>1020</ele>
        <time>2020-09-06T09:45:31.512Z</time>
      </trkpt>
      <trkpt lat="48.40372" lon="7.25998">
        <ele>1019</ele>
        <time>2020-09-06T09:45:32.512Z</time>
      </trkpt>
      <trkpt lat="48.40371" lon="7.25999">
        <ele>1019</ele>
        <time>2020-09-06T09:45:33.512Z</time>
      </trkpt>
      <trkpt lat="48.40371" lon="7.26001">
        <ele>1020</ele>
        <time>2020-09-06T09:45:34.512Z</time>
      </trkpt>
      <trkpt lat="48.4037" lon="7.26002">
        <ele>1020</ele>
        <time>2020-09-06T09:45:35.512Z</time>
      </trkpt>
      <trkpt lat="48.4037" lon="7.26004">
        <ele>1020</ele>
        <time>2020-09-06T09:45:36.512Z</time>
      </trkpt>
      <trkpt lat="48.40369" lon="7.26005">
        <ele>1020</ele>
        <time>2020-09-06T09:45:37.512Z</time>
      </trkpt>
      <trkpt lat="48.40369" lon="7.26006">
        <ele>1020</ele>
        <time>2020-09-06T09:45:38.511Z</time>
      </trkpt>
      <trkpt lat="48.40368" lon="7.26007">
        <ele>1020</ele>
        <time>2020-09-06T09:45:39.512Z</time>
      </trkpt>
      <trkpt lat="48.40367" lon="7.26009">
        <ele>1020</ele>
        <time>2020-09-06T09:45:40.512Z</time>
      </trkpt>
      <trkpt lat="48.40367" lon="7.26009">
        <ele>1021</ele>
        <time>2020-09-06T09:45:41.512Z</time>
      </trkpt>
      <trkpt lat="48.40366" lon="7.26011">
        <ele>1021</ele>
        <time>2020-09-06T09:45:42.512Z</time>
      </trkpt>
      <trkpt lat="48.40365" lon="7.26012">
        <ele>1021</ele>
        <time>2020-09-06T09:45:43.512Z</time>
      </trkpt>
      <trkpt lat="48.40365" lon="7.26013">
        <ele>1022</ele>
        <time>2020-09-06T09:45:44.512Z</time>
      </trkpt>
      <trkpt lat="48.40364" lon="7.26014">
        <ele>1022</ele>
        <time>2020-09-06T09:45:45.512Z</time>
      </trkpt>
      <trkpt lat="48.40363" lon="7.26016">
        <ele>1022</ele>
        <time>2020-09-06T09:45:46.512Z</time>
      </trkpt>
      <trkpt lat="48.40363" lon="7.26017">
        <ele>1022</ele>
        <time>2020-09-06T09:45:47.512Z</time>
      </trkpt>
      <trkpt lat="48.40362" lon="7.26018">
        <ele>1022</ele>
        <time>2020-09-06T09:45:48.512Z</time>
      </trkpt>
      <trkpt lat="48.40362" lon="7.2602">
        <ele>1022</ele>
        <time>2020-09-06T09:45:49.512Z</time>
      </trkpt>
      <trkpt lat="48.40361" lon="7.26021">
        <ele>1022</ele>
        <time>2020-09-06T09:45:50.512Z</time>
      </trkpt>
      <trkpt lat="48.4036" lon="7.26023">
        <ele>1022</ele>
        <time>2020-09-06T09:45:51.512Z</time>
      </trkpt>
      <trkpt lat="48.40359" lon="7.26024">
        <ele>1022</ele>
        <time>2020-09-06T09:45:52.512Z</time>
      </trkpt>
      <trkpt lat="48.40358" lon="7.26026">
        <ele>1022</ele>
        <time>2020-09-06T09:45:53.512Z</time>
      </trkpt>
      <trkpt lat="48.40357" lon="7.26027">
        <ele>1023</ele>
        <time>2020-09-06T09:45:54.512Z</time>
      </trkpt>
      <trkpt lat="48.40357" lon="7.26028">
        <ele>1023</ele>
        <time>2020-09-06T09:45:55.511Z</time>
      </trkpt>
      <trkpt lat="48.40356" lon="7.2603">
        <ele>1023</ele>
        <time>2020-09-06T09:45:56.512Z</time>
      </trkpt>
      <trkpt lat="48.40355" lon="7.26031">
        <ele>1023</ele>
        <time>2020-09-06T09:45:57.512Z</time>
      </trkpt>
      <trkpt lat="48.40354" lon="7.26032">
        <ele>1023</ele>
        <time>2020-09-06T09:45:58.512Z</time>
      </trkpt>
      <trkpt lat="48.40354" lon="7.26033">
        <ele>1023</ele>
        <time>2020-09-06T09:45:59.512Z</time>
      </trkpt>
      <trkpt lat="48.40353" lon="7.26034">
        <ele>1023</ele>
        <time>2020-09-06T09:46:00.512Z</time>
      </trkpt>
      <trkpt lat="48.40352" lon="7.26036">
        <ele>1022</ele>
        <time>2020-09-06T09:46:01.512Z</time>
      </trkpt>
      <trkpt lat="48.40351" lon="7.26037">
        <ele>1022</ele>
        <time>2020-09-06T09:46:02.512Z</time>
      </trkpt>
      <trkpt lat="48.4035" lon="7.26038">
        <ele>1022</ele>
        <time>2020-09-06T09:46:03.511Z</time>
      </trkpt>
      <trkpt lat="48.4035" lon="7.26039">
        <ele>1022</ele>
        <time>2020-09-06T09:46:04.512Z</time>
      </trkpt>
      <trkpt lat="48.40349" lon="7.26041">
        <ele>1022</ele>
        <time>2020-09-06T09:46:05.511Z</time>
      </trkpt>
      <trkpt lat="48.40348" lon="7.26042">
        <ele>1022</ele>
        <time>2020-09-06T09:46:06.512Z</time>
      </trkpt>
      <trkpt lat="48.40347" lon="7.26044">
        <ele>1023</ele>
        <time>2020-09-06T09:46:07.511Z</time>
      </trkpt>
      <trkpt lat="48.40347" lon="7.26045">
        <ele>1023</ele>
        <time>2020-09-06T09:46:08.512Z</time>
      </trkpt>
      <trkpt lat="48.40346" lon="7.26047">
        <ele>1024</ele>
        <time>2020-09-06T09:46:09.512Z</time>
      </trkpt>
      <trkpt lat="48.40345" lon="7.26048">
        <ele>1024</ele>
        <time>2020-09-06T09:46:10.512Z</time>
      </trkpt>
      <trkpt lat="48.40345" lon="7.2605">
        <ele>1025</ele>
        <time>2020-09-06T09:46:11.512Z</time>
      </trkpt>
      <trkpt lat="48.40344" lon="7.26051">
        <ele>1025</ele>
        <time>2020-09-06T09:46:12.512Z</time>
      </trkpt>
      <trkpt lat="48.40343" lon="7.26053">
        <ele>1026</ele>
        <time>2020-09-06T09:46:13.512Z</time>
      </trkpt>
      <trkpt lat="48.40343" lon="7.26054">
        <ele>1026</ele>
        <time>2020-09-06T09:46:14.512Z</time>
      </trkpt>
      <trkpt lat="48.40342" lon="7.26055">
        <ele>1026</ele>
        <time>2020-09-06T09:46:15.511Z</time>
      </trkpt>
      <trkpt lat="48.40341" lon="7.26057">
        <ele>1026</ele>
        <time>2020-09-06T09:46:16.512Z</time>
      </trkpt>
      <trkpt lat="48.40341" lon="7.26059">
        <ele>1026</ele>
        <time>2020-09-06T09:46:17.512Z</time>
      </trkpt>
      <trkpt lat="48.4034" lon="7.2606">
        <ele>1026</ele>
        <time>2020-09-06T09:46:18.512Z</time>
      </trkpt>
      <trkpt lat="48.4034" lon="7.26062">
        <ele>1026</ele>
        <time>2020-09-06T09:46:19.512Z</time>
      </trkpt>
      <trkpt lat="48.40339" lon="7.26063">
        <ele>1026</ele>
        <time>2020-09-06T09:46:20.511Z</time>
      </trkpt>
      <trkpt lat="48.40339" lon="7.26064">
        <ele>1026</ele>
        <time>2020-09-06T09:46:21.512Z</time>
      </trkpt>
      <trkpt lat="48.40338" lon="7.26066">
        <ele>1027</ele>
        <time>2020-09-06T09:46:22.511Z</time>
      </trkpt>
      <trkpt lat="48.40337" lon="7.26067">
        <ele>1027</ele>
        <time>2020-09-06T09:46:23.511Z</time>
      </trkpt>
      <trkpt lat="48.40336" lon="7.26069">
        <ele>1027</ele>
        <time>2020-09-06T09:46:24.511Z</time>
      </trkpt>
      <trkpt lat="48.40336" lon="7.2607">
        <ele>1027</ele>
        <time>2020-09-06T09:46:25.511Z</time>
      </trkpt>
      <trkpt lat="48.40335" lon="7.26071">
        <ele>1028</ele>
        <time>2020-09-06T09:46:26.512Z</time>
      </trkpt>
      <trkpt lat="48.40334" lon="7.26073">
        <ele>1028</ele>
        <time>2020-09-06T09:46:27.512Z</time>
      </trkpt>
      <trkpt lat="48.40334" lon="7.26074">
        <ele>1027</ele>
        <time>2020-09-06T09:46:28.512Z</time>
      </trkpt>
      <trkpt lat="48.40333" lon="7.26076">
        <ele>1028</ele>
        <time>2020-09-06T09:46:29.512Z</time>
      </trkpt>
      <trkpt lat="48.40333" lon="7.26078">
        <ele>1028</ele>
        <time>2020-09-06T09:46:30.512Z</time>
      </trkpt>
      <trkpt lat="48.40332" lon="7.26079">
        <ele>1028</ele>
        <time>2020-09-06T09:46:31.512Z</time>
      </trkpt>
      <trkpt lat="48.40331" lon="7.26081">
        <ele>1028</ele>
        <time>2020-09-06T09:46:32.511Z</time>
      </trkpt>
      <trkpt lat="48.4033" lon="7.26082">
        <ele>1028</ele>
        <time>2020-09-06T09:46:33.511Z</time>
      </trkpt>
      <trkpt lat="48.4033" lon="7.26084">
        <ele>1028</ele>
        <time>2020-09-06T09:46:34.512Z</time>
      </trkpt>
      <trkpt lat="48.40329" lon="7.26085">
        <ele>1028</ele>
        <time>2020-09-06T09:46:35.512Z</time>
      </trkpt>
      <trkpt lat="48.40329" lon="7.26086">
        <ele>1028</ele>
        <time>2020-09-06T09:46:36.511Z</time>
      </trkpt>
      <trkpt lat="48.40328" lon="7.26088">
        <ele>1028</ele>
        <time>2020-09-06T09:46:37.512Z</time>
      </trkpt>
      <trkpt lat="48.40327" lon="7.26089">
        <ele>1028</ele>
        <time>2020-09-06T09:46:38.511Z</time>
      </trkpt>
      <trkpt lat="48.40327" lon="7.26091">
        <ele>1027</ele>
        <time>2020-09-06T09:46:39.512Z</time>
      </trkpt>
      <trkpt lat="48.40326" lon="7.26092">
        <ele>1027</ele>
        <time>2020-09-06T09:46:40.512Z</time>
      </trkpt>
      <trkpt lat="48.40326" lon="7.26093">
        <ele>1027</ele>
        <time>2020-09-06T09:46:41.512Z</time>
      </trkpt>
      <trkpt lat="48.40325" lon="7.26095">
        <ele>1027</ele>
        <time>2020-09-06T09:46:42.512Z</time>
      </trkpt>
      <trkpt lat="48.40325" lon="7.26096">
        <ele>1028</ele>
        <time>2020-09-06T09:46:43.511Z</time>
      </trkpt>
      <trkpt lat="48.40324" lon="7.26098">
        <ele>1028</ele>
        <time>2020-09-06T09:46:44.511Z</time>
      </trkpt>
      <trkpt lat="48.40323" lon="7.26099">
        <ele>1028</ele>
        <time>2020-09-06T09:46:45.511Z</time>
      </trkpt>
      <trkpt lat="48.40323" lon="7.26101">
        <ele>1029</ele>
        <time>2020-09-06T09:46:46.512Z</time>
      </trkpt>
      <trkpt lat="48.40322" lon="7.26102">
        <ele>1029</ele>
        <time>2020-09-06T09:46:47.512Z</time>
      </trkpt>
      <trkpt lat="48.40321" lon="7.26103">
        <ele>1029</ele>
        <time>2020-09-06T09:46:48.512Z</time>
      </trkpt>
      <trkpt lat="48.40321" lon="7.26104">
        <ele>1029</ele>
        <time>2020-09-06T09:46:49.512Z</time>
      </trkpt>
      <trkpt lat="48.4032" lon="7.26106">
        <ele>1029</ele>
        <time>2020-09-06T09:46:50.512Z</time>
      </trkpt>
      <trkpt lat="48.4032" lon="7.26108">
        <ele>1029</ele>
        <time>2020-09-06T09:46:51.512Z</time>
      </trkpt>
      <trkpt lat="48.40319" lon="7.26109">
        <ele>1030</ele>
        <time>2020-09-06T09:46:52.512Z</time>
      </trkpt>
      <trkpt lat="48.40318" lon="7.26111">
        <ele>1030</ele>
        <time>2020-09-06T09:46:53.512Z</time>
      </trkpt>
      <trkpt lat="48.40318" lon="7.26112">
        <ele>1031</ele>
        <time>2020-09-06T09:46:54.512Z</time>
      </trkpt>
      <trkpt lat="48.40317" lon="7.26114">
        <ele>1031</ele>
        <time>2020-09-06T09:46:55.511Z</time>
      </trkpt>
      <trkpt lat="48.40317" lon="7.26115">
        <ele>1031</ele>
        <time>2020-09-06T09:46:56.511Z</time>
      </trkpt>
      <trkpt lat="48.40316" lon="7.26117">
        <ele>1032</ele>
        <time>2020-09-06T09:46:57.512Z</time>
      </trkpt>
      <trkpt lat="48.40315" lon="7.26118">
        <ele>1032</ele>
        <time>2020-09-06T09:46:58.512Z</time>
      </trkpt>
      <trkpt lat="48.40315" lon="7.2612">
        <ele>1032</ele>
        <time>2020-09-06T09:46:59.512Z</time>
      </trkpt>
      <trkpt lat="48.40314" lon="7.26121">
        <ele>1032</ele>
        <time>2020-09-06T09:47:00.512Z</time>
      </trkpt>
      <trkpt lat="48.40314" lon="7.26123">
        <ele>1032</ele>
        <time>2020-09-06T09:47:01.512Z</time>
      </trkpt>
      <trkpt lat="48.40313" lon="7.26124">
        <ele>1032</ele>
        <time>2020-09-06T09:47:02.512Z</time>
      </trkpt>
      <trkpt lat="48.40312" lon="7.26126">
        <ele>1032</ele>
        <time>2020-09-06T09:47:03.511Z</time>
      </trkpt>
      <trkpt lat="48.40312" lon="7.26127">
        <ele>1032</ele>
        <time>2020-09-06T09:47:04.512Z</time>
      </trkpt>
      <trkpt lat="48.40311" lon="7.26129">
        <ele>1033</ele>
        <time>2020-09-06T09:47:05.512Z</time>
      </trkpt>
      <trkpt lat="48.40311" lon="7.2613">
        <ele>1033</ele>
        <time>2020-09-06T09:47:06.511Z</time>
      </trkpt>
      <trkpt lat="48.4031" lon="7.26132">
        <ele>1033</ele>
        <time>2020-09-06T09:47:07.511Z</time>
      </trkpt>
      <trkpt lat="48.40309" lon="7.26133">
        <ele>1033</ele>
        <time>2020-09-06T09:47:08.511Z</time>
      </trkpt>
      <trkpt lat="48.40309" lon="7.26135">
        <ele>1033</ele>
        <time>2020-09-06T09:47:09.511Z</time>
      </trkpt>
      <trkpt lat="48.40308" lon="7.26136">
        <ele>1033</ele>
        <time>2020-09-06T09:47:10.512Z</time>
      </trkpt>
      <trkpt lat="48.40308" lon="7.26137">
        <ele>1034</ele>
        <time>2020-09-06T09:47:11.512Z</time>
      </trkpt>
      <trkpt lat="48.40307" lon="7.26138">
        <ele>1034</ele>
        <time>2020-09-06T09:47:12.512Z</time>
      </trkpt>
      <trkpt lat="48.40307" lon="7.26139">
        <ele>1034</ele>
        <time>2020-09-06T09:47:13.512Z</time>
      </trkpt>
      <trkpt lat="48.40306" lon="7.26141">
        <ele>1035</ele>
        <time>2020-09-06T09:47:14.511Z</time>
      </trkpt>
      <trkpt lat="48.40306" lon="7.26142">
        <ele>1035</ele>
        <time>2020-09-06T09:47:15.512Z</time>
      </trkpt>
      <trkpt lat="48.40305" lon="7.26144">
        <ele>1035</ele>
        <time>2020-09-06T09:47:16.512Z</time>
      </trkpt>
      <trkpt lat="48.40304" lon="7.26145">
        <ele>1035</ele>
        <time>2020-09-06T09:47:17.512Z</time>
      </trkpt>
      <trkpt lat="48.40304" lon="7.26146">
        <ele>1036</ele>
        <time>2020-09-06T09:47:18.512Z</time>
      </trkpt>
      <trkpt lat="48.40303" lon="7.26148">
        <ele>1036</ele>
        <time>2020-09-06T09:47:19.512Z</time>
      </trkpt>
      <trkpt lat="48.40303" lon="7.2615">
        <ele>1036</ele>
        <time>2020-09-06T09:47:20.512Z</time>
      </trkpt>
      <trkpt lat="48.40302" lon="7.26151">
        <ele>1036</ele>
        <time>2020-09-06T09:47:21.512Z</time>
      </trkpt>
      <trkpt lat="48.40302" lon="7.26153">
        <ele>1035</ele>
        <time>2020-09-06T09:47:22.511Z</time>
      </trkpt>
      <trkpt lat="48.40301" lon="7.26154">
        <ele>1035</ele>
        <time>2020-09-06T09:47:23.511Z</time>
      </trkpt>
      <trkpt lat="48.40301" lon="7.26156">
        <ele>1034</ele>
        <time>2020-09-06T09:47:24.511Z</time>
      </trkpt>
      <trkpt lat="48.403" lon="7.26157">
        <ele>1034</ele>
        <time>2020-09-06T09:47:25.512Z</time>
      </trkpt>
      <trkpt lat="48.40299" lon="7.26159">
        <ele>1034</ele>
        <time>2020-09-06T09:47:26.512Z</time>
      </trkpt>
      <trkpt lat="48.40299" lon="7.2616">
        <ele>1034</ele>
        <time>2020-09-06T09:47:27.512Z</time>
      </trkpt>
      <trkpt lat="48.40298" lon="7.26161">
        <ele>1035</ele>
        <time>2020-09-06T09:47:28.511Z</time>
      </trkpt>
      <trkpt lat="48.40298" lon="7.26162">
        <ele>1035</ele>
        <time>2020-09-06T09:47:29.512Z</time>
      </trkpt>
      <trkpt lat="48.40297" lon="7.26164">
        <ele>1035</ele>
        <time>2020-09-06T09:47:30.512Z</time>
      </trkpt>
      <trkpt lat="48.40297" lon="7.26165">
        <ele>1035</ele>
        <time>2020-09-06T09:47:31.511Z</time>
      </trkpt>
      <trkpt lat="48.40296" lon="7.26167">
        <ele>1035</ele>
        <time>2020-09-06T09:47:32.512Z</time>
      </trkpt>
      <trkpt lat="48.40295" lon="7.26168">
        <ele>1036</ele>
        <time>2020-09-06T09:47:33.512Z</time>
      </trkpt>
      <trkpt lat="48.40295" lon="7.26169">
        <ele>1036</ele>
        <time>2020-09-06T09:47:34.512Z</time>
      </trkpt>
      <trkpt lat="48.40294" lon="7.26171">
        <ele>1036</ele>
        <time>2020-09-06T09:47:35.512Z</time>
      </trkpt>
      <trkpt lat="48.40293" lon="7.26172">
        <ele>1036</ele>
        <time>2020-09-06T09:47:36.511Z</time>
      </trkpt>
      <trkpt lat="48.40292" lon="7.26173">
        <ele>1036</ele>
        <time>2020-09-06T09:47:37.512Z</time>
      </trkpt>
      <trkpt lat="48.40292" lon="7.26175">
        <ele>1036</ele>
        <time>2020-09-06T09:47:38.511Z</time>
      </trkpt>
      <trkpt lat="48.40291" lon="7.26176">
        <ele>1036</ele>
        <time>2020-09-06T09:47:39.512Z</time>
      </trkpt>
      <trkpt lat="48.4029" lon="7.26177">
        <ele>1036</ele>
        <time>2020-09-06T09:47:40.512Z</time>
      </trkpt>
      <trkpt lat="48.4029" lon="7.26178">
        <ele>1035</ele>
        <time>2020-09-06T09:47:41.512Z</time>
      </trkpt>
      <trkpt lat="48.40289" lon="7.26179">
        <ele>1036</ele>
        <time>2020-09-06T09:47:42.512Z</time>
      </trkpt>
      <trkpt lat="48.40288" lon="7.2618">
        <ele>1036</ele>
        <time>2020-09-06T09:47:43.512Z</time>
      </trkpt>
      <trkpt lat="48.40288" lon="7.26181">
        <ele>1036</ele>
        <time>2020-09-06T09:47:44.512Z</time>
      </trkpt>
      <trkpt lat="48.40287" lon="7.26182">
        <ele>1036</ele>
        <time>2020-09-06T09:47:45.512Z</time>
      </trkpt>
      <trkpt lat="48.40287" lon="7.26184">
        <ele>1036</ele>
        <time>2020-09-06T09:47:46.511Z</time>
      </trkpt>
      <trkpt lat="48.40286" lon="7.26185">
        <ele>1036</ele>
        <time>2020-09-06T09:47:47.512Z</time>
      </trkpt>
      <trkpt lat="48.40285" lon="7.26186">
        <ele>1036</ele>
        <time>2020-09-06T09:47:48.512Z</time>
      </trkpt>
      <trkpt lat="48.40284" lon="7.26188">
        <ele>1037</ele>
        <time>2020-09-06T09:47:49.512Z</time>
      </trkpt>
      <trkpt lat="48.40283" lon="7.26189">
        <ele>1037</ele>
        <time>2020-09-06T09:47:50.512Z</time>
      </trkpt>
      <trkpt lat="48.40282" lon="7.26189">
        <ele>1037</ele>
        <time>2020-09-06T09:47:51.512Z</time>
      </trkpt>
      <trkpt lat="48.40282" lon="7.26191">
        <ele>1038</ele>
        <time>2020-09-06T09:47:52.511Z</time>
      </trkpt>
      <trkpt lat="48.40281" lon="7.26192">
        <ele>1039</ele>
        <time>2020-09-06T09:47:53.512Z</time>
      </trkpt>
      <trkpt lat="48.4028" lon="7.26193">
        <ele>1039</ele>
        <time>2020-09-06T09:47:54.512Z</time>
      </trkpt>
      <trkpt lat="48.40279" lon="7.26195">
        <ele>1040</ele>
        <time>2020-09-06T09:47:55.512Z</time>
      </trkpt>
      <trkpt lat="48.40278" lon="7.26196">
        <ele>1040</ele>
        <time>2020-09-06T09:47:56.511Z</time>
      </trkpt>
      <trkpt lat="48.40278" lon="7.26197">
        <ele>1041</ele>
        <time>2020-09-06T09:47:57.512Z</time>
      </trkpt>
      <trkpt lat="48.40277" lon="7.26198">
        <ele>1041</ele>
        <time>2020-09-06T09:47:58.511Z</time>
      </trkpt>
      <trkpt lat="48.40276" lon="7.26199">
        <ele>1042</ele>
        <time>2020-09-06T09:47:59.512Z</time>
      </trkpt>
      <trkpt lat="48.40276" lon="7.262">
        <ele>1042</ele>
        <time>2020-09-06T09:48:00.512Z</time>
      </trkpt>
      <trkpt lat="48.40275" lon="7.26201">
        <ele>1042</ele>
        <time>2020-09-06T09:48:01.512Z</time>
      </trkpt>
      <trkpt lat="48.40274" lon="7.26201">
        <ele>1042</ele>
        <time>2020-09-06T09:48:02.512Z</time>
      </trkpt>
      <trkpt lat="48.40274" lon="7.26202">
        <ele>1042</ele>
        <time>2020-09-06T09:48:03.512Z</time>
      </trkpt>
      <trkpt lat="48.40273" lon="7.26203">
        <ele>1043</ele>
        <time>2020-09-06T09:48:04.512Z</time>
      </trkpt>
      <trkpt lat="48.40272" lon="7.26204">
        <ele>1043</ele>
        <time>2020-09-06T09:48:05.512Z</time>
      </trkpt>
      <trkpt lat="48.40271" lon="7.26206">
        <ele>1043</ele>
        <time>2020-09-06T09:48:06.512Z</time>
      </trkpt>
      <trkpt lat="48.4027" lon="7.26207">
        <ele>1043</ele>
        <time>2020-09-06T09:48:07.511Z</time>
      </trkpt>
      <trkpt lat="48.4027" lon="7.26208">
        <ele>1043</ele>
        <time>2020-09-06T09:48:08.512Z</time>
      </trkpt>
      <trkpt lat="48.40269" lon="7.26209">
        <ele>1042</ele>
        <time>2020-09-06T09:48:09.511Z</time>
      </trkpt>
      <trkpt lat="48.40268" lon="7.2621">
        <ele>1042</ele>
        <time>2020-09-06T09:48:10.512Z</time>
      </trkpt>
      <trkpt lat="48.40267" lon="7.26211">
        <ele>1041</ele>
        <time>2020-09-06T09:48:11.512Z</time>
      </trkpt>
      <trkpt lat="48.40266" lon="7.26212">
        <ele>1041</ele>
        <time>2020-09-06T09:48:12.511Z</time>
      </trkpt>
      <trkpt lat="48.40265" lon="7.26214">
        <ele>1042</ele>
        <time>2020-09-06T09:48:13.511Z</time>
      </trkpt>
      <trkpt lat="48.40264" lon="7.26214">
        <ele>1042</ele>
        <time>2020-09-06T09:48:14.512Z</time>
      </trkpt>
      <trkpt lat="48.40264" lon="7.26215">
        <ele>1042</ele>
        <time>2020-09-06T09:48:15.512Z</time>
      </trkpt>
      <trkpt lat="48.40263" lon="7.26215">
        <ele>1042</ele>
        <time>2020-09-06T09:48:16.512Z</time>
      </trkpt>
      <trkpt lat="48.40263" lon="7.26216">
        <ele>1042</ele>
        <time>2020-09-06T09:48:17.512Z</time>
      </trkpt>
      <trkpt lat="48.40262" lon="7.26216">
        <ele>1042</ele>
        <time>2020-09-06T09:48:18.511Z</time>
      </trkpt>
      <trkpt lat="48.40262" lon="7.26217">
        <ele>1042</ele>
        <time>2020-09-06T09:48:19.511Z</time>
      </trkpt>
      <trkpt lat="48.40261" lon="7.26218">
        <ele>1043</ele>
        <time>2020-09-06T09:48:20.511Z</time>
      </trkpt>
      <trkpt lat="48.40261" lon="7.26218">
        <ele>1043</ele>
        <time>2020-09-06T09:48:21.512Z</time>
      </trkpt>
      <trkpt lat="48.40261" lon="7.26219">
        <ele>1044</ele>
        <time>2020-09-06T09:48:22.512Z</time>
      </trkpt>
      <trkpt lat="48.40261" lon="7.26219">
        <ele>1044</ele>
        <time>2020-09-06T09:48:23.511Z</time>
      </trkpt>
      <trkpt lat="48.40258" lon="7.26223">
        <ele>1046</ele>
        <time>2020-09-06T09:48:24.512Z</time>
      </trkpt>
      <trkpt lat="48.40256" lon="7.26224">
        <ele>1046</ele>
        <time>2020-09-06T09:48:25.511Z</time>
      </trkpt>
      <trkpt lat="48.40255" lon="7.26225">
        <ele>1047</ele>
        <time>2020-09-06T09:48:26.511Z</time>
      </trkpt>
      <trkpt lat="48.40254" lon="7.26226">
        <ele>1047</ele>
        <time>2020-09-06T09:48:27.512Z</time>
      </trkpt>
      <trkpt lat="48.40253" lon="7.26227">
        <ele>1047</ele>
        <time>2020-09-06T09:48:28.511Z</time>
      </trkpt>
      <trkpt lat="48.40251" lon="7.26228">
        <ele>1047</ele>
        <time>2020-09-06T09:48:29.512Z</time>
      </trkpt>
      <trkpt lat="48.4025" lon="7.26229">
        <ele>1047</ele>
        <time>2020-09-06T09:48:30.511Z</time>
      </trkpt>
      <trkpt lat="48.40249" lon="7.2623">
        <ele>1047</ele>
        <time>2020-09-06T09:48:31.511Z</time>
      </trkpt>
      <trkpt lat="48.40248" lon="7.26231">
        <ele>1047</ele>
        <time>2020-09-06T09:48:32.511Z</time>
      </trkpt>
      <trkpt lat="48.40247" lon="7.26232">
        <ele>1047</ele>
        <time>2020-09-06T09:48:33.512Z</time>
      </trkpt>
      <trkpt lat="48.40246" lon="7.26233">
        <ele>1046</ele>
        <time>2020-09-06T09:48:34.511Z</time>
      </trkpt>
      <trkpt lat="48.40245" lon="7.26234">
        <ele>1046</ele>
        <time>2020-09-06T09:48:35.512Z</time>
      </trkpt>
      <trkpt lat="48.40244" lon="7.26235">
        <ele>1047</ele>
        <time>2020-09-06T09:48:36.512Z</time>
      </trkpt>
      <trkpt lat="48.40243" lon="7.26236">
        <ele>1046</ele>
        <time>2020-09-06T09:48:37.512Z</time>
      </trkpt>
      <trkpt lat="48.40242" lon="7.26236">
        <ele>1046</ele>
        <time>2020-09-06T09:48:38.512Z</time>
      </trkpt>
      <trkpt lat="48.40241" lon="7.26237">
        <ele>1046</ele>
        <time>2020-09-06T09:48:39.512Z</time>
      </trkpt>
      <trkpt lat="48.4024" lon="7.26237">
        <ele>1045</ele>
        <time>2020-09-06T09:48:40.512Z</time>
      </trkpt>
      <trkpt lat="48.4024" lon="7.26238">
        <ele>1045</ele>
        <time>2020-09-06T09:48:41.512Z</time>
      </trkpt>
      <trkpt lat="48.40239" lon="7.26239">
        <ele>1045</ele>
        <time>2020-09-06T09:48:42.512Z</time>
      </trkpt>
      <trkpt lat="48.40238" lon="7.26239">
        <ele>1046</ele>
        <time>2020-09-06T09:48:43.512Z</time>
      </trkpt>
      <trkpt lat="48.40237" lon="7.26239">
        <ele>1046</ele>
        <time>2020-09-06T09:48:44.511Z</time>
      </trkpt>
      <trkpt lat="48.40236" lon="7.2624">
        <ele>1047</ele>
        <time>2020-09-06T09:48:45.512Z</time>
      </trkpt>
      <trkpt lat="48.40235" lon="7.26241">
        <ele>1047</ele>
        <time>2020-09-06T09:48:46.511Z</time>
      </trkpt>
      <trkpt lat="48.40234" lon="7.26241">
        <ele>1047</ele>
        <time>2020-09-06T09:48:47.511Z</time>
      </trkpt>
      <trkpt lat="48.40233" lon="7.26242">
        <ele>1047</ele>
        <time>2020-09-06T09:48:48.511Z</time>
      </trkpt>
      <trkpt lat="48.40232" lon="7.26242">
        <ele>1047</ele>
        <time>2020-09-06T09:48:49.512Z</time>
      </trkpt>
      <trkpt lat="48.40231" lon="7.26243">
        <ele>1047</ele>
        <time>2020-09-06T09:48:50.511Z</time>
      </trkpt>
      <trkpt lat="48.4023" lon="7.26244">
        <ele>1047</ele>
        <time>2020-09-06T09:48:51.512Z</time>
      </trkpt>
      <trkpt lat="48.40229" lon="7.26245">
        <ele>1047</ele>
        <time>2020-09-06T09:48:52.511Z</time>
      </trkpt>
      <trkpt lat="48.40228" lon="7.26245">
        <ele>1047</ele>
        <time>2020-09-06T09:48:53.512Z</time>
      </trkpt>
      <trkpt lat="48.40227" lon="7.26246">
        <ele>1047</ele>
        <time>2020-09-06T09:48:54.511Z</time>
      </trkpt>
      <trkpt lat="48.40226" lon="7.26247">
        <ele>1047</ele>
        <time>2020-09-06T09:48:55.512Z</time>
      </trkpt>
      <trkpt lat="48.40226" lon="7.26247">
        <ele>1047</ele>
        <time>2020-09-06T09:48:56.512Z</time>
      </trkpt>
      <trkpt lat="48.40225" lon="7.26248">
        <ele>1047</ele>
        <time>2020-09-06T09:48:57.512Z</time>
      </trkpt>
      <trkpt lat="48.40224" lon="7.26248">
        <ele>1047</ele>
        <time>2020-09-06T09:48:58.512Z</time>
      </trkpt>
      <trkpt lat="48.40223" lon="7.26249">
        <ele>1048</ele>
        <time>2020-09-06T09:48:59.512Z</time>
      </trkpt>
      <trkpt lat="48.40222" lon="7.26249">
        <ele>1048</ele>
        <time>2020-09-06T09:49:00.512Z</time>
      </trkpt>
      <trkpt lat="48.40221" lon="7.26251">
        <ele>1048</ele>
        <time>2020-09-06T09:49:01.511Z</time>
      </trkpt>
      <trkpt lat="48.4022" lon="7.26251">
        <ele>1048</ele>
        <time>2020-09-06T09:49:02.512Z</time>
      </trkpt>
      <trkpt lat="48.40219" lon="7.26253">
        <ele>1048</ele>
        <time>2020-09-06T09:49:03.511Z</time>
      </trkpt>
      <trkpt lat="48.40218" lon="7.26254">
        <ele>1048</ele>
        <time>2020-09-06T09:49:04.512Z</time>
      </trkpt>
      <trkpt lat="48.40217" lon="7.26255">
        <ele>1049</ele>
        <time>2020-09-06T09:49:05.512Z</time>
      </trkpt>
      <trkpt lat="48.40216" lon="7.26256">
        <ele>1049</ele>
        <time>2020-09-06T09:49:06.511Z</time>
      </trkpt>
      <trkpt lat="48.40214" lon="7.26257">
        <ele>1050</ele>
        <time>2020-09-06T09:49:07.511Z</time>
      </trkpt>
      <trkpt lat="48.40213" lon="7.26258">
        <ele>1050</ele>
        <time>2020-09-06T09:49:08.512Z</time>
      </trkpt>
      <trkpt lat="48.40212" lon="7.26258">
        <ele>1051</ele>
        <time>2020-09-06T09:49:09.512Z</time>
      </trkpt>
      <trkpt lat="48.40211" lon="7.26259">
        <ele>1051</ele>
        <time>2020-09-06T09:49:10.512Z</time>
      </trkpt>
      <trkpt lat="48.4021" lon="7.2626">
        <ele>1051</ele>
        <time>2020-09-06T09:49:11.512Z</time>
      </trkpt>
      <trkpt lat="48.40209" lon="7.26261">
        <ele>1051</ele>
        <time>2020-09-06T09:49:12.512Z</time>
      </trkpt>
      <trkpt lat="48.40208" lon="7.26262">
        <ele>1051</ele>
        <time>2020-09-06T09:49:13.512Z</time>
      </trkpt>
      <trkpt lat="48.40207" lon="7.26263">
        <ele>1051</ele>
        <time>2020-09-06T09:49:14.512Z</time>
      </trkpt>
      <trkpt lat="48.40206" lon="7.26264">
        <ele>1051</ele>
        <time>2020-09-06T09:49:15.511Z</time>
      </trkpt>
      <trkpt lat="48.40205" lon="7.26265">
        <ele>1052</ele>
        <time>2020-09-06T09:49:16.512Z</time>
      </trkpt>
      <trkpt lat="48.40203" lon="7.26266">
        <ele>1052</ele>
        <time>2020-09-06T09:49:17.512Z</time>
      </trkpt>
      <trkpt lat="48.40202" lon="7.26267">
        <ele>1052</ele>
        <time>2020-09-06T09:49:18.512Z</time>
      </trkpt>
      <trkpt lat="48.40201" lon="7.26268">
        <ele>1052</ele>
        <time>2020-09-06T09:49:19.512Z</time>
      </trkpt>
      <trkpt lat="48.402" lon="7.26269">
        <ele>1052</ele>
        <time>2020-09-06T09:49:20.512Z</time>
      </trkpt>
      <trkpt lat="48.402" lon="7.26269">
        <ele>1052</ele>
        <time>2020-09-06T09:49:21.511Z</time>
      </trkpt>
      <trkpt lat="48.40198" lon="7.2627">
        <ele>1052</ele>
        <time>2020-09-06T09:49:22.512Z</time>
      </trkpt>
      <trkpt lat="48.40197" lon="7.26271">
        <ele>1052</ele>
        <time>2020-09-06T09:49:23.512Z</time>
      </trkpt>
      <trkpt lat="48.40196" lon="7.26272">
        <ele>1052</ele>
        <time>2020-09-06T09:49:24.511Z</time>
      </trkpt>
      <trkpt lat="48.40195" lon="7.26273">
        <ele>1052</ele>
        <time>2020-09-06T09:49:25.512Z</time>
      </trkpt>
      <trkpt lat="48.40194" lon="7.26274">
        <ele>1052</ele>
        <time>2020-09-06T09:49:26.512Z</time>
      </trkpt>
      <trkpt lat="48.40193" lon="7.26274">
        <ele>1052</ele>
        <time>2020-09-06T09:49:27.511Z</time>
      </trkpt>
      <trkpt lat="48.40192" lon="7.26275">
        <ele>1052</ele>
        <time>2020-09-06T09:49:28.511Z</time>
      </trkpt>
      <trkpt lat="48.40191" lon="7.26276">
        <ele>1052</ele>
        <time>2020-09-06T09:49:29.511Z</time>
      </trkpt>
      <trkpt lat="48.4019" lon="7.26277">
        <ele>1052</ele>
        <time>2020-09-06T09:49:30.512Z</time>
      </trkpt>
      <trkpt lat="48.40189" lon="7.26278">
        <ele>1052</ele>
        <time>2020-09-06T09:49:31.511Z</time>
      </trkpt>
      <trkpt lat="48.40188" lon="7.26279">
        <ele>1052</ele>
        <time>2020-09-06T09:49:32.512Z</time>
      </trkpt>
      <trkpt lat="48.40187" lon="7.2628">
        <ele>1052</ele>
        <time>2020-09-06T09:49:33.512Z</time>
      </trkpt>
      <trkpt lat="48.40186" lon="7.2628">
        <ele>1053</ele>
        <time>2020-09-06T09:49:34.512Z</time>
      </trkpt>
      <trkpt lat="48.40185" lon="7.26281">
        <ele>1053</ele>
        <time>2020-09-06T09:49:35.512Z</time>
      </trkpt>
      <trkpt lat="48.40184" lon="7.26282">
        <ele>1053</ele>
        <time>2020-09-06T09:49:36.512Z</time>
      </trkpt>
      <trkpt lat="48.40183" lon="7.26283">
        <ele>1053</ele>
        <time>2020-09-06T09:49:37.512Z</time>
      </trkpt>
      <trkpt lat="48.40182" lon="7.26284">
        <ele>1053</ele>
        <time>2020-09-06T09:49:38.512Z</time>
      </trkpt>
      <trkpt lat="48.40181" lon="7.26285">
        <ele>1053</ele>
        <time>2020-09-06T09:49:39.512Z</time>
      </trkpt>
      <trkpt lat="48.4018" lon="7.26286">
        <ele>1053</ele>
        <time>2020-09-06T09:49:40.512Z</time>
      </trkpt>
      <trkpt lat="48.40179" lon="7.26287">
        <ele>1052</ele>
        <time>2020-09-06T09:49:41.512Z</time>
      </trkpt>
      <trkpt lat="48.40178" lon="7.26288">
        <ele>1052</ele>
        <time>2020-09-06T09:49:42.511Z</time>
      </trkpt>
      <trkpt lat="48.40176" lon="7.26289">
        <ele>1052</ele>
        <time>2020-09-06T09:49:43.512Z</time>
      </trkpt>
      <trkpt lat="48.40175" lon="7.2629">
        <ele>1053</ele>
        <time>2020-09-06T09:49:44.512Z</time>
      </trkpt>
      <trkpt lat="48.40174" lon="7.26291">
        <ele>1053</ele>
        <time>2020-09-06T09:49:45.512Z</time>
      </trkpt>
      <trkpt lat="48.40173" lon="7.26292">
        <ele>1053</ele>
        <time>2020-09-06T09:49:46.511Z</time>
      </trkpt>
      <trkpt lat="48.40172" lon="7.26293">
        <ele>1053</ele>
        <time>2020-09-06T09:49:47.512Z</time>
      </trkpt>
      <trkpt lat="48.4017" lon="7.26295">
        <ele>1054</ele>
        <time>2020-09-06T09:49:48.512Z</time>
      </trkpt>
      <trkpt lat="48.40169" lon="7.26296">
        <ele>1054</ele>
        <time>2020-09-06T09:49:49.512Z</time>
      </trkpt>
      <trkpt lat="48.40169" lon="7.26297">
        <ele>1054</ele>
        <time>2020-09-06T09:49:50.512Z</time>
      </trkpt>
      <trkpt lat="48.40168" lon="7.26298">
        <ele>1054</ele>
        <time>2020-09-06T09:49:51.512Z</time>
      </trkpt>
      <trkpt lat="48.40167" lon="7.26299">
        <ele>1054</ele>
        <time>2020-09-06T09:49:52.512Z</time>
      </trkpt>
      <trkpt lat="48.40166" lon="7.26299">
        <ele>1054</ele>
        <time>2020-09-06T09:49:53.511Z</time>
      </trkpt>
      <trkpt lat="48.40165" lon="7.263">
        <ele>1054</ele>
        <time>2020-09-06T09:49:54.511Z</time>
      </trkpt>
      <trkpt lat="48.40164" lon="7.26301">
        <ele>1054</ele>
        <time>2020-09-06T09:49:55.512Z</time>
      </trkpt>
      <trkpt lat="48.40162" lon="7.26302">
        <ele>1054</ele>
        <time>2020-09-06T09:49:56.511Z</time>
      </trkpt>
      <trkpt lat="48.40161" lon="7.26303">
        <ele>1054</ele>
        <time>2020-09-06T09:49:57.512Z</time>
      </trkpt>
      <trkpt lat="48.4016" lon="7.26304">
        <ele>1055</ele>
        <time>2020-09-06T09:49:58.511Z</time>
      </trkpt>
      <trkpt lat="48.40159" lon="7.26305">
        <ele>1055</ele>
        <time>2020-09-06T09:49:59.512Z</time>
      </trkpt>
      <trkpt lat="48.40158" lon="7.26306">
        <ele>1055</ele>
        <time>2020-09-06T09:50:00.511Z</time>
      </trkpt>
      <trkpt lat="48.40157" lon="7.26308">
        <ele>1055</ele>
        <time>2020-09-06T09:50:01.511Z</time>
      </trkpt>
      <trkpt lat="48.40156" lon="7.26309">
        <ele>1055</ele>
        <time>2020-09-06T09:50:02.512Z</time>
      </trkpt>
      <trkpt lat="48.40155" lon="7.2631">
        <ele>1055</ele>
        <time>2020-09-06T09:50:03.512Z</time>
      </trkpt>
      <trkpt lat="48.40154" lon="7.26311">
        <ele>1056</ele>
        <time>2020-09-06T09:50:04.511Z</time>
      </trkpt>
      <trkpt lat="48.40153" lon="7.26312">
        <ele>1056</ele>
        <time>2020-09-06T09:50:05.512Z</time>
      </trkpt>
      <trkpt lat="48.40152" lon="7.26313">
        <ele>1056</ele>
        <time>2020-09-06T09:50:06.512Z</time>
      </trkpt>
      <trkpt lat="48.4015" lon="7.26314">
        <ele>1056</ele>
        <time>2020-09-06T09:50:07.511Z</time>
      </trkpt>
      <trkpt lat="48.40149" lon="7.26315">
        <ele>1056</ele>
        <time>2020-09-06T09:50:08.511Z</time>
      </trkpt>
      <trkpt lat="48.40148" lon="7.26316">
        <ele>1057</ele>
        <time>2020-09-06T09:50:09.512Z</time>
      </trkpt>
      <trkpt lat="48.40147" lon="7.26317">
        <ele>1057</ele>
        <time>2020-09-06T09:50:10.511Z</time>
      </trkpt>
      <trkpt lat="48.40146" lon="7.26318">
        <ele>1057</ele>
        <time>2020-09-06T09:50:11.511Z</time>
      </trkpt>
      <trkpt lat="48.40144" lon="7.26319">
        <ele>1057</ele>
        <time>2020-09-06T09:50:12.512Z</time>
      </trkpt>
      <trkpt lat="48.40143" lon="7.2632">
        <ele>1057</ele>
        <time>2020-09-06T09:50:13.512Z</time>
      </trkpt>
      <trkpt lat="48.40142" lon="7.26321">
        <ele>1057</ele>
        <time>2020-09-06T09:50:14.512Z</time>
      </trkpt>
      <trkpt lat="48.40141" lon="7.26322">
        <ele>1057</ele>
        <time>2020-09-06T09:50:15.512Z</time>
      </trkpt>
      <trkpt lat="48.4014" lon="7.26323">
        <ele>1057</ele>
        <time>2020-09-06T09:50:16.512Z</time>
      </trkpt>
      <trkpt lat="48.40139" lon="7.26324">
        <ele>1057</ele>
        <time>2020-09-06T09:50:17.512Z</time>
      </trkpt>
      <trkpt lat="48.40138" lon="7.26325">
        <ele>1057</ele>
        <time>2020-09-06T09:50:18.511Z</time>
      </trkpt>
      <trkpt lat="48.40136" lon="7.26326">
        <ele>1057</ele>
        <time>2020-09-06T09:50:19.511Z</time>
      </trkpt>
      <trkpt lat="48.40135" lon="7.26327">
        <ele>1058</ele>
        <time>2020-09-06T09:50:20.512Z</time>
      </trkpt>
      <trkpt lat="48.40134" lon="7.26328">
        <ele>1058</ele>
        <time>2020-09-06T09:50:21.512Z</time>
      </trkpt>
      <trkpt lat="48.40133" lon="7.26329">
        <ele>1059</ele>
        <time>2020-09-06T09:50:22.511Z</time>
      </trkpt>
      <trkpt lat="48.40132" lon="7.2633">
        <ele>1059</ele>
        <time>2020-09-06T09:50:23.511Z</time>
      </trkpt>
      <trkpt lat="48.40131" lon="7.2633">
        <ele>1059</ele>
        <time>2020-09-06T09:50:24.511Z</time>
      </trkpt>
      <trkpt lat="48.4013" lon="7.26332">
        <ele>1060</ele>
        <time>2020-09-06T09:50:25.512Z</time>
      </trkpt>
      <trkpt lat="48.40128" lon="7.26332">
        <ele>1060</ele>
        <time>2020-09-06T09:50:26.512Z</time>
      </trkpt>
      <trkpt lat="48.40127" lon="7.26333">
        <ele>1060</ele>
        <time>2020-09-06T09:50:27.512Z</time>
      </trkpt>
      <trkpt lat="48.40126" lon="7.26334">
        <ele>1060</ele>
        <time>2020-09-06T09:50:28.512Z</time>
      </trkpt>
      <trkpt lat="48.40125" lon="7.26335">
        <ele>1061</ele>
        <time>2020-09-06T09:50:29.511Z</time>
      </trkpt>
      <trkpt lat="48.40124" lon="7.26336">
        <ele>1061</ele>
        <time>2020-09-06T09:50:30.512Z</time>
      </trkpt>
      <trkpt lat="48.40123" lon="7.26337">
        <ele>1061</ele>
        <time>2020-09-06T09:50:31.512Z</time>
      </trkpt>
      <trkpt lat="48.40122" lon="7.26337">
        <ele>1060</ele>
        <time>2020-09-06T09:50:32.512Z</time>
      </trkpt>
      <trkpt lat="48.40121" lon="7.26338">
        <ele>1061</ele>
        <time>2020-09-06T09:50:33.512Z</time>
      </trkpt>
      <trkpt lat="48.4012" lon="7.26338">
        <ele>1061</ele>
        <time>2020-09-06T09:50:34.512Z</time>
      </trkpt>
      <trkpt lat="48.40119" lon="7.26338">
        <ele>1061</ele>
        <time>2020-09-06T09:50:35.512Z</time>
      </trkpt>
      <trkpt lat="48.40119" lon="7.26338">
        <ele>1061</ele>
        <time>2020-09-06T09:50:36.512Z</time>
      </trkpt>
      <trkpt lat="48.40118" lon="7.26338">
        <ele>1061</ele>
        <time>2020-09-06T09:50:37.512Z</time>
      </trkpt>
      <trkpt lat="48.40117" lon="7.26338">
        <ele>1062</ele>
        <time>2020-09-06T09:50:38.512Z</time>
      </trkpt>
      <trkpt lat="48.40117" lon="7.26337">
        <ele>1063</ele>
        <time>2020-09-06T09:50:39.511Z</time>
      </trkpt>
      <trkpt lat="48.40117" lon="7.26338">
        <ele>1063</ele>
        <time>2020-09-06T09:50:40.512Z</time>
      </trkpt>
      <trkpt lat="48.40116" lon="7.26338">
        <ele>1064</ele>
        <time>2020-09-06T09:50:41.512Z</time>
      </trkpt>
      <trkpt lat="48.40116" lon="7.26339">
        <ele>1065</ele>
        <time>2020-09-06T09:50:42.512Z</time>
      </trkpt>
      <trkpt lat="48.40115" lon="7.26339">
        <ele>1065</ele>
        <time>2020-09-06T09:50:43.511Z</time>
      </trkpt>
      <trkpt lat="48.40115" lon="7.2634">
        <ele>1065</ele>
        <time>2020-09-06T09:50:44.512Z</time>
      </trkpt>
      <trkpt lat="48.40113" lon="7.2634">
        <ele>1064</ele>
        <time>2020-09-06T09:50:45.511Z</time>
      </trkpt>
      <trkpt lat="48.40112" lon="7.26341">
        <ele>1064</ele>
        <time>2020-09-06T09:50:46.511Z</time>
      </trkpt>
      <trkpt lat="48.40111" lon="7.26342">
        <ele>1064</ele>
        <time>2020-09-06T09:50:47.511Z</time>
      </trkpt>
      <trkpt lat="48.4011" lon="7.26343">
        <ele>1063</ele>
        <time>2020-09-06T09:50:48.512Z</time>
      </trkpt>
      <trkpt lat="48.40109" lon="7.26344">
        <ele>1063</ele>
        <time>2020-09-06T09:50:49.512Z</time>
      </trkpt>
      <trkpt lat="48.40108" lon="7.26345">
        <ele>1063</ele>
        <time>2020-09-06T09:50:50.512Z</time>
      </trkpt>
      <trkpt lat="48.40107" lon="7.26345">
        <ele>1062</ele>
        <time>2020-09-06T09:50:51.511Z</time>
      </trkpt>
      <trkpt lat="48.40106" lon="7.26346">
        <ele>1062</ele>
        <time>2020-09-06T09:50:52.512Z</time>
      </trkpt>
      <trkpt lat="48.40105" lon="7.26347">
        <ele>1062</ele>
        <time>2020-09-06T09:50:53.511Z</time>
      </trkpt>
      <trkpt lat="48.40103" lon="7.26348">
        <ele>1062</ele>
        <time>2020-09-06T09:50:54.512Z</time>
      </trkpt>
      <trkpt lat="48.40102" lon="7.26349">
        <ele>1062</ele>
        <time>2020-09-06T09:50:55.512Z</time>
      </trkpt>
      <trkpt lat="48.40101" lon="7.2635">
        <ele>1062</ele>
        <time>2020-09-06T09:50:56.512Z</time>
      </trkpt>
      <trkpt lat="48.401" lon="7.26352">
        <ele>1062</ele>
        <time>2020-09-06T09:50:57.512Z</time>
      </trkpt>
      <trkpt lat="48.40098" lon="7.26353">
        <ele>1062</ele>
        <time>2020-09-06T09:50:58.511Z</time>
      </trkpt>
      <trkpt lat="48.40097" lon="7.26354">
        <ele>1062</ele>
        <time>2020-09-06T09:50:59.512Z</time>
      </trkpt>
      <trkpt lat="48.40096" lon="7.26355">
        <ele>1062</ele>
        <time>2020-09-06T09:51:00.512Z</time>
      </trkpt>
      <trkpt lat="48.40095" lon="7.26356">
        <ele>1063</ele>
        <time>2020-09-06T09:51:01.511Z</time>
      </trkpt>
      <trkpt lat="48.40094" lon="7.26357">
        <ele>1063</ele>
        <time>2020-09-06T09:51:02.511Z</time>
      </trkpt>
      <trkpt lat="48.40093" lon="7.26358">
        <ele>1063</ele>
        <time>2020-09-06T09:51:03.511Z</time>
      </trkpt>
      <trkpt lat="48.40093" lon="7.26359">
        <ele>1063</ele>
        <time>2020-09-06T09:51:04.512Z</time>
      </trkpt>
      <trkpt lat="48.40092" lon="7.26361">
        <ele>1063</ele>
        <time>2020-09-06T09:51:05.512Z</time>
      </trkpt>
      <trkpt lat="48.40091" lon="7.26361">
        <ele>1063</ele>
        <time>2020-09-06T09:51:06.512Z</time>
      </trkpt>
      <trkpt lat="48.40089" lon="7.26363">
        <ele>1063</ele>
        <time>2020-09-06T09:51:07.511Z</time>
      </trkpt>
      <trkpt lat="48.40088" lon="7.26363">
        <ele>1063</ele>
        <time>2020-09-06T09:51:08.512Z</time>
      </trkpt>
      <trkpt lat="48.40087" lon="7.26364">
        <ele>1063</ele>
        <time>2020-09-06T09:51:09.512Z</time>
      </trkpt>
      <trkpt lat="48.40086" lon="7.26365">
        <ele>1063</ele>
        <time>2020-09-06T09:51:10.511Z</time>
      </trkpt>
      <trkpt lat="48.40085" lon="7.26366">
        <ele>1063</ele>
        <time>2020-09-06T09:51:11.512Z</time>
      </trkpt>
      <trkpt lat="48.40084" lon="7.26368">
        <ele>1064</ele>
        <time>2020-09-06T09:51:12.511Z</time>
      </trkpt>
      <trkpt lat="48.40083" lon="7.26369">
        <ele>1064</ele>
        <time>2020-09-06T09:51:13.512Z</time>
      </trkpt>
      <trkpt lat="48.40082" lon="7.2637">
        <ele>1064</ele>
        <time>2020-09-06T09:51:14.512Z</time>
      </trkpt>
      <trkpt lat="48.40081" lon="7.26371">
        <ele>1064</ele>
        <time>2020-09-06T09:51:15.512Z</time>
      </trkpt>
      <trkpt lat="48.4008" lon="7.26372">
        <ele>1064</ele>
        <time>2020-09-06T09:51:16.511Z</time>
      </trkpt>
      <trkpt lat="48.40078" lon="7.26373">
        <ele>1064</ele>
        <time>2020-09-06T09:51:17.511Z</time>
      </trkpt>
      <trkpt lat="48.40077" lon="7.26374">
        <ele>1064</ele>
        <time>2020-09-06T09:51:18.512Z</time>
      </trkpt>
      <trkpt lat="48.40076" lon="7.26375">
        <ele>1064</ele>
        <time>2020-09-06T09:51:19.512Z</time>
      </trkpt>
      <trkpt lat="48.40075" lon="7.26376">
        <ele>1064</ele>
        <time>2020-09-06T09:51:20.511Z</time>
      </trkpt>
      <trkpt lat="48.40074" lon="7.26377">
        <ele>1064</ele>
        <time>2020-09-06T09:51:21.511Z</time>
      </trkpt>
      <trkpt lat="48.40073" lon="7.26378">
        <ele>1065</ele>
        <time>2020-09-06T09:51:22.511Z</time>
      </trkpt>
      <trkpt lat="48.40072" lon="7.26379">
        <ele>1065</ele>
        <time>2020-09-06T09:51:23.512Z</time>
      </trkpt>
      <trkpt lat="48.40071" lon="7.2638">
        <ele>1065</ele>
        <time>2020-09-06T09:51:24.512Z</time>
      </trkpt>
      <trkpt lat="48.4007" lon="7.2638">
        <ele>1066</ele>
        <time>2020-09-06T09:51:25.511Z</time>
      </trkpt>
      <trkpt lat="48.40069" lon="7.26381">
        <ele>1066</ele>
        <time>2020-09-06T09:51:26.511Z</time>
      </trkpt>
      <trkpt lat="48.40068" lon="7.26382">
        <ele>1066</ele>
        <time>2020-09-06T09:51:27.511Z</time>
      </trkpt>
      <trkpt lat="48.40066" lon="7.26383">
        <ele>1066</ele>
        <time>2020-09-06T09:51:28.511Z</time>
      </trkpt>
      <trkpt lat="48.40065" lon="7.26384">
        <ele>1066</ele>
        <time>2020-09-06T09:51:29.512Z</time>
      </trkpt>
      <trkpt lat="48.40064" lon="7.26385">
        <ele>1066</ele>
        <time>2020-09-06T09:51:30.511Z</time>
      </trkpt>
      <trkpt lat="48.40063" lon="7.26386">
        <ele>1066</ele>
        <time>2020-09-06T09:51:31.511Z</time>
      </trkpt>
      <trkpt lat="48.40062" lon="7.26387">
        <ele>1066</ele>
        <time>2020-09-06T09:51:32.512Z</time>
      </trkpt>
      <trkpt lat="48.4006" lon="7.26388">
        <ele>1067</ele>
        <time>2020-09-06T09:51:33.512Z</time>
      </trkpt>
      <trkpt lat="48.40059" lon="7.26389">
        <ele>1067</ele>
        <time>2020-09-06T09:51:34.512Z</time>
      </trkpt>
      <trkpt lat="48.40058" lon="7.2639">
        <ele>1067</ele>
        <time>2020-09-06T09:51:35.512Z</time>
      </trkpt>
      <trkpt lat="48.40057" lon="7.26391">
        <ele>1067</ele>
        <time>2020-09-06T09:51:36.512Z</time>
      </trkpt>
      <trkpt lat="48.40056" lon="7.26391">
        <ele>1066</ele>
        <time>2020-09-06T09:51:37.512Z</time>
      </trkpt>
      <trkpt lat="48.40055" lon="7.26392">
        <ele>1066</ele>
        <time>2020-09-06T09:51:38.512Z</time>
      </trkpt>
      <trkpt lat="48.40054" lon="7.26393">
        <ele>1066</ele>
        <time>2020-09-06T09:51:39.512Z</time>
      </trkpt>
      <trkpt lat="48.40053" lon="7.26394">
        <ele>1066</ele>
        <time>2020-09-06T09:51:40.512Z</time>
      </trkpt>
      <trkpt lat="48.40051" lon="7.26395">
        <ele>1066</ele>
        <time>2020-09-06T09:51:41.512Z</time>
      </trkpt>
      <trkpt lat="48.4005" lon="7.26396">
        <ele>1066</ele>
        <time>2020-09-06T09:51:42.512Z</time>
      </trkpt>
      <trkpt lat="48.40049" lon="7.26397">
        <ele>1066</ele>
        <time>2020-09-06T09:51:43.511Z</time>
      </trkpt>
      <trkpt lat="48.40048" lon="7.26398">
        <ele>1066</ele>
        <time>2020-09-06T09:51:44.512Z</time>
      </trkpt>
      <trkpt lat="48.40047" lon="7.26399">
        <ele>1066</ele>
        <time>2020-09-06T09:51:45.511Z</time>
      </trkpt>
      <trkpt lat="48.40046" lon="7.264">
        <ele>1067</ele>
        <time>2020-09-06T09:51:46.511Z</time>
      </trkpt>
      <trkpt lat="48.40045" lon="7.26401">
        <ele>1068</ele>
        <time>2020-09-06T09:51:47.512Z</time>
      </trkpt>
      <trkpt lat="48.40044" lon="7.26402">
        <ele>1068</ele>
        <time>2020-09-06T09:51:48.511Z</time>
      </trkpt>
      <trkpt lat="48.40043" lon="7.26402">
        <ele>1068</ele>
        <time>2020-09-06T09:51:49.511Z</time>
      </trkpt>
      <trkpt lat="48.40042" lon="7.26403">
        <ele>1068</ele>
        <time>2020-09-06T09:51:50.511Z</time>
      </trkpt>
      <trkpt lat="48.40041" lon="7.26404">
        <ele>1068</ele>
        <time>2020-09-06T09:51:51.511Z</time>
      </trkpt>
      <trkpt lat="48.40039" lon="7.26405">
        <ele>1068</ele>
        <time>2020-09-06T09:51:52.512Z</time>
      </trkpt>
      <trkpt lat="48.40038" lon="7.26406">
        <ele>1068</ele>
        <time>2020-09-06T09:51:53.512Z</time>
      </trkpt>
      <trkpt lat="48.40037" lon="7.26407">
        <ele>1067</ele>
        <time>2020-09-06T09:51:54.511Z</time>
      </trkpt>
      <trkpt lat="48.40036" lon="7.26408">
        <ele>1067</ele>
        <time>2020-09-06T09:51:55.512Z</time>
      </trkpt>
      <trkpt lat="48.40035" lon="7.26409">
        <ele>1067</ele>
        <time>2020-09-06T09:51:56.512Z</time>
      </trkpt>
      <trkpt lat="48.40034" lon="7.2641">
        <ele>1067</ele>
        <time>2020-09-06T09:51:57.512Z</time>
      </trkpt>
      <trkpt lat="48.40033" lon="7.26411">
        <ele>1068</ele>
        <time>2020-09-06T09:51:58.511Z</time>
      </trkpt>
      <trkpt lat="48.40032" lon="7.26412">
        <ele>1068</ele>
        <time>2020-09-06T09:51:59.512Z</time>
      </trkpt>
      <trkpt lat="48.40031" lon="7.26413">
        <ele>1068</ele>
        <time>2020-09-06T09:52:00.512Z</time>
      </trkpt>
      <trkpt lat="48.4003" lon="7.26414">
        <ele>1069</ele>
        <time>2020-09-06T09:52:01.512Z</time>
      </trkpt>
      <trkpt lat="48.40029" lon="7.26415">
        <ele>1069</ele>
        <time>2020-09-06T09:52:02.512Z</time>
      </trkpt>
      <trkpt lat="48.40027" lon="7.26416">
        <ele>1069</ele>
        <time>2020-09-06T09:52:03.511Z</time>
      </trkpt>
      <trkpt lat="48.40026" lon="7.26417">
        <ele>1069</ele>
        <time>2020-09-06T09:52:04.512Z</time>
      </trkpt>
      <trkpt lat="48.40025" lon="7.26418">
        <ele>1069</ele>
        <time>2020-09-06T09:52:05.511Z</time>
      </trkpt>
      <trkpt lat="48.40024" lon="7.26419">
        <ele>1069</ele>
        <time>2020-09-06T09:52:06.512Z</time>
      </trkpt>
      <trkpt lat="48.40023" lon="7.2642">
        <ele>1069</ele>
        <time>2020-09-06T09:52:07.511Z</time>
      </trkpt>
      <trkpt lat="48.40021" lon="7.2642">
        <ele>1069</ele>
        <time>2020-09-06T09:52:08.511Z</time>
      </trkpt>
      <trkpt lat="48.4002" lon="7.26421">
        <ele>1069</ele>
        <time>2020-09-06T09:52:09.511Z</time>
      </trkpt>
      <trkpt lat="48.40019" lon="7.26422">
        <ele>1070</ele>
        <time>2020-09-06T09:52:10.511Z</time>
      </trkpt>
      <trkpt lat="48.40018" lon="7.26423">
        <ele>1070</ele>
        <time>2020-09-06T09:52:11.511Z</time>
      </trkpt>
      <trkpt lat="48.40017" lon="7.26424">
        <ele>1070</ele>
        <time>2020-09-06T09:52:12.511Z</time>
      </trkpt>
      <trkpt lat="48.40016" lon="7.26425">
        <ele>1070</ele>
        <time>2020-09-06T09:52:13.511Z</time>
      </trkpt>
      <trkpt lat="48.40015" lon="7.26426">
        <ele>1070</ele>
        <time>2020-09-06T09:52:14.512Z</time>
      </trkpt>
      <trkpt lat="48.40014" lon="7.26427">
        <ele>1070</ele>
        <time>2020-09-06T09:52:15.512Z</time>
      </trkpt>
      <trkpt lat="48.40012" lon="7.26428">
        <ele>1070</ele>
        <time>2020-09-06T09:52:16.512Z</time>
      </trkpt>
      <trkpt lat="48.40011" lon="7.26429">
        <ele>1071</ele>
        <time>2020-09-06T09:52:17.512Z</time>
      </trkpt>
      <trkpt lat="48.4001" lon="7.2643">
        <ele>1071</ele>
        <time>2020-09-06T09:52:18.512Z</time>
      </trkpt>
      <trkpt lat="48.40009" lon="7.26431">
        <ele>1071</ele>
        <time>2020-09-06T09:52:19.512Z</time>
      </trkpt>
      <trkpt lat="48.40008" lon="7.26432">
        <ele>1071</ele>
        <time>2020-09-06T09:52:20.511Z</time>
      </trkpt>
      <trkpt lat="48.40007" lon="7.26433">
        <ele>1071</ele>
        <time>2020-09-06T09:52:21.512Z</time>
      </trkpt>
      <trkpt lat="48.40006" lon="7.26434">
        <ele>1071</ele>
        <time>2020-09-06T09:52:22.512Z</time>
      </trkpt>
      <trkpt lat="48.40005" lon="7.26435">
        <ele>1071</ele>
        <time>2020-09-06T09:52:23.511Z</time>
      </trkpt>
      <trkpt lat="48.40004" lon="7.26435">
        <ele>1071</ele>
        <time>2020-09-06T09:52:24.512Z</time>
      </trkpt>
      <trkpt lat="48.40003" lon="7.26437">
        <ele>1071</ele>
        <time>2020-09-06T09:52:25.512Z</time>
      </trkpt>
      <trkpt lat="48.40002" lon="7.26438">
        <ele>1072</ele>
        <time>2020-09-06T09:52:26.512Z</time>
      </trkpt>
      <trkpt lat="48.40001" lon="7.26439">
        <ele>1072</ele>
        <time>2020-09-06T09:52:27.512Z</time>
      </trkpt>
      <trkpt lat="48.4" lon="7.2644">
        <ele>1072</ele>
        <time>2020-09-06T09:52:28.512Z</time>
      </trkpt>
      <trkpt lat="48.39999" lon="7.2644">
        <ele>1072</ele>
        <time>2020-09-06T09:52:29.512Z</time>
      </trkpt>
      <trkpt lat="48.39998" lon="7.26442">
        <ele>1073</ele>
        <time>2020-09-06T09:52:30.511Z</time>
      </trkpt>
      <trkpt lat="48.39997" lon="7.26443">
        <ele>1072</ele>
        <time>2020-09-06T09:52:31.512Z</time>
      </trkpt>
      <trkpt lat="48.39996" lon="7.26444">
        <ele>1072</ele>
        <time>2020-09-06T09:52:32.512Z</time>
      </trkpt>
      <trkpt lat="48.39995" lon="7.26445">
        <ele>1072</ele>
        <time>2020-09-06T09:52:33.511Z</time>
      </trkpt>
      <trkpt lat="48.39993" lon="7.26446">
        <ele>1073</ele>
        <time>2020-09-06T09:52:34.511Z</time>
      </trkpt>
      <trkpt lat="48.39992" lon="7.26447">
        <ele>1073</ele>
        <time>2020-09-06T09:52:35.511Z</time>
      </trkpt>
      <trkpt lat="48.39991" lon="7.26449">
        <ele>1073</ele>
        <time>2020-09-06T09:52:36.511Z</time>
      </trkpt>
      <trkpt lat="48.39991" lon="7.26449">
        <ele>1073</ele>
        <time>2020-09-06T09:52:37.512Z</time>
      </trkpt>
      <trkpt lat="48.3999" lon="7.2645">
        <ele>1073</ele>
        <time>2020-09-06T09:52:38.512Z</time>
      </trkpt>
      <trkpt lat="48.3999" lon="7.26451">
        <ele>1073</ele>
        <time>2020-09-06T09:52:39.512Z</time>
      </trkpt>
      <trkpt lat="48.39989" lon="7.26452">
        <ele>1073</ele>
        <time>2020-09-06T09:52:40.512Z</time>
      </trkpt>
      <trkpt lat="48.39989" lon="7.26452">
        <ele>1074</ele>
        <time>2020-09-06T09:52:41.512Z</time>
      </trkpt>
      <trkpt lat="48.39988" lon="7.26453">
        <ele>1075</ele>
        <time>2020-09-06T09:52:42.512Z</time>
      </trkpt>
      <trkpt lat="48.39988" lon="7.26453">
        <ele>1075</ele>
        <time>2020-09-06T09:52:43.512Z</time>
      </trkpt>
      <trkpt lat="48.39988" lon="7.26454">
        <ele>1076</ele>
        <time>2020-09-06T09:52:44.512Z</time>
      </trkpt>
      <trkpt lat="48.39987" lon="7.26455">
        <ele>1076</ele>
        <time>2020-09-06T09:52:45.512Z</time>
      </trkpt>
      <trkpt lat="48.39987" lon="7.26456">
        <ele>1076</ele>
        <time>2020-09-06T09:52:46.512Z</time>
      </trkpt>
      <trkpt lat="48.39986" lon="7.26457">
        <ele>1077</ele>
        <time>2020-09-06T09:52:47.512Z</time>
      </trkpt>
      <trkpt lat="48.39986" lon="7.26458">
        <ele>1077</ele>
        <time>2020-09-06T09:52:48.512Z</time>
      </trkpt>
      <trkpt lat="48.39985" lon="7.26458">
        <ele>1077</ele>
        <time>2020-09-06T09:52:49.512Z</time>
      </trkpt>
      <trkpt lat="48.39984" lon="7.26459">
        <ele>1077</ele>
        <time>2020-09-06T09:52:50.512Z</time>
      </trkpt>
      <trkpt lat="48.39983" lon="7.2646">
        <ele>1077</ele>
        <time>2020-09-06T09:52:51.512Z</time>
      </trkpt>
      <trkpt lat="48.39982" lon="7.26461">
        <ele>1077</ele>
        <time>2020-09-06T09:52:52.512Z</time>
      </trkpt>
      <trkpt lat="48.39981" lon="7.26462">
        <ele>1076</ele>
        <time>2020-09-06T09:52:53.512Z</time>
      </trkpt>
      <trkpt lat="48.3998" lon="7.26463">
        <ele>1076</ele>
        <time>2020-09-06T09:52:54.512Z</time>
      </trkpt>
      <trkpt lat="48.39979" lon="7.26463">
        <ele>1076</ele>
        <time>2020-09-06T09:52:55.511Z</time>
      </trkpt>
      <trkpt lat="48.39978" lon="7.26464">
        <ele>1075</ele>
        <time>2020-09-06T09:52:56.512Z</time>
      </trkpt>
      <trkpt lat="48.39977" lon="7.26465">
        <ele>1075</ele>
        <time>2020-09-06T09:52:57.512Z</time>
      </trkpt>
      <trkpt lat="48.39976" lon="7.26466">
        <ele>1075</ele>
        <time>2020-09-06T09:52:58.512Z</time>
      </trkpt>
      <trkpt lat="48.39974" lon="7.26467">
        <ele>1075</ele>
        <time>2020-09-06T09:52:59.512Z</time>
      </trkpt>
      <trkpt lat="48.39973" lon="7.26467">
        <ele>1075</ele>
        <time>2020-09-06T09:53:00.512Z</time>
      </trkpt>
      <trkpt lat="48.39972" lon="7.26468">
        <ele>1075</ele>
        <time>2020-09-06T09:53:01.512Z</time>
      </trkpt>
      <trkpt lat="48.39971" lon="7.26469">
        <ele>1075</ele>
        <time>2020-09-06T09:53:02.512Z</time>
      </trkpt>
      <trkpt lat="48.3997" lon="7.2647">
        <ele>1074</ele>
        <time>2020-09-06T09:53:03.512Z</time>
      </trkpt>
      <trkpt lat="48.39969" lon="7.26471">
        <ele>1074</ele>
        <time>2020-09-06T09:53:04.512Z</time>
      </trkpt>
      <trkpt lat="48.39967" lon="7.26472">
        <ele>1074</ele>
        <time>2020-09-06T09:53:05.512Z</time>
      </trkpt>
      <trkpt lat="48.39966" lon="7.26473">
        <ele>1075</ele>
        <time>2020-09-06T09:53:06.512Z</time>
      </trkpt>
      <trkpt lat="48.39965" lon="7.26474">
        <ele>1076</ele>
        <time>2020-09-06T09:53:07.512Z</time>
      </trkpt>
      <trkpt lat="48.39964" lon="7.26475">
        <ele>1077</ele>
        <time>2020-09-06T09:53:08.511Z</time>
      </trkpt>
      <trkpt lat="48.39963" lon="7.26475">
        <ele>1077</ele>
        <time>2020-09-06T09:53:09.512Z</time>
      </trkpt>
      <trkpt lat="48.39962" lon="7.26476">
        <ele>1077</ele>
        <time>2020-09-06T09:53:10.512Z</time>
      </trkpt>
      <trkpt lat="48.3996" lon="7.26477">
        <ele>1077</ele>
        <time>2020-09-06T09:53:11.511Z</time>
      </trkpt>
      <trkpt lat="48.39959" lon="7.26477">
        <ele>1077</ele>
        <time>2020-09-06T09:53:12.511Z</time>
      </trkpt>
      <trkpt lat="48.39958" lon="7.26478">
        <ele>1077</ele>
        <time>2020-09-06T09:53:13.512Z</time>
      </trkpt>
      <trkpt lat="48.39957" lon="7.26478">
        <ele>1077</ele>
        <time>2020-09-06T09:53:14.512Z</time>
      </trkpt>
      <trkpt lat="48.39956" lon="7.26479">
        <ele>1077</ele>
        <time>2020-09-06T09:53:15.512Z</time>
      </trkpt>
      <trkpt lat="48.39955" lon="7.26479">
        <ele>1077</ele>
        <time>2020-09-06T09:53:16.511Z</time>
      </trkpt>
      <trkpt lat="48.39953" lon="7.2648">
        <ele>1077</ele>
        <time>2020-09-06T09:53:17.511Z</time>
      </trkpt>
      <trkpt lat="48.39952" lon="7.2648">
        <ele>1077</ele>
        <time>2020-09-06T09:53:18.512Z</time>
      </trkpt>
      <trkpt lat="48.39951" lon="7.26481">
        <ele>1077</ele>
        <time>2020-09-06T09:53:19.512Z</time>
      </trkpt>
      <trkpt lat="48.3995" lon="7.26482">
        <ele>1077</ele>
        <time>2020-09-06T09:53:20.512Z</time>
      </trkpt>
      <trkpt lat="48.39949" lon="7.26482">
        <ele>1077</ele>
        <time>2020-09-06T09:53:21.512Z</time>
      </trkpt>
      <trkpt lat="48.39948" lon="7.26483">
        <ele>1077</ele>
        <time>2020-09-06T09:53:22.512Z</time>
      </trkpt>
      <trkpt lat="48.39947" lon="7.26483">
        <ele>1077</ele>
        <time>2020-09-06T09:53:23.512Z</time>
      </trkpt>
      <trkpt lat="48.39946" lon="7.26484">
        <ele>1076</ele>
        <time>2020-09-06T09:53:24.512Z</time>
      </trkpt>
      <trkpt lat="48.39946" lon="7.26485">
        <ele>1076</ele>
        <time>2020-09-06T09:53:25.512Z</time>
      </trkpt>
      <trkpt lat="48.39945" lon="7.26485">
        <ele>1076</ele>
        <time>2020-09-06T09:53:26.512Z</time>
      </trkpt>
      <trkpt lat="48.39944" lon="7.26485">
        <ele>1076</ele>
        <time>2020-09-06T09:53:27.512Z</time>
      </trkpt>
      <trkpt lat="48.39943" lon="7.26485">
        <ele>1077</ele>
        <time>2020-09-06T09:53:28.512Z</time>
      </trkpt>
      <trkpt lat="48.39942" lon="7.26486">
        <ele>1077</ele>
        <time>2020-09-06T09:53:29.512Z</time>
      </trkpt>
      <trkpt lat="48.39941" lon="7.26487">
        <ele>1076</ele>
        <time>2020-09-06T09:53:30.512Z</time>
      </trkpt>
      <trkpt lat="48.3994" lon="7.26488">
        <ele>1076</ele>
        <time>2020-09-06T09:53:31.512Z</time>
      </trkpt>
      <trkpt lat="48.39939" lon="7.26489">
        <ele>1076</ele>
        <time>2020-09-06T09:53:32.511Z</time>
      </trkpt>
      <trkpt lat="48.39938" lon="7.26489">
        <ele>1076</ele>
        <time>2020-09-06T09:53:33.511Z</time>
      </trkpt>
      <trkpt lat="48.39937" lon="7.2649">
        <ele>1076</ele>
        <time>2020-09-06T09:53:34.512Z</time>
      </trkpt>
      <trkpt lat="48.39936" lon="7.26491">
        <ele>1077</ele>
        <time>2020-09-06T09:53:35.512Z</time>
      </trkpt>
      <trkpt lat="48.39935" lon="7.26491">
        <ele>1077</ele>
        <time>2020-09-06T09:53:36.512Z</time>
      </trkpt>
      <trkpt lat="48.39935" lon="7.26492">
        <ele>1077</ele>
        <time>2020-09-06T09:53:37.512Z</time>
      </trkpt>
      <trkpt lat="48.39935" lon="7.26492">
        <ele>1077</ele>
        <time>2020-09-06T09:53:38.512Z</time>
      </trkpt>
      <trkpt lat="48.39934" lon="7.26492">
        <ele>1077</ele>
        <time>2020-09-06T09:53:39.511Z</time>
      </trkpt>
      <trkpt lat="48.39934" lon="7.26493">
        <ele>1077</ele>
        <time>2020-09-06T09:53:40.511Z</time>
      </trkpt>
      <trkpt lat="48.39934" lon="7.26493">
        <ele>1077</ele>
        <time>2020-09-06T09:53:41.511Z</time>
      </trkpt>
      <trkpt lat="48.39933" lon="7.26494">
        <ele>1077</ele>
        <time>2020-09-06T09:53:42.511Z</time>
      </trkpt>
      <trkpt lat="48.39932" lon="7.26494">
        <ele>1077</ele>
        <time>2020-09-06T09:53:43.512Z</time>
      </trkpt>
      <trkpt lat="48.39931" lon="7.26495">
        <ele>1077</ele>
        <time>2020-09-06T09:53:44.511Z</time>
      </trkpt>
      <trkpt lat="48.39931" lon="7.26495">
        <ele>1077</ele>
        <time>2020-09-06T09:53:45.511Z</time>
      </trkpt>
      <trkpt lat="48.3993" lon="7.26495">
        <ele>1077</ele>
        <time>2020-09-06T09:53:46.511Z</time>
      </trkpt>
      <trkpt lat="48.39929" lon="7.26495">
        <ele>1077</ele>
        <time>2020-09-06T09:53:47.511Z</time>
      </trkpt>
      <trkpt lat="48.39928" lon="7.26496">
        <ele>1078</ele>
        <time>2020-09-06T09:53:48.511Z</time>
      </trkpt>
      <trkpt lat="48.39928" lon="7.26496">
        <ele>1078</ele>
        <time>2020-09-06T09:53:49.511Z</time>
      </trkpt>
      <trkpt lat="48.39927" lon="7.26496">
        <ele>1078</ele>
        <time>2020-09-06T09:53:50.511Z</time>
      </trkpt>
      <trkpt lat="48.39926" lon="7.26496">
        <ele>1078</ele>
        <time>2020-09-06T09:53:51.511Z</time>
      </trkpt>
      <trkpt lat="48.39925" lon="7.26496">
        <ele>1078</ele>
        <time>2020-09-06T09:53:52.511Z</time>
      </trkpt>
      <trkpt lat="48.39925" lon="7.26496">
        <ele>1078</ele>
        <time>2020-09-06T09:53:53.511Z</time>
      </trkpt>
      <trkpt lat="48.39925" lon="7.26496">
        <ele>1078</ele>
        <time>2020-09-06T09:53:54.511Z</time>
      </trkpt>
      <trkpt lat="48.39925" lon="7.26496">
        <ele>1078</ele>
        <time>2020-09-06T09:53:55.511Z</time>
      </trkpt>
      <trkpt lat="48.39924" lon="7.26496">
        <ele>1077</ele>
        <time>2020-09-06T09:53:56.511Z</time>
      </trkpt>
      <trkpt lat="48.39924" lon="7.26496">
        <ele>1077</ele>
        <time>2020-09-06T09:53:57.511Z</time>
      </trkpt>
      <trkpt lat="48.39923" lon="7.26496">
        <ele>1077</ele>
        <time>2020-09-06T09:53:58.511Z</time>
      </trkpt>
      <trkpt lat="48.39922" lon="7.26496">
        <ele>1077</ele>
        <time>2020-09-06T09:53:59.511Z</time>
      </trkpt>
      <trkpt lat="48.39922" lon="7.26497">
        <ele>1077</ele>
        <time>2020-09-06T09:54:00.512Z</time>
      </trkpt>
      <trkpt lat="48.39921" lon="7.26497">
        <ele>1077</ele>
        <time>2020-09-06T09:54:01.512Z</time>
      </trkpt>
      <trkpt lat="48.3992" lon="7.26497">
        <ele>1077</ele>
        <time>2020-09-06T09:54:02.512Z</time>
      </trkpt>
      <trkpt lat="48.39919" lon="7.26498">
        <ele>1076</ele>
        <time>2020-09-06T09:54:03.511Z</time>
      </trkpt>
      <trkpt lat="48.39918" lon="7.26499">
        <ele>1076</ele>
        <time>2020-09-06T09:54:04.512Z</time>
      </trkpt>
      <trkpt lat="48.39917" lon="7.265">
        <ele>1076</ele>
        <time>2020-09-06T09:54:05.512Z</time>
      </trkpt>
      <trkpt lat="48.39917" lon="7.265">
        <ele>1077</ele>
        <time>2020-09-06T09:54:06.512Z</time>
      </trkpt>
      <trkpt lat="48.39916" lon="7.26501">
        <ele>1077</ele>
        <time>2020-09-06T09:54:07.511Z</time>
      </trkpt>
      <trkpt lat="48.39915" lon="7.26502">
        <ele>1077</ele>
        <time>2020-09-06T09:54:08.511Z</time>
      </trkpt>
      <trkpt lat="48.39914" lon="7.26502">
        <ele>1077</ele>
        <time>2020-09-06T09:54:09.512Z</time>
      </trkpt>
      <trkpt lat="48.39913" lon="7.26503">
        <ele>1077</ele>
        <time>2020-09-06T09:54:10.512Z</time>
      </trkpt>
      <trkpt lat="48.39913" lon="7.26503">
        <ele>1077</ele>
        <time>2020-09-06T09:54:11.512Z</time>
      </trkpt>
      <trkpt lat="48.39912" lon="7.26504">
        <ele>1077</ele>
        <time>2020-09-06T09:54:12.511Z</time>
      </trkpt>
      <trkpt lat="48.39911" lon="7.26505">
        <ele>1077</ele>
        <time>2020-09-06T09:54:13.511Z</time>
      </trkpt>
      <trkpt lat="48.3991" lon="7.26506">
        <ele>1077</ele>
        <time>2020-09-06T09:54:14.512Z</time>
      </trkpt>
      <trkpt lat="48.39909" lon="7.26506">
        <ele>1077</ele>
        <time>2020-09-06T09:54:15.512Z</time>
      </trkpt>
      <trkpt lat="48.39908" lon="7.26507">
        <ele>1077</ele>
        <time>2020-09-06T09:54:16.512Z</time>
      </trkpt>
      <trkpt lat="48.39907" lon="7.26508">
        <ele>1077</ele>
        <time>2020-09-06T09:54:17.511Z</time>
      </trkpt>
      <trkpt lat="48.39906" lon="7.26509">
        <ele>1077</ele>
        <time>2020-09-06T09:54:18.512Z</time>
      </trkpt>
      <trkpt lat="48.39905" lon="7.2651">
        <ele>1077</ele>
        <time>2020-09-06T09:54:19.512Z</time>
      </trkpt>
      <trkpt lat="48.39904" lon="7.26511">
        <ele>1077</ele>
        <time>2020-09-06T09:54:20.512Z</time>
      </trkpt>
      <trkpt lat="48.39903" lon="7.26512">
        <ele>1078</ele>
        <time>2020-09-06T09:54:21.512Z</time>
      </trkpt>
      <trkpt lat="48.39902" lon="7.26513">
        <ele>1078</ele>
        <time>2020-09-06T09:54:22.512Z</time>
      </trkpt>
      <trkpt lat="48.39901" lon="7.26514">
        <ele>1078</ele>
        <time>2020-09-06T09:54:23.512Z</time>
      </trkpt>
      <trkpt lat="48.399" lon="7.26515">
        <ele>1078</ele>
        <time>2020-09-06T09:54:24.512Z</time>
      </trkpt>
      <trkpt lat="48.39899" lon="7.26516">
        <ele>1078</ele>
        <time>2020-09-06T09:54:25.512Z</time>
      </trkpt>
      <trkpt lat="48.39898" lon="7.26517">
        <ele>1078</ele>
        <time>2020-09-06T09:54:26.512Z</time>
      </trkpt>
      <trkpt lat="48.39897" lon="7.26518">
        <ele>1078</ele>
        <time>2020-09-06T09:54:27.512Z</time>
      </trkpt>
      <trkpt lat="48.39896" lon="7.26519">
        <ele>1078</ele>
        <time>2020-09-06T09:54:28.511Z</time>
      </trkpt>
      <trkpt lat="48.39895" lon="7.2652">
        <ele>1078</ele>
        <time>2020-09-06T09:54:29.512Z</time>
      </trkpt>
      <trkpt lat="48.39894" lon="7.26521">
        <ele>1079</ele>
        <time>2020-09-06T09:54:30.512Z</time>
      </trkpt>
      <trkpt lat="48.39893" lon="7.26522">
        <ele>1079</ele>
        <time>2020-09-06T09:54:31.511Z</time>
      </trkpt>
      <trkpt lat="48.39892" lon="7.26522">
        <ele>1079</ele>
        <time>2020-09-06T09:54:32.511Z</time>
      </trkpt>
      <trkpt lat="48.39891" lon="7.26523">
        <ele>1080</ele>
        <time>2020-09-06T09:54:33.511Z</time>
      </trkpt>
      <trkpt lat="48.3989" lon="7.26525">
        <ele>1080</ele>
        <time>2020-09-06T09:54:34.512Z</time>
      </trkpt>
      <trkpt lat="48.39889" lon="7.26526">
        <ele>1080</ele>
        <time>2020-09-06T09:54:35.512Z</time>
      </trkpt>
      <trkpt lat="48.39888" lon="7.26527">
        <ele>1080</ele>
        <time>2020-09-06T09:54:36.512Z</time>
      </trkpt>
      <trkpt lat="48.39887" lon="7.26528">
        <ele>1080</ele>
        <time>2020-09-06T09:54:37.511Z</time>
      </trkpt>
      <trkpt lat="48.39886" lon="7.26529">
        <ele>1080</ele>
        <time>2020-09-06T09:54:38.512Z</time>
      </trkpt>
      <trkpt lat="48.39884" lon="7.2653">
        <ele>1080</ele>
        <time>2020-09-06T09:54:39.512Z</time>
      </trkpt>
      <trkpt lat="48.39883" lon="7.26531">
        <ele>1079</ele>
        <time>2020-09-06T09:54:40.512Z</time>
      </trkpt>
      <trkpt lat="48.39882" lon="7.26532">
        <ele>1079</ele>
        <time>2020-09-06T09:54:41.512Z</time>
      </trkpt>
      <trkpt lat="48.39881" lon="7.26533">
        <ele>1080</ele>
        <time>2020-09-06T09:54:42.511Z</time>
      </trkpt>
      <trkpt lat="48.3988" lon="7.26534">
        <ele>1080</ele>
        <time>2020-09-06T09:54:43.512Z</time>
      </trkpt>
      <trkpt lat="48.39879" lon="7.26535">
        <ele>1079</ele>
        <time>2020-09-06T09:54:44.512Z</time>
      </trkpt>
      <trkpt lat="48.39878" lon="7.26536">
        <ele>1080</ele>
        <time>2020-09-06T09:54:45.512Z</time>
      </trkpt>
      <trkpt lat="48.39877" lon="7.26538">
        <ele>1080</ele>
        <time>2020-09-06T09:54:46.512Z</time>
      </trkpt>
      <trkpt lat="48.39876" lon="7.26539">
        <ele>1080</ele>
        <time>2020-09-06T09:54:47.512Z</time>
      </trkpt>
      <trkpt lat="48.39875" lon="7.2654">
        <ele>1080</ele>
        <time>2020-09-06T09:54:48.512Z</time>
      </trkpt>
      <trkpt lat="48.39874" lon="7.2654">
        <ele>1080</ele>
        <time>2020-09-06T09:54:49.512Z</time>
      </trkpt>
      <trkpt lat="48.39873" lon="7.26541">
        <ele>1080</ele>
        <time>2020-09-06T09:54:50.512Z</time>
      </trkpt>
      <trkpt lat="48.39871" lon="7.26542">
        <ele>1080</ele>
        <time>2020-09-06T09:54:51.512Z</time>
      </trkpt>
      <trkpt lat="48.3987" lon="7.26543">
        <ele>1080</ele>
        <time>2020-09-06T09:54:52.512Z</time>
      </trkpt>
      <trkpt lat="48.39869" lon="7.26544">
        <ele>1081</ele>
        <time>2020-09-06T09:54:53.511Z</time>
      </trkpt>
      <trkpt lat="48.39868" lon="7.26545">
        <ele>1081</ele>
        <time>2020-09-06T09:54:54.512Z</time>
      </trkpt>
      <trkpt lat="48.39868" lon="7.26546">
        <ele>1081</ele>
        <time>2020-09-06T09:54:55.512Z</time>
      </trkpt>
      <trkpt lat="48.39867" lon="7.26548">
        <ele>1081</ele>
        <time>2020-09-06T09:54:56.512Z</time>
      </trkpt>
      <trkpt lat="48.39866" lon="7.26549">
        <ele>1081</ele>
        <time>2020-09-06T09:54:57.512Z</time>
      </trkpt>
      <trkpt lat="48.39865" lon="7.2655">
        <ele>1081</ele>
        <time>2020-09-06T09:54:58.511Z</time>
      </trkpt>
      <trkpt lat="48.39863" lon="7.26551">
        <ele>1082</ele>
        <time>2020-09-06T09:54:59.512Z</time>
      </trkpt>
      <trkpt lat="48.39862" lon="7.26552">
        <ele>1082</ele>
        <time>2020-09-06T09:55:00.512Z</time>
      </trkpt>
      <trkpt lat="48.39861" lon="7.26552">
        <ele>1081</ele>
        <time>2020-09-06T09:55:01.512Z</time>
      </trkpt>
      <trkpt lat="48.3986" lon="7.26553">
        <ele>1081</ele>
        <time>2020-09-06T09:55:02.511Z</time>
      </trkpt>
      <trkpt lat="48.39859" lon="7.26554">
        <ele>1082</ele>
        <time>2020-09-06T09:55:03.511Z</time>
      </trkpt>
      <trkpt lat="48.39858" lon="7.26555">
        <ele>1082</ele>
        <time>2020-09-06T09:55:04.512Z</time>
      </trkpt>
      <trkpt lat="48.39857" lon="7.26557">
        <ele>1082</ele>
        <time>2020-09-06T09:55:05.511Z</time>
      </trkpt>
      <trkpt lat="48.39856" lon="7.26557">
        <ele>1082</ele>
        <time>2020-09-06T09:55:06.511Z</time>
      </trkpt>
      <trkpt lat="48.39855" lon="7.26558">
        <ele>1082</ele>
        <time>2020-09-06T09:55:07.511Z</time>
      </trkpt>
      <trkpt lat="48.39854" lon="7.26559">
        <ele>1082</ele>
        <time>2020-09-06T09:55:08.512Z</time>
      </trkpt>
      <trkpt lat="48.39853" lon="7.2656">
        <ele>1082</ele>
        <time>2020-09-06T09:55:09.512Z</time>
      </trkpt>
      <trkpt lat="48.39852" lon="7.2656">
        <ele>1082</ele>
        <time>2020-09-06T09:55:10.512Z</time>
      </trkpt>
      <trkpt lat="48.39851" lon="7.26561">
        <ele>1082</ele>
        <time>2020-09-06T09:55:11.512Z</time>
      </trkpt>
      <trkpt lat="48.3985" lon="7.26562">
        <ele>1083</ele>
        <time>2020-09-06T09:55:12.512Z</time>
      </trkpt>
      <trkpt lat="48.39849" lon="7.26563">
        <ele>1083</ele>
        <time>2020-09-06T09:55:13.512Z</time>
      </trkpt>
      <trkpt lat="48.39847" lon="7.26564">
        <ele>1083</ele>
        <time>2020-09-06T09:55:14.511Z</time>
      </trkpt>
      <trkpt lat="48.39846" lon="7.26565">
        <ele>1082</ele>
        <time>2020-09-06T09:55:15.512Z</time>
      </trkpt>
      <trkpt lat="48.39845" lon="7.26566">
        <ele>1082</ele>
        <time>2020-09-06T09:55:16.511Z</time>
      </trkpt>
      <trkpt lat="48.39844" lon="7.26567">
        <ele>1083</ele>
        <time>2020-09-06T09:55:17.512Z</time>
      </trkpt>
      <trkpt lat="48.39843" lon="7.26569">
        <ele>1083</ele>
        <time>2020-09-06T09:55:18.511Z</time>
      </trkpt>
      <trkpt lat="48.39842" lon="7.2657">
        <ele>1083</ele>
        <time>2020-09-06T09:55:19.512Z</time>
      </trkpt>
      <trkpt lat="48.39841" lon="7.26571">
        <ele>1083</ele>
        <time>2020-09-06T09:55:20.512Z</time>
      </trkpt>
      <trkpt lat="48.39839" lon="7.26572">
        <ele>1083</ele>
        <time>2020-09-06T09:55:21.512Z</time>
      </trkpt>
      <trkpt lat="48.39838" lon="7.26572">
        <ele>1082</ele>
        <time>2020-09-06T09:55:22.511Z</time>
      </trkpt>
      <trkpt lat="48.39837" lon="7.26573">
        <ele>1082</ele>
        <time>2020-09-06T09:55:23.511Z</time>
      </trkpt>
      <trkpt lat="48.39835" lon="7.26573">
        <ele>1083</ele>
        <time>2020-09-06T09:55:24.512Z</time>
      </trkpt>
      <trkpt lat="48.39834" lon="7.26574">
        <ele>1083</ele>
        <time>2020-09-06T09:55:25.512Z</time>
      </trkpt>
      <trkpt lat="48.39833" lon="7.26575">
        <ele>1083</ele>
        <time>2020-09-06T09:55:26.512Z</time>
      </trkpt>
      <trkpt lat="48.39831" lon="7.26576">
        <ele>1083</ele>
        <time>2020-09-06T09:55:27.512Z</time>
      </trkpt>
      <trkpt lat="48.3983" lon="7.26577">
        <ele>1083</ele>
        <time>2020-09-06T09:55:28.511Z</time>
      </trkpt>
      <trkpt lat="48.39829" lon="7.26578">
        <ele>1083</ele>
        <time>2020-09-06T09:55:29.512Z</time>
      </trkpt>
      <trkpt lat="48.39828" lon="7.26579">
        <ele>1082</ele>
        <time>2020-09-06T09:55:30.512Z</time>
      </trkpt>
      <trkpt lat="48.39827" lon="7.26579">
        <ele>1082</ele>
        <time>2020-09-06T09:55:31.512Z</time>
      </trkpt>
      <trkpt lat="48.39825" lon="7.2658">
        <ele>1082</ele>
        <time>2020-09-06T09:55:32.512Z</time>
      </trkpt>
      <trkpt lat="48.39824" lon="7.26581">
        <ele>1082</ele>
        <time>2020-09-06T09:55:33.512Z</time>
      </trkpt>
      <trkpt lat="48.39823" lon="7.26582">
        <ele>1082</ele>
        <time>2020-09-06T09:55:34.512Z</time>
      </trkpt>
      <trkpt lat="48.39822" lon="7.26583">
        <ele>1082</ele>
        <time>2020-09-06T09:55:35.512Z</time>
      </trkpt>
      <trkpt lat="48.39821" lon="7.26584">
        <ele>1082</ele>
        <time>2020-09-06T09:55:36.511Z</time>
      </trkpt>
      <trkpt lat="48.3982" lon="7.26585">
        <ele>1082</ele>
        <time>2020-09-06T09:55:37.512Z</time>
      </trkpt>
      <trkpt lat="48.39819" lon="7.26585">
        <ele>1082</ele>
        <time>2020-09-06T09:55:38.512Z</time>
      </trkpt>
      <trkpt lat="48.39818" lon="7.26586">
        <ele>1082</ele>
        <time>2020-09-06T09:55:39.512Z</time>
      </trkpt>
      <trkpt lat="48.39817" lon="7.26587">
        <ele>1082</ele>
        <time>2020-09-06T09:55:40.512Z</time>
      </trkpt>
      <trkpt lat="48.39815" lon="7.26588">
        <ele>1082</ele>
        <time>2020-09-06T09:55:41.512Z</time>
      </trkpt>
      <trkpt lat="48.39814" lon="7.26589">
        <ele>1082</ele>
        <time>2020-09-06T09:55:42.512Z</time>
      </trkpt>
      <trkpt lat="48.39813" lon="7.2659">
        <ele>1082</ele>
        <time>2020-09-06T09:55:43.512Z</time>
      </trkpt>
      <trkpt lat="48.39811" lon="7.26591">
        <ele>1083</ele>
        <time>2020-09-06T09:55:44.511Z</time>
      </trkpt>
      <trkpt lat="48.3981" lon="7.26592">
        <ele>1083</ele>
        <time>2020-09-06T09:55:45.512Z</time>
      </trkpt>
      <trkpt lat="48.39809" lon="7.26593">
        <ele>1083</ele>
        <time>2020-09-06T09:55:46.512Z</time>
      </trkpt>
      <trkpt lat="48.39808" lon="7.26594">
        <ele>1083</ele>
        <time>2020-09-06T09:55:47.512Z</time>
      </trkpt>
      <trkpt lat="48.39807" lon="7.26595">
        <ele>1083</ele>
        <time>2020-09-06T09:55:48.512Z</time>
      </trkpt>
      <trkpt lat="48.39806" lon="7.26596">
        <ele>1083</ele>
        <time>2020-09-06T09:55:49.512Z</time>
      </trkpt>
      <trkpt lat="48.39804" lon="7.26597">
        <ele>1083</ele>
        <time>2020-09-06T09:55:50.512Z</time>
      </trkpt>
      <trkpt lat="48.39803" lon="7.26598">
        <ele>1083</ele>
        <time>2020-09-06T09:55:51.512Z</time>
      </trkpt>
      <trkpt lat="48.39803" lon="7.26599">
        <ele>1083</ele>
        <time>2020-09-06T09:55:52.511Z</time>
      </trkpt>
      <trkpt lat="48.39802" lon="7.266">
        <ele>1083</ele>
        <time>2020-09-06T09:55:53.512Z</time>
      </trkpt>
      <trkpt lat="48.39801" lon="7.266">
        <ele>1083</ele>
        <time>2020-09-06T09:55:54.511Z</time>
      </trkpt>
      <trkpt lat="48.398" lon="7.26601">
        <ele>1082</ele>
        <time>2020-09-06T09:55:55.512Z</time>
      </trkpt>
      <trkpt lat="48.39799" lon="7.26602">
        <ele>1082</ele>
        <time>2020-09-06T09:55:56.512Z</time>
      </trkpt>
      <trkpt lat="48.39798" lon="7.26602">
        <ele>1082</ele>
        <time>2020-09-06T09:55:57.512Z</time>
      </trkpt>
      <trkpt lat="48.39797" lon="7.26603">
        <ele>1082</ele>
        <time>2020-09-06T09:55:58.512Z</time>
      </trkpt>
      <trkpt lat="48.39796" lon="7.26603">
        <ele>1082</ele>
        <time>2020-09-06T09:55:59.512Z</time>
      </trkpt>
      <trkpt lat="48.39795" lon="7.26604">
        <ele>1082</ele>
        <time>2020-09-06T09:56:00.512Z</time>
      </trkpt>
      <trkpt lat="48.39794" lon="7.26605">
        <ele>1082</ele>
        <time>2020-09-06T09:56:01.512Z</time>
      </trkpt>
      <trkpt lat="48.39793" lon="7.26605">
        <ele>1082</ele>
        <time>2020-09-06T09:56:02.512Z</time>
      </trkpt>
      <trkpt lat="48.39792" lon="7.26606">
        <ele>1081</ele>
        <time>2020-09-06T09:56:03.512Z</time>
      </trkpt>
      <trkpt lat="48.39791" lon="7.26606">
        <ele>1081</ele>
        <time>2020-09-06T09:56:04.512Z</time>
      </trkpt>
      <trkpt lat="48.39789" lon="7.26607">
        <ele>1081</ele>
        <time>2020-09-06T09:56:05.511Z</time>
      </trkpt>
      <trkpt lat="48.39788" lon="7.26608">
        <ele>1081</ele>
        <time>2020-09-06T09:56:06.512Z</time>
      </trkpt>
      <trkpt lat="48.39787" lon="7.26609">
        <ele>1081</ele>
        <time>2020-09-06T09:56:07.512Z</time>
      </trkpt>
      <trkpt lat="48.39786" lon="7.2661">
        <ele>1081</ele>
        <time>2020-09-06T09:56:08.512Z</time>
      </trkpt>
      <trkpt lat="48.39785" lon="7.26611">
        <ele>1081</ele>
        <time>2020-09-06T09:56:09.512Z</time>
      </trkpt>
      <trkpt lat="48.39784" lon="7.26612">
        <ele>1082</ele>
        <time>2020-09-06T09:56:10.511Z</time>
      </trkpt>
      <trkpt lat="48.39783" lon="7.26613">
        <ele>1082</ele>
        <time>2020-09-06T09:56:11.512Z</time>
      </trkpt>
      <trkpt lat="48.39781" lon="7.26613">
        <ele>1082</ele>
        <time>2020-09-06T09:56:12.512Z</time>
      </trkpt>
      <trkpt lat="48.3978" lon="7.26614">
        <ele>1082</ele>
        <time>2020-09-06T09:56:13.512Z</time>
      </trkpt>
      <trkpt lat="48.39779" lon="7.26615">
        <ele>1082</ele>
        <time>2020-09-06T09:56:14.512Z</time>
      </trkpt>
      <trkpt lat="48.39778" lon="7.26615">
        <ele>1082</ele>
        <time>2020-09-06T09:56:15.512Z</time>
      </trkpt>
      <trkpt lat="48.39776" lon="7.26616">
        <ele>1081</ele>
        <time>2020-09-06T09:56:16.512Z</time>
      </trkpt>
      <trkpt lat="48.39775" lon="7.26617">
        <ele>1081</ele>
        <time>2020-09-06T09:56:17.511Z</time>
      </trkpt>
      <trkpt lat="48.39773" lon="7.26618">
        <ele>1081</ele>
        <time>2020-09-06T09:56:18.512Z</time>
      </trkpt>
      <trkpt lat="48.39772" lon="7.26619">
        <ele>1081</ele>
        <time>2020-09-06T09:56:19.512Z</time>
      </trkpt>
      <trkpt lat="48.39771" lon="7.26619">
        <ele>1081</ele>
        <time>2020-09-06T09:56:20.512Z</time>
      </trkpt>
      <trkpt lat="48.39769" lon="7.2662">
        <ele>1082</ele>
        <time>2020-09-06T09:56:21.512Z</time>
      </trkpt>
      <trkpt lat="48.39768" lon="7.2662">
        <ele>1082</ele>
        <time>2020-09-06T09:56:22.512Z</time>
      </trkpt>
      <trkpt lat="48.39767" lon="7.26621">
        <ele>1082</ele>
        <time>2020-09-06T09:56:23.512Z</time>
      </trkpt>
      <trkpt lat="48.39766" lon="7.26621">
        <ele>1082</ele>
        <time>2020-09-06T09:56:24.511Z</time>
      </trkpt>
      <trkpt lat="48.39764" lon="7.26622">
        <ele>1082</ele>
        <time>2020-09-06T09:56:25.512Z</time>
      </trkpt>
      <trkpt lat="48.39763" lon="7.26623">
        <ele>1081</ele>
        <time>2020-09-06T09:56:26.512Z</time>
      </trkpt>
      <trkpt lat="48.39762" lon="7.26624">
        <ele>1081</ele>
        <time>2020-09-06T09:56:27.512Z</time>
      </trkpt>
      <trkpt lat="48.39761" lon="7.26625">
        <ele>1081</ele>
        <time>2020-09-06T09:56:28.512Z</time>
      </trkpt>
      <trkpt lat="48.3976" lon="7.26625">
        <ele>1081</ele>
        <time>2020-09-06T09:56:29.512Z</time>
      </trkpt>
      <trkpt lat="48.39759" lon="7.26625">
        <ele>1081</ele>
        <time>2020-09-06T09:56:30.512Z</time>
      </trkpt>
      <trkpt lat="48.39759" lon="7.26626">
        <ele>1081</ele>
        <time>2020-09-06T09:56:31.511Z</time>
      </trkpt>
      <trkpt lat="48.39757" lon="7.26626">
        <ele>1081</ele>
        <time>2020-09-06T09:56:32.512Z</time>
      </trkpt>
      <trkpt lat="48.39756" lon="7.26627">
        <ele>1081</ele>
        <time>2020-09-06T09:56:33.512Z</time>
      </trkpt>
      <trkpt lat="48.39755" lon="7.26627">
        <ele>1080</ele>
        <time>2020-09-06T09:56:34.511Z</time>
      </trkpt>
      <trkpt lat="48.39754" lon="7.26628">
        <ele>1080</ele>
        <time>2020-09-06T09:56:35.512Z</time>
      </trkpt>
      <trkpt lat="48.39753" lon="7.26628">
        <ele>1080</ele>
        <time>2020-09-06T09:56:36.512Z</time>
      </trkpt>
      <trkpt lat="48.39751" lon="7.26629">
        <ele>1080</ele>
        <time>2020-09-06T09:56:37.511Z</time>
      </trkpt>
      <trkpt lat="48.3975" lon="7.2663">
        <ele>1080</ele>
        <time>2020-09-06T09:56:38.512Z</time>
      </trkpt>
      <trkpt lat="48.39749" lon="7.2663">
        <ele>1080</ele>
        <time>2020-09-06T09:56:39.512Z</time>
      </trkpt>
      <trkpt lat="48.39748" lon="7.26631">
        <ele>1080</ele>
        <time>2020-09-06T09:56:40.512Z</time>
      </trkpt>
      <trkpt lat="48.39746" lon="7.26631">
        <ele>1081</ele>
        <time>2020-09-06T09:56:41.512Z</time>
      </trkpt>
      <trkpt lat="48.39745" lon="7.26632">
        <ele>1081</ele>
        <time>2020-09-06T09:56:42.512Z</time>
      </trkpt>
      <trkpt lat="48.39744" lon="7.26632">
        <ele>1081</ele>
        <time>2020-09-06T09:56:43.512Z</time>
      </trkpt>
      <trkpt lat="48.39743" lon="7.26633">
        <ele>1081</ele>
        <time>2020-09-06T09:56:44.512Z</time>
      </trkpt>
      <trkpt lat="48.39742" lon="7.26633">
        <ele>1081</ele>
        <time>2020-09-06T09:56:45.512Z</time>
      </trkpt>
      <trkpt lat="48.39741" lon="7.26634">
        <ele>1081</ele>
        <time>2020-09-06T09:56:46.511Z</time>
      </trkpt>
      <trkpt lat="48.39739" lon="7.26634">
        <ele>1081</ele>
        <time>2020-09-06T09:56:47.511Z</time>
      </trkpt>
      <trkpt lat="48.39738" lon="7.26634">
        <ele>1081</ele>
        <time>2020-09-06T09:56:48.511Z</time>
      </trkpt>
      <trkpt lat="48.39737" lon="7.26635">
        <ele>1081</ele>
        <time>2020-09-06T09:56:49.512Z</time>
      </trkpt>
      <trkpt lat="48.39736" lon="7.26635">
        <ele>1081</ele>
        <time>2020-09-06T09:56:50.511Z</time>
      </trkpt>
      <trkpt lat="48.39735" lon="7.26636">
        <ele>1082</ele>
        <time>2020-09-06T09:56:51.512Z</time>
      </trkpt>
      <trkpt lat="48.39734" lon="7.26636">
        <ele>1082</ele>
        <time>2020-09-06T09:56:52.511Z</time>
      </trkpt>
      <trkpt lat="48.39733" lon="7.26637">
        <ele>1082</ele>
        <time>2020-09-06T09:56:53.511Z</time>
      </trkpt>
      <trkpt lat="48.39732" lon="7.26638">
        <ele>1081</ele>
        <time>2020-09-06T09:56:54.512Z</time>
      </trkpt>
      <trkpt lat="48.39731" lon="7.26638">
        <ele>1081</ele>
        <time>2020-09-06T09:56:55.512Z</time>
      </trkpt>
      <trkpt lat="48.39729" lon="7.26639">
        <ele>1082</ele>
        <time>2020-09-06T09:56:56.512Z</time>
      </trkpt>
      <trkpt lat="48.39728" lon="7.26639">
        <ele>1082</ele>
        <time>2020-09-06T09:56:57.512Z</time>
      </trkpt>
      <trkpt lat="48.39727" lon="7.2664">
        <ele>1082</ele>
        <time>2020-09-06T09:56:58.511Z</time>
      </trkpt>
      <trkpt lat="48.39726" lon="7.2664">
        <ele>1082</ele>
        <time>2020-09-06T09:56:59.512Z</time>
      </trkpt>
      <trkpt lat="48.39725" lon="7.26641">
        <ele>1082</ele>
        <time>2020-09-06T09:57:00.512Z</time>
      </trkpt>
      <trkpt lat="48.39723" lon="7.26641">
        <ele>1082</ele>
        <time>2020-09-06T09:57:01.512Z</time>
      </trkpt>
      <trkpt lat="48.39722" lon="7.26642">
        <ele>1081</ele>
        <time>2020-09-06T09:57:02.512Z</time>
      </trkpt>
      <trkpt lat="48.3972" lon="7.26643">
        <ele>1081</ele>
        <time>2020-09-06T09:57:03.512Z</time>
      </trkpt>
      <trkpt lat="48.39719" lon="7.26643">
        <ele>1081</ele>
        <time>2020-09-06T09:57:04.512Z</time>
      </trkpt>
      <trkpt lat="48.39718" lon="7.26644">
        <ele>1080</ele>
        <time>2020-09-06T09:57:05.512Z</time>
      </trkpt>
      <trkpt lat="48.39717" lon="7.26644">
        <ele>1080</ele>
        <time>2020-09-06T09:57:06.512Z</time>
      </trkpt>
      <trkpt lat="48.39716" lon="7.26645">
        <ele>1080</ele>
        <time>2020-09-06T09:57:07.512Z</time>
      </trkpt>
      <trkpt lat="48.39715" lon="7.26645">
        <ele>1080</ele>
        <time>2020-09-06T09:57:08.512Z</time>
      </trkpt>
      <trkpt lat="48.39713" lon="7.26646">
        <ele>1080</ele>
        <time>2020-09-06T09:57:09.512Z</time>
      </trkpt>
      <trkpt lat="48.39712" lon="7.26646">
        <ele>1080</ele>
        <time>2020-09-06T09:57:10.512Z</time>
      </trkpt>
      <trkpt lat="48.39711" lon="7.26646">
        <ele>1080</ele>
        <time>2020-09-06T09:57:11.511Z</time>
      </trkpt>
      <trkpt lat="48.3971" lon="7.26647">
        <ele>1080</ele>
        <time>2020-09-06T09:57:12.512Z</time>
      </trkpt>
      <trkpt lat="48.39708" lon="7.26647">
        <ele>1080</ele>
        <time>2020-09-06T09:57:13.512Z</time>
      </trkpt>
      <trkpt lat="48.39707" lon="7.26648">
        <ele>1080</ele>
        <time>2020-09-06T09:57:14.512Z</time>
      </trkpt>
      <trkpt lat="48.39706" lon="7.26648">
        <ele>1080</ele>
        <time>2020-09-06T09:57:15.512Z</time>
      </trkpt>
      <trkpt lat="48.39704" lon="7.26648">
        <ele>1080</ele>
        <time>2020-09-06T09:57:16.512Z</time>
      </trkpt>
      <trkpt lat="48.39703" lon="7.26649">
        <ele>1080</ele>
        <time>2020-09-06T09:57:17.512Z</time>
      </trkpt>
      <trkpt lat="48.39701" lon="7.26649">
        <ele>1080</ele>
        <time>2020-09-06T09:57:18.512Z</time>
      </trkpt>
      <trkpt lat="48.397" lon="7.26649">
        <ele>1080</ele>
        <time>2020-09-06T09:57:19.512Z</time>
      </trkpt>
      <trkpt lat="48.39699" lon="7.2665">
        <ele>1080</ele>
        <time>2020-09-06T09:57:20.512Z</time>
      </trkpt>
      <trkpt lat="48.39697" lon="7.2665">
        <ele>1081</ele>
        <time>2020-09-06T09:57:21.512Z</time>
      </trkpt>
      <trkpt lat="48.39696" lon="7.2665">
        <ele>1081</ele>
        <time>2020-09-06T09:57:22.511Z</time>
      </trkpt>
      <trkpt lat="48.39695" lon="7.26651">
        <ele>1082</ele>
        <time>2020-09-06T09:57:23.512Z</time>
      </trkpt>
      <trkpt lat="48.39694" lon="7.26651">
        <ele>1082</ele>
        <time>2020-09-06T09:57:24.512Z</time>
      </trkpt>
      <trkpt lat="48.39692" lon="7.26652">
        <ele>1082</ele>
        <time>2020-09-06T09:57:25.512Z</time>
      </trkpt>
      <trkpt lat="48.39691" lon="7.26653">
        <ele>1082</ele>
        <time>2020-09-06T09:57:26.512Z</time>
      </trkpt>
      <trkpt lat="48.3969" lon="7.26654">
        <ele>1082</ele>
        <time>2020-09-06T09:57:27.511Z</time>
      </trkpt>
      <trkpt lat="48.39689" lon="7.26655">
        <ele>1082</ele>
        <time>2020-09-06T09:57:28.511Z</time>
      </trkpt>
      <trkpt lat="48.39688" lon="7.26655">
        <ele>1082</ele>
        <time>2020-09-06T09:57:29.512Z</time>
      </trkpt>
      <trkpt lat="48.39686" lon="7.26656">
        <ele>1083</ele>
        <time>2020-09-06T09:57:30.512Z</time>
      </trkpt>
      <trkpt lat="48.39685" lon="7.26657">
        <ele>1083</ele>
        <time>2020-09-06T09:57:31.512Z</time>
      </trkpt>
      <trkpt lat="48.39684" lon="7.26658">
        <ele>1083</ele>
        <time>2020-09-06T09:57:32.512Z</time>
      </trkpt>
      <trkpt lat="48.39683" lon="7.26659">
        <ele>1084</ele>
        <time>2020-09-06T09:57:33.512Z</time>
      </trkpt>
      <trkpt lat="48.39682" lon="7.26659">
        <ele>1084</ele>
        <time>2020-09-06T09:57:34.512Z</time>
      </trkpt>
      <trkpt lat="48.39681" lon="7.2666">
        <ele>1084</ele>
        <time>2020-09-06T09:57:35.512Z</time>
      </trkpt>
      <trkpt lat="48.3968" lon="7.26661">
        <ele>1084</ele>
        <time>2020-09-06T09:57:36.512Z</time>
      </trkpt>
      <trkpt lat="48.39679" lon="7.26662">
        <ele>1084</ele>
        <time>2020-09-06T09:57:37.512Z</time>
      </trkpt>
      <trkpt lat="48.39678" lon="7.26663">
        <ele>1084</ele>
        <time>2020-09-06T09:57:38.512Z</time>
      </trkpt>
      <trkpt lat="48.39676" lon="7.26664">
        <ele>1085</ele>
        <time>2020-09-06T09:57:39.512Z</time>
      </trkpt>
      <trkpt lat="48.39675" lon="7.26665">
        <ele>1085</ele>
        <time>2020-09-06T09:57:40.512Z</time>
      </trkpt>
      <trkpt lat="48.39674" lon="7.26666">
        <ele>1085</ele>
        <time>2020-09-06T09:57:41.511Z</time>
      </trkpt>
      <trkpt lat="48.39673" lon="7.26667">
        <ele>1086</ele>
        <time>2020-09-06T09:57:42.512Z</time>
      </trkpt>
      <trkpt lat="48.39672" lon="7.26668">
        <ele>1086</ele>
        <time>2020-09-06T09:57:43.512Z</time>
      </trkpt>
      <trkpt lat="48.39671" lon="7.26669">
        <ele>1086</ele>
        <time>2020-09-06T09:57:44.512Z</time>
      </trkpt>
      <trkpt lat="48.3967" lon="7.2667">
        <ele>1086</ele>
        <time>2020-09-06T09:57:45.512Z</time>
      </trkpt>
      <trkpt lat="48.39669" lon="7.26671">
        <ele>1086</ele>
        <time>2020-09-06T09:57:46.512Z</time>
      </trkpt>
      <trkpt lat="48.39668" lon="7.26672">
        <ele>1086</ele>
        <time>2020-09-06T09:57:47.512Z</time>
      </trkpt>
      <trkpt lat="48.39667" lon="7.26673">
        <ele>1086</ele>
        <time>2020-09-06T09:57:48.512Z</time>
      </trkpt>
      <trkpt lat="48.39666" lon="7.26674">
        <ele>1085</ele>
        <time>2020-09-06T09:57:49.512Z</time>
      </trkpt>
      <trkpt lat="48.39664" lon="7.26675">
        <ele>1085</ele>
        <time>2020-09-06T09:57:50.512Z</time>
      </trkpt>
      <trkpt lat="48.39663" lon="7.26675">
        <ele>1085</ele>
        <time>2020-09-06T09:57:51.512Z</time>
      </trkpt>
      <trkpt lat="48.39662" lon="7.26676">
        <ele>1085</ele>
        <time>2020-09-06T09:57:52.511Z</time>
      </trkpt>
      <trkpt lat="48.39661" lon="7.26677">
        <ele>1085</ele>
        <time>2020-09-06T09:57:53.512Z</time>
      </trkpt>
      <trkpt lat="48.3966" lon="7.26677">
        <ele>1085</ele>
        <time>2020-09-06T09:57:54.512Z</time>
      </trkpt>
      <trkpt lat="48.39659" lon="7.26678">
        <ele>1085</ele>
        <time>2020-09-06T09:57:55.512Z</time>
      </trkpt>
      <trkpt lat="48.39658" lon="7.26679">
        <ele>1084</ele>
        <time>2020-09-06T09:57:56.512Z</time>
      </trkpt>
      <trkpt lat="48.39657" lon="7.26681">
        <ele>1084</ele>
        <time>2020-09-06T09:57:57.511Z</time>
      </trkpt>
      <trkpt lat="48.39656" lon="7.26682">
        <ele>1085</ele>
        <time>2020-09-06T09:57:58.512Z</time>
      </trkpt>
      <trkpt lat="48.39655" lon="7.26683">
        <ele>1085</ele>
        <time>2020-09-06T09:57:59.512Z</time>
      </trkpt>
      <trkpt lat="48.39654" lon="7.26684">
        <ele>1085</ele>
        <time>2020-09-06T09:58:00.512Z</time>
      </trkpt>
      <trkpt lat="48.39652" lon="7.26685">
        <ele>1085</ele>
        <time>2020-09-06T09:58:01.512Z</time>
      </trkpt>
      <trkpt lat="48.39651" lon="7.26686">
        <ele>1085</ele>
        <time>2020-09-06T09:58:02.512Z</time>
      </trkpt>
      <trkpt lat="48.3965" lon="7.26688">
        <ele>1086</ele>
        <time>2020-09-06T09:58:03.512Z</time>
      </trkpt>
      <trkpt lat="48.39649" lon="7.26688">
        <ele>1086</ele>
        <time>2020-09-06T09:58:04.512Z</time>
      </trkpt>
      <trkpt lat="48.39649" lon="7.26689">
        <ele>1086</ele>
        <time>2020-09-06T09:58:05.512Z</time>
      </trkpt>
      <trkpt lat="48.39648" lon="7.26689">
        <ele>1086</ele>
        <time>2020-09-06T09:58:06.512Z</time>
      </trkpt>
      <trkpt lat="48.39647" lon="7.26691">
        <ele>1085</ele>
        <time>2020-09-06T09:58:07.511Z</time>
      </trkpt>
      <trkpt lat="48.39646" lon="7.26692">
        <ele>1085</ele>
        <time>2020-09-06T09:58:08.512Z</time>
      </trkpt>
      <trkpt lat="48.39644" lon="7.26693">
        <ele>1086</ele>
        <time>2020-09-06T09:58:09.512Z</time>
      </trkpt>
      <trkpt lat="48.39643" lon="7.26694">
        <ele>1086</ele>
        <time>2020-09-06T09:58:10.512Z</time>
      </trkpt>
      <trkpt lat="48.39642" lon="7.26696">
        <ele>1087</ele>
        <time>2020-09-06T09:58:11.512Z</time>
      </trkpt>
      <trkpt lat="48.39641" lon="7.26697">
        <ele>1087</ele>
        <time>2020-09-06T09:58:12.512Z</time>
      </trkpt>
      <trkpt lat="48.3964" lon="7.26698">
        <ele>1088</ele>
        <time>2020-09-06T09:58:13.511Z</time>
      </trkpt>
      <trkpt lat="48.39639" lon="7.26699">
        <ele>1088</ele>
        <time>2020-09-06T09:58:14.511Z</time>
      </trkpt>
      <trkpt lat="48.39638" lon="7.267">
        <ele>1088</ele>
        <time>2020-09-06T09:58:15.512Z</time>
      </trkpt>
      <trkpt lat="48.39636" lon="7.26702">
        <ele>1089</ele>
        <time>2020-09-06T09:58:16.512Z</time>
      </trkpt>
      <trkpt lat="48.39635" lon="7.26703">
        <ele>1089</ele>
        <time>2020-09-06T09:58:17.512Z</time>
      </trkpt>
      <trkpt lat="48.39634" lon="7.26704">
        <ele>1088</ele>
        <time>2020-09-06T09:58:18.512Z</time>
      </trkpt>
      <trkpt lat="48.39633" lon="7.26705">
        <ele>1088</ele>
        <time>2020-09-06T09:58:19.511Z</time>
      </trkpt>
      <trkpt lat="48.39632" lon="7.26706">
        <ele>1088</ele>
        <time>2020-09-06T09:58:20.512Z</time>
      </trkpt>
      <trkpt lat="48.39631" lon="7.26706">
        <ele>1088</ele>
        <time>2020-09-06T09:58:21.512Z</time>
      </trkpt>
      <trkpt lat="48.3963" lon="7.26707">
        <ele>1088</ele>
        <time>2020-09-06T09:58:22.512Z</time>
      </trkpt>
      <trkpt lat="48.39629" lon="7.26709">
        <ele>1088</ele>
        <time>2020-09-06T09:58:23.512Z</time>
      </trkpt>
      <trkpt lat="48.39628" lon="7.2671">
        <ele>1088</ele>
        <time>2020-09-06T09:58:24.512Z</time>
      </trkpt>
      <trkpt lat="48.39627" lon="7.2671">
        <ele>1088</ele>
        <time>2020-09-06T09:58:25.512Z</time>
      </trkpt>
      <trkpt lat="48.39626" lon="7.26711">
        <ele>1087</ele>
        <time>2020-09-06T09:58:26.512Z</time>
      </trkpt>
      <trkpt lat="48.39625" lon="7.26712">
        <ele>1087</ele>
        <time>2020-09-06T09:58:27.512Z</time>
      </trkpt>
      <trkpt lat="48.39624" lon="7.26713">
        <ele>1087</ele>
        <time>2020-09-06T09:58:28.512Z</time>
      </trkpt>
      <trkpt lat="48.39623" lon="7.26714">
        <ele>1087</ele>
        <time>2020-09-06T09:58:29.512Z</time>
      </trkpt>
      <trkpt lat="48.39622" lon="7.26715">
        <ele>1087</ele>
        <time>2020-09-06T09:58:30.511Z</time>
      </trkpt>
      <trkpt lat="48.39621" lon="7.26715">
        <ele>1087</ele>
        <time>2020-09-06T09:58:31.512Z</time>
      </trkpt>
      <trkpt lat="48.3962" lon="7.26716">
        <ele>1087</ele>
        <time>2020-09-06T09:58:32.512Z</time>
      </trkpt>
      <trkpt lat="48.39619" lon="7.26716">
        <ele>1088</ele>
        <time>2020-09-06T09:58:33.512Z</time>
      </trkpt>
      <trkpt lat="48.39618" lon="7.26717">
        <ele>1088</ele>
        <time>2020-09-06T09:58:34.512Z</time>
      </trkpt>
      <trkpt lat="48.39617" lon="7.26718">
        <ele>1088</ele>
        <time>2020-09-06T09:58:35.512Z</time>
      </trkpt>
      <trkpt lat="48.39616" lon="7.26719">
        <ele>1088</ele>
        <time>2020-09-06T09:58:38.527Z</time>
      </trkpt>
      <trkpt lat="48.39615" lon="7.2672">
        <ele>1088</ele>
        <time>2020-09-06T09:58:39.527Z</time>
      </trkpt>
      <trkpt lat="48.39614" lon="7.26721">
        <ele>1088</ele>
        <time>2020-09-06T09:58:40.526Z</time>
      </trkpt>
      <trkpt lat="48.39613" lon="7.26722">
        <ele>1088</ele>
        <time>2020-09-06T09:58:41.527Z</time>
      </trkpt>
      <trkpt lat="48.39611" lon="7.26723">
        <ele>1088</ele>
        <time>2020-09-06T09:58:42.527Z</time>
      </trkpt>
      <trkpt lat="48.3961" lon="7.26724">
        <ele>1088</ele>
        <time>2020-09-06T09:58:43.527Z</time>
      </trkpt>
      <trkpt lat="48.39609" lon="7.26725">
        <ele>1089</ele>
        <time>2020-09-06T09:58:44.527Z</time>
      </trkpt>
      <trkpt lat="48.39608" lon="7.26726">
        <ele>1089</ele>
        <time>2020-09-06T09:58:48.636Z</time>
      </trkpt>
      <trkpt lat="48.39607" lon="7.26727">
        <ele>1089</ele>
        <time>2020-09-06T09:58:49.635Z</time>
      </trkpt>
      <trkpt lat="48.39606" lon="7.26728">
        <ele>1090</ele>
        <time>2020-09-06T09:58:50.636Z</time>
      </trkpt>
      <trkpt lat="48.39604" lon="7.26729">
        <ele>1090</ele>
        <time>2020-09-06T09:59:17.677Z</time>
      </trkpt>
      <trkpt lat="48.39603" lon="7.2673">
        <ele>1091</ele>
        <time>2020-09-06T09:59:20.517Z</time>
      </trkpt>
      <trkpt lat="48.39602" lon="7.26731">
        <ele>1091</ele>
        <time>2020-09-06T09:59:21.517Z</time>
      </trkpt>
      <trkpt lat="48.39601" lon="7.26732">
        <ele>1091</ele>
        <time>2020-09-06T09:59:22.517Z</time>
      </trkpt>
      <trkpt lat="48.396" lon="7.26733">
        <ele>1091</ele>
        <time>2020-09-06T09:59:23.517Z</time>
      </trkpt>
      <trkpt lat="48.39599" lon="7.26733">
        <ele>1091</ele>
        <time>2020-09-06T10:00:32.656Z</time>
      </trkpt>
      <trkpt lat="48.39598" lon="7.26734">
        <ele>1091</ele>
        <time>2020-09-06T10:01:08.534Z</time>
      </trkpt>
      <trkpt lat="48.39597" lon="7.26735">
        <ele>1090</ele>
        <time>2020-09-06T10:01:12.442Z</time>
      </trkpt>
      <trkpt lat="48.39596" lon="7.26736">
        <ele>1090</ele>
        <time>2020-09-06T10:01:13.442Z</time>
      </trkpt>
      <trkpt lat="48.39595" lon="7.26736">
        <ele>1090</ele>
        <time>2020-09-06T10:01:14.442Z</time>
      </trkpt>
      <trkpt lat="48.39594" lon="7.26737">
        <ele>1090</ele>
        <time>2020-09-06T10:01:15.442Z</time>
      </trkpt>
      <trkpt lat="48.39592" lon="7.26738">
        <ele>1089</ele>
        <time>2020-09-06T10:01:16.441Z</time>
      </trkpt>
      <trkpt lat="48.39591" lon="7.26739">
        <ele>1089</ele>
        <time>2020-09-06T10:01:17.442Z</time>
      </trkpt>
      <trkpt lat="48.3959" lon="7.2674">
        <ele>1089</ele>
        <time>2020-09-06T10:01:18.442Z</time>
      </trkpt>
      <trkpt lat="48.39589" lon="7.26741">
        <ele>1090</ele>
        <time>2020-09-06T10:01:19.442Z</time>
      </trkpt>
      <trkpt lat="48.39588" lon="7.26742">
        <ele>1089</ele>
        <time>2020-09-06T10:01:20.442Z</time>
      </trkpt>
      <trkpt lat="48.39587" lon="7.26743">
        <ele>1090</ele>
        <time>2020-09-06T10:01:21.442Z</time>
      </trkpt>
      <trkpt lat="48.39586" lon="7.26744">
        <ele>1090</ele>
        <time>2020-09-06T10:01:22.441Z</time>
      </trkpt>
      <trkpt lat="48.39585" lon="7.26745">
        <ele>1090</ele>
        <time>2020-09-06T10:01:23.442Z</time>
      </trkpt>
      <trkpt lat="48.39584" lon="7.26745">
        <ele>1089</ele>
        <time>2020-09-06T10:01:24.442Z</time>
      </trkpt>
      <trkpt lat="48.39583" lon="7.26746">
        <ele>1089</ele>
        <time>2020-09-06T10:01:25.442Z</time>
      </trkpt>
      <trkpt lat="48.39582" lon="7.26747">
        <ele>1089</ele>
        <time>2020-09-06T10:01:26.442Z</time>
      </trkpt>
      <trkpt lat="48.39581" lon="7.26748">
        <ele>1089</ele>
        <time>2020-09-06T10:01:27.442Z</time>
      </trkpt>
      <trkpt lat="48.3958" lon="7.26749">
        <ele>1089</ele>
        <time>2020-09-06T10:01:28.442Z</time>
      </trkpt>
      <trkpt lat="48.39579" lon="7.2675">
        <ele>1090</ele>
        <time>2020-09-06T10:01:29.442Z</time>
      </trkpt>
      <trkpt lat="48.39578" lon="7.26751">
        <ele>1089</ele>
        <time>2020-09-06T10:01:30.442Z</time>
      </trkpt>
      <trkpt lat="48.39577" lon="7.26752">
        <ele>1089</ele>
        <time>2020-09-06T10:01:31.442Z</time>
      </trkpt>
      <trkpt lat="48.39576" lon="7.26752">
        <ele>1089</ele>
        <time>2020-09-06T10:01:32.442Z</time>
      </trkpt>
      <trkpt lat="48.39575" lon="7.26753">
        <ele>1089</ele>
        <time>2020-09-06T10:01:33.442Z</time>
      </trkpt>
      <trkpt lat="48.39574" lon="7.26754">
        <ele>1089</ele>
        <time>2020-09-06T10:01:34.442Z</time>
      </trkpt>
      <trkpt lat="48.39573" lon="7.26755">
        <ele>1089</ele>
        <time>2020-09-06T10:01:35.442Z</time>
      </trkpt>
      <trkpt lat="48.39572" lon="7.26756">
        <ele>1089</ele>
        <time>2020-09-06T10:01:36.442Z</time>
      </trkpt>
      <trkpt lat="48.39571" lon="7.26757">
        <ele>1089</ele>
        <time>2020-09-06T10:01:37.442Z</time>
      </trkpt>
      <trkpt lat="48.3957" lon="7.26758">
        <ele>1089</ele>
        <time>2020-09-06T10:01:38.442Z</time>
      </trkpt>
      <trkpt lat="48.39569" lon="7.26758">
        <ele>1088</ele>
        <time>2020-09-06T10:01:39.441Z</time>
      </trkpt>
      <trkpt lat="48.39568" lon="7.26759">
        <ele>1088</ele>
        <time>2020-09-06T10:01:40.442Z</time>
      </trkpt>
      <trkpt lat="48.39567" lon="7.26759">
        <ele>1088</ele>
        <time>2020-09-06T10:01:41.442Z</time>
      </trkpt>
      <trkpt lat="48.39566" lon="7.2676">
        <ele>1088</ele>
        <time>2020-09-06T10:01:42.442Z</time>
      </trkpt>
      <trkpt lat="48.39565" lon="7.26761">
        <ele>1088</ele>
        <time>2020-09-06T10:01:43.442Z</time>
      </trkpt>
      <trkpt lat="48.39564" lon="7.26762">
        <ele>1088</ele>
        <time>2020-09-06T10:01:44.442Z</time>
      </trkpt>
      <trkpt lat="48.39563" lon="7.26762">
        <ele>1089</ele>
        <time>2020-09-06T10:01:50.525Z</time>
      </trkpt>
      <trkpt lat="48.39562" lon="7.26763">
        <ele>1089</ele>
        <time>2020-09-06T10:01:51.525Z</time>
      </trkpt>
      <trkpt lat="48.3956" lon="7.26764">
        <ele>1089</ele>
        <time>2020-09-06T10:03:14.382Z</time>
      </trkpt>
      <trkpt lat="48.39559" lon="7.26764">
        <ele>1089</ele>
        <time>2020-09-06T10:03:15.382Z</time>
      </trkpt>
      <trkpt lat="48.39558" lon="7.26765">
        <ele>1089</ele>
        <time>2020-09-06T10:03:16.382Z</time>
      </trkpt>
      <trkpt lat="48.39557" lon="7.26764">
        <ele>1089</ele>
        <time>2020-09-06T10:03:17.382Z</time>
      </trkpt>
      <trkpt lat="48.39556" lon="7.26764">
        <ele>1089</ele>
        <time>2020-09-06T10:03:18.381Z</time>
      </trkpt>
      <trkpt lat="48.39555" lon="7.26763">
        <ele>1089</ele>
        <time>2020-09-06T10:03:19.382Z</time>
      </trkpt>
      <trkpt lat="48.39554" lon="7.26763">
        <ele>1089</ele>
        <time>2020-09-06T10:03:20.382Z</time>
      </trkpt>
      <trkpt lat="48.39553" lon="7.26763">
        <ele>1089</ele>
        <time>2020-09-06T10:03:21.382Z</time>
      </trkpt>
      <trkpt lat="48.39552" lon="7.26762">
        <ele>1089</ele>
        <time>2020-09-06T10:03:22.382Z</time>
      </trkpt>
      <trkpt lat="48.39551" lon="7.26761">
        <ele>1088</ele>
        <time>2020-09-06T10:03:23.382Z</time>
      </trkpt>
      <trkpt lat="48.3955" lon="7.26761">
        <ele>1088</ele>
        <time>2020-09-06T10:03:24.382Z</time>
      </trkpt>
      <trkpt lat="48.39549" lon="7.26761">
        <ele>1087</ele>
        <time>2020-09-06T10:03:25.382Z</time>
      </trkpt>
      <trkpt lat="48.39548" lon="7.26761">
        <ele>1086</ele>
        <time>2020-09-06T10:03:26.381Z</time>
      </trkpt>
      <trkpt lat="48.39547" lon="7.26761">
        <ele>1086</ele>
        <time>2020-09-06T10:03:27.382Z</time>
      </trkpt>
      <trkpt lat="48.39546" lon="7.2676">
        <ele>1086</ele>
        <time>2020-09-06T10:03:28.381Z</time>
      </trkpt>
      <trkpt lat="48.39545" lon="7.2676">
        <ele>1086</ele>
        <time>2020-09-06T10:03:29.381Z</time>
      </trkpt>
      <trkpt lat="48.39543" lon="7.2676">
        <ele>1085</ele>
        <time>2020-09-06T10:03:30.382Z</time>
      </trkpt>
      <trkpt lat="48.39542" lon="7.2676">
        <ele>1085</ele>
        <time>2020-09-06T10:03:31.382Z</time>
      </trkpt>
      <trkpt lat="48.3954" lon="7.2676">
        <ele>1085</ele>
        <time>2020-09-06T10:03:32.381Z</time>
      </trkpt>
      <trkpt lat="48.39539" lon="7.2676">
        <ele>1085</ele>
        <time>2020-09-06T10:03:33.381Z</time>
      </trkpt>
      <trkpt lat="48.39538" lon="7.2676">
        <ele>1086</ele>
        <time>2020-09-06T10:03:34.382Z</time>
      </trkpt>
      <trkpt lat="48.39536" lon="7.2676">
        <ele>1086</ele>
        <time>2020-09-06T10:03:35.382Z</time>
      </trkpt>
      <trkpt lat="48.39535" lon="7.26759">
        <ele>1086</ele>
        <time>2020-09-06T10:03:36.382Z</time>
      </trkpt>
      <trkpt lat="48.39534" lon="7.2676">
        <ele>1085</ele>
        <time>2020-09-06T10:03:37.382Z</time>
      </trkpt>
      <trkpt lat="48.39532" lon="7.2676">
        <ele>1085</ele>
        <time>2020-09-06T10:03:38.382Z</time>
      </trkpt>
      <trkpt lat="48.39531" lon="7.2676">
        <ele>1085</ele>
        <time>2020-09-06T10:03:39.382Z</time>
      </trkpt>
      <trkpt lat="48.3953" lon="7.2676">
        <ele>1085</ele>
        <time>2020-09-06T10:03:40.382Z</time>
      </trkpt>
      <trkpt lat="48.39529" lon="7.26761">
        <ele>1085</ele>
        <time>2020-09-06T10:03:41.382Z</time>
      </trkpt>
      <trkpt lat="48.39528" lon="7.26761">
        <ele>1085</ele>
        <time>2020-09-06T10:03:42.382Z</time>
      </trkpt>
      <trkpt lat="48.39527" lon="7.2676">
        <ele>1085</ele>
        <time>2020-09-06T10:03:47.392Z</time>
      </trkpt>
      <trkpt lat="48.39527" lon="7.2676">
        <ele>1086</ele>
        <time>2020-09-06T10:03:48.392Z</time>
      </trkpt>
      <trkpt lat="48.39526" lon="7.26759">
        <ele>1086</ele>
        <time>2020-09-06T10:03:49.392Z</time>
      </trkpt>
      <trkpt lat="48.39525" lon="7.26758">
        <ele>1086</ele>
        <time>2020-09-06T10:03:50.392Z</time>
      </trkpt>
      <trkpt lat="48.39524" lon="7.26758">
        <ele>1087</ele>
        <time>2020-09-06T10:03:51.392Z</time>
      </trkpt>
      <trkpt lat="48.39522" lon="7.26758">
        <ele>1087</ele>
        <time>2020-09-06T10:03:52.392Z</time>
      </trkpt>
      <trkpt lat="48.39521" lon="7.26757">
        <ele>1088</ele>
        <time>2020-09-06T10:03:53.392Z</time>
      </trkpt>
      <trkpt lat="48.3952" lon="7.26757">
        <ele>1088</ele>
        <time>2020-09-06T10:03:54.392Z</time>
      </trkpt>
      <trkpt lat="48.39519" lon="7.26757">
        <ele>1088</ele>
        <time>2020-09-06T10:03:55.391Z</time>
      </trkpt>
      <trkpt lat="48.39518" lon="7.26757">
        <ele>1088</ele>
        <time>2020-09-06T10:03:56.392Z</time>
      </trkpt>
      <trkpt lat="48.39517" lon="7.26756">
        <ele>1088</ele>
        <time>2020-09-06T10:03:57.392Z</time>
      </trkpt>
      <trkpt lat="48.39517" lon="7.26756">
        <ele>1088</ele>
        <time>2020-09-06T10:03:59.387Z</time>
      </trkpt>
      <trkpt lat="48.39517" lon="7.26756">
        <ele>1088</ele>
        <time>2020-09-06T10:04:00.387Z</time>
      </trkpt>
      <trkpt lat="48.39517" lon="7.26756">
        <ele>1088</ele>
        <time>2020-09-06T10:04:01.388Z</time>
      </trkpt>
      <trkpt lat="48.39516" lon="7.26756">
        <ele>1088</ele>
        <time>2020-09-06T10:04:02.388Z</time>
      </trkpt>
      <trkpt lat="48.39515" lon="7.26754">
        <ele>1088</ele>
        <time>2020-09-06T10:04:03.387Z</time>
      </trkpt>
      <trkpt lat="48.39514" lon="7.26754">
        <ele>1088</ele>
        <time>2020-09-06T10:04:04.388Z</time>
      </trkpt>
      <trkpt lat="48.39512" lon="7.26752">
        <ele>1088</ele>
        <time>2020-09-06T10:04:05.388Z</time>
      </trkpt>
      <trkpt lat="48.39511" lon="7.26752">
        <ele>1088</ele>
        <time>2020-09-06T10:04:06.388Z</time>
      </trkpt>
      <trkpt lat="48.3951" lon="7.2675">
        <ele>1089</ele>
        <time>2020-09-06T10:04:07.387Z</time>
      </trkpt>
      <trkpt lat="48.3951" lon="7.26749">
        <ele>1089</ele>
        <time>2020-09-06T10:04:08.388Z</time>
      </trkpt>
      <trkpt lat="48.3951" lon="7.26747">
        <ele>1089</ele>
        <time>2020-09-06T10:04:09.387Z</time>
      </trkpt>
      <trkpt lat="48.3951" lon="7.26745">
        <ele>1089</ele>
        <time>2020-09-06T10:04:12.551Z</time>
      </trkpt>
      <trkpt lat="48.39509" lon="7.26743">
        <ele>1088</ele>
        <time>2020-09-06T10:04:13.551Z</time>
      </trkpt>
      <trkpt lat="48.39509" lon="7.26742">
        <ele>1088</ele>
        <time>2020-09-06T10:04:14.551Z</time>
      </trkpt>
      <trkpt lat="48.39509" lon="7.26741">
        <ele>1088</ele>
        <time>2020-09-06T10:04:15.551Z</time>
      </trkpt>
      <trkpt lat="48.39508" lon="7.2674">
        <ele>1088</ele>
        <time>2020-09-06T10:04:16.551Z</time>
      </trkpt>
      <trkpt lat="48.39508" lon="7.26739">
        <ele>1089</ele>
        <time>2020-09-06T10:04:17.551Z</time>
      </trkpt>
      <trkpt lat="48.39506" lon="7.26738">
        <ele>1089</ele>
        <time>2020-09-06T10:04:18.551Z</time>
      </trkpt>
      <trkpt lat="48.39506" lon="7.26737">
        <ele>1089</ele>
        <time>2020-09-06T10:04:19.551Z</time>
      </trkpt>
      <trkpt lat="48.39504" lon="7.26737">
        <ele>1089</ele>
        <time>2020-09-06T10:04:20.550Z</time>
      </trkpt>
      <trkpt lat="48.39503" lon="7.26737">
        <ele>1089</ele>
        <time>2020-09-06T10:04:21.551Z</time>
      </trkpt>
      <trkpt lat="48.39502" lon="7.26736">
        <ele>1089</ele>
        <time>2020-09-06T10:04:22.551Z</time>
      </trkpt>
      <trkpt lat="48.39501" lon="7.26737">
        <ele>1089</ele>
        <time>2020-09-06T10:04:23.550Z</time>
      </trkpt>
      <trkpt lat="48.39499" lon="7.26737">
        <ele>1090</ele>
        <time>2020-09-06T10:04:24.551Z</time>
      </trkpt>
      <trkpt lat="48.39498" lon="7.26738">
        <ele>1090</ele>
        <time>2020-09-06T10:04:25.551Z</time>
      </trkpt>
      <trkpt lat="48.39497" lon="7.26737">
        <ele>1090</ele>
        <time>2020-09-06T10:04:26.551Z</time>
      </trkpt>
      <trkpt lat="48.39496" lon="7.26737">
        <ele>1090</ele>
        <time>2020-09-06T10:04:27.551Z</time>
      </trkpt>
      <trkpt lat="48.39495" lon="7.26738">
        <ele>1091</ele>
        <time>2020-09-06T10:04:28.551Z</time>
      </trkpt>
      <trkpt lat="48.39493" lon="7.26739">
        <ele>1091</ele>
        <time>2020-09-06T10:04:29.550Z</time>
      </trkpt>
      <trkpt lat="48.39492" lon="7.26739">
        <ele>1091</ele>
        <time>2020-09-06T10:04:30.550Z</time>
      </trkpt>
      <trkpt lat="48.3949" lon="7.2674">
        <ele>1092</ele>
        <time>2020-09-06T10:04:31.551Z</time>
      </trkpt>
      <trkpt lat="48.39489" lon="7.26741">
        <ele>1092</ele>
        <time>2020-09-06T10:04:32.551Z</time>
      </trkpt>
      <trkpt lat="48.39488" lon="7.26742">
        <ele>1093</ele>
        <time>2020-09-06T10:04:33.551Z</time>
      </trkpt>
      <trkpt lat="48.39487" lon="7.26742">
        <ele>1094</ele>
        <time>2020-09-06T10:04:34.550Z</time>
      </trkpt>
      <trkpt lat="48.39486" lon="7.26742">
        <ele>1094</ele>
        <time>2020-09-06T10:04:35.551Z</time>
      </trkpt>
      <trkpt lat="48.39485" lon="7.26742">
        <ele>1095</ele>
        <time>2020-09-06T10:04:36.551Z</time>
      </trkpt>
      <trkpt lat="48.39484" lon="7.26742">
        <ele>1095</ele>
        <time>2020-09-06T10:04:37.551Z</time>
      </trkpt>
      <trkpt lat="48.39483" lon="7.26743">
        <ele>1095</ele>
        <time>2020-09-06T10:04:38.551Z</time>
      </trkpt>
      <trkpt lat="48.39483" lon="7.26743">
        <ele>1095</ele>
        <time>2020-09-06T10:04:41.637Z</time>
      </trkpt>
      <trkpt lat="48.39483" lon="7.26743">
        <ele>1095</ele>
        <time>2020-09-06T10:04:42.637Z</time>
      </trkpt>
      <trkpt lat="48.39481" lon="7.26745">
        <ele>1098</ele>
        <time>2020-09-06T10:04:43.638Z</time>
      </trkpt>
      <trkpt lat="48.39481" lon="7.26745">
        <ele>1097</ele>
        <time>2020-09-06T10:04:44.638Z</time>
      </trkpt>
      <trkpt lat="48.39481" lon="7.26745">
        <ele>1097</ele>
        <time>2020-09-06T10:04:45.637Z</time>
      </trkpt>
      <trkpt lat="48.39481" lon="7.26745">
        <ele>1096</ele>
        <time>2020-09-06T10:04:46.638Z</time>
      </trkpt>
      <trkpt lat="48.39481" lon="7.26745">
        <ele>1096</ele>
        <time>2020-09-06T10:04:47.637Z</time>
      </trkpt>
      <trkpt lat="48.39481" lon="7.26745">
        <ele>1096</ele>
        <time>2020-09-06T10:04:48.638Z</time>
      </trkpt>
      <trkpt lat="48.39481" lon="7.26745">
        <ele>1095</ele>
        <time>2020-09-06T10:04:52.652Z</time>
      </trkpt>
      <trkpt lat="48.39481" lon="7.26745">
        <ele>1095</ele>
        <time>2020-09-06T10:04:53.653Z</time>
      </trkpt>
      <trkpt lat="48.39481" lon="7.26745">
        <ele>1095</ele>
        <time>2020-09-06T10:04:54.652Z</time>
      </trkpt>
      <trkpt lat="48.39481" lon="7.26745">
        <ele>1094</ele>
        <time>2020-09-06T10:04:55.653Z</time>
      </trkpt>
      <trkpt lat="48.39481" lon="7.26744">
        <ele>1094</ele>
        <time>2020-09-06T10:04:56.653Z</time>
      </trkpt>
      <trkpt lat="48.39481" lon="7.26744">
        <ele>1094</ele>
        <time>2020-09-06T10:04:57.653Z</time>
      </trkpt>
      <trkpt lat="48.39481" lon="7.26744">
        <ele>1094</ele>
        <time>2020-09-06T10:04:58.653Z</time>
      </trkpt>
      <trkpt lat="48.39481" lon="7.26744">
        <ele>1093</ele>
        <time>2020-09-06T10:04:59.653Z</time>
      </trkpt>
      <trkpt lat="48.39481" lon="7.26744">
        <ele>1093</ele>
        <time>2020-09-06T10:05:00.652Z</time>
      </trkpt>
      <trkpt lat="48.39481" lon="7.26744">
        <ele>1093</ele>
        <time>2020-09-06T10:05:01.653Z</time>
      </trkpt>
      <trkpt lat="48.39481" lon="7.26744">
        <ele>1093</ele>
        <time>2020-09-06T10:05:02.653Z</time>
      </trkpt>
      <trkpt lat="48.39481" lon="7.26744">
        <ele>1093</ele>
        <time>2020-09-06T10:05:03.653Z</time>
      </trkpt>
      <trkpt lat="48.39482" lon="7.26743">
        <ele>1093</ele>
        <time>2020-09-06T10:05:04.652Z</time>
      </trkpt>
      <trkpt lat="48.39482" lon="7.26742">
        <ele>1093</ele>
        <time>2020-09-06T10:05:05.652Z</time>
      </trkpt>
      <trkpt lat="48.39483" lon="7.26742">
        <ele>1092</ele>
        <time>2020-09-06T10:05:06.653Z</time>
      </trkpt>
      <trkpt lat="48.39483" lon="7.26741">
        <ele>1092</ele>
        <time>2020-09-06T10:05:07.653Z</time>
      </trkpt>
      <trkpt lat="48.39483" lon="7.2674">
        <ele>1092</ele>
        <time>2020-09-06T10:05:08.652Z</time>
      </trkpt>
      <trkpt lat="48.39483" lon="7.2674">
        <ele>1092</ele>
        <time>2020-09-06T10:05:09.653Z</time>
      </trkpt>
      <trkpt lat="48.39483" lon="7.26739">
        <ele>1092</ele>
        <time>2020-09-06T10:05:10.652Z</time>
      </trkpt>
      <trkpt lat="48.39483" lon="7.26739">
        <ele>1092</ele>
        <time>2020-09-06T10:05:11.653Z</time>
      </trkpt>
      <trkpt lat="48.39483" lon="7.26739">
        <ele>1092</ele>
        <time>2020-09-06T10:05:12.653Z</time>
      </trkpt>
      <trkpt lat="48.39483" lon="7.26739">
        <ele>1092</ele>
        <time>2020-09-06T10:05:13.653Z</time>
      </trkpt>
      <trkpt lat="48.39483" lon="7.26739">
        <ele>1092</ele>
        <time>2020-09-06T10:05:14.653Z</time>
      </trkpt>
      <trkpt lat="48.39483" lon="7.26738">
        <ele>1092</ele>
        <time>2020-09-06T10:05:15.653Z</time>
      </trkpt>
      <trkpt lat="48.39483" lon="7.26738">
        <ele>1091</ele>
        <time>2020-09-06T10:05:16.653Z</time>
      </trkpt>
      <trkpt lat="48.39483" lon="7.26738">
        <ele>1091</ele>
        <time>2020-09-06T10:05:17.653Z</time>
      </trkpt>
      <trkpt lat="48.39483" lon="7.26738">
        <ele>1091</ele>
        <time>2020-09-06T10:05:18.653Z</time>
      </trkpt>
      <trkpt lat="48.39483" lon="7.26738">
        <ele>1091</ele>
        <time>2020-09-06T10:05:19.653Z</time>
      </trkpt>
      <trkpt lat="48.39483" lon="7.26738">
        <ele>1091</ele>
        <time>2020-09-06T10:05:20.653Z</time>
      </trkpt>
      <trkpt lat="48.39483" lon="7.26738">
        <ele>1091</ele>
        <time>2020-09-06T10:05:21.653Z</time>
      </trkpt>
      <trkpt lat="48.39483" lon="7.26737">
        <ele>1091</ele>
        <time>2020-09-06T10:05:22.653Z</time>
      </trkpt>
      <trkpt lat="48.39483" lon="7.26737">
        <ele>1091</ele>
        <time>2020-09-06T10:05:23.652Z</time>
      </trkpt>
      <trkpt lat="48.39483" lon="7.26737">
        <ele>1091</ele>
        <time>2020-09-06T10:05:24.653Z</time>
      </trkpt>
      <trkpt lat="48.39483" lon="7.26737">
        <ele>1091</ele>
        <time>2020-09-06T10:05:25.653Z</time>
      </trkpt>
      <trkpt lat="48.39484" lon="7.26737">
        <ele>1091</ele>
        <time>2020-09-06T10:05:26.653Z</time>
      </trkpt>
      <trkpt lat="48.39484" lon="7.26737">
        <ele>1091</ele>
        <time>2020-09-06T10:05:27.653Z</time>
      </trkpt>
      <trkpt lat="48.39484" lon="7.26737">
        <ele>1091</ele>
        <time>2020-09-06T10:05:28.653Z</time>
      </trkpt>
      <trkpt lat="48.39484" lon="7.26737">
        <ele>1091</ele>
        <time>2020-09-06T10:05:29.653Z</time>
      </trkpt>
      <trkpt lat="48.39484" lon="7.26737">
        <ele>1091</ele>
        <time>2020-09-06T10:05:30.653Z</time>
      </trkpt>
      <trkpt lat="48.39484" lon="7.26737">
        <ele>1091</ele>
        <time>2020-09-06T10:05:31.653Z</time>
      </trkpt>
      <trkpt lat="48.39484" lon="7.26737">
        <ele>1091</ele>
        <time>2020-09-06T10:05:32.653Z</time>
      </trkpt>
      <trkpt lat="48.39484" lon="7.26737">
        <ele>1091</ele>
        <time>2020-09-06T10:05:33.653Z</time>
      </trkpt>
      <trkpt lat="48.39484" lon="7.26737">
        <ele>1091</ele>
        <time>2020-09-06T10:05:34.652Z</time>
      </trkpt>
      <trkpt lat="48.39484" lon="7.26737">
        <ele>1091</ele>
        <time>2020-09-06T10:05:35.653Z</time>
      </trkpt>
      <trkpt lat="48.39484" lon="7.26737">
        <ele>1091</ele>
        <time>2020-09-06T10:05:36.653Z</time>
      </trkpt>
      <trkpt lat="48.39484" lon="7.26737">
        <ele>1091</ele>
        <time>2020-09-06T10:05:37.653Z</time>
      </trkpt>
      <trkpt lat="48.39484" lon="7.26737">
        <ele>1091</ele>
        <time>2020-09-06T10:05:38.652Z</time>
      </trkpt>
      <trkpt lat="48.39484" lon="7.26737">
        <ele>1091</ele>
        <time>2020-09-06T10:05:39.652Z</time>
      </trkpt>
      <trkpt lat="48.39485" lon="7.26737">
        <ele>1090</ele>
        <time>2020-09-06T10:05:40.652Z</time>
      </trkpt>
      <trkpt lat="48.39485" lon="7.26737">
        <ele>1090</ele>
        <time>2020-09-06T10:05:41.653Z</time>
      </trkpt>
      <trkpt lat="48.39485" lon="7.26738">
        <ele>1090</ele>
        <time>2020-09-06T10:05:42.653Z</time>
      </trkpt>
      <trkpt lat="48.39485" lon="7.26738">
        <ele>1090</ele>
        <time>2020-09-06T10:05:43.653Z</time>
      </trkpt>
      <trkpt lat="48.39485" lon="7.26738">
        <ele>1090</ele>
        <time>2020-09-06T10:05:44.653Z</time>
      </trkpt>
      <trkpt lat="48.39486" lon="7.26738">
        <ele>1090</ele>
        <time>2020-09-06T10:05:45.653Z</time>
      </trkpt>
      <trkpt lat="48.39486" lon="7.26738">
        <ele>1090</ele>
        <time>2020-09-06T10:05:46.653Z</time>
      </trkpt>
      <trkpt lat="48.39486" lon="7.26738">
        <ele>1090</ele>
        <time>2020-09-06T10:05:47.652Z</time>
      </trkpt>
      <trkpt lat="48.39486" lon="7.26738">
        <ele>1090</ele>
        <time>2020-09-06T10:05:48.653Z</time>
      </trkpt>
      <trkpt lat="48.39486" lon="7.26738">
        <ele>1090</ele>
        <time>2020-09-06T10:05:49.653Z</time>
      </trkpt>
      <trkpt lat="48.39486" lon="7.26738">
        <ele>1090</ele>
        <time>2020-09-06T10:05:50.652Z</time>
      </trkpt>
      <trkpt lat="48.39486" lon="7.26738">
        <ele>1090</ele>
        <time>2020-09-06T10:05:51.652Z</time>
      </trkpt>
      <trkpt lat="48.39486" lon="7.26738">
        <ele>1090</ele>
        <time>2020-09-06T10:05:52.653Z</time>
      </trkpt>
      <trkpt lat="48.39486" lon="7.26738">
        <ele>1090</ele>
        <time>2020-09-06T10:05:53.653Z</time>
      </trkpt>
      <trkpt lat="48.39486" lon="7.26731">
        <ele>1091</ele>
        <time>2020-09-06T10:05:54.654Z</time>
      </trkpt>
      <trkpt lat="48.39486" lon="7.26731">
        <ele>1091</ele>
        <time>2020-09-06T10:05:55.654Z</time>
      </trkpt>
      <trkpt lat="48.39486" lon="7.26731">
        <ele>1091</ele>
        <time>2020-09-06T10:05:56.653Z</time>
      </trkpt>
      <trkpt lat="48.39486" lon="7.26731">
        <ele>1091</ele>
        <time>2020-09-06T10:05:57.654Z</time>
      </trkpt>
      <trkpt lat="48.39486" lon="7.26731">
        <ele>1091</ele>
        <time>2020-09-06T10:05:58.654Z</time>
      </trkpt>
      <trkpt lat="48.39486" lon="7.26731">
        <ele>1091</ele>
        <time>2020-09-06T10:05:59.654Z</time>
      </trkpt>
      <trkpt lat="48.39487" lon="7.26732">
        <ele>1091</ele>
        <time>2020-09-06T10:06:00.654Z</time>
      </trkpt>
      <trkpt lat="48.39488" lon="7.26735">
        <ele>1091</ele>
        <time>2020-09-06T10:06:01.654Z</time>
      </trkpt>
      <trkpt lat="48.39488" lon="7.26737">
        <ele>1091</ele>
        <time>2020-09-06T10:06:02.654Z</time>
      </trkpt>
      <trkpt lat="48.39488" lon="7.2674">
        <ele>1091</ele>
        <time>2020-09-06T10:06:03.654Z</time>
      </trkpt>
      <trkpt lat="48.39489" lon="7.26741">
        <ele>1091</ele>
        <time>2020-09-06T10:06:04.654Z</time>
      </trkpt>
      <trkpt lat="48.3949" lon="7.26743">
        <ele>1092</ele>
        <time>2020-09-06T10:06:05.653Z</time>
      </trkpt>
      <trkpt lat="48.39491" lon="7.26744">
        <ele>1092</ele>
        <time>2020-09-06T10:06:06.654Z</time>
      </trkpt>
      <trkpt lat="48.39492" lon="7.26747">
        <ele>1092</ele>
        <time>2020-09-06T10:06:07.654Z</time>
      </trkpt>
      <trkpt lat="48.39493" lon="7.26749">
        <ele>1092</ele>
        <time>2020-09-06T10:06:08.654Z</time>
      </trkpt>
      <trkpt lat="48.39494" lon="7.26751">
        <ele>1093</ele>
        <time>2020-09-06T10:06:09.654Z</time>
      </trkpt>
      <trkpt lat="48.39494" lon="7.26753">
        <ele>1093</ele>
        <time>2020-09-06T10:06:10.654Z</time>
      </trkpt>
      <trkpt lat="48.39494" lon="7.26754">
        <ele>1093</ele>
        <time>2020-09-06T10:06:11.654Z</time>
      </trkpt>
      <trkpt lat="48.39494" lon="7.26756">
        <ele>1094</ele>
        <time>2020-09-06T10:06:12.654Z</time>
      </trkpt>
      <trkpt lat="48.39494" lon="7.26757">
        <ele>1094</ele>
        <time>2020-09-06T10:06:13.654Z</time>
      </trkpt>
      <trkpt lat="48.39493" lon="7.26759">
        <ele>1095</ele>
        <time>2020-09-06T10:06:14.654Z</time>
      </trkpt>
      <trkpt lat="48.39493" lon="7.2676">
        <ele>1095</ele>
        <time>2020-09-06T10:06:15.654Z</time>
      </trkpt>
      <trkpt lat="48.39493" lon="7.26761">
        <ele>1095</ele>
        <time>2020-09-06T10:06:16.654Z</time>
      </trkpt>
      <trkpt lat="48.39492" lon="7.26763">
        <ele>1095</ele>
        <time>2020-09-06T10:06:17.654Z</time>
      </trkpt>
      <trkpt lat="48.39492" lon="7.26765">
        <ele>1095</ele>
        <time>2020-09-06T10:06:18.654Z</time>
      </trkpt>
      <trkpt lat="48.39491" lon="7.26767">
        <ele>1094</ele>
        <time>2020-09-06T10:06:19.653Z</time>
      </trkpt>
      <trkpt lat="48.39491" lon="7.26768">
        <ele>1095</ele>
        <time>2020-09-06T10:06:20.654Z</time>
      </trkpt>
      <trkpt lat="48.3949" lon="7.2677">
        <ele>1095</ele>
        <time>2020-09-06T10:06:21.654Z</time>
      </trkpt>
      <trkpt lat="48.3949" lon="7.26772">
        <ele>1095</ele>
        <time>2020-09-06T10:06:22.653Z</time>
      </trkpt>
      <trkpt lat="48.3949" lon="7.26774">
        <ele>1096</ele>
        <time>2020-09-06T10:06:23.654Z</time>
      </trkpt>
      <trkpt lat="48.39488" lon="7.26775">
        <ele>1096</ele>
        <time>2020-09-06T10:06:24.654Z</time>
      </trkpt>
      <trkpt lat="48.39487" lon="7.26777">
        <ele>1097</ele>
        <time>2020-09-06T10:06:25.654Z</time>
      </trkpt>
      <trkpt lat="48.39485" lon="7.26778">
        <ele>1097</ele>
        <time>2020-09-06T10:06:26.654Z</time>
      </trkpt>
      <trkpt lat="48.39484" lon="7.26779">
        <ele>1098</ele>
        <time>2020-09-06T10:06:27.653Z</time>
      </trkpt>
      <trkpt lat="48.39484" lon="7.26779">
        <ele>1098</ele>
        <time>2020-09-06T10:06:28.654Z</time>
      </trkpt>
      <trkpt lat="48.39483" lon="7.26779">
        <ele>1098</ele>
        <time>2020-09-06T10:06:29.654Z</time>
      </trkpt>
      <trkpt lat="48.39482" lon="7.2678">
        <ele>1099</ele>
        <time>2020-09-06T10:06:30.654Z</time>
      </trkpt>
      <trkpt lat="48.39482" lon="7.2678">
        <ele>1099</ele>
        <time>2020-09-06T10:06:31.653Z</time>
      </trkpt>
      <trkpt lat="48.39482" lon="7.2678">
        <ele>1100</ele>
        <time>2020-09-06T10:06:32.653Z</time>
      </trkpt>
      <trkpt lat="48.39481" lon="7.2678">
        <ele>1100</ele>
        <time>2020-09-06T10:06:33.653Z</time>
      </trkpt>
      <trkpt lat="48.39481" lon="7.26781">
        <ele>1100</ele>
        <time>2020-09-06T10:06:34.654Z</time>
      </trkpt>
      <trkpt lat="48.3948" lon="7.26782">
        <ele>1100</ele>
        <time>2020-09-06T10:06:35.653Z</time>
      </trkpt>
      <trkpt lat="48.3948" lon="7.26783">
        <ele>1100</ele>
        <time>2020-09-06T10:06:36.654Z</time>
      </trkpt>
      <trkpt lat="48.39479" lon="7.26785">
        <ele>1100</ele>
        <time>2020-09-06T10:06:37.654Z</time>
      </trkpt>
      <trkpt lat="48.39479" lon="7.26787">
        <ele>1100</ele>
        <time>2020-09-06T10:06:38.654Z</time>
      </trkpt>
      <trkpt lat="48.39478" lon="7.26788">
        <ele>1100</ele>
        <time>2020-09-06T10:06:39.653Z</time>
      </trkpt>
      <trkpt lat="48.39477" lon="7.2679">
        <ele>1100</ele>
        <time>2020-09-06T10:06:40.654Z</time>
      </trkpt>
      <trkpt lat="48.39476" lon="7.26792">
        <ele>1100</ele>
        <time>2020-09-06T10:06:41.654Z</time>
      </trkpt>
      <trkpt lat="48.39476" lon="7.26793">
        <ele>1100</ele>
        <time>2020-09-06T10:06:42.654Z</time>
      </trkpt>
      <trkpt lat="48.39476" lon="7.26795">
        <ele>1101</ele>
        <time>2020-09-06T10:06:43.653Z</time>
      </trkpt>
      <trkpt lat="48.39477" lon="7.26796">
        <ele>1101</ele>
        <time>2020-09-06T10:06:44.654Z</time>
      </trkpt>
      <trkpt lat="48.39477" lon="7.26797">
        <ele>1102</ele>
        <time>2020-09-06T10:06:48.783Z</time>
      </trkpt>
      <trkpt lat="48.39476" lon="7.26799">
        <ele>1102</ele>
        <time>2020-09-06T10:06:49.783Z</time>
      </trkpt>
      <trkpt lat="48.39476" lon="7.268">
        <ele>1103</ele>
        <time>2020-09-06T10:06:50.782Z</time>
      </trkpt>
      <trkpt lat="48.39476" lon="7.26801">
        <ele>1103</ele>
        <time>2020-09-06T10:06:51.783Z</time>
      </trkpt>
      <trkpt lat="48.39476" lon="7.26802">
        <ele>1103</ele>
        <time>2020-09-06T10:06:52.783Z</time>
      </trkpt>
      <trkpt lat="48.39476" lon="7.26804">
        <ele>1103</ele>
        <time>2020-09-06T10:06:53.783Z</time>
      </trkpt>
      <trkpt lat="48.39476" lon="7.26805">
        <ele>1103</ele>
        <time>2020-09-06T10:06:54.783Z</time>
      </trkpt>
      <trkpt lat="48.39476" lon="7.26807">
        <ele>1104</ele>
        <time>2020-09-06T10:06:55.783Z</time>
      </trkpt>
      <trkpt lat="48.39477" lon="7.26809">
        <ele>1104</ele>
        <time>2020-09-06T10:06:56.782Z</time>
      </trkpt>
      <trkpt lat="48.39477" lon="7.2681">
        <ele>1105</ele>
        <time>2020-09-06T10:06:57.783Z</time>
      </trkpt>
      <trkpt lat="48.39477" lon="7.26811">
        <ele>1105</ele>
        <time>2020-09-06T10:06:59.877Z</time>
      </trkpt>
      <trkpt lat="48.39477" lon="7.26812">
        <ele>1105</ele>
        <time>2020-09-06T10:07:07.758Z</time>
      </trkpt>
      <trkpt lat="48.39477" lon="7.26813">
        <ele>1105</ele>
        <time>2020-09-06T10:07:08.758Z</time>
      </trkpt>
      <trkpt lat="48.39478" lon="7.26813">
        <ele>1105</ele>
        <time>2020-09-06T10:07:09.759Z</time>
      </trkpt>
      <trkpt lat="48.39478" lon="7.26814">
        <ele>1105</ele>
        <time>2020-09-06T10:07:10.758Z</time>
      </trkpt>
      <trkpt lat="48.39478" lon="7.26815">
        <ele>1105</ele>
        <time>2020-09-06T10:07:11.759Z</time>
      </trkpt>
      <trkpt lat="48.39478" lon="7.26817">
        <ele>1104</ele>
        <time>2020-09-06T10:07:12.758Z</time>
      </trkpt>
      <trkpt lat="48.39478" lon="7.26818">
        <ele>1103</ele>
        <time>2020-09-06T10:07:13.759Z</time>
      </trkpt>
      <trkpt lat="48.39478" lon="7.26819">
        <ele>1102</ele>
        <time>2020-09-06T10:07:14.758Z</time>
      </trkpt>
      <trkpt lat="48.39479" lon="7.2682">
        <ele>1101</ele>
        <time>2020-09-06T10:07:15.758Z</time>
      </trkpt>
      <trkpt lat="48.39479" lon="7.26822">
        <ele>1101</ele>
        <time>2020-09-06T10:07:18.871Z</time>
      </trkpt>
      <trkpt lat="48.39479" lon="7.26823">
        <ele>1100</ele>
        <time>2020-09-06T10:07:19.871Z</time>
      </trkpt>
      <trkpt lat="48.39479" lon="7.26825">
        <ele>1100</ele>
        <time>2020-09-06T10:07:23.758Z</time>
      </trkpt>
      <trkpt lat="48.39479" lon="7.26826">
        <ele>1100</ele>
        <time>2020-09-06T10:07:24.758Z</time>
      </trkpt>
      <trkpt lat="48.39479" lon="7.26828">
        <ele>1099</ele>
        <time>2020-09-06T10:07:25.757Z</time>
      </trkpt>
      <trkpt lat="48.3948" lon="7.2683">
        <ele>1099</ele>
        <time>2020-09-06T10:07:26.758Z</time>
      </trkpt>
      <trkpt lat="48.3948" lon="7.26831">
        <ele>1099</ele>
        <time>2020-09-06T10:07:27.758Z</time>
      </trkpt>
      <trkpt lat="48.39479" lon="7.26832">
        <ele>1099</ele>
        <time>2020-09-06T10:07:28.758Z</time>
      </trkpt>
      <trkpt lat="48.39479" lon="7.26833">
        <ele>1100</ele>
        <time>2020-09-06T10:07:29.757Z</time>
      </trkpt>
      <trkpt lat="48.39478" lon="7.26835">
        <ele>1100</ele>
        <time>2020-09-06T10:07:30.758Z</time>
      </trkpt>
      <trkpt lat="48.39477" lon="7.26836">
        <ele>1100</ele>
        <time>2020-09-06T10:07:31.758Z</time>
      </trkpt>
      <trkpt lat="48.39476" lon="7.26837">
        <ele>1100</ele>
        <time>2020-09-06T10:07:32.758Z</time>
      </trkpt>
      <trkpt lat="48.39476" lon="7.26838">
        <ele>1100</ele>
        <time>2020-09-06T10:07:33.758Z</time>
      </trkpt>
      <trkpt lat="48.39475" lon="7.26839">
        <ele>1100</ele>
        <time>2020-09-06T10:07:34.758Z</time>
      </trkpt>
      <trkpt lat="48.39474" lon="7.26839">
        <ele>1101</ele>
        <time>2020-09-06T10:07:35.758Z</time>
      </trkpt>
      <trkpt lat="48.39474" lon="7.26839">
        <ele>1100</ele>
        <time>2020-09-06T10:07:36.758Z</time>
      </trkpt>
      <trkpt lat="48.39473" lon="7.2684">
        <ele>1100</ele>
        <time>2020-09-06T10:07:37.758Z</time>
      </trkpt>
      <trkpt lat="48.39473" lon="7.2684">
        <ele>1100</ele>
        <time>2020-09-06T10:07:38.758Z</time>
      </trkpt>
      <trkpt lat="48.39472" lon="7.2684">
        <ele>1099</ele>
        <time>2020-09-06T10:07:39.758Z</time>
      </trkpt>
      <trkpt lat="48.39471" lon="7.2684">
        <ele>1099</ele>
        <time>2020-09-06T10:07:40.758Z</time>
      </trkpt>
      <trkpt lat="48.3947" lon="7.26841">
        <ele>1099</ele>
        <time>2020-09-06T10:07:41.757Z</time>
      </trkpt>
      <trkpt lat="48.3947" lon="7.26841">
        <ele>1099</ele>
        <time>2020-09-06T10:07:42.757Z</time>
      </trkpt>
      <trkpt lat="48.3947" lon="7.26841">
        <ele>1100</ele>
        <time>2020-09-06T10:07:43.758Z</time>
      </trkpt>
      <trkpt lat="48.39469" lon="7.26842">
        <ele>1100</ele>
        <time>2020-09-06T10:07:44.758Z</time>
      </trkpt>
      <trkpt lat="48.39469" lon="7.26842">
        <ele>1101</ele>
        <time>2020-09-06T10:07:45.757Z</time>
      </trkpt>
      <trkpt lat="48.39469" lon="7.26843">
        <ele>1101</ele>
        <time>2020-09-06T10:07:46.758Z</time>
      </trkpt>
      <trkpt lat="48.39469" lon="7.26842">
        <ele>1102</ele>
        <time>2020-09-06T10:07:47.757Z</time>
      </trkpt>
      <trkpt lat="48.39469" lon="7.26843">
        <ele>1103</ele>
        <time>2020-09-06T10:07:48.759Z</time>
      </trkpt>
      <trkpt lat="48.39468" lon="7.26843">
        <ele>1103</ele>
        <time>2020-09-06T10:07:49.758Z</time>
      </trkpt>
      <trkpt lat="48.39467" lon="7.26843">
        <ele>1103</ele>
        <time>2020-09-06T10:07:50.758Z</time>
      </trkpt>
      <trkpt lat="48.39467" lon="7.26843">
        <ele>1103</ele>
        <time>2020-09-06T10:07:51.758Z</time>
      </trkpt>
      <trkpt lat="48.39466" lon="7.26843">
        <ele>1103</ele>
        <time>2020-09-06T10:07:52.759Z</time>
      </trkpt>
      <trkpt lat="48.39466" lon="7.26843">
        <ele>1103</ele>
        <time>2020-09-06T10:07:53.759Z</time>
      </trkpt>
      <trkpt lat="48.39463" lon="7.26846">
        <ele>1098</ele>
        <time>2020-09-06T10:07:54.759Z</time>
      </trkpt>
      <trkpt lat="48.39462" lon="7.26848">
        <ele>1098</ele>
        <time>2020-09-06T10:07:55.759Z</time>
      </trkpt>
      <trkpt lat="48.39461" lon="7.26849">
        <ele>1098</ele>
        <time>2020-09-06T10:07:56.759Z</time>
      </trkpt>
      <trkpt lat="48.39459" lon="7.26849">
        <ele>1099</ele>
        <time>2020-09-06T10:07:57.759Z</time>
      </trkpt>
      <trkpt lat="48.39458" lon="7.2685">
        <ele>1099</ele>
        <time>2020-09-06T10:07:58.759Z</time>
      </trkpt>
      <trkpt lat="48.39457" lon="7.2685">
        <ele>1098</ele>
        <time>2020-09-06T10:08:00.767Z</time>
      </trkpt>
      <trkpt lat="48.39456" lon="7.26851">
        <ele>1098</ele>
        <time>2020-09-06T10:08:01.767Z</time>
      </trkpt>
      <trkpt lat="48.39455" lon="7.26852">
        <ele>1099</ele>
        <time>2020-09-06T10:08:02.767Z</time>
      </trkpt>
      <trkpt lat="48.39455" lon="7.26852">
        <ele>1099</ele>
        <time>2020-09-06T10:08:03.767Z</time>
      </trkpt>
      <trkpt lat="48.39454" lon="7.26851">
        <ele>1099</ele>
        <time>2020-09-06T10:08:04.767Z</time>
      </trkpt>
      <trkpt lat="48.39453" lon="7.26852">
        <ele>1099</ele>
        <time>2020-09-06T10:08:05.767Z</time>
      </trkpt>
      <trkpt lat="48.39452" lon="7.26852">
        <ele>1100</ele>
        <time>2020-09-06T10:08:06.767Z</time>
      </trkpt>
      <trkpt lat="48.39451" lon="7.26852">
        <ele>1100</ele>
        <time>2020-09-06T10:08:07.767Z</time>
      </trkpt>
      <trkpt lat="48.39449" lon="7.26853">
        <ele>1100</ele>
        <time>2020-09-06T10:08:08.767Z</time>
      </trkpt>
      <trkpt lat="48.39448" lon="7.26854">
        <ele>1101</ele>
        <time>2020-09-06T10:08:09.767Z</time>
      </trkpt>
      <trkpt lat="48.39447" lon="7.26854">
        <ele>1101</ele>
        <time>2020-09-06T10:08:10.767Z</time>
      </trkpt>
      <trkpt lat="48.39445" lon="7.26855">
        <ele>1102</ele>
        <time>2020-09-06T10:08:11.767Z</time>
      </trkpt>
      <trkpt lat="48.39444" lon="7.26855">
        <ele>1102</ele>
        <time>2020-09-06T10:08:12.767Z</time>
      </trkpt>
      <trkpt lat="48.39442" lon="7.26856">
        <ele>1102</ele>
        <time>2020-09-06T10:08:13.767Z</time>
      </trkpt>
      <trkpt lat="48.39441" lon="7.26856">
        <ele>1102</ele>
        <time>2020-09-06T10:08:14.767Z</time>
      </trkpt>
      <trkpt lat="48.3944" lon="7.26857">
        <ele>1102</ele>
        <time>2020-09-06T10:08:15.767Z</time>
      </trkpt>
      <trkpt lat="48.39439" lon="7.26857">
        <ele>1102</ele>
        <time>2020-09-06T10:08:16.767Z</time>
      </trkpt>
      <trkpt lat="48.39438" lon="7.26858">
        <ele>1102</ele>
        <time>2020-09-06T10:08:17.767Z</time>
      </trkpt>
      <trkpt lat="48.39437" lon="7.26858">
        <ele>1102</ele>
        <time>2020-09-06T10:08:18.767Z</time>
      </trkpt>
      <trkpt lat="48.39436" lon="7.26858">
        <ele>1102</ele>
        <time>2020-09-06T10:08:19.767Z</time>
      </trkpt>
      <trkpt lat="48.39435" lon="7.26859">
        <ele>1102</ele>
        <time>2020-09-06T10:08:20.767Z</time>
      </trkpt>
      <trkpt lat="48.39433" lon="7.26859">
        <ele>1102</ele>
        <time>2020-09-06T10:08:21.767Z</time>
      </trkpt>
      <trkpt lat="48.39432" lon="7.2686">
        <ele>1102</ele>
        <time>2020-09-06T10:08:22.767Z</time>
      </trkpt>
      <trkpt lat="48.39431" lon="7.2686">
        <ele>1102</ele>
        <time>2020-09-06T10:08:23.767Z</time>
      </trkpt>
      <trkpt lat="48.3943" lon="7.26861">
        <ele>1101</ele>
        <time>2020-09-06T10:08:24.767Z</time>
      </trkpt>
      <trkpt lat="48.39429" lon="7.26861">
        <ele>1101</ele>
        <time>2020-09-06T10:08:25.767Z</time>
      </trkpt>
      <trkpt lat="48.39427" lon="7.26862">
        <ele>1101</ele>
        <time>2020-09-06T10:08:26.767Z</time>
      </trkpt>
      <trkpt lat="48.39426" lon="7.26862">
        <ele>1100</ele>
        <time>2020-09-06T10:08:27.767Z</time>
      </trkpt>
      <trkpt lat="48.39425" lon="7.26863">
        <ele>1100</ele>
        <time>2020-09-06T10:08:28.767Z</time>
      </trkpt>
      <trkpt lat="48.39424" lon="7.26864">
        <ele>1100</ele>
        <time>2020-09-06T10:08:29.767Z</time>
      </trkpt>
      <trkpt lat="48.39423" lon="7.26865">
        <ele>1100</ele>
        <time>2020-09-06T10:08:30.767Z</time>
      </trkpt>
      <trkpt lat="48.39422" lon="7.26866">
        <ele>1100</ele>
        <time>2020-09-06T10:08:31.767Z</time>
      </trkpt>
      <trkpt lat="48.39421" lon="7.26867">
        <ele>1099</ele>
        <time>2020-09-06T10:08:32.767Z</time>
      </trkpt>
      <trkpt lat="48.39419" lon="7.26868">
        <ele>1099</ele>
        <time>2020-09-06T10:08:33.767Z</time>
      </trkpt>
      <trkpt lat="48.39419" lon="7.2687">
        <ele>1099</ele>
        <time>2020-09-06T10:08:34.767Z</time>
      </trkpt>
      <trkpt lat="48.39418" lon="7.26871">
        <ele>1099</ele>
        <time>2020-09-06T10:08:35.767Z</time>
      </trkpt>
      <trkpt lat="48.39417" lon="7.26872">
        <ele>1099</ele>
        <time>2020-09-06T10:08:36.767Z</time>
      </trkpt>
      <trkpt lat="48.39415" lon="7.26874">
        <ele>1100</ele>
        <time>2020-09-06T10:08:37.767Z</time>
      </trkpt>
      <trkpt lat="48.39415" lon="7.26875">
        <ele>1100</ele>
        <time>2020-09-06T10:08:38.767Z</time>
      </trkpt>
      <trkpt lat="48.39414" lon="7.26877">
        <ele>1100</ele>
        <time>2020-09-06T10:08:39.767Z</time>
      </trkpt>
      <trkpt lat="48.39413" lon="7.26878">
        <ele>1101</ele>
        <time>2020-09-06T10:08:40.767Z</time>
      </trkpt>
      <trkpt lat="48.39412" lon="7.2688">
        <ele>1101</ele>
        <time>2020-09-06T10:08:41.767Z</time>
      </trkpt>
      <trkpt lat="48.39411" lon="7.26881">
        <ele>1102</ele>
        <time>2020-09-06T10:08:42.767Z</time>
      </trkpt>
      <trkpt lat="48.39411" lon="7.26882">
        <ele>1102</ele>
        <time>2020-09-06T10:08:43.767Z</time>
      </trkpt>
      <trkpt lat="48.3941" lon="7.26884">
        <ele>1102</ele>
        <time>2020-09-06T10:08:44.767Z</time>
      </trkpt>
      <trkpt lat="48.39409" lon="7.26885">
        <ele>1102</ele>
        <time>2020-09-06T10:08:45.767Z</time>
      </trkpt>
      <trkpt lat="48.39407" lon="7.26887">
        <ele>1102</ele>
        <time>2020-09-06T10:08:46.767Z</time>
      </trkpt>
      <trkpt lat="48.39406" lon="7.26888">
        <ele>1102</ele>
        <time>2020-09-06T10:08:47.767Z</time>
      </trkpt>
      <trkpt lat="48.39405" lon="7.26888">
        <ele>1102</ele>
        <time>2020-09-06T10:08:48.767Z</time>
      </trkpt>
      <trkpt lat="48.39404" lon="7.26888">
        <ele>1102</ele>
        <time>2020-09-06T10:08:49.767Z</time>
      </trkpt>
      <trkpt lat="48.39403" lon="7.26886">
        <ele>1101</ele>
        <time>2020-09-06T10:08:50.767Z</time>
      </trkpt>
      <trkpt lat="48.39402" lon="7.26885">
        <ele>1101</ele>
        <time>2020-09-06T10:08:51.767Z</time>
      </trkpt>
      <trkpt lat="48.39401" lon="7.26884">
        <ele>1100</ele>
        <time>2020-09-06T10:08:52.767Z</time>
      </trkpt>
      <trkpt lat="48.39401" lon="7.26883">
        <ele>1099</ele>
        <time>2020-09-06T10:08:53.767Z</time>
      </trkpt>
      <trkpt lat="48.394" lon="7.26882">
        <ele>1098</ele>
        <time>2020-09-06T10:08:54.767Z</time>
      </trkpt>
      <trkpt lat="48.39399" lon="7.26882">
        <ele>1097</ele>
        <time>2020-09-06T10:08:55.767Z</time>
      </trkpt>
      <trkpt lat="48.39398" lon="7.26881">
        <ele>1096</ele>
        <time>2020-09-06T10:08:56.767Z</time>
      </trkpt>
      <trkpt lat="48.39397" lon="7.2688">
        <ele>1095</ele>
        <time>2020-09-06T10:08:57.767Z</time>
      </trkpt>
      <trkpt lat="48.39397" lon="7.26879">
        <ele>1095</ele>
        <time>2020-09-06T10:08:58.767Z</time>
      </trkpt>
      <trkpt lat="48.39396" lon="7.26878">
        <ele>1095</ele>
        <time>2020-09-06T10:08:59.767Z</time>
      </trkpt>
      <trkpt lat="48.39395" lon="7.26878">
        <ele>1095</ele>
        <time>2020-09-06T10:09:00.767Z</time>
      </trkpt>
      <trkpt lat="48.39394" lon="7.26877">
        <ele>1095</ele>
        <time>2020-09-06T10:09:01.767Z</time>
      </trkpt>
      <trkpt lat="48.39393" lon="7.26876">
        <ele>1096</ele>
        <time>2020-09-06T10:09:02.767Z</time>
      </trkpt>
      <trkpt lat="48.39392" lon="7.26876">
        <ele>1096</ele>
        <time>2020-09-06T10:09:03.767Z</time>
      </trkpt>
      <trkpt lat="48.3939" lon="7.26875">
        <ele>1097</ele>
        <time>2020-09-06T10:09:04.767Z</time>
      </trkpt>
      <trkpt lat="48.39388" lon="7.26875">
        <ele>1098</ele>
        <time>2020-09-06T10:09:05.767Z</time>
      </trkpt>
      <trkpt lat="48.39387" lon="7.26875">
        <ele>1098</ele>
        <time>2020-09-06T10:09:06.767Z</time>
      </trkpt>
      <trkpt lat="48.39386" lon="7.26874">
        <ele>1098</ele>
        <time>2020-09-06T10:09:07.767Z</time>
      </trkpt>
      <trkpt lat="48.39385" lon="7.26873">
        <ele>1098</ele>
        <time>2020-09-06T10:09:08.767Z</time>
      </trkpt>
      <trkpt lat="48.39384" lon="7.26872">
        <ele>1098</ele>
        <time>2020-09-06T10:09:09.767Z</time>
      </trkpt>
      <trkpt lat="48.39383" lon="7.26872">
        <ele>1097</ele>
        <time>2020-09-06T10:09:10.767Z</time>
      </trkpt>
      <trkpt lat="48.39382" lon="7.26871">
        <ele>1096</ele>
        <time>2020-09-06T10:09:11.767Z</time>
      </trkpt>
      <trkpt lat="48.3938" lon="7.26871">
        <ele>1096</ele>
        <time>2020-09-06T10:09:12.767Z</time>
      </trkpt>
      <trkpt lat="48.39379" lon="7.2687">
        <ele>1096</ele>
        <time>2020-09-06T10:09:13.767Z</time>
      </trkpt>
      <trkpt lat="48.39378" lon="7.2687">
        <ele>1096</ele>
        <time>2020-09-06T10:09:14.767Z</time>
      </trkpt>
      <trkpt lat="48.39377" lon="7.26869">
        <ele>1096</ele>
        <time>2020-09-06T10:09:15.767Z</time>
      </trkpt>
      <trkpt lat="48.39376" lon="7.26869">
        <ele>1097</ele>
        <time>2020-09-06T10:09:16.767Z</time>
      </trkpt>
      <trkpt lat="48.39374" lon="7.26868">
        <ele>1097</ele>
        <time>2020-09-06T10:09:17.767Z</time>
      </trkpt>
      <trkpt lat="48.39372" lon="7.26867">
        <ele>1097</ele>
        <time>2020-09-06T10:09:18.767Z</time>
      </trkpt>
      <trkpt lat="48.39372" lon="7.26867">
        <ele>1096</ele>
        <time>2020-09-06T10:09:19.767Z</time>
      </trkpt>
      <trkpt lat="48.39371" lon="7.26867">
        <ele>1097</ele>
        <time>2020-09-06T10:09:20.767Z</time>
      </trkpt>
      <trkpt lat="48.39369" lon="7.26866">
        <ele>1096</ele>
        <time>2020-09-06T10:09:21.767Z</time>
      </trkpt>
      <trkpt lat="48.39369" lon="7.26866">
        <ele>1096</ele>
        <time>2020-09-06T10:09:22.767Z</time>
      </trkpt>
      <trkpt lat="48.39367" lon="7.26865">
        <ele>1096</ele>
        <time>2020-09-06T10:09:23.767Z</time>
      </trkpt>
      <trkpt lat="48.39366" lon="7.26864">
        <ele>1096</ele>
        <time>2020-09-06T10:09:24.767Z</time>
      </trkpt>
      <trkpt lat="48.39365" lon="7.26864">
        <ele>1095</ele>
        <time>2020-09-06T10:09:25.767Z</time>
      </trkpt>
      <trkpt lat="48.39363" lon="7.26864">
        <ele>1095</ele>
        <time>2020-09-06T10:09:26.767Z</time>
      </trkpt>
      <trkpt lat="48.39362" lon="7.26864">
        <ele>1095</ele>
        <time>2020-09-06T10:09:27.767Z</time>
      </trkpt>
      <trkpt lat="48.39361" lon="7.26863">
        <ele>1095</ele>
        <time>2020-09-06T10:09:28.767Z</time>
      </trkpt>
      <trkpt lat="48.3936" lon="7.26863">
        <ele>1095</ele>
        <time>2020-09-06T10:09:29.767Z</time>
      </trkpt>
      <trkpt lat="48.39359" lon="7.26863">
        <ele>1095</ele>
        <time>2020-09-06T10:09:30.767Z</time>
      </trkpt>
      <trkpt lat="48.39358" lon="7.26862">
        <ele>1095</ele>
        <time>2020-09-06T10:09:31.767Z</time>
      </trkpt>
      <trkpt lat="48.39356" lon="7.26861">
        <ele>1095</ele>
        <time>2020-09-06T10:09:32.767Z</time>
      </trkpt>
      <trkpt lat="48.39355" lon="7.26861">
        <ele>1095</ele>
        <time>2020-09-06T10:09:33.767Z</time>
      </trkpt>
      <trkpt lat="48.39355" lon="7.2686">
        <ele>1094</ele>
        <time>2020-09-06T10:09:34.767Z</time>
      </trkpt>
      <trkpt lat="48.39354" lon="7.26859">
        <ele>1094</ele>
        <time>2020-09-06T10:09:35.767Z</time>
      </trkpt>
      <trkpt lat="48.39352" lon="7.26858">
        <ele>1094</ele>
        <time>2020-09-06T10:09:36.767Z</time>
      </trkpt>
      <trkpt lat="48.39352" lon="7.26857">
        <ele>1094</ele>
        <time>2020-09-06T10:09:37.767Z</time>
      </trkpt>
      <trkpt lat="48.39351" lon="7.26857">
        <ele>1094</ele>
        <time>2020-09-06T10:09:38.767Z</time>
      </trkpt>
      <trkpt lat="48.39349" lon="7.26857">
        <ele>1094</ele>
        <time>2020-09-06T10:09:39.767Z</time>
      </trkpt>
      <trkpt lat="48.39348" lon="7.26857">
        <ele>1094</ele>
        <time>2020-09-06T10:09:40.767Z</time>
      </trkpt>
      <trkpt lat="48.39348" lon="7.26857">
        <ele>1095</ele>
        <time>2020-09-06T10:09:41.767Z</time>
      </trkpt>
      <trkpt lat="48.39346" lon="7.26857">
        <ele>1095</ele>
        <time>2020-09-06T10:09:42.767Z</time>
      </trkpt>
      <trkpt lat="48.39345" lon="7.26857">
        <ele>1096</ele>
        <time>2020-09-06T10:09:43.767Z</time>
      </trkpt>
      <trkpt lat="48.39344" lon="7.26857">
        <ele>1096</ele>
        <time>2020-09-06T10:09:44.767Z</time>
      </trkpt>
      <trkpt lat="48.39343" lon="7.26856">
        <ele>1097</ele>
        <time>2020-09-06T10:09:45.767Z</time>
      </trkpt>
      <trkpt lat="48.39342" lon="7.26856">
        <ele>1097</ele>
        <time>2020-09-06T10:09:46.767Z</time>
      </trkpt>
      <trkpt lat="48.39341" lon="7.26856">
        <ele>1097</ele>
        <time>2020-09-06T10:09:47.767Z</time>
      </trkpt>
      <trkpt lat="48.3934" lon="7.26856">
        <ele>1098</ele>
        <time>2020-09-06T10:09:48.767Z</time>
      </trkpt>
      <trkpt lat="48.39339" lon="7.26856">
        <ele>1098</ele>
        <time>2020-09-06T10:09:49.767Z</time>
      </trkpt>
      <trkpt lat="48.39338" lon="7.26856">
        <ele>1099</ele>
        <time>2020-09-06T10:09:50.767Z</time>
      </trkpt>
      <trkpt lat="48.39337" lon="7.26855">
        <ele>1099</ele>
        <time>2020-09-06T10:09:51.767Z</time>
      </trkpt>
      <trkpt lat="48.39335" lon="7.26854">
        <ele>1099</ele>
        <time>2020-09-06T10:09:52.767Z</time>
      </trkpt>
      <trkpt lat="48.39334" lon="7.26854">
        <ele>1099</ele>
        <time>2020-09-06T10:09:53.767Z</time>
      </trkpt>
      <trkpt lat="48.39333" lon="7.26853">
        <ele>1099</ele>
        <time>2020-09-06T10:09:54.767Z</time>
      </trkpt>
      <trkpt lat="48.39332" lon="7.26853">
        <ele>1099</ele>
        <time>2020-09-06T10:09:55.767Z</time>
      </trkpt>
      <trkpt lat="48.39331" lon="7.26852">
        <ele>1099</ele>
        <time>2020-09-06T10:09:56.767Z</time>
      </trkpt>
      <trkpt lat="48.3933" lon="7.26852">
        <ele>1099</ele>
        <time>2020-09-06T10:09:57.767Z</time>
      </trkpt>
      <trkpt lat="48.39329" lon="7.26851">
        <ele>1100</ele>
        <time>2020-09-06T10:09:58.767Z</time>
      </trkpt>
      <trkpt lat="48.39327" lon="7.26851">
        <ele>1100</ele>
        <time>2020-09-06T10:09:59.767Z</time>
      </trkpt>
      <trkpt lat="48.39326" lon="7.26851">
        <ele>1101</ele>
        <time>2020-09-06T10:10:00.767Z</time>
      </trkpt>
      <trkpt lat="48.39325" lon="7.2685">
        <ele>1101</ele>
        <time>2020-09-06T10:10:01.767Z</time>
      </trkpt>
      <trkpt lat="48.39324" lon="7.26849">
        <ele>1101</ele>
        <time>2020-09-06T10:10:02.767Z</time>
      </trkpt>
      <trkpt lat="48.39323" lon="7.26848">
        <ele>1101</ele>
        <time>2020-09-06T10:10:03.767Z</time>
      </trkpt>
      <trkpt lat="48.39322" lon="7.26847">
        <ele>1100</ele>
        <time>2020-09-06T10:10:04.767Z</time>
      </trkpt>
      <trkpt lat="48.39321" lon="7.26847">
        <ele>1099</ele>
        <time>2020-09-06T10:10:05.767Z</time>
      </trkpt>
      <trkpt lat="48.3932" lon="7.26846">
        <ele>1099</ele>
        <time>2020-09-06T10:10:06.767Z</time>
      </trkpt>
      <trkpt lat="48.39319" lon="7.26846">
        <ele>1098</ele>
        <time>2020-09-06T10:10:07.767Z</time>
      </trkpt>
      <trkpt lat="48.39318" lon="7.26846">
        <ele>1097</ele>
        <time>2020-09-06T10:10:08.767Z</time>
      </trkpt>
      <trkpt lat="48.39317" lon="7.26846">
        <ele>1096</ele>
        <time>2020-09-06T10:10:09.767Z</time>
      </trkpt>
      <trkpt lat="48.39315" lon="7.26845">
        <ele>1096</ele>
        <time>2020-09-06T10:10:10.767Z</time>
      </trkpt>
      <trkpt lat="48.39314" lon="7.26845">
        <ele>1096</ele>
        <time>2020-09-06T10:10:11.767Z</time>
      </trkpt>
      <trkpt lat="48.39313" lon="7.26844">
        <ele>1095</ele>
        <time>2020-09-06T10:10:12.767Z</time>
      </trkpt>
      <trkpt lat="48.39312" lon="7.26844">
        <ele>1095</ele>
        <time>2020-09-06T10:10:13.767Z</time>
      </trkpt>
      <trkpt lat="48.39311" lon="7.26843">
        <ele>1095</ele>
        <time>2020-09-06T10:10:14.767Z</time>
      </trkpt>
      <trkpt lat="48.39311" lon="7.26842">
        <ele>1094</ele>
        <time>2020-09-06T10:10:15.767Z</time>
      </trkpt>
      <trkpt lat="48.3931" lon="7.26841">
        <ele>1094</ele>
        <time>2020-09-06T10:10:16.767Z</time>
      </trkpt>
      <trkpt lat="48.39309" lon="7.2684">
        <ele>1093</ele>
        <time>2020-09-06T10:10:17.767Z</time>
      </trkpt>
      <trkpt lat="48.39307" lon="7.2684">
        <ele>1093</ele>
        <time>2020-09-06T10:10:18.767Z</time>
      </trkpt>
      <trkpt lat="48.39305" lon="7.2684">
        <ele>1093</ele>
        <time>2020-09-06T10:10:19.767Z</time>
      </trkpt>
      <trkpt lat="48.39304" lon="7.2684">
        <ele>1093</ele>
        <time>2020-09-06T10:10:20.767Z</time>
      </trkpt>
      <trkpt lat="48.39303" lon="7.2684">
        <ele>1094</ele>
        <time>2020-09-06T10:10:21.767Z</time>
      </trkpt>
      <trkpt lat="48.39302" lon="7.2684">
        <ele>1094</ele>
        <time>2020-09-06T10:10:22.767Z</time>
      </trkpt>
      <trkpt lat="48.39301" lon="7.2684">
        <ele>1094</ele>
        <time>2020-09-06T10:10:23.767Z</time>
      </trkpt>
      <trkpt lat="48.393" lon="7.26839">
        <ele>1094</ele>
        <time>2020-09-06T10:10:24.767Z</time>
      </trkpt>
      <trkpt lat="48.39299" lon="7.26839">
        <ele>1093</ele>
        <time>2020-09-06T10:10:25.767Z</time>
      </trkpt>
      <trkpt lat="48.39298" lon="7.26839">
        <ele>1093</ele>
        <time>2020-09-06T10:10:26.767Z</time>
      </trkpt>
      <trkpt lat="48.39297" lon="7.26839">
        <ele>1092</ele>
        <time>2020-09-06T10:10:27.767Z</time>
      </trkpt>
      <trkpt lat="48.39296" lon="7.26839">
        <ele>1092</ele>
        <time>2020-09-06T10:10:28.767Z</time>
      </trkpt>
      <trkpt lat="48.39295" lon="7.26839">
        <ele>1091</ele>
        <time>2020-09-06T10:10:29.767Z</time>
      </trkpt>
      <trkpt lat="48.39294" lon="7.26839">
        <ele>1090</ele>
        <time>2020-09-06T10:10:30.767Z</time>
      </trkpt>
      <trkpt lat="48.39293" lon="7.26839">
        <ele>1090</ele>
        <time>2020-09-06T10:10:31.767Z</time>
      </trkpt>
      <trkpt lat="48.39292" lon="7.2684">
        <ele>1090</ele>
        <time>2020-09-06T10:10:32.767Z</time>
      </trkpt>
      <trkpt lat="48.39291" lon="7.26839">
        <ele>1090</ele>
        <time>2020-09-06T10:10:33.767Z</time>
      </trkpt>
      <trkpt lat="48.3929" lon="7.26839">
        <ele>1090</ele>
        <time>2020-09-06T10:10:34.767Z</time>
      </trkpt>
      <trkpt lat="48.39289" lon="7.26839">
        <ele>1091</ele>
        <time>2020-09-06T10:10:35.767Z</time>
      </trkpt>
      <trkpt lat="48.39288" lon="7.26839">
        <ele>1091</ele>
        <time>2020-09-06T10:10:36.767Z</time>
      </trkpt>
      <trkpt lat="48.39287" lon="7.26838">
        <ele>1091</ele>
        <time>2020-09-06T10:10:37.767Z</time>
      </trkpt>
      <trkpt lat="48.39286" lon="7.26838">
        <ele>1091</ele>
        <time>2020-09-06T10:10:38.767Z</time>
      </trkpt>
      <trkpt lat="48.39285" lon="7.26838">
        <ele>1091</ele>
        <time>2020-09-06T10:10:39.767Z</time>
      </trkpt>
      <trkpt lat="48.39283" lon="7.26838">
        <ele>1091</ele>
        <time>2020-09-06T10:10:40.767Z</time>
      </trkpt>
      <trkpt lat="48.39282" lon="7.26838">
        <ele>1091</ele>
        <time>2020-09-06T10:10:41.767Z</time>
      </trkpt>
      <trkpt lat="48.39281" lon="7.26837">
        <ele>1090</ele>
        <time>2020-09-06T10:10:42.767Z</time>
      </trkpt>
      <trkpt lat="48.3928" lon="7.26837">
        <ele>1090</ele>
        <time>2020-09-06T10:10:43.767Z</time>
      </trkpt>
      <trkpt lat="48.39279" lon="7.26836">
        <ele>1090</ele>
        <time>2020-09-06T10:10:44.767Z</time>
      </trkpt>
      <trkpt lat="48.39279" lon="7.26836">
        <ele>1090</ele>
        <time>2020-09-06T10:10:45.767Z</time>
      </trkpt>
      <trkpt lat="48.39278" lon="7.26835">
        <ele>1090</ele>
        <time>2020-09-06T10:10:46.767Z</time>
      </trkpt>
      <trkpt lat="48.39277" lon="7.26834">
        <ele>1090</ele>
        <time>2020-09-06T10:10:47.767Z</time>
      </trkpt>
      <trkpt lat="48.39276" lon="7.26834">
        <ele>1090</ele>
        <time>2020-09-06T10:10:48.767Z</time>
      </trkpt>
      <trkpt lat="48.39276" lon="7.26833">
        <ele>1090</ele>
        <time>2020-09-06T10:10:49.767Z</time>
      </trkpt>
      <trkpt lat="48.39275" lon="7.26833">
        <ele>1090</ele>
        <time>2020-09-06T10:10:50.767Z</time>
      </trkpt>
      <trkpt lat="48.39274" lon="7.26833">
        <ele>1091</ele>
        <time>2020-09-06T10:10:51.767Z</time>
      </trkpt>
      <trkpt lat="48.39273" lon="7.26833">
        <ele>1091</ele>
        <time>2020-09-06T10:10:52.767Z</time>
      </trkpt>
      <trkpt lat="48.3927" lon="7.26834">
        <ele>1092</ele>
        <time>2020-09-06T10:10:53.767Z</time>
      </trkpt>
      <trkpt lat="48.39269" lon="7.26833">
        <ele>1092</ele>
        <time>2020-09-06T10:10:54.767Z</time>
      </trkpt>
      <trkpt lat="48.39268" lon="7.26831">
        <ele>1092</ele>
        <time>2020-09-06T10:10:55.767Z</time>
      </trkpt>
      <trkpt lat="48.39266" lon="7.2683">
        <ele>1092</ele>
        <time>2020-09-06T10:10:56.767Z</time>
      </trkpt>
      <trkpt lat="48.39265" lon="7.26828">
        <ele>1091</ele>
        <time>2020-09-06T10:10:57.767Z</time>
      </trkpt>
      <trkpt lat="48.39265" lon="7.26827">
        <ele>1091</ele>
        <time>2020-09-06T10:10:58.767Z</time>
      </trkpt>
      <trkpt lat="48.39264" lon="7.26828">
        <ele>1090</ele>
        <time>2020-09-06T10:10:59.767Z</time>
      </trkpt>
      <trkpt lat="48.39263" lon="7.26827">
        <ele>1090</ele>
        <time>2020-09-06T10:11:00.767Z</time>
      </trkpt>
      <trkpt lat="48.39261" lon="7.26828">
        <ele>1090</ele>
        <time>2020-09-06T10:11:01.767Z</time>
      </trkpt>
      <trkpt lat="48.3926" lon="7.26828">
        <ele>1090</ele>
        <time>2020-09-06T10:11:02.767Z</time>
      </trkpt>
      <trkpt lat="48.39259" lon="7.26828">
        <ele>1089</ele>
        <time>2020-09-06T10:11:03.767Z</time>
      </trkpt>
      <trkpt lat="48.39259" lon="7.26829">
        <ele>1089</ele>
        <time>2020-09-06T10:11:04.767Z</time>
      </trkpt>
      <trkpt lat="48.39258" lon="7.26829">
        <ele>1089</ele>
        <time>2020-09-06T10:11:05.767Z</time>
      </trkpt>
      <trkpt lat="48.39257" lon="7.26828">
        <ele>1089</ele>
        <time>2020-09-06T10:11:06.767Z</time>
      </trkpt>
      <trkpt lat="48.39256" lon="7.26829">
        <ele>1090</ele>
        <time>2020-09-06T10:11:07.767Z</time>
      </trkpt>
      <trkpt lat="48.39255" lon="7.26829">
        <ele>1090</ele>
        <time>2020-09-06T10:11:08.767Z</time>
      </trkpt>
      <trkpt lat="48.39254" lon="7.26828">
        <ele>1090</ele>
        <time>2020-09-06T10:11:09.767Z</time>
      </trkpt>
      <trkpt lat="48.39254" lon="7.26828">
        <ele>1090</ele>
        <time>2020-09-06T10:11:10.767Z</time>
      </trkpt>
      <trkpt lat="48.39252" lon="7.26828">
        <ele>1091</ele>
        <time>2020-09-06T10:11:11.767Z</time>
      </trkpt>
      <trkpt lat="48.39252" lon="7.26828">
        <ele>1091</ele>
        <time>2020-09-06T10:11:12.767Z</time>
      </trkpt>
      <trkpt lat="48.39251" lon="7.26828">
        <ele>1091</ele>
        <time>2020-09-06T10:11:13.767Z</time>
      </trkpt>
      <trkpt lat="48.3925" lon="7.26827">
        <ele>1091</ele>
        <time>2020-09-06T10:11:14.767Z</time>
      </trkpt>
      <trkpt lat="48.39249" lon="7.26826">
        <ele>1091</ele>
        <time>2020-09-06T10:11:15.767Z</time>
      </trkpt>
      <trkpt lat="48.39249" lon="7.26826">
        <ele>1091</ele>
        <time>2020-09-06T10:11:16.767Z</time>
      </trkpt>
      <trkpt lat="48.39248" lon="7.26825">
        <ele>1091</ele>
        <time>2020-09-06T10:11:17.767Z</time>
      </trkpt>
      <trkpt lat="48.39247" lon="7.26825">
        <ele>1090</ele>
        <time>2020-09-06T10:11:18.767Z</time>
      </trkpt>
      <trkpt lat="48.39246" lon="7.26823">
        <ele>1090</ele>
        <time>2020-09-06T10:11:19.767Z</time>
      </trkpt>
      <trkpt lat="48.39245" lon="7.26824">
        <ele>1090</ele>
        <time>2020-09-06T10:11:20.767Z</time>
      </trkpt>
      <trkpt lat="48.39244" lon="7.26824">
        <ele>1089</ele>
        <time>2020-09-06T10:11:21.767Z</time>
      </trkpt>
      <trkpt lat="48.39243" lon="7.26824">
        <ele>1089</ele>
        <time>2020-09-06T10:11:22.767Z</time>
      </trkpt>
      <trkpt lat="48.39242" lon="7.26823">
        <ele>1089</ele>
        <time>2020-09-06T10:11:23.767Z</time>
      </trkpt>
      <trkpt lat="48.39242" lon="7.26822">
        <ele>1089</ele>
        <time>2020-09-06T10:11:24.767Z</time>
      </trkpt>
      <trkpt lat="48.39241" lon="7.26822">
        <ele>1089</ele>
        <time>2020-09-06T10:11:25.767Z</time>
      </trkpt>
      <trkpt lat="48.3924" lon="7.26822">
        <ele>1089</ele>
        <time>2020-09-06T10:11:26.767Z</time>
      </trkpt>
      <trkpt lat="48.3924" lon="7.26822">
        <ele>1089</ele>
        <time>2020-09-06T10:11:27.767Z</time>
      </trkpt>
      <trkpt lat="48.3924" lon="7.26822">
        <ele>1089</ele>
        <time>2020-09-06T10:11:28.767Z</time>
      </trkpt>
      <trkpt lat="48.39239" lon="7.26823">
        <ele>1089</ele>
        <time>2020-09-06T10:11:29.767Z</time>
      </trkpt>
      <trkpt lat="48.39238" lon="7.26823">
        <ele>1089</ele>
        <time>2020-09-06T10:11:30.767Z</time>
      </trkpt>
      <trkpt lat="48.39236" lon="7.26823">
        <ele>1090</ele>
        <time>2020-09-06T10:11:31.767Z</time>
      </trkpt>
      <trkpt lat="48.39235" lon="7.26822">
        <ele>1090</ele>
        <time>2020-09-06T10:11:32.767Z</time>
      </trkpt>
      <trkpt lat="48.39234" lon="7.26822">
        <ele>1091</ele>
        <time>2020-09-06T10:11:33.767Z</time>
      </trkpt>
      <trkpt lat="48.39233" lon="7.26821">
        <ele>1091</ele>
        <time>2020-09-06T10:11:34.767Z</time>
      </trkpt>
      <trkpt lat="48.39232" lon="7.26822">
        <ele>1091</ele>
        <time>2020-09-06T10:11:35.767Z</time>
      </trkpt>
      <trkpt lat="48.39231" lon="7.26822">
        <ele>1092</ele>
        <time>2020-09-06T10:11:36.767Z</time>
      </trkpt>
      <trkpt lat="48.3923" lon="7.26822">
        <ele>1093</ele>
        <time>2020-09-06T10:11:37.767Z</time>
      </trkpt>
      <trkpt lat="48.39229" lon="7.26821">
        <ele>1093</ele>
        <time>2020-09-06T10:11:38.767Z</time>
      </trkpt>
      <trkpt lat="48.39228" lon="7.26821">
        <ele>1093</ele>
        <time>2020-09-06T10:11:39.767Z</time>
      </trkpt>
      <trkpt lat="48.39227" lon="7.2682">
        <ele>1093</ele>
        <time>2020-09-06T10:11:40.767Z</time>
      </trkpt>
      <trkpt lat="48.39226" lon="7.26819">
        <ele>1093</ele>
        <time>2020-09-06T10:11:41.767Z</time>
      </trkpt>
      <trkpt lat="48.39225" lon="7.26818">
        <ele>1093</ele>
        <time>2020-09-06T10:11:42.767Z</time>
      </trkpt>
      <trkpt lat="48.39224" lon="7.26817">
        <ele>1092</ele>
        <time>2020-09-06T10:11:43.767Z</time>
      </trkpt>
      <trkpt lat="48.39223" lon="7.26817">
        <ele>1092</ele>
        <time>2020-09-06T10:11:44.767Z</time>
      </trkpt>
      <trkpt lat="48.39222" lon="7.26816">
        <ele>1092</ele>
        <time>2020-09-06T10:11:45.767Z</time>
      </trkpt>
      <trkpt lat="48.39221" lon="7.26815">
        <ele>1092</ele>
        <time>2020-09-06T10:11:46.767Z</time>
      </trkpt>
      <trkpt lat="48.3922" lon="7.26815">
        <ele>1091</ele>
        <time>2020-09-06T10:11:47.767Z</time>
      </trkpt>
      <trkpt lat="48.39219" lon="7.26814">
        <ele>1091</ele>
        <time>2020-09-06T10:11:48.767Z</time>
      </trkpt>
      <trkpt lat="48.39218" lon="7.26813">
        <ele>1090</ele>
        <time>2020-09-06T10:11:49.767Z</time>
      </trkpt>
      <trkpt lat="48.39217" lon="7.26813">
        <ele>1089</ele>
        <time>2020-09-06T10:11:50.767Z</time>
      </trkpt>
      <trkpt lat="48.39215" lon="7.26813">
        <ele>1088</ele>
        <time>2020-09-06T10:11:51.767Z</time>
      </trkpt>
      <trkpt lat="48.39214" lon="7.26813">
        <ele>1087</ele>
        <time>2020-09-06T10:11:52.767Z</time>
      </trkpt>
      <trkpt lat="48.39212" lon="7.26811">
        <ele>1087</ele>
        <time>2020-09-06T10:11:53.767Z</time>
      </trkpt>
      <trkpt lat="48.39212" lon="7.26809">
        <ele>1086</ele>
        <time>2020-09-06T10:11:54.767Z</time>
      </trkpt>
      <trkpt lat="48.39212" lon="7.26808">
        <ele>1086</ele>
        <time>2020-09-06T10:11:55.767Z</time>
      </trkpt>
      <trkpt lat="48.39212" lon="7.26806">
        <ele>1085</ele>
        <time>2020-09-06T10:11:56.767Z</time>
      </trkpt>
      <trkpt lat="48.39211" lon="7.26805">
        <ele>1085</ele>
        <time>2020-09-06T10:11:57.767Z</time>
      </trkpt>
      <trkpt lat="48.39211" lon="7.26804">
        <ele>1084</ele>
        <time>2020-09-06T10:11:58.767Z</time>
      </trkpt>
      <trkpt lat="48.3921" lon="7.26805">
        <ele>1083</ele>
        <time>2020-09-06T10:11:59.767Z</time>
      </trkpt>
      <trkpt lat="48.39209" lon="7.26806">
        <ele>1083</ele>
        <time>2020-09-06T10:12:00.767Z</time>
      </trkpt>
      <trkpt lat="48.39208" lon="7.26806">
        <ele>1083</ele>
        <time>2020-09-06T10:12:01.767Z</time>
      </trkpt>
      <trkpt lat="48.39207" lon="7.26806">
        <ele>1083</ele>
        <time>2020-09-06T10:12:02.767Z</time>
      </trkpt>
      <trkpt lat="48.39206" lon="7.26806">
        <ele>1083</ele>
        <time>2020-09-06T10:12:03.767Z</time>
      </trkpt>
      <trkpt lat="48.39205" lon="7.26806">
        <ele>1084</ele>
        <time>2020-09-06T10:12:04.767Z</time>
      </trkpt>
      <trkpt lat="48.39204" lon="7.26805">
        <ele>1084</ele>
        <time>2020-09-06T10:12:05.767Z</time>
      </trkpt>
      <trkpt lat="48.39203" lon="7.26805">
        <ele>1085</ele>
        <time>2020-09-06T10:12:06.767Z</time>
      </trkpt>
      <trkpt lat="48.39202" lon="7.26804">
        <ele>1085</ele>
        <time>2020-09-06T10:12:07.767Z</time>
      </trkpt>
      <trkpt lat="48.39202" lon="7.26802">
        <ele>1085</ele>
        <time>2020-09-06T10:12:08.767Z</time>
      </trkpt>
      <trkpt lat="48.39201" lon="7.26802">
        <ele>1084</ele>
        <time>2020-09-06T10:12:09.767Z</time>
      </trkpt>
      <trkpt lat="48.392" lon="7.26802">
        <ele>1084</ele>
        <time>2020-09-06T10:12:10.767Z</time>
      </trkpt>
      <trkpt lat="48.39199" lon="7.26801">
        <ele>1083</ele>
        <time>2020-09-06T10:12:11.767Z</time>
      </trkpt>
      <trkpt lat="48.39198" lon="7.26801">
        <ele>1082</ele>
        <time>2020-09-06T10:12:12.767Z</time>
      </trkpt>
      <trkpt lat="48.39197" lon="7.26801">
        <ele>1082</ele>
        <time>2020-09-06T10:12:13.767Z</time>
      </trkpt>
      <trkpt lat="48.39196" lon="7.26801">
        <ele>1082</ele>
        <time>2020-09-06T10:12:14.767Z</time>
      </trkpt>
      <trkpt lat="48.39195" lon="7.26802">
        <ele>1081</ele>
        <time>2020-09-06T10:12:15.767Z</time>
      </trkpt>
      <trkpt lat="48.39193" lon="7.268">
        <ele>1081</ele>
        <time>2020-09-06T10:12:16.767Z</time>
      </trkpt>
      <trkpt lat="48.39192" lon="7.26799">
        <ele>1081</ele>
        <time>2020-09-06T10:12:17.767Z</time>
      </trkpt>
      <trkpt lat="48.39191" lon="7.26798">
        <ele>1081</ele>
        <time>2020-09-06T10:12:18.767Z</time>
      </trkpt>
      <trkpt lat="48.3919" lon="7.26797">
        <ele>1081</ele>
        <time>2020-09-06T10:12:19.768Z</time>
      </trkpt>
      <trkpt lat="48.39189" lon="7.26796">
        <ele>1081</ele>
        <time>2020-09-06T10:12:20.768Z</time>
      </trkpt>
      <trkpt lat="48.39188" lon="7.26797">
        <ele>1082</ele>
        <time>2020-09-06T10:12:21.767Z</time>
      </trkpt>
      <trkpt lat="48.39187" lon="7.26796">
        <ele>1082</ele>
        <time>2020-09-06T10:12:22.767Z</time>
      </trkpt>
      <trkpt lat="48.39186" lon="7.26796">
        <ele>1082</ele>
        <time>2020-09-06T10:12:23.767Z</time>
      </trkpt>
      <trkpt lat="48.39185" lon="7.26795">
        <ele>1082</ele>
        <time>2020-09-06T10:12:24.768Z</time>
      </trkpt>
      <trkpt lat="48.39184" lon="7.26795">
        <ele>1081</ele>
        <time>2020-09-06T10:12:25.767Z</time>
      </trkpt>
      <trkpt lat="48.39184" lon="7.26795">
        <ele>1081</ele>
        <time>2020-09-06T10:12:26.768Z</time>
      </trkpt>
      <trkpt lat="48.39183" lon="7.26794">
        <ele>1081</ele>
        <time>2020-09-06T10:12:27.768Z</time>
      </trkpt>
      <trkpt lat="48.39182" lon="7.26793">
        <ele>1081</ele>
        <time>2020-09-06T10:12:28.768Z</time>
      </trkpt>
      <trkpt lat="48.39181" lon="7.26792">
        <ele>1081</ele>
        <time>2020-09-06T10:12:29.767Z</time>
      </trkpt>
      <trkpt lat="48.3918" lon="7.26791">
        <ele>1080</ele>
        <time>2020-09-06T10:12:30.768Z</time>
      </trkpt>
      <trkpt lat="48.39179" lon="7.26791">
        <ele>1079</ele>
        <time>2020-09-06T10:12:31.768Z</time>
      </trkpt>
      <trkpt lat="48.39177" lon="7.2679">
        <ele>1079</ele>
        <time>2020-09-06T10:12:32.768Z</time>
      </trkpt>
      <trkpt lat="48.39176" lon="7.2679">
        <ele>1079</ele>
        <time>2020-09-06T10:12:33.768Z</time>
      </trkpt>
      <trkpt lat="48.39176" lon="7.26789">
        <ele>1079</ele>
        <time>2020-09-06T10:12:34.768Z</time>
      </trkpt>
      <trkpt lat="48.39175" lon="7.26789">
        <ele>1079</ele>
        <time>2020-09-06T10:12:35.768Z</time>
      </trkpt>
      <trkpt lat="48.39174" lon="7.26788">
        <ele>1080</ele>
        <time>2020-09-06T10:12:36.768Z</time>
      </trkpt>
      <trkpt lat="48.39173" lon="7.26787">
        <ele>1080</ele>
        <time>2020-09-06T10:12:37.768Z</time>
      </trkpt>
      <trkpt lat="48.39172" lon="7.26785">
        <ele>1081</ele>
        <time>2020-09-06T10:12:38.767Z</time>
      </trkpt>
      <trkpt lat="48.39171" lon="7.26783">
        <ele>1082</ele>
        <time>2020-09-06T10:12:39.768Z</time>
      </trkpt>
      <trkpt lat="48.3917" lon="7.26782">
        <ele>1083</ele>
        <time>2020-09-06T10:12:40.768Z</time>
      </trkpt>
      <trkpt lat="48.3917" lon="7.26781">
        <ele>1083</ele>
        <time>2020-09-06T10:12:41.767Z</time>
      </trkpt>
      <trkpt lat="48.39169" lon="7.2678">
        <ele>1084</ele>
        <time>2020-09-06T10:12:42.768Z</time>
      </trkpt>
      <trkpt lat="48.39168" lon="7.26779">
        <ele>1084</ele>
        <time>2020-09-06T10:12:43.768Z</time>
      </trkpt>
      <trkpt lat="48.39167" lon="7.26779">
        <ele>1084</ele>
        <time>2020-09-06T10:12:44.768Z</time>
      </trkpt>
      <trkpt lat="48.39167" lon="7.26778">
        <ele>1084</ele>
        <time>2020-09-06T10:12:45.768Z</time>
      </trkpt>
      <trkpt lat="48.39166" lon="7.26778">
        <ele>1083</ele>
        <time>2020-09-06T10:12:46.767Z</time>
      </trkpt>
      <trkpt lat="48.39165" lon="7.26777">
        <ele>1083</ele>
        <time>2020-09-06T10:12:47.768Z</time>
      </trkpt>
      <trkpt lat="48.39164" lon="7.26777">
        <ele>1082</ele>
        <time>2020-09-06T10:12:48.767Z</time>
      </trkpt>
      <trkpt lat="48.39164" lon="7.26777">
        <ele>1081</ele>
        <time>2020-09-06T10:12:49.768Z</time>
      </trkpt>
      <trkpt lat="48.39163" lon="7.26776">
        <ele>1081</ele>
        <time>2020-09-06T10:12:50.768Z</time>
      </trkpt>
      <trkpt lat="48.39161" lon="7.26776">
        <ele>1080</ele>
        <time>2020-09-06T10:12:51.768Z</time>
      </trkpt>
      <trkpt lat="48.3916" lon="7.26774">
        <ele>1080</ele>
        <time>2020-09-06T10:12:52.768Z</time>
      </trkpt>
      <trkpt lat="48.3916" lon="7.26771">
        <ele>1080</ele>
        <time>2020-09-06T10:12:53.768Z</time>
      </trkpt>
      <trkpt lat="48.3916" lon="7.26769">
        <ele>1079</ele>
        <time>2020-09-06T10:12:54.768Z</time>
      </trkpt>
      <trkpt lat="48.39159" lon="7.26768">
        <ele>1079</ele>
        <time>2020-09-06T10:12:55.768Z</time>
      </trkpt>
      <trkpt lat="48.39158" lon="7.26767">
        <ele>1078</ele>
        <time>2020-09-06T10:12:56.768Z</time>
      </trkpt>
      <trkpt lat="48.39157" lon="7.26767">
        <ele>1077</ele>
        <time>2020-09-06T10:12:57.767Z</time>
      </trkpt>
      <trkpt lat="48.39156" lon="7.26768">
        <ele>1076</ele>
        <time>2020-09-06T10:12:58.768Z</time>
      </trkpt>
      <trkpt lat="48.39155" lon="7.26766">
        <ele>1075</ele>
        <time>2020-09-06T10:12:59.768Z</time>
      </trkpt>
      <trkpt lat="48.39155" lon="7.26765">
        <ele>1074</ele>
        <time>2020-09-06T10:13:00.768Z</time>
      </trkpt>
      <trkpt lat="48.39154" lon="7.26764">
        <ele>1074</ele>
        <time>2020-09-06T10:13:01.768Z</time>
      </trkpt>
      <trkpt lat="48.39154" lon="7.26763">
        <ele>1074</ele>
        <time>2020-09-06T10:13:02.768Z</time>
      </trkpt>
      <trkpt lat="48.39153" lon="7.26763">
        <ele>1073</ele>
        <time>2020-09-06T10:13:03.767Z</time>
      </trkpt>
      <trkpt lat="48.39153" lon="7.26763">
        <ele>1073</ele>
        <time>2020-09-06T10:13:04.767Z</time>
      </trkpt>
      <trkpt lat="48.39152" lon="7.26762">
        <ele>1073</ele>
        <time>2020-09-06T10:13:05.768Z</time>
      </trkpt>
      <trkpt lat="48.39151" lon="7.26762">
        <ele>1073</ele>
        <time>2020-09-06T10:13:06.768Z</time>
      </trkpt>
      <trkpt lat="48.3915" lon="7.26761">
        <ele>1073</ele>
        <time>2020-09-06T10:13:07.768Z</time>
      </trkpt>
      <trkpt lat="48.39148" lon="7.26759">
        <ele>1073</ele>
        <time>2020-09-06T10:13:08.768Z</time>
      </trkpt>
      <trkpt lat="48.39147" lon="7.26759">
        <ele>1074</ele>
        <time>2020-09-06T10:13:09.767Z</time>
      </trkpt>
      <trkpt lat="48.39146" lon="7.26759">
        <ele>1074</ele>
        <time>2020-09-06T10:13:10.768Z</time>
      </trkpt>
      <trkpt lat="48.39145" lon="7.26759">
        <ele>1073</ele>
        <time>2020-09-06T10:13:11.768Z</time>
      </trkpt>
      <trkpt lat="48.39144" lon="7.2676">
        <ele>1073</ele>
        <time>2020-09-06T10:13:12.768Z</time>
      </trkpt>
      <trkpt lat="48.39143" lon="7.26759">
        <ele>1073</ele>
        <time>2020-09-06T10:13:13.767Z</time>
      </trkpt>
      <trkpt lat="48.39142" lon="7.26759">
        <ele>1073</ele>
        <time>2020-09-06T10:13:14.768Z</time>
      </trkpt>
      <trkpt lat="48.39141" lon="7.26759">
        <ele>1074</ele>
        <time>2020-09-06T10:13:15.768Z</time>
      </trkpt>
      <trkpt lat="48.39138" lon="7.26759">
        <ele>1074</ele>
        <time>2020-09-06T10:13:16.768Z</time>
      </trkpt>
      <trkpt lat="48.39137" lon="7.26759">
        <ele>1074</ele>
        <time>2020-09-06T10:13:17.768Z</time>
      </trkpt>
      <trkpt lat="48.39135" lon="7.26758">
        <ele>1074</ele>
        <time>2020-09-06T10:13:18.768Z</time>
      </trkpt>
      <trkpt lat="48.39134" lon="7.26758">
        <ele>1075</ele>
        <time>2020-09-06T10:13:19.768Z</time>
      </trkpt>
      <trkpt lat="48.39133" lon="7.26757">
        <ele>1075</ele>
        <time>2020-09-06T10:13:20.767Z</time>
      </trkpt>
      <trkpt lat="48.39132" lon="7.26756">
        <ele>1075</ele>
        <time>2020-09-06T10:13:21.768Z</time>
      </trkpt>
      <trkpt lat="48.39131" lon="7.26756">
        <ele>1075</ele>
        <time>2020-09-06T10:13:22.767Z</time>
      </trkpt>
      <trkpt lat="48.39131" lon="7.26756">
        <ele>1075</ele>
        <time>2020-09-06T10:13:23.767Z</time>
      </trkpt>
      <trkpt lat="48.39131" lon="7.26756">
        <ele>1075</ele>
        <time>2020-09-06T10:13:24.768Z</time>
      </trkpt>
      <trkpt lat="48.3913" lon="7.26755">
        <ele>1075</ele>
        <time>2020-09-06T10:13:25.768Z</time>
      </trkpt>
      <trkpt lat="48.39129" lon="7.26755">
        <ele>1074</ele>
        <time>2020-09-06T10:13:26.767Z</time>
      </trkpt>
      <trkpt lat="48.39126" lon="7.26754">
        <ele>1074</ele>
        <time>2020-09-06T10:13:27.767Z</time>
      </trkpt>
      <trkpt lat="48.39125" lon="7.26754">
        <ele>1074</ele>
        <time>2020-09-06T10:13:28.768Z</time>
      </trkpt>
      <trkpt lat="48.39123" lon="7.26754">
        <ele>1074</ele>
        <time>2020-09-06T10:13:29.768Z</time>
      </trkpt>
      <trkpt lat="48.39121" lon="7.26754">
        <ele>1074</ele>
        <time>2020-09-06T10:13:30.768Z</time>
      </trkpt>
      <trkpt lat="48.3912" lon="7.26753">
        <ele>1074</ele>
        <time>2020-09-06T10:13:31.768Z</time>
      </trkpt>
      <trkpt lat="48.3912" lon="7.26753">
        <ele>1074</ele>
        <time>2020-09-06T10:13:32.768Z</time>
      </trkpt>
      <trkpt lat="48.39119" lon="7.26752">
        <ele>1074</ele>
        <time>2020-09-06T10:13:33.768Z</time>
      </trkpt>
      <trkpt lat="48.39118" lon="7.26751">
        <ele>1074</ele>
        <time>2020-09-06T10:13:34.767Z</time>
      </trkpt>
      <trkpt lat="48.39118" lon="7.26749">
        <ele>1073</ele>
        <time>2020-09-06T10:13:35.767Z</time>
      </trkpt>
      <trkpt lat="48.39118" lon="7.26748">
        <ele>1073</ele>
        <time>2020-09-06T10:13:36.767Z</time>
      </trkpt>
      <trkpt lat="48.39117" lon="7.26747">
        <ele>1072</ele>
        <time>2020-09-06T10:13:37.768Z</time>
      </trkpt>
      <trkpt lat="48.39116" lon="7.26746">
        <ele>1072</ele>
        <time>2020-09-06T10:13:38.767Z</time>
      </trkpt>
      <trkpt lat="48.39115" lon="7.26746">
        <ele>1072</ele>
        <time>2020-09-06T10:13:39.768Z</time>
      </trkpt>
      <trkpt lat="48.39114" lon="7.26745">
        <ele>1072</ele>
        <time>2020-09-06T10:13:40.768Z</time>
      </trkpt>
      <trkpt lat="48.39114" lon="7.26744">
        <ele>1071</ele>
        <time>2020-09-06T10:13:41.768Z</time>
      </trkpt>
      <trkpt lat="48.39113" lon="7.26744">
        <ele>1070</ele>
        <time>2020-09-06T10:13:42.767Z</time>
      </trkpt>
      <trkpt lat="48.39112" lon="7.26743">
        <ele>1069</ele>
        <time>2020-09-06T10:13:43.768Z</time>
      </trkpt>
      <trkpt lat="48.39111" lon="7.26741">
        <ele>1069</ele>
        <time>2020-09-06T10:13:44.768Z</time>
      </trkpt>
      <trkpt lat="48.39111" lon="7.26741">
        <ele>1068</ele>
        <time>2020-09-06T10:13:45.767Z</time>
      </trkpt>
      <trkpt lat="48.39109" lon="7.26741">
        <ele>1068</ele>
        <time>2020-09-06T10:13:46.768Z</time>
      </trkpt>
      <trkpt lat="48.39108" lon="7.26741">
        <ele>1069</ele>
        <time>2020-09-06T10:13:47.767Z</time>
      </trkpt>
      <trkpt lat="48.39107" lon="7.26741">
        <ele>1069</ele>
        <time>2020-09-06T10:13:48.767Z</time>
      </trkpt>
      <trkpt lat="48.39106" lon="7.26741">
        <ele>1069</ele>
        <time>2020-09-06T10:13:49.768Z</time>
      </trkpt>
      <trkpt lat="48.39105" lon="7.2674">
        <ele>1069</ele>
        <time>2020-09-06T10:13:50.768Z</time>
      </trkpt>
      <trkpt lat="48.39104" lon="7.26739">
        <ele>1069</ele>
        <time>2020-09-06T10:13:51.768Z</time>
      </trkpt>
      <trkpt lat="48.39103" lon="7.26737">
        <ele>1069</ele>
        <time>2020-09-06T10:13:52.768Z</time>
      </trkpt>
      <trkpt lat="48.39101" lon="7.26736">
        <ele>1069</ele>
        <time>2020-09-06T10:13:53.768Z</time>
      </trkpt>
      <trkpt lat="48.391" lon="7.26736">
        <ele>1069</ele>
        <time>2020-09-06T10:13:54.768Z</time>
      </trkpt>
      <trkpt lat="48.39099" lon="7.26735">
        <ele>1068</ele>
        <time>2020-09-06T10:13:55.768Z</time>
      </trkpt>
      <trkpt lat="48.39098" lon="7.26734">
        <ele>1068</ele>
        <time>2020-09-06T10:13:56.768Z</time>
      </trkpt>
      <trkpt lat="48.39097" lon="7.26733">
        <ele>1068</ele>
        <time>2020-09-06T10:13:57.768Z</time>
      </trkpt>
      <trkpt lat="48.39096" lon="7.26733">
        <ele>1068</ele>
        <time>2020-09-06T10:13:58.767Z</time>
      </trkpt>
      <trkpt lat="48.39095" lon="7.26732">
        <ele>1068</ele>
        <time>2020-09-06T10:13:59.767Z</time>
      </trkpt>
      <trkpt lat="48.39093" lon="7.26732">
        <ele>1068</ele>
        <time>2020-09-06T10:14:00.768Z</time>
      </trkpt>
      <trkpt lat="48.39092" lon="7.26731">
        <ele>1068</ele>
        <time>2020-09-06T10:14:01.768Z</time>
      </trkpt>
      <trkpt lat="48.39091" lon="7.26729">
        <ele>1067</ele>
        <time>2020-09-06T10:14:02.768Z</time>
      </trkpt>
      <trkpt lat="48.3909" lon="7.26728">
        <ele>1067</ele>
        <time>2020-09-06T10:14:03.768Z</time>
      </trkpt>
      <trkpt lat="48.39088" lon="7.26727">
        <ele>1067</ele>
        <time>2020-09-06T10:14:04.768Z</time>
      </trkpt>
      <trkpt lat="48.39087" lon="7.26726">
        <ele>1066</ele>
        <time>2020-09-06T10:14:05.768Z</time>
      </trkpt>
      <trkpt lat="48.39086" lon="7.26725">
        <ele>1065</ele>
        <time>2020-09-06T10:14:06.768Z</time>
      </trkpt>
      <trkpt lat="48.39086" lon="7.26724">
        <ele>1065</ele>
        <time>2020-09-06T10:14:07.768Z</time>
      </trkpt>
      <trkpt lat="48.39085" lon="7.26723">
        <ele>1064</ele>
        <time>2020-09-06T10:14:08.768Z</time>
      </trkpt>
      <trkpt lat="48.39083" lon="7.26722">
        <ele>1063</ele>
        <time>2020-09-06T10:14:09.768Z</time>
      </trkpt>
      <trkpt lat="48.39082" lon="7.26721">
        <ele>1063</ele>
        <time>2020-09-06T10:14:10.768Z</time>
      </trkpt>
      <trkpt lat="48.3908" lon="7.26721">
        <ele>1063</ele>
        <time>2020-09-06T10:14:11.768Z</time>
      </trkpt>
      <trkpt lat="48.39079" lon="7.2672">
        <ele>1063</ele>
        <time>2020-09-06T10:14:12.767Z</time>
      </trkpt>
      <trkpt lat="48.39078" lon="7.26721">
        <ele>1064</ele>
        <time>2020-09-06T10:14:13.768Z</time>
      </trkpt>
      <trkpt lat="48.39077" lon="7.2672">
        <ele>1064</ele>
        <time>2020-09-06T10:14:14.768Z</time>
      </trkpt>
      <trkpt lat="48.39076" lon="7.26719">
        <ele>1064</ele>
        <time>2020-09-06T10:14:15.768Z</time>
      </trkpt>
      <trkpt lat="48.39076" lon="7.26717">
        <ele>1064</ele>
        <time>2020-09-06T10:14:16.768Z</time>
      </trkpt>
      <trkpt lat="48.39075" lon="7.26716">
        <ele>1064</ele>
        <time>2020-09-06T10:14:17.767Z</time>
      </trkpt>
      <trkpt lat="48.39074" lon="7.26716">
        <ele>1064</ele>
        <time>2020-09-06T10:14:18.768Z</time>
      </trkpt>
      <trkpt lat="48.39074" lon="7.26715">
        <ele>1065</ele>
        <time>2020-09-06T10:14:19.767Z</time>
      </trkpt>
      <trkpt lat="48.39073" lon="7.26716">
        <ele>1065</ele>
        <time>2020-09-06T10:14:20.768Z</time>
      </trkpt>
      <trkpt lat="48.39072" lon="7.26715">
        <ele>1065</ele>
        <time>2020-09-06T10:14:21.768Z</time>
      </trkpt>
      <trkpt lat="48.39072" lon="7.26715">
        <ele>1066</ele>
        <time>2020-09-06T10:14:22.768Z</time>
      </trkpt>
      <trkpt lat="48.39071" lon="7.26713">
        <ele>1066</ele>
        <time>2020-09-06T10:14:23.768Z</time>
      </trkpt>
      <trkpt lat="48.3907" lon="7.26713">
        <ele>1066</ele>
        <time>2020-09-06T10:14:24.768Z</time>
      </trkpt>
      <trkpt lat="48.39069" lon="7.26712">
        <ele>1066</ele>
        <time>2020-09-06T10:14:25.768Z</time>
      </trkpt>
      <trkpt lat="48.39068" lon="7.26711">
        <ele>1066</ele>
        <time>2020-09-06T10:14:26.768Z</time>
      </trkpt>
      <trkpt lat="48.39067" lon="7.26711">
        <ele>1065</ele>
        <time>2020-09-06T10:14:27.768Z</time>
      </trkpt>
      <trkpt lat="48.39066" lon="7.26709">
        <ele>1065</ele>
        <time>2020-09-06T10:14:28.767Z</time>
      </trkpt>
      <trkpt lat="48.39065" lon="7.26709">
        <ele>1065</ele>
        <time>2020-09-06T10:14:29.768Z</time>
      </trkpt>
      <trkpt lat="48.39065" lon="7.26708">
        <ele>1064</ele>
        <time>2020-09-06T10:14:30.767Z</time>
      </trkpt>
      <trkpt lat="48.39065" lon="7.26707">
        <ele>1064</ele>
        <time>2020-09-06T10:14:31.768Z</time>
      </trkpt>
      <trkpt lat="48.39065" lon="7.26706">
        <ele>1064</ele>
        <time>2020-09-06T10:14:32.767Z</time>
      </trkpt>
      <trkpt lat="48.39063" lon="7.26704">
        <ele>1063</ele>
        <time>2020-09-06T10:14:33.768Z</time>
      </trkpt>
      <trkpt lat="48.39062" lon="7.26704">
        <ele>1063</ele>
        <time>2020-09-06T10:14:34.768Z</time>
      </trkpt>
      <trkpt lat="48.39061" lon="7.26705">
        <ele>1062</ele>
        <time>2020-09-06T10:14:35.768Z</time>
      </trkpt>
      <trkpt lat="48.3906" lon="7.26704">
        <ele>1062</ele>
        <time>2020-09-06T10:14:36.768Z</time>
      </trkpt>
      <trkpt lat="48.39059" lon="7.26705">
        <ele>1061</ele>
        <time>2020-09-06T10:14:37.768Z</time>
      </trkpt>
      <trkpt lat="48.39059" lon="7.26704">
        <ele>1061</ele>
        <time>2020-09-06T10:14:38.768Z</time>
      </trkpt>
      <trkpt lat="48.39059" lon="7.26704">
        <ele>1061</ele>
        <time>2020-09-06T10:14:39.768Z</time>
      </trkpt>
      <trkpt lat="48.3906" lon="7.26704">
        <ele>1061</ele>
        <time>2020-09-06T10:14:40.768Z</time>
      </trkpt>
      <trkpt lat="48.39063" lon="7.26702">
        <ele>1060</ele>
        <time>2020-09-06T10:14:41.769Z</time>
      </trkpt>
      <trkpt lat="48.39063" lon="7.26701">
        <ele>1060</ele>
        <time>2020-09-06T10:14:42.768Z</time>
      </trkpt>
      <trkpt lat="48.39057" lon="7.26695">
        <ele>1060</ele>
        <time>2020-09-06T10:14:43.768Z</time>
      </trkpt>
      <trkpt lat="48.39056" lon="7.26693">
        <ele>1060</ele>
        <time>2020-09-06T10:14:44.769Z</time>
      </trkpt>
      <trkpt lat="48.39054" lon="7.26691">
        <ele>1060</ele>
        <time>2020-09-06T10:14:45.768Z</time>
      </trkpt>
      <trkpt lat="48.39053" lon="7.26689">
        <ele>1060</ele>
        <time>2020-09-06T10:14:46.768Z</time>
      </trkpt>
      <trkpt lat="48.39052" lon="7.26687">
        <ele>1059</ele>
        <time>2020-09-06T10:14:47.768Z</time>
      </trkpt>
      <trkpt lat="48.39051" lon="7.26686">
        <ele>1059</ele>
        <time>2020-09-06T10:14:48.768Z</time>
      </trkpt>
      <trkpt lat="48.39049" lon="7.26685">
        <ele>1059</ele>
        <time>2020-09-06T10:14:49.769Z</time>
      </trkpt>
      <trkpt lat="48.39048" lon="7.26685">
        <ele>1059</ele>
        <time>2020-09-06T10:14:50.769Z</time>
      </trkpt>
      <trkpt lat="48.39047" lon="7.26684">
        <ele>1059</ele>
        <time>2020-09-06T10:14:51.769Z</time>
      </trkpt>
      <trkpt lat="48.39046" lon="7.26682">
        <ele>1059</ele>
        <time>2020-09-06T10:14:52.768Z</time>
      </trkpt>
      <trkpt lat="48.39045" lon="7.26681">
        <ele>1059</ele>
        <time>2020-09-06T10:14:53.768Z</time>
      </trkpt>
      <trkpt lat="48.39044" lon="7.26679">
        <ele>1059</ele>
        <time>2020-09-06T10:14:54.769Z</time>
      </trkpt>
      <trkpt lat="48.39042" lon="7.26677">
        <ele>1059</ele>
        <time>2020-09-06T10:14:55.769Z</time>
      </trkpt>
      <trkpt lat="48.39041" lon="7.26676">
        <ele>1058</ele>
        <time>2020-09-06T10:14:56.769Z</time>
      </trkpt>
      <trkpt lat="48.39041" lon="7.26675">
        <ele>1058</ele>
        <time>2020-09-06T10:14:57.769Z</time>
      </trkpt>
      <trkpt lat="48.3904" lon="7.26674">
        <ele>1057</ele>
        <time>2020-09-06T10:14:58.768Z</time>
      </trkpt>
      <trkpt lat="48.3904" lon="7.26673">
        <ele>1056</ele>
        <time>2020-09-06T10:14:59.768Z</time>
      </trkpt>
      <trkpt lat="48.39039" lon="7.26671">
        <ele>1056</ele>
        <time>2020-09-06T10:15:00.769Z</time>
      </trkpt>
      <trkpt lat="48.39039" lon="7.2667">
        <ele>1055</ele>
        <time>2020-09-06T10:15:01.768Z</time>
      </trkpt>
      <trkpt lat="48.39038" lon="7.2667">
        <ele>1055</ele>
        <time>2020-09-06T10:15:02.769Z</time>
      </trkpt>
      <trkpt lat="48.39037" lon="7.26669">
        <ele>1055</ele>
        <time>2020-09-06T10:15:03.769Z</time>
      </trkpt>
      <trkpt lat="48.39037" lon="7.26668">
        <ele>1054</ele>
        <time>2020-09-06T10:15:04.768Z</time>
      </trkpt>
      <trkpt lat="48.39036" lon="7.26667">
        <ele>1054</ele>
        <time>2020-09-06T10:15:05.769Z</time>
      </trkpt>
      <trkpt lat="48.39035" lon="7.26666">
        <ele>1053</ele>
        <time>2020-09-06T10:15:06.769Z</time>
      </trkpt>
      <trkpt lat="48.39034" lon="7.26664">
        <ele>1052</ele>
        <time>2020-09-06T10:15:07.768Z</time>
      </trkpt>
      <trkpt lat="48.39033" lon="7.26663">
        <ele>1052</ele>
        <time>2020-09-06T10:15:08.768Z</time>
      </trkpt>
      <trkpt lat="48.39033" lon="7.26662">
        <ele>1052</ele>
        <time>2020-09-06T10:15:09.768Z</time>
      </trkpt>
      <trkpt lat="48.39032" lon="7.26662">
        <ele>1052</ele>
        <time>2020-09-06T10:15:10.768Z</time>
      </trkpt>
      <trkpt lat="48.39031" lon="7.26661">
        <ele>1051</ele>
        <time>2020-09-06T10:15:11.769Z</time>
      </trkpt>
      <trkpt lat="48.39031" lon="7.2666">
        <ele>1051</ele>
        <time>2020-09-06T10:15:12.769Z</time>
      </trkpt>
      <trkpt lat="48.3903" lon="7.26659">
        <ele>1051</ele>
        <time>2020-09-06T10:15:13.769Z</time>
      </trkpt>
      <trkpt lat="48.39029" lon="7.26658">
        <ele>1050</ele>
        <time>2020-09-06T10:15:14.769Z</time>
      </trkpt>
      <trkpt lat="48.39028" lon="7.26657">
        <ele>1050</ele>
        <time>2020-09-06T10:15:15.768Z</time>
      </trkpt>
      <trkpt lat="48.39028" lon="7.26657">
        <ele>1050</ele>
        <time>2020-09-06T10:15:16.769Z</time>
      </trkpt>
      <trkpt lat="48.39028" lon="7.26656">
        <ele>1050</ele>
        <time>2020-09-06T10:15:17.769Z</time>
      </trkpt>
      <trkpt lat="48.39027" lon="7.26656">
        <ele>1051</ele>
        <time>2020-09-06T10:15:18.768Z</time>
      </trkpt>
      <trkpt lat="48.39027" lon="7.26657">
        <ele>1052</ele>
        <time>2020-09-06T10:15:19.769Z</time>
      </trkpt>
      <trkpt lat="48.39026" lon="7.26656">
        <ele>1052</ele>
        <time>2020-09-06T10:15:20.769Z</time>
      </trkpt>
      <trkpt lat="48.39025" lon="7.26655">
        <ele>1053</ele>
        <time>2020-09-06T10:15:21.768Z</time>
      </trkpt>
      <trkpt lat="48.39025" lon="7.26654">
        <ele>1054</ele>
        <time>2020-09-06T10:15:22.768Z</time>
      </trkpt>
      <trkpt lat="48.39024" lon="7.26653">
        <ele>1054</ele>
        <time>2020-09-06T10:15:23.768Z</time>
      </trkpt>
      <trkpt lat="48.39023" lon="7.26651">
        <ele>1054</ele>
        <time>2020-09-06T10:15:24.769Z</time>
      </trkpt>
      <trkpt lat="48.39023" lon="7.2665">
        <ele>1054</ele>
        <time>2020-09-06T10:15:25.768Z</time>
      </trkpt>
      <trkpt lat="48.39022" lon="7.2665">
        <ele>1054</ele>
        <time>2020-09-06T10:15:26.768Z</time>
      </trkpt>
      <trkpt lat="48.39021" lon="7.2665">
        <ele>1054</ele>
        <time>2020-09-06T10:15:27.768Z</time>
      </trkpt>
      <trkpt lat="48.39021" lon="7.2665">
        <ele>1054</ele>
        <time>2020-09-06T10:15:28.769Z</time>
      </trkpt>
      <trkpt lat="48.3902" lon="7.26649">
        <ele>1054</ele>
        <time>2020-09-06T10:15:29.769Z</time>
      </trkpt>
      <trkpt lat="48.39019" lon="7.26647">
        <ele>1054</ele>
        <time>2020-09-06T10:15:30.768Z</time>
      </trkpt>
      <trkpt lat="48.39018" lon="7.26645">
        <ele>1054</ele>
        <time>2020-09-06T10:15:31.769Z</time>
      </trkpt>
      <trkpt lat="48.39017" lon="7.26644">
        <ele>1054</ele>
        <time>2020-09-06T10:15:32.769Z</time>
      </trkpt>
      <trkpt lat="48.39016" lon="7.26642">
        <ele>1053</ele>
        <time>2020-09-06T10:15:33.769Z</time>
      </trkpt>
      <trkpt lat="48.39016" lon="7.26641">
        <ele>1053</ele>
        <time>2020-09-06T10:15:34.769Z</time>
      </trkpt>
      <trkpt lat="48.39016" lon="7.2664">
        <ele>1052</ele>
        <time>2020-09-06T10:15:35.768Z</time>
      </trkpt>
      <trkpt lat="48.39015" lon="7.26638">
        <ele>1051</ele>
        <time>2020-09-06T10:15:36.768Z</time>
      </trkpt>
      <trkpt lat="48.39015" lon="7.26637">
        <ele>1051</ele>
        <time>2020-09-06T10:15:37.768Z</time>
      </trkpt>
      <trkpt lat="48.39014" lon="7.26636">
        <ele>1050</ele>
        <time>2020-09-06T10:15:38.769Z</time>
      </trkpt>
      <trkpt lat="48.39013" lon="7.26635">
        <ele>1050</ele>
        <time>2020-09-06T10:15:39.768Z</time>
      </trkpt>
      <trkpt lat="48.39012" lon="7.26634">
        <ele>1050</ele>
        <time>2020-09-06T10:15:40.768Z</time>
      </trkpt>
      <trkpt lat="48.39011" lon="7.26633">
        <ele>1050</ele>
        <time>2020-09-06T10:15:41.769Z</time>
      </trkpt>
      <trkpt lat="48.3901" lon="7.26631">
        <ele>1050</ele>
        <time>2020-09-06T10:15:42.769Z</time>
      </trkpt>
      <trkpt lat="48.3901" lon="7.2663">
        <ele>1050</ele>
        <time>2020-09-06T10:15:43.768Z</time>
      </trkpt>
      <trkpt lat="48.39009" lon="7.26629">
        <ele>1051</ele>
        <time>2020-09-06T10:15:44.769Z</time>
      </trkpt>
      <trkpt lat="48.39009" lon="7.26628">
        <ele>1051</ele>
        <time>2020-09-06T10:15:45.769Z</time>
      </trkpt>
      <trkpt lat="48.3901" lon="7.26626">
        <ele>1050</ele>
        <time>2020-09-06T10:15:46.769Z</time>
      </trkpt>
      <trkpt lat="48.3901" lon="7.26624">
        <ele>1050</ele>
        <time>2020-09-06T10:15:47.769Z</time>
      </trkpt>
      <trkpt lat="48.39009" lon="7.26623">
        <ele>1050</ele>
        <time>2020-09-06T10:15:48.768Z</time>
      </trkpt>
      <trkpt lat="48.39009" lon="7.26622">
        <ele>1050</ele>
        <time>2020-09-06T10:15:49.769Z</time>
      </trkpt>
      <trkpt lat="48.39008" lon="7.26621">
        <ele>1050</ele>
        <time>2020-09-06T10:15:50.769Z</time>
      </trkpt>
      <trkpt lat="48.39007" lon="7.2662">
        <ele>1050</ele>
        <time>2020-09-06T10:15:51.769Z</time>
      </trkpt>
      <trkpt lat="48.39006" lon="7.26619">
        <ele>1051</ele>
        <time>2020-09-06T10:15:52.769Z</time>
      </trkpt>
      <trkpt lat="48.39006" lon="7.26619">
        <ele>1051</ele>
        <time>2020-09-06T10:15:53.769Z</time>
      </trkpt>
      <trkpt lat="48.39005" lon="7.26618">
        <ele>1051</ele>
        <time>2020-09-06T10:15:54.768Z</time>
      </trkpt>
      <trkpt lat="48.39005" lon="7.26617">
        <ele>1050</ele>
        <time>2020-09-06T10:15:55.769Z</time>
      </trkpt>
      <trkpt lat="48.39005" lon="7.26615">
        <ele>1050</ele>
        <time>2020-09-06T10:15:56.768Z</time>
      </trkpt>
      <trkpt lat="48.39004" lon="7.26614">
        <ele>1050</ele>
        <time>2020-09-06T10:15:57.768Z</time>
      </trkpt>
      <trkpt lat="48.39003" lon="7.26613">
        <ele>1050</ele>
        <time>2020-09-06T10:15:58.769Z</time>
      </trkpt>
      <trkpt lat="48.39002" lon="7.26611">
        <ele>1050</ele>
        <time>2020-09-06T10:15:59.769Z</time>
      </trkpt>
      <trkpt lat="48.39002" lon="7.2661">
        <ele>1049</ele>
        <time>2020-09-06T10:16:00.769Z</time>
      </trkpt>
      <trkpt lat="48.39001" lon="7.26609">
        <ele>1049</ele>
        <time>2020-09-06T10:16:01.769Z</time>
      </trkpt>
      <trkpt lat="48.39" lon="7.26607">
        <ele>1049</ele>
        <time>2020-09-06T10:16:02.769Z</time>
      </trkpt>
      <trkpt lat="48.38999" lon="7.26605">
        <ele>1048</ele>
        <time>2020-09-06T10:16:03.768Z</time>
      </trkpt>
      <trkpt lat="48.38998" lon="7.26604">
        <ele>1048</ele>
        <time>2020-09-06T10:16:04.769Z</time>
      </trkpt>
      <trkpt lat="48.38996" lon="7.26604">
        <ele>1048</ele>
        <time>2020-09-06T10:16:05.768Z</time>
      </trkpt>
      <trkpt lat="48.38994" lon="7.26603">
        <ele>1048</ele>
        <time>2020-09-06T10:16:06.769Z</time>
      </trkpt>
      <trkpt lat="48.38993" lon="7.26599">
        <ele>1048</ele>
        <time>2020-09-06T10:16:07.769Z</time>
      </trkpt>
      <trkpt lat="48.38992" lon="7.26597">
        <ele>1047</ele>
        <time>2020-09-06T10:16:08.769Z</time>
      </trkpt>
      <trkpt lat="48.38992" lon="7.26595">
        <ele>1047</ele>
        <time>2020-09-06T10:16:09.769Z</time>
      </trkpt>
      <trkpt lat="48.38992" lon="7.26593">
        <ele>1046</ele>
        <time>2020-09-06T10:16:10.768Z</time>
      </trkpt>
      <trkpt lat="48.38992" lon="7.26592">
        <ele>1045</ele>
        <time>2020-09-06T10:16:11.769Z</time>
      </trkpt>
      <trkpt lat="48.38992" lon="7.26591">
        <ele>1044</ele>
        <time>2020-09-06T10:16:12.769Z</time>
      </trkpt>
      <trkpt lat="48.38991" lon="7.26589">
        <ele>1044</ele>
        <time>2020-09-06T10:16:13.769Z</time>
      </trkpt>
      <trkpt lat="48.3899" lon="7.26588">
        <ele>1043</ele>
        <time>2020-09-06T10:16:14.769Z</time>
      </trkpt>
      <trkpt lat="48.38989" lon="7.26586">
        <ele>1043</ele>
        <time>2020-09-06T10:16:15.769Z</time>
      </trkpt>
      <trkpt lat="48.38989" lon="7.26585">
        <ele>1043</ele>
        <time>2020-09-06T10:16:16.768Z</time>
      </trkpt>
      <trkpt lat="48.38989" lon="7.26584">
        <ele>1043</ele>
        <time>2020-09-06T10:16:17.769Z</time>
      </trkpt>
      <trkpt lat="48.38988" lon="7.26583">
        <ele>1043</ele>
        <time>2020-09-06T10:16:18.769Z</time>
      </trkpt>
      <trkpt lat="48.38988" lon="7.26582">
        <ele>1043</ele>
        <time>2020-09-06T10:16:19.768Z</time>
      </trkpt>
      <trkpt lat="48.38987" lon="7.26581">
        <ele>1043</ele>
        <time>2020-09-06T10:16:20.769Z</time>
      </trkpt>
      <trkpt lat="48.38986" lon="7.2658">
        <ele>1043</ele>
        <time>2020-09-06T10:16:21.769Z</time>
      </trkpt>
      <trkpt lat="48.38985" lon="7.26579">
        <ele>1043</ele>
        <time>2020-09-06T10:16:22.769Z</time>
      </trkpt>
      <trkpt lat="48.38984" lon="7.26576">
        <ele>1043</ele>
        <time>2020-09-06T10:16:23.768Z</time>
      </trkpt>
      <trkpt lat="48.38983" lon="7.26575">
        <ele>1043</ele>
        <time>2020-09-06T10:16:24.769Z</time>
      </trkpt>
      <trkpt lat="48.38982" lon="7.26573">
        <ele>1042</ele>
        <time>2020-09-06T10:16:25.769Z</time>
      </trkpt>
      <trkpt lat="48.38981" lon="7.26571">
        <ele>1042</ele>
        <time>2020-09-06T10:16:26.768Z</time>
      </trkpt>
      <trkpt lat="48.38979" lon="7.26567">
        <ele>1042</ele>
        <time>2020-09-06T10:16:27.769Z</time>
      </trkpt>
      <trkpt lat="48.38977" lon="7.26564">
        <ele>1042</ele>
        <time>2020-09-06T10:16:28.769Z</time>
      </trkpt>
      <trkpt lat="48.38975" lon="7.26561">
        <ele>1042</ele>
        <time>2020-09-06T10:16:29.768Z</time>
      </trkpt>
      <trkpt lat="48.38974" lon="7.2656">
        <ele>1042</ele>
        <time>2020-09-06T10:16:30.769Z</time>
      </trkpt>
      <trkpt lat="48.38974" lon="7.2656">
        <ele>1042</ele>
        <time>2020-09-06T10:16:31.769Z</time>
      </trkpt>
      <trkpt lat="48.38973" lon="7.26558">
        <ele>1041</ele>
        <time>2020-09-06T10:16:32.768Z</time>
      </trkpt>
      <trkpt lat="48.38972" lon="7.26557">
        <ele>1041</ele>
        <time>2020-09-06T10:16:33.768Z</time>
      </trkpt>
      <trkpt lat="48.38971" lon="7.26555">
        <ele>1041</ele>
        <time>2020-09-06T10:16:34.768Z</time>
      </trkpt>
      <trkpt lat="48.38971" lon="7.26553">
        <ele>1041</ele>
        <time>2020-09-06T10:16:35.769Z</time>
      </trkpt>
      <trkpt lat="48.3897" lon="7.26552">
        <ele>1041</ele>
        <time>2020-09-06T10:16:36.769Z</time>
      </trkpt>
      <trkpt lat="48.3897" lon="7.2655">
        <ele>1041</ele>
        <time>2020-09-06T10:16:37.769Z</time>
      </trkpt>
      <trkpt lat="48.38969" lon="7.26549">
        <ele>1042</ele>
        <time>2020-09-06T10:16:38.768Z</time>
      </trkpt>
      <trkpt lat="48.38969" lon="7.26547">
        <ele>1042</ele>
        <time>2020-09-06T10:16:39.768Z</time>
      </trkpt>
      <trkpt lat="48.38969" lon="7.26546">
        <ele>1042</ele>
        <time>2020-09-06T10:16:40.769Z</time>
      </trkpt>
      <trkpt lat="48.38968" lon="7.26544">
        <ele>1042</ele>
        <time>2020-09-06T10:16:41.769Z</time>
      </trkpt>
      <trkpt lat="48.38967" lon="7.26543">
        <ele>1042</ele>
        <time>2020-09-06T10:16:42.769Z</time>
      </trkpt>
      <trkpt lat="48.38967" lon="7.26541">
        <ele>1041</ele>
        <time>2020-09-06T10:16:43.768Z</time>
      </trkpt>
      <trkpt lat="48.38966" lon="7.26541">
        <ele>1041</ele>
        <time>2020-09-06T10:16:44.769Z</time>
      </trkpt>
      <trkpt lat="48.38965" lon="7.2654">
        <ele>1040</ele>
        <time>2020-09-06T10:16:45.769Z</time>
      </trkpt>
      <trkpt lat="48.38965" lon="7.26539">
        <ele>1040</ele>
        <time>2020-09-06T10:16:46.769Z</time>
      </trkpt>
      <trkpt lat="48.38964" lon="7.26537">
        <ele>1040</ele>
        <time>2020-09-06T10:16:47.769Z</time>
      </trkpt>
      <trkpt lat="48.38964" lon="7.26536">
        <ele>1040</ele>
        <time>2020-09-06T10:16:48.768Z</time>
      </trkpt>
      <trkpt lat="48.38963" lon="7.26535">
        <ele>1040</ele>
        <time>2020-09-06T10:16:49.769Z</time>
      </trkpt>
      <trkpt lat="48.38962" lon="7.26533">
        <ele>1040</ele>
        <time>2020-09-06T10:16:50.769Z</time>
      </trkpt>
      <trkpt lat="48.38961" lon="7.26532">
        <ele>1040</ele>
        <time>2020-09-06T10:16:51.769Z</time>
      </trkpt>
      <trkpt lat="48.38961" lon="7.2653">
        <ele>1040</ele>
        <time>2020-09-06T10:16:52.769Z</time>
      </trkpt>
      <trkpt lat="48.3896" lon="7.26528">
        <ele>1039</ele>
        <time>2020-09-06T10:16:53.769Z</time>
      </trkpt>
      <trkpt lat="48.3896" lon="7.26526">
        <ele>1038</ele>
        <time>2020-09-06T10:16:54.769Z</time>
      </trkpt>
      <trkpt lat="48.38959" lon="7.26524">
        <ele>1037</ele>
        <time>2020-09-06T10:16:55.768Z</time>
      </trkpt>
      <trkpt lat="48.38959" lon="7.26522">
        <ele>1037</ele>
        <time>2020-09-06T10:16:56.769Z</time>
      </trkpt>
      <trkpt lat="48.38958" lon="7.26521">
        <ele>1036</ele>
        <time>2020-09-06T10:16:57.769Z</time>
      </trkpt>
      <trkpt lat="48.38958" lon="7.2652">
        <ele>1036</ele>
        <time>2020-09-06T10:16:58.769Z</time>
      </trkpt>
      <trkpt lat="48.38957" lon="7.26519">
        <ele>1036</ele>
        <time>2020-09-06T10:16:59.769Z</time>
      </trkpt>
      <trkpt lat="48.38957" lon="7.26517">
        <ele>1036</ele>
        <time>2020-09-06T10:17:00.769Z</time>
      </trkpt>
      <trkpt lat="48.38956" lon="7.26516">
        <ele>1036</ele>
        <time>2020-09-06T10:17:01.769Z</time>
      </trkpt>
      <trkpt lat="48.38955" lon="7.26515">
        <ele>1036</ele>
        <time>2020-09-06T10:17:02.768Z</time>
      </trkpt>
      <trkpt lat="48.38954" lon="7.26513">
        <ele>1036</ele>
        <time>2020-09-06T10:17:03.769Z</time>
      </trkpt>
      <trkpt lat="48.38952" lon="7.26511">
        <ele>1036</ele>
        <time>2020-09-06T10:17:04.769Z</time>
      </trkpt>
      <trkpt lat="48.38951" lon="7.26509">
        <ele>1037</ele>
        <time>2020-09-06T10:17:05.769Z</time>
      </trkpt>
      <trkpt lat="48.3895" lon="7.26508">
        <ele>1037</ele>
        <time>2020-09-06T10:17:06.769Z</time>
      </trkpt>
      <trkpt lat="48.38949" lon="7.26506">
        <ele>1037</ele>
        <time>2020-09-06T10:17:07.769Z</time>
      </trkpt>
      <trkpt lat="48.38948" lon="7.26504">
        <ele>1038</ele>
        <time>2020-09-06T10:17:08.768Z</time>
      </trkpt>
      <trkpt lat="48.38946" lon="7.26502">
        <ele>1038</ele>
        <time>2020-09-06T10:17:09.769Z</time>
      </trkpt>
      <trkpt lat="48.38946" lon="7.265">
        <ele>1037</ele>
        <time>2020-09-06T10:17:10.769Z</time>
      </trkpt>
      <trkpt lat="48.38945" lon="7.26498">
        <ele>1037</ele>
        <time>2020-09-06T10:17:11.768Z</time>
      </trkpt>
      <trkpt lat="48.38945" lon="7.26497">
        <ele>1037</ele>
        <time>2020-09-06T10:17:12.769Z</time>
      </trkpt>
      <trkpt lat="48.38944" lon="7.26495">
        <ele>1036</ele>
        <time>2020-09-06T10:17:13.768Z</time>
      </trkpt>
      <trkpt lat="48.38944" lon="7.26495">
        <ele>1036</ele>
        <time>2020-09-06T10:17:14.768Z</time>
      </trkpt>
      <trkpt lat="48.38943" lon="7.26495">
        <ele>1035</ele>
        <time>2020-09-06T10:17:15.769Z</time>
      </trkpt>
      <trkpt lat="48.38943" lon="7.26495">
        <ele>1035</ele>
        <time>2020-09-06T10:17:16.768Z</time>
      </trkpt>
      <trkpt lat="48.38941" lon="7.26493">
        <ele>1035</ele>
        <time>2020-09-06T10:17:17.769Z</time>
      </trkpt>
      <trkpt lat="48.38941" lon="7.26492">
        <ele>1035</ele>
        <time>2020-09-06T10:17:18.769Z</time>
      </trkpt>
      <trkpt lat="48.3894" lon="7.2649">
        <ele>1036</ele>
        <time>2020-09-06T10:17:19.769Z</time>
      </trkpt>
      <trkpt lat="48.3894" lon="7.26489">
        <ele>1036</ele>
        <time>2020-09-06T10:17:20.769Z</time>
      </trkpt>
      <trkpt lat="48.3894" lon="7.26487">
        <ele>1035</ele>
        <time>2020-09-06T10:17:21.769Z</time>
      </trkpt>
      <trkpt lat="48.38939" lon="7.26486">
        <ele>1035</ele>
        <time>2020-09-06T10:17:22.769Z</time>
      </trkpt>
      <trkpt lat="48.38939" lon="7.26484">
        <ele>1035</ele>
        <time>2020-09-06T10:17:23.769Z</time>
      </trkpt>
      <trkpt lat="48.38938" lon="7.26483">
        <ele>1035</ele>
        <time>2020-09-06T10:17:24.768Z</time>
      </trkpt>
      <trkpt lat="48.38937" lon="7.26483">
        <ele>1035</ele>
        <time>2020-09-06T10:17:25.768Z</time>
      </trkpt>
      <trkpt lat="48.38937" lon="7.26482">
        <ele>1034</ele>
        <time>2020-09-06T10:17:26.769Z</time>
      </trkpt>
      <trkpt lat="48.38937" lon="7.26481">
        <ele>1034</ele>
        <time>2020-09-06T10:17:27.768Z</time>
      </trkpt>
      <trkpt lat="48.38937" lon="7.26479">
        <ele>1034</ele>
        <time>2020-09-06T10:17:28.769Z</time>
      </trkpt>
      <trkpt lat="48.38937" lon="7.26478">
        <ele>1033</ele>
        <time>2020-09-06T10:17:29.769Z</time>
      </trkpt>
      <trkpt lat="48.38936" lon="7.26477">
        <ele>1033</ele>
        <time>2020-09-06T10:17:30.768Z</time>
      </trkpt>
      <trkpt lat="48.38935" lon="7.26476">
        <ele>1032</ele>
        <time>2020-09-06T10:17:31.769Z</time>
      </trkpt>
      <trkpt lat="48.38934" lon="7.26474">
        <ele>1032</ele>
        <time>2020-09-06T10:17:32.769Z</time>
      </trkpt>
      <trkpt lat="48.38933" lon="7.26472">
        <ele>1032</ele>
        <time>2020-09-06T10:17:33.768Z</time>
      </trkpt>
      <trkpt lat="48.38932" lon="7.26471">
        <ele>1031</ele>
        <time>2020-09-06T10:17:34.769Z</time>
      </trkpt>
      <trkpt lat="48.38932" lon="7.2647">
        <ele>1031</ele>
        <time>2020-09-06T10:17:35.769Z</time>
      </trkpt>
      <trkpt lat="48.38931" lon="7.26468">
        <ele>1030</ele>
        <time>2020-09-06T10:17:36.769Z</time>
      </trkpt>
      <trkpt lat="48.3893" lon="7.26467">
        <ele>1030</ele>
        <time>2020-09-06T10:17:37.769Z</time>
      </trkpt>
      <trkpt lat="48.3893" lon="7.26466">
        <ele>1030</ele>
        <time>2020-09-06T10:17:38.769Z</time>
      </trkpt>
      <trkpt lat="48.3893" lon="7.26464">
        <ele>1030</ele>
        <time>2020-09-06T10:17:39.769Z</time>
      </trkpt>
      <trkpt lat="48.38929" lon="7.26463">
        <ele>1030</ele>
        <time>2020-09-06T10:17:40.769Z</time>
      </trkpt>
      <trkpt lat="48.38928" lon="7.26461">
        <ele>1030</ele>
        <time>2020-09-06T10:17:41.769Z</time>
      </trkpt>
      <trkpt lat="48.38928" lon="7.2646">
        <ele>1030</ele>
        <time>2020-09-06T10:17:42.768Z</time>
      </trkpt>
      <trkpt lat="48.38927" lon="7.26459">
        <ele>1030</ele>
        <time>2020-09-06T10:17:43.769Z</time>
      </trkpt>
      <trkpt lat="48.38927" lon="7.26458">
        <ele>1031</ele>
        <time>2020-09-06T10:20:23.936Z</time>
      </trkpt>
      <trkpt lat="48.38926" lon="7.26455">
        <ele>1031</ele>
        <time>2020-09-06T10:20:34.946Z</time>
      </trkpt>
      <trkpt lat="48.38925" lon="7.26454">
        <ele>1031</ele>
        <time>2020-09-06T10:20:35.946Z</time>
      </trkpt>
      <trkpt lat="48.38924" lon="7.26452">
        <ele>1031</ele>
        <time>2020-09-06T10:20:36.946Z</time>
      </trkpt>
      <trkpt lat="48.38924" lon="7.26451">
        <ele>1031</ele>
        <time>2020-09-06T10:20:37.946Z</time>
      </trkpt>
      <trkpt lat="48.38923" lon="7.26449">
        <ele>1031</ele>
        <time>2020-09-06T10:20:38.946Z</time>
      </trkpt>
      <trkpt lat="48.38923" lon="7.26448">
        <ele>1030</ele>
        <time>2020-09-06T10:20:39.945Z</time>
      </trkpt>
      <trkpt lat="48.38922" lon="7.26446">
        <ele>1030</ele>
        <time>2020-09-06T10:20:40.945Z</time>
      </trkpt>
      <trkpt lat="48.38922" lon="7.26445">
        <ele>1029</ele>
        <time>2020-09-06T10:20:41.945Z</time>
      </trkpt>
      <trkpt lat="48.38921" lon="7.26444">
        <ele>1028</ele>
        <time>2020-09-06T10:20:42.946Z</time>
      </trkpt>
      <trkpt lat="48.38921" lon="7.26442">
        <ele>1028</ele>
        <time>2020-09-06T10:20:43.946Z</time>
      </trkpt>
      <trkpt lat="48.3892" lon="7.2644">
        <ele>1027</ele>
        <time>2020-09-06T10:20:44.946Z</time>
      </trkpt>
      <trkpt lat="48.3892" lon="7.26439">
        <ele>1027</ele>
        <time>2020-09-06T10:20:45.946Z</time>
      </trkpt>
      <trkpt lat="48.38919" lon="7.26439">
        <ele>1027</ele>
        <time>2020-09-06T10:20:46.945Z</time>
      </trkpt>
      <trkpt lat="48.38918" lon="7.26437">
        <ele>1027</ele>
        <time>2020-09-06T10:20:47.946Z</time>
      </trkpt>
      <trkpt lat="48.38917" lon="7.26436">
        <ele>1027</ele>
        <time>2020-09-06T10:20:48.946Z</time>
      </trkpt>
      <trkpt lat="48.38917" lon="7.26434">
        <ele>1027</ele>
        <time>2020-09-06T10:20:49.946Z</time>
      </trkpt>
      <trkpt lat="48.38916" lon="7.26433">
        <ele>1028</ele>
        <time>2020-09-06T10:20:50.945Z</time>
      </trkpt>
      <trkpt lat="48.38915" lon="7.26431">
        <ele>1028</ele>
        <time>2020-09-06T10:20:51.945Z</time>
      </trkpt>
      <trkpt lat="48.38915" lon="7.26429">
        <ele>1029</ele>
        <time>2020-09-06T10:20:52.946Z</time>
      </trkpt>
      <trkpt lat="48.38913" lon="7.26428">
        <ele>1029</ele>
        <time>2020-09-06T10:20:53.946Z</time>
      </trkpt>
      <trkpt lat="48.38912" lon="7.26425">
        <ele>1030</ele>
        <time>2020-09-06T10:20:54.945Z</time>
      </trkpt>
      <trkpt lat="48.38911" lon="7.26424">
        <ele>1030</ele>
        <time>2020-09-06T10:20:55.946Z</time>
      </trkpt>
      <trkpt lat="48.3891" lon="7.26422">
        <ele>1030</ele>
        <time>2020-09-06T10:20:56.946Z</time>
      </trkpt>
      <trkpt lat="48.38909" lon="7.26421">
        <ele>1030</ele>
        <time>2020-09-06T10:20:57.946Z</time>
      </trkpt>
      <trkpt lat="48.38909" lon="7.2642">
        <ele>1030</ele>
        <time>2020-09-06T10:20:58.945Z</time>
      </trkpt>
      <trkpt lat="48.38908" lon="7.26418">
        <ele>1029</ele>
        <time>2020-09-06T10:20:59.946Z</time>
      </trkpt>
      <trkpt lat="48.38907" lon="7.26417">
        <ele>1029</ele>
        <time>2020-09-06T10:21:00.946Z</time>
      </trkpt>
      <trkpt lat="48.38907" lon="7.26417">
        <ele>1029</ele>
        <time>2020-09-06T10:21:01.946Z</time>
      </trkpt>
      <trkpt lat="48.38907" lon="7.26416">
        <ele>1029</ele>
        <time>2020-09-06T10:21:02.946Z</time>
      </trkpt>
      <trkpt lat="48.38906" lon="7.26415">
        <ele>1029</ele>
        <time>2020-09-06T10:21:03.946Z</time>
      </trkpt>
      <trkpt lat="48.38905" lon="7.26414">
        <ele>1028</ele>
        <time>2020-09-06T10:21:04.946Z</time>
      </trkpt>
      <trkpt lat="48.38904" lon="7.26413">
        <ele>1028</ele>
        <time>2020-09-06T10:21:05.946Z</time>
      </trkpt>
      <trkpt lat="48.38904" lon="7.26411">
        <ele>1027</ele>
        <time>2020-09-06T10:21:06.946Z</time>
      </trkpt>
      <trkpt lat="48.38904" lon="7.2641">
        <ele>1027</ele>
        <time>2020-09-06T10:21:07.946Z</time>
      </trkpt>
      <trkpt lat="48.38904" lon="7.26408">
        <ele>1026</ele>
        <time>2020-09-06T10:21:08.946Z</time>
      </trkpt>
      <trkpt lat="48.38903" lon="7.26407">
        <ele>1026</ele>
        <time>2020-09-06T10:21:09.946Z</time>
      </trkpt>
      <trkpt lat="48.38902" lon="7.26405">
        <ele>1026</ele>
        <time>2020-09-06T10:21:10.945Z</time>
      </trkpt>
      <trkpt lat="48.38902" lon="7.26404">
        <ele>1025</ele>
        <time>2020-09-06T10:21:11.946Z</time>
      </trkpt>
      <trkpt lat="48.38902" lon="7.26403">
        <ele>1025</ele>
        <time>2020-09-06T10:21:12.946Z</time>
      </trkpt>
      <trkpt lat="48.38901" lon="7.26402">
        <ele>1025</ele>
        <time>2020-09-06T10:21:13.946Z</time>
      </trkpt>
      <trkpt lat="48.38901" lon="7.264">
        <ele>1025</ele>
        <time>2020-09-06T10:21:14.946Z</time>
      </trkpt>
      <trkpt lat="48.38901" lon="7.26398">
        <ele>1025</ele>
        <time>2020-09-06T10:21:15.946Z</time>
      </trkpt>
      <trkpt lat="48.389" lon="7.26396">
        <ele>1025</ele>
        <time>2020-09-06T10:21:16.946Z</time>
      </trkpt>
      <trkpt lat="48.389" lon="7.26395">
        <ele>1024</ele>
        <time>2020-09-06T10:21:17.946Z</time>
      </trkpt>
      <trkpt lat="48.389" lon="7.26393">
        <ele>1024</ele>
        <time>2020-09-06T10:21:18.945Z</time>
      </trkpt>
      <trkpt lat="48.389" lon="7.26391">
        <ele>1024</ele>
        <time>2020-09-06T10:21:19.946Z</time>
      </trkpt>
      <trkpt lat="48.389" lon="7.26389">
        <ele>1024</ele>
        <time>2020-09-06T10:21:20.945Z</time>
      </trkpt>
      <trkpt lat="48.38899" lon="7.26387">
        <ele>1024</ele>
        <time>2020-09-06T10:21:21.946Z</time>
      </trkpt>
      <trkpt lat="48.38899" lon="7.26386">
        <ele>1024</ele>
        <time>2020-09-06T10:21:22.945Z</time>
      </trkpt>
      <trkpt lat="48.38899" lon="7.26384">
        <ele>1023</ele>
        <time>2020-09-06T10:21:23.945Z</time>
      </trkpt>
      <trkpt lat="48.38898" lon="7.26383">
        <ele>1023</ele>
        <time>2020-09-06T10:21:24.945Z</time>
      </trkpt>
      <trkpt lat="48.38898" lon="7.26381">
        <ele>1024</ele>
        <time>2020-09-06T10:21:25.946Z</time>
      </trkpt>
      <trkpt lat="48.38897" lon="7.2638">
        <ele>1023</ele>
        <time>2020-09-06T10:21:26.946Z</time>
      </trkpt>
      <trkpt lat="48.38897" lon="7.26378">
        <ele>1024</ele>
        <time>2020-09-06T10:21:27.946Z</time>
      </trkpt>
      <trkpt lat="48.38897" lon="7.26377">
        <ele>1024</ele>
        <time>2020-09-06T10:21:28.946Z</time>
      </trkpt>
      <trkpt lat="48.38896" lon="7.26375">
        <ele>1024</ele>
        <time>2020-09-06T10:21:29.946Z</time>
      </trkpt>
      <trkpt lat="48.38896" lon="7.26373">
        <ele>1024</ele>
        <time>2020-09-06T10:21:30.946Z</time>
      </trkpt>
      <trkpt lat="48.38895" lon="7.26371">
        <ele>1024</ele>
        <time>2020-09-06T10:21:31.945Z</time>
      </trkpt>
      <trkpt lat="48.38894" lon="7.26369">
        <ele>1024</ele>
        <time>2020-09-06T10:21:32.946Z</time>
      </trkpt>
      <trkpt lat="48.38892" lon="7.26366">
        <ele>1025</ele>
        <time>2020-09-06T10:21:33.945Z</time>
      </trkpt>
      <trkpt lat="48.38892" lon="7.26363">
        <ele>1025</ele>
        <time>2020-09-06T10:21:34.946Z</time>
      </trkpt>
      <trkpt lat="48.38891" lon="7.26361">
        <ele>1025</ele>
        <time>2020-09-06T10:21:35.946Z</time>
      </trkpt>
      <trkpt lat="48.38891" lon="7.2636">
        <ele>1025</ele>
        <time>2020-09-06T10:21:36.945Z</time>
      </trkpt>
      <trkpt lat="48.38891" lon="7.26358">
        <ele>1025</ele>
        <time>2020-09-06T10:21:37.946Z</time>
      </trkpt>
      <trkpt lat="48.3889" lon="7.26357">
        <ele>1025</ele>
        <time>2020-09-06T10:21:38.946Z</time>
      </trkpt>
      <trkpt lat="48.38889" lon="7.26356">
        <ele>1025</ele>
        <time>2020-09-06T10:21:39.946Z</time>
      </trkpt>
      <trkpt lat="48.38889" lon="7.26354">
        <ele>1025</ele>
        <time>2020-09-06T10:21:40.946Z</time>
      </trkpt>
      <trkpt lat="48.38889" lon="7.26353">
        <ele>1025</ele>
        <time>2020-09-06T10:21:41.946Z</time>
      </trkpt>
      <trkpt lat="48.38889" lon="7.26351">
        <ele>1025</ele>
        <time>2020-09-06T10:21:42.946Z</time>
      </trkpt>
      <trkpt lat="48.38889" lon="7.26349">
        <ele>1024</ele>
        <time>2020-09-06T10:21:45.010Z</time>
      </trkpt>
      <trkpt lat="48.38889" lon="7.26347">
        <ele>1023</ele>
        <time>2020-09-06T10:21:46.010Z</time>
      </trkpt>
      <trkpt lat="48.38888" lon="7.26345">
        <ele>1022</ele>
        <time>2020-09-06T10:21:47.010Z</time>
      </trkpt>
      <trkpt lat="48.38888" lon="7.26343">
        <ele>1022</ele>
        <time>2020-09-06T10:21:48.010Z</time>
      </trkpt>
      <trkpt lat="48.38887" lon="7.26342">
        <ele>1021</ele>
        <time>2020-09-06T10:21:49.010Z</time>
      </trkpt>
      <trkpt lat="48.38887" lon="7.2634">
        <ele>1021</ele>
        <time>2020-09-06T10:21:50.009Z</time>
      </trkpt>
      <trkpt lat="48.38887" lon="7.26338">
        <ele>1021</ele>
        <time>2020-09-06T10:21:51.009Z</time>
      </trkpt>
      <trkpt lat="48.38886" lon="7.26337">
        <ele>1021</ele>
        <time>2020-09-06T10:21:52.010Z</time>
      </trkpt>
      <trkpt lat="48.38886" lon="7.26335">
        <ele>1021</ele>
        <time>2020-09-06T10:21:53.010Z</time>
      </trkpt>
      <trkpt lat="48.38885" lon="7.26333">
        <ele>1021</ele>
        <time>2020-09-06T10:21:54.009Z</time>
      </trkpt>
      <trkpt lat="48.38884" lon="7.26331">
        <ele>1020</ele>
        <time>2020-09-06T10:21:55.010Z</time>
      </trkpt>
      <trkpt lat="48.38884" lon="7.26329">
        <ele>1019</ele>
        <time>2020-09-06T10:21:59.057Z</time>
      </trkpt>
      <trkpt lat="48.38884" lon="7.26327">
        <ele>1018</ele>
        <time>2020-09-06T10:22:00.058Z</time>
      </trkpt>
      <trkpt lat="48.38884" lon="7.26325">
        <ele>1018</ele>
        <time>2020-09-06T10:22:01.058Z</time>
      </trkpt>
      <trkpt lat="48.38883" lon="7.26323">
        <ele>1018</ele>
        <time>2020-09-06T10:22:02.058Z</time>
      </trkpt>
      <trkpt lat="48.38882" lon="7.26321">
        <ele>1017</ele>
        <time>2020-09-06T10:22:03.058Z</time>
      </trkpt>
      <trkpt lat="48.38881" lon="7.2632">
        <ele>1017</ele>
        <time>2020-09-06T10:22:04.057Z</time>
      </trkpt>
      <trkpt lat="48.38881" lon="7.26319">
        <ele>1017</ele>
        <time>2020-09-06T10:22:05.058Z</time>
      </trkpt>
      <trkpt lat="48.38881" lon="7.26318">
        <ele>1017</ele>
        <time>2020-09-06T10:22:06.058Z</time>
      </trkpt>
      <trkpt lat="48.38881" lon="7.26317">
        <ele>1017</ele>
        <time>2020-09-06T10:22:07.058Z</time>
      </trkpt>
      <trkpt lat="48.38881" lon="7.26315">
        <ele>1017</ele>
        <time>2020-09-06T10:22:08.058Z</time>
      </trkpt>
      <trkpt lat="48.38881" lon="7.26314">
        <ele>1017</ele>
        <time>2020-09-06T10:22:09.058Z</time>
      </trkpt>
      <trkpt lat="48.3888" lon="7.26312">
        <ele>1016</ele>
        <time>2020-09-06T10:22:10.057Z</time>
      </trkpt>
      <trkpt lat="48.3888" lon="7.2631">
        <ele>1016</ele>
        <time>2020-09-06T10:22:11.057Z</time>
      </trkpt>
      <trkpt lat="48.38879" lon="7.26309">
        <ele>1016</ele>
        <time>2020-09-06T10:22:12.057Z</time>
      </trkpt>
      <trkpt lat="48.38879" lon="7.26308">
        <ele>1016</ele>
        <time>2020-09-06T10:22:13.057Z</time>
      </trkpt>
      <trkpt lat="48.38879" lon="7.26307">
        <ele>1016</ele>
        <time>2020-09-06T10:22:14.058Z</time>
      </trkpt>
      <trkpt lat="48.38878" lon="7.26305">
        <ele>1016</ele>
        <time>2020-09-06T10:22:15.057Z</time>
      </trkpt>
      <trkpt lat="48.38878" lon="7.26304">
        <ele>1017</ele>
        <time>2020-09-06T10:22:16.057Z</time>
      </trkpt>
      <trkpt lat="48.38877" lon="7.26303">
        <ele>1017</ele>
        <time>2020-09-06T10:22:17.058Z</time>
      </trkpt>
      <trkpt lat="48.38877" lon="7.26302">
        <ele>1017</ele>
        <time>2020-09-06T10:22:18.058Z</time>
      </trkpt>
      <trkpt lat="48.38877" lon="7.263">
        <ele>1017</ele>
        <time>2020-09-06T10:22:19.058Z</time>
      </trkpt>
      <trkpt lat="48.38876" lon="7.26298">
        <ele>1017</ele>
        <time>2020-09-06T10:22:20.058Z</time>
      </trkpt>
      <trkpt lat="48.38876" lon="7.26295">
        <ele>1017</ele>
        <time>2020-09-06T10:22:21.058Z</time>
      </trkpt>
      <trkpt lat="48.38876" lon="7.26292">
        <ele>1017</ele>
        <time>2020-09-06T10:22:22.057Z</time>
      </trkpt>
      <trkpt lat="48.38875" lon="7.2629">
        <ele>1016</ele>
        <time>2020-09-06T10:22:23.057Z</time>
      </trkpt>
      <trkpt lat="48.38875" lon="7.26288">
        <ele>1016</ele>
        <time>2020-09-06T10:22:24.058Z</time>
      </trkpt>
      <trkpt lat="48.38874" lon="7.26286">
        <ele>1016</ele>
        <time>2020-09-06T10:22:25.057Z</time>
      </trkpt>
      <trkpt lat="48.38874" lon="7.26285">
        <ele>1016</ele>
        <time>2020-09-06T10:22:26.058Z</time>
      </trkpt>
      <trkpt lat="48.38874" lon="7.26283">
        <ele>1016</ele>
        <time>2020-09-06T10:22:27.058Z</time>
      </trkpt>
      <trkpt lat="48.38875" lon="7.26281">
        <ele>1017</ele>
        <time>2020-09-06T10:22:28.058Z</time>
      </trkpt>
      <trkpt lat="48.38875" lon="7.26279">
        <ele>1017</ele>
        <time>2020-09-06T10:22:29.058Z</time>
      </trkpt>
      <trkpt lat="48.38875" lon="7.26278">
        <ele>1017</ele>
        <time>2020-09-06T10:22:30.058Z</time>
      </trkpt>
      <trkpt lat="48.38875" lon="7.26276">
        <ele>1017</ele>
        <time>2020-09-06T10:22:31.058Z</time>
      </trkpt>
      <trkpt lat="48.38875" lon="7.26275">
        <ele>1017</ele>
        <time>2020-09-06T10:22:32.058Z</time>
      </trkpt>
      <trkpt lat="48.38875" lon="7.26274">
        <ele>1016</ele>
        <time>2020-09-06T10:22:33.058Z</time>
      </trkpt>
      <trkpt lat="48.38875" lon="7.26271">
        <ele>1016</ele>
        <time>2020-09-06T10:22:34.058Z</time>
      </trkpt>
      <trkpt lat="48.38876" lon="7.2627">
        <ele>1016</ele>
        <time>2020-09-06T10:22:35.058Z</time>
      </trkpt>
      <trkpt lat="48.38876" lon="7.26268">
        <ele>1016</ele>
        <time>2020-09-06T10:22:36.057Z</time>
      </trkpt>
      <trkpt lat="48.38876" lon="7.26266">
        <ele>1016</ele>
        <time>2020-09-06T10:22:37.057Z</time>
      </trkpt>
      <trkpt lat="48.38875" lon="7.26264">
        <ele>1016</ele>
        <time>2020-09-06T10:22:38.058Z</time>
      </trkpt>
      <trkpt lat="48.38875" lon="7.26263">
        <ele>1015</ele>
        <time>2020-09-06T10:22:39.058Z</time>
      </trkpt>
      <trkpt lat="48.38875" lon="7.26262">
        <ele>1015</ele>
        <time>2020-09-06T10:22:40.058Z</time>
      </trkpt>
      <trkpt lat="48.38875" lon="7.2626">
        <ele>1015</ele>
        <time>2020-09-06T10:22:41.057Z</time>
      </trkpt>
      <trkpt lat="48.38874" lon="7.26258">
        <ele>1014</ele>
        <time>2020-09-06T10:22:42.057Z</time>
      </trkpt>
      <trkpt lat="48.38874" lon="7.26256">
        <ele>1014</ele>
        <time>2020-09-06T10:22:43.058Z</time>
      </trkpt>
      <trkpt lat="48.38874" lon="7.26255">
        <ele>1015</ele>
        <time>2020-09-06T10:22:44.058Z</time>
      </trkpt>
      <trkpt lat="48.38873" lon="7.26253">
        <ele>1014</ele>
        <time>2020-09-06T10:22:45.058Z</time>
      </trkpt>
      <trkpt lat="48.38873" lon="7.26252">
        <ele>1014</ele>
        <time>2020-09-06T10:22:46.057Z</time>
      </trkpt>
      <trkpt lat="48.38873" lon="7.2625">
        <ele>1013</ele>
        <time>2020-09-06T10:22:47.058Z</time>
      </trkpt>
      <trkpt lat="48.38872" lon="7.26248">
        <ele>1013</ele>
        <time>2020-09-06T10:22:48.058Z</time>
      </trkpt>
      <trkpt lat="48.38872" lon="7.26247">
        <ele>1013</ele>
        <time>2020-09-06T10:22:49.058Z</time>
      </trkpt>
      <trkpt lat="48.38872" lon="7.26246">
        <ele>1013</ele>
        <time>2020-09-06T10:22:50.058Z</time>
      </trkpt>
      <trkpt lat="48.38871" lon="7.26244">
        <ele>1013</ele>
        <time>2020-09-06T10:22:51.057Z</time>
      </trkpt>
      <trkpt lat="48.38871" lon="7.26242">
        <ele>1013</ele>
        <time>2020-09-06T10:22:52.058Z</time>
      </trkpt>
      <trkpt lat="48.38871" lon="7.26241">
        <ele>1013</ele>
        <time>2020-09-06T10:22:53.058Z</time>
      </trkpt>
      <trkpt lat="48.38871" lon="7.2624">
        <ele>1014</ele>
        <time>2020-09-06T10:22:54.058Z</time>
      </trkpt>
      <trkpt lat="48.38871" lon="7.26238">
        <ele>1014</ele>
        <time>2020-09-06T10:22:55.058Z</time>
      </trkpt>
      <trkpt lat="48.3887" lon="7.26237">
        <ele>1014</ele>
        <time>2020-09-06T10:22:56.058Z</time>
      </trkpt>
      <trkpt lat="48.3887" lon="7.26235">
        <ele>1014</ele>
        <time>2020-09-06T10:22:57.058Z</time>
      </trkpt>
      <trkpt lat="48.3887" lon="7.26233">
        <ele>1014</ele>
        <time>2020-09-06T10:22:58.058Z</time>
      </trkpt>
      <trkpt lat="48.3887" lon="7.26231">
        <ele>1014</ele>
        <time>2020-09-06T10:22:59.058Z</time>
      </trkpt>
      <trkpt lat="48.38869" lon="7.2623">
        <ele>1014</ele>
        <time>2020-09-06T10:23:00.058Z</time>
      </trkpt>
      <trkpt lat="48.38869" lon="7.26228">
        <ele>1014</ele>
        <time>2020-09-06T10:23:01.057Z</time>
      </trkpt>
      <trkpt lat="48.38869" lon="7.26226">
        <ele>1014</ele>
        <time>2020-09-06T10:23:02.057Z</time>
      </trkpt>
      <trkpt lat="48.38868" lon="7.26224">
        <ele>1014</ele>
        <time>2020-09-06T10:23:03.058Z</time>
      </trkpt>
      <trkpt lat="48.38868" lon="7.26222">
        <ele>1015</ele>
        <time>2020-09-06T10:23:04.057Z</time>
      </trkpt>
      <trkpt lat="48.38867" lon="7.2622">
        <ele>1015</ele>
        <time>2020-09-06T10:23:05.057Z</time>
      </trkpt>
      <trkpt lat="48.38866" lon="7.26217">
        <ele>1014</ele>
        <time>2020-09-06T10:23:06.057Z</time>
      </trkpt>
      <trkpt lat="48.38866" lon="7.26215">
        <ele>1014</ele>
        <time>2020-09-06T10:23:07.057Z</time>
      </trkpt>
      <trkpt lat="48.38865" lon="7.26213">
        <ele>1013</ele>
        <time>2020-09-06T10:23:08.058Z</time>
      </trkpt>
      <trkpt lat="48.38865" lon="7.2621">
        <ele>1013</ele>
        <time>2020-09-06T10:23:09.058Z</time>
      </trkpt>
      <trkpt lat="48.38865" lon="7.26209">
        <ele>1013</ele>
        <time>2020-09-06T10:23:10.057Z</time>
      </trkpt>
      <trkpt lat="48.38864" lon="7.26207">
        <ele>1013</ele>
        <time>2020-09-06T10:23:11.058Z</time>
      </trkpt>
      <trkpt lat="48.38864" lon="7.26205">
        <ele>1012</ele>
        <time>2020-09-06T10:23:12.058Z</time>
      </trkpt>
      <trkpt lat="48.38863" lon="7.26203">
        <ele>1012</ele>
        <time>2020-09-06T10:23:13.058Z</time>
      </trkpt>
      <trkpt lat="48.38863" lon="7.26202">
        <ele>1012</ele>
        <time>2020-09-06T10:23:14.058Z</time>
      </trkpt>
      <trkpt lat="48.38862" lon="7.262">
        <ele>1012</ele>
        <time>2020-09-06T10:23:15.057Z</time>
      </trkpt>
      <trkpt lat="48.38862" lon="7.26199">
        <ele>1013</ele>
        <time>2020-09-06T10:23:16.057Z</time>
      </trkpt>
      <trkpt lat="48.38861" lon="7.26197">
        <ele>1013</ele>
        <time>2020-09-06T10:23:17.058Z</time>
      </trkpt>
      <trkpt lat="48.3886" lon="7.26194">
        <ele>1013</ele>
        <time>2020-09-06T10:23:18.058Z</time>
      </trkpt>
      <trkpt lat="48.38859" lon="7.26193">
        <ele>1013</ele>
        <time>2020-09-06T10:23:19.058Z</time>
      </trkpt>
      <trkpt lat="48.38858" lon="7.26191">
        <ele>1013</ele>
        <time>2020-09-06T10:23:20.057Z</time>
      </trkpt>
      <trkpt lat="48.38859" lon="7.2619">
        <ele>1013</ele>
        <time>2020-09-06T10:23:21.057Z</time>
      </trkpt>
      <trkpt lat="48.38859" lon="7.26188">
        <ele>1012</ele>
        <time>2020-09-06T10:23:22.057Z</time>
      </trkpt>
      <trkpt lat="48.38858" lon="7.26186">
        <ele>1012</ele>
        <time>2020-09-06T10:23:23.058Z</time>
      </trkpt>
      <trkpt lat="48.38858" lon="7.26185">
        <ele>1012</ele>
        <time>2020-09-06T10:23:24.057Z</time>
      </trkpt>
      <trkpt lat="48.38858" lon="7.26183">
        <ele>1012</ele>
        <time>2020-09-06T10:23:25.058Z</time>
      </trkpt>
      <trkpt lat="48.38857" lon="7.26181">
        <ele>1013</ele>
        <time>2020-09-06T10:23:26.058Z</time>
      </trkpt>
      <trkpt lat="48.38855" lon="7.26179">
        <ele>1013</ele>
        <time>2020-09-06T10:23:27.058Z</time>
      </trkpt>
      <trkpt lat="48.38855" lon="7.26177">
        <ele>1013</ele>
        <time>2020-09-06T10:23:28.058Z</time>
      </trkpt>
      <trkpt lat="48.38855" lon="7.26176">
        <ele>1013</ele>
        <time>2020-09-06T10:23:29.057Z</time>
      </trkpt>
      <trkpt lat="48.38853" lon="7.26174">
        <ele>1013</ele>
        <time>2020-09-06T10:23:30.058Z</time>
      </trkpt>
      <trkpt lat="48.38852" lon="7.26172">
        <ele>1014</ele>
        <time>2020-09-06T10:23:31.057Z</time>
      </trkpt>
      <trkpt lat="48.38851" lon="7.26171">
        <ele>1014</ele>
        <time>2020-09-06T10:23:32.057Z</time>
      </trkpt>
      <trkpt lat="48.3885" lon="7.2617">
        <ele>1014</ele>
        <time>2020-09-06T10:23:33.058Z</time>
      </trkpt>
      <trkpt lat="48.38849" lon="7.26168">
        <ele>1015</ele>
        <time>2020-09-06T10:23:34.057Z</time>
      </trkpt>
      <trkpt lat="48.38847" lon="7.26166">
        <ele>1015</ele>
        <time>2020-09-06T10:23:35.057Z</time>
      </trkpt>
      <trkpt lat="48.38846" lon="7.26163">
        <ele>1016</ele>
        <time>2020-09-06T10:23:36.057Z</time>
      </trkpt>
      <trkpt lat="48.38845" lon="7.26161">
        <ele>1016</ele>
        <time>2020-09-06T10:23:37.057Z</time>
      </trkpt>
      <trkpt lat="48.38845" lon="7.2616">
        <ele>1016</ele>
        <time>2020-09-06T10:23:38.058Z</time>
      </trkpt>
      <trkpt lat="48.38845" lon="7.26159">
        <ele>1015</ele>
        <time>2020-09-06T10:23:40.151Z</time>
      </trkpt>
      <trkpt lat="48.38844" lon="7.26158">
        <ele>1015</ele>
        <time>2020-09-06T10:23:41.151Z</time>
      </trkpt>
      <trkpt lat="48.38843" lon="7.26156">
        <ele>1015</ele>
        <time>2020-09-06T10:23:42.151Z</time>
      </trkpt>
      <trkpt lat="48.38842" lon="7.26153">
        <ele>1014</ele>
        <time>2020-09-06T10:23:43.151Z</time>
      </trkpt>
      <trkpt lat="48.38841" lon="7.26151">
        <ele>1014</ele>
        <time>2020-09-06T10:23:44.152Z</time>
      </trkpt>
      <trkpt lat="48.38841" lon="7.2615">
        <ele>1014</ele>
        <time>2020-09-06T10:23:45.151Z</time>
      </trkpt>
      <trkpt lat="48.3884" lon="7.26148">
        <ele>1014</ele>
        <time>2020-09-06T10:23:46.152Z</time>
      </trkpt>
      <trkpt lat="48.38838" lon="7.26146">
        <ele>1014</ele>
        <time>2020-09-06T10:23:47.151Z</time>
      </trkpt>
      <trkpt lat="48.38837" lon="7.26144">
        <ele>1015</ele>
        <time>2020-09-06T10:23:48.152Z</time>
      </trkpt>
      <trkpt lat="48.38836" lon="7.26142">
        <ele>1015</ele>
        <time>2020-09-06T10:23:49.152Z</time>
      </trkpt>
      <trkpt lat="48.38836" lon="7.2614">
        <ele>1016</ele>
        <time>2020-09-06T10:23:50.152Z</time>
      </trkpt>
      <trkpt lat="48.38835" lon="7.26138">
        <ele>1016</ele>
        <time>2020-09-06T10:23:51.152Z</time>
      </trkpt>
      <trkpt lat="48.38835" lon="7.26137">
        <ele>1017</ele>
        <time>2020-09-06T10:23:52.151Z</time>
      </trkpt>
      <trkpt lat="48.38834" lon="7.26137">
        <ele>1017</ele>
        <time>2020-09-06T10:23:53.151Z</time>
      </trkpt>
      <trkpt lat="48.38834" lon="7.26136">
        <ele>1017</ele>
        <time>2020-09-06T10:23:54.152Z</time>
      </trkpt>
      <trkpt lat="48.38833" lon="7.26134">
        <ele>1017</ele>
        <time>2020-09-06T10:23:55.152Z</time>
      </trkpt>
      <trkpt lat="48.38832" lon="7.26133">
        <ele>1016</ele>
        <time>2020-09-06T10:23:56.152Z</time>
      </trkpt>
      <trkpt lat="48.38831" lon="7.26132">
        <ele>1016</ele>
        <time>2020-09-06T10:23:57.151Z</time>
      </trkpt>
      <trkpt lat="48.38831" lon="7.26132">
        <ele>1016</ele>
        <time>2020-09-06T10:23:58.151Z</time>
      </trkpt>
      <trkpt lat="48.3883" lon="7.26131">
        <ele>1015</ele>
        <time>2020-09-06T10:23:59.152Z</time>
      </trkpt>
      <trkpt lat="48.3883" lon="7.2613">
        <ele>1015</ele>
        <time>2020-09-06T10:24:00.152Z</time>
      </trkpt>
      <trkpt lat="48.38829" lon="7.26128">
        <ele>1014</ele>
        <time>2020-09-06T10:24:01.152Z</time>
      </trkpt>
      <trkpt lat="48.38828" lon="7.26126">
        <ele>1014</ele>
        <time>2020-09-06T10:24:02.151Z</time>
      </trkpt>
      <trkpt lat="48.38827" lon="7.26125">
        <ele>1014</ele>
        <time>2020-09-06T10:24:03.152Z</time>
      </trkpt>
      <trkpt lat="48.38826" lon="7.26123">
        <ele>1013</ele>
        <time>2020-09-06T10:24:04.152Z</time>
      </trkpt>
      <trkpt lat="48.38825" lon="7.26122">
        <ele>1013</ele>
        <time>2020-09-06T10:24:05.152Z</time>
      </trkpt>
      <trkpt lat="48.38825" lon="7.26121">
        <ele>1013</ele>
        <time>2020-09-06T10:24:06.151Z</time>
      </trkpt>
      <trkpt lat="48.38824" lon="7.2612">
        <ele>1013</ele>
        <time>2020-09-06T10:24:07.151Z</time>
      </trkpt>
      <trkpt lat="48.38824" lon="7.26118">
        <ele>1013</ele>
        <time>2020-09-06T10:24:08.151Z</time>
      </trkpt>
      <trkpt lat="48.38823" lon="7.26116">
        <ele>1013</ele>
        <time>2020-09-06T10:24:09.152Z</time>
      </trkpt>
      <trkpt lat="48.38822" lon="7.26114">
        <ele>1013</ele>
        <time>2020-09-06T10:24:10.151Z</time>
      </trkpt>
      <trkpt lat="48.38822" lon="7.26113">
        <ele>1012</ele>
        <time>2020-09-06T10:24:11.152Z</time>
      </trkpt>
      <trkpt lat="48.38821" lon="7.26111">
        <ele>1012</ele>
        <time>2020-09-06T10:24:12.152Z</time>
      </trkpt>
      <trkpt lat="48.38821" lon="7.2611">
        <ele>1012</ele>
        <time>2020-09-06T10:24:13.151Z</time>
      </trkpt>
      <trkpt lat="48.38821" lon="7.26108">
        <ele>1012</ele>
        <time>2020-09-06T10:24:15.168Z</time>
      </trkpt>
      <trkpt lat="48.3882" lon="7.26107">
        <ele>1012</ele>
        <time>2020-09-06T10:24:16.167Z</time>
      </trkpt>
      <trkpt lat="48.38819" lon="7.26106">
        <ele>1012</ele>
        <time>2020-09-06T10:24:17.168Z</time>
      </trkpt>
      <trkpt lat="48.38818" lon="7.26105">
        <ele>1012</ele>
        <time>2020-09-06T10:24:18.167Z</time>
      </trkpt>
      <trkpt lat="48.38817" lon="7.26104">
        <ele>1012</ele>
        <time>2020-09-06T10:24:19.167Z</time>
      </trkpt>
      <trkpt lat="48.38817" lon="7.26103">
        <ele>1011</ele>
        <time>2020-09-06T10:24:20.168Z</time>
      </trkpt>
      <trkpt lat="48.38816" lon="7.26101">
        <ele>1011</ele>
        <time>2020-09-06T10:24:21.167Z</time>
      </trkpt>
      <trkpt lat="48.38816" lon="7.261">
        <ele>1010</ele>
        <time>2020-09-06T10:24:22.167Z</time>
      </trkpt>
      <trkpt lat="48.38816" lon="7.26099">
        <ele>1010</ele>
        <time>2020-09-06T10:24:23.168Z</time>
      </trkpt>
      <trkpt lat="48.38815" lon="7.26097">
        <ele>1010</ele>
        <time>2020-09-06T10:24:24.167Z</time>
      </trkpt>
      <trkpt lat="48.38815" lon="7.26096">
        <ele>1010</ele>
        <time>2020-09-06T10:24:25.167Z</time>
      </trkpt>
      <trkpt lat="48.38814" lon="7.26094">
        <ele>1010</ele>
        <time>2020-09-06T10:24:26.167Z</time>
      </trkpt>
      <trkpt lat="48.38814" lon="7.26093">
        <ele>1010</ele>
        <time>2020-09-06T10:24:27.167Z</time>
      </trkpt>
      <trkpt lat="48.38813" lon="7.26091">
        <ele>1010</ele>
        <time>2020-09-06T10:24:28.168Z</time>
      </trkpt>
      <trkpt lat="48.38813" lon="7.26089">
        <ele>1009</ele>
        <time>2020-09-06T10:24:29.168Z</time>
      </trkpt>
      <trkpt lat="48.38812" lon="7.26088">
        <ele>1009</ele>
        <time>2020-09-06T10:24:30.168Z</time>
      </trkpt>
      <trkpt lat="48.38811" lon="7.26087">
        <ele>1009</ele>
        <time>2020-09-06T10:24:31.167Z</time>
      </trkpt>
      <trkpt lat="48.38811" lon="7.26085">
        <ele>1009</ele>
        <time>2020-09-06T10:24:32.167Z</time>
      </trkpt>
      <trkpt lat="48.38811" lon="7.26084">
        <ele>1010</ele>
        <time>2020-09-06T10:24:33.167Z</time>
      </trkpt>
      <trkpt lat="48.38811" lon="7.26084">
        <ele>1010</ele>
        <time>2020-09-06T10:24:34.167Z</time>
      </trkpt>
      <trkpt lat="48.3881" lon="7.26083">
        <ele>1010</ele>
        <time>2020-09-06T10:24:35.167Z</time>
      </trkpt>
      <trkpt lat="48.3881" lon="7.26083">
        <ele>1010</ele>
        <time>2020-09-06T10:24:36.167Z</time>
      </trkpt>
      <trkpt lat="48.38809" lon="7.26082">
        <ele>1009</ele>
        <time>2020-09-06T10:24:37.168Z</time>
      </trkpt>
      <trkpt lat="48.38808" lon="7.26081">
        <ele>1009</ele>
        <time>2020-09-06T10:24:38.168Z</time>
      </trkpt>
      <trkpt lat="48.38807" lon="7.26079">
        <ele>1009</ele>
        <time>2020-09-06T10:24:39.168Z</time>
      </trkpt>
      <trkpt lat="48.38806" lon="7.26078">
        <ele>1009</ele>
        <time>2020-09-06T10:24:40.168Z</time>
      </trkpt>
      <trkpt lat="48.38806" lon="7.26076">
        <ele>1009</ele>
        <time>2020-09-06T10:24:41.167Z</time>
      </trkpt>
      <trkpt lat="48.38805" lon="7.26075">
        <ele>1009</ele>
        <time>2020-09-06T10:24:42.168Z</time>
      </trkpt>
      <trkpt lat="48.38804" lon="7.26074">
        <ele>1009</ele>
        <time>2020-09-06T10:24:43.168Z</time>
      </trkpt>
      <trkpt lat="48.38804" lon="7.26072">
        <ele>1008</ele>
        <time>2020-09-06T10:24:44.167Z</time>
      </trkpt>
      <trkpt lat="48.38802" lon="7.26071">
        <ele>1008</ele>
        <time>2020-09-06T10:24:45.168Z</time>
      </trkpt>
      <trkpt lat="48.38801" lon="7.26069">
        <ele>1008</ele>
        <time>2020-09-06T10:24:46.167Z</time>
      </trkpt>
      <trkpt lat="48.38801" lon="7.26068">
        <ele>1008</ele>
        <time>2020-09-06T10:24:47.167Z</time>
      </trkpt>
      <trkpt lat="48.388" lon="7.26067">
        <ele>1008</ele>
        <time>2020-09-06T10:24:48.167Z</time>
      </trkpt>
      <trkpt lat="48.388" lon="7.26065">
        <ele>1008</ele>
        <time>2020-09-06T10:24:49.167Z</time>
      </trkpt>
      <trkpt lat="48.38799" lon="7.26064">
        <ele>1008</ele>
        <time>2020-09-06T10:24:50.167Z</time>
      </trkpt>
      <trkpt lat="48.38799" lon="7.26062">
        <ele>1007</ele>
        <time>2020-09-06T10:24:51.167Z</time>
      </trkpt>
      <trkpt lat="48.38798" lon="7.26061">
        <ele>1007</ele>
        <time>2020-09-06T10:24:52.168Z</time>
      </trkpt>
      <trkpt lat="48.38798" lon="7.26059">
        <ele>1006</ele>
        <time>2020-09-06T10:24:53.168Z</time>
      </trkpt>
      <trkpt lat="48.38798" lon="7.26057">
        <ele>1006</ele>
        <time>2020-09-06T10:24:54.168Z</time>
      </trkpt>
      <trkpt lat="48.38797" lon="7.26056">
        <ele>1005</ele>
        <time>2020-09-06T10:24:55.168Z</time>
      </trkpt>
      <trkpt lat="48.38797" lon="7.26055">
        <ele>1005</ele>
        <time>2020-09-06T10:24:56.168Z</time>
      </trkpt>
      <trkpt lat="48.38796" lon="7.26053">
        <ele>1005</ele>
        <time>2020-09-06T10:24:57.168Z</time>
      </trkpt>
      <trkpt lat="48.38796" lon="7.26052">
        <ele>1005</ele>
        <time>2020-09-06T10:24:58.168Z</time>
      </trkpt>
      <trkpt lat="48.38796" lon="7.26051">
        <ele>1005</ele>
        <time>2020-09-06T10:24:59.168Z</time>
      </trkpt>
      <trkpt lat="48.38796" lon="7.2605">
        <ele>1005</ele>
        <time>2020-09-06T10:25:00.168Z</time>
      </trkpt>
      <trkpt lat="48.38795" lon="7.26049">
        <ele>1004</ele>
        <time>2020-09-06T10:25:03.186Z</time>
      </trkpt>
      <trkpt lat="48.38795" lon="7.26048">
        <ele>1004</ele>
        <time>2020-09-06T10:25:04.186Z</time>
      </trkpt>
      <trkpt lat="48.38793" lon="7.26047">
        <ele>1004</ele>
        <time>2020-09-06T10:25:05.186Z</time>
      </trkpt>
      <trkpt lat="48.38792" lon="7.26045">
        <ele>1004</ele>
        <time>2020-09-06T10:25:06.186Z</time>
      </trkpt>
      <trkpt lat="48.38791" lon="7.26043">
        <ele>1004</ele>
        <time>2020-09-06T10:25:07.186Z</time>
      </trkpt>
      <trkpt lat="48.3879" lon="7.26041">
        <ele>1004</ele>
        <time>2020-09-06T10:25:08.185Z</time>
      </trkpt>
      <trkpt lat="48.3879" lon="7.26039">
        <ele>1004</ele>
        <time>2020-09-06T10:25:09.186Z</time>
      </trkpt>
      <trkpt lat="48.38789" lon="7.26037">
        <ele>1004</ele>
        <time>2020-09-06T10:25:10.186Z</time>
      </trkpt>
      <trkpt lat="48.38788" lon="7.26036">
        <ele>1005</ele>
        <time>2020-09-06T10:25:11.186Z</time>
      </trkpt>
      <trkpt lat="48.38788" lon="7.26034">
        <ele>1005</ele>
        <time>2020-09-06T10:25:12.186Z</time>
      </trkpt>
      <trkpt lat="48.38787" lon="7.26033">
        <ele>1006</ele>
        <time>2020-09-06T10:25:13.186Z</time>
      </trkpt>
      <trkpt lat="48.38787" lon="7.26032">
        <ele>1006</ele>
        <time>2020-09-06T10:25:14.185Z</time>
      </trkpt>
      <trkpt lat="48.38786" lon="7.26031">
        <ele>1007</ele>
        <time>2020-09-06T10:25:15.186Z</time>
      </trkpt>
      <trkpt lat="48.38785" lon="7.26031">
        <ele>1007</ele>
        <time>2020-09-06T10:25:16.186Z</time>
      </trkpt>
      <trkpt lat="48.38784" lon="7.26029">
        <ele>1007</ele>
        <time>2020-09-06T10:25:17.185Z</time>
      </trkpt>
      <trkpt lat="48.38783" lon="7.26028">
        <ele>1006</ele>
        <time>2020-09-06T10:25:18.185Z</time>
      </trkpt>
      <trkpt lat="48.38782" lon="7.26026">
        <ele>1006</ele>
        <time>2020-09-06T10:25:19.185Z</time>
      </trkpt>
      <trkpt lat="48.38782" lon="7.26024">
        <ele>1006</ele>
        <time>2020-09-06T10:25:20.185Z</time>
      </trkpt>
      <trkpt lat="48.38781" lon="7.26023">
        <ele>1006</ele>
        <time>2020-09-06T10:25:21.186Z</time>
      </trkpt>
      <trkpt lat="48.38781" lon="7.26021">
        <ele>1005</ele>
        <time>2020-09-06T10:25:22.186Z</time>
      </trkpt>
      <trkpt lat="48.3878" lon="7.2602">
        <ele>1005</ele>
        <time>2020-09-06T10:25:23.185Z</time>
      </trkpt>
      <trkpt lat="48.38779" lon="7.26018">
        <ele>1004</ele>
        <time>2020-09-06T10:25:24.185Z</time>
      </trkpt>
      <trkpt lat="48.38778" lon="7.26016">
        <ele>1003</ele>
        <time>2020-09-06T10:25:25.186Z</time>
      </trkpt>
      <trkpt lat="48.38778" lon="7.26015">
        <ele>1002</ele>
        <time>2020-09-06T10:25:26.185Z</time>
      </trkpt>
      <trkpt lat="48.38777" lon="7.26013">
        <ele>1002</ele>
        <time>2020-09-06T10:25:27.185Z</time>
      </trkpt>
      <trkpt lat="48.38776" lon="7.26011">
        <ele>1002</ele>
        <time>2020-09-06T10:25:28.186Z</time>
      </trkpt>
      <trkpt lat="48.38774" lon="7.2601">
        <ele>1001</ele>
        <time>2020-09-06T10:25:29.185Z</time>
      </trkpt>
      <trkpt lat="48.38773" lon="7.26008">
        <ele>1001</ele>
        <time>2020-09-06T10:25:30.186Z</time>
      </trkpt>
      <trkpt lat="48.38772" lon="7.26007">
        <ele>1001</ele>
        <time>2020-09-06T10:25:31.186Z</time>
      </trkpt>
      <trkpt lat="48.38772" lon="7.26006">
        <ele>1001</ele>
        <time>2020-09-06T10:25:32.186Z</time>
      </trkpt>
      <trkpt lat="48.38771" lon="7.26005">
        <ele>1001</ele>
        <time>2020-09-06T10:25:33.186Z</time>
      </trkpt>
      <trkpt lat="48.38771" lon="7.26003">
        <ele>1001</ele>
        <time>2020-09-06T10:25:34.186Z</time>
      </trkpt>
      <trkpt lat="48.38771" lon="7.26001">
        <ele>1001</ele>
        <time>2020-09-06T10:25:35.186Z</time>
      </trkpt>
      <trkpt lat="48.38769" lon="7.25999">
        <ele>1001</ele>
        <time>2020-09-06T10:25:36.185Z</time>
      </trkpt>
      <trkpt lat="48.38768" lon="7.25997">
        <ele>1001</ele>
        <time>2020-09-06T10:25:37.185Z</time>
      </trkpt>
      <trkpt lat="48.38767" lon="7.25996">
        <ele>1001</ele>
        <time>2020-09-06T10:25:38.186Z</time>
      </trkpt>
      <trkpt lat="48.38766" lon="7.25995">
        <ele>1001</ele>
        <time>2020-09-06T10:25:39.186Z</time>
      </trkpt>
      <trkpt lat="48.38766" lon="7.25993">
        <ele>1001</ele>
        <time>2020-09-06T10:25:40.186Z</time>
      </trkpt>
      <trkpt lat="48.38765" lon="7.25993">
        <ele>1001</ele>
        <time>2020-09-06T10:25:41.185Z</time>
      </trkpt>
      <trkpt lat="48.38764" lon="7.25993">
        <ele>1001</ele>
        <time>2020-09-06T10:25:42.186Z</time>
      </trkpt>
      <trkpt lat="48.38763" lon="7.25994">
        <ele>1001</ele>
        <time>2020-09-06T10:25:43.186Z</time>
      </trkpt>
      <trkpt lat="48.38762" lon="7.25994">
        <ele>1001</ele>
        <time>2020-09-06T10:25:44.186Z</time>
      </trkpt>
      <trkpt lat="48.38762" lon="7.25994">
        <ele>1001</ele>
        <time>2020-09-06T10:25:45.186Z</time>
      </trkpt>
      <trkpt lat="48.38761" lon="7.25993">
        <ele>1001</ele>
        <time>2020-09-06T10:25:46.185Z</time>
      </trkpt>
      <trkpt lat="48.38761" lon="7.25992">
        <ele>1001</ele>
        <time>2020-09-06T10:25:47.186Z</time>
      </trkpt>
      <trkpt lat="48.3876" lon="7.25992">
        <ele>1001</ele>
        <time>2020-09-06T10:25:48.186Z</time>
      </trkpt>
      <trkpt lat="48.38759" lon="7.2599">
        <ele>1001</ele>
        <time>2020-09-06T10:25:49.185Z</time>
      </trkpt>
      <trkpt lat="48.38757" lon="7.25989">
        <ele>1002</ele>
        <time>2020-09-06T10:25:50.186Z</time>
      </trkpt>
      <trkpt lat="48.38756" lon="7.25988">
        <ele>1002</ele>
        <time>2020-09-06T10:25:51.186Z</time>
      </trkpt>
      <trkpt lat="48.38755" lon="7.25986">
        <ele>1003</ele>
        <time>2020-09-06T10:25:52.185Z</time>
      </trkpt>
      <trkpt lat="48.38754" lon="7.25985">
        <ele>1003</ele>
        <time>2020-09-06T10:25:53.186Z</time>
      </trkpt>
      <trkpt lat="48.38753" lon="7.25984">
        <ele>1003</ele>
        <time>2020-09-06T10:25:54.185Z</time>
      </trkpt>
      <trkpt lat="48.38752" lon="7.25983">
        <ele>1004</ele>
        <time>2020-09-06T10:25:55.186Z</time>
      </trkpt>
      <trkpt lat="48.38751" lon="7.25982">
        <ele>1004</ele>
        <time>2020-09-06T10:25:56.186Z</time>
      </trkpt>
      <trkpt lat="48.38751" lon="7.25981">
        <ele>1004</ele>
        <time>2020-09-06T10:25:57.186Z</time>
      </trkpt>
      <trkpt lat="48.3875" lon="7.25979">
        <ele>1004</ele>
        <time>2020-09-06T10:25:58.186Z</time>
      </trkpt>
      <trkpt lat="48.38749" lon="7.25977">
        <ele>1004</ele>
        <time>2020-09-06T10:25:59.186Z</time>
      </trkpt>
      <trkpt lat="48.38748" lon="7.25976">
        <ele>1005</ele>
        <time>2020-09-06T10:26:00.186Z</time>
      </trkpt>
      <trkpt lat="48.38747" lon="7.25975">
        <ele>1005</ele>
        <time>2020-09-06T10:26:01.186Z</time>
      </trkpt>
      <trkpt lat="48.38745" lon="7.25974">
        <ele>1005</ele>
        <time>2020-09-06T10:26:02.186Z</time>
      </trkpt>
      <trkpt lat="48.38744" lon="7.25973">
        <ele>1005</ele>
        <time>2020-09-06T10:26:03.186Z</time>
      </trkpt>
      <trkpt lat="48.38743" lon="7.25972">
        <ele>1005</ele>
        <time>2020-09-06T10:26:04.186Z</time>
      </trkpt>
      <trkpt lat="48.38742" lon="7.2597">
        <ele>1005</ele>
        <time>2020-09-06T10:26:05.185Z</time>
      </trkpt>
      <trkpt lat="48.38742" lon="7.25969">
        <ele>1005</ele>
        <time>2020-09-06T10:26:06.185Z</time>
      </trkpt>
      <trkpt lat="48.38741" lon="7.25968">
        <ele>1005</ele>
        <time>2020-09-06T10:26:07.186Z</time>
      </trkpt>
      <trkpt lat="48.3874" lon="7.25967">
        <ele>1005</ele>
        <time>2020-09-06T10:26:08.186Z</time>
      </trkpt>
      <trkpt lat="48.3874" lon="7.25965">
        <ele>1004</ele>
        <time>2020-09-06T10:26:09.186Z</time>
      </trkpt>
      <trkpt lat="48.38739" lon="7.25964">
        <ele>1004</ele>
        <time>2020-09-06T10:26:10.186Z</time>
      </trkpt>
      <trkpt lat="48.38738" lon="7.25963">
        <ele>1003</ele>
        <time>2020-09-06T10:26:11.185Z</time>
      </trkpt>
      <trkpt lat="48.38737" lon="7.25961">
        <ele>1003</ele>
        <time>2020-09-06T10:26:12.186Z</time>
      </trkpt>
      <trkpt lat="48.38736" lon="7.2596">
        <ele>1003</ele>
        <time>2020-09-06T10:26:13.186Z</time>
      </trkpt>
      <trkpt lat="48.38735" lon="7.25958">
        <ele>1003</ele>
        <time>2020-09-06T10:26:14.186Z</time>
      </trkpt>
      <trkpt lat="48.38735" lon="7.25955">
        <ele>1003</ele>
        <time>2020-09-06T10:26:15.186Z</time>
      </trkpt>
      <trkpt lat="48.38734" lon="7.25954">
        <ele>1003</ele>
        <time>2020-09-06T10:26:16.186Z</time>
      </trkpt>
      <trkpt lat="48.38733" lon="7.25953">
        <ele>1003</ele>
        <time>2020-09-06T10:26:17.185Z</time>
      </trkpt>
      <trkpt lat="48.38733" lon="7.25952">
        <ele>1002</ele>
        <time>2020-09-06T10:26:18.186Z</time>
      </trkpt>
      <trkpt lat="48.38732" lon="7.25951">
        <ele>1002</ele>
        <time>2020-09-06T10:26:19.186Z</time>
      </trkpt>
      <trkpt lat="48.38731" lon="7.2595">
        <ele>1001</ele>
        <time>2020-09-06T10:26:20.185Z</time>
      </trkpt>
      <trkpt lat="48.3873" lon="7.25949">
        <ele>1001</ele>
        <time>2020-09-06T10:26:21.185Z</time>
      </trkpt>
      <trkpt lat="48.38729" lon="7.25947">
        <ele>1000</ele>
        <time>2020-09-06T10:26:22.186Z</time>
      </trkpt>
      <trkpt lat="48.38728" lon="7.25946">
        <ele>1000</ele>
        <time>2020-09-06T10:26:23.186Z</time>
      </trkpt>
      <trkpt lat="48.38727" lon="7.25945">
        <ele>999</ele>
        <time>2020-09-06T10:26:24.186Z</time>
      </trkpt>
      <trkpt lat="48.38726" lon="7.25944">
        <ele>999</ele>
        <time>2020-09-06T10:26:25.185Z</time>
      </trkpt>
      <trkpt lat="48.38725" lon="7.25942">
        <ele>999</ele>
        <time>2020-09-06T10:26:26.185Z</time>
      </trkpt>
      <trkpt lat="48.38724" lon="7.25941">
        <ele>999</ele>
        <time>2020-09-06T10:26:27.186Z</time>
      </trkpt>
      <trkpt lat="48.38723" lon="7.25939">
        <ele>999</ele>
        <time>2020-09-06T10:26:28.186Z</time>
      </trkpt>
      <trkpt lat="48.38723" lon="7.25937">
        <ele>999</ele>
        <time>2020-09-06T10:26:29.185Z</time>
      </trkpt>
      <trkpt lat="48.38722" lon="7.25935">
        <ele>999</ele>
        <time>2020-09-06T10:26:30.186Z</time>
      </trkpt>
      <trkpt lat="48.38722" lon="7.25932">
        <ele>999</ele>
        <time>2020-09-06T10:26:31.186Z</time>
      </trkpt>
      <trkpt lat="48.38723" lon="7.25929">
        <ele>998</ele>
        <time>2020-09-06T10:26:32.186Z</time>
      </trkpt>
      <trkpt lat="48.38724" lon="7.25926">
        <ele>998</ele>
        <time>2020-09-06T10:26:33.186Z</time>
      </trkpt>
      <trkpt lat="48.38724" lon="7.25924">
        <ele>997</ele>
        <time>2020-09-06T10:26:34.186Z</time>
      </trkpt>
      <trkpt lat="48.38725" lon="7.25923">
        <ele>996</ele>
        <time>2020-09-06T10:26:35.186Z</time>
      </trkpt>
      <trkpt lat="48.38725" lon="7.25921">
        <ele>995</ele>
        <time>2020-09-06T10:26:36.186Z</time>
      </trkpt>
      <trkpt lat="48.38726" lon="7.25919">
        <ele>994</ele>
        <time>2020-09-06T10:26:37.186Z</time>
      </trkpt>
      <trkpt lat="48.38726" lon="7.25918">
        <ele>993</ele>
        <time>2020-09-06T10:26:38.186Z</time>
      </trkpt>
      <trkpt lat="48.38727" lon="7.25916">
        <ele>993</ele>
        <time>2020-09-06T10:26:39.186Z</time>
      </trkpt>
      <trkpt lat="48.38728" lon="7.25915">
        <ele>992</ele>
        <time>2020-09-06T10:26:40.186Z</time>
      </trkpt>
      <trkpt lat="48.38728" lon="7.25913">
        <ele>991</ele>
        <time>2020-09-06T10:26:41.186Z</time>
      </trkpt>
      <trkpt lat="48.38729" lon="7.25911">
        <ele>991</ele>
        <time>2020-09-06T10:26:42.186Z</time>
      </trkpt>
      <trkpt lat="48.3873" lon="7.2591">
        <ele>991</ele>
        <time>2020-09-06T10:26:43.186Z</time>
      </trkpt>
      <trkpt lat="48.3873" lon="7.25908">
        <ele>990</ele>
        <time>2020-09-06T10:26:44.186Z</time>
      </trkpt>
      <trkpt lat="48.38731" lon="7.25906">
        <ele>990</ele>
        <time>2020-09-06T10:26:45.186Z</time>
      </trkpt>
      <trkpt lat="48.38731" lon="7.25903">
        <ele>990</ele>
        <time>2020-09-06T10:26:46.186Z</time>
      </trkpt>
      <trkpt lat="48.38731" lon="7.25901">
        <ele>989</ele>
        <time>2020-09-06T10:26:47.185Z</time>
      </trkpt>
      <trkpt lat="48.38732" lon="7.259">
        <ele>989</ele>
        <time>2020-09-06T10:26:48.186Z</time>
      </trkpt>
      <trkpt lat="48.38732" lon="7.25898">
        <ele>989</ele>
        <time>2020-09-06T10:26:49.185Z</time>
      </trkpt>
      <trkpt lat="48.38731" lon="7.25895">
        <ele>989</ele>
        <time>2020-09-06T10:26:50.186Z</time>
      </trkpt>
      <trkpt lat="48.38731" lon="7.25893">
        <ele>989</ele>
        <time>2020-09-06T10:26:51.186Z</time>
      </trkpt>
      <trkpt lat="48.38732" lon="7.25891">
        <ele>989</ele>
        <time>2020-09-06T10:26:52.185Z</time>
      </trkpt>
      <trkpt lat="48.38732" lon="7.25889">
        <ele>989</ele>
        <time>2020-09-06T10:26:53.186Z</time>
      </trkpt>
      <trkpt lat="48.38733" lon="7.25887">
        <ele>989</ele>
        <time>2020-09-06T10:26:54.186Z</time>
      </trkpt>
      <trkpt lat="48.38733" lon="7.25885">
        <ele>988</ele>
        <time>2020-09-06T10:26:55.186Z</time>
      </trkpt>
      <trkpt lat="48.38733" lon="7.25883">
        <ele>988</ele>
        <time>2020-09-06T10:26:56.186Z</time>
      </trkpt>
      <trkpt lat="48.38734" lon="7.25882">
        <ele>988</ele>
        <time>2020-09-06T10:26:57.185Z</time>
      </trkpt>
      <trkpt lat="48.38735" lon="7.2588">
        <ele>987</ele>
        <time>2020-09-06T10:26:58.186Z</time>
      </trkpt>
      <trkpt lat="48.38735" lon="7.25878">
        <ele>987</ele>
        <time>2020-09-06T10:26:59.185Z</time>
      </trkpt>
      <trkpt lat="48.38735" lon="7.25876">
        <ele>986</ele>
        <time>2020-09-06T10:27:00.186Z</time>
      </trkpt>
      <trkpt lat="48.38735" lon="7.25874">
        <ele>986</ele>
        <time>2020-09-06T10:27:01.186Z</time>
      </trkpt>
      <trkpt lat="48.38735" lon="7.25872">
        <ele>986</ele>
        <time>2020-09-06T10:27:02.186Z</time>
      </trkpt>
      <trkpt lat="48.38736" lon="7.25871">
        <ele>985</ele>
        <time>2020-09-06T10:27:03.185Z</time>
      </trkpt>
      <trkpt lat="48.38736" lon="7.25869">
        <ele>985</ele>
        <time>2020-09-06T10:27:04.185Z</time>
      </trkpt>
      <trkpt lat="48.38737" lon="7.25867">
        <ele>984</ele>
        <time>2020-09-06T10:27:05.186Z</time>
      </trkpt>
      <trkpt lat="48.38737" lon="7.25865">
        <ele>984</ele>
        <time>2020-09-06T10:27:06.186Z</time>
      </trkpt>
      <trkpt lat="48.38738" lon="7.25863">
        <ele>983</ele>
        <time>2020-09-06T10:27:07.186Z</time>
      </trkpt>
      <trkpt lat="48.38739" lon="7.25862">
        <ele>983</ele>
        <time>2020-09-06T10:27:08.185Z</time>
      </trkpt>
      <trkpt lat="48.38739" lon="7.25861">
        <ele>982</ele>
        <time>2020-09-06T10:27:09.186Z</time>
      </trkpt>
      <trkpt lat="48.38741" lon="7.25859">
        <ele>982</ele>
        <time>2020-09-06T10:27:10.185Z</time>
      </trkpt>
      <trkpt lat="48.38741" lon="7.25858">
        <ele>982</ele>
        <time>2020-09-06T10:27:11.186Z</time>
      </trkpt>
      <trkpt lat="48.38742" lon="7.25857">
        <ele>982</ele>
        <time>2020-09-06T10:27:12.186Z</time>
      </trkpt>
      <trkpt lat="48.38743" lon="7.25855">
        <ele>982</ele>
        <time>2020-09-06T10:27:13.185Z</time>
      </trkpt>
      <trkpt lat="48.38744" lon="7.25854">
        <ele>982</ele>
        <time>2020-09-06T10:27:14.185Z</time>
      </trkpt>
      <trkpt lat="48.38744" lon="7.25851">
        <ele>982</ele>
        <time>2020-09-06T10:27:15.186Z</time>
      </trkpt>
      <trkpt lat="48.38745" lon="7.2585">
        <ele>982</ele>
        <time>2020-09-06T10:27:16.186Z</time>
      </trkpt>
      <trkpt lat="48.38745" lon="7.25848">
        <ele>981</ele>
        <time>2020-09-06T10:27:17.186Z</time>
      </trkpt>
      <trkpt lat="48.38746" lon="7.25847">
        <ele>981</ele>
        <time>2020-09-06T10:27:18.186Z</time>
      </trkpt>
      <trkpt lat="48.38746" lon="7.25845">
        <ele>981</ele>
        <time>2020-09-06T10:27:19.186Z</time>
      </trkpt>
      <trkpt lat="48.38746" lon="7.25843">
        <ele>981</ele>
        <time>2020-09-06T10:27:20.186Z</time>
      </trkpt>
      <trkpt lat="48.38746" lon="7.25842">
        <ele>981</ele>
        <time>2020-09-06T10:27:21.186Z</time>
      </trkpt>
      <trkpt lat="48.38746" lon="7.2584">
        <ele>981</ele>
        <time>2020-09-06T10:27:22.185Z</time>
      </trkpt>
      <trkpt lat="48.38746" lon="7.25838">
        <ele>981</ele>
        <time>2020-09-06T10:27:23.186Z</time>
      </trkpt>
      <trkpt lat="48.38747" lon="7.25836">
        <ele>981</ele>
        <time>2020-09-06T10:27:24.185Z</time>
      </trkpt>
      <trkpt lat="48.38747" lon="7.25835">
        <ele>981</ele>
        <time>2020-09-06T10:27:25.185Z</time>
      </trkpt>
      <trkpt lat="48.38747" lon="7.25833">
        <ele>981</ele>
        <time>2020-09-06T10:27:26.185Z</time>
      </trkpt>
      <trkpt lat="48.38748" lon="7.25831">
        <ele>981</ele>
        <time>2020-09-06T10:27:27.186Z</time>
      </trkpt>
      <trkpt lat="48.38748" lon="7.25829">
        <ele>981</ele>
        <time>2020-09-06T10:27:28.185Z</time>
      </trkpt>
      <trkpt lat="48.38748" lon="7.25827">
        <ele>981</ele>
        <time>2020-09-06T10:27:29.186Z</time>
      </trkpt>
      <trkpt lat="48.38748" lon="7.25825">
        <ele>980</ele>
        <time>2020-09-06T10:27:30.185Z</time>
      </trkpt>
      <trkpt lat="48.38749" lon="7.25823">
        <ele>980</ele>
        <time>2020-09-06T10:27:31.186Z</time>
      </trkpt>
      <trkpt lat="48.38749" lon="7.25821">
        <ele>980</ele>
        <time>2020-09-06T10:27:32.186Z</time>
      </trkpt>
      <trkpt lat="48.38749" lon="7.25819">
        <ele>979</ele>
        <time>2020-09-06T10:27:33.185Z</time>
      </trkpt>
      <trkpt lat="48.38749" lon="7.25818">
        <ele>979</ele>
        <time>2020-09-06T10:27:34.185Z</time>
      </trkpt>
      <trkpt lat="48.3875" lon="7.25816">
        <ele>978</ele>
        <time>2020-09-06T10:27:35.185Z</time>
      </trkpt>
      <trkpt lat="48.3875" lon="7.25814">
        <ele>978</ele>
        <time>2020-09-06T10:27:36.186Z</time>
      </trkpt>
      <trkpt lat="48.3875" lon="7.25812">
        <ele>978</ele>
        <time>2020-09-06T10:27:37.186Z</time>
      </trkpt>
      <trkpt lat="48.3875" lon="7.25809">
        <ele>977</ele>
        <time>2020-09-06T10:27:38.185Z</time>
      </trkpt>
      <trkpt lat="48.3875" lon="7.25807">
        <ele>977</ele>
        <time>2020-09-06T10:27:39.186Z</time>
      </trkpt>
      <trkpt lat="48.3875" lon="7.25805">
        <ele>976</ele>
        <time>2020-09-06T10:27:40.186Z</time>
      </trkpt>
      <trkpt lat="48.38751" lon="7.25803">
        <ele>976</ele>
        <time>2020-09-06T10:27:41.186Z</time>
      </trkpt>
      <trkpt lat="48.38751" lon="7.25801">
        <ele>976</ele>
        <time>2020-09-06T10:27:42.186Z</time>
      </trkpt>
      <trkpt lat="48.38751" lon="7.25798">
        <ele>975</ele>
        <time>2020-09-06T10:27:43.186Z</time>
      </trkpt>
      <trkpt lat="48.38753" lon="7.25798">
        <ele>975</ele>
        <time>2020-09-06T10:27:44.186Z</time>
      </trkpt>
      <trkpt lat="48.38753" lon="7.25797">
        <ele>975</ele>
        <time>2020-09-06T10:27:45.186Z</time>
      </trkpt>
      <trkpt lat="48.38754" lon="7.25796">
        <ele>975</ele>
        <time>2020-09-06T10:27:46.186Z</time>
      </trkpt>
      <trkpt lat="48.38755" lon="7.25795">
        <ele>974</ele>
        <time>2020-09-06T10:27:47.186Z</time>
      </trkpt>
      <trkpt lat="48.38756" lon="7.25793">
        <ele>974</ele>
        <time>2020-09-06T10:27:48.186Z</time>
      </trkpt>
      <trkpt lat="48.38757" lon="7.25792">
        <ele>974</ele>
        <time>2020-09-06T10:27:49.186Z</time>
      </trkpt>
      <trkpt lat="48.38758" lon="7.25791">
        <ele>974</ele>
        <time>2020-09-06T10:27:50.186Z</time>
      </trkpt>
      <trkpt lat="48.38759" lon="7.25789">
        <ele>974</ele>
        <time>2020-09-06T10:27:51.186Z</time>
      </trkpt>
      <trkpt lat="48.3876" lon="7.25788">
        <ele>974</ele>
        <time>2020-09-06T10:27:52.186Z</time>
      </trkpt>
      <trkpt lat="48.38761" lon="7.25788">
        <ele>973</ele>
        <time>2020-09-06T10:27:53.186Z</time>
      </trkpt>
      <trkpt lat="48.38762" lon="7.25786">
        <ele>974</ele>
        <time>2020-09-06T10:27:54.186Z</time>
      </trkpt>
      <trkpt lat="48.38763" lon="7.25785">
        <ele>974</ele>
        <time>2020-09-06T10:27:55.186Z</time>
      </trkpt>
      <trkpt lat="48.38764" lon="7.25783">
        <ele>974</ele>
        <time>2020-09-06T10:27:56.186Z</time>
      </trkpt>
      <trkpt lat="48.38765" lon="7.25782">
        <ele>974</ele>
        <time>2020-09-06T10:27:57.186Z</time>
      </trkpt>
      <trkpt lat="48.38765" lon="7.25781">
        <ele>974</ele>
        <time>2020-09-06T10:27:58.186Z</time>
      </trkpt>
      <trkpt lat="48.38766" lon="7.2578">
        <ele>974</ele>
        <time>2020-09-06T10:27:59.186Z</time>
      </trkpt>
      <trkpt lat="48.38766" lon="7.25778">
        <ele>974</ele>
        <time>2020-09-06T10:28:00.185Z</time>
      </trkpt>
      <trkpt lat="48.38766" lon="7.25777">
        <ele>974</ele>
        <time>2020-09-06T10:28:01.186Z</time>
      </trkpt>
      <trkpt lat="48.38766" lon="7.25776">
        <ele>974</ele>
        <time>2020-09-06T10:28:02.186Z</time>
      </trkpt>
      <trkpt lat="48.38765" lon="7.25776">
        <ele>974</ele>
        <time>2020-09-06T10:28:03.186Z</time>
      </trkpt>
      <trkpt lat="48.38765" lon="7.25775">
        <ele>974</ele>
        <time>2020-09-06T10:28:04.186Z</time>
      </trkpt>
      <trkpt lat="48.38764" lon="7.25775">
        <ele>974</ele>
        <time>2020-09-06T10:28:05.186Z</time>
      </trkpt>
      <trkpt lat="48.38762" lon="7.25775">
        <ele>975</ele>
        <time>2020-09-06T10:28:06.186Z</time>
      </trkpt>
      <trkpt lat="48.38761" lon="7.25776">
        <ele>975</ele>
        <time>2020-09-06T10:28:07.186Z</time>
      </trkpt>
      <trkpt lat="48.3876" lon="7.25778">
        <ele>975</ele>
        <time>2020-09-06T10:28:08.185Z</time>
      </trkpt>
      <trkpt lat="48.3876" lon="7.25779">
        <ele>976</ele>
        <time>2020-09-06T10:28:09.185Z</time>
      </trkpt>
      <trkpt lat="48.3876" lon="7.2578">
        <ele>976</ele>
        <time>2020-09-06T10:28:10.186Z</time>
      </trkpt>
      <trkpt lat="48.38759" lon="7.2578">
        <ele>976</ele>
        <time>2020-09-06T10:28:11.186Z</time>
      </trkpt>
      <trkpt lat="48.38757" lon="7.2578">
        <ele>976</ele>
        <time>2020-09-06T10:28:12.186Z</time>
      </trkpt>
      <trkpt lat="48.38756" lon="7.25778">
        <ele>977</ele>
        <time>2020-09-06T10:28:13.186Z</time>
      </trkpt>
      <trkpt lat="48.38754" lon="7.25777">
        <ele>977</ele>
        <time>2020-09-06T10:28:14.185Z</time>
      </trkpt>
      <trkpt lat="48.38753" lon="7.25777">
        <ele>978</ele>
        <time>2020-09-06T10:28:15.186Z</time>
      </trkpt>
      <trkpt lat="48.38753" lon="7.25777">
        <ele>978</ele>
        <time>2020-09-06T10:28:16.186Z</time>
      </trkpt>
      <trkpt lat="48.38753" lon="7.25776">
        <ele>978</ele>
        <time>2020-09-06T10:28:17.185Z</time>
      </trkpt>
      <trkpt lat="48.38753" lon="7.25776">
        <ele>978</ele>
        <time>2020-09-06T10:28:18.186Z</time>
      </trkpt>
      <trkpt lat="48.38752" lon="7.25777">
        <ele>978</ele>
        <time>2020-09-06T10:28:19.186Z</time>
      </trkpt>
      <trkpt lat="48.3875" lon="7.25777">
        <ele>978</ele>
        <time>2020-09-06T10:28:20.186Z</time>
      </trkpt>
      <trkpt lat="48.3875" lon="7.25778">
        <ele>979</ele>
        <time>2020-09-06T10:28:21.185Z</time>
      </trkpt>
      <trkpt lat="48.38749" lon="7.25778">
        <ele>979</ele>
        <time>2020-09-06T10:28:22.185Z</time>
      </trkpt>
      <trkpt lat="48.38748" lon="7.25777">
        <ele>979</ele>
        <time>2020-09-06T10:28:23.186Z</time>
      </trkpt>
      <trkpt lat="48.38747" lon="7.25776">
        <ele>980</ele>
        <time>2020-09-06T10:28:24.185Z</time>
      </trkpt>
      <trkpt lat="48.38746" lon="7.25775">
        <ele>980</ele>
        <time>2020-09-06T10:28:25.186Z</time>
      </trkpt>
      <trkpt lat="48.38745" lon="7.25775">
        <ele>980</ele>
        <time>2020-09-06T10:28:26.186Z</time>
      </trkpt>
      <trkpt lat="48.38744" lon="7.25774">
        <ele>979</ele>
        <time>2020-09-06T10:28:27.186Z</time>
      </trkpt>
      <trkpt lat="48.38742" lon="7.25773">
        <ele>979</ele>
        <time>2020-09-06T10:28:28.186Z</time>
      </trkpt>
      <trkpt lat="48.38741" lon="7.25773">
        <ele>979</ele>
        <time>2020-09-06T10:28:29.186Z</time>
      </trkpt>
      <trkpt lat="48.3874" lon="7.25772">
        <ele>978</ele>
        <time>2020-09-06T10:28:30.186Z</time>
      </trkpt>
      <trkpt lat="48.38739" lon="7.25772">
        <ele>977</ele>
        <time>2020-09-06T10:28:31.186Z</time>
      </trkpt>
      <trkpt lat="48.38738" lon="7.25772">
        <ele>977</ele>
        <time>2020-09-06T10:28:32.186Z</time>
      </trkpt>
      <trkpt lat="48.38736" lon="7.25772">
        <ele>976</ele>
        <time>2020-09-06T10:28:33.186Z</time>
      </trkpt>
      <trkpt lat="48.38735" lon="7.25772">
        <ele>976</ele>
        <time>2020-09-06T10:28:34.185Z</time>
      </trkpt>
      <trkpt lat="48.38733" lon="7.25772">
        <ele>976</ele>
        <time>2020-09-06T10:28:35.186Z</time>
      </trkpt>
      <trkpt lat="48.38732" lon="7.25771">
        <ele>976</ele>
        <time>2020-09-06T10:28:36.186Z</time>
      </trkpt>
      <trkpt lat="48.38731" lon="7.2577">
        <ele>975</ele>
        <time>2020-09-06T10:28:37.186Z</time>
      </trkpt>
      <trkpt lat="48.3873" lon="7.25769">
        <ele>975</ele>
        <time>2020-09-06T10:28:38.186Z</time>
      </trkpt>
      <trkpt lat="48.38729" lon="7.25768">
        <ele>975</ele>
        <time>2020-09-06T10:28:39.186Z</time>
      </trkpt>
      <trkpt lat="48.38728" lon="7.25767">
        <ele>976</ele>
        <time>2020-09-06T10:28:40.185Z</time>
      </trkpt>
      <trkpt lat="48.38727" lon="7.25767">
        <ele>976</ele>
        <time>2020-09-06T10:28:41.186Z</time>
      </trkpt>
      <trkpt lat="48.38726" lon="7.25766">
        <ele>976</ele>
        <time>2020-09-06T10:28:42.186Z</time>
      </trkpt>
      <trkpt lat="48.38724" lon="7.25765">
        <ele>976</ele>
        <time>2020-09-06T10:28:43.186Z</time>
      </trkpt>
      <trkpt lat="48.38723" lon="7.25763">
        <ele>976</ele>
        <time>2020-09-06T10:28:44.186Z</time>
      </trkpt>
      <trkpt lat="48.38722" lon="7.25763">
        <ele>976</ele>
        <time>2020-09-06T10:28:45.186Z</time>
      </trkpt>
      <trkpt lat="48.38721" lon="7.25761">
        <ele>976</ele>
        <time>2020-09-06T10:28:46.186Z</time>
      </trkpt>
      <trkpt lat="48.3872" lon="7.2576">
        <ele>976</ele>
        <time>2020-09-06T10:28:47.186Z</time>
      </trkpt>
      <trkpt lat="48.38719" lon="7.25759">
        <ele>977</ele>
        <time>2020-09-06T10:28:48.186Z</time>
      </trkpt>
      <trkpt lat="48.38718" lon="7.25758">
        <ele>977</ele>
        <time>2020-09-06T10:28:49.185Z</time>
      </trkpt>
      <trkpt lat="48.38717" lon="7.25757">
        <ele>977</ele>
        <time>2020-09-06T10:28:50.185Z</time>
      </trkpt>
      <trkpt lat="48.38715" lon="7.25758">
        <ele>977</ele>
        <time>2020-09-06T10:28:51.186Z</time>
      </trkpt>
      <trkpt lat="48.38713" lon="7.25759">
        <ele>977</ele>
        <time>2020-09-06T10:28:52.185Z</time>
      </trkpt>
      <trkpt lat="48.38712" lon="7.25758">
        <ele>977</ele>
        <time>2020-09-06T10:28:53.185Z</time>
      </trkpt>
      <trkpt lat="48.3871" lon="7.25757">
        <ele>977</ele>
        <time>2020-09-06T10:28:54.186Z</time>
      </trkpt>
      <trkpt lat="48.3871" lon="7.25755">
        <ele>977</ele>
        <time>2020-09-06T10:28:55.186Z</time>
      </trkpt>
      <trkpt lat="48.38708" lon="7.25755">
        <ele>977</ele>
        <time>2020-09-06T10:28:56.186Z</time>
      </trkpt>
      <trkpt lat="48.38708" lon="7.25753">
        <ele>977</ele>
        <time>2020-09-06T10:28:57.186Z</time>
      </trkpt>
      <trkpt lat="48.38707" lon="7.25752">
        <ele>977</ele>
        <time>2020-09-06T10:28:58.186Z</time>
      </trkpt>
      <trkpt lat="48.38706" lon="7.2575">
        <ele>977</ele>
        <time>2020-09-06T10:28:59.186Z</time>
      </trkpt>
      <trkpt lat="48.38705" lon="7.25749">
        <ele>977</ele>
        <time>2020-09-06T10:29:00.186Z</time>
      </trkpt>
      <trkpt lat="48.38704" lon="7.25748">
        <ele>977</ele>
        <time>2020-09-06T10:29:01.185Z</time>
      </trkpt>
      <trkpt lat="48.38703" lon="7.25746">
        <ele>976</ele>
        <time>2020-09-06T10:29:02.186Z</time>
      </trkpt>
      <trkpt lat="48.38701" lon="7.25745">
        <ele>976</ele>
        <time>2020-09-06T10:29:03.185Z</time>
      </trkpt>
      <trkpt lat="48.387" lon="7.25745">
        <ele>976</ele>
        <time>2020-09-06T10:29:04.185Z</time>
      </trkpt>
      <trkpt lat="48.387" lon="7.25743">
        <ele>976</ele>
        <time>2020-09-06T10:29:05.185Z</time>
      </trkpt>
      <trkpt lat="48.38699" lon="7.25743">
        <ele>976</ele>
        <time>2020-09-06T10:29:06.185Z</time>
      </trkpt>
      <trkpt lat="48.38697" lon="7.25741">
        <ele>975</ele>
        <time>2020-09-06T10:29:07.186Z</time>
      </trkpt>
      <trkpt lat="48.38696" lon="7.2574">
        <ele>975</ele>
        <time>2020-09-06T10:29:08.186Z</time>
      </trkpt>
      <trkpt lat="48.38695" lon="7.25739">
        <ele>975</ele>
        <time>2020-09-06T10:29:09.186Z</time>
      </trkpt>
      <trkpt lat="48.38695" lon="7.25738">
        <ele>975</ele>
        <time>2020-09-06T10:29:10.186Z</time>
      </trkpt>
      <trkpt lat="48.38694" lon="7.25737">
        <ele>975</ele>
        <time>2020-09-06T10:29:11.186Z</time>
      </trkpt>
      <trkpt lat="48.38693" lon="7.25735">
        <ele>975</ele>
        <time>2020-09-06T10:29:12.186Z</time>
      </trkpt>
      <trkpt lat="48.38693" lon="7.25734">
        <ele>975</ele>
        <time>2020-09-06T10:29:13.186Z</time>
      </trkpt>
      <trkpt lat="48.38692" lon="7.25732">
        <ele>975</ele>
        <time>2020-09-06T10:29:14.186Z</time>
      </trkpt>
      <trkpt lat="48.38691" lon="7.25732">
        <ele>975</ele>
        <time>2020-09-06T10:29:15.185Z</time>
      </trkpt>
      <trkpt lat="48.38689" lon="7.25732">
        <ele>975</ele>
        <time>2020-09-06T10:29:16.185Z</time>
      </trkpt>
      <trkpt lat="48.38688" lon="7.25731">
        <ele>975</ele>
        <time>2020-09-06T10:29:17.186Z</time>
      </trkpt>
      <trkpt lat="48.38687" lon="7.25731">
        <ele>975</ele>
        <time>2020-09-06T10:29:18.186Z</time>
      </trkpt>
      <trkpt lat="48.38686" lon="7.25729">
        <ele>975</ele>
        <time>2020-09-06T10:29:19.185Z</time>
      </trkpt>
      <trkpt lat="48.38685" lon="7.25728">
        <ele>975</ele>
        <time>2020-09-06T10:29:20.186Z</time>
      </trkpt>
      <trkpt lat="48.38684" lon="7.25727">
        <ele>975</ele>
        <time>2020-09-06T10:29:21.186Z</time>
      </trkpt>
      <trkpt lat="48.38683" lon="7.25726">
        <ele>975</ele>
        <time>2020-09-06T10:29:22.186Z</time>
      </trkpt>
      <trkpt lat="48.38682" lon="7.25727">
        <ele>976</ele>
        <time>2020-09-06T10:29:23.185Z</time>
      </trkpt>
      <trkpt lat="48.38681" lon="7.25726">
        <ele>976</ele>
        <time>2020-09-06T10:29:24.186Z</time>
      </trkpt>
      <trkpt lat="48.3868" lon="7.25726">
        <ele>976</ele>
        <time>2020-09-06T10:29:25.185Z</time>
      </trkpt>
      <trkpt lat="48.38679" lon="7.25725">
        <ele>977</ele>
        <time>2020-09-06T10:29:26.186Z</time>
      </trkpt>
      <trkpt lat="48.38678" lon="7.25724">
        <ele>977</ele>
        <time>2020-09-06T10:29:27.186Z</time>
      </trkpt>
      <trkpt lat="48.38677" lon="7.25723">
        <ele>978</ele>
        <time>2020-09-06T10:29:28.186Z</time>
      </trkpt>
      <trkpt lat="48.38677" lon="7.25722">
        <ele>978</ele>
        <time>2020-09-06T10:29:29.186Z</time>
      </trkpt>
      <trkpt lat="48.38676" lon="7.25721">
        <ele>979</ele>
        <time>2020-09-06T10:29:30.186Z</time>
      </trkpt>
      <trkpt lat="48.38675" lon="7.25721">
        <ele>980</ele>
        <time>2020-09-06T10:29:31.186Z</time>
      </trkpt>
      <trkpt lat="48.38674" lon="7.25721">
        <ele>980</ele>
        <time>2020-09-06T10:29:32.186Z</time>
      </trkpt>
      <trkpt lat="48.38673" lon="7.2572">
        <ele>981</ele>
        <time>2020-09-06T10:29:33.186Z</time>
      </trkpt>
      <trkpt lat="48.38672" lon="7.25719">
        <ele>981</ele>
        <time>2020-09-06T10:29:34.185Z</time>
      </trkpt>
      <trkpt lat="48.38671" lon="7.25718">
        <ele>982</ele>
        <time>2020-09-06T10:29:35.185Z</time>
      </trkpt>
      <trkpt lat="48.3867" lon="7.25717">
        <ele>983</ele>
        <time>2020-09-06T10:29:36.186Z</time>
      </trkpt>
      <trkpt lat="48.38669" lon="7.25717">
        <ele>983</ele>
        <time>2020-09-06T10:29:37.186Z</time>
      </trkpt>
      <trkpt lat="48.38668" lon="7.25716">
        <ele>984</ele>
        <time>2020-09-06T10:29:38.186Z</time>
      </trkpt>
      <trkpt lat="48.38666" lon="7.25716">
        <ele>985</ele>
        <time>2020-09-06T10:29:39.186Z</time>
      </trkpt>
      <trkpt lat="48.38664" lon="7.25715">
        <ele>985</ele>
        <time>2020-09-06T10:29:40.186Z</time>
      </trkpt>
      <trkpt lat="48.38663" lon="7.25714">
        <ele>986</ele>
        <time>2020-09-06T10:29:41.186Z</time>
      </trkpt>
      <trkpt lat="48.38662" lon="7.25714">
        <ele>986</ele>
        <time>2020-09-06T10:29:42.186Z</time>
      </trkpt>
      <trkpt lat="48.38661" lon="7.25714">
        <ele>986</ele>
        <time>2020-09-06T10:29:43.185Z</time>
      </trkpt>
      <trkpt lat="48.3866" lon="7.25713">
        <ele>986</ele>
        <time>2020-09-06T10:29:44.186Z</time>
      </trkpt>
      <trkpt lat="48.3866" lon="7.25712">
        <ele>986</ele>
        <time>2020-09-06T10:29:45.185Z</time>
      </trkpt>
      <trkpt lat="48.38658" lon="7.25712">
        <ele>986</ele>
        <time>2020-09-06T10:29:46.185Z</time>
      </trkpt>
      <trkpt lat="48.38657" lon="7.25711">
        <ele>986</ele>
        <time>2020-09-06T10:29:47.186Z</time>
      </trkpt>
      <trkpt lat="48.38656" lon="7.2571">
        <ele>986</ele>
        <time>2020-09-06T10:29:48.185Z</time>
      </trkpt>
      <trkpt lat="48.38655" lon="7.2571">
        <ele>986</ele>
        <time>2020-09-06T10:29:49.186Z</time>
      </trkpt>
      <trkpt lat="48.38654" lon="7.25709">
        <ele>986</ele>
        <time>2020-09-06T10:29:50.186Z</time>
      </trkpt>
      <trkpt lat="48.38654" lon="7.25709">
        <ele>986</ele>
        <time>2020-09-06T10:29:51.186Z</time>
      </trkpt>
      <trkpt lat="48.38653" lon="7.25708">
        <ele>986</ele>
        <time>2020-09-06T10:29:52.186Z</time>
      </trkpt>
      <trkpt lat="48.38652" lon="7.25707">
        <ele>986</ele>
        <time>2020-09-06T10:29:53.186Z</time>
      </trkpt>
      <trkpt lat="48.38651" lon="7.25706">
        <ele>985</ele>
        <time>2020-09-06T10:29:54.186Z</time>
      </trkpt>
      <trkpt lat="48.38649" lon="7.25702">
        <ele>984</ele>
        <time>2020-09-06T10:29:55.186Z</time>
      </trkpt>
      <trkpt lat="48.38648" lon="7.25701">
        <ele>984</ele>
        <time>2020-09-06T10:29:56.186Z</time>
      </trkpt>
      <trkpt lat="48.38646" lon="7.25702">
        <ele>983</ele>
        <time>2020-09-06T10:29:57.186Z</time>
      </trkpt>
      <trkpt lat="48.38644" lon="7.25702">
        <ele>983</ele>
        <time>2020-09-06T10:29:58.185Z</time>
      </trkpt>
      <trkpt lat="48.38642" lon="7.25702">
        <ele>982</ele>
        <time>2020-09-06T10:29:59.186Z</time>
      </trkpt>
      <trkpt lat="48.3864" lon="7.25702">
        <ele>982</ele>
        <time>2020-09-06T10:30:00.186Z</time>
      </trkpt>
      <trkpt lat="48.38638" lon="7.25701">
        <ele>982</ele>
        <time>2020-09-06T10:30:01.186Z</time>
      </trkpt>
      <trkpt lat="48.38637" lon="7.257">
        <ele>982</ele>
        <time>2020-09-06T10:30:02.186Z</time>
      </trkpt>
      <trkpt lat="48.38636" lon="7.257">
        <ele>982</ele>
        <time>2020-09-06T10:30:03.186Z</time>
      </trkpt>
      <trkpt lat="48.38635" lon="7.25699">
        <ele>982</ele>
        <time>2020-09-06T10:30:04.186Z</time>
      </trkpt>
      <trkpt lat="48.38634" lon="7.25699">
        <ele>983</ele>
        <time>2020-09-06T10:30:05.186Z</time>
      </trkpt>
      <trkpt lat="48.38633" lon="7.25699">
        <ele>983</ele>
        <time>2020-09-06T10:30:06.186Z</time>
      </trkpt>
      <trkpt lat="48.38632" lon="7.25699">
        <ele>983</ele>
        <time>2020-09-06T10:30:07.186Z</time>
      </trkpt>
      <trkpt lat="48.38631" lon="7.25698">
        <ele>983</ele>
        <time>2020-09-06T10:30:08.186Z</time>
      </trkpt>
      <trkpt lat="48.3863" lon="7.25697">
        <ele>984</ele>
        <time>2020-09-06T10:30:09.186Z</time>
      </trkpt>
      <trkpt lat="48.38629" lon="7.25696">
        <ele>984</ele>
        <time>2020-09-06T10:30:10.186Z</time>
      </trkpt>
      <trkpt lat="48.38628" lon="7.25695">
        <ele>984</ele>
        <time>2020-09-06T10:30:11.185Z</time>
      </trkpt>
      <trkpt lat="48.38626" lon="7.25695">
        <ele>984</ele>
        <time>2020-09-06T10:30:12.186Z</time>
      </trkpt>
      <trkpt lat="48.38626" lon="7.25694">
        <ele>984</ele>
        <time>2020-09-06T10:30:13.186Z</time>
      </trkpt>
      <trkpt lat="48.38624" lon="7.25694">
        <ele>985</ele>
        <time>2020-09-06T10:30:14.186Z</time>
      </trkpt>
      <trkpt lat="48.38623" lon="7.25694">
        <ele>985</ele>
        <time>2020-09-06T10:30:15.186Z</time>
      </trkpt>
      <trkpt lat="48.38622" lon="7.25693">
        <ele>985</ele>
        <time>2020-09-06T10:30:16.185Z</time>
      </trkpt>
      <trkpt lat="48.38621" lon="7.25692">
        <ele>986</ele>
        <time>2020-09-06T10:30:17.186Z</time>
      </trkpt>
      <trkpt lat="48.3862" lon="7.25692">
        <ele>986</ele>
        <time>2020-09-06T10:30:18.186Z</time>
      </trkpt>
      <trkpt lat="48.38619" lon="7.25691">
        <ele>986</ele>
        <time>2020-09-06T10:30:19.186Z</time>
      </trkpt>
      <trkpt lat="48.38618" lon="7.25691">
        <ele>986</ele>
        <time>2020-09-06T10:30:20.186Z</time>
      </trkpt>
      <trkpt lat="48.38617" lon="7.25691">
        <ele>986</ele>
        <time>2020-09-06T10:30:21.185Z</time>
      </trkpt>
      <trkpt lat="48.38616" lon="7.2569">
        <ele>987</ele>
        <time>2020-09-06T10:30:22.185Z</time>
      </trkpt>
      <trkpt lat="48.38615" lon="7.25691">
        <ele>987</ele>
        <time>2020-09-06T10:30:23.186Z</time>
      </trkpt>
      <trkpt lat="48.38614" lon="7.25691">
        <ele>987</ele>
        <time>2020-09-06T10:30:24.186Z</time>
      </trkpt>
      <trkpt lat="48.38613" lon="7.2569">
        <ele>987</ele>
        <time>2020-09-06T10:30:25.186Z</time>
      </trkpt>
      <trkpt lat="48.38612" lon="7.2569">
        <ele>987</ele>
        <time>2020-09-06T10:30:26.185Z</time>
      </trkpt>
      <trkpt lat="48.3861" lon="7.25691">
        <ele>987</ele>
        <time>2020-09-06T10:30:27.185Z</time>
      </trkpt>
      <trkpt lat="48.38609" lon="7.25691">
        <ele>987</ele>
        <time>2020-09-06T10:30:28.185Z</time>
      </trkpt>
      <trkpt lat="48.38606" lon="7.2569">
        <ele>987</ele>
        <time>2020-09-06T10:30:29.186Z</time>
      </trkpt>
      <trkpt lat="48.38605" lon="7.25689">
        <ele>987</ele>
        <time>2020-09-06T10:30:30.186Z</time>
      </trkpt>
      <trkpt lat="48.38603" lon="7.25689">
        <ele>987</ele>
        <time>2020-09-06T10:30:31.185Z</time>
      </trkpt>
      <trkpt lat="48.38602" lon="7.25689">
        <ele>986</ele>
        <time>2020-09-06T10:30:32.185Z</time>
      </trkpt>
      <trkpt lat="48.386" lon="7.25689">
        <ele>986</ele>
        <time>2020-09-06T10:30:33.185Z</time>
      </trkpt>
      <trkpt lat="48.38599" lon="7.25688">
        <ele>986</ele>
        <time>2020-09-06T10:30:34.186Z</time>
      </trkpt>
      <trkpt lat="48.38598" lon="7.25688">
        <ele>986</ele>
        <time>2020-09-06T10:30:35.186Z</time>
      </trkpt>
      <trkpt lat="48.38596" lon="7.25687">
        <ele>985</ele>
        <time>2020-09-06T10:30:36.186Z</time>
      </trkpt>
      <trkpt lat="48.38595" lon="7.25687">
        <ele>985</ele>
        <time>2020-09-06T10:30:37.186Z</time>
      </trkpt>
      <trkpt lat="48.38593" lon="7.25687">
        <ele>985</ele>
        <time>2020-09-06T10:30:38.186Z</time>
      </trkpt>
      <trkpt lat="48.38592" lon="7.25687">
        <ele>984</ele>
        <time>2020-09-06T10:30:39.185Z</time>
      </trkpt>
      <trkpt lat="48.38591" lon="7.25687">
        <ele>984</ele>
        <time>2020-09-06T10:30:40.185Z</time>
      </trkpt>
      <trkpt lat="48.38589" lon="7.25687">
        <ele>984</ele>
        <time>2020-09-06T10:30:41.186Z</time>
      </trkpt>
      <trkpt lat="48.38587" lon="7.25687">
        <ele>984</ele>
        <time>2020-09-06T10:30:42.185Z</time>
      </trkpt>
      <trkpt lat="48.38586" lon="7.25686">
        <ele>983</ele>
        <time>2020-09-06T10:30:43.186Z</time>
      </trkpt>
      <trkpt lat="48.38584" lon="7.25685">
        <ele>983</ele>
        <time>2020-09-06T10:30:44.186Z</time>
      </trkpt>
      <trkpt lat="48.38583" lon="7.25685">
        <ele>983</ele>
        <time>2020-09-06T10:30:45.186Z</time>
      </trkpt>
      <trkpt lat="48.38582" lon="7.25686">
        <ele>982</ele>
        <time>2020-09-06T10:30:46.185Z</time>
      </trkpt>
      <trkpt lat="48.3858" lon="7.25687">
        <ele>982</ele>
        <time>2020-09-06T10:30:47.186Z</time>
      </trkpt>
      <trkpt lat="48.38578" lon="7.25689">
        <ele>982</ele>
        <time>2020-09-06T10:30:48.185Z</time>
      </trkpt>
      <trkpt lat="48.38577" lon="7.2569">
        <ele>982</ele>
        <time>2020-09-06T10:30:49.185Z</time>
      </trkpt>
      <trkpt lat="48.38575" lon="7.25691">
        <ele>983</ele>
        <time>2020-09-06T10:30:50.185Z</time>
      </trkpt>
      <trkpt lat="48.38574" lon="7.25691">
        <ele>982</ele>
        <time>2020-09-06T10:30:51.186Z</time>
      </trkpt>
      <trkpt lat="48.38572" lon="7.2569">
        <ele>982</ele>
        <time>2020-09-06T10:30:52.185Z</time>
      </trkpt>
      <trkpt lat="48.38571" lon="7.25691">
        <ele>982</ele>
        <time>2020-09-06T10:30:53.185Z</time>
      </trkpt>
      <trkpt lat="48.3857" lon="7.25691">
        <ele>982</ele>
        <time>2020-09-06T10:30:54.185Z</time>
      </trkpt>
      <trkpt lat="48.38568" lon="7.25691">
        <ele>983</ele>
        <time>2020-09-06T10:30:55.186Z</time>
      </trkpt>
      <trkpt lat="48.38566" lon="7.25691">
        <ele>982</ele>
        <time>2020-09-06T10:30:56.186Z</time>
      </trkpt>
      <trkpt lat="48.38564" lon="7.2569">
        <ele>982</ele>
        <time>2020-09-06T10:30:57.185Z</time>
      </trkpt>
      <trkpt lat="48.38563" lon="7.25691">
        <ele>982</ele>
        <time>2020-09-06T10:30:58.185Z</time>
      </trkpt>
      <trkpt lat="48.38562" lon="7.25692">
        <ele>982</ele>
        <time>2020-09-06T10:30:59.186Z</time>
      </trkpt>
      <trkpt lat="48.38561" lon="7.25692">
        <ele>982</ele>
        <time>2020-09-06T10:31:00.185Z</time>
      </trkpt>
      <trkpt lat="48.3856" lon="7.25692">
        <ele>982</ele>
        <time>2020-09-06T10:31:01.186Z</time>
      </trkpt>
      <trkpt lat="48.38559" lon="7.25693">
        <ele>982</ele>
        <time>2020-09-06T10:31:02.185Z</time>
      </trkpt>
      <trkpt lat="48.38557" lon="7.25694">
        <ele>983</ele>
        <time>2020-09-06T10:31:03.186Z</time>
      </trkpt>
      <trkpt lat="48.38557" lon="7.25694">
        <ele>983</ele>
        <time>2020-09-06T10:31:04.186Z</time>
      </trkpt>
      <trkpt lat="48.38555" lon="7.25695">
        <ele>983</ele>
        <time>2020-09-06T10:31:05.186Z</time>
      </trkpt>
      <trkpt lat="48.38554" lon="7.25696">
        <ele>983</ele>
        <time>2020-09-06T10:31:06.185Z</time>
      </trkpt>
      <trkpt lat="48.38554" lon="7.25698">
        <ele>983</ele>
        <time>2020-09-06T10:31:07.186Z</time>
      </trkpt>
      <trkpt lat="48.38552" lon="7.257">
        <ele>983</ele>
        <time>2020-09-06T10:31:08.186Z</time>
      </trkpt>
      <trkpt lat="48.38552" lon="7.25701">
        <ele>984</ele>
        <time>2020-09-06T10:31:09.185Z</time>
      </trkpt>
      <trkpt lat="48.38551" lon="7.25703">
        <ele>984</ele>
        <time>2020-09-06T10:31:10.185Z</time>
      </trkpt>
      <trkpt lat="48.38549" lon="7.25705">
        <ele>985</ele>
        <time>2020-09-06T10:31:11.186Z</time>
      </trkpt>
      <trkpt lat="48.38548" lon="7.25706">
        <ele>986</ele>
        <time>2020-09-06T10:31:12.185Z</time>
      </trkpt>
      <trkpt lat="48.38547" lon="7.25706">
        <ele>987</ele>
        <time>2020-09-06T10:31:13.186Z</time>
      </trkpt>
      <trkpt lat="48.38546" lon="7.25706">
        <ele>987</ele>
        <time>2020-09-06T10:31:14.185Z</time>
      </trkpt>
      <trkpt lat="48.38544" lon="7.25707">
        <ele>988</ele>
        <time>2020-09-06T10:31:15.186Z</time>
      </trkpt>
      <trkpt lat="48.38543" lon="7.25708">
        <ele>988</ele>
        <time>2020-09-06T10:31:16.186Z</time>
      </trkpt>
      <trkpt lat="48.38542" lon="7.25709">
        <ele>988</ele>
        <time>2020-09-06T10:31:17.186Z</time>
      </trkpt>
      <trkpt lat="48.3854" lon="7.2571">
        <ele>988</ele>
        <time>2020-09-06T10:31:18.186Z</time>
      </trkpt>
      <trkpt lat="48.38539" lon="7.2571">
        <ele>987</ele>
        <time>2020-09-06T10:31:19.186Z</time>
      </trkpt>
      <trkpt lat="48.38538" lon="7.2571">
        <ele>987</ele>
        <time>2020-09-06T10:31:20.185Z</time>
      </trkpt>
      <trkpt lat="48.38537" lon="7.2571">
        <ele>986</ele>
        <time>2020-09-06T10:31:21.186Z</time>
      </trkpt>
      <trkpt lat="48.38536" lon="7.2571">
        <ele>986</ele>
        <time>2020-09-06T10:31:22.185Z</time>
      </trkpt>
      <trkpt lat="48.38534" lon="7.2571">
        <ele>986</ele>
        <time>2020-09-06T10:31:23.186Z</time>
      </trkpt>
      <trkpt lat="48.38533" lon="7.25711">
        <ele>986</ele>
        <time>2020-09-06T10:31:24.186Z</time>
      </trkpt>
      <trkpt lat="48.38532" lon="7.25711">
        <ele>986</ele>
        <time>2020-09-06T10:31:25.185Z</time>
      </trkpt>
      <trkpt lat="48.3853" lon="7.25711">
        <ele>986</ele>
        <time>2020-09-06T10:31:26.186Z</time>
      </trkpt>
      <trkpt lat="48.38529" lon="7.2571">
        <ele>985</ele>
        <time>2020-09-06T10:31:27.185Z</time>
      </trkpt>
      <trkpt lat="48.38528" lon="7.2571">
        <ele>985</ele>
        <time>2020-09-06T10:31:28.186Z</time>
      </trkpt>
      <trkpt lat="48.38527" lon="7.25711">
        <ele>984</ele>
        <time>2020-09-06T10:31:29.185Z</time>
      </trkpt>
      <trkpt lat="48.38526" lon="7.25711">
        <ele>984</ele>
        <time>2020-09-06T10:31:30.186Z</time>
      </trkpt>
      <trkpt lat="48.38525" lon="7.25711">
        <ele>983</ele>
        <time>2020-09-06T10:31:31.186Z</time>
      </trkpt>
      <trkpt lat="48.38524" lon="7.25712">
        <ele>983</ele>
        <time>2020-09-06T10:31:32.185Z</time>
      </trkpt>
      <trkpt lat="48.38522" lon="7.25712">
        <ele>983</ele>
        <time>2020-09-06T10:31:33.185Z</time>
      </trkpt>
      <trkpt lat="48.38521" lon="7.25712">
        <ele>983</ele>
        <time>2020-09-06T10:31:34.186Z</time>
      </trkpt>
      <trkpt lat="48.3852" lon="7.25712">
        <ele>982</ele>
        <time>2020-09-06T10:31:35.186Z</time>
      </trkpt>
      <trkpt lat="48.38519" lon="7.25712">
        <ele>982</ele>
        <time>2020-09-06T10:31:36.186Z</time>
      </trkpt>
      <trkpt lat="48.38518" lon="7.25713">
        <ele>981</ele>
        <time>2020-09-06T10:31:37.186Z</time>
      </trkpt>
      <trkpt lat="48.38516" lon="7.25713">
        <ele>981</ele>
        <time>2020-09-06T10:31:38.186Z</time>
      </trkpt>
      <trkpt lat="48.38515" lon="7.25714">
        <ele>980</ele>
        <time>2020-09-06T10:31:39.186Z</time>
      </trkpt>
      <trkpt lat="48.38513" lon="7.25715">
        <ele>980</ele>
        <time>2020-09-06T10:31:40.186Z</time>
      </trkpt>
      <trkpt lat="48.38512" lon="7.25716">
        <ele>980</ele>
        <time>2020-09-06T10:31:41.186Z</time>
      </trkpt>
      <trkpt lat="48.38511" lon="7.25717">
        <ele>980</ele>
        <time>2020-09-06T10:31:42.186Z</time>
      </trkpt>
      <trkpt lat="48.38509" lon="7.25718">
        <ele>979</ele>
        <time>2020-09-06T10:31:43.186Z</time>
      </trkpt>
      <trkpt lat="48.38507" lon="7.25719">
        <ele>979</ele>
        <time>2020-09-06T10:31:44.186Z</time>
      </trkpt>
      <trkpt lat="48.38506" lon="7.25719">
        <ele>978</ele>
        <time>2020-09-06T10:31:45.186Z</time>
      </trkpt>
      <trkpt lat="48.38505" lon="7.25719">
        <ele>978</ele>
        <time>2020-09-06T10:31:46.186Z</time>
      </trkpt>
      <trkpt lat="48.38503" lon="7.25719">
        <ele>977</ele>
        <time>2020-09-06T10:31:47.186Z</time>
      </trkpt>
      <trkpt lat="48.38502" lon="7.25719">
        <ele>977</ele>
        <time>2020-09-06T10:31:48.186Z</time>
      </trkpt>
      <trkpt lat="48.38501" lon="7.25719">
        <ele>976</ele>
        <time>2020-09-06T10:31:49.186Z</time>
      </trkpt>
      <trkpt lat="48.38499" lon="7.25719">
        <ele>975</ele>
        <time>2020-09-06T10:31:50.186Z</time>
      </trkpt>
      <trkpt lat="48.38497" lon="7.25721">
        <ele>975</ele>
        <time>2020-09-06T10:31:51.186Z</time>
      </trkpt>
      <trkpt lat="48.38495" lon="7.25722">
        <ele>975</ele>
        <time>2020-09-06T10:31:52.185Z</time>
      </trkpt>
      <trkpt lat="48.38494" lon="7.25723">
        <ele>975</ele>
        <time>2020-09-06T10:31:53.185Z</time>
      </trkpt>
      <trkpt lat="48.38492" lon="7.25724">
        <ele>976</ele>
        <time>2020-09-06T10:31:54.185Z</time>
      </trkpt>
      <trkpt lat="48.3849" lon="7.25724">
        <ele>976</ele>
        <time>2020-09-06T10:31:55.186Z</time>
      </trkpt>
      <trkpt lat="48.38489" lon="7.25725">
        <ele>976</ele>
        <time>2020-09-06T10:31:56.185Z</time>
      </trkpt>
      <trkpt lat="48.38488" lon="7.25725">
        <ele>977</ele>
        <time>2020-09-06T10:31:57.186Z</time>
      </trkpt>
      <trkpt lat="48.38487" lon="7.25725">
        <ele>977</ele>
        <time>2020-09-06T10:31:58.186Z</time>
      </trkpt>
      <trkpt lat="48.38486" lon="7.25726">
        <ele>977</ele>
        <time>2020-09-06T10:31:59.186Z</time>
      </trkpt>
      <trkpt lat="48.38485" lon="7.25726">
        <ele>978</ele>
        <time>2020-09-06T10:32:00.186Z</time>
      </trkpt>
      <trkpt lat="48.38484" lon="7.25727">
        <ele>978</ele>
        <time>2020-09-06T10:32:01.186Z</time>
      </trkpt>
      <trkpt lat="48.38482" lon="7.25727">
        <ele>978</ele>
        <time>2020-09-06T10:32:02.186Z</time>
      </trkpt>
      <trkpt lat="48.3848" lon="7.25728">
        <ele>978</ele>
        <time>2020-09-06T10:32:03.185Z</time>
      </trkpt>
      <trkpt lat="48.38478" lon="7.25729">
        <ele>978</ele>
        <time>2020-09-06T10:32:04.185Z</time>
      </trkpt>
      <trkpt lat="48.38477" lon="7.2573">
        <ele>978</ele>
        <time>2020-09-06T10:32:05.186Z</time>
      </trkpt>
      <trkpt lat="48.38476" lon="7.2573">
        <ele>978</ele>
        <time>2020-09-06T10:32:06.185Z</time>
      </trkpt>
      <trkpt lat="48.38475" lon="7.2573">
        <ele>979</ele>
        <time>2020-09-06T10:32:07.185Z</time>
      </trkpt>
      <trkpt lat="48.38475" lon="7.2573">
        <ele>979</ele>
        <time>2020-09-06T10:32:08.186Z</time>
      </trkpt>
      <trkpt lat="48.38473" lon="7.25732">
        <ele>979</ele>
        <time>2020-09-06T10:32:09.186Z</time>
      </trkpt>
      <trkpt lat="48.38471" lon="7.25733">
        <ele>979</ele>
        <time>2020-09-06T10:32:10.185Z</time>
      </trkpt>
      <trkpt lat="48.38469" lon="7.25733">
        <ele>980</ele>
        <time>2020-09-06T10:32:11.185Z</time>
      </trkpt>
      <trkpt lat="48.38469" lon="7.25733">
        <ele>980</ele>
        <time>2020-09-06T10:32:12.186Z</time>
      </trkpt>
      <trkpt lat="48.38468" lon="7.25734">
        <ele>981</ele>
        <time>2020-09-06T10:32:13.186Z</time>
      </trkpt>
      <trkpt lat="48.38467" lon="7.25734">
        <ele>982</ele>
        <time>2020-09-06T10:32:14.186Z</time>
      </trkpt>
      <trkpt lat="48.38466" lon="7.25734">
        <ele>982</ele>
        <time>2020-09-06T10:32:15.186Z</time>
      </trkpt>
      <trkpt lat="48.38465" lon="7.25735">
        <ele>982</ele>
        <time>2020-09-06T10:32:16.186Z</time>
      </trkpt>
      <trkpt lat="48.38463" lon="7.25735">
        <ele>983</ele>
        <time>2020-09-06T10:32:17.186Z</time>
      </trkpt>
      <trkpt lat="48.38462" lon="7.25735">
        <ele>983</ele>
        <time>2020-09-06T10:32:18.186Z</time>
      </trkpt>
      <trkpt lat="48.38461" lon="7.25736">
        <ele>983</ele>
        <time>2020-09-06T10:32:19.186Z</time>
      </trkpt>
      <trkpt lat="48.3846" lon="7.25736">
        <ele>983</ele>
        <time>2020-09-06T10:32:20.185Z</time>
      </trkpt>
      <trkpt lat="48.38459" lon="7.25737">
        <ele>982</ele>
        <time>2020-09-06T10:32:21.185Z</time>
      </trkpt>
      <trkpt lat="48.38458" lon="7.25737">
        <ele>982</ele>
        <time>2020-09-06T10:32:22.186Z</time>
      </trkpt>
      <trkpt lat="48.38457" lon="7.25737">
        <ele>982</ele>
        <time>2020-09-06T10:32:23.186Z</time>
      </trkpt>
      <trkpt lat="48.38457" lon="7.25737">
        <ele>981</ele>
        <time>2020-09-06T10:32:24.186Z</time>
      </trkpt>
      <trkpt lat="48.38456" lon="7.25737">
        <ele>980</ele>
        <time>2020-09-06T10:32:25.186Z</time>
      </trkpt>
      <trkpt lat="48.38455" lon="7.25737">
        <ele>980</ele>
        <time>2020-09-06T10:32:26.186Z</time>
      </trkpt>
      <trkpt lat="48.38454" lon="7.25737">
        <ele>980</ele>
        <time>2020-09-06T10:32:27.186Z</time>
      </trkpt>
      <trkpt lat="48.38452" lon="7.25737">
        <ele>979</ele>
        <time>2020-09-06T10:32:28.185Z</time>
      </trkpt>
      <trkpt lat="48.3845" lon="7.25737">
        <ele>978</ele>
        <time>2020-09-06T10:32:29.186Z</time>
      </trkpt>
      <trkpt lat="48.38449" lon="7.25737">
        <ele>978</ele>
        <time>2020-09-06T10:32:30.186Z</time>
      </trkpt>
      <trkpt lat="48.38448" lon="7.25735">
        <ele>976</ele>
        <time>2020-09-06T10:32:31.186Z</time>
      </trkpt>
      <trkpt lat="48.38447" lon="7.25735">
        <ele>975</ele>
        <time>2020-09-06T10:32:32.186Z</time>
      </trkpt>
      <trkpt lat="48.38446" lon="7.25735">
        <ele>974</ele>
        <time>2020-09-06T10:32:33.186Z</time>
      </trkpt>
      <trkpt lat="48.38445" lon="7.25735">
        <ele>973</ele>
        <time>2020-09-06T10:32:34.186Z</time>
      </trkpt>
      <trkpt lat="48.38444" lon="7.25735">
        <ele>972</ele>
        <time>2020-09-06T10:32:35.186Z</time>
      </trkpt>
      <trkpt lat="48.38443" lon="7.25735">
        <ele>971</ele>
        <time>2020-09-06T10:32:36.186Z</time>
      </trkpt>
      <trkpt lat="48.38441" lon="7.25734">
        <ele>970</ele>
        <time>2020-09-06T10:32:37.186Z</time>
      </trkpt>
      <trkpt lat="48.3844" lon="7.25734">
        <ele>970</ele>
        <time>2020-09-06T10:32:38.186Z</time>
      </trkpt>
      <trkpt lat="48.38439" lon="7.25734">
        <ele>969</ele>
        <time>2020-09-06T10:32:39.186Z</time>
      </trkpt>
      <trkpt lat="48.38438" lon="7.25734">
        <ele>969</ele>
        <time>2020-09-06T10:32:40.186Z</time>
      </trkpt>
      <trkpt lat="48.38437" lon="7.25734">
        <ele>968</ele>
        <time>2020-09-06T10:32:41.185Z</time>
      </trkpt>
      <trkpt lat="48.38435" lon="7.25735">
        <ele>968</ele>
        <time>2020-09-06T10:32:42.186Z</time>
      </trkpt>
      <trkpt lat="48.38434" lon="7.25735">
        <ele>968</ele>
        <time>2020-09-06T10:32:43.186Z</time>
      </trkpt>
      <trkpt lat="48.38432" lon="7.25735">
        <ele>967</ele>
        <time>2020-09-06T10:32:44.185Z</time>
      </trkpt>
      <trkpt lat="48.38431" lon="7.25736">
        <ele>968</ele>
        <time>2020-09-06T10:32:45.185Z</time>
      </trkpt>
      <trkpt lat="48.3843" lon="7.25736">
        <ele>968</ele>
        <time>2020-09-06T10:32:46.186Z</time>
      </trkpt>
      <trkpt lat="48.38429" lon="7.25737">
        <ele>968</ele>
        <time>2020-09-06T10:32:47.186Z</time>
      </trkpt>
      <trkpt lat="48.38427" lon="7.25738">
        <ele>968</ele>
        <time>2020-09-06T10:32:48.185Z</time>
      </trkpt>
      <trkpt lat="48.38425" lon="7.25738">
        <ele>969</ele>
        <time>2020-09-06T10:32:49.186Z</time>
      </trkpt>
      <trkpt lat="48.38424" lon="7.25739">
        <ele>969</ele>
        <time>2020-09-06T10:32:50.186Z</time>
      </trkpt>
      <trkpt lat="48.38423" lon="7.2574">
        <ele>970</ele>
        <time>2020-09-06T10:32:51.186Z</time>
      </trkpt>
      <trkpt lat="48.38422" lon="7.25741">
        <ele>970</ele>
        <time>2020-09-06T10:32:52.186Z</time>
      </trkpt>
      <trkpt lat="48.38421" lon="7.25742">
        <ele>971</ele>
        <time>2020-09-06T10:32:53.186Z</time>
      </trkpt>
      <trkpt lat="48.3842" lon="7.25743">
        <ele>971</ele>
        <time>2020-09-06T10:32:54.185Z</time>
      </trkpt>
      <trkpt lat="48.38419" lon="7.25744">
        <ele>971</ele>
        <time>2020-09-06T10:32:55.185Z</time>
      </trkpt>
      <trkpt lat="48.38418" lon="7.25746">
        <ele>971</ele>
        <time>2020-09-06T10:32:56.186Z</time>
      </trkpt>
      <trkpt lat="48.38417" lon="7.25748">
        <ele>971</ele>
        <time>2020-09-06T10:32:57.186Z</time>
      </trkpt>
      <trkpt lat="48.38416" lon="7.25749">
        <ele>971</ele>
        <time>2020-09-06T10:32:58.186Z</time>
      </trkpt>
      <trkpt lat="48.38415" lon="7.2575">
        <ele>971</ele>
        <time>2020-09-06T10:32:59.186Z</time>
      </trkpt>
      <trkpt lat="48.38413" lon="7.25752">
        <ele>972</ele>
        <time>2020-09-06T10:33:00.186Z</time>
      </trkpt>
      <trkpt lat="48.38412" lon="7.25753">
        <ele>972</ele>
        <time>2020-09-06T10:33:01.186Z</time>
      </trkpt>
      <trkpt lat="48.38411" lon="7.25754">
        <ele>972</ele>
        <time>2020-09-06T10:33:02.186Z</time>
      </trkpt>
      <trkpt lat="48.3841" lon="7.25755">
        <ele>973</ele>
        <time>2020-09-06T10:33:03.186Z</time>
      </trkpt>
      <trkpt lat="48.38409" lon="7.25757">
        <ele>973</ele>
        <time>2020-09-06T10:33:04.186Z</time>
      </trkpt>
      <trkpt lat="48.38408" lon="7.25759">
        <ele>973</ele>
        <time>2020-09-06T10:33:05.186Z</time>
      </trkpt>
      <trkpt lat="48.38407" lon="7.25761">
        <ele>974</ele>
        <time>2020-09-06T10:33:06.186Z</time>
      </trkpt>
      <trkpt lat="48.38405" lon="7.25763">
        <ele>974</ele>
        <time>2020-09-06T10:33:07.186Z</time>
      </trkpt>
      <trkpt lat="48.38404" lon="7.25765">
        <ele>974</ele>
        <time>2020-09-06T10:33:08.186Z</time>
      </trkpt>
      <trkpt lat="48.38403" lon="7.25766">
        <ele>975</ele>
        <time>2020-09-06T10:33:09.186Z</time>
      </trkpt>
      <trkpt lat="48.38402" lon="7.25768">
        <ele>975</ele>
        <time>2020-09-06T10:33:10.186Z</time>
      </trkpt>
      <trkpt lat="48.384" lon="7.25771">
        <ele>976</ele>
        <time>2020-09-06T10:33:11.185Z</time>
      </trkpt>
      <trkpt lat="48.384" lon="7.25771">
        <ele>976</ele>
        <time>2020-09-06T10:33:12.186Z</time>
      </trkpt>
      <trkpt lat="48.38401" lon="7.25769">
        <ele>976</ele>
        <time>2020-09-06T10:33:13.185Z</time>
      </trkpt>
      <trkpt lat="48.38402" lon="7.25768">
        <ele>976</ele>
        <time>2020-09-06T10:33:14.186Z</time>
      </trkpt>
      <trkpt lat="48.38403" lon="7.25767">
        <ele>977</ele>
        <time>2020-09-06T10:33:15.186Z</time>
      </trkpt>
      <trkpt lat="48.38403" lon="7.25767">
        <ele>977</ele>
        <time>2020-09-06T10:33:16.186Z</time>
      </trkpt>
      <trkpt lat="48.38402" lon="7.25769">
        <ele>977</ele>
        <time>2020-09-06T10:33:17.185Z</time>
      </trkpt>
      <trkpt lat="48.38401" lon="7.2577">
        <ele>977</ele>
        <time>2020-09-06T10:33:18.186Z</time>
      </trkpt>
      <trkpt lat="48.38401" lon="7.2577">
        <ele>977</ele>
        <time>2020-09-06T10:33:19.186Z</time>
      </trkpt>
      <trkpt lat="48.38401" lon="7.2577">
        <ele>977</ele>
        <time>2020-09-06T10:33:20.186Z</time>
      </trkpt>
      <trkpt lat="48.38401" lon="7.2577">
        <ele>977</ele>
        <time>2020-09-06T10:33:21.185Z</time>
      </trkpt>
      <trkpt lat="48.38401" lon="7.25771">
        <ele>976</ele>
        <time>2020-09-06T10:33:22.186Z</time>
      </trkpt>
      <trkpt lat="48.384" lon="7.25771">
        <ele>975</ele>
        <time>2020-09-06T10:33:23.186Z</time>
      </trkpt>
      <trkpt lat="48.38399" lon="7.25772">
        <ele>975</ele>
        <time>2020-09-06T10:33:24.186Z</time>
      </trkpt>
      <trkpt lat="48.38399" lon="7.25773">
        <ele>975</ele>
        <time>2020-09-06T10:33:25.186Z</time>
      </trkpt>
      <trkpt lat="48.38398" lon="7.25773">
        <ele>974</ele>
        <time>2020-09-06T10:33:26.186Z</time>
      </trkpt>
      <trkpt lat="48.38398" lon="7.25773">
        <ele>974</ele>
        <time>2020-09-06T10:33:27.186Z</time>
      </trkpt>
      <trkpt lat="48.38397" lon="7.25773">
        <ele>973</ele>
        <time>2020-09-06T10:33:28.186Z</time>
      </trkpt>
      <trkpt lat="48.38397" lon="7.25775">
        <ele>973</ele>
        <time>2020-09-06T10:33:29.186Z</time>
      </trkpt>
      <trkpt lat="48.38397" lon="7.25776">
        <ele>972</ele>
        <time>2020-09-06T10:33:30.186Z</time>
      </trkpt>
      <trkpt lat="48.38398" lon="7.25777">
        <ele>971</ele>
        <time>2020-09-06T10:33:31.186Z</time>
      </trkpt>
      <trkpt lat="48.38397" lon="7.25778">
        <ele>970</ele>
        <time>2020-09-06T10:33:32.186Z</time>
      </trkpt>
      <trkpt lat="48.38397" lon="7.25778">
        <ele>969</ele>
        <time>2020-09-06T10:33:33.186Z</time>
      </trkpt>
      <trkpt lat="48.38396" lon="7.25778">
        <ele>969</ele>
        <time>2020-09-06T10:33:34.186Z</time>
      </trkpt>
      <trkpt lat="48.38395" lon="7.25779">
        <ele>969</ele>
        <time>2020-09-06T10:33:35.186Z</time>
      </trkpt>
      <trkpt lat="48.38395" lon="7.25779">
        <ele>968</ele>
        <time>2020-09-06T10:33:36.186Z</time>
      </trkpt>
      <trkpt lat="48.38394" lon="7.25779">
        <ele>968</ele>
        <time>2020-09-06T10:33:37.185Z</time>
      </trkpt>
      <trkpt lat="48.38392" lon="7.2578">
        <ele>968</ele>
        <time>2020-09-06T10:33:38.185Z</time>
      </trkpt>
      <trkpt lat="48.3839" lon="7.2578">
        <ele>968</ele>
        <time>2020-09-06T10:33:39.185Z</time>
      </trkpt>
      <trkpt lat="48.38389" lon="7.25781">
        <ele>968</ele>
        <time>2020-09-06T10:33:40.186Z</time>
      </trkpt>
      <trkpt lat="48.38387" lon="7.2578">
        <ele>968</ele>
        <time>2020-09-06T10:33:41.186Z</time>
      </trkpt>
      <trkpt lat="48.38386" lon="7.2578">
        <ele>968</ele>
        <time>2020-09-06T10:33:42.186Z</time>
      </trkpt>
      <trkpt lat="48.38385" lon="7.2578">
        <ele>968</ele>
        <time>2020-09-06T10:33:43.186Z</time>
      </trkpt>
      <trkpt lat="48.38384" lon="7.25779">
        <ele>968</ele>
        <time>2020-09-06T10:33:44.186Z</time>
      </trkpt>
      <trkpt lat="48.38382" lon="7.25779">
        <ele>968</ele>
        <time>2020-09-06T10:33:45.186Z</time>
      </trkpt>
      <trkpt lat="48.38381" lon="7.25779">
        <ele>968</ele>
        <time>2020-09-06T10:33:46.186Z</time>
      </trkpt>
      <trkpt lat="48.3838" lon="7.25779">
        <ele>968</ele>
        <time>2020-09-06T10:33:47.186Z</time>
      </trkpt>
      <trkpt lat="48.38378" lon="7.2578">
        <ele>969</ele>
        <time>2020-09-06T10:33:48.186Z</time>
      </trkpt>
      <trkpt lat="48.38377" lon="7.2578">
        <ele>969</ele>
        <time>2020-09-06T10:33:49.186Z</time>
      </trkpt>
      <trkpt lat="48.38377" lon="7.25778">
        <ele>968</ele>
        <time>2020-09-06T10:33:50.186Z</time>
      </trkpt>
      <trkpt lat="48.38376" lon="7.25778">
        <ele>968</ele>
        <time>2020-09-06T10:33:51.185Z</time>
      </trkpt>
      <trkpt lat="48.38375" lon="7.25778">
        <ele>968</ele>
        <time>2020-09-06T10:33:52.186Z</time>
      </trkpt>
      <trkpt lat="48.38375" lon="7.25776">
        <ele>968</ele>
        <time>2020-09-06T10:33:53.186Z</time>
      </trkpt>
      <trkpt lat="48.38375" lon="7.25775">
        <ele>967</ele>
        <time>2020-09-06T10:33:54.185Z</time>
      </trkpt>
      <trkpt lat="48.38375" lon="7.25774">
        <ele>967</ele>
        <time>2020-09-06T10:33:55.185Z</time>
      </trkpt>
      <trkpt lat="48.38375" lon="7.25774">
        <ele>966</ele>
        <time>2020-09-06T10:33:56.186Z</time>
      </trkpt>
      <trkpt lat="48.38374" lon="7.25773">
        <ele>966</ele>
        <time>2020-09-06T10:33:57.186Z</time>
      </trkpt>
      <trkpt lat="48.38373" lon="7.25772">
        <ele>965</ele>
        <time>2020-09-06T10:33:58.186Z</time>
      </trkpt>
      <trkpt lat="48.38373" lon="7.25772">
        <ele>965</ele>
        <time>2020-09-06T10:33:59.186Z</time>
      </trkpt>
      <trkpt lat="48.38372" lon="7.25772">
        <ele>964</ele>
        <time>2020-09-06T10:34:00.186Z</time>
      </trkpt>
      <trkpt lat="48.38371" lon="7.25773">
        <ele>964</ele>
        <time>2020-09-06T10:34:01.186Z</time>
      </trkpt>
      <trkpt lat="48.3837" lon="7.25774">
        <ele>964</ele>
        <time>2020-09-06T10:34:02.186Z</time>
      </trkpt>
      <trkpt lat="48.38369" lon="7.25776">
        <ele>965</ele>
        <time>2020-09-06T10:34:03.185Z</time>
      </trkpt>
      <trkpt lat="48.38368" lon="7.25777">
        <ele>965</ele>
        <time>2020-09-06T10:34:04.186Z</time>
      </trkpt>
      <trkpt lat="48.38368" lon="7.25778">
        <ele>965</ele>
        <time>2020-09-06T10:34:05.186Z</time>
      </trkpt>
      <trkpt lat="48.38367" lon="7.25779">
        <ele>965</ele>
        <time>2020-09-06T10:34:06.186Z</time>
      </trkpt>
      <trkpt lat="48.38366" lon="7.2578">
        <ele>965</ele>
        <time>2020-09-06T10:34:07.186Z</time>
      </trkpt>
      <trkpt lat="48.38366" lon="7.25782">
        <ele>965</ele>
        <time>2020-09-06T10:34:08.185Z</time>
      </trkpt>
      <trkpt lat="48.38366" lon="7.25783">
        <ele>965</ele>
        <time>2020-09-06T10:34:09.186Z</time>
      </trkpt>
      <trkpt lat="48.38365" lon="7.25784">
        <ele>965</ele>
        <time>2020-09-06T10:34:10.186Z</time>
      </trkpt>
      <trkpt lat="48.38365" lon="7.25786">
        <ele>965</ele>
        <time>2020-09-06T10:34:11.185Z</time>
      </trkpt>
      <trkpt lat="48.38364" lon="7.25787">
        <ele>965</ele>
        <time>2020-09-06T10:34:12.186Z</time>
      </trkpt>
      <trkpt lat="48.38364" lon="7.25787">
        <ele>964</ele>
        <time>2020-09-06T10:34:13.185Z</time>
      </trkpt>
      <trkpt lat="48.38364" lon="7.25787">
        <ele>964</ele>
        <time>2020-09-06T10:34:14.186Z</time>
      </trkpt>
      <trkpt lat="48.38364" lon="7.25787">
        <ele>963</ele>
        <time>2020-09-06T10:34:15.186Z</time>
      </trkpt>
      <trkpt lat="48.38365" lon="7.25787">
        <ele>962</ele>
        <time>2020-09-06T10:34:16.186Z</time>
      </trkpt>
      <trkpt lat="48.38366" lon="7.25787">
        <ele>962</ele>
        <time>2020-09-06T10:34:17.185Z</time>
      </trkpt>
      <trkpt lat="48.38366" lon="7.25787">
        <ele>962</ele>
        <time>2020-09-06T10:34:18.186Z</time>
      </trkpt>
      <trkpt lat="48.38365" lon="7.25786">
        <ele>962</ele>
        <time>2020-09-06T10:34:19.185Z</time>
      </trkpt>
      <trkpt lat="48.3837" lon="7.25796">
        <ele>965</ele>
        <time>2020-09-06T10:34:20.186Z</time>
      </trkpt>
      <trkpt lat="48.38371" lon="7.25798">
        <ele>965</ele>
        <time>2020-09-06T10:34:21.186Z</time>
      </trkpt>
      <trkpt lat="48.38371" lon="7.258">
        <ele>965</ele>
        <time>2020-09-06T10:34:22.185Z</time>
      </trkpt>
      <trkpt lat="48.38372" lon="7.25802">
        <ele>965</ele>
        <time>2020-09-06T10:34:23.186Z</time>
      </trkpt>
      <trkpt lat="48.38372" lon="7.25804">
        <ele>965</ele>
        <time>2020-09-06T10:34:24.185Z</time>
      </trkpt>
      <trkpt lat="48.38373" lon="7.25806">
        <ele>965</ele>
        <time>2020-09-06T10:34:25.186Z</time>
      </trkpt>
      <trkpt lat="48.38374" lon="7.25808">
        <ele>965</ele>
        <time>2020-09-06T10:34:26.186Z</time>
      </trkpt>
      <trkpt lat="48.38374" lon="7.25809">
        <ele>965</ele>
        <time>2020-09-06T10:34:27.186Z</time>
      </trkpt>
      <trkpt lat="48.38375" lon="7.25811">
        <ele>965</ele>
        <time>2020-09-06T10:34:28.186Z</time>
      </trkpt>
      <trkpt lat="48.38376" lon="7.25812">
        <ele>965</ele>
        <time>2020-09-06T10:34:29.186Z</time>
      </trkpt>
      <trkpt lat="48.38376" lon="7.25813">
        <ele>965</ele>
        <time>2020-09-06T10:34:30.186Z</time>
      </trkpt>
      <trkpt lat="48.38377" lon="7.25815">
        <ele>965</ele>
        <time>2020-09-06T10:34:31.186Z</time>
      </trkpt>
      <trkpt lat="48.38377" lon="7.25817">
        <ele>965</ele>
        <time>2020-09-06T10:34:32.186Z</time>
      </trkpt>
      <trkpt lat="48.38378" lon="7.25819">
        <ele>966</ele>
        <time>2020-09-06T10:34:33.186Z</time>
      </trkpt>
      <trkpt lat="48.38378" lon="7.2582">
        <ele>967</ele>
        <time>2020-09-06T10:34:34.186Z</time>
      </trkpt>
      <trkpt lat="48.38378" lon="7.25822">
        <ele>967</ele>
        <time>2020-09-06T10:34:35.186Z</time>
      </trkpt>
      <trkpt lat="48.38379" lon="7.25824">
        <ele>968</ele>
        <time>2020-09-06T10:34:36.186Z</time>
      </trkpt>
      <trkpt lat="48.3838" lon="7.25826">
        <ele>968</ele>
        <time>2020-09-06T10:34:37.186Z</time>
      </trkpt>
      <trkpt lat="48.38379" lon="7.25827">
        <ele>969</ele>
        <time>2020-09-06T10:34:38.185Z</time>
      </trkpt>
      <trkpt lat="48.38379" lon="7.25829">
        <ele>970</ele>
        <time>2020-09-06T10:34:39.186Z</time>
      </trkpt>
      <trkpt lat="48.3838" lon="7.25829">
        <ele>971</ele>
        <time>2020-09-06T10:34:40.186Z</time>
      </trkpt>
      <trkpt lat="48.38379" lon="7.2583">
        <ele>971</ele>
        <time>2020-09-06T10:34:41.185Z</time>
      </trkpt>
      <trkpt lat="48.38379" lon="7.25832">
        <ele>972</ele>
        <time>2020-09-06T10:34:42.185Z</time>
      </trkpt>
      <trkpt lat="48.38378" lon="7.25832">
        <ele>973</ele>
        <time>2020-09-06T10:34:43.185Z</time>
      </trkpt>
      <trkpt lat="48.38377" lon="7.25835">
        <ele>974</ele>
        <time>2020-09-06T10:34:44.186Z</time>
      </trkpt>
      <trkpt lat="48.38377" lon="7.25836">
        <ele>975</ele>
        <time>2020-09-06T10:34:45.186Z</time>
      </trkpt>
      <trkpt lat="48.38376" lon="7.25836">
        <ele>976</ele>
        <time>2020-09-06T10:34:46.186Z</time>
      </trkpt>
      <trkpt lat="48.38375" lon="7.25837">
        <ele>977</ele>
        <time>2020-09-06T10:34:47.186Z</time>
      </trkpt>
      <trkpt lat="48.38375" lon="7.25837">
        <ele>979</ele>
        <time>2020-09-06T10:34:48.186Z</time>
      </trkpt>
      <trkpt lat="48.38374" lon="7.25839">
        <ele>980</ele>
        <time>2020-09-06T10:34:49.185Z</time>
      </trkpt>
      <trkpt lat="48.38374" lon="7.25841">
        <ele>981</ele>
        <time>2020-09-06T10:34:50.186Z</time>
      </trkpt>
      <trkpt lat="48.38374" lon="7.25843">
        <ele>981</ele>
        <time>2020-09-06T10:34:51.185Z</time>
      </trkpt>
      <trkpt lat="48.38374" lon="7.25846">
        <ele>981</ele>
        <time>2020-09-06T10:34:52.186Z</time>
      </trkpt>
      <trkpt lat="48.38373" lon="7.25848">
        <ele>981</ele>
        <time>2020-09-06T10:34:53.186Z</time>
      </trkpt>
      <trkpt lat="48.38373" lon="7.25851">
        <ele>981</ele>
        <time>2020-09-06T10:34:54.185Z</time>
      </trkpt>
      <trkpt lat="48.38373" lon="7.25852">
        <ele>980</ele>
        <time>2020-09-06T10:34:55.186Z</time>
      </trkpt>
      <trkpt lat="48.38373" lon="7.25854">
        <ele>979</ele>
        <time>2020-09-06T10:34:56.186Z</time>
      </trkpt>
      <trkpt lat="48.38373" lon="7.25855">
        <ele>979</ele>
        <time>2020-09-06T10:34:57.186Z</time>
      </trkpt>
      <trkpt lat="48.38373" lon="7.25857">
        <ele>978</ele>
        <time>2020-09-06T10:34:58.186Z</time>
      </trkpt>
      <trkpt lat="48.38373" lon="7.25858">
        <ele>978</ele>
        <time>2020-09-06T10:34:59.186Z</time>
      </trkpt>
      <trkpt lat="48.38374" lon="7.25859">
        <ele>977</ele>
        <time>2020-09-06T10:35:00.186Z</time>
      </trkpt>
      <trkpt lat="48.38374" lon="7.2586">
        <ele>977</ele>
        <time>2020-09-06T10:35:01.185Z</time>
      </trkpt>
      <trkpt lat="48.38375" lon="7.25862">
        <ele>977</ele>
        <time>2020-09-06T10:35:02.185Z</time>
      </trkpt>
      <trkpt lat="48.38375" lon="7.25864">
        <ele>977</ele>
        <time>2020-09-06T10:35:03.186Z</time>
      </trkpt>
      <trkpt lat="48.38376" lon="7.25865">
        <ele>977</ele>
        <time>2020-09-06T10:35:04.186Z</time>
      </trkpt>
      <trkpt lat="48.38376" lon="7.25866">
        <ele>977</ele>
        <time>2020-09-06T10:35:05.185Z</time>
      </trkpt>
      <trkpt lat="48.38377" lon="7.25868">
        <ele>977</ele>
        <time>2020-09-06T10:35:06.185Z</time>
      </trkpt>
      <trkpt lat="48.38377" lon="7.2587">
        <ele>977</ele>
        <time>2020-09-06T10:35:07.186Z</time>
      </trkpt>
      <trkpt lat="48.38378" lon="7.25871">
        <ele>976</ele>
        <time>2020-09-06T10:35:08.186Z</time>
      </trkpt>
      <trkpt lat="48.38379" lon="7.25873">
        <ele>976</ele>
        <time>2020-09-06T10:35:09.186Z</time>
      </trkpt>
      <trkpt lat="48.38379" lon="7.25875">
        <ele>975</ele>
        <time>2020-09-06T10:35:10.186Z</time>
      </trkpt>
      <trkpt lat="48.3838" lon="7.25877">
        <ele>974</ele>
        <time>2020-09-06T10:35:11.186Z</time>
      </trkpt>
      <trkpt lat="48.3838" lon="7.25879">
        <ele>974</ele>
        <time>2020-09-06T10:35:12.186Z</time>
      </trkpt>
      <trkpt lat="48.3838" lon="7.25881">
        <ele>974</ele>
        <time>2020-09-06T10:35:13.186Z</time>
      </trkpt>
      <trkpt lat="48.3838" lon="7.25884">
        <ele>974</ele>
        <time>2020-09-06T10:35:14.186Z</time>
      </trkpt>
      <trkpt lat="48.38381" lon="7.25885">
        <ele>974</ele>
        <time>2020-09-06T10:35:15.186Z</time>
      </trkpt>
      <trkpt lat="48.38382" lon="7.25887">
        <ele>974</ele>
        <time>2020-09-06T10:35:16.186Z</time>
      </trkpt>
      <trkpt lat="48.38383" lon="7.25888">
        <ele>974</ele>
        <time>2020-09-06T10:35:17.185Z</time>
      </trkpt>
      <trkpt lat="48.38383" lon="7.25889">
        <ele>973</ele>
        <time>2020-09-06T10:35:18.185Z</time>
      </trkpt>
      <trkpt lat="48.38383" lon="7.25891">
        <ele>973</ele>
        <time>2020-09-06T10:35:19.186Z</time>
      </trkpt>
      <trkpt lat="48.38383" lon="7.25892">
        <ele>973</ele>
        <time>2020-09-06T10:35:20.185Z</time>
      </trkpt>
      <trkpt lat="48.38384" lon="7.25894">
        <ele>973</ele>
        <time>2020-09-06T10:35:21.186Z</time>
      </trkpt>
      <trkpt lat="48.38384" lon="7.25895">
        <ele>973</ele>
        <time>2020-09-06T10:35:22.185Z</time>
      </trkpt>
      <trkpt lat="48.38385" lon="7.25896">
        <ele>973</ele>
        <time>2020-09-06T10:35:23.186Z</time>
      </trkpt>
      <trkpt lat="48.38386" lon="7.25897">
        <ele>973</ele>
        <time>2020-09-06T10:35:24.186Z</time>
      </trkpt>
      <trkpt lat="48.38386" lon="7.25898">
        <ele>973</ele>
        <time>2020-09-06T10:35:25.186Z</time>
      </trkpt>
      <trkpt lat="48.38387" lon="7.25899">
        <ele>973</ele>
        <time>2020-09-06T10:35:26.186Z</time>
      </trkpt>
      <trkpt lat="48.38388" lon="7.259">
        <ele>972</ele>
        <time>2020-09-06T10:35:27.186Z</time>
      </trkpt>
      <trkpt lat="48.38388" lon="7.25902">
        <ele>972</ele>
        <time>2020-09-06T10:35:28.185Z</time>
      </trkpt>
      <trkpt lat="48.38389" lon="7.25903">
        <ele>972</ele>
        <time>2020-09-06T10:35:29.186Z</time>
      </trkpt>
      <trkpt lat="48.38389" lon="7.25904">
        <ele>973</ele>
        <time>2020-09-06T10:35:30.185Z</time>
      </trkpt>
      <trkpt lat="48.3839" lon="7.25905">
        <ele>973</ele>
        <time>2020-09-06T10:35:31.186Z</time>
      </trkpt>
      <trkpt lat="48.38391" lon="7.25906">
        <ele>973</ele>
        <time>2020-09-06T10:35:32.185Z</time>
      </trkpt>
      <trkpt lat="48.38392" lon="7.25907">
        <ele>973</ele>
        <time>2020-09-06T10:35:33.185Z</time>
      </trkpt>
      <trkpt lat="48.38392" lon="7.25907">
        <ele>973</ele>
        <time>2020-09-06T10:35:34.186Z</time>
      </trkpt>
      <trkpt lat="48.38393" lon="7.25908">
        <ele>973</ele>
        <time>2020-09-06T10:35:35.185Z</time>
      </trkpt>
      <trkpt lat="48.38393" lon="7.2591">
        <ele>973</ele>
        <time>2020-09-06T10:35:36.185Z</time>
      </trkpt>
      <trkpt lat="48.38394" lon="7.25912">
        <ele>973</ele>
        <time>2020-09-06T10:35:37.185Z</time>
      </trkpt>
      <trkpt lat="48.38394" lon="7.25913">
        <ele>974</ele>
        <time>2020-09-06T10:35:38.186Z</time>
      </trkpt>
      <trkpt lat="48.38394" lon="7.25915">
        <ele>975</ele>
        <time>2020-09-06T10:35:39.186Z</time>
      </trkpt>
      <trkpt lat="48.38395" lon="7.25917">
        <ele>976</ele>
        <time>2020-09-06T10:35:40.186Z</time>
      </trkpt>
      <trkpt lat="48.38395" lon="7.25918">
        <ele>977</ele>
        <time>2020-09-06T10:35:41.185Z</time>
      </trkpt>
      <trkpt lat="48.38395" lon="7.2592">
        <ele>977</ele>
        <time>2020-09-06T10:35:42.186Z</time>
      </trkpt>
      <trkpt lat="48.38395" lon="7.25921">
        <ele>977</ele>
        <time>2020-09-06T10:35:43.186Z</time>
      </trkpt>
      <trkpt lat="48.38396" lon="7.25922">
        <ele>978</ele>
        <time>2020-09-06T10:35:44.186Z</time>
      </trkpt>
      <trkpt lat="48.38397" lon="7.25922">
        <ele>978</ele>
        <time>2020-09-06T10:35:45.186Z</time>
      </trkpt>
      <trkpt lat="48.38398" lon="7.25923">
        <ele>978</ele>
        <time>2020-09-06T10:35:46.186Z</time>
      </trkpt>
      <trkpt lat="48.38398" lon="7.25924">
        <ele>978</ele>
        <time>2020-09-06T10:35:47.186Z</time>
      </trkpt>
      <trkpt lat="48.38399" lon="7.25926">
        <ele>978</ele>
        <time>2020-09-06T10:35:48.186Z</time>
      </trkpt>
      <trkpt lat="48.384" lon="7.25927">
        <ele>978</ele>
        <time>2020-09-06T10:35:49.185Z</time>
      </trkpt>
      <trkpt lat="48.38401" lon="7.25928">
        <ele>978</ele>
        <time>2020-09-06T10:35:50.186Z</time>
      </trkpt>
      <trkpt lat="48.38402" lon="7.2593">
        <ele>978</ele>
        <time>2020-09-06T10:35:51.185Z</time>
      </trkpt>
      <trkpt lat="48.38403" lon="7.25931">
        <ele>978</ele>
        <time>2020-09-06T10:35:52.186Z</time>
      </trkpt>
      <trkpt lat="48.38404" lon="7.25932">
        <ele>978</ele>
        <time>2020-09-06T10:35:53.186Z</time>
      </trkpt>
      <trkpt lat="48.38405" lon="7.25933">
        <ele>978</ele>
        <time>2020-09-06T10:35:54.185Z</time>
      </trkpt>
      <trkpt lat="48.38406" lon="7.25934">
        <ele>978</ele>
        <time>2020-09-06T10:35:55.186Z</time>
      </trkpt>
      <trkpt lat="48.38407" lon="7.25935">
        <ele>978</ele>
        <time>2020-09-06T10:35:56.186Z</time>
      </trkpt>
      <trkpt lat="48.38408" lon="7.25935">
        <ele>978</ele>
        <time>2020-09-06T10:35:57.185Z</time>
      </trkpt>
      <trkpt lat="48.38408" lon="7.25937">
        <ele>978</ele>
        <time>2020-09-06T10:35:58.185Z</time>
      </trkpt>
      <trkpt lat="48.38409" lon="7.25939">
        <ele>977</ele>
        <time>2020-09-06T10:35:59.185Z</time>
      </trkpt>
      <trkpt lat="48.38409" lon="7.2594">
        <ele>977</ele>
        <time>2020-09-06T10:36:00.186Z</time>
      </trkpt>
      <trkpt lat="48.3841" lon="7.25942">
        <ele>977</ele>
        <time>2020-09-06T10:36:01.185Z</time>
      </trkpt>
      <trkpt lat="48.38411" lon="7.25944">
        <ele>977</ele>
        <time>2020-09-06T10:36:02.185Z</time>
      </trkpt>
      <trkpt lat="48.38411" lon="7.25946">
        <ele>977</ele>
        <time>2020-09-06T10:36:03.186Z</time>
      </trkpt>
      <trkpt lat="48.38413" lon="7.25947">
        <ele>977</ele>
        <time>2020-09-06T10:36:04.185Z</time>
      </trkpt>
      <trkpt lat="48.38414" lon="7.25948">
        <ele>977</ele>
        <time>2020-09-06T10:36:05.185Z</time>
      </trkpt>
      <trkpt lat="48.38415" lon="7.2595">
        <ele>978</ele>
        <time>2020-09-06T10:36:06.185Z</time>
      </trkpt>
      <trkpt lat="48.38416" lon="7.25951">
        <ele>978</ele>
        <time>2020-09-06T10:36:07.186Z</time>
      </trkpt>
      <trkpt lat="48.38417" lon="7.25952">
        <ele>978</ele>
        <time>2020-09-06T10:36:08.186Z</time>
      </trkpt>
      <trkpt lat="48.38417" lon="7.25954">
        <ele>979</ele>
        <time>2020-09-06T10:36:09.185Z</time>
      </trkpt>
      <trkpt lat="48.38418" lon="7.25955">
        <ele>979</ele>
        <time>2020-09-06T10:36:10.185Z</time>
      </trkpt>
      <trkpt lat="48.38419" lon="7.25956">
        <ele>979</ele>
        <time>2020-09-06T10:36:11.186Z</time>
      </trkpt>
      <trkpt lat="48.3842" lon="7.25957">
        <ele>979</ele>
        <time>2020-09-06T10:36:12.186Z</time>
      </trkpt>
      <trkpt lat="48.38422" lon="7.25958">
        <ele>979</ele>
        <time>2020-09-06T10:36:13.186Z</time>
      </trkpt>
      <trkpt lat="48.38423" lon="7.25959">
        <ele>979</ele>
        <time>2020-09-06T10:36:14.186Z</time>
      </trkpt>
      <trkpt lat="48.38424" lon="7.2596">
        <ele>979</ele>
        <time>2020-09-06T10:36:15.186Z</time>
      </trkpt>
      <trkpt lat="48.38424" lon="7.25962">
        <ele>979</ele>
        <time>2020-09-06T10:36:16.185Z</time>
      </trkpt>
      <trkpt lat="48.38425" lon="7.25964">
        <ele>980</ele>
        <time>2020-09-06T10:36:17.186Z</time>
      </trkpt>
      <trkpt lat="48.38426" lon="7.25965">
        <ele>980</ele>
        <time>2020-09-06T10:36:18.186Z</time>
      </trkpt>
      <trkpt lat="48.38428" lon="7.25965">
        <ele>980</ele>
        <time>2020-09-06T10:36:19.186Z</time>
      </trkpt>
      <trkpt lat="48.38429" lon="7.25966">
        <ele>980</ele>
        <time>2020-09-06T10:36:20.185Z</time>
      </trkpt>
      <trkpt lat="48.3843" lon="7.25966">
        <ele>980</ele>
        <time>2020-09-06T10:36:21.186Z</time>
      </trkpt>
      <trkpt lat="48.38431" lon="7.25967">
        <ele>980</ele>
        <time>2020-09-06T10:36:22.186Z</time>
      </trkpt>
      <trkpt lat="48.38432" lon="7.25968">
        <ele>980</ele>
        <time>2020-09-06T10:36:23.186Z</time>
      </trkpt>
      <trkpt lat="48.38433" lon="7.2597">
        <ele>980</ele>
        <time>2020-09-06T10:36:24.186Z</time>
      </trkpt>
      <trkpt lat="48.38434" lon="7.25971">
        <ele>981</ele>
        <time>2020-09-06T10:36:25.186Z</time>
      </trkpt>
      <trkpt lat="48.38435" lon="7.25972">
        <ele>981</ele>
        <time>2020-09-06T10:36:26.186Z</time>
      </trkpt>
      <trkpt lat="48.38436" lon="7.25974">
        <ele>981</ele>
        <time>2020-09-06T10:36:27.186Z</time>
      </trkpt>
      <trkpt lat="48.38437" lon="7.25975">
        <ele>982</ele>
        <time>2020-09-06T10:36:28.186Z</time>
      </trkpt>
      <trkpt lat="48.38438" lon="7.25977">
        <ele>982</ele>
        <time>2020-09-06T10:36:29.186Z</time>
      </trkpt>
      <trkpt lat="48.3844" lon="7.25979">
        <ele>982</ele>
        <time>2020-09-06T10:36:30.186Z</time>
      </trkpt>
      <trkpt lat="48.38441" lon="7.2598">
        <ele>982</ele>
        <time>2020-09-06T10:36:31.186Z</time>
      </trkpt>
      <trkpt lat="48.38442" lon="7.2598">
        <ele>982</ele>
        <time>2020-09-06T10:36:32.186Z</time>
      </trkpt>
      <trkpt lat="48.38444" lon="7.25981">
        <ele>982</ele>
        <time>2020-09-06T10:36:33.185Z</time>
      </trkpt>
      <trkpt lat="48.38445" lon="7.25981">
        <ele>982</ele>
        <time>2020-09-06T10:36:34.185Z</time>
      </trkpt>
      <trkpt lat="48.38446" lon="7.25982">
        <ele>982</ele>
        <time>2020-09-06T10:36:35.186Z</time>
      </trkpt>
      <trkpt lat="48.38447" lon="7.25983">
        <ele>982</ele>
        <time>2020-09-06T10:36:36.186Z</time>
      </trkpt>
      <trkpt lat="48.38448" lon="7.25984">
        <ele>982</ele>
        <time>2020-09-06T10:36:37.186Z</time>
      </trkpt>
      <trkpt lat="48.38448" lon="7.25985">
        <ele>983</ele>
        <time>2020-09-06T10:36:38.185Z</time>
      </trkpt>
      <trkpt lat="48.38449" lon="7.25986">
        <ele>983</ele>
        <time>2020-09-06T10:36:39.185Z</time>
      </trkpt>
      <trkpt lat="48.3845" lon="7.25987">
        <ele>984</ele>
        <time>2020-09-06T10:36:40.186Z</time>
      </trkpt>
      <trkpt lat="48.3845" lon="7.25987">
        <ele>985</ele>
        <time>2020-09-06T10:36:41.186Z</time>
      </trkpt>
      <trkpt lat="48.38451" lon="7.25988">
        <ele>985</ele>
        <time>2020-09-06T10:36:42.186Z</time>
      </trkpt>
      <trkpt lat="48.38452" lon="7.25989">
        <ele>986</ele>
        <time>2020-09-06T10:36:43.186Z</time>
      </trkpt>
      <trkpt lat="48.38453" lon="7.2599">
        <ele>986</ele>
        <time>2020-09-06T10:36:44.186Z</time>
      </trkpt>
      <trkpt lat="48.38454" lon="7.25991">
        <ele>986</ele>
        <time>2020-09-06T10:36:45.186Z</time>
      </trkpt>
      <trkpt lat="48.38454" lon="7.25991">
        <ele>986</ele>
        <time>2020-09-06T10:36:46.185Z</time>
      </trkpt>
      <trkpt lat="48.38455" lon="7.25993">
        <ele>987</ele>
        <time>2020-09-06T10:36:47.186Z</time>
      </trkpt>
      <trkpt lat="48.38456" lon="7.25994">
        <ele>987</ele>
        <time>2020-09-06T10:36:48.186Z</time>
      </trkpt>
      <trkpt lat="48.38457" lon="7.25994">
        <ele>987</ele>
        <time>2020-09-06T10:36:49.186Z</time>
      </trkpt>
      <trkpt lat="48.38458" lon="7.25995">
        <ele>988</ele>
        <time>2020-09-06T10:36:50.186Z</time>
      </trkpt>
      <trkpt lat="48.38459" lon="7.25996">
        <ele>989</ele>
        <time>2020-09-06T10:36:51.186Z</time>
      </trkpt>
      <trkpt lat="48.38461" lon="7.25995">
        <ele>989</ele>
        <time>2020-09-06T10:36:52.186Z</time>
      </trkpt>
      <trkpt lat="48.38463" lon="7.25996">
        <ele>989</ele>
        <time>2020-09-06T10:36:53.186Z</time>
      </trkpt>
      <trkpt lat="48.38464" lon="7.25997">
        <ele>989</ele>
        <time>2020-09-06T10:36:54.186Z</time>
      </trkpt>
      <trkpt lat="48.38465" lon="7.25999">
        <ele>989</ele>
        <time>2020-09-06T10:36:55.185Z</time>
      </trkpt>
      <trkpt lat="48.38466" lon="7.26">
        <ele>989</ele>
        <time>2020-09-06T10:36:56.186Z</time>
      </trkpt>
      <trkpt lat="48.38466" lon="7.26001">
        <ele>989</ele>
        <time>2020-09-06T10:36:57.186Z</time>
      </trkpt>
      <trkpt lat="48.38467" lon="7.26002">
        <ele>989</ele>
        <time>2020-09-06T10:36:58.186Z</time>
      </trkpt>
      <trkpt lat="48.38467" lon="7.26003">
        <ele>989</ele>
        <time>2020-09-06T10:36:59.186Z</time>
      </trkpt>
      <trkpt lat="48.38467" lon="7.26003">
        <ele>989</ele>
        <time>2020-09-06T10:37:00.186Z</time>
      </trkpt>
      <trkpt lat="48.38468" lon="7.26004">
        <ele>990</ele>
        <time>2020-09-06T10:37:01.185Z</time>
      </trkpt>
      <trkpt lat="48.38469" lon="7.26004">
        <ele>990</ele>
        <time>2020-09-06T10:37:02.186Z</time>
      </trkpt>
      <trkpt lat="48.38469" lon="7.26006">
        <ele>990</ele>
        <time>2020-09-06T10:37:03.186Z</time>
      </trkpt>
      <trkpt lat="48.3847" lon="7.26007">
        <ele>990</ele>
        <time>2020-09-06T10:37:04.186Z</time>
      </trkpt>
      <trkpt lat="48.38471" lon="7.26008">
        <ele>990</ele>
        <time>2020-09-06T10:37:05.186Z</time>
      </trkpt>
      <trkpt lat="48.38472" lon="7.26009">
        <ele>989</ele>
        <time>2020-09-06T10:37:06.185Z</time>
      </trkpt>
      <trkpt lat="48.38472" lon="7.26011">
        <ele>989</ele>
        <time>2020-09-06T10:37:07.186Z</time>
      </trkpt>
      <trkpt lat="48.38473" lon="7.26012">
        <ele>989</ele>
        <time>2020-09-06T10:37:08.186Z</time>
      </trkpt>
      <trkpt lat="48.38475" lon="7.26013">
        <ele>989</ele>
        <time>2020-09-06T10:37:09.186Z</time>
      </trkpt>
      <trkpt lat="48.38476" lon="7.26013">
        <ele>989</ele>
        <time>2020-09-06T10:37:10.185Z</time>
      </trkpt>
      <trkpt lat="48.38477" lon="7.26014">
        <ele>990</ele>
        <time>2020-09-06T10:37:11.185Z</time>
      </trkpt>
      <trkpt lat="48.38477" lon="7.26014">
        <ele>990</ele>
        <time>2020-09-06T10:37:12.185Z</time>
      </trkpt>
      <trkpt lat="48.38478" lon="7.26015">
        <ele>991</ele>
        <time>2020-09-06T10:37:13.186Z</time>
      </trkpt>
      <trkpt lat="48.38479" lon="7.26016">
        <ele>991</ele>
        <time>2020-09-06T10:37:14.186Z</time>
      </trkpt>
      <trkpt lat="48.3848" lon="7.26016">
        <ele>991</ele>
        <time>2020-09-06T10:37:15.186Z</time>
      </trkpt>
      <trkpt lat="48.3848" lon="7.26017">
        <ele>991</ele>
        <time>2020-09-06T10:37:16.186Z</time>
      </trkpt>
      <trkpt lat="48.38481" lon="7.26018">
        <ele>992</ele>
        <time>2020-09-06T10:37:17.186Z</time>
      </trkpt>
      <trkpt lat="48.38481" lon="7.26019">
        <ele>992</ele>
        <time>2020-09-06T10:37:18.185Z</time>
      </trkpt>
      <trkpt lat="48.38482" lon="7.2602">
        <ele>992</ele>
        <time>2020-09-06T10:37:19.186Z</time>
      </trkpt>
      <trkpt lat="48.38482" lon="7.26021">
        <ele>992</ele>
        <time>2020-09-06T10:37:20.186Z</time>
      </trkpt>
      <trkpt lat="48.38483" lon="7.26022">
        <ele>992</ele>
        <time>2020-09-06T10:37:21.185Z</time>
      </trkpt>
      <trkpt lat="48.38484" lon="7.26022">
        <ele>992</ele>
        <time>2020-09-06T10:37:22.186Z</time>
      </trkpt>
      <trkpt lat="48.38484" lon="7.26023">
        <ele>992</ele>
        <time>2020-09-06T10:37:23.186Z</time>
      </trkpt>
      <trkpt lat="48.38485" lon="7.26024">
        <ele>992</ele>
        <time>2020-09-06T10:37:24.186Z</time>
      </trkpt>
      <trkpt lat="48.38487" lon="7.26025">
        <ele>992</ele>
        <time>2020-09-06T10:37:25.186Z</time>
      </trkpt>
      <trkpt lat="48.38489" lon="7.26026">
        <ele>992</ele>
        <time>2020-09-06T10:37:26.186Z</time>
      </trkpt>
      <trkpt lat="48.3849" lon="7.26026">
        <ele>993</ele>
        <time>2020-09-06T10:37:27.186Z</time>
      </trkpt>
      <trkpt lat="48.38492" lon="7.26026">
        <ele>993</ele>
        <time>2020-09-06T10:37:28.186Z</time>
      </trkpt>
      <trkpt lat="48.38494" lon="7.26027">
        <ele>993</ele>
        <time>2020-09-06T10:37:29.186Z</time>
      </trkpt>
      <trkpt lat="48.38497" lon="7.26029">
        <ele>993</ele>
        <time>2020-09-06T10:37:30.185Z</time>
      </trkpt>
      <trkpt lat="48.38498" lon="7.2603">
        <ele>994</ele>
        <time>2020-09-06T10:37:31.186Z</time>
      </trkpt>
      <trkpt lat="48.38499" lon="7.2603">
        <ele>994</ele>
        <time>2020-09-06T10:37:32.185Z</time>
      </trkpt>
      <trkpt lat="48.38499" lon="7.26031">
        <ele>994</ele>
        <time>2020-09-06T10:37:33.186Z</time>
      </trkpt>
      <trkpt lat="48.385" lon="7.26032">
        <ele>994</ele>
        <time>2020-09-06T10:37:34.186Z</time>
      </trkpt>
      <trkpt lat="48.38501" lon="7.26033">
        <ele>995</ele>
        <time>2020-09-06T10:37:35.186Z</time>
      </trkpt>
      <trkpt lat="48.38502" lon="7.26034">
        <ele>995</ele>
        <time>2020-09-06T10:37:36.186Z</time>
      </trkpt>
      <trkpt lat="48.38503" lon="7.26035">
        <ele>996</ele>
        <time>2020-09-06T10:37:37.186Z</time>
      </trkpt>
      <trkpt lat="48.38503" lon="7.26036">
        <ele>996</ele>
        <time>2020-09-06T10:37:38.186Z</time>
      </trkpt>
      <trkpt lat="48.38504" lon="7.26036">
        <ele>997</ele>
        <time>2020-09-06T10:37:39.186Z</time>
      </trkpt>
      <trkpt lat="48.38505" lon="7.26037">
        <ele>997</ele>
        <time>2020-09-06T10:37:40.186Z</time>
      </trkpt>
      <trkpt lat="48.38506" lon="7.26038">
        <ele>998</ele>
        <time>2020-09-06T10:37:41.185Z</time>
      </trkpt>
      <trkpt lat="48.38507" lon="7.26038">
        <ele>998</ele>
        <time>2020-09-06T10:37:42.186Z</time>
      </trkpt>
      <trkpt lat="48.38508" lon="7.26039">
        <ele>998</ele>
        <time>2020-09-06T10:37:43.186Z</time>
      </trkpt>
      <trkpt lat="48.38508" lon="7.26039">
        <ele>999</ele>
        <time>2020-09-06T10:37:44.185Z</time>
      </trkpt>
      <trkpt lat="48.38509" lon="7.26039">
        <ele>999</ele>
        <time>2020-09-06T10:37:45.186Z</time>
      </trkpt>
      <trkpt lat="48.3851" lon="7.2604">
        <ele>999</ele>
        <time>2020-09-06T10:37:46.185Z</time>
      </trkpt>
      <trkpt lat="48.38511" lon="7.26041">
        <ele>999</ele>
        <time>2020-09-06T10:37:47.186Z</time>
      </trkpt>
      <trkpt lat="48.38512" lon="7.26041">
        <ele>999</ele>
        <time>2020-09-06T10:37:48.186Z</time>
      </trkpt>
      <trkpt lat="48.38513" lon="7.26042">
        <ele>999</ele>
        <time>2020-09-06T10:37:49.186Z</time>
      </trkpt>
      <trkpt lat="48.38515" lon="7.26042">
        <ele>999</ele>
        <time>2020-09-06T10:37:50.186Z</time>
      </trkpt>
      <trkpt lat="48.38517" lon="7.26043">
        <ele>998</ele>
        <time>2020-09-06T10:37:51.186Z</time>
      </trkpt>
      <trkpt lat="48.38519" lon="7.26045">
        <ele>998</ele>
        <time>2020-09-06T10:37:52.186Z</time>
      </trkpt>
      <trkpt lat="48.3852" lon="7.26046">
        <ele>998</ele>
        <time>2020-09-06T10:37:53.186Z</time>
      </trkpt>
      <trkpt lat="48.38521" lon="7.26045">
        <ele>998</ele>
        <time>2020-09-06T10:37:54.185Z</time>
      </trkpt>
      <trkpt lat="48.38522" lon="7.26045">
        <ele>998</ele>
        <time>2020-09-06T10:37:55.186Z</time>
      </trkpt>
      <trkpt lat="48.38523" lon="7.26046">
        <ele>998</ele>
        <time>2020-09-06T10:37:56.186Z</time>
      </trkpt>
      <trkpt lat="48.38522" lon="7.26047">
        <ele>998</ele>
        <time>2020-09-06T10:37:57.186Z</time>
      </trkpt>
      <trkpt lat="48.38523" lon="7.26048">
        <ele>999</ele>
        <time>2020-09-06T10:37:58.186Z</time>
      </trkpt>
      <trkpt lat="48.38524" lon="7.26048">
        <ele>999</ele>
        <time>2020-09-06T10:37:59.185Z</time>
      </trkpt>
      <trkpt lat="48.38525" lon="7.26049">
        <ele>1000</ele>
        <time>2020-09-06T10:38:00.186Z</time>
      </trkpt>
      <trkpt lat="48.38525" lon="7.26048">
        <ele>1000</ele>
        <time>2020-09-06T10:38:01.185Z</time>
      </trkpt>
      <trkpt lat="48.38526" lon="7.26049">
        <ele>1000</ele>
        <time>2020-09-06T10:38:02.186Z</time>
      </trkpt>
      <trkpt lat="48.38528" lon="7.26049">
        <ele>1000</ele>
        <time>2020-09-06T10:38:03.185Z</time>
      </trkpt>
      <trkpt lat="48.38529" lon="7.2605">
        <ele>1000</ele>
        <time>2020-09-06T10:38:04.186Z</time>
      </trkpt>
      <trkpt lat="48.3853" lon="7.2605">
        <ele>1000</ele>
        <time>2020-09-06T10:38:05.186Z</time>
      </trkpt>
      <trkpt lat="48.38531" lon="7.26051">
        <ele>1000</ele>
        <time>2020-09-06T10:38:06.186Z</time>
      </trkpt>
      <trkpt lat="48.38532" lon="7.26052">
        <ele>1001</ele>
        <time>2020-09-06T10:38:07.186Z</time>
      </trkpt>
      <trkpt lat="48.38533" lon="7.26053">
        <ele>1001</ele>
        <time>2020-09-06T10:38:08.186Z</time>
      </trkpt>
      <trkpt lat="48.38535" lon="7.26054">
        <ele>1001</ele>
        <time>2020-09-06T10:38:09.185Z</time>
      </trkpt>
      <trkpt lat="48.38536" lon="7.26055">
        <ele>1001</ele>
        <time>2020-09-06T10:38:10.186Z</time>
      </trkpt>
      <trkpt lat="48.38538" lon="7.26055">
        <ele>1001</ele>
        <time>2020-09-06T10:38:11.186Z</time>
      </trkpt>
      <trkpt lat="48.38539" lon="7.26056">
        <ele>1001</ele>
        <time>2020-09-06T10:38:12.186Z</time>
      </trkpt>
      <trkpt lat="48.3854" lon="7.26056">
        <ele>1001</ele>
        <time>2020-09-06T10:38:13.186Z</time>
      </trkpt>
      <trkpt lat="48.38541" lon="7.26056">
        <ele>1001</ele>
        <time>2020-09-06T10:38:14.185Z</time>
      </trkpt>
      <trkpt lat="48.38542" lon="7.26057">
        <ele>1001</ele>
        <time>2020-09-06T10:38:15.186Z</time>
      </trkpt>
      <trkpt lat="48.38543" lon="7.26057">
        <ele>1000</ele>
        <time>2020-09-06T10:38:16.186Z</time>
      </trkpt>
      <trkpt lat="48.38543" lon="7.26058">
        <ele>1001</ele>
        <time>2020-09-06T10:38:17.186Z</time>
      </trkpt>
      <trkpt lat="48.38544" lon="7.26058">
        <ele>1001</ele>
        <time>2020-09-06T10:38:18.186Z</time>
      </trkpt>
      <trkpt lat="48.38545" lon="7.26059">
        <ele>1000</ele>
        <time>2020-09-06T10:38:19.185Z</time>
      </trkpt>
      <trkpt lat="48.38546" lon="7.26059">
        <ele>1000</ele>
        <time>2020-09-06T10:38:20.186Z</time>
      </trkpt>
      <trkpt lat="48.38547" lon="7.26059">
        <ele>1000</ele>
        <time>2020-09-06T10:38:21.185Z</time>
      </trkpt>
      <trkpt lat="48.38548" lon="7.2606">
        <ele>1000</ele>
        <time>2020-09-06T10:38:22.186Z</time>
      </trkpt>
      <trkpt lat="48.38549" lon="7.2606">
        <ele>1000</ele>
        <time>2020-09-06T10:38:23.186Z</time>
      </trkpt>
      <trkpt lat="48.3855" lon="7.2606">
        <ele>1000</ele>
        <time>2020-09-06T10:38:24.185Z</time>
      </trkpt>
      <trkpt lat="48.38551" lon="7.2606">
        <ele>999</ele>
        <time>2020-09-06T10:38:25.186Z</time>
      </trkpt>
      <trkpt lat="48.38552" lon="7.26061">
        <ele>999</ele>
        <time>2020-09-06T10:38:26.186Z</time>
      </trkpt>
      <trkpt lat="48.38552" lon="7.26062">
        <ele>999</ele>
        <time>2020-09-06T10:38:27.186Z</time>
      </trkpt>
      <trkpt lat="48.38553" lon="7.26063">
        <ele>999</ele>
        <time>2020-09-06T10:38:28.186Z</time>
      </trkpt>
      <trkpt lat="48.38554" lon="7.26064">
        <ele>998</ele>
        <time>2020-09-06T10:38:29.186Z</time>
      </trkpt>
      <trkpt lat="48.38556" lon="7.26065">
        <ele>997</ele>
        <time>2020-09-06T10:38:30.186Z</time>
      </trkpt>
      <trkpt lat="48.38558" lon="7.26066">
        <ele>997</ele>
        <time>2020-09-06T10:38:31.186Z</time>
      </trkpt>
      <trkpt lat="48.3856" lon="7.26067">
        <ele>996</ele>
        <time>2020-09-06T10:38:32.186Z</time>
      </trkpt>
      <trkpt lat="48.38562" lon="7.26068">
        <ele>996</ele>
        <time>2020-09-06T10:38:33.186Z</time>
      </trkpt>
      <trkpt lat="48.38563" lon="7.26069">
        <ele>996</ele>
        <time>2020-09-06T10:38:34.185Z</time>
      </trkpt>
      <trkpt lat="48.38565" lon="7.26069">
        <ele>996</ele>
        <time>2020-09-06T10:38:35.186Z</time>
      </trkpt>
      <trkpt lat="48.38567" lon="7.26069">
        <ele>997</ele>
        <time>2020-09-06T10:38:36.185Z</time>
      </trkpt>
      <trkpt lat="48.38568" lon="7.26068">
        <ele>997</ele>
        <time>2020-09-06T10:38:37.185Z</time>
      </trkpt>
      <trkpt lat="48.38569" lon="7.26069">
        <ele>997</ele>
        <time>2020-09-06T10:38:38.186Z</time>
      </trkpt>
      <trkpt lat="48.38571" lon="7.26069">
        <ele>997</ele>
        <time>2020-09-06T10:38:39.186Z</time>
      </trkpt>
      <trkpt lat="48.38573" lon="7.26069">
        <ele>998</ele>
        <time>2020-09-06T10:38:40.185Z</time>
      </trkpt>
      <trkpt lat="48.38574" lon="7.26069">
        <ele>998</ele>
        <time>2020-09-06T10:38:41.186Z</time>
      </trkpt>
      <trkpt lat="48.38575" lon="7.2607">
        <ele>997</ele>
        <time>2020-09-06T10:38:42.185Z</time>
      </trkpt>
      <trkpt lat="48.38576" lon="7.26071">
        <ele>997</ele>
        <time>2020-09-06T10:38:43.186Z</time>
      </trkpt>
      <trkpt lat="48.38576" lon="7.26073">
        <ele>997</ele>
        <time>2020-09-06T10:38:44.186Z</time>
      </trkpt>
      <trkpt lat="48.38577" lon="7.26074">
        <ele>997</ele>
        <time>2020-09-06T10:38:45.185Z</time>
      </trkpt>
      <trkpt lat="48.38578" lon="7.26075">
        <ele>997</ele>
        <time>2020-09-06T10:38:46.185Z</time>
      </trkpt>
      <trkpt lat="48.38579" lon="7.26076">
        <ele>997</ele>
        <time>2020-09-06T10:38:47.186Z</time>
      </trkpt>
      <trkpt lat="48.3858" lon="7.26077">
        <ele>997</ele>
        <time>2020-09-06T10:38:48.186Z</time>
      </trkpt>
      <trkpt lat="48.38581" lon="7.26078">
        <ele>996</ele>
        <time>2020-09-06T10:38:49.185Z</time>
      </trkpt>
      <trkpt lat="48.38582" lon="7.26078">
        <ele>996</ele>
        <time>2020-09-06T10:38:50.186Z</time>
      </trkpt>
      <trkpt lat="48.38583" lon="7.26079">
        <ele>996</ele>
        <time>2020-09-06T10:38:51.186Z</time>
      </trkpt>
      <trkpt lat="48.38584" lon="7.26079">
        <ele>996</ele>
        <time>2020-09-06T10:38:52.186Z</time>
      </trkpt>
      <trkpt lat="48.38584" lon="7.2608">
        <ele>996</ele>
        <time>2020-09-06T10:38:53.186Z</time>
      </trkpt>
      <trkpt lat="48.38585" lon="7.2608">
        <ele>996</ele>
        <time>2020-09-06T10:38:54.186Z</time>
      </trkpt>
      <trkpt lat="48.38586" lon="7.26081">
        <ele>996</ele>
        <time>2020-09-06T10:38:55.186Z</time>
      </trkpt>
      <trkpt lat="48.38587" lon="7.26082">
        <ele>997</ele>
        <time>2020-09-06T10:38:56.186Z</time>
      </trkpt>
      <trkpt lat="48.38588" lon="7.26084">
        <ele>997</ele>
        <time>2020-09-06T10:38:57.186Z</time>
      </trkpt>
      <trkpt lat="48.38589" lon="7.26085">
        <ele>998</ele>
        <time>2020-09-06T10:38:58.186Z</time>
      </trkpt>
      <trkpt lat="48.38591" lon="7.26086">
        <ele>999</ele>
        <time>2020-09-06T10:38:59.186Z</time>
      </trkpt>
      <trkpt lat="48.38592" lon="7.26086">
        <ele>999</ele>
        <time>2020-09-06T10:39:00.185Z</time>
      </trkpt>
      <trkpt lat="48.38593" lon="7.26087">
        <ele>999</ele>
        <time>2020-09-06T10:39:01.186Z</time>
      </trkpt>
      <trkpt lat="48.38594" lon="7.26088">
        <ele>999</ele>
        <time>2020-09-06T10:39:02.186Z</time>
      </trkpt>
      <trkpt lat="48.38595" lon="7.26088">
        <ele>999</ele>
        <time>2020-09-06T10:39:03.186Z</time>
      </trkpt>
      <trkpt lat="48.38596" lon="7.2609">
        <ele>999</ele>
        <time>2020-09-06T10:39:04.185Z</time>
      </trkpt>
      <trkpt lat="48.38596" lon="7.26091">
        <ele>999</ele>
        <time>2020-09-06T10:39:05.186Z</time>
      </trkpt>
      <trkpt lat="48.38597" lon="7.26092">
        <ele>998</ele>
        <time>2020-09-06T10:39:06.186Z</time>
      </trkpt>
      <trkpt lat="48.38599" lon="7.26094">
        <ele>998</ele>
        <time>2020-09-06T10:39:07.186Z</time>
      </trkpt>
      <trkpt lat="48.386" lon="7.26096">
        <ele>998</ele>
        <time>2020-09-06T10:39:08.185Z</time>
      </trkpt>
      <trkpt lat="48.38601" lon="7.26097">
        <ele>998</ele>
        <time>2020-09-06T10:39:09.186Z</time>
      </trkpt>
      <trkpt lat="48.38602" lon="7.26099">
        <ele>998</ele>
        <time>2020-09-06T10:39:10.186Z</time>
      </trkpt>
      <trkpt lat="48.38602" lon="7.261">
        <ele>998</ele>
        <time>2020-09-06T10:39:11.186Z</time>
      </trkpt>
      <trkpt lat="48.38603" lon="7.26101">
        <ele>999</ele>
        <time>2020-09-06T10:39:12.186Z</time>
      </trkpt>
      <trkpt lat="48.38604" lon="7.26102">
        <ele>999</ele>
        <time>2020-09-06T10:39:13.186Z</time>
      </trkpt>
      <trkpt lat="48.38605" lon="7.26103">
        <ele>998</ele>
        <time>2020-09-06T10:39:14.185Z</time>
      </trkpt>
      <trkpt lat="48.38606" lon="7.26104">
        <ele>998</ele>
        <time>2020-09-06T10:39:15.186Z</time>
      </trkpt>
      <trkpt lat="48.38607" lon="7.26106">
        <ele>998</ele>
        <time>2020-09-06T10:39:16.186Z</time>
      </trkpt>
      <trkpt lat="48.38607" lon="7.26107">
        <ele>998</ele>
        <time>2020-09-06T10:39:17.186Z</time>
      </trkpt>
      <trkpt lat="48.38608" lon="7.26109">
        <ele>998</ele>
        <time>2020-09-06T10:39:18.186Z</time>
      </trkpt>
      <trkpt lat="48.38609" lon="7.2611">
        <ele>998</ele>
        <time>2020-09-06T10:39:19.186Z</time>
      </trkpt>
      <trkpt lat="48.3861" lon="7.26111">
        <ele>998</ele>
        <time>2020-09-06T10:39:20.186Z</time>
      </trkpt>
      <trkpt lat="48.38611" lon="7.26113">
        <ele>998</ele>
        <time>2020-09-06T10:39:21.186Z</time>
      </trkpt>
      <trkpt lat="48.38612" lon="7.26114">
        <ele>998</ele>
        <time>2020-09-06T10:39:22.186Z</time>
      </trkpt>
      <trkpt lat="48.38613" lon="7.26115">
        <ele>998</ele>
        <time>2020-09-06T10:39:23.186Z</time>
      </trkpt>
      <trkpt lat="48.38614" lon="7.26116">
        <ele>998</ele>
        <time>2020-09-06T10:39:24.186Z</time>
      </trkpt>
      <trkpt lat="48.38615" lon="7.26117">
        <ele>997</ele>
        <time>2020-09-06T10:39:25.186Z</time>
      </trkpt>
      <trkpt lat="48.38616" lon="7.26118">
        <ele>997</ele>
        <time>2020-09-06T10:39:26.186Z</time>
      </trkpt>
      <trkpt lat="48.38617" lon="7.26119">
        <ele>997</ele>
        <time>2020-09-06T10:39:27.185Z</time>
      </trkpt>
      <trkpt lat="48.38618" lon="7.2612">
        <ele>997</ele>
        <time>2020-09-06T10:39:28.185Z</time>
      </trkpt>
      <trkpt lat="48.3862" lon="7.26122">
        <ele>997</ele>
        <time>2020-09-06T10:39:29.186Z</time>
      </trkpt>
      <trkpt lat="48.38621" lon="7.26123">
        <ele>997</ele>
        <time>2020-09-06T10:39:30.185Z</time>
      </trkpt>
      <trkpt lat="48.38622" lon="7.26124">
        <ele>997</ele>
        <time>2020-09-06T10:39:31.186Z</time>
      </trkpt>
      <trkpt lat="48.38623" lon="7.26126">
        <ele>997</ele>
        <time>2020-09-06T10:39:32.186Z</time>
      </trkpt>
      <trkpt lat="48.38624" lon="7.26127">
        <ele>997</ele>
        <time>2020-09-06T10:39:33.186Z</time>
      </trkpt>
      <trkpt lat="48.38624" lon="7.26128">
        <ele>996</ele>
        <time>2020-09-06T10:39:34.186Z</time>
      </trkpt>
      <trkpt lat="48.38625" lon="7.2613">
        <ele>996</ele>
        <time>2020-09-06T10:39:35.186Z</time>
      </trkpt>
      <trkpt lat="48.38626" lon="7.26132">
        <ele>995</ele>
        <time>2020-09-06T10:39:36.186Z</time>
      </trkpt>
      <trkpt lat="48.38627" lon="7.26134">
        <ele>995</ele>
        <time>2020-09-06T10:39:37.185Z</time>
      </trkpt>
      <trkpt lat="48.38628" lon="7.26136">
        <ele>995</ele>
        <time>2020-09-06T10:39:38.186Z</time>
      </trkpt>
      <trkpt lat="48.38629" lon="7.26137">
        <ele>995</ele>
        <time>2020-09-06T10:39:39.186Z</time>
      </trkpt>
      <trkpt lat="48.3863" lon="7.26138">
        <ele>995</ele>
        <time>2020-09-06T10:39:40.186Z</time>
      </trkpt>
      <trkpt lat="48.38631" lon="7.2614">
        <ele>995</ele>
        <time>2020-09-06T10:39:41.186Z</time>
      </trkpt>
      <trkpt lat="48.38632" lon="7.26141">
        <ele>995</ele>
        <time>2020-09-06T10:39:42.186Z</time>
      </trkpt>
      <trkpt lat="48.38633" lon="7.26143">
        <ele>996</ele>
        <time>2020-09-06T10:39:43.186Z</time>
      </trkpt>
      <trkpt lat="48.38633" lon="7.26146">
        <ele>996</ele>
        <time>2020-09-06T10:39:44.186Z</time>
      </trkpt>
      <trkpt lat="48.38634" lon="7.26148">
        <ele>996</ele>
        <time>2020-09-06T10:39:45.186Z</time>
      </trkpt>
      <trkpt lat="48.38634" lon="7.26149">
        <ele>997</ele>
        <time>2020-09-06T10:39:46.186Z</time>
      </trkpt>
      <trkpt lat="48.38635" lon="7.2615">
        <ele>997</ele>
        <time>2020-09-06T10:39:47.186Z</time>
      </trkpt>
      <trkpt lat="48.38637" lon="7.26151">
        <ele>997</ele>
        <time>2020-09-06T10:39:48.186Z</time>
      </trkpt>
      <trkpt lat="48.38638" lon="7.26152">
        <ele>997</ele>
        <time>2020-09-06T10:39:49.186Z</time>
      </trkpt>
      <trkpt lat="48.38639" lon="7.26153">
        <ele>997</ele>
        <time>2020-09-06T10:39:50.186Z</time>
      </trkpt>
      <trkpt lat="48.38639" lon="7.26155">
        <ele>997</ele>
        <time>2020-09-06T10:39:51.186Z</time>
      </trkpt>
      <trkpt lat="48.3864" lon="7.26157">
        <ele>997</ele>
        <time>2020-09-06T10:39:52.185Z</time>
      </trkpt>
      <trkpt lat="48.38641" lon="7.26159">
        <ele>997</ele>
        <time>2020-09-06T10:39:53.185Z</time>
      </trkpt>
      <trkpt lat="48.38642" lon="7.26161">
        <ele>997</ele>
        <time>2020-09-06T10:39:54.186Z</time>
      </trkpt>
      <trkpt lat="48.38643" lon="7.26162">
        <ele>997</ele>
        <time>2020-09-06T10:39:55.186Z</time>
      </trkpt>
      <trkpt lat="48.38643" lon="7.26164">
        <ele>997</ele>
        <time>2020-09-06T10:39:56.186Z</time>
      </trkpt>
      <trkpt lat="48.38644" lon="7.26166">
        <ele>997</ele>
        <time>2020-09-06T10:39:57.186Z</time>
      </trkpt>
      <trkpt lat="48.38644" lon="7.26167">
        <ele>997</ele>
        <time>2020-09-06T10:39:58.185Z</time>
      </trkpt>
      <trkpt lat="48.38645" lon="7.26169">
        <ele>998</ele>
        <time>2020-09-06T10:39:59.186Z</time>
      </trkpt>
      <trkpt lat="48.38645" lon="7.2617">
        <ele>998</ele>
        <time>2020-09-06T10:40:00.186Z</time>
      </trkpt>
      <trkpt lat="48.38646" lon="7.26171">
        <ele>998</ele>
        <time>2020-09-06T10:40:01.185Z</time>
      </trkpt>
      <trkpt lat="48.38647" lon="7.26172">
        <ele>998</ele>
        <time>2020-09-06T10:40:02.186Z</time>
      </trkpt>
      <trkpt lat="48.38648" lon="7.26174">
        <ele>997</ele>
        <time>2020-09-06T10:40:03.186Z</time>
      </trkpt>
      <trkpt lat="48.38649" lon="7.26176">
        <ele>997</ele>
        <time>2020-09-06T10:40:04.186Z</time>
      </trkpt>
      <trkpt lat="48.3865" lon="7.26177">
        <ele>997</ele>
        <time>2020-09-06T10:40:05.186Z</time>
      </trkpt>
      <trkpt lat="48.38651" lon="7.26179">
        <ele>997</ele>
        <time>2020-09-06T10:40:06.186Z</time>
      </trkpt>
      <trkpt lat="48.38651" lon="7.2618">
        <ele>997</ele>
        <time>2020-09-06T10:40:07.186Z</time>
      </trkpt>
      <trkpt lat="48.38652" lon="7.26181">
        <ele>997</ele>
        <time>2020-09-06T10:40:08.186Z</time>
      </trkpt>
      <trkpt lat="48.38653" lon="7.26183">
        <ele>997</ele>
        <time>2020-09-06T10:40:09.185Z</time>
      </trkpt>
      <trkpt lat="48.38654" lon="7.26185">
        <ele>997</ele>
        <time>2020-09-06T10:40:10.186Z</time>
      </trkpt>
      <trkpt lat="48.38654" lon="7.26187">
        <ele>997</ele>
        <time>2020-09-06T10:40:11.186Z</time>
      </trkpt>
      <trkpt lat="48.38655" lon="7.26189">
        <ele>996</ele>
        <time>2020-09-06T10:40:12.186Z</time>
      </trkpt>
      <trkpt lat="48.38655" lon="7.2619">
        <ele>996</ele>
        <time>2020-09-06T10:40:13.186Z</time>
      </trkpt>
      <trkpt lat="48.38656" lon="7.26191">
        <ele>996</ele>
        <time>2020-09-06T10:40:14.186Z</time>
      </trkpt>
      <trkpt lat="48.38657" lon="7.26193">
        <ele>996</ele>
        <time>2020-09-06T10:40:15.186Z</time>
      </trkpt>
      <trkpt lat="48.38658" lon="7.26195">
        <ele>996</ele>
        <time>2020-09-06T10:40:16.186Z</time>
      </trkpt>
      <trkpt lat="48.38659" lon="7.26196">
        <ele>996</ele>
        <time>2020-09-06T10:40:17.186Z</time>
      </trkpt>
      <trkpt lat="48.3866" lon="7.26198">
        <ele>996</ele>
        <time>2020-09-06T10:40:18.185Z</time>
      </trkpt>
      <trkpt lat="48.38661" lon="7.26199">
        <ele>996</ele>
        <time>2020-09-06T10:40:19.186Z</time>
      </trkpt>
      <trkpt lat="48.38662" lon="7.26199">
        <ele>996</ele>
        <time>2020-09-06T10:40:20.186Z</time>
      </trkpt>
      <trkpt lat="48.38662" lon="7.26201">
        <ele>995</ele>
        <time>2020-09-06T10:40:21.186Z</time>
      </trkpt>
      <trkpt lat="48.38663" lon="7.26203">
        <ele>995</ele>
        <time>2020-09-06T10:40:22.186Z</time>
      </trkpt>
      <trkpt lat="48.38663" lon="7.26204">
        <ele>995</ele>
        <time>2020-09-06T10:40:23.186Z</time>
      </trkpt>
      <trkpt lat="48.38664" lon="7.26206">
        <ele>995</ele>
        <time>2020-09-06T10:40:24.185Z</time>
      </trkpt>
      <trkpt lat="48.38665" lon="7.26207">
        <ele>996</ele>
        <time>2020-09-06T10:40:25.186Z</time>
      </trkpt>
      <trkpt lat="48.38665" lon="7.26209">
        <ele>996</ele>
        <time>2020-09-06T10:40:26.186Z</time>
      </trkpt>
      <trkpt lat="48.38666" lon="7.26211">
        <ele>996</ele>
        <time>2020-09-06T10:40:27.186Z</time>
      </trkpt>
      <trkpt lat="48.38667" lon="7.26212">
        <ele>996</ele>
        <time>2020-09-06T10:40:28.185Z</time>
      </trkpt>
      <trkpt lat="48.38668" lon="7.26214">
        <ele>997</ele>
        <time>2020-09-06T10:40:29.186Z</time>
      </trkpt>
      <trkpt lat="48.38668" lon="7.26215">
        <ele>997</ele>
        <time>2020-09-06T10:40:30.185Z</time>
      </trkpt>
      <trkpt lat="48.38668" lon="7.26216">
        <ele>997</ele>
        <time>2020-09-06T10:40:31.186Z</time>
      </trkpt>
      <trkpt lat="48.38669" lon="7.26218">
        <ele>997</ele>
        <time>2020-09-06T10:40:32.185Z</time>
      </trkpt>
      <trkpt lat="48.38669" lon="7.26219">
        <ele>998</ele>
        <time>2020-09-06T10:40:33.185Z</time>
      </trkpt>
      <trkpt lat="48.3867" lon="7.26221">
        <ele>998</ele>
        <time>2020-09-06T10:40:34.186Z</time>
      </trkpt>
      <trkpt lat="48.3867" lon="7.26223">
        <ele>998</ele>
        <time>2020-09-06T10:40:35.186Z</time>
      </trkpt>
      <trkpt lat="48.38671" lon="7.26224">
        <ele>998</ele>
        <time>2020-09-06T10:40:36.186Z</time>
      </trkpt>
      <trkpt lat="48.38672" lon="7.26225">
        <ele>998</ele>
        <time>2020-09-06T10:40:37.186Z</time>
      </trkpt>
      <trkpt lat="48.38673" lon="7.26226">
        <ele>999</ele>
        <time>2020-09-06T10:40:38.186Z</time>
      </trkpt>
      <trkpt lat="48.38674" lon="7.26227">
        <ele>999</ele>
        <time>2020-09-06T10:40:39.186Z</time>
      </trkpt>
      <trkpt lat="48.38674" lon="7.26229">
        <ele>999</ele>
        <time>2020-09-06T10:40:40.185Z</time>
      </trkpt>
      <trkpt lat="48.38674" lon="7.2623">
        <ele>999</ele>
        <time>2020-09-06T10:40:41.186Z</time>
      </trkpt>
      <trkpt lat="48.38674" lon="7.26232">
        <ele>1000</ele>
        <time>2020-09-06T10:40:42.186Z</time>
      </trkpt>
      <trkpt lat="48.38675" lon="7.26233">
        <ele>1000</ele>
        <time>2020-09-06T10:40:43.186Z</time>
      </trkpt>
      <trkpt lat="48.38675" lon="7.26234">
        <ele>1000</ele>
        <time>2020-09-06T10:40:44.186Z</time>
      </trkpt>
      <trkpt lat="48.38676" lon="7.26236">
        <ele>1001</ele>
        <time>2020-09-06T10:40:45.186Z</time>
      </trkpt>
      <trkpt lat="48.38677" lon="7.26237">
        <ele>1001</ele>
        <time>2020-09-06T10:40:46.185Z</time>
      </trkpt>
      <trkpt lat="48.38678" lon="7.26238">
        <ele>1001</ele>
        <time>2020-09-06T10:40:47.186Z</time>
      </trkpt>
      <trkpt lat="48.38679" lon="7.2624">
        <ele>1002</ele>
        <time>2020-09-06T10:40:48.186Z</time>
      </trkpt>
      <trkpt lat="48.38679" lon="7.26242">
        <ele>1002</ele>
        <time>2020-09-06T10:40:49.185Z</time>
      </trkpt>
      <trkpt lat="48.3868" lon="7.26244">
        <ele>1002</ele>
        <time>2020-09-06T10:40:50.186Z</time>
      </trkpt>
      <trkpt lat="48.3868" lon="7.26246">
        <ele>1003</ele>
        <time>2020-09-06T10:40:51.186Z</time>
      </trkpt>
      <trkpt lat="48.3868" lon="7.26247">
        <ele>1003</ele>
        <time>2020-09-06T10:40:52.186Z</time>
      </trkpt>
      <trkpt lat="48.38681" lon="7.26248">
        <ele>1003</ele>
        <time>2020-09-06T10:40:53.186Z</time>
      </trkpt>
      <trkpt lat="48.38682" lon="7.26249">
        <ele>1003</ele>
        <time>2020-09-06T10:40:55.306Z</time>
      </trkpt>
      <trkpt lat="48.38683" lon="7.2625">
        <ele>1003</ele>
        <time>2020-09-06T10:40:56.306Z</time>
      </trkpt>
      <trkpt lat="48.38683" lon="7.26251">
        <ele>1002</ele>
        <time>2020-09-06T10:40:57.305Z</time>
      </trkpt>
      <trkpt lat="48.38683" lon="7.26253">
        <ele>1002</ele>
        <time>2020-09-06T10:40:58.306Z</time>
      </trkpt>
      <trkpt lat="48.38684" lon="7.26254">
        <ele>1002</ele>
        <time>2020-09-06T10:40:59.306Z</time>
      </trkpt>
      <trkpt lat="48.38684" lon="7.26256">
        <ele>1002</ele>
        <time>2020-09-06T10:41:00.306Z</time>
      </trkpt>
      <trkpt lat="48.38685" lon="7.26257">
        <ele>1003</ele>
        <time>2020-09-06T10:41:01.306Z</time>
      </trkpt>
      <trkpt lat="48.38685" lon="7.26259">
        <ele>1003</ele>
        <time>2020-09-06T10:41:02.306Z</time>
      </trkpt>
      <trkpt lat="48.38686" lon="7.26261">
        <ele>1003</ele>
        <time>2020-09-06T10:41:03.306Z</time>
      </trkpt>
      <trkpt lat="48.38686" lon="7.26263">
        <ele>1003</ele>
        <time>2020-09-06T10:41:04.306Z</time>
      </trkpt>
      <trkpt lat="48.38686" lon="7.26264">
        <ele>1004</ele>
        <time>2020-09-06T10:41:05.305Z</time>
      </trkpt>
      <trkpt lat="48.38686" lon="7.26265">
        <ele>1004</ele>
        <time>2020-09-06T10:41:06.306Z</time>
      </trkpt>
      <trkpt lat="48.38686" lon="7.26267">
        <ele>1005</ele>
        <time>2020-09-06T10:41:07.306Z</time>
      </trkpt>
      <trkpt lat="48.38687" lon="7.26269">
        <ele>1005</ele>
        <time>2020-09-06T10:41:08.306Z</time>
      </trkpt>
      <trkpt lat="48.38688" lon="7.26271">
        <ele>1005</ele>
        <time>2020-09-06T10:41:09.306Z</time>
      </trkpt>
      <trkpt lat="48.38687" lon="7.26272">
        <ele>1005</ele>
        <time>2020-09-06T10:41:10.306Z</time>
      </trkpt>
      <trkpt lat="48.38687" lon="7.26274">
        <ele>1005</ele>
        <time>2020-09-06T10:41:11.305Z</time>
      </trkpt>
      <trkpt lat="48.38687" lon="7.26276">
        <ele>1006</ele>
        <time>2020-09-06T10:41:12.306Z</time>
      </trkpt>
      <trkpt lat="48.38687" lon="7.26278">
        <ele>1005</ele>
        <time>2020-09-06T10:41:13.306Z</time>
      </trkpt>
      <trkpt lat="48.38688" lon="7.26279">
        <ele>1005</ele>
        <time>2020-09-06T10:41:14.306Z</time>
      </trkpt>
      <trkpt lat="48.38689" lon="7.2628">
        <ele>1004</ele>
        <time>2020-09-06T10:41:15.306Z</time>
      </trkpt>
      <trkpt lat="48.38689" lon="7.26282">
        <ele>1004</ele>
        <time>2020-09-06T10:41:16.306Z</time>
      </trkpt>
      <trkpt lat="48.3869" lon="7.26284">
        <ele>1003</ele>
        <time>2020-09-06T10:41:17.306Z</time>
      </trkpt>
      <trkpt lat="48.3869" lon="7.26286">
        <ele>1003</ele>
        <time>2020-09-06T10:41:18.306Z</time>
      </trkpt>
      <trkpt lat="48.38691" lon="7.26288">
        <ele>1002</ele>
        <time>2020-09-06T10:41:19.306Z</time>
      </trkpt>
      <trkpt lat="48.38691" lon="7.2629">
        <ele>1002</ele>
        <time>2020-09-06T10:41:20.305Z</time>
      </trkpt>
      <trkpt lat="48.38691" lon="7.26291">
        <ele>1002</ele>
        <time>2020-09-06T10:41:21.306Z</time>
      </trkpt>
      <trkpt lat="48.38692" lon="7.26292">
        <ele>1002</ele>
        <time>2020-09-06T10:41:22.306Z</time>
      </trkpt>
      <trkpt lat="48.38692" lon="7.26294">
        <ele>1002</ele>
        <time>2020-09-06T10:41:23.306Z</time>
      </trkpt>
      <trkpt lat="48.38693" lon="7.26295">
        <ele>1003</ele>
        <time>2020-09-06T10:41:24.305Z</time>
      </trkpt>
      <trkpt lat="48.38693" lon="7.26297">
        <ele>1003</ele>
        <time>2020-09-06T10:41:25.306Z</time>
      </trkpt>
      <trkpt lat="48.38694" lon="7.26299">
        <ele>1003</ele>
        <time>2020-09-06T10:41:26.306Z</time>
      </trkpt>
      <trkpt lat="48.38694" lon="7.26301">
        <ele>1003</ele>
        <time>2020-09-06T10:41:27.305Z</time>
      </trkpt>
      <trkpt lat="48.38694" lon="7.26303">
        <ele>1004</ele>
        <time>2020-09-06T10:41:28.306Z</time>
      </trkpt>
      <trkpt lat="48.38695" lon="7.26305">
        <ele>1004</ele>
        <time>2020-09-06T10:41:29.306Z</time>
      </trkpt>
      <trkpt lat="48.38696" lon="7.26307">
        <ele>1005</ele>
        <time>2020-09-06T10:41:30.306Z</time>
      </trkpt>
      <trkpt lat="48.38697" lon="7.2631">
        <ele>1006</ele>
        <time>2020-09-06T10:41:31.306Z</time>
      </trkpt>
      <trkpt lat="48.38697" lon="7.26313">
        <ele>1006</ele>
        <time>2020-09-06T10:41:32.306Z</time>
      </trkpt>
      <trkpt lat="48.38698" lon="7.26317">
        <ele>1007</ele>
        <time>2020-09-06T10:41:33.306Z</time>
      </trkpt>
      <trkpt lat="48.38698" lon="7.26319">
        <ele>1007</ele>
        <time>2020-09-06T10:41:34.306Z</time>
      </trkpt>
      <trkpt lat="48.38699" lon="7.26321">
        <ele>1008</ele>
        <time>2020-09-06T10:41:35.306Z</time>
      </trkpt>
      <trkpt lat="48.387" lon="7.26321">
        <ele>1008</ele>
        <time>2020-09-06T10:41:36.306Z</time>
      </trkpt>
      <trkpt lat="48.38701" lon="7.26323">
        <ele>1009</ele>
        <time>2020-09-06T10:41:37.306Z</time>
      </trkpt>
      <trkpt lat="48.38701" lon="7.26326">
        <ele>1009</ele>
        <time>2020-09-06T10:41:38.306Z</time>
      </trkpt>
      <trkpt lat="48.38702" lon="7.26329">
        <ele>1009</ele>
        <time>2020-09-06T10:41:39.306Z</time>
      </trkpt>
      <trkpt lat="48.38702" lon="7.26332">
        <ele>1010</ele>
        <time>2020-09-06T10:41:42.284Z</time>
      </trkpt>
      <trkpt lat="48.38703" lon="7.26333">
        <ele>1010</ele>
        <time>2020-09-06T10:41:43.285Z</time>
      </trkpt>
      <trkpt lat="48.38703" lon="7.26334">
        <ele>1010</ele>
        <time>2020-09-06T10:41:44.285Z</time>
      </trkpt>
      <trkpt lat="48.38703" lon="7.26335">
        <ele>1011</ele>
        <time>2020-09-06T10:41:45.284Z</time>
      </trkpt>
      <trkpt lat="48.38704" lon="7.26337">
        <ele>1011</ele>
        <time>2020-09-06T10:41:46.285Z</time>
      </trkpt>
      <trkpt lat="48.38704" lon="7.26339">
        <ele>1012</ele>
        <time>2020-09-06T10:41:47.284Z</time>
      </trkpt>
      <trkpt lat="48.38704" lon="7.2634">
        <ele>1012</ele>
        <time>2020-09-06T10:41:48.285Z</time>
      </trkpt>
      <trkpt lat="48.38704" lon="7.26342">
        <ele>1012</ele>
        <time>2020-09-06T10:41:49.285Z</time>
      </trkpt>
      <trkpt lat="48.38705" lon="7.26344">
        <ele>1012</ele>
        <time>2020-09-06T10:41:50.285Z</time>
      </trkpt>
      <trkpt lat="48.38706" lon="7.26345">
        <ele>1012</ele>
        <time>2020-09-06T10:41:51.285Z</time>
      </trkpt>
      <trkpt lat="48.38706" lon="7.26347">
        <ele>1012</ele>
        <time>2020-09-06T10:41:52.285Z</time>
      </trkpt>
      <trkpt lat="48.38707" lon="7.2635">
        <ele>1012</ele>
        <time>2020-09-06T10:41:53.285Z</time>
      </trkpt>
      <trkpt lat="48.38707" lon="7.26352">
        <ele>1012</ele>
        <time>2020-09-06T10:41:54.284Z</time>
      </trkpt>
      <trkpt lat="48.38707" lon="7.26354">
        <ele>1012</ele>
        <time>2020-09-06T10:41:55.285Z</time>
      </trkpt>
      <trkpt lat="48.38707" lon="7.26355">
        <ele>1012</ele>
        <time>2020-09-06T10:41:56.285Z</time>
      </trkpt>
      <trkpt lat="48.38708" lon="7.26356">
        <ele>1012</ele>
        <time>2020-09-06T10:41:57.285Z</time>
      </trkpt>
      <trkpt lat="48.38707" lon="7.26358">
        <ele>1012</ele>
        <time>2020-09-06T10:41:58.285Z</time>
      </trkpt>
      <trkpt lat="48.38707" lon="7.26359">
        <ele>1012</ele>
        <time>2020-09-06T10:41:59.285Z</time>
      </trkpt>
      <trkpt lat="48.38707" lon="7.26361">
        <ele>1012</ele>
        <time>2020-09-06T10:42:00.285Z</time>
      </trkpt>
      <trkpt lat="48.38707" lon="7.26363">
        <ele>1012</ele>
        <time>2020-09-06T10:42:01.285Z</time>
      </trkpt>
      <trkpt lat="48.38708" lon="7.26365">
        <ele>1012</ele>
        <time>2020-09-06T10:42:02.285Z</time>
      </trkpt>
      <trkpt lat="48.38708" lon="7.26366">
        <ele>1012</ele>
        <time>2020-09-06T10:42:03.285Z</time>
      </trkpt>
      <trkpt lat="48.38708" lon="7.26368">
        <ele>1011</ele>
        <time>2020-09-06T10:42:04.285Z</time>
      </trkpt>
      <trkpt lat="48.38708" lon="7.2637">
        <ele>1011</ele>
        <time>2020-09-06T10:42:05.284Z</time>
      </trkpt>
      <trkpt lat="48.38708" lon="7.26373">
        <ele>1011</ele>
        <time>2020-09-06T10:42:06.285Z</time>
      </trkpt>
      <trkpt lat="48.38707" lon="7.26375">
        <ele>1011</ele>
        <time>2020-09-06T10:42:07.284Z</time>
      </trkpt>
      <trkpt lat="48.38707" lon="7.26378">
        <ele>1011</ele>
        <time>2020-09-06T10:42:08.285Z</time>
      </trkpt>
      <trkpt lat="48.38707" lon="7.2638">
        <ele>1011</ele>
        <time>2020-09-06T10:42:09.285Z</time>
      </trkpt>
      <trkpt lat="48.38708" lon="7.26381">
        <ele>1011</ele>
        <time>2020-09-06T10:42:11.300Z</time>
      </trkpt>
      <trkpt lat="48.38708" lon="7.26382">
        <ele>1011</ele>
        <time>2020-09-06T10:42:12.300Z</time>
      </trkpt>
      <trkpt lat="48.38708" lon="7.26383">
        <ele>1011</ele>
        <time>2020-09-06T10:42:13.300Z</time>
      </trkpt>
      <trkpt lat="48.38708" lon="7.26384">
        <ele>1011</ele>
        <time>2020-09-06T10:42:14.299Z</time>
      </trkpt>
      <trkpt lat="48.38708" lon="7.26387">
        <ele>1011</ele>
        <time>2020-09-06T10:42:15.300Z</time>
      </trkpt>
      <trkpt lat="48.38708" lon="7.26389">
        <ele>1011</ele>
        <time>2020-09-06T10:42:16.300Z</time>
      </trkpt>
      <trkpt lat="48.38708" lon="7.2639">
        <ele>1012</ele>
        <time>2020-09-06T10:42:17.300Z</time>
      </trkpt>
      <trkpt lat="48.38709" lon="7.26391">
        <ele>1012</ele>
        <time>2020-09-06T10:42:18.300Z</time>
      </trkpt>
      <trkpt lat="48.38709" lon="7.26392">
        <ele>1012</ele>
        <time>2020-09-06T10:42:19.300Z</time>
      </trkpt>
      <trkpt lat="48.38709" lon="7.26394">
        <ele>1012</ele>
        <time>2020-09-06T10:42:20.300Z</time>
      </trkpt>
      <trkpt lat="48.3871" lon="7.26395">
        <ele>1012</ele>
        <time>2020-09-06T10:42:21.300Z</time>
      </trkpt>
      <trkpt lat="48.38711" lon="7.26398">
        <ele>1012</ele>
        <time>2020-09-06T10:42:22.300Z</time>
      </trkpt>
      <trkpt lat="48.38711" lon="7.264">
        <ele>1012</ele>
        <time>2020-09-06T10:42:23.300Z</time>
      </trkpt>
      <trkpt lat="48.38712" lon="7.26401">
        <ele>1012</ele>
        <time>2020-09-06T10:42:24.299Z</time>
      </trkpt>
      <trkpt lat="48.38713" lon="7.26402">
        <ele>1012</ele>
        <time>2020-09-06T10:42:25.300Z</time>
      </trkpt>
      <trkpt lat="48.38713" lon="7.26403">
        <ele>1013</ele>
        <time>2020-09-06T10:42:26.300Z</time>
      </trkpt>
      <trkpt lat="48.38713" lon="7.26405">
        <ele>1013</ele>
        <time>2020-09-06T10:42:27.300Z</time>
      </trkpt>
      <trkpt lat="48.38713" lon="7.26407">
        <ele>1012</ele>
        <time>2020-09-06T10:42:28.300Z</time>
      </trkpt>
      <trkpt lat="48.38712" lon="7.26409">
        <ele>1012</ele>
        <time>2020-09-06T10:42:29.300Z</time>
      </trkpt>
      <trkpt lat="48.38712" lon="7.26411">
        <ele>1012</ele>
        <time>2020-09-06T10:42:30.299Z</time>
      </trkpt>
      <trkpt lat="48.38712" lon="7.26414">
        <ele>1012</ele>
        <time>2020-09-06T10:42:31.300Z</time>
      </trkpt>
      <trkpt lat="48.38711" lon="7.26417">
        <ele>1012</ele>
        <time>2020-09-06T10:42:32.300Z</time>
      </trkpt>
      <trkpt lat="48.3871" lon="7.26419">
        <ele>1012</ele>
        <time>2020-09-06T10:42:33.300Z</time>
      </trkpt>
      <trkpt lat="48.3871" lon="7.2642">
        <ele>1012</ele>
        <time>2020-09-06T10:42:34.299Z</time>
      </trkpt>
      <trkpt lat="48.3871" lon="7.26422">
        <ele>1011</ele>
        <time>2020-09-06T10:42:35.300Z</time>
      </trkpt>
      <trkpt lat="48.3871" lon="7.26423">
        <ele>1011</ele>
        <time>2020-09-06T10:42:36.300Z</time>
      </trkpt>
      <trkpt lat="48.38709" lon="7.26425">
        <ele>1010</ele>
        <time>2020-09-06T10:42:37.300Z</time>
      </trkpt>
      <trkpt lat="48.38709" lon="7.26427">
        <ele>1010</ele>
        <time>2020-09-06T10:42:38.299Z</time>
      </trkpt>
      <trkpt lat="48.38709" lon="7.26428">
        <ele>1010</ele>
        <time>2020-09-06T10:42:39.300Z</time>
      </trkpt>
      <trkpt lat="48.38709" lon="7.2643">
        <ele>1010</ele>
        <time>2020-09-06T10:42:40.300Z</time>
      </trkpt>
      <trkpt lat="48.38708" lon="7.26432">
        <ele>1011</ele>
        <time>2020-09-06T10:42:41.300Z</time>
      </trkpt>
      <trkpt lat="48.38708" lon="7.26434">
        <ele>1011</ele>
        <time>2020-09-06T10:42:42.300Z</time>
      </trkpt>
      <trkpt lat="48.38708" lon="7.26435">
        <ele>1012</ele>
        <time>2020-09-06T10:42:43.300Z</time>
      </trkpt>
      <trkpt lat="48.38708" lon="7.26436">
        <ele>1012</ele>
        <time>2020-09-06T10:42:44.299Z</time>
      </trkpt>
      <trkpt lat="48.38708" lon="7.26438">
        <ele>1013</ele>
        <time>2020-09-06T10:42:45.299Z</time>
      </trkpt>
      <trkpt lat="48.38709" lon="7.26441">
        <ele>1013</ele>
        <time>2020-09-06T10:42:46.299Z</time>
      </trkpt>
      <trkpt lat="48.38709" lon="7.26444">
        <ele>1013</ele>
        <time>2020-09-06T10:42:47.299Z</time>
      </trkpt>
      <trkpt lat="48.38708" lon="7.26447">
        <ele>1013</ele>
        <time>2020-09-06T10:42:48.300Z</time>
      </trkpt>
      <trkpt lat="48.38708" lon="7.26449">
        <ele>1013</ele>
        <time>2020-09-06T10:42:49.299Z</time>
      </trkpt>
      <trkpt lat="48.38708" lon="7.2645">
        <ele>1014</ele>
        <time>2020-09-06T10:42:50.299Z</time>
      </trkpt>
      <trkpt lat="48.38708" lon="7.26452">
        <ele>1014</ele>
        <time>2020-09-06T10:42:51.299Z</time>
      </trkpt>
      <trkpt lat="48.38707" lon="7.26454">
        <ele>1015</ele>
        <time>2020-09-06T10:42:52.300Z</time>
      </trkpt>
      <trkpt lat="48.38707" lon="7.26456">
        <ele>1015</ele>
        <time>2020-09-06T10:42:53.300Z</time>
      </trkpt>
      <trkpt lat="48.38707" lon="7.26458">
        <ele>1015</ele>
        <time>2020-09-06T10:42:54.300Z</time>
      </trkpt>
      <trkpt lat="48.38707" lon="7.2646">
        <ele>1015</ele>
        <time>2020-09-06T10:42:55.300Z</time>
      </trkpt>
      <trkpt lat="48.38708" lon="7.26462">
        <ele>1016</ele>
        <time>2020-09-06T10:42:56.300Z</time>
      </trkpt>
      <trkpt lat="48.38708" lon="7.26464">
        <ele>1016</ele>
        <time>2020-09-06T10:42:57.300Z</time>
      </trkpt>
      <trkpt lat="48.38708" lon="7.26465">
        <ele>1016</ele>
        <time>2020-09-06T10:42:58.299Z</time>
      </trkpt>
      <trkpt lat="48.3871" lon="7.26468">
        <ele>1017</ele>
        <time>2020-09-06T10:42:59.299Z</time>
      </trkpt>
      <trkpt lat="48.3871" lon="7.26471">
        <ele>1017</ele>
        <time>2020-09-06T10:43:00.300Z</time>
      </trkpt>
      <trkpt lat="48.3871" lon="7.26474">
        <ele>1017</ele>
        <time>2020-09-06T10:43:01.300Z</time>
      </trkpt>
      <trkpt lat="48.38708" lon="7.26477">
        <ele>1017</ele>
        <time>2020-09-06T10:43:02.300Z</time>
      </trkpt>
      <trkpt lat="48.38708" lon="7.26478">
        <ele>1017</ele>
        <time>2020-09-06T10:43:03.300Z</time>
      </trkpt>
      <trkpt lat="48.38707" lon="7.2648">
        <ele>1017</ele>
        <time>2020-09-06T10:43:04.300Z</time>
      </trkpt>
      <trkpt lat="48.38706" lon="7.26481">
        <ele>1018</ele>
        <time>2020-09-06T10:43:05.300Z</time>
      </trkpt>
      <trkpt lat="48.38706" lon="7.26483">
        <ele>1018</ele>
        <time>2020-09-06T10:43:06.299Z</time>
      </trkpt>
      <trkpt lat="48.38705" lon="7.26485">
        <ele>1018</ele>
        <time>2020-09-06T10:43:07.299Z</time>
      </trkpt>
      <trkpt lat="48.38705" lon="7.26487">
        <ele>1018</ele>
        <time>2020-09-06T10:43:08.300Z</time>
      </trkpt>
      <trkpt lat="48.38705" lon="7.26488">
        <ele>1019</ele>
        <time>2020-09-06T10:43:09.300Z</time>
      </trkpt>
      <trkpt lat="48.38706" lon="7.2649">
        <ele>1019</ele>
        <time>2020-09-06T10:43:10.299Z</time>
      </trkpt>
      <trkpt lat="48.38706" lon="7.26491">
        <ele>1020</ele>
        <time>2020-09-06T10:43:11.299Z</time>
      </trkpt>
      <trkpt lat="48.38706" lon="7.26493">
        <ele>1020</ele>
        <time>2020-09-06T10:43:12.300Z</time>
      </trkpt>
      <trkpt lat="48.38706" lon="7.26495">
        <ele>1020</ele>
        <time>2020-09-06T10:43:14.280Z</time>
      </trkpt>
      <trkpt lat="48.38706" lon="7.26498">
        <ele>1021</ele>
        <time>2020-09-06T10:43:15.279Z</time>
      </trkpt>
      <trkpt lat="48.38706" lon="7.265">
        <ele>1021</ele>
        <time>2020-09-06T10:43:16.280Z</time>
      </trkpt>
      <trkpt lat="48.38706" lon="7.26502">
        <ele>1021</ele>
        <time>2020-09-06T10:43:17.280Z</time>
      </trkpt>
      <trkpt lat="48.38705" lon="7.26503">
        <ele>1021</ele>
        <time>2020-09-06T10:43:18.280Z</time>
      </trkpt>
      <trkpt lat="48.38706" lon="7.26504">
        <ele>1021</ele>
        <time>2020-09-06T10:43:19.280Z</time>
      </trkpt>
      <trkpt lat="48.38706" lon="7.26506">
        <ele>1021</ele>
        <time>2020-09-06T10:43:20.280Z</time>
      </trkpt>
      <trkpt lat="48.38706" lon="7.26507">
        <ele>1021</ele>
        <time>2020-09-06T10:43:21.280Z</time>
      </trkpt>
      <trkpt lat="48.38707" lon="7.26509">
        <ele>1021</ele>
        <time>2020-09-06T10:43:22.280Z</time>
      </trkpt>
      <trkpt lat="48.38707" lon="7.26512">
        <ele>1022</ele>
        <time>2020-09-06T10:43:23.280Z</time>
      </trkpt>
      <trkpt lat="48.38707" lon="7.26514">
        <ele>1022</ele>
        <time>2020-09-06T10:43:24.280Z</time>
      </trkpt>
      <trkpt lat="48.38707" lon="7.26516">
        <ele>1022</ele>
        <time>2020-09-06T10:43:25.280Z</time>
      </trkpt>
      <trkpt lat="48.38707" lon="7.26518">
        <ele>1022</ele>
        <time>2020-09-06T10:43:26.280Z</time>
      </trkpt>
      <trkpt lat="48.38708" lon="7.26519">
        <ele>1022</ele>
        <time>2020-09-06T10:43:27.280Z</time>
      </trkpt>
      <trkpt lat="48.38708" lon="7.26521">
        <ele>1021</ele>
        <time>2020-09-06T10:43:28.280Z</time>
      </trkpt>
      <trkpt lat="48.38708" lon="7.26522">
        <ele>1021</ele>
        <time>2020-09-06T10:43:30.302Z</time>
      </trkpt>
      <trkpt lat="48.38708" lon="7.26523">
        <ele>1021</ele>
        <time>2020-09-06T10:43:31.302Z</time>
      </trkpt>
      <trkpt lat="48.38707" lon="7.26526">
        <ele>1020</ele>
        <time>2020-09-06T10:43:32.302Z</time>
      </trkpt>
      <trkpt lat="48.38707" lon="7.26527">
        <ele>1020</ele>
        <time>2020-09-06T10:43:33.302Z</time>
      </trkpt>
      <trkpt lat="48.38707" lon="7.26529">
        <ele>1020</ele>
        <time>2020-09-06T10:43:34.302Z</time>
      </trkpt>
      <trkpt lat="48.38706" lon="7.26532">
        <ele>1019</ele>
        <time>2020-09-06T10:43:35.302Z</time>
      </trkpt>
      <trkpt lat="48.38706" lon="7.26535">
        <ele>1020</ele>
        <time>2020-09-06T10:43:36.302Z</time>
      </trkpt>
      <trkpt lat="48.38706" lon="7.26538">
        <ele>1020</ele>
        <time>2020-09-06T10:43:37.302Z</time>
      </trkpt>
      <trkpt lat="48.38706" lon="7.2654">
        <ele>1020</ele>
        <time>2020-09-06T10:43:40.449Z</time>
      </trkpt>
      <trkpt lat="48.38706" lon="7.26542">
        <ele>1020</ele>
        <time>2020-09-06T10:43:41.449Z</time>
      </trkpt>
      <trkpt lat="48.38706" lon="7.26544">
        <ele>1021</ele>
        <time>2020-09-06T10:43:42.448Z</time>
      </trkpt>
      <trkpt lat="48.38705" lon="7.26546">
        <ele>1022</ele>
        <time>2020-09-06T10:43:43.449Z</time>
      </trkpt>
      <trkpt lat="48.38704" lon="7.26548">
        <ele>1022</ele>
        <time>2020-09-06T10:43:44.448Z</time>
      </trkpt>
      <trkpt lat="48.38703" lon="7.26549">
        <ele>1023</ele>
        <time>2020-09-06T10:43:45.449Z</time>
      </trkpt>
      <trkpt lat="48.38703" lon="7.2655">
        <ele>1023</ele>
        <time>2020-09-06T10:43:46.449Z</time>
      </trkpt>
      <trkpt lat="48.38702" lon="7.26551">
        <ele>1024</ele>
        <time>2020-09-06T10:43:47.449Z</time>
      </trkpt>
      <trkpt lat="48.38702" lon="7.26552">
        <ele>1024</ele>
        <time>2020-09-06T10:43:48.449Z</time>
      </trkpt>
      <trkpt lat="48.38702" lon="7.26553">
        <ele>1024</ele>
        <time>2020-09-06T10:43:49.449Z</time>
      </trkpt>
      <trkpt lat="48.38701" lon="7.26555">
        <ele>1024</ele>
        <time>2020-09-06T10:43:50.449Z</time>
      </trkpt>
      <trkpt lat="48.38701" lon="7.26557">
        <ele>1023</ele>
        <time>2020-09-06T10:43:53.527Z</time>
      </trkpt>
      <trkpt lat="48.38701" lon="7.26559">
        <ele>1023</ele>
        <time>2020-09-06T10:43:54.527Z</time>
      </trkpt>
      <trkpt lat="48.38701" lon="7.2656">
        <ele>1022</ele>
        <time>2020-09-06T10:43:55.527Z</time>
      </trkpt>
      <trkpt lat="48.38701" lon="7.26562">
        <ele>1022</ele>
        <time>2020-09-06T10:43:56.527Z</time>
      </trkpt>
      <trkpt lat="48.387" lon="7.26564">
        <ele>1022</ele>
        <time>2020-09-06T10:43:57.527Z</time>
      </trkpt>
      <trkpt lat="48.387" lon="7.26565">
        <ele>1021</ele>
        <time>2020-09-06T10:43:58.526Z</time>
      </trkpt>
      <trkpt lat="48.38699" lon="7.26567">
        <ele>1020</ele>
        <time>2020-09-06T10:43:59.527Z</time>
      </trkpt>
      <trkpt lat="48.38699" lon="7.26569">
        <ele>1020</ele>
        <time>2020-09-06T10:44:00.526Z</time>
      </trkpt>
      <trkpt lat="48.38698" lon="7.2657">
        <ele>1019</ele>
        <time>2020-09-06T10:44:01.527Z</time>
      </trkpt>
      <trkpt lat="48.38698" lon="7.26572">
        <ele>1019</ele>
        <time>2020-09-06T10:44:02.527Z</time>
      </trkpt>
      <trkpt lat="48.38696" lon="7.26574">
        <ele>1019</ele>
        <time>2020-09-06T10:44:03.527Z</time>
      </trkpt>
      <trkpt lat="48.38696" lon="7.26577">
        <ele>1019</ele>
        <time>2020-09-06T10:44:04.527Z</time>
      </trkpt>
      <trkpt lat="48.38695" lon="7.26578">
        <ele>1019</ele>
        <time>2020-09-06T10:44:05.527Z</time>
      </trkpt>
      <trkpt lat="48.38693" lon="7.26581">
        <ele>1019</ele>
        <time>2020-09-06T10:44:06.527Z</time>
      </trkpt>
      <trkpt lat="48.38692" lon="7.26585">
        <ele>1020</ele>
        <time>2020-09-06T10:44:07.526Z</time>
      </trkpt>
      <trkpt lat="48.3869" lon="7.2659">
        <ele>1020</ele>
        <time>2020-09-06T10:44:08.527Z</time>
      </trkpt>
      <trkpt lat="48.38689" lon="7.26596">
        <ele>1020</ele>
        <time>2020-09-06T10:44:09.527Z</time>
      </trkpt>
      <trkpt lat="48.38688" lon="7.26601">
        <ele>1021</ele>
        <time>2020-09-06T10:44:10.527Z</time>
      </trkpt>
      <trkpt lat="48.38687" lon="7.26604">
        <ele>1021</ele>
        <time>2020-09-06T10:44:11.526Z</time>
      </trkpt>
      <trkpt lat="48.38686" lon="7.26607">
        <ele>1022</ele>
        <time>2020-09-06T10:44:12.526Z</time>
      </trkpt>
      <trkpt lat="48.38685" lon="7.26609">
        <ele>1022</ele>
        <time>2020-09-06T10:44:13.527Z</time>
      </trkpt>
      <trkpt lat="48.38683" lon="7.2661">
        <ele>1022</ele>
        <time>2020-09-06T10:44:14.526Z</time>
      </trkpt>
      <trkpt lat="48.38682" lon="7.26611">
        <ele>1022</ele>
        <time>2020-09-06T10:44:15.527Z</time>
      </trkpt>
      <trkpt lat="48.38681" lon="7.26612">
        <ele>1021</ele>
        <time>2020-09-06T10:44:16.527Z</time>
      </trkpt>
      <trkpt lat="48.3868" lon="7.26613">
        <ele>1021</ele>
        <time>2020-09-06T10:44:17.527Z</time>
      </trkpt>
      <trkpt lat="48.3868" lon="7.26613">
        <ele>1021</ele>
        <time>2020-09-06T10:44:18.527Z</time>
      </trkpt>
      <trkpt lat="48.38679" lon="7.26614">
        <ele>1020</ele>
        <time>2020-09-06T10:44:19.527Z</time>
      </trkpt>
      <trkpt lat="48.38678" lon="7.26615">
        <ele>1020</ele>
        <time>2020-09-06T10:44:20.527Z</time>
      </trkpt>
      <trkpt lat="48.38678" lon="7.26615">
        <ele>1020</ele>
        <time>2020-09-06T10:44:21.526Z</time>
      </trkpt>
      <trkpt lat="48.38677" lon="7.26616">
        <ele>1020</ele>
        <time>2020-09-06T10:44:22.527Z</time>
      </trkpt>
      <trkpt lat="48.38676" lon="7.26617">
        <ele>1019</ele>
        <time>2020-09-06T10:44:23.526Z</time>
      </trkpt>
      <trkpt lat="48.38676" lon="7.26618">
        <ele>1019</ele>
        <time>2020-09-06T10:44:24.526Z</time>
      </trkpt>
      <trkpt lat="48.38675" lon="7.2662">
        <ele>1019</ele>
        <time>2020-09-06T10:44:25.527Z</time>
      </trkpt>
      <trkpt lat="48.38674" lon="7.2662">
        <ele>1018</ele>
        <time>2020-09-06T10:44:26.527Z</time>
      </trkpt>
      <trkpt lat="48.38674" lon="7.26621">
        <ele>1018</ele>
        <time>2020-09-06T10:44:27.527Z</time>
      </trkpt>
      <trkpt lat="48.38673" lon="7.26621">
        <ele>1017</ele>
        <time>2020-09-06T10:44:28.527Z</time>
      </trkpt>
      <trkpt lat="48.38673" lon="7.26623">
        <ele>1017</ele>
        <time>2020-09-06T10:44:29.527Z</time>
      </trkpt>
      <trkpt lat="48.38673" lon="7.26624">
        <ele>1017</ele>
        <time>2020-09-06T10:44:30.527Z</time>
      </trkpt>
      <trkpt lat="48.38673" lon="7.26625">
        <ele>1016</ele>
        <time>2020-09-06T10:44:31.527Z</time>
      </trkpt>
      <trkpt lat="48.38672" lon="7.26626">
        <ele>1016</ele>
        <time>2020-09-06T10:44:32.526Z</time>
      </trkpt>
      <trkpt lat="48.38671" lon="7.26628">
        <ele>1016</ele>
        <time>2020-09-06T10:45:17.539Z</time>
      </trkpt>
      <trkpt lat="48.3867" lon="7.2663">
        <ele>1015</ele>
        <time>2020-09-06T10:45:18.539Z</time>
      </trkpt>
      <trkpt lat="48.38668" lon="7.26632">
        <ele>1015</ele>
        <time>2020-09-06T10:45:19.538Z</time>
      </trkpt>
      <trkpt lat="48.38667" lon="7.26633">
        <ele>1015</ele>
        <time>2020-09-06T10:45:20.539Z</time>
      </trkpt>
      <trkpt lat="48.38666" lon="7.26634">
        <ele>1014</ele>
        <time>2020-09-06T10:45:21.539Z</time>
      </trkpt>
      <trkpt lat="48.38666" lon="7.26635">
        <ele>1014</ele>
        <time>2020-09-06T10:45:22.539Z</time>
      </trkpt>
      <trkpt lat="48.38665" lon="7.26635">
        <ele>1014</ele>
        <time>2020-09-06T10:45:23.539Z</time>
      </trkpt>
      <trkpt lat="48.38664" lon="7.26636">
        <ele>1013</ele>
        <time>2020-09-06T10:45:24.538Z</time>
      </trkpt>
      <trkpt lat="48.38663" lon="7.26638">
        <ele>1013</ele>
        <time>2020-09-06T10:45:25.539Z</time>
      </trkpt>
      <trkpt lat="48.38663" lon="7.26639">
        <ele>1012</ele>
        <time>2020-09-06T10:45:26.539Z</time>
      </trkpt>
      <trkpt lat="48.38662" lon="7.2664">
        <ele>1012</ele>
        <time>2020-09-06T10:45:27.539Z</time>
      </trkpt>
      <trkpt lat="48.38661" lon="7.26642">
        <ele>1011</ele>
        <time>2020-09-06T10:45:28.539Z</time>
      </trkpt>
      <trkpt lat="48.38661" lon="7.26643">
        <ele>1011</ele>
        <time>2020-09-06T10:45:29.539Z</time>
      </trkpt>
      <trkpt lat="48.3866" lon="7.26644">
        <ele>1011</ele>
        <time>2020-09-06T10:45:30.539Z</time>
      </trkpt>
      <trkpt lat="48.38659" lon="7.26646">
        <ele>1010</ele>
        <time>2020-09-06T10:45:31.539Z</time>
      </trkpt>
      <trkpt lat="48.38658" lon="7.26647">
        <ele>1010</ele>
        <time>2020-09-06T10:45:32.539Z</time>
      </trkpt>
      <trkpt lat="48.38657" lon="7.26648">
        <ele>1010</ele>
        <time>2020-09-06T10:45:33.538Z</time>
      </trkpt>
      <trkpt lat="48.38656" lon="7.2665">
        <ele>1009</ele>
        <time>2020-09-06T10:45:34.539Z</time>
      </trkpt>
      <trkpt lat="48.38655" lon="7.26651">
        <ele>1009</ele>
        <time>2020-09-06T10:45:35.538Z</time>
      </trkpt>
      <trkpt lat="48.38655" lon="7.26653">
        <ele>1008</ele>
        <time>2020-09-06T10:45:36.539Z</time>
      </trkpt>
      <trkpt lat="48.38654" lon="7.26656">
        <ele>1008</ele>
        <time>2020-09-06T10:45:37.539Z</time>
      </trkpt>
      <trkpt lat="48.38654" lon="7.26658">
        <ele>1007</ele>
        <time>2020-09-06T10:45:38.539Z</time>
      </trkpt>
      <trkpt lat="48.38653" lon="7.26659">
        <ele>1007</ele>
        <time>2020-09-06T10:45:39.539Z</time>
      </trkpt>
      <trkpt lat="48.38652" lon="7.2666">
        <ele>1007</ele>
        <time>2020-09-06T10:45:40.539Z</time>
      </trkpt>
      <trkpt lat="48.3865" lon="7.26661">
        <ele>1007</ele>
        <time>2020-09-06T10:45:41.539Z</time>
      </trkpt>
      <trkpt lat="48.38649" lon="7.26662">
        <ele>1007</ele>
        <time>2020-09-06T10:45:42.539Z</time>
      </trkpt>
      <trkpt lat="48.38648" lon="7.26662">
        <ele>1007</ele>
        <time>2020-09-06T10:45:43.539Z</time>
      </trkpt>
      <trkpt lat="48.38648" lon="7.26663">
        <ele>1007</ele>
        <time>2020-09-06T10:45:44.539Z</time>
      </trkpt>
      <trkpt lat="48.38647" lon="7.26665">
        <ele>1008</ele>
        <time>2020-09-06T10:45:45.539Z</time>
      </trkpt>
      <trkpt lat="48.38647" lon="7.26666">
        <ele>1008</ele>
        <time>2020-09-06T10:45:46.539Z</time>
      </trkpt>
      <trkpt lat="48.38648" lon="7.26668">
        <ele>1008</ele>
        <time>2020-09-06T10:45:47.539Z</time>
      </trkpt>
      <trkpt lat="48.38648" lon="7.26671">
        <ele>1008</ele>
        <time>2020-09-06T10:45:48.539Z</time>
      </trkpt>
      <trkpt lat="48.38648" lon="7.26673">
        <ele>1008</ele>
        <time>2020-09-06T10:45:49.539Z</time>
      </trkpt>
      <trkpt lat="48.38647" lon="7.26676">
        <ele>1008</ele>
        <time>2020-09-06T10:45:50.539Z</time>
      </trkpt>
      <trkpt lat="48.38647" lon="7.26678">
        <ele>1007</ele>
        <time>2020-09-06T10:45:51.539Z</time>
      </trkpt>
      <trkpt lat="48.38646" lon="7.26679">
        <ele>1007</ele>
        <time>2020-09-06T10:45:52.538Z</time>
      </trkpt>
      <trkpt lat="48.38645" lon="7.2668">
        <ele>1007</ele>
        <time>2020-09-06T10:45:53.538Z</time>
      </trkpt>
      <trkpt lat="48.38644" lon="7.26681">
        <ele>1008</ele>
        <time>2020-09-06T10:45:54.539Z</time>
      </trkpt>
      <trkpt lat="48.38642" lon="7.26681">
        <ele>1008</ele>
        <time>2020-09-06T10:45:55.538Z</time>
      </trkpt>
      <trkpt lat="48.38641" lon="7.26681">
        <ele>1008</ele>
        <time>2020-09-06T10:45:56.539Z</time>
      </trkpt>
      <trkpt lat="48.38641" lon="7.26682">
        <ele>1008</ele>
        <time>2020-09-06T10:45:57.539Z</time>
      </trkpt>
      <trkpt lat="48.3864" lon="7.26684">
        <ele>1008</ele>
        <time>2020-09-06T10:45:58.539Z</time>
      </trkpt>
      <trkpt lat="48.3864" lon="7.26686">
        <ele>1008</ele>
        <time>2020-09-06T10:45:59.539Z</time>
      </trkpt>
      <trkpt lat="48.38639" lon="7.26687">
        <ele>1008</ele>
        <time>2020-09-06T10:46:00.539Z</time>
      </trkpt>
      <trkpt lat="48.38638" lon="7.26688">
        <ele>1008</ele>
        <time>2020-09-06T10:46:01.539Z</time>
      </trkpt>
      <trkpt lat="48.38637" lon="7.26689">
        <ele>1007</ele>
        <time>2020-09-06T10:46:02.539Z</time>
      </trkpt>
      <trkpt lat="48.38635" lon="7.2669">
        <ele>1007</ele>
        <time>2020-09-06T10:46:03.539Z</time>
      </trkpt>
      <trkpt lat="48.38634" lon="7.26691">
        <ele>1007</ele>
        <time>2020-09-06T10:46:04.539Z</time>
      </trkpt>
      <trkpt lat="48.38633" lon="7.26693">
        <ele>1006</ele>
        <time>2020-09-06T10:46:05.539Z</time>
      </trkpt>
      <trkpt lat="48.38632" lon="7.26695">
        <ele>1006</ele>
        <time>2020-09-06T10:46:07.545Z</time>
      </trkpt>
      <trkpt lat="48.38631" lon="7.26697">
        <ele>1006</ele>
        <time>2020-09-06T10:46:09.406Z</time>
      </trkpt>
      <trkpt lat="48.3863" lon="7.267">
        <ele>1007</ele>
        <time>2020-09-06T10:46:14.313Z</time>
      </trkpt>
      <trkpt lat="48.3863" lon="7.26702">
        <ele>1007</ele>
        <time>2020-09-06T10:46:15.313Z</time>
      </trkpt>
      <trkpt lat="48.3863" lon="7.26703">
        <ele>1007</ele>
        <time>2020-09-06T10:46:16.313Z</time>
      </trkpt>
      <trkpt lat="48.3863" lon="7.26705">
        <ele>1007</ele>
        <time>2020-09-06T10:46:20.418Z</time>
      </trkpt>
      <trkpt lat="48.38629" lon="7.26706">
        <ele>1007</ele>
        <time>2020-09-06T10:46:21.418Z</time>
      </trkpt>
      <trkpt lat="48.38628" lon="7.26707">
        <ele>1007</ele>
        <time>2020-09-06T10:46:22.418Z</time>
      </trkpt>
      <trkpt lat="48.38626" lon="7.26708">
        <ele>1006</ele>
        <time>2020-09-06T10:46:23.418Z</time>
      </trkpt>
      <trkpt lat="48.38625" lon="7.26708">
        <ele>1006</ele>
        <time>2020-09-06T10:46:24.418Z</time>
      </trkpt>
      <trkpt lat="48.38625" lon="7.2671">
        <ele>1005</ele>
        <time>2020-09-06T10:46:25.418Z</time>
      </trkpt>
      <trkpt lat="48.38625" lon="7.26712">
        <ele>1004</ele>
        <time>2020-09-06T10:46:27.433Z</time>
      </trkpt>
      <trkpt lat="48.38624" lon="7.26714">
        <ele>1004</ele>
        <time>2020-09-06T10:46:28.433Z</time>
      </trkpt>
      <trkpt lat="48.38623" lon="7.26716">
        <ele>1004</ele>
        <time>2020-09-06T10:46:29.432Z</time>
      </trkpt>
      <trkpt lat="48.38622" lon="7.26718">
        <ele>1003</ele>
        <time>2020-09-06T10:46:30.433Z</time>
      </trkpt>
      <trkpt lat="48.38621" lon="7.26719">
        <ele>1003</ele>
        <time>2020-09-06T10:46:31.433Z</time>
      </trkpt>
      <trkpt lat="48.3862" lon="7.2672">
        <ele>1003</ele>
        <time>2020-09-06T10:46:32.433Z</time>
      </trkpt>
      <trkpt lat="48.38619" lon="7.2672">
        <ele>1003</ele>
        <time>2020-09-06T10:46:33.433Z</time>
      </trkpt>
      <trkpt lat="48.38617" lon="7.26721">
        <ele>1002</ele>
        <time>2020-09-06T10:46:34.433Z</time>
      </trkpt>
      <trkpt lat="48.38617" lon="7.26723">
        <ele>1002</ele>
        <time>2020-09-06T10:46:35.433Z</time>
      </trkpt>
      <trkpt lat="48.38616" lon="7.26724">
        <ele>1002</ele>
        <time>2020-09-06T10:46:36.433Z</time>
      </trkpt>
      <trkpt lat="48.38615" lon="7.26725">
        <ele>1002</ele>
        <time>2020-09-06T10:46:37.432Z</time>
      </trkpt>
      <trkpt lat="48.38615" lon="7.26726">
        <ele>1002</ele>
        <time>2020-09-06T10:46:38.433Z</time>
      </trkpt>
      <trkpt lat="48.38614" lon="7.26727">
        <ele>1002</ele>
        <time>2020-09-06T10:46:39.433Z</time>
      </trkpt>
      <trkpt lat="48.38612" lon="7.26727">
        <ele>1002</ele>
        <time>2020-09-06T10:46:40.433Z</time>
      </trkpt>
      <trkpt lat="48.38611" lon="7.26729">
        <ele>1002</ele>
        <time>2020-09-06T10:46:41.432Z</time>
      </trkpt>
      <trkpt lat="48.3861" lon="7.2673">
        <ele>1002</ele>
        <time>2020-09-06T10:46:42.433Z</time>
      </trkpt>
      <trkpt lat="48.38609" lon="7.26731">
        <ele>1003</ele>
        <time>2020-09-06T10:46:43.433Z</time>
      </trkpt>
      <trkpt lat="48.38608" lon="7.26732">
        <ele>1003</ele>
        <time>2020-09-06T10:46:44.432Z</time>
      </trkpt>
      <trkpt lat="48.38607" lon="7.26733">
        <ele>1003</ele>
        <time>2020-09-06T10:46:45.433Z</time>
      </trkpt>
      <trkpt lat="48.38606" lon="7.26734">
        <ele>1003</ele>
        <time>2020-09-06T10:46:46.433Z</time>
      </trkpt>
      <trkpt lat="48.38606" lon="7.26735">
        <ele>1003</ele>
        <time>2020-09-06T10:46:47.432Z</time>
      </trkpt>
      <trkpt lat="48.38605" lon="7.26735">
        <ele>1003</ele>
        <time>2020-09-06T10:46:48.432Z</time>
      </trkpt>
      <trkpt lat="48.38605" lon="7.26736">
        <ele>1004</ele>
        <time>2020-09-06T10:46:49.433Z</time>
      </trkpt>
      <trkpt lat="48.38604" lon="7.26738">
        <ele>1004</ele>
        <time>2020-09-06T10:46:50.433Z</time>
      </trkpt>
      <trkpt lat="48.38603" lon="7.26738">
        <ele>1004</ele>
        <time>2020-09-06T10:46:51.432Z</time>
      </trkpt>
      <trkpt lat="48.38603" lon="7.26739">
        <ele>1003</ele>
        <time>2020-09-06T10:46:52.433Z</time>
      </trkpt>
      <trkpt lat="48.38602" lon="7.2674">
        <ele>1003</ele>
        <time>2020-09-06T10:46:53.433Z</time>
      </trkpt>
      <trkpt lat="48.38602" lon="7.26741">
        <ele>1003</ele>
        <time>2020-09-06T10:46:54.433Z</time>
      </trkpt>
      <trkpt lat="48.38601" lon="7.26744">
        <ele>1003</ele>
        <time>2020-09-06T10:46:55.433Z</time>
      </trkpt>
      <trkpt lat="48.386" lon="7.26747">
        <ele>1003</ele>
        <time>2020-09-06T10:46:56.433Z</time>
      </trkpt>
      <trkpt lat="48.38599" lon="7.26748">
        <ele>1002</ele>
        <time>2020-09-06T10:46:57.433Z</time>
      </trkpt>
      <trkpt lat="48.38598" lon="7.2675">
        <ele>1002</ele>
        <time>2020-09-06T10:46:58.433Z</time>
      </trkpt>
      <trkpt lat="48.38598" lon="7.26751">
        <ele>1001</ele>
        <time>2020-09-06T10:46:59.433Z</time>
      </trkpt>
      <trkpt lat="48.38598" lon="7.26752">
        <ele>1001</ele>
        <time>2020-09-06T10:47:00.432Z</time>
      </trkpt>
      <trkpt lat="48.38597" lon="7.26755">
        <ele>1001</ele>
        <time>2020-09-06T10:47:01.433Z</time>
      </trkpt>
      <trkpt lat="48.38595" lon="7.26757">
        <ele>1001</ele>
        <time>2020-09-06T10:47:02.433Z</time>
      </trkpt>
      <trkpt lat="48.38594" lon="7.26758">
        <ele>1001</ele>
        <time>2020-09-06T10:47:03.433Z</time>
      </trkpt>
      <trkpt lat="48.38594" lon="7.2676">
        <ele>1000</ele>
        <time>2020-09-06T10:47:04.433Z</time>
      </trkpt>
      <trkpt lat="48.38593" lon="7.26762">
        <ele>1000</ele>
        <time>2020-09-06T10:47:05.433Z</time>
      </trkpt>
      <trkpt lat="48.38593" lon="7.26763">
        <ele>1000</ele>
        <time>2020-09-06T10:47:06.433Z</time>
      </trkpt>
      <trkpt lat="48.38592" lon="7.26763">
        <ele>1000</ele>
        <time>2020-09-06T10:47:07.433Z</time>
      </trkpt>
      <trkpt lat="48.38592" lon="7.26764">
        <ele>1000</ele>
        <time>2020-09-06T10:47:08.432Z</time>
      </trkpt>
      <trkpt lat="48.38591" lon="7.26764">
        <ele>1000</ele>
        <time>2020-09-06T10:47:09.432Z</time>
      </trkpt>
      <trkpt lat="48.3859" lon="7.26765">
        <ele>1001</ele>
        <time>2020-09-06T10:47:10.433Z</time>
      </trkpt>
      <trkpt lat="48.3859" lon="7.26765">
        <ele>1001</ele>
        <time>2020-09-06T10:47:11.433Z</time>
      </trkpt>
      <trkpt lat="48.38589" lon="7.26766">
        <ele>1001</ele>
        <time>2020-09-06T10:47:12.432Z</time>
      </trkpt>
      <trkpt lat="48.38588" lon="7.26767">
        <ele>1001</ele>
        <time>2020-09-06T10:47:13.433Z</time>
      </trkpt>
      <trkpt lat="48.38588" lon="7.26768">
        <ele>1001</ele>
        <time>2020-09-06T10:47:14.433Z</time>
      </trkpt>
      <trkpt lat="48.38588" lon="7.26769">
        <ele>1001</ele>
        <time>2020-09-06T10:47:15.433Z</time>
      </trkpt>
      <trkpt lat="48.38588" lon="7.2677">
        <ele>1001</ele>
        <time>2020-09-06T10:47:16.432Z</time>
      </trkpt>
      <trkpt lat="48.38588" lon="7.26771">
        <ele>1002</ele>
        <time>2020-09-06T10:47:17.433Z</time>
      </trkpt>
      <trkpt lat="48.38588" lon="7.26772">
        <ele>1002</ele>
        <time>2020-09-06T10:47:18.433Z</time>
      </trkpt>
      <trkpt lat="48.38587" lon="7.26773">
        <ele>1002</ele>
        <time>2020-09-06T10:47:19.433Z</time>
      </trkpt>
      <trkpt lat="48.38586" lon="7.26774">
        <ele>1003</ele>
        <time>2020-09-06T10:47:20.432Z</time>
      </trkpt>
      <trkpt lat="48.38585" lon="7.26775">
        <ele>1003</ele>
        <time>2020-09-06T10:47:21.433Z</time>
      </trkpt>
      <trkpt lat="48.38585" lon="7.26775">
        <ele>1003</ele>
        <time>2020-09-06T10:47:22.432Z</time>
      </trkpt>
      <trkpt lat="48.38584" lon="7.26777">
        <ele>1003</ele>
        <time>2020-09-06T10:47:23.433Z</time>
      </trkpt>
      <trkpt lat="48.38583" lon="7.26778">
        <ele>1003</ele>
        <time>2020-09-06T10:47:24.433Z</time>
      </trkpt>
      <trkpt lat="48.38582" lon="7.26779">
        <ele>1003</ele>
        <time>2020-09-06T10:47:25.433Z</time>
      </trkpt>
      <trkpt lat="48.38581" lon="7.26781">
        <ele>1003</ele>
        <time>2020-09-06T10:47:26.433Z</time>
      </trkpt>
      <trkpt lat="48.3858" lon="7.26783">
        <ele>1003</ele>
        <time>2020-09-06T10:47:27.433Z</time>
      </trkpt>
      <trkpt lat="48.3858" lon="7.26784">
        <ele>1003</ele>
        <time>2020-09-06T10:47:28.433Z</time>
      </trkpt>
      <trkpt lat="48.38579" lon="7.26786">
        <ele>1003</ele>
        <time>2020-09-06T10:47:29.433Z</time>
      </trkpt>
      <trkpt lat="48.38579" lon="7.26788">
        <ele>1003</ele>
        <time>2020-09-06T10:47:30.433Z</time>
      </trkpt>
      <trkpt lat="48.38578" lon="7.2679">
        <ele>1003</ele>
        <time>2020-09-06T10:47:31.432Z</time>
      </trkpt>
      <trkpt lat="48.38577" lon="7.26792">
        <ele>1003</ele>
        <time>2020-09-06T10:47:33.564Z</time>
      </trkpt>
      <trkpt lat="48.38576" lon="7.26795">
        <ele>1003</ele>
        <time>2020-09-06T10:47:34.564Z</time>
      </trkpt>
      <trkpt lat="48.38576" lon="7.26796">
        <ele>1003</ele>
        <time>2020-09-06T10:47:35.564Z</time>
      </trkpt>
      <trkpt lat="48.38574" lon="7.26798">
        <ele>1003</ele>
        <time>2020-09-06T10:47:36.564Z</time>
      </trkpt>
      <trkpt lat="48.38571" lon="7.268">
        <ele>1003</ele>
        <time>2020-09-06T10:47:37.564Z</time>
      </trkpt>
      <trkpt lat="48.3857" lon="7.26802">
        <ele>1003</ele>
        <time>2020-09-06T10:47:38.564Z</time>
      </trkpt>
      <trkpt lat="48.3857" lon="7.26802">
        <ele>1003</ele>
        <time>2020-09-06T10:47:39.564Z</time>
      </trkpt>
      <trkpt lat="48.3857" lon="7.26803">
        <ele>1003</ele>
        <time>2020-09-06T10:47:40.564Z</time>
      </trkpt>
      <trkpt lat="48.3857" lon="7.26805">
        <ele>1003</ele>
        <time>2020-09-06T10:47:41.563Z</time>
      </trkpt>
      <trkpt lat="48.38569" lon="7.26806">
        <ele>1002</ele>
        <time>2020-09-06T10:47:42.563Z</time>
      </trkpt>
      <trkpt lat="48.38568" lon="7.26807">
        <ele>1002</ele>
        <time>2020-09-06T10:47:43.563Z</time>
      </trkpt>
      <trkpt lat="48.38567" lon="7.26809">
        <ele>1002</ele>
        <time>2020-09-06T10:47:44.563Z</time>
      </trkpt>
      <trkpt lat="48.38566" lon="7.26811">
        <ele>1002</ele>
        <time>2020-09-06T10:47:45.564Z</time>
      </trkpt>
      <trkpt lat="48.38566" lon="7.26812">
        <ele>1002</ele>
        <time>2020-09-06T10:47:46.564Z</time>
      </trkpt>
      <trkpt lat="48.38565" lon="7.26814">
        <ele>1002</ele>
        <time>2020-09-06T10:47:47.564Z</time>
      </trkpt>
      <trkpt lat="48.38564" lon="7.26815">
        <ele>1001</ele>
        <time>2020-09-06T10:47:48.564Z</time>
      </trkpt>
      <trkpt lat="48.38563" lon="7.26816">
        <ele>1001</ele>
        <time>2020-09-06T10:47:49.563Z</time>
      </trkpt>
      <trkpt lat="48.38562" lon="7.26818">
        <ele>1001</ele>
        <time>2020-09-06T10:47:50.564Z</time>
      </trkpt>
      <trkpt lat="48.38562" lon="7.26819">
        <ele>1001</ele>
        <time>2020-09-06T10:47:51.563Z</time>
      </trkpt>
      <trkpt lat="48.38561" lon="7.2682">
        <ele>1001</ele>
        <time>2020-09-06T10:47:52.564Z</time>
      </trkpt>
      <trkpt lat="48.38561" lon="7.26822">
        <ele>1001</ele>
        <time>2020-09-06T10:47:53.564Z</time>
      </trkpt>
      <trkpt lat="48.3856" lon="7.26824">
        <ele>1001</ele>
        <time>2020-09-06T10:47:54.564Z</time>
      </trkpt>
      <trkpt lat="48.3856" lon="7.26826">
        <ele>1001</ele>
        <time>2020-09-06T10:47:55.563Z</time>
      </trkpt>
      <trkpt lat="48.3856" lon="7.26828">
        <ele>1001</ele>
        <time>2020-09-06T10:47:56.564Z</time>
      </trkpt>
      <trkpt lat="48.3856" lon="7.26829">
        <ele>1001</ele>
        <time>2020-09-06T10:47:57.564Z</time>
      </trkpt>
      <trkpt lat="48.38559" lon="7.26831">
        <ele>1001</ele>
        <time>2020-09-06T10:47:58.564Z</time>
      </trkpt>
      <trkpt lat="48.38559" lon="7.26833">
        <ele>1001</ele>
        <time>2020-09-06T10:47:59.564Z</time>
      </trkpt>
      <trkpt lat="48.38558" lon="7.26836">
        <ele>1001</ele>
        <time>2020-09-06T10:48:00.564Z</time>
      </trkpt>
      <trkpt lat="48.38558" lon="7.26838">
        <ele>1001</ele>
        <time>2020-09-06T10:48:01.563Z</time>
      </trkpt>
      <trkpt lat="48.38557" lon="7.26841">
        <ele>1001</ele>
        <time>2020-09-06T10:48:02.564Z</time>
      </trkpt>
      <trkpt lat="48.38557" lon="7.26842">
        <ele>1001</ele>
        <time>2020-09-06T10:48:03.564Z</time>
      </trkpt>
      <trkpt lat="48.38556" lon="7.26844">
        <ele>1001</ele>
        <time>2020-09-06T10:48:04.564Z</time>
      </trkpt>
      <trkpt lat="48.38556" lon="7.26846">
        <ele>1001</ele>
        <time>2020-09-06T10:48:05.564Z</time>
      </trkpt>
      <trkpt lat="48.38556" lon="7.26847">
        <ele>1001</ele>
        <time>2020-09-06T10:48:06.564Z</time>
      </trkpt>
      <trkpt lat="48.38555" lon="7.26849">
        <ele>1001</ele>
        <time>2020-09-06T10:48:07.564Z</time>
      </trkpt>
      <trkpt lat="48.38555" lon="7.26851">
        <ele>1002</ele>
        <time>2020-09-06T10:48:08.564Z</time>
      </trkpt>
      <trkpt lat="48.38555" lon="7.26853">
        <ele>1002</ele>
        <time>2020-09-06T10:48:09.564Z</time>
      </trkpt>
      <trkpt lat="48.38554" lon="7.26855">
        <ele>1001</ele>
        <time>2020-09-06T10:48:10.564Z</time>
      </trkpt>
      <trkpt lat="48.38553" lon="7.26857">
        <ele>1001</ele>
        <time>2020-09-06T10:48:11.564Z</time>
      </trkpt>
      <trkpt lat="48.38553" lon="7.26858">
        <ele>1001</ele>
        <time>2020-09-06T10:48:12.564Z</time>
      </trkpt>
      <trkpt lat="48.38553" lon="7.2686">
        <ele>1001</ele>
        <time>2020-09-06T10:48:13.564Z</time>
      </trkpt>
      <trkpt lat="48.38552" lon="7.26863">
        <ele>1001</ele>
        <time>2020-09-06T10:48:14.564Z</time>
      </trkpt>
      <trkpt lat="48.38552" lon="7.26865">
        <ele>1000</ele>
        <time>2020-09-06T10:48:15.564Z</time>
      </trkpt>
      <trkpt lat="48.38552" lon="7.26866">
        <ele>1000</ele>
        <time>2020-09-06T10:48:16.564Z</time>
      </trkpt>
      <trkpt lat="48.3855" lon="7.26868">
        <ele>1000</ele>
        <time>2020-09-06T10:48:17.564Z</time>
      </trkpt>
      <trkpt lat="48.3855" lon="7.26869">
        <ele>999</ele>
        <time>2020-09-06T10:48:18.563Z</time>
      </trkpt>
      <trkpt lat="48.3855" lon="7.2687">
        <ele>999</ele>
        <time>2020-09-06T10:48:19.564Z</time>
      </trkpt>
      <trkpt lat="48.38549" lon="7.26872">
        <ele>999</ele>
        <time>2020-09-06T10:48:20.564Z</time>
      </trkpt>
      <trkpt lat="48.3855" lon="7.26873">
        <ele>999</ele>
        <time>2020-09-06T10:48:21.564Z</time>
      </trkpt>
      <trkpt lat="48.3855" lon="7.26874">
        <ele>999</ele>
        <time>2020-09-06T10:48:22.564Z</time>
      </trkpt>
      <trkpt lat="48.3855" lon="7.26875">
        <ele>999</ele>
        <time>2020-09-06T10:48:23.564Z</time>
      </trkpt>
      <trkpt lat="48.38549" lon="7.26876">
        <ele>999</ele>
        <time>2020-09-06T10:48:24.564Z</time>
      </trkpt>
      <trkpt lat="48.38549" lon="7.26879">
        <ele>999</ele>
        <time>2020-09-06T10:48:25.564Z</time>
      </trkpt>
      <trkpt lat="48.38549" lon="7.26882">
        <ele>999</ele>
        <time>2020-09-06T10:48:26.564Z</time>
      </trkpt>
      <trkpt lat="48.38548" lon="7.26886">
        <ele>998</ele>
        <time>2020-09-06T10:48:27.564Z</time>
      </trkpt>
      <trkpt lat="48.38547" lon="7.26888">
        <ele>998</ele>
        <time>2020-09-06T10:48:28.564Z</time>
      </trkpt>
      <trkpt lat="48.38546" lon="7.2689">
        <ele>998</ele>
        <time>2020-09-06T10:48:29.564Z</time>
      </trkpt>
      <trkpt lat="48.38545" lon="7.26891">
        <ele>998</ele>
        <time>2020-09-06T10:48:30.563Z</time>
      </trkpt>
      <trkpt lat="48.38545" lon="7.26893">
        <ele>998</ele>
        <time>2020-09-06T10:48:31.564Z</time>
      </trkpt>
      <trkpt lat="48.38545" lon="7.26894">
        <ele>997</ele>
        <time>2020-09-06T10:48:32.564Z</time>
      </trkpt>
      <trkpt lat="48.38544" lon="7.26896">
        <ele>997</ele>
        <time>2020-09-06T10:48:33.564Z</time>
      </trkpt>
      <trkpt lat="48.38544" lon="7.26898">
        <ele>997</ele>
        <time>2020-09-06T10:48:34.563Z</time>
      </trkpt>
      <trkpt lat="48.38544" lon="7.26899">
        <ele>997</ele>
        <time>2020-09-06T10:48:35.563Z</time>
      </trkpt>
      <trkpt lat="48.38544" lon="7.26901">
        <ele>997</ele>
        <time>2020-09-06T10:48:36.563Z</time>
      </trkpt>
      <trkpt lat="48.38544" lon="7.26903">
        <ele>997</ele>
        <time>2020-09-06T10:48:37.564Z</time>
      </trkpt>
      <trkpt lat="48.38543" lon="7.26904">
        <ele>997</ele>
        <time>2020-09-06T10:48:38.564Z</time>
      </trkpt>
      <trkpt lat="48.38543" lon="7.26906">
        <ele>997</ele>
        <time>2020-09-06T10:48:39.563Z</time>
      </trkpt>
      <trkpt lat="48.38543" lon="7.26907">
        <ele>996</ele>
        <time>2020-09-06T10:48:40.564Z</time>
      </trkpt>
      <trkpt lat="48.38544" lon="7.2691">
        <ele>996</ele>
        <time>2020-09-06T10:48:41.564Z</time>
      </trkpt>
      <trkpt lat="48.38544" lon="7.26912">
        <ele>996</ele>
        <time>2020-09-06T10:48:42.564Z</time>
      </trkpt>
      <trkpt lat="48.38545" lon="7.26914">
        <ele>996</ele>
        <time>2020-09-06T10:48:43.564Z</time>
      </trkpt>
      <trkpt lat="48.38545" lon="7.26915">
        <ele>996</ele>
        <time>2020-09-06T10:48:44.564Z</time>
      </trkpt>
      <trkpt lat="48.38545" lon="7.26916">
        <ele>996</ele>
        <time>2020-09-06T10:48:45.563Z</time>
      </trkpt>
      <trkpt lat="48.38545" lon="7.26918">
        <ele>996</ele>
        <time>2020-09-06T10:48:46.563Z</time>
      </trkpt>
      <trkpt lat="48.38545" lon="7.26919">
        <ele>996</ele>
        <time>2020-09-06T10:48:47.563Z</time>
      </trkpt>
      <trkpt lat="48.38545" lon="7.26921">
        <ele>996</ele>
        <time>2020-09-06T10:48:48.563Z</time>
      </trkpt>
      <trkpt lat="48.38545" lon="7.26923">
        <ele>996</ele>
        <time>2020-09-06T10:48:49.564Z</time>
      </trkpt>
      <trkpt lat="48.38544" lon="7.26924">
        <ele>996</ele>
        <time>2020-09-06T10:48:50.564Z</time>
      </trkpt>
      <trkpt lat="48.38544" lon="7.26925">
        <ele>996</ele>
        <time>2020-09-06T10:48:51.564Z</time>
      </trkpt>
      <trkpt lat="48.38544" lon="7.26926">
        <ele>996</ele>
        <time>2020-09-06T10:48:52.564Z</time>
      </trkpt>
      <trkpt lat="48.38543" lon="7.26928">
        <ele>996</ele>
        <time>2020-09-06T10:48:53.564Z</time>
      </trkpt>
      <trkpt lat="48.38543" lon="7.26929">
        <ele>996</ele>
        <time>2020-09-06T10:48:54.563Z</time>
      </trkpt>
      <trkpt lat="48.38542" lon="7.26932">
        <ele>995</ele>
        <time>2020-09-06T10:48:55.563Z</time>
      </trkpt>
      <trkpt lat="48.38543" lon="7.26934">
        <ele>995</ele>
        <time>2020-09-06T10:48:56.564Z</time>
      </trkpt>
      <trkpt lat="48.38543" lon="7.26936">
        <ele>995</ele>
        <time>2020-09-06T10:48:57.564Z</time>
      </trkpt>
      <trkpt lat="48.38543" lon="7.26937">
        <ele>994</ele>
        <time>2020-09-06T10:48:58.564Z</time>
      </trkpt>
      <trkpt lat="48.38543" lon="7.26939">
        <ele>994</ele>
        <time>2020-09-06T10:48:59.564Z</time>
      </trkpt>
      <trkpt lat="48.38543" lon="7.26939">
        <ele>994</ele>
        <time>2020-09-06T10:49:00.564Z</time>
      </trkpt>
      <trkpt lat="48.38543" lon="7.2694">
        <ele>993</ele>
        <time>2020-09-06T10:49:01.564Z</time>
      </trkpt>
      <trkpt lat="48.38544" lon="7.26941">
        <ele>993</ele>
        <time>2020-09-06T10:49:02.564Z</time>
      </trkpt>
      <trkpt lat="48.38544" lon="7.26943">
        <ele>992</ele>
        <time>2020-09-06T10:49:03.564Z</time>
      </trkpt>
      <trkpt lat="48.38544" lon="7.26945">
        <ele>992</ele>
        <time>2020-09-06T10:49:04.564Z</time>
      </trkpt>
      <trkpt lat="48.38544" lon="7.26947">
        <ele>991</ele>
        <time>2020-09-06T10:49:05.564Z</time>
      </trkpt>
      <trkpt lat="48.38544" lon="7.26949">
        <ele>991</ele>
        <time>2020-09-06T10:49:06.564Z</time>
      </trkpt>
      <trkpt lat="48.38544" lon="7.26951">
        <ele>991</ele>
        <time>2020-09-06T10:49:07.563Z</time>
      </trkpt>
      <trkpt lat="48.38544" lon="7.26954">
        <ele>991</ele>
        <time>2020-09-06T10:49:08.564Z</time>
      </trkpt>
      <trkpt lat="48.38544" lon="7.26956">
        <ele>991</ele>
        <time>2020-09-06T10:49:09.564Z</time>
      </trkpt>
      <trkpt lat="48.38544" lon="7.26958">
        <ele>991</ele>
        <time>2020-09-06T10:49:10.563Z</time>
      </trkpt>
      <trkpt lat="48.38544" lon="7.26959">
        <ele>991</ele>
        <time>2020-09-06T10:49:11.564Z</time>
      </trkpt>
      <trkpt lat="48.38544" lon="7.2696">
        <ele>990</ele>
        <time>2020-09-06T10:49:12.563Z</time>
      </trkpt>
      <trkpt lat="48.38544" lon="7.26962">
        <ele>990</ele>
        <time>2020-09-06T10:49:13.564Z</time>
      </trkpt>
      <trkpt lat="48.38544" lon="7.26963">
        <ele>990</ele>
        <time>2020-09-06T10:49:14.564Z</time>
      </trkpt>
      <trkpt lat="48.38544" lon="7.26965">
        <ele>990</ele>
        <time>2020-09-06T10:49:15.564Z</time>
      </trkpt>
      <trkpt lat="48.38544" lon="7.26967">
        <ele>989</ele>
        <time>2020-09-06T10:49:16.564Z</time>
      </trkpt>
      <trkpt lat="48.38545" lon="7.26969">
        <ele>989</ele>
        <time>2020-09-06T10:49:17.564Z</time>
      </trkpt>
      <trkpt lat="48.38545" lon="7.26971">
        <ele>989</ele>
        <time>2020-09-06T10:49:18.564Z</time>
      </trkpt>
      <trkpt lat="48.38546" lon="7.26973">
        <ele>988</ele>
        <time>2020-09-06T10:49:19.564Z</time>
      </trkpt>
      <trkpt lat="48.38546" lon="7.26975">
        <ele>988</ele>
        <time>2020-09-06T10:49:20.564Z</time>
      </trkpt>
      <trkpt lat="48.38546" lon="7.26977">
        <ele>988</ele>
        <time>2020-09-06T10:49:21.564Z</time>
      </trkpt>
      <trkpt lat="48.38546" lon="7.26978">
        <ele>988</ele>
        <time>2020-09-06T10:49:22.564Z</time>
      </trkpt>
      <trkpt lat="48.38545" lon="7.26979">
        <ele>988</ele>
        <time>2020-09-06T10:49:23.563Z</time>
      </trkpt>
      <trkpt lat="48.38544" lon="7.2698">
        <ele>988</ele>
        <time>2020-09-06T10:49:24.563Z</time>
      </trkpt>
      <trkpt lat="48.38545" lon="7.26982">
        <ele>988</ele>
        <time>2020-09-06T10:49:25.564Z</time>
      </trkpt>
      <trkpt lat="48.38546" lon="7.26984">
        <ele>988</ele>
        <time>2020-09-06T10:49:26.563Z</time>
      </trkpt>
      <trkpt lat="48.38546" lon="7.26985">
        <ele>987</ele>
        <time>2020-09-06T10:49:27.564Z</time>
      </trkpt>
      <trkpt lat="48.38547" lon="7.26987">
        <ele>987</ele>
        <time>2020-09-06T10:49:28.564Z</time>
      </trkpt>
      <trkpt lat="48.38547" lon="7.26988">
        <ele>987</ele>
        <time>2020-09-06T10:49:29.564Z</time>
      </trkpt>
      <trkpt lat="48.38548" lon="7.26989">
        <ele>987</ele>
        <time>2020-09-06T10:49:30.564Z</time>
      </trkpt>
      <trkpt lat="48.38548" lon="7.2699">
        <ele>987</ele>
        <time>2020-09-06T10:49:31.564Z</time>
      </trkpt>
      <trkpt lat="48.38549" lon="7.26991">
        <ele>987</ele>
        <time>2020-09-06T10:49:32.563Z</time>
      </trkpt>
      <trkpt lat="48.38549" lon="7.26993">
        <ele>987</ele>
        <time>2020-09-06T10:49:33.564Z</time>
      </trkpt>
      <trkpt lat="48.38549" lon="7.26994">
        <ele>987</ele>
        <time>2020-09-06T10:49:34.564Z</time>
      </trkpt>
      <trkpt lat="48.38549" lon="7.26995">
        <ele>987</ele>
        <time>2020-09-06T10:49:35.563Z</time>
      </trkpt>
      <trkpt lat="48.38549" lon="7.26997">
        <ele>987</ele>
        <time>2020-09-06T10:49:36.564Z</time>
      </trkpt>
      <trkpt lat="48.38549" lon="7.26999">
        <ele>987</ele>
        <time>2020-09-06T10:49:37.563Z</time>
      </trkpt>
      <trkpt lat="48.38549" lon="7.27001">
        <ele>987</ele>
        <time>2020-09-06T10:49:38.564Z</time>
      </trkpt>
      <trkpt lat="48.38548" lon="7.27004">
        <ele>987</ele>
        <time>2020-09-06T10:49:39.563Z</time>
      </trkpt>
      <trkpt lat="48.38547" lon="7.27005">
        <ele>987</ele>
        <time>2020-09-06T10:49:40.564Z</time>
      </trkpt>
      <trkpt lat="48.38547" lon="7.27005">
        <ele>987</ele>
        <time>2020-09-06T10:49:41.564Z</time>
      </trkpt>
      <trkpt lat="48.38547" lon="7.27006">
        <ele>987</ele>
        <time>2020-09-06T10:49:42.564Z</time>
      </trkpt>
      <trkpt lat="48.38547" lon="7.27006">
        <ele>987</ele>
        <time>2020-09-06T10:49:43.564Z</time>
      </trkpt>
      <trkpt lat="48.38548" lon="7.27007">
        <ele>987</ele>
        <time>2020-09-06T10:49:44.564Z</time>
      </trkpt>
      <trkpt lat="48.38548" lon="7.27009">
        <ele>986</ele>
        <time>2020-09-06T10:49:45.564Z</time>
      </trkpt>
      <trkpt lat="48.38547" lon="7.2701">
        <ele>986</ele>
        <time>2020-09-06T10:49:46.563Z</time>
      </trkpt>
      <trkpt lat="48.38547" lon="7.27012">
        <ele>986</ele>
        <time>2020-09-06T10:49:47.563Z</time>
      </trkpt>
      <trkpt lat="48.38546" lon="7.27014">
        <ele>986</ele>
        <time>2020-09-06T10:49:48.564Z</time>
      </trkpt>
      <trkpt lat="48.38546" lon="7.27015">
        <ele>986</ele>
        <time>2020-09-06T10:49:49.564Z</time>
      </trkpt>
      <trkpt lat="48.38545" lon="7.27016">
        <ele>986</ele>
        <time>2020-09-06T10:49:50.564Z</time>
      </trkpt>
      <trkpt lat="48.38545" lon="7.27017">
        <ele>986</ele>
        <time>2020-09-06T10:49:51.564Z</time>
      </trkpt>
      <trkpt lat="48.38545" lon="7.27018">
        <ele>986</ele>
        <time>2020-09-06T10:49:52.564Z</time>
      </trkpt>
      <trkpt lat="48.38545" lon="7.27019">
        <ele>986</ele>
        <time>2020-09-06T10:49:53.564Z</time>
      </trkpt>
      <trkpt lat="48.38545" lon="7.27021">
        <ele>985</ele>
        <time>2020-09-06T10:49:54.564Z</time>
      </trkpt>
      <trkpt lat="48.38545" lon="7.27022">
        <ele>985</ele>
        <time>2020-09-06T10:49:55.563Z</time>
      </trkpt>
      <trkpt lat="48.38545" lon="7.27023">
        <ele>984</ele>
        <time>2020-09-06T10:49:56.564Z</time>
      </trkpt>
      <trkpt lat="48.38546" lon="7.27024">
        <ele>984</ele>
        <time>2020-09-06T10:49:57.564Z</time>
      </trkpt>
      <trkpt lat="48.38546" lon="7.27024">
        <ele>984</ele>
        <time>2020-09-06T10:49:58.564Z</time>
      </trkpt>
      <trkpt lat="48.38546" lon="7.27025">
        <ele>983</ele>
        <time>2020-09-06T10:49:59.563Z</time>
      </trkpt>
      <trkpt lat="48.38547" lon="7.27027">
        <ele>983</ele>
        <time>2020-09-06T10:50:00.564Z</time>
      </trkpt>
      <trkpt lat="48.38548" lon="7.27028">
        <ele>983</ele>
        <time>2020-09-06T10:50:01.563Z</time>
      </trkpt>
      <trkpt lat="48.38548" lon="7.27029">
        <ele>982</ele>
        <time>2020-09-06T10:50:02.563Z</time>
      </trkpt>
      <trkpt lat="48.38548" lon="7.27029">
        <ele>982</ele>
        <time>2020-09-06T10:50:03.564Z</time>
      </trkpt>
      <trkpt lat="48.38548" lon="7.2703">
        <ele>981</ele>
        <time>2020-09-06T10:50:04.564Z</time>
      </trkpt>
      <trkpt lat="48.38549" lon="7.27032">
        <ele>981</ele>
        <time>2020-09-06T10:50:05.563Z</time>
      </trkpt>
      <trkpt lat="48.3855" lon="7.27034">
        <ele>981</ele>
        <time>2020-09-06T10:50:06.563Z</time>
      </trkpt>
      <trkpt lat="48.38552" lon="7.27038">
        <ele>981</ele>
        <time>2020-09-06T10:50:07.564Z</time>
      </trkpt>
      <trkpt lat="48.38553" lon="7.27041">
        <ele>981</ele>
        <time>2020-09-06T10:50:08.564Z</time>
      </trkpt>
      <trkpt lat="48.38553" lon="7.27042">
        <ele>981</ele>
        <time>2020-09-06T10:50:09.564Z</time>
      </trkpt>
      <trkpt lat="48.38552" lon="7.27043">
        <ele>981</ele>
        <time>2020-09-06T10:50:10.564Z</time>
      </trkpt>
      <trkpt lat="48.38551" lon="7.27044">
        <ele>981</ele>
        <time>2020-09-06T10:50:11.564Z</time>
      </trkpt>
      <trkpt lat="48.38551" lon="7.27044">
        <ele>981</ele>
        <time>2020-09-06T10:50:12.563Z</time>
      </trkpt>
      <trkpt lat="48.38551" lon="7.27046">
        <ele>981</ele>
        <time>2020-09-06T10:50:13.564Z</time>
      </trkpt>
      <trkpt lat="48.38551" lon="7.27047">
        <ele>981</ele>
        <time>2020-09-06T10:50:14.564Z</time>
      </trkpt>
      <trkpt lat="48.38551" lon="7.27048">
        <ele>981</ele>
        <time>2020-09-06T10:50:15.563Z</time>
      </trkpt>
      <trkpt lat="48.38551" lon="7.27049">
        <ele>981</ele>
        <time>2020-09-06T10:50:16.563Z</time>
      </trkpt>
      <trkpt lat="48.38551" lon="7.2705">
        <ele>980</ele>
        <time>2020-09-06T10:50:17.564Z</time>
      </trkpt>
      <trkpt lat="48.38551" lon="7.27051">
        <ele>980</ele>
        <time>2020-09-06T10:50:18.563Z</time>
      </trkpt>
      <trkpt lat="48.38552" lon="7.27053">
        <ele>980</ele>
        <time>2020-09-06T10:50:19.563Z</time>
      </trkpt>
      <trkpt lat="48.38553" lon="7.27055">
        <ele>979</ele>
        <time>2020-09-06T10:50:20.564Z</time>
      </trkpt>
      <trkpt lat="48.38554" lon="7.27057">
        <ele>979</ele>
        <time>2020-09-06T10:50:21.564Z</time>
      </trkpt>
      <trkpt lat="48.38555" lon="7.27059">
        <ele>978</ele>
        <time>2020-09-06T10:50:22.564Z</time>
      </trkpt>
      <trkpt lat="48.38555" lon="7.27062">
        <ele>978</ele>
        <time>2020-09-06T10:50:23.563Z</time>
      </trkpt>
      <trkpt lat="48.38555" lon="7.27066">
        <ele>978</ele>
        <time>2020-09-06T10:50:24.564Z</time>
      </trkpt>
      <trkpt lat="48.38554" lon="7.27068">
        <ele>977</ele>
        <time>2020-09-06T10:50:25.564Z</time>
      </trkpt>
      <trkpt lat="48.38553" lon="7.2707">
        <ele>977</ele>
        <time>2020-09-06T10:50:26.563Z</time>
      </trkpt>
      <trkpt lat="48.38553" lon="7.27071">
        <ele>977</ele>
        <time>2020-09-06T10:50:27.564Z</time>
      </trkpt>
      <trkpt lat="48.38552" lon="7.27072">
        <ele>977</ele>
        <time>2020-09-06T10:50:28.564Z</time>
      </trkpt>
      <trkpt lat="48.38552" lon="7.27074">
        <ele>977</ele>
        <time>2020-09-06T10:50:29.564Z</time>
      </trkpt>
      <trkpt lat="48.38551" lon="7.27075">
        <ele>977</ele>
        <time>2020-09-06T10:50:30.564Z</time>
      </trkpt>
      <trkpt lat="48.38551" lon="7.27078">
        <ele>977</ele>
        <time>2020-09-06T10:50:31.563Z</time>
      </trkpt>
      <trkpt lat="48.38551" lon="7.27079">
        <ele>977</ele>
        <time>2020-09-06T10:50:32.564Z</time>
      </trkpt>
      <trkpt lat="48.38551" lon="7.27081">
        <ele>977</ele>
        <time>2020-09-06T10:50:33.564Z</time>
      </trkpt>
      <trkpt lat="48.38551" lon="7.27082">
        <ele>978</ele>
        <time>2020-09-06T10:50:34.564Z</time>
      </trkpt>
      <trkpt lat="48.3855" lon="7.27083">
        <ele>978</ele>
        <time>2020-09-06T10:50:35.564Z</time>
      </trkpt>
      <trkpt lat="48.3855" lon="7.27084">
        <ele>978</ele>
        <time>2020-09-06T10:50:36.564Z</time>
      </trkpt>
      <trkpt lat="48.38549" lon="7.27085">
        <ele>979</ele>
        <time>2020-09-06T10:50:37.564Z</time>
      </trkpt>
      <trkpt lat="48.38548" lon="7.27086">
        <ele>979</ele>
        <time>2020-09-06T10:50:38.563Z</time>
      </trkpt>
      <trkpt lat="48.38547" lon="7.27087">
        <ele>979</ele>
        <time>2020-09-06T10:50:39.564Z</time>
      </trkpt>
      <trkpt lat="48.38546" lon="7.27089">
        <ele>979</ele>
        <time>2020-09-06T10:50:40.564Z</time>
      </trkpt>
      <trkpt lat="48.38545" lon="7.27089">
        <ele>979</ele>
        <time>2020-09-06T10:50:41.564Z</time>
      </trkpt>
      <trkpt lat="48.38546" lon="7.2709">
        <ele>979</ele>
        <time>2020-09-06T10:50:42.563Z</time>
      </trkpt>
      <trkpt lat="48.38547" lon="7.27093">
        <ele>979</ele>
        <time>2020-09-06T10:50:43.563Z</time>
      </trkpt>
      <trkpt lat="48.38548" lon="7.27095">
        <ele>979</ele>
        <time>2020-09-06T10:50:44.563Z</time>
      </trkpt>
      <trkpt lat="48.38548" lon="7.27099">
        <ele>979</ele>
        <time>2020-09-06T10:50:45.564Z</time>
      </trkpt>
      <trkpt lat="48.38549" lon="7.27102">
        <ele>979</ele>
        <time>2020-09-06T10:50:46.564Z</time>
      </trkpt>
      <trkpt lat="48.38549" lon="7.27105">
        <ele>979</ele>
        <time>2020-09-06T10:50:47.564Z</time>
      </trkpt>
      <trkpt lat="48.38548" lon="7.27108">
        <ele>979</ele>
        <time>2020-09-06T10:50:48.564Z</time>
      </trkpt>
      <trkpt lat="48.38549" lon="7.27111">
        <ele>979</ele>
        <time>2020-09-06T10:50:49.564Z</time>
      </trkpt>
      <trkpt lat="48.38549" lon="7.27114">
        <ele>979</ele>
        <time>2020-09-06T10:50:50.564Z</time>
      </trkpt>
      <trkpt lat="48.3855" lon="7.27116">
        <ele>979</ele>
        <time>2020-09-06T10:50:51.564Z</time>
      </trkpt>
      <trkpt lat="48.3855" lon="7.27118">
        <ele>979</ele>
        <time>2020-09-06T10:50:52.564Z</time>
      </trkpt>
      <trkpt lat="48.38551" lon="7.2712">
        <ele>979</ele>
        <time>2020-09-06T10:50:53.564Z</time>
      </trkpt>
      <trkpt lat="48.38551" lon="7.27122">
        <ele>978</ele>
        <time>2020-09-06T10:50:54.563Z</time>
      </trkpt>
      <trkpt lat="48.38551" lon="7.27124">
        <ele>978</ele>
        <time>2020-09-06T10:50:55.563Z</time>
      </trkpt>
      <trkpt lat="48.38551" lon="7.27125">
        <ele>978</ele>
        <time>2020-09-06T10:50:56.564Z</time>
      </trkpt>
      <trkpt lat="48.38551" lon="7.27127">
        <ele>977</ele>
        <time>2020-09-06T10:50:57.564Z</time>
      </trkpt>
      <trkpt lat="48.38551" lon="7.27128">
        <ele>977</ele>
        <time>2020-09-06T10:50:58.564Z</time>
      </trkpt>
      <trkpt lat="48.38551" lon="7.27129">
        <ele>977</ele>
        <time>2020-09-06T10:50:59.564Z</time>
      </trkpt>
      <trkpt lat="48.38551" lon="7.27132">
        <ele>977</ele>
        <time>2020-09-06T10:51:00.564Z</time>
      </trkpt>
      <trkpt lat="48.3855" lon="7.27135">
        <ele>977</ele>
        <time>2020-09-06T10:51:01.564Z</time>
      </trkpt>
      <trkpt lat="48.3855" lon="7.27137">
        <ele>977</ele>
        <time>2020-09-06T10:51:02.563Z</time>
      </trkpt>
      <trkpt lat="48.3855" lon="7.27139">
        <ele>977</ele>
        <time>2020-09-06T10:51:03.563Z</time>
      </trkpt>
      <trkpt lat="48.38549" lon="7.27141">
        <ele>977</ele>
        <time>2020-09-06T10:51:04.563Z</time>
      </trkpt>
      <trkpt lat="48.38548" lon="7.27143">
        <ele>977</ele>
        <time>2020-09-06T10:51:05.563Z</time>
      </trkpt>
      <trkpt lat="48.38548" lon="7.27145">
        <ele>976</ele>
        <time>2020-09-06T10:51:06.563Z</time>
      </trkpt>
      <trkpt lat="48.38548" lon="7.27147">
        <ele>976</ele>
        <time>2020-09-06T10:51:07.563Z</time>
      </trkpt>
      <trkpt lat="48.38548" lon="7.27149">
        <ele>976</ele>
        <time>2020-09-06T10:51:08.563Z</time>
      </trkpt>
      <trkpt lat="48.38547" lon="7.2715">
        <ele>976</ele>
        <time>2020-09-06T10:51:09.563Z</time>
      </trkpt>
      <trkpt lat="48.38546" lon="7.27152">
        <ele>976</ele>
        <time>2020-09-06T10:51:10.564Z</time>
      </trkpt>
      <trkpt lat="48.38546" lon="7.27154">
        <ele>976</ele>
        <time>2020-09-06T10:51:11.564Z</time>
      </trkpt>
      <trkpt lat="48.38545" lon="7.27157">
        <ele>976</ele>
        <time>2020-09-06T10:51:12.564Z</time>
      </trkpt>
      <trkpt lat="48.38544" lon="7.27158">
        <ele>976</ele>
        <time>2020-09-06T10:51:13.564Z</time>
      </trkpt>
      <trkpt lat="48.38543" lon="7.2716">
        <ele>976</ele>
        <time>2020-09-06T10:51:14.564Z</time>
      </trkpt>
      <trkpt lat="48.38542" lon="7.27162">
        <ele>976</ele>
        <time>2020-09-06T10:51:15.564Z</time>
      </trkpt>
      <trkpt lat="48.38542" lon="7.27164">
        <ele>976</ele>
        <time>2020-09-06T10:51:16.564Z</time>
      </trkpt>
      <trkpt lat="48.38541" lon="7.27167">
        <ele>976</ele>
        <time>2020-09-06T10:51:17.564Z</time>
      </trkpt>
      <trkpt lat="48.3854" lon="7.2717">
        <ele>976</ele>
        <time>2020-09-06T10:51:18.564Z</time>
      </trkpt>
      <trkpt lat="48.3854" lon="7.27172">
        <ele>976</ele>
        <time>2020-09-06T10:51:19.564Z</time>
      </trkpt>
      <trkpt lat="48.3854" lon="7.27173">
        <ele>976</ele>
        <time>2020-09-06T10:51:20.564Z</time>
      </trkpt>
      <trkpt lat="48.3854" lon="7.27174">
        <ele>976</ele>
        <time>2020-09-06T10:51:21.563Z</time>
      </trkpt>
      <trkpt lat="48.3854" lon="7.27175">
        <ele>976</ele>
        <time>2020-09-06T10:51:22.564Z</time>
      </trkpt>
      <trkpt lat="48.3854" lon="7.27177">
        <ele>976</ele>
        <time>2020-09-06T10:51:23.564Z</time>
      </trkpt>
      <trkpt lat="48.3854" lon="7.27179">
        <ele>976</ele>
        <time>2020-09-06T10:51:24.564Z</time>
      </trkpt>
      <trkpt lat="48.38539" lon="7.27181">
        <ele>977</ele>
        <time>2020-09-06T10:51:25.564Z</time>
      </trkpt>
      <trkpt lat="48.38539" lon="7.27182">
        <ele>977</ele>
        <time>2020-09-06T10:51:26.564Z</time>
      </trkpt>
      <trkpt lat="48.3854" lon="7.27183">
        <ele>977</ele>
        <time>2020-09-06T10:51:27.564Z</time>
      </trkpt>
      <trkpt lat="48.38539" lon="7.27184">
        <ele>977</ele>
        <time>2020-09-06T10:51:28.563Z</time>
      </trkpt>
      <trkpt lat="48.38539" lon="7.27184">
        <ele>977</ele>
        <time>2020-09-06T10:51:29.564Z</time>
      </trkpt>
      <trkpt lat="48.38538" lon="7.27185">
        <ele>977</ele>
        <time>2020-09-06T10:51:30.564Z</time>
      </trkpt>
      <trkpt lat="48.38538" lon="7.27186">
        <ele>977</ele>
        <time>2020-09-06T10:51:31.564Z</time>
      </trkpt>
      <trkpt lat="48.38537" lon="7.27188">
        <ele>977</ele>
        <time>2020-09-06T10:51:32.563Z</time>
      </trkpt>
      <trkpt lat="48.38537" lon="7.27189">
        <ele>977</ele>
        <time>2020-09-06T10:51:33.563Z</time>
      </trkpt>
      <trkpt lat="48.38537" lon="7.27191">
        <ele>977</ele>
        <time>2020-09-06T10:51:34.564Z</time>
      </trkpt>
      <trkpt lat="48.38537" lon="7.27194">
        <ele>977</ele>
        <time>2020-09-06T10:51:35.564Z</time>
      </trkpt>
      <trkpt lat="48.38537" lon="7.27198">
        <ele>978</ele>
        <time>2020-09-06T10:51:36.564Z</time>
      </trkpt>
      <trkpt lat="48.38536" lon="7.272">
        <ele>978</ele>
        <time>2020-09-06T10:52:28.667Z</time>
      </trkpt>
      <trkpt lat="48.38536" lon="7.27202">
        <ele>978</ele>
        <time>2020-09-06T10:53:19.570Z</time>
      </trkpt>
      <trkpt lat="48.38536" lon="7.27204">
        <ele>978</ele>
        <time>2020-09-06T10:53:20.570Z</time>
      </trkpt>
      <trkpt lat="48.38536" lon="7.27206">
        <ele>978</ele>
        <time>2020-09-06T10:53:21.570Z</time>
      </trkpt>
      <trkpt lat="48.38536" lon="7.27207">
        <ele>978</ele>
        <time>2020-09-06T10:53:22.570Z</time>
      </trkpt>
      <trkpt lat="48.38536" lon="7.27209">
        <ele>978</ele>
        <time>2020-09-06T10:53:23.570Z</time>
      </trkpt>
      <trkpt lat="48.38536" lon="7.2721">
        <ele>978</ele>
        <time>2020-09-06T10:53:24.570Z</time>
      </trkpt>
      <trkpt lat="48.38536" lon="7.27212">
        <ele>977</ele>
        <time>2020-09-06T10:53:25.569Z</time>
      </trkpt>
      <trkpt lat="48.38536" lon="7.27213">
        <ele>977</ele>
        <time>2020-09-06T10:53:26.570Z</time>
      </trkpt>
      <trkpt lat="48.38535" lon="7.27219">
        <ele>977</ele>
        <time>2020-09-06T10:53:27.570Z</time>
      </trkpt>
      <trkpt lat="48.38534" lon="7.2722">
        <ele>977</ele>
        <time>2020-09-06T10:53:28.570Z</time>
      </trkpt>
      <trkpt lat="48.38534" lon="7.27221">
        <ele>976</ele>
        <time>2020-09-06T10:53:29.569Z</time>
      </trkpt>
      <trkpt lat="48.38533" lon="7.27224">
        <ele>976</ele>
        <time>2020-09-06T10:53:30.570Z</time>
      </trkpt>
      <trkpt lat="48.38533" lon="7.27226">
        <ele>976</ele>
        <time>2020-09-06T10:53:31.570Z</time>
      </trkpt>
      <trkpt lat="48.38532" lon="7.27228">
        <ele>976</ele>
        <time>2020-09-06T10:53:32.570Z</time>
      </trkpt>
      <trkpt lat="48.38532" lon="7.2723">
        <ele>975</ele>
        <time>2020-09-06T10:53:33.569Z</time>
      </trkpt>
      <trkpt lat="48.38531" lon="7.27231">
        <ele>975</ele>
        <time>2020-09-06T10:53:34.570Z</time>
      </trkpt>
      <trkpt lat="48.3853" lon="7.27232">
        <ele>974</ele>
        <time>2020-09-06T10:53:35.570Z</time>
      </trkpt>
      <trkpt lat="48.3853" lon="7.27234">
        <ele>974</ele>
        <time>2020-09-06T10:53:36.570Z</time>
      </trkpt>
      <trkpt lat="48.38531" lon="7.27236">
        <ele>974</ele>
        <time>2020-09-06T10:53:37.569Z</time>
      </trkpt>
      <trkpt lat="48.38531" lon="7.27238">
        <ele>973</ele>
        <time>2020-09-06T10:53:38.570Z</time>
      </trkpt>
      <trkpt lat="48.38531" lon="7.27239">
        <ele>972</ele>
        <time>2020-09-06T10:53:39.570Z</time>
      </trkpt>
      <trkpt lat="48.38531" lon="7.27241">
        <ele>971</ele>
        <time>2020-09-06T10:53:40.570Z</time>
      </trkpt>
      <trkpt lat="48.38531" lon="7.27242">
        <ele>971</ele>
        <time>2020-09-06T10:53:41.570Z</time>
      </trkpt>
      <trkpt lat="48.38531" lon="7.27244">
        <ele>970</ele>
        <time>2020-09-06T10:53:42.570Z</time>
      </trkpt>
      <trkpt lat="48.38531" lon="7.27245">
        <ele>970</ele>
        <time>2020-09-06T10:53:43.570Z</time>
      </trkpt>
      <trkpt lat="48.38531" lon="7.27247">
        <ele>970</ele>
        <time>2020-09-06T10:53:44.570Z</time>
      </trkpt>
      <trkpt lat="48.38531" lon="7.27249">
        <ele>970</ele>
        <time>2020-09-06T10:53:45.570Z</time>
      </trkpt>
      <trkpt lat="48.38531" lon="7.2725">
        <ele>970</ele>
        <time>2020-09-06T10:53:46.569Z</time>
      </trkpt>
      <trkpt lat="48.3853" lon="7.27252">
        <ele>970</ele>
        <time>2020-09-06T10:53:47.570Z</time>
      </trkpt>
      <trkpt lat="48.38531" lon="7.27255">
        <ele>970</ele>
        <time>2020-09-06T10:53:48.570Z</time>
      </trkpt>
      <trkpt lat="48.38531" lon="7.27257">
        <ele>969</ele>
        <time>2020-09-06T10:53:49.570Z</time>
      </trkpt>
      <trkpt lat="48.38531" lon="7.27258">
        <ele>969</ele>
        <time>2020-09-06T10:53:50.570Z</time>
      </trkpt>
      <trkpt lat="48.3853" lon="7.27259">
        <ele>969</ele>
        <time>2020-09-06T10:53:51.570Z</time>
      </trkpt>
      <trkpt lat="48.38531" lon="7.27261">
        <ele>969</ele>
        <time>2020-09-06T10:53:52.570Z</time>
      </trkpt>
      <trkpt lat="48.38532" lon="7.27266">
        <ele>969</ele>
        <time>2020-09-06T10:53:53.570Z</time>
      </trkpt>
      <trkpt lat="48.38531" lon="7.27268">
        <ele>969</ele>
        <time>2020-09-06T10:53:54.569Z</time>
      </trkpt>
      <trkpt lat="48.3853" lon="7.27273">
        <ele>969</ele>
        <time>2020-09-06T10:53:55.570Z</time>
      </trkpt>
      <trkpt lat="48.38529" lon="7.27274">
        <ele>969</ele>
        <time>2020-09-06T10:53:56.570Z</time>
      </trkpt>
      <trkpt lat="48.38529" lon="7.27276">
        <ele>969</ele>
        <time>2020-09-06T10:53:57.570Z</time>
      </trkpt>
      <trkpt lat="48.38528" lon="7.27278">
        <ele>969</ele>
        <time>2020-09-06T10:53:58.569Z</time>
      </trkpt>
      <trkpt lat="48.38528" lon="7.2728">
        <ele>969</ele>
        <time>2020-09-06T10:53:59.570Z</time>
      </trkpt>
      <trkpt lat="48.38527" lon="7.27282">
        <ele>969</ele>
        <time>2020-09-06T10:54:00.570Z</time>
      </trkpt>
      <trkpt lat="48.38527" lon="7.27283">
        <ele>969</ele>
        <time>2020-09-06T10:54:01.569Z</time>
      </trkpt>
      <trkpt lat="48.38527" lon="7.27285">
        <ele>969</ele>
        <time>2020-09-06T10:54:02.570Z</time>
      </trkpt>
      <trkpt lat="48.38526" lon="7.27286">
        <ele>968</ele>
        <time>2020-09-06T10:54:03.570Z</time>
      </trkpt>
      <trkpt lat="48.38527" lon="7.27288">
        <ele>968</ele>
        <time>2020-09-06T10:54:04.570Z</time>
      </trkpt>
      <trkpt lat="48.38527" lon="7.2729">
        <ele>968</ele>
        <time>2020-09-06T10:54:05.570Z</time>
      </trkpt>
      <trkpt lat="48.38527" lon="7.27293">
        <ele>968</ele>
        <time>2020-09-06T10:54:06.569Z</time>
      </trkpt>
      <trkpt lat="48.38526" lon="7.27297">
        <ele>967</ele>
        <time>2020-09-06T10:54:07.570Z</time>
      </trkpt>
      <trkpt lat="48.38525" lon="7.273">
        <ele>967</ele>
        <time>2020-09-06T10:54:08.570Z</time>
      </trkpt>
      <trkpt lat="48.38524" lon="7.27303">
        <ele>967</ele>
        <time>2020-09-06T10:54:09.570Z</time>
      </trkpt>
      <trkpt lat="48.38524" lon="7.27306">
        <ele>967</ele>
        <time>2020-09-06T10:54:10.570Z</time>
      </trkpt>
      <trkpt lat="48.38523" lon="7.27308">
        <ele>966</ele>
        <time>2020-09-06T10:54:11.570Z</time>
      </trkpt>
      <trkpt lat="48.38523" lon="7.2731">
        <ele>966</ele>
        <time>2020-09-06T10:54:12.570Z</time>
      </trkpt>
      <trkpt lat="48.38523" lon="7.27312">
        <ele>966</ele>
        <time>2020-09-06T10:54:13.570Z</time>
      </trkpt>
      <trkpt lat="48.38523" lon="7.27314">
        <ele>965</ele>
        <time>2020-09-06T10:54:14.570Z</time>
      </trkpt>
      <trkpt lat="48.38522" lon="7.27315">
        <ele>965</ele>
        <time>2020-09-06T10:54:15.570Z</time>
      </trkpt>
      <trkpt lat="48.38522" lon="7.27316">
        <ele>966</ele>
        <time>2020-09-06T10:54:16.569Z</time>
      </trkpt>
      <trkpt lat="48.3852" lon="7.27317">
        <ele>966</ele>
        <time>2020-09-06T10:54:17.570Z</time>
      </trkpt>
      <trkpt lat="48.3852" lon="7.27318">
        <ele>966</ele>
        <time>2020-09-06T10:54:18.570Z</time>
      </trkpt>
      <trkpt lat="48.38519" lon="7.27319">
        <ele>966</ele>
        <time>2020-09-06T10:54:19.569Z</time>
      </trkpt>
      <trkpt lat="48.38519" lon="7.2732">
        <ele>966</ele>
        <time>2020-09-06T10:54:20.570Z</time>
      </trkpt>
      <trkpt lat="48.38519" lon="7.27321">
        <ele>966</ele>
        <time>2020-09-06T10:54:21.570Z</time>
      </trkpt>
      <trkpt lat="48.38519" lon="7.27322">
        <ele>966</ele>
        <time>2020-09-06T10:54:22.570Z</time>
      </trkpt>
      <trkpt lat="48.38519" lon="7.27324">
        <ele>966</ele>
        <time>2020-09-06T10:54:23.570Z</time>
      </trkpt>
      <trkpt lat="48.38519" lon="7.27326">
        <ele>966</ele>
        <time>2020-09-06T10:54:24.570Z</time>
      </trkpt>
      <trkpt lat="48.38518" lon="7.27327">
        <ele>966</ele>
        <time>2020-09-06T10:54:25.570Z</time>
      </trkpt>
      <trkpt lat="48.38518" lon="7.27328">
        <ele>966</ele>
        <time>2020-09-06T10:54:26.569Z</time>
      </trkpt>
      <trkpt lat="48.38517" lon="7.27329">
        <ele>966</ele>
        <time>2020-09-06T10:54:27.570Z</time>
      </trkpt>
      <trkpt lat="48.38517" lon="7.27331">
        <ele>966</ele>
        <time>2020-09-06T10:54:28.570Z</time>
      </trkpt>
      <trkpt lat="48.38517" lon="7.27333">
        <ele>966</ele>
        <time>2020-09-06T10:54:29.570Z</time>
      </trkpt>
      <trkpt lat="48.38516" lon="7.27335">
        <ele>966</ele>
        <time>2020-09-06T10:54:30.569Z</time>
      </trkpt>
      <trkpt lat="48.38515" lon="7.27337">
        <ele>966</ele>
        <time>2020-09-06T10:54:31.569Z</time>
      </trkpt>
      <trkpt lat="48.38514" lon="7.27338">
        <ele>966</ele>
        <time>2020-09-06T10:54:32.569Z</time>
      </trkpt>
      <trkpt lat="48.38512" lon="7.2734">
        <ele>966</ele>
        <time>2020-09-06T10:54:33.570Z</time>
      </trkpt>
      <trkpt lat="48.38511" lon="7.27342">
        <ele>966</ele>
        <time>2020-09-06T10:54:34.570Z</time>
      </trkpt>
      <trkpt lat="48.3851" lon="7.27343">
        <ele>966</ele>
        <time>2020-09-06T10:54:35.570Z</time>
      </trkpt>
      <trkpt lat="48.38509" lon="7.27345">
        <ele>965</ele>
        <time>2020-09-06T10:54:36.570Z</time>
      </trkpt>
      <trkpt lat="48.38508" lon="7.27347">
        <ele>965</ele>
        <time>2020-09-06T10:54:37.569Z</time>
      </trkpt>
      <trkpt lat="48.38507" lon="7.27349">
        <ele>965</ele>
        <time>2020-09-06T10:54:38.570Z</time>
      </trkpt>
      <trkpt lat="48.38507" lon="7.27351">
        <ele>965</ele>
        <time>2020-09-06T10:54:39.570Z</time>
      </trkpt>
      <trkpt lat="48.38506" lon="7.27354">
        <ele>965</ele>
        <time>2020-09-06T10:54:40.570Z</time>
      </trkpt>
      <trkpt lat="48.38505" lon="7.27356">
        <ele>965</ele>
        <time>2020-09-06T10:54:41.569Z</time>
      </trkpt>
      <trkpt lat="48.38504" lon="7.27357">
        <ele>966</ele>
        <time>2020-09-06T10:54:42.570Z</time>
      </trkpt>
      <trkpt lat="48.38502" lon="7.27358">
        <ele>966</ele>
        <time>2020-09-06T10:54:43.570Z</time>
      </trkpt>
      <trkpt lat="48.38502" lon="7.2736">
        <ele>965</ele>
        <time>2020-09-06T10:54:44.570Z</time>
      </trkpt>
      <trkpt lat="48.38501" lon="7.27362">
        <ele>965</ele>
        <time>2020-09-06T10:54:45.570Z</time>
      </trkpt>
      <trkpt lat="48.38501" lon="7.27364">
        <ele>965</ele>
        <time>2020-09-06T10:54:46.570Z</time>
      </trkpt>
      <trkpt lat="48.385" lon="7.27367">
        <ele>966</ele>
        <time>2020-09-06T10:54:47.570Z</time>
      </trkpt>
      <trkpt lat="48.385" lon="7.27369">
        <ele>966</ele>
        <time>2020-09-06T10:54:48.570Z</time>
      </trkpt>
      <trkpt lat="48.38499" lon="7.27371">
        <ele>966</ele>
        <time>2020-09-06T10:54:49.569Z</time>
      </trkpt>
      <trkpt lat="48.38499" lon="7.27372">
        <ele>966</ele>
        <time>2020-09-06T10:54:50.570Z</time>
      </trkpt>
      <trkpt lat="48.38498" lon="7.27373">
        <ele>967</ele>
        <time>2020-09-06T10:54:51.569Z</time>
      </trkpt>
      <trkpt lat="48.38497" lon="7.27374">
        <ele>967</ele>
        <time>2020-09-06T10:54:52.570Z</time>
      </trkpt>
      <trkpt lat="48.38496" lon="7.27375">
        <ele>967</ele>
        <time>2020-09-06T10:54:53.570Z</time>
      </trkpt>
      <trkpt lat="48.38495" lon="7.27377">
        <ele>967</ele>
        <time>2020-09-06T10:54:54.570Z</time>
      </trkpt>
      <trkpt lat="48.38494" lon="7.27379">
        <ele>967</ele>
        <time>2020-09-06T10:54:55.570Z</time>
      </trkpt>
      <trkpt lat="48.38493" lon="7.27381">
        <ele>967</ele>
        <time>2020-09-06T10:54:56.570Z</time>
      </trkpt>
      <trkpt lat="48.38492" lon="7.27383">
        <ele>967</ele>
        <time>2020-09-06T10:54:57.570Z</time>
      </trkpt>
      <trkpt lat="48.3849" lon="7.27385">
        <ele>966</ele>
        <time>2020-09-06T10:54:58.570Z</time>
      </trkpt>
      <trkpt lat="48.38488" lon="7.27388">
        <ele>966</ele>
        <time>2020-09-06T10:54:59.570Z</time>
      </trkpt>
      <trkpt lat="48.38487" lon="7.2739">
        <ele>965</ele>
        <time>2020-09-06T10:55:00.569Z</time>
      </trkpt>
      <trkpt lat="48.38487" lon="7.27392">
        <ele>965</ele>
        <time>2020-09-06T10:55:01.570Z</time>
      </trkpt>
      <trkpt lat="48.38486" lon="7.27394">
        <ele>965</ele>
        <time>2020-09-06T10:55:02.569Z</time>
      </trkpt>
      <trkpt lat="48.38486" lon="7.27396">
        <ele>965</ele>
        <time>2020-09-06T10:55:03.570Z</time>
      </trkpt>
      <trkpt lat="48.38486" lon="7.27398">
        <ele>964</ele>
        <time>2020-09-06T10:55:04.570Z</time>
      </trkpt>
      <trkpt lat="48.38485" lon="7.27399">
        <ele>964</ele>
        <time>2020-09-06T10:55:05.570Z</time>
      </trkpt>
      <trkpt lat="48.38485" lon="7.274">
        <ele>964</ele>
        <time>2020-09-06T10:55:06.570Z</time>
      </trkpt>
      <trkpt lat="48.38483" lon="7.274">
        <ele>964</ele>
        <time>2020-09-06T10:55:07.569Z</time>
      </trkpt>
      <trkpt lat="48.38482" lon="7.27402">
        <ele>963</ele>
        <time>2020-09-06T10:55:08.570Z</time>
      </trkpt>
      <trkpt lat="48.38481" lon="7.27404">
        <ele>963</ele>
        <time>2020-09-06T10:55:09.569Z</time>
      </trkpt>
      <trkpt lat="48.38481" lon="7.27405">
        <ele>962</ele>
        <time>2020-09-06T10:55:10.570Z</time>
      </trkpt>
      <trkpt lat="48.3848" lon="7.27407">
        <ele>961</ele>
        <time>2020-09-06T10:55:11.570Z</time>
      </trkpt>
      <trkpt lat="48.38478" lon="7.27408">
        <ele>961</ele>
        <time>2020-09-06T10:55:12.570Z</time>
      </trkpt>
      <trkpt lat="48.38476" lon="7.27408">
        <ele>960</ele>
        <time>2020-09-06T10:55:13.570Z</time>
      </trkpt>
      <trkpt lat="48.38475" lon="7.27409">
        <ele>960</ele>
        <time>2020-09-06T10:55:14.570Z</time>
      </trkpt>
      <trkpt lat="48.38474" lon="7.27411">
        <ele>960</ele>
        <time>2020-09-06T10:55:15.569Z</time>
      </trkpt>
      <trkpt lat="48.38474" lon="7.27411">
        <ele>959</ele>
        <time>2020-09-06T10:55:16.570Z</time>
      </trkpt>
      <trkpt lat="48.38473" lon="7.27413">
        <ele>959</ele>
        <time>2020-09-06T10:55:17.569Z</time>
      </trkpt>
      <trkpt lat="48.38472" lon="7.27414">
        <ele>959</ele>
        <time>2020-09-06T10:55:18.569Z</time>
      </trkpt>
      <trkpt lat="48.38471" lon="7.27415">
        <ele>958</ele>
        <time>2020-09-06T10:55:19.569Z</time>
      </trkpt>
      <trkpt lat="48.3847" lon="7.27417">
        <ele>958</ele>
        <time>2020-09-06T10:55:20.570Z</time>
      </trkpt>
      <trkpt lat="48.3847" lon="7.27418">
        <ele>958</ele>
        <time>2020-09-06T10:55:21.570Z</time>
      </trkpt>
      <trkpt lat="48.38469" lon="7.27419">
        <ele>958</ele>
        <time>2020-09-06T10:55:22.570Z</time>
      </trkpt>
      <trkpt lat="48.38467" lon="7.27419">
        <ele>958</ele>
        <time>2020-09-06T10:55:23.570Z</time>
      </trkpt>
      <trkpt lat="48.38466" lon="7.27419">
        <ele>957</ele>
        <time>2020-09-06T10:55:24.569Z</time>
      </trkpt>
      <trkpt lat="48.38466" lon="7.2742">
        <ele>957</ele>
        <time>2020-09-06T10:55:25.569Z</time>
      </trkpt>
      <trkpt lat="48.38465" lon="7.27421">
        <ele>957</ele>
        <time>2020-09-06T10:55:26.570Z</time>
      </trkpt>
      <trkpt lat="48.38464" lon="7.27424">
        <ele>957</ele>
        <time>2020-09-06T10:55:27.570Z</time>
      </trkpt>
      <trkpt lat="48.38464" lon="7.27427">
        <ele>957</ele>
        <time>2020-09-06T10:55:28.570Z</time>
      </trkpt>
      <trkpt lat="48.38463" lon="7.2743">
        <ele>957</ele>
        <time>2020-09-06T10:55:29.570Z</time>
      </trkpt>
      <trkpt lat="48.38462" lon="7.2743">
        <ele>957</ele>
        <time>2020-09-06T10:55:30.570Z</time>
      </trkpt>
      <trkpt lat="48.38461" lon="7.2743">
        <ele>957</ele>
        <time>2020-09-06T10:55:31.570Z</time>
      </trkpt>
      <trkpt lat="48.3846" lon="7.2743">
        <ele>957</ele>
        <time>2020-09-06T10:55:32.570Z</time>
      </trkpt>
      <trkpt lat="48.38459" lon="7.27431">
        <ele>957</ele>
        <time>2020-09-06T10:55:33.570Z</time>
      </trkpt>
      <trkpt lat="48.38458" lon="7.27433">
        <ele>957</ele>
        <time>2020-09-06T10:55:34.570Z</time>
      </trkpt>
      <trkpt lat="48.38457" lon="7.27433">
        <ele>956</ele>
        <time>2020-09-06T10:55:35.569Z</time>
      </trkpt>
      <trkpt lat="48.38456" lon="7.27433">
        <ele>956</ele>
        <time>2020-09-06T10:55:36.570Z</time>
      </trkpt>
      <trkpt lat="48.38455" lon="7.27434">
        <ele>956</ele>
        <time>2020-09-06T10:55:37.569Z</time>
      </trkpt>
      <trkpt lat="48.38454" lon="7.27434">
        <ele>956</ele>
        <time>2020-09-06T10:55:38.569Z</time>
      </trkpt>
      <trkpt lat="48.38452" lon="7.27436">
        <ele>955</ele>
        <time>2020-09-06T10:55:39.569Z</time>
      </trkpt>
      <trkpt lat="48.38451" lon="7.27438">
        <ele>955</ele>
        <time>2020-09-06T10:55:40.569Z</time>
      </trkpt>
      <trkpt lat="48.3845" lon="7.27439">
        <ele>954</ele>
        <time>2020-09-06T10:55:41.569Z</time>
      </trkpt>
      <trkpt lat="48.38449" lon="7.27441">
        <ele>954</ele>
        <time>2020-09-06T10:55:42.569Z</time>
      </trkpt>
      <trkpt lat="48.38448" lon="7.27441">
        <ele>954</ele>
        <time>2020-09-06T10:55:43.569Z</time>
      </trkpt>
      <trkpt lat="48.38447" lon="7.27442">
        <ele>954</ele>
        <time>2020-09-06T10:55:44.570Z</time>
      </trkpt>
      <trkpt lat="48.38445" lon="7.27443">
        <ele>954</ele>
        <time>2020-09-06T10:55:45.570Z</time>
      </trkpt>
      <trkpt lat="48.38444" lon="7.27444">
        <ele>954</ele>
        <time>2020-09-06T10:55:46.570Z</time>
      </trkpt>
      <trkpt lat="48.38443" lon="7.27446">
        <ele>954</ele>
        <time>2020-09-06T10:55:47.569Z</time>
      </trkpt>
      <trkpt lat="48.38442" lon="7.27447">
        <ele>954</ele>
        <time>2020-09-06T10:55:48.569Z</time>
      </trkpt>
      <trkpt lat="48.38441" lon="7.27449">
        <ele>954</ele>
        <time>2020-09-06T10:55:49.569Z</time>
      </trkpt>
      <trkpt lat="48.3844" lon="7.27449">
        <ele>954</ele>
        <time>2020-09-06T10:55:50.569Z</time>
      </trkpt>
      <trkpt lat="48.3844" lon="7.2745">
        <ele>955</ele>
        <time>2020-09-06T10:55:51.570Z</time>
      </trkpt>
      <trkpt lat="48.3844" lon="7.27451">
        <ele>955</ele>
        <time>2020-09-06T10:55:52.570Z</time>
      </trkpt>
      <trkpt lat="48.38438" lon="7.27453">
        <ele>956</ele>
        <time>2020-09-06T10:55:53.570Z</time>
      </trkpt>
      <trkpt lat="48.38438" lon="7.27453">
        <ele>956</ele>
        <time>2020-09-06T10:55:54.570Z</time>
      </trkpt>
      <trkpt lat="48.38438" lon="7.27454">
        <ele>956</ele>
        <time>2020-09-06T10:55:55.569Z</time>
      </trkpt>
      <trkpt lat="48.38438" lon="7.27455">
        <ele>956</ele>
        <time>2020-09-06T10:55:56.569Z</time>
      </trkpt>
      <trkpt lat="48.38438" lon="7.27456">
        <ele>956</ele>
        <time>2020-09-06T10:55:57.569Z</time>
      </trkpt>
      <trkpt lat="48.38438" lon="7.27455">
        <ele>956</ele>
        <time>2020-09-06T10:55:58.570Z</time>
      </trkpt>
      <trkpt lat="48.38437" lon="7.27454">
        <ele>956</ele>
        <time>2020-09-06T10:55:59.570Z</time>
      </trkpt>
      <trkpt lat="48.38436" lon="7.27454">
        <ele>955</ele>
        <time>2020-09-06T10:56:00.570Z</time>
      </trkpt>
      <trkpt lat="48.38435" lon="7.27453">
        <ele>955</ele>
        <time>2020-09-06T10:56:01.570Z</time>
      </trkpt>
      <trkpt lat="48.38433" lon="7.27454">
        <ele>954</ele>
        <time>2020-09-06T10:56:02.570Z</time>
      </trkpt>
      <trkpt lat="48.38432" lon="7.27455">
        <ele>954</ele>
        <time>2020-09-06T10:56:03.570Z</time>
      </trkpt>
      <trkpt lat="48.38432" lon="7.27456">
        <ele>954</ele>
        <time>2020-09-06T10:56:04.570Z</time>
      </trkpt>
      <trkpt lat="48.38431" lon="7.27457">
        <ele>954</ele>
        <time>2020-09-06T10:56:05.569Z</time>
      </trkpt>
      <trkpt lat="48.3843" lon="7.27458">
        <ele>954</ele>
        <time>2020-09-06T10:56:06.569Z</time>
      </trkpt>
      <trkpt lat="48.3843" lon="7.27459">
        <ele>954</ele>
        <time>2020-09-06T10:56:07.570Z</time>
      </trkpt>
      <trkpt lat="48.38429" lon="7.2746">
        <ele>954</ele>
        <time>2020-09-06T10:56:08.570Z</time>
      </trkpt>
      <trkpt lat="48.38428" lon="7.2746">
        <ele>954</ele>
        <time>2020-09-06T10:56:09.570Z</time>
      </trkpt>
      <trkpt lat="48.38427" lon="7.27461">
        <ele>954</ele>
        <time>2020-09-06T10:56:10.569Z</time>
      </trkpt>
      <trkpt lat="48.38427" lon="7.27462">
        <ele>954</ele>
        <time>2020-09-06T10:56:11.570Z</time>
      </trkpt>
      <trkpt lat="48.38426" lon="7.27463">
        <ele>953</ele>
        <time>2020-09-06T10:56:12.570Z</time>
      </trkpt>
      <trkpt lat="48.38424" lon="7.27464">
        <ele>953</ele>
        <time>2020-09-06T10:56:13.569Z</time>
      </trkpt>
      <trkpt lat="48.38423" lon="7.27465">
        <ele>953</ele>
        <time>2020-09-06T10:56:14.570Z</time>
      </trkpt>
      <trkpt lat="48.38422" lon="7.27466">
        <ele>952</ele>
        <time>2020-09-06T10:56:15.570Z</time>
      </trkpt>
      <trkpt lat="48.38422" lon="7.27467">
        <ele>952</ele>
        <time>2020-09-06T10:56:16.570Z</time>
      </trkpt>
      <trkpt lat="48.38421" lon="7.27468">
        <ele>952</ele>
        <time>2020-09-06T10:56:17.570Z</time>
      </trkpt>
      <trkpt lat="48.38419" lon="7.27469">
        <ele>952</ele>
        <time>2020-09-06T10:56:18.570Z</time>
      </trkpt>
      <trkpt lat="48.38418" lon="7.2747">
        <ele>952</ele>
        <time>2020-09-06T10:56:19.570Z</time>
      </trkpt>
      <trkpt lat="48.38416" lon="7.27471">
        <ele>951</ele>
        <time>2020-09-06T10:56:20.570Z</time>
      </trkpt>
      <trkpt lat="48.38414" lon="7.27472">
        <ele>951</ele>
        <time>2020-09-06T10:56:21.570Z</time>
      </trkpt>
      <trkpt lat="48.38412" lon="7.27472">
        <ele>952</ele>
        <time>2020-09-06T10:56:22.569Z</time>
      </trkpt>
      <trkpt lat="48.38411" lon="7.27474">
        <ele>952</ele>
        <time>2020-09-06T10:56:23.570Z</time>
      </trkpt>
      <trkpt lat="48.3841" lon="7.27475">
        <ele>952</ele>
        <time>2020-09-06T10:56:24.569Z</time>
      </trkpt>
      <trkpt lat="48.38408" lon="7.27475">
        <ele>952</ele>
        <time>2020-09-06T10:56:25.569Z</time>
      </trkpt>
      <trkpt lat="48.38407" lon="7.27477">
        <ele>952</ele>
        <time>2020-09-06T10:56:26.569Z</time>
      </trkpt>
      <trkpt lat="48.38406" lon="7.27478">
        <ele>952</ele>
        <time>2020-09-06T10:56:27.570Z</time>
      </trkpt>
      <trkpt lat="48.38405" lon="7.27479">
        <ele>952</ele>
        <time>2020-09-06T10:56:28.570Z</time>
      </trkpt>
      <trkpt lat="48.38405" lon="7.27481">
        <ele>952</ele>
        <time>2020-09-06T10:56:29.570Z</time>
      </trkpt>
      <trkpt lat="48.38404" lon="7.27482">
        <ele>952</ele>
        <time>2020-09-06T10:56:30.570Z</time>
      </trkpt>
      <trkpt lat="48.38403" lon="7.27483">
        <ele>952</ele>
        <time>2020-09-06T10:56:31.570Z</time>
      </trkpt>
      <trkpt lat="48.38402" lon="7.27484">
        <ele>952</ele>
        <time>2020-09-06T10:56:32.570Z</time>
      </trkpt>
      <trkpt lat="48.38401" lon="7.27486">
        <ele>951</ele>
        <time>2020-09-06T10:56:33.569Z</time>
      </trkpt>
      <trkpt lat="48.38401" lon="7.27487">
        <ele>951</ele>
        <time>2020-09-06T10:56:34.570Z</time>
      </trkpt>
      <trkpt lat="48.384" lon="7.27488">
        <ele>950</ele>
        <time>2020-09-06T10:56:35.569Z</time>
      </trkpt>
      <trkpt lat="48.38399" lon="7.27489">
        <ele>950</ele>
        <time>2020-09-06T10:56:36.569Z</time>
      </trkpt>
      <trkpt lat="48.38399" lon="7.2749">
        <ele>950</ele>
        <time>2020-09-06T10:56:37.570Z</time>
      </trkpt>
      <trkpt lat="48.38398" lon="7.27492">
        <ele>950</ele>
        <time>2020-09-06T10:56:38.569Z</time>
      </trkpt>
      <trkpt lat="48.38398" lon="7.27492">
        <ele>950</ele>
        <time>2020-09-06T10:56:39.570Z</time>
      </trkpt>
      <trkpt lat="48.38397" lon="7.27494">
        <ele>950</ele>
        <time>2020-09-06T10:56:40.569Z</time>
      </trkpt>
      <trkpt lat="48.38396" lon="7.27496">
        <ele>950</ele>
        <time>2020-09-06T10:56:41.570Z</time>
      </trkpt>
      <trkpt lat="48.38394" lon="7.27497">
        <ele>950</ele>
        <time>2020-09-06T10:56:42.570Z</time>
      </trkpt>
      <trkpt lat="48.38394" lon="7.27498">
        <ele>950</ele>
        <time>2020-09-06T10:56:43.570Z</time>
      </trkpt>
      <trkpt lat="48.38392" lon="7.275">
        <ele>950</ele>
        <time>2020-09-06T10:56:44.570Z</time>
      </trkpt>
      <trkpt lat="48.38391" lon="7.27501">
        <ele>950</ele>
        <time>2020-09-06T10:56:45.569Z</time>
      </trkpt>
      <trkpt lat="48.3839" lon="7.27501">
        <ele>950</ele>
        <time>2020-09-06T10:56:46.569Z</time>
      </trkpt>
      <trkpt lat="48.38389" lon="7.27503">
        <ele>950</ele>
        <time>2020-09-06T10:56:47.570Z</time>
      </trkpt>
      <trkpt lat="48.38388" lon="7.27505">
        <ele>950</ele>
        <time>2020-09-06T10:56:48.569Z</time>
      </trkpt>
      <trkpt lat="48.38387" lon="7.27507">
        <ele>950</ele>
        <time>2020-09-06T10:56:49.569Z</time>
      </trkpt>
      <trkpt lat="48.38387" lon="7.27508">
        <ele>950</ele>
        <time>2020-09-06T10:56:50.570Z</time>
      </trkpt>
      <trkpt lat="48.38386" lon="7.27509">
        <ele>950</ele>
        <time>2020-09-06T10:56:51.570Z</time>
      </trkpt>
      <trkpt lat="48.38385" lon="7.2751">
        <ele>950</ele>
        <time>2020-09-06T10:56:52.570Z</time>
      </trkpt>
      <trkpt lat="48.38384" lon="7.27511">
        <ele>950</ele>
        <time>2020-09-06T10:56:53.570Z</time>
      </trkpt>
      <trkpt lat="48.38383" lon="7.27511">
        <ele>950</ele>
        <time>2020-09-06T10:56:54.570Z</time>
      </trkpt>
      <trkpt lat="48.38382" lon="7.27512">
        <ele>950</ele>
        <time>2020-09-06T10:56:55.569Z</time>
      </trkpt>
      <trkpt lat="48.38382" lon="7.27512">
        <ele>950</ele>
        <time>2020-09-06T10:56:56.569Z</time>
      </trkpt>
      <trkpt lat="48.38381" lon="7.27512">
        <ele>949</ele>
        <time>2020-09-06T10:56:57.569Z</time>
      </trkpt>
      <trkpt lat="48.38381" lon="7.27513">
        <ele>949</ele>
        <time>2020-09-06T10:56:58.570Z</time>
      </trkpt>
      <trkpt lat="48.3838" lon="7.27514">
        <ele>948</ele>
        <time>2020-09-06T10:56:59.569Z</time>
      </trkpt>
      <trkpt lat="48.3838" lon="7.27516">
        <ele>948</ele>
        <time>2020-09-06T10:57:00.570Z</time>
      </trkpt>
      <trkpt lat="48.3838" lon="7.27518">
        <ele>947</ele>
        <time>2020-09-06T10:57:01.570Z</time>
      </trkpt>
      <trkpt lat="48.3838" lon="7.2752">
        <ele>946</ele>
        <time>2020-09-06T10:57:02.570Z</time>
      </trkpt>
      <trkpt lat="48.3838" lon="7.27522">
        <ele>946</ele>
        <time>2020-09-06T10:57:03.569Z</time>
      </trkpt>
      <trkpt lat="48.3838" lon="7.27524">
        <ele>945</ele>
        <time>2020-09-06T10:57:04.569Z</time>
      </trkpt>
      <trkpt lat="48.38379" lon="7.27526">
        <ele>945</ele>
        <time>2020-09-06T10:57:05.570Z</time>
      </trkpt>
      <trkpt lat="48.38379" lon="7.27528">
        <ele>944</ele>
        <time>2020-09-06T10:57:06.569Z</time>
      </trkpt>
      <trkpt lat="48.38379" lon="7.27529">
        <ele>944</ele>
        <time>2020-09-06T10:57:07.570Z</time>
      </trkpt>
      <trkpt lat="48.38378" lon="7.2753">
        <ele>944</ele>
        <time>2020-09-06T10:57:08.569Z</time>
      </trkpt>
      <trkpt lat="48.38377" lon="7.27531">
        <ele>944</ele>
        <time>2020-09-06T10:57:09.570Z</time>
      </trkpt>
      <trkpt lat="48.38377" lon="7.27532">
        <ele>944</ele>
        <time>2020-09-06T10:57:10.570Z</time>
      </trkpt>
      <trkpt lat="48.38376" lon="7.27534">
        <ele>944</ele>
        <time>2020-09-06T10:57:11.570Z</time>
      </trkpt>
      <trkpt lat="48.38376" lon="7.27537">
        <ele>944</ele>
        <time>2020-09-06T10:57:12.570Z</time>
      </trkpt>
      <trkpt lat="48.38375" lon="7.27539">
        <ele>943</ele>
        <time>2020-09-06T10:57:13.569Z</time>
      </trkpt>
      <trkpt lat="48.38376" lon="7.27541">
        <ele>943</ele>
        <time>2020-09-06T10:57:14.570Z</time>
      </trkpt>
      <trkpt lat="48.38376" lon="7.27541">
        <ele>943</ele>
        <time>2020-09-06T10:57:15.569Z</time>
      </trkpt>
      <trkpt lat="48.38376" lon="7.27543">
        <ele>943</ele>
        <time>2020-09-06T10:57:16.569Z</time>
      </trkpt>
      <trkpt lat="48.38376" lon="7.27544">
        <ele>943</ele>
        <time>2020-09-06T10:57:17.569Z</time>
      </trkpt>
      <trkpt lat="48.38376" lon="7.27545">
        <ele>943</ele>
        <time>2020-09-06T10:57:18.570Z</time>
      </trkpt>
      <trkpt lat="48.38376" lon="7.27546">
        <ele>943</ele>
        <time>2020-09-06T10:57:19.569Z</time>
      </trkpt>
      <trkpt lat="48.38376" lon="7.27547">
        <ele>943</ele>
        <time>2020-09-06T10:57:20.570Z</time>
      </trkpt>
      <trkpt lat="48.38376" lon="7.27548">
        <ele>943</ele>
        <time>2020-09-06T10:57:21.570Z</time>
      </trkpt>
      <trkpt lat="48.38376" lon="7.2755">
        <ele>944</ele>
        <time>2020-09-06T10:57:22.570Z</time>
      </trkpt>
      <trkpt lat="48.38376" lon="7.27551">
        <ele>944</ele>
        <time>2020-09-06T10:57:23.570Z</time>
      </trkpt>
      <trkpt lat="48.38376" lon="7.27552">
        <ele>944</ele>
        <time>2020-09-06T10:57:24.570Z</time>
      </trkpt>
      <trkpt lat="48.38376" lon="7.27553">
        <ele>944</ele>
        <time>2020-09-06T10:57:25.570Z</time>
      </trkpt>
      <trkpt lat="48.38376" lon="7.27555">
        <ele>944</ele>
        <time>2020-09-06T10:57:26.570Z</time>
      </trkpt>
      <trkpt lat="48.38376" lon="7.27556">
        <ele>945</ele>
        <time>2020-09-06T10:57:27.570Z</time>
      </trkpt>
      <trkpt lat="48.38377" lon="7.27558">
        <ele>945</ele>
        <time>2020-09-06T10:57:28.570Z</time>
      </trkpt>
      <trkpt lat="48.38377" lon="7.27561">
        <ele>945</ele>
        <time>2020-09-06T10:57:29.570Z</time>
      </trkpt>
      <trkpt lat="48.38376" lon="7.27563">
        <ele>945</ele>
        <time>2020-09-06T10:57:30.570Z</time>
      </trkpt>
      <trkpt lat="48.38376" lon="7.27567">
        <ele>945</ele>
        <time>2020-09-06T10:57:31.570Z</time>
      </trkpt>
      <trkpt lat="48.38377" lon="7.27568">
        <ele>945</ele>
        <time>2020-09-06T10:57:32.570Z</time>
      </trkpt>
      <trkpt lat="48.38377" lon="7.27571">
        <ele>945</ele>
        <time>2020-09-06T10:57:33.570Z</time>
      </trkpt>
      <trkpt lat="48.38378" lon="7.27572">
        <ele>945</ele>
        <time>2020-09-06T10:57:34.570Z</time>
      </trkpt>
      <trkpt lat="48.38379" lon="7.27573">
        <ele>945</ele>
        <time>2020-09-06T10:57:35.570Z</time>
      </trkpt>
      <trkpt lat="48.38379" lon="7.27575">
        <ele>944</ele>
        <time>2020-09-06T10:57:36.570Z</time>
      </trkpt>
      <trkpt lat="48.38379" lon="7.27576">
        <ele>943</ele>
        <time>2020-09-06T10:57:37.569Z</time>
      </trkpt>
      <trkpt lat="48.38378" lon="7.27577">
        <ele>943</ele>
        <time>2020-09-06T10:57:38.569Z</time>
      </trkpt>
      <trkpt lat="48.38379" lon="7.27578">
        <ele>942</ele>
        <time>2020-09-06T10:57:39.570Z</time>
      </trkpt>
      <trkpt lat="48.38379" lon="7.27579">
        <ele>942</ele>
        <time>2020-09-06T10:57:40.570Z</time>
      </trkpt>
      <trkpt lat="48.38379" lon="7.2758">
        <ele>941</ele>
        <time>2020-09-06T10:57:41.570Z</time>
      </trkpt>
      <trkpt lat="48.38379" lon="7.27582">
        <ele>941</ele>
        <time>2020-09-06T10:57:42.570Z</time>
      </trkpt>
      <trkpt lat="48.38379" lon="7.27584">
        <ele>941</ele>
        <time>2020-09-06T10:57:43.569Z</time>
      </trkpt>
      <trkpt lat="48.38379" lon="7.27585">
        <ele>941</ele>
        <time>2020-09-06T10:57:44.569Z</time>
      </trkpt>
      <trkpt lat="48.3838" lon="7.27586">
        <ele>940</ele>
        <time>2020-09-06T10:57:45.570Z</time>
      </trkpt>
      <trkpt lat="48.3838" lon="7.27588">
        <ele>940</ele>
        <time>2020-09-06T10:57:46.570Z</time>
      </trkpt>
      <trkpt lat="48.38381" lon="7.27591">
        <ele>940</ele>
        <time>2020-09-06T10:57:47.570Z</time>
      </trkpt>
      <trkpt lat="48.38381" lon="7.27594">
        <ele>940</ele>
        <time>2020-09-06T10:57:48.570Z</time>
      </trkpt>
      <trkpt lat="48.38382" lon="7.27595">
        <ele>940</ele>
        <time>2020-09-06T10:57:49.570Z</time>
      </trkpt>
      <trkpt lat="48.38381" lon="7.27598">
        <ele>940</ele>
        <time>2020-09-06T10:57:50.570Z</time>
      </trkpt>
      <trkpt lat="48.38381" lon="7.27599">
        <ele>940</ele>
        <time>2020-09-06T10:57:51.569Z</time>
      </trkpt>
      <trkpt lat="48.38382" lon="7.27601">
        <ele>940</ele>
        <time>2020-09-06T10:57:52.570Z</time>
      </trkpt>
      <trkpt lat="48.38382" lon="7.27602">
        <ele>940</ele>
        <time>2020-09-06T10:57:53.570Z</time>
      </trkpt>
      <trkpt lat="48.38383" lon="7.27604">
        <ele>940</ele>
        <time>2020-09-06T10:57:54.570Z</time>
      </trkpt>
      <trkpt lat="48.38383" lon="7.27605">
        <ele>940</ele>
        <time>2020-09-06T10:57:55.569Z</time>
      </trkpt>
      <trkpt lat="48.38382" lon="7.27606">
        <ele>940</ele>
        <time>2020-09-06T10:57:56.570Z</time>
      </trkpt>
      <trkpt lat="48.38383" lon="7.27607">
        <ele>939</ele>
        <time>2020-09-06T10:57:57.570Z</time>
      </trkpt>
      <trkpt lat="48.38383" lon="7.27609">
        <ele>939</ele>
        <time>2020-09-06T10:57:58.570Z</time>
      </trkpt>
      <trkpt lat="48.38383" lon="7.27611">
        <ele>939</ele>
        <time>2020-09-06T10:57:59.570Z</time>
      </trkpt>
      <trkpt lat="48.38383" lon="7.27613">
        <ele>938</ele>
        <time>2020-09-06T10:58:00.570Z</time>
      </trkpt>
      <trkpt lat="48.38384" lon="7.27615">
        <ele>938</ele>
        <time>2020-09-06T10:58:01.569Z</time>
      </trkpt>
      <trkpt lat="48.38384" lon="7.27617">
        <ele>938</ele>
        <time>2020-09-06T10:58:02.570Z</time>
      </trkpt>
      <trkpt lat="48.38384" lon="7.27618">
        <ele>938</ele>
        <time>2020-09-06T10:58:03.570Z</time>
      </trkpt>
      <trkpt lat="48.38383" lon="7.27621">
        <ele>937</ele>
        <time>2020-09-06T10:58:04.570Z</time>
      </trkpt>
      <trkpt lat="48.38383" lon="7.27621">
        <ele>937</ele>
        <time>2020-09-06T10:58:05.570Z</time>
      </trkpt>
      <trkpt lat="48.38384" lon="7.27622">
        <ele>937</ele>
        <time>2020-09-06T10:58:06.570Z</time>
      </trkpt>
      <trkpt lat="48.38384" lon="7.27625">
        <ele>937</ele>
        <time>2020-09-06T10:58:07.570Z</time>
      </trkpt>
      <trkpt lat="48.38384" lon="7.27627">
        <ele>936</ele>
        <time>2020-09-06T10:58:08.570Z</time>
      </trkpt>
      <trkpt lat="48.38383" lon="7.27629">
        <ele>936</ele>
        <time>2020-09-06T10:58:09.570Z</time>
      </trkpt>
      <trkpt lat="48.38384" lon="7.27631">
        <ele>935</ele>
        <time>2020-09-06T10:58:10.570Z</time>
      </trkpt>
      <trkpt lat="48.38384" lon="7.27633">
        <ele>934</ele>
        <time>2020-09-06T10:58:11.570Z</time>
      </trkpt>
      <trkpt lat="48.38384" lon="7.27635">
        <ele>934</ele>
        <time>2020-09-06T10:58:12.570Z</time>
      </trkpt>
      <trkpt lat="48.38385" lon="7.27636">
        <ele>933</ele>
        <time>2020-09-06T10:58:13.569Z</time>
      </trkpt>
      <trkpt lat="48.38385" lon="7.27637">
        <ele>933</ele>
        <time>2020-09-06T10:58:14.570Z</time>
      </trkpt>
      <trkpt lat="48.38386" lon="7.27639">
        <ele>932</ele>
        <time>2020-09-06T10:58:15.569Z</time>
      </trkpt>
      <trkpt lat="48.38386" lon="7.27641">
        <ele>932</ele>
        <time>2020-09-06T10:58:16.570Z</time>
      </trkpt>
      <trkpt lat="48.38386" lon="7.27644">
        <ele>932</ele>
        <time>2020-09-06T10:58:17.570Z</time>
      </trkpt>
      <trkpt lat="48.38387" lon="7.27646">
        <ele>932</ele>
        <time>2020-09-06T10:58:18.570Z</time>
      </trkpt>
      <trkpt lat="48.38387" lon="7.27647">
        <ele>932</ele>
        <time>2020-09-06T10:58:19.570Z</time>
      </trkpt>
      <trkpt lat="48.38387" lon="7.27649">
        <ele>933</ele>
        <time>2020-09-06T10:58:20.569Z</time>
      </trkpt>
      <trkpt lat="48.38387" lon="7.27651">
        <ele>933</ele>
        <time>2020-09-06T10:58:21.569Z</time>
      </trkpt>
      <trkpt lat="48.38386" lon="7.27653">
        <ele>933</ele>
        <time>2020-09-06T10:58:22.570Z</time>
      </trkpt>
      <trkpt lat="48.38387" lon="7.27655">
        <ele>933</ele>
        <time>2020-09-06T10:58:23.569Z</time>
      </trkpt>
      <trkpt lat="48.38387" lon="7.27657">
        <ele>933</ele>
        <time>2020-09-06T10:58:24.570Z</time>
      </trkpt>
      <trkpt lat="48.38387" lon="7.27659">
        <ele>933</ele>
        <time>2020-09-06T10:58:25.569Z</time>
      </trkpt>
      <trkpt lat="48.38387" lon="7.2766">
        <ele>933</ele>
        <time>2020-09-06T10:58:26.570Z</time>
      </trkpt>
      <trkpt lat="48.38387" lon="7.27662">
        <ele>933</ele>
        <time>2020-09-06T10:58:27.570Z</time>
      </trkpt>
      <trkpt lat="48.38388" lon="7.27664">
        <ele>934</ele>
        <time>2020-09-06T10:58:28.570Z</time>
      </trkpt>
      <trkpt lat="48.38388" lon="7.27666">
        <ele>934</ele>
        <time>2020-09-06T10:58:29.570Z</time>
      </trkpt>
      <trkpt lat="48.38388" lon="7.27668">
        <ele>934</ele>
        <time>2020-09-06T10:58:34.708Z</time>
      </trkpt>
      <trkpt lat="48.38388" lon="7.2767">
        <ele>933</ele>
        <time>2020-09-06T10:58:35.708Z</time>
      </trkpt>
      <trkpt lat="48.38388" lon="7.27672">
        <ele>933</ele>
        <time>2020-09-06T10:58:36.708Z</time>
      </trkpt>
      <trkpt lat="48.38389" lon="7.27674">
        <ele>933</ele>
        <time>2020-09-06T10:59:01.703Z</time>
      </trkpt>
      <trkpt lat="48.38389" lon="7.27676">
        <ele>933</ele>
        <time>2020-09-06T10:59:02.703Z</time>
      </trkpt>
      <trkpt lat="48.38389" lon="7.27678">
        <ele>933</ele>
        <time>2020-09-06T10:59:03.702Z</time>
      </trkpt>
      <trkpt lat="48.38389" lon="7.2768">
        <ele>934</ele>
        <time>2020-09-06T10:59:04.703Z</time>
      </trkpt>
      <trkpt lat="48.3839" lon="7.27682">
        <ele>934</ele>
        <time>2020-09-06T10:59:05.702Z</time>
      </trkpt>
      <trkpt lat="48.3839" lon="7.27683">
        <ele>934</ele>
        <time>2020-09-06T10:59:06.703Z</time>
      </trkpt>
      <trkpt lat="48.3839" lon="7.27685">
        <ele>934</ele>
        <time>2020-09-06T10:59:07.703Z</time>
      </trkpt>
      <trkpt lat="48.3839" lon="7.27686">
        <ele>934</ele>
        <time>2020-09-06T10:59:08.703Z</time>
      </trkpt>
      <trkpt lat="48.3839" lon="7.27688">
        <ele>934</ele>
        <time>2020-09-06T10:59:09.703Z</time>
      </trkpt>
      <trkpt lat="48.3839" lon="7.2769">
        <ele>933</ele>
        <time>2020-09-06T10:59:14.799Z</time>
      </trkpt>
      <trkpt lat="48.38389" lon="7.27692">
        <ele>933</ele>
        <time>2020-09-06T10:59:15.799Z</time>
      </trkpt>
      <trkpt lat="48.38389" lon="7.27694">
        <ele>932</ele>
        <time>2020-09-06T10:59:26.698Z</time>
      </trkpt>
      <trkpt lat="48.38388" lon="7.27696">
        <ele>931</ele>
        <time>2020-09-06T10:59:27.698Z</time>
      </trkpt>
      <trkpt lat="48.38389" lon="7.27698">
        <ele>931</ele>
        <time>2020-09-06T10:59:28.697Z</time>
      </trkpt>
      <trkpt lat="48.38389" lon="7.277">
        <ele>930</ele>
        <time>2020-09-06T10:59:29.698Z</time>
      </trkpt>
      <trkpt lat="48.38388" lon="7.27702">
        <ele>929</ele>
        <time>2020-09-06T10:59:30.698Z</time>
      </trkpt>
      <trkpt lat="48.38388" lon="7.27704">
        <ele>929</ele>
        <time>2020-09-06T10:59:31.698Z</time>
      </trkpt>
      <trkpt lat="48.38388" lon="7.27706">
        <ele>928</ele>
        <time>2020-09-06T10:59:32.698Z</time>
      </trkpt>
      <trkpt lat="48.38388" lon="7.27708">
        <ele>927</ele>
        <time>2020-09-06T10:59:33.698Z</time>
      </trkpt>
      <trkpt lat="48.38388" lon="7.27709">
        <ele>927</ele>
        <time>2020-09-06T10:59:34.698Z</time>
      </trkpt>
      <trkpt lat="48.38389" lon="7.27711">
        <ele>926</ele>
        <time>2020-09-06T10:59:35.698Z</time>
      </trkpt>
      <trkpt lat="48.38389" lon="7.27713">
        <ele>926</ele>
        <time>2020-09-06T10:59:36.698Z</time>
      </trkpt>
      <trkpt lat="48.38389" lon="7.27714">
        <ele>925</ele>
        <time>2020-09-06T10:59:37.697Z</time>
      </trkpt>
      <trkpt lat="48.38389" lon="7.27716">
        <ele>924</ele>
        <time>2020-09-06T10:59:38.697Z</time>
      </trkpt>
      <trkpt lat="48.38389" lon="7.27717">
        <ele>924</ele>
        <time>2020-09-06T10:59:39.697Z</time>
      </trkpt>
      <trkpt lat="48.38388" lon="7.27718">
        <ele>923</ele>
        <time>2020-09-06T10:59:40.698Z</time>
      </trkpt>
      <trkpt lat="48.38388" lon="7.27719">
        <ele>923</ele>
        <time>2020-09-06T10:59:41.698Z</time>
      </trkpt>
      <trkpt lat="48.38388" lon="7.27721">
        <ele>922</ele>
        <time>2020-09-06T10:59:42.697Z</time>
      </trkpt>
      <trkpt lat="48.38388" lon="7.27722">
        <ele>922</ele>
        <time>2020-09-06T10:59:43.697Z</time>
      </trkpt>
      <trkpt lat="48.38388" lon="7.27724">
        <ele>922</ele>
        <time>2020-09-06T10:59:44.698Z</time>
      </trkpt>
      <trkpt lat="48.38387" lon="7.27725">
        <ele>922</ele>
        <time>2020-09-06T10:59:45.697Z</time>
      </trkpt>
      <trkpt lat="48.38387" lon="7.27726">
        <ele>923</ele>
        <time>2020-09-06T11:00:06.821Z</time>
      </trkpt>
      <trkpt lat="48.38387" lon="7.27728">
        <ele>923</ele>
        <time>2020-09-06T11:00:07.822Z</time>
      </trkpt>
      <trkpt lat="48.38386" lon="7.2773">
        <ele>924</ele>
        <time>2020-09-06T11:00:08.822Z</time>
      </trkpt>
      <trkpt lat="48.38386" lon="7.27732">
        <ele>924</ele>
        <time>2020-09-06T11:00:09.822Z</time>
      </trkpt>
      <trkpt lat="48.38386" lon="7.27733">
        <ele>924</ele>
        <time>2020-09-06T11:00:10.822Z</time>
      </trkpt>
      <trkpt lat="48.38387" lon="7.27735">
        <ele>924</ele>
        <time>2020-09-06T11:00:11.822Z</time>
      </trkpt>
      <trkpt lat="48.38386" lon="7.27737">
        <ele>924</ele>
        <time>2020-09-06T11:00:12.822Z</time>
      </trkpt>
      <trkpt lat="48.38386" lon="7.27739">
        <ele>924</ele>
        <time>2020-09-06T11:00:13.822Z</time>
      </trkpt>
      <trkpt lat="48.38386" lon="7.27741">
        <ele>924</ele>
        <time>2020-09-06T11:00:14.822Z</time>
      </trkpt>
      <trkpt lat="48.38386" lon="7.27742">
        <ele>924</ele>
        <time>2020-09-06T11:00:15.821Z</time>
      </trkpt>
      <trkpt lat="48.38386" lon="7.27744">
        <ele>924</ele>
        <time>2020-09-06T11:00:16.822Z</time>
      </trkpt>
      <trkpt lat="48.38386" lon="7.27745">
        <ele>924</ele>
        <time>2020-09-06T11:00:17.821Z</time>
      </trkpt>
      <trkpt lat="48.38386" lon="7.27747">
        <ele>924</ele>
        <time>2020-09-06T11:00:18.822Z</time>
      </trkpt>
      <trkpt lat="48.38386" lon="7.27748">
        <ele>924</ele>
        <time>2020-09-06T11:00:19.822Z</time>
      </trkpt>
      <trkpt lat="48.38386" lon="7.2775">
        <ele>924</ele>
        <time>2020-09-06T11:00:20.822Z</time>
      </trkpt>
      <trkpt lat="48.38386" lon="7.27752">
        <ele>924</ele>
        <time>2020-09-06T11:00:21.821Z</time>
      </trkpt>
      <trkpt lat="48.38386" lon="7.27754">
        <ele>924</ele>
        <time>2020-09-06T11:00:22.822Z</time>
      </trkpt>
      <trkpt lat="48.38385" lon="7.27756">
        <ele>924</ele>
        <time>2020-09-06T11:00:23.822Z</time>
      </trkpt>
      <trkpt lat="48.38385" lon="7.27758">
        <ele>924</ele>
        <time>2020-09-06T11:00:24.822Z</time>
      </trkpt>
      <trkpt lat="48.38385" lon="7.2776">
        <ele>924</ele>
        <time>2020-09-06T11:00:25.822Z</time>
      </trkpt>
      <trkpt lat="48.38385" lon="7.27762">
        <ele>924</ele>
        <time>2020-09-06T11:00:26.821Z</time>
      </trkpt>
      <trkpt lat="48.38385" lon="7.27765">
        <ele>923</ele>
        <time>2020-09-06T11:00:27.822Z</time>
      </trkpt>
      <trkpt lat="48.38385" lon="7.27768">
        <ele>923</ele>
        <time>2020-09-06T11:00:28.822Z</time>
      </trkpt>
      <trkpt lat="48.38386" lon="7.2777">
        <ele>923</ele>
        <time>2020-09-06T11:00:29.822Z</time>
      </trkpt>
      <trkpt lat="48.38386" lon="7.27773">
        <ele>923</ele>
        <time>2020-09-06T11:00:30.822Z</time>
      </trkpt>
      <trkpt lat="48.38386" lon="7.27775">
        <ele>922</ele>
        <time>2020-09-06T11:00:31.822Z</time>
      </trkpt>
      <trkpt lat="48.38386" lon="7.27776">
        <ele>922</ele>
        <time>2020-09-06T11:00:32.821Z</time>
      </trkpt>
      <trkpt lat="48.38385" lon="7.27779">
        <ele>921</ele>
        <time>2020-09-06T11:00:33.822Z</time>
      </trkpt>
      <trkpt lat="48.38385" lon="7.27782">
        <ele>921</ele>
        <time>2020-09-06T11:00:34.822Z</time>
      </trkpt>
      <trkpt lat="48.38384" lon="7.27785">
        <ele>920</ele>
        <time>2020-09-06T11:00:35.822Z</time>
      </trkpt>
      <trkpt lat="48.38384" lon="7.27787">
        <ele>920</ele>
        <time>2020-09-06T11:00:36.822Z</time>
      </trkpt>
      <trkpt lat="48.38385" lon="7.27789">
        <ele>919</ele>
        <time>2020-09-06T11:00:37.822Z</time>
      </trkpt>
      <trkpt lat="48.38385" lon="7.27791">
        <ele>919</ele>
        <time>2020-09-06T11:00:38.821Z</time>
      </trkpt>
      <trkpt lat="48.38385" lon="7.27793">
        <ele>919</ele>
        <time>2020-09-06T11:00:39.822Z</time>
      </trkpt>
      <trkpt lat="48.38385" lon="7.27795">
        <ele>919</ele>
        <time>2020-09-06T11:00:40.821Z</time>
      </trkpt>
      <trkpt lat="48.38386" lon="7.27796">
        <ele>919</ele>
        <time>2020-09-06T11:00:41.822Z</time>
      </trkpt>
      <trkpt lat="48.38386" lon="7.27798">
        <ele>919</ele>
        <time>2020-09-06T11:00:42.821Z</time>
      </trkpt>
      <trkpt lat="48.38386" lon="7.27799">
        <ele>920</ele>
        <time>2020-09-06T11:00:43.822Z</time>
      </trkpt>
      <trkpt lat="48.38387" lon="7.27801">
        <ele>920</ele>
        <time>2020-09-06T11:00:44.822Z</time>
      </trkpt>
      <trkpt lat="48.38387" lon="7.27803">
        <ele>920</ele>
        <time>2020-09-06T11:00:45.822Z</time>
      </trkpt>
      <trkpt lat="48.38387" lon="7.27804">
        <ele>920</ele>
        <time>2020-09-06T11:00:46.822Z</time>
      </trkpt>
      <trkpt lat="48.38388" lon="7.27806">
        <ele>920</ele>
        <time>2020-09-06T11:00:47.822Z</time>
      </trkpt>
      <trkpt lat="48.38388" lon="7.27809">
        <ele>920</ele>
        <time>2020-09-06T11:00:48.822Z</time>
      </trkpt>
      <trkpt lat="48.38389" lon="7.27811">
        <ele>920</ele>
        <time>2020-09-06T11:00:49.822Z</time>
      </trkpt>
      <trkpt lat="48.38389" lon="7.27813">
        <ele>920</ele>
        <time>2020-09-06T11:00:50.822Z</time>
      </trkpt>
      <trkpt lat="48.38389" lon="7.27814">
        <ele>920</ele>
        <time>2020-09-06T11:00:51.822Z</time>
      </trkpt>
      <trkpt lat="48.38389" lon="7.27816">
        <ele>919</ele>
        <time>2020-09-06T11:00:52.821Z</time>
      </trkpt>
      <trkpt lat="48.38389" lon="7.27817">
        <ele>919</ele>
        <time>2020-09-06T11:00:53.821Z</time>
      </trkpt>
      <trkpt lat="48.38389" lon="7.27819">
        <ele>919</ele>
        <time>2020-09-06T11:00:54.822Z</time>
      </trkpt>
      <trkpt lat="48.38389" lon="7.2782">
        <ele>919</ele>
        <time>2020-09-06T11:00:55.822Z</time>
      </trkpt>
      <trkpt lat="48.3839" lon="7.27823">
        <ele>920</ele>
        <time>2020-09-06T11:00:56.822Z</time>
      </trkpt>
      <trkpt lat="48.38391" lon="7.27825">
        <ele>920</ele>
        <time>2020-09-06T11:00:57.821Z</time>
      </trkpt>
      <trkpt lat="48.38391" lon="7.27826">
        <ele>920</ele>
        <time>2020-09-06T11:00:58.822Z</time>
      </trkpt>
      <trkpt lat="48.3839" lon="7.27829">
        <ele>921</ele>
        <time>2020-09-06T11:00:59.822Z</time>
      </trkpt>
      <trkpt lat="48.3839" lon="7.27831">
        <ele>921</ele>
        <time>2020-09-06T11:01:00.821Z</time>
      </trkpt>
      <trkpt lat="48.3839" lon="7.27832">
        <ele>921</ele>
        <time>2020-09-06T11:01:01.822Z</time>
      </trkpt>
      <trkpt lat="48.3839" lon="7.27833">
        <ele>921</ele>
        <time>2020-09-06T11:01:02.822Z</time>
      </trkpt>
      <trkpt lat="48.3839" lon="7.27835">
        <ele>921</ele>
        <time>2020-09-06T11:01:03.822Z</time>
      </trkpt>
      <trkpt lat="48.3839" lon="7.27836">
        <ele>921</ele>
        <time>2020-09-06T11:01:04.822Z</time>
      </trkpt>
      <trkpt lat="48.38391" lon="7.27838">
        <ele>921</ele>
        <time>2020-09-06T11:01:05.822Z</time>
      </trkpt>
      <trkpt lat="48.38391" lon="7.2784">
        <ele>921</ele>
        <time>2020-09-06T11:01:06.822Z</time>
      </trkpt>
      <trkpt lat="48.38391" lon="7.27842">
        <ele>921</ele>
        <time>2020-09-06T11:01:07.822Z</time>
      </trkpt>
      <trkpt lat="48.38391" lon="7.27843">
        <ele>921</ele>
        <time>2020-09-06T11:01:13.958Z</time>
      </trkpt>
      <trkpt lat="48.38391" lon="7.27846">
        <ele>921</ele>
        <time>2020-09-06T11:01:14.958Z</time>
      </trkpt>
      <trkpt lat="48.38391" lon="7.27847">
        <ele>922</ele>
        <time>2020-09-06T11:01:15.957Z</time>
      </trkpt>
      <trkpt lat="48.38391" lon="7.27849">
        <ele>922</ele>
        <time>2020-09-06T11:01:16.958Z</time>
      </trkpt>
      <trkpt lat="48.38391" lon="7.27851">
        <ele>922</ele>
        <time>2020-09-06T11:01:17.958Z</time>
      </trkpt>
      <trkpt lat="48.38392" lon="7.27852">
        <ele>922</ele>
        <time>2020-09-06T11:01:18.958Z</time>
      </trkpt>
      <trkpt lat="48.38392" lon="7.27854">
        <ele>922</ele>
        <time>2020-09-06T11:01:19.958Z</time>
      </trkpt>
      <trkpt lat="48.38393" lon="7.27856">
        <ele>922</ele>
        <time>2020-09-06T11:01:20.958Z</time>
      </trkpt>
      <trkpt lat="48.38393" lon="7.27857">
        <ele>922</ele>
        <time>2020-09-06T11:01:21.957Z</time>
      </trkpt>
      <trkpt lat="48.38394" lon="7.27859">
        <ele>923</ele>
        <time>2020-09-06T11:01:22.958Z</time>
      </trkpt>
      <trkpt lat="48.38393" lon="7.27861">
        <ele>923</ele>
        <time>2020-09-06T11:01:23.958Z</time>
      </trkpt>
      <trkpt lat="48.38393" lon="7.27863">
        <ele>923</ele>
        <time>2020-09-06T11:01:24.957Z</time>
      </trkpt>
      <trkpt lat="48.38393" lon="7.27865">
        <ele>923</ele>
        <time>2020-09-06T11:01:25.958Z</time>
      </trkpt>
      <trkpt lat="48.38393" lon="7.27868">
        <ele>923</ele>
        <time>2020-09-06T11:01:26.958Z</time>
      </trkpt>
      <trkpt lat="48.38392" lon="7.2787">
        <ele>923</ele>
        <time>2020-09-06T11:01:27.958Z</time>
      </trkpt>
      <trkpt lat="48.38393" lon="7.27872">
        <ele>922</ele>
        <time>2020-09-06T11:01:28.958Z</time>
      </trkpt>
      <trkpt lat="48.38393" lon="7.27873">
        <ele>923</ele>
        <time>2020-09-06T11:01:29.958Z</time>
      </trkpt>
      <trkpt lat="48.38393" lon="7.27875">
        <ele>923</ele>
        <time>2020-09-06T11:01:30.958Z</time>
      </trkpt>
      <trkpt lat="48.38393" lon="7.27878">
        <ele>923</ele>
        <time>2020-09-06T11:01:31.957Z</time>
      </trkpt>
      <trkpt lat="48.38393" lon="7.2788">
        <ele>924</ele>
        <time>2020-09-06T11:01:32.958Z</time>
      </trkpt>
      <trkpt lat="48.38393" lon="7.27882">
        <ele>924</ele>
        <time>2020-09-06T11:01:33.958Z</time>
      </trkpt>
      <trkpt lat="48.38393" lon="7.27884">
        <ele>925</ele>
        <time>2020-09-06T11:01:34.958Z</time>
      </trkpt>
      <trkpt lat="48.38394" lon="7.27886">
        <ele>925</ele>
        <time>2020-09-06T11:01:35.958Z</time>
      </trkpt>
      <trkpt lat="48.38394" lon="7.27887">
        <ele>925</ele>
        <time>2020-09-06T11:01:36.958Z</time>
      </trkpt>
      <trkpt lat="48.38394" lon="7.27888">
        <ele>926</ele>
        <time>2020-09-06T11:01:37.958Z</time>
      </trkpt>
      <trkpt lat="48.38394" lon="7.2789">
        <ele>926</ele>
        <time>2020-09-06T11:01:38.958Z</time>
      </trkpt>
      <trkpt lat="48.38394" lon="7.27891">
        <ele>926</ele>
        <time>2020-09-06T11:01:39.958Z</time>
      </trkpt>
      <trkpt lat="48.38394" lon="7.27892">
        <ele>926</ele>
        <time>2020-09-06T11:01:40.958Z</time>
      </trkpt>
      <trkpt lat="48.38394" lon="7.27894">
        <ele>926</ele>
        <time>2020-09-06T11:01:41.958Z</time>
      </trkpt>
      <trkpt lat="48.38395" lon="7.27895">
        <ele>926</ele>
        <time>2020-09-06T11:01:42.957Z</time>
      </trkpt>
      <trkpt lat="48.38395" lon="7.27896">
        <ele>926</ele>
        <time>2020-09-06T11:01:53.050Z</time>
      </trkpt>
      <trkpt lat="48.38395" lon="7.27899">
        <ele>926</ele>
        <time>2020-09-06T11:01:54.050Z</time>
      </trkpt>
      <trkpt lat="48.38395" lon="7.27901">
        <ele>925</ele>
        <time>2020-09-06T11:01:55.050Z</time>
      </trkpt>
      <trkpt lat="48.38394" lon="7.27903">
        <ele>925</ele>
        <time>2020-09-06T11:01:56.050Z</time>
      </trkpt>
      <trkpt lat="48.38394" lon="7.27905">
        <ele>924</ele>
        <time>2020-09-06T11:01:58.040Z</time>
      </trkpt>
      <trkpt lat="48.38394" lon="7.27906">
        <ele>924</ele>
        <time>2020-09-06T11:01:59.040Z</time>
      </trkpt>
      <trkpt lat="48.38395" lon="7.27908">
        <ele>924</ele>
        <time>2020-09-06T11:02:00.040Z</time>
      </trkpt>
      <trkpt lat="48.38395" lon="7.2791">
        <ele>924</ele>
        <time>2020-09-06T11:02:04.071Z</time>
      </trkpt>
      <trkpt lat="48.38395" lon="7.27912">
        <ele>924</ele>
        <time>2020-09-06T11:02:05.071Z</time>
      </trkpt>
      <trkpt lat="48.38395" lon="7.27914">
        <ele>924</ele>
        <time>2020-09-06T11:02:18.942Z</time>
      </trkpt>
      <trkpt lat="48.38395" lon="7.27916">
        <ele>924</ele>
        <time>2020-09-06T11:02:53.799Z</time>
      </trkpt>
      <trkpt lat="48.38395" lon="7.27918">
        <ele>925</ele>
        <time>2020-09-06T11:02:57.547Z</time>
      </trkpt>
      <trkpt lat="48.38395" lon="7.27919">
        <ele>925</ele>
        <time>2020-09-06T11:02:58.546Z</time>
      </trkpt>
      <trkpt lat="48.38395" lon="7.2792">
        <ele>925</ele>
        <time>2020-09-06T11:02:59.547Z</time>
      </trkpt>
      <trkpt lat="48.38395" lon="7.27921">
        <ele>925</ele>
        <time>2020-09-06T11:03:01.659Z</time>
      </trkpt>
      <trkpt lat="48.38395" lon="7.27923">
        <ele>925</ele>
        <time>2020-09-06T11:03:02.659Z</time>
      </trkpt>
      <trkpt lat="48.38395" lon="7.27925">
        <ele>926</ele>
        <time>2020-09-06T11:03:03.659Z</time>
      </trkpt>
      <trkpt lat="48.38394" lon="7.27927">
        <ele>926</ele>
        <time>2020-09-06T11:03:04.659Z</time>
      </trkpt>
      <trkpt lat="48.38395" lon="7.27929">
        <ele>927</ele>
        <time>2020-09-06T11:03:05.659Z</time>
      </trkpt>
      <trkpt lat="48.38395" lon="7.27932">
        <ele>927</ele>
        <time>2020-09-06T11:03:22.671Z</time>
      </trkpt>
      <trkpt lat="48.38396" lon="7.27934">
        <ele>927</ele>
        <time>2020-09-06T11:04:50.577Z</time>
      </trkpt>
      <trkpt lat="48.38397" lon="7.27935">
        <ele>927</ele>
        <time>2020-09-06T11:04:57.378Z</time>
      </trkpt>
      <trkpt lat="48.38397" lon="7.27936">
        <ele>927</ele>
        <time>2020-09-06T11:04:58.378Z</time>
      </trkpt>
      <trkpt lat="48.38396" lon="7.27937">
        <ele>928</ele>
        <time>2020-09-06T11:04:59.377Z</time>
      </trkpt>
      <trkpt lat="48.38396" lon="7.27938">
        <ele>928</ele>
        <time>2020-09-06T11:05:00.378Z</time>
      </trkpt>
      <trkpt lat="48.38396" lon="7.27939">
        <ele>929</ele>
        <time>2020-09-06T11:05:01.378Z</time>
      </trkpt>
      <trkpt lat="48.38396" lon="7.27941">
        <ele>930</ele>
        <time>2020-09-06T11:05:02.378Z</time>
      </trkpt>
      <trkpt lat="48.38396" lon="7.27943">
        <ele>931</ele>
        <time>2020-09-06T11:05:03.378Z</time>
      </trkpt>
      <trkpt lat="48.38396" lon="7.27945">
        <ele>931</ele>
        <time>2020-09-06T11:05:04.378Z</time>
      </trkpt>
      <trkpt lat="48.38397" lon="7.27947">
        <ele>932</ele>
        <time>2020-09-06T11:05:05.378Z</time>
      </trkpt>
      <trkpt lat="48.38397" lon="7.27948">
        <ele>932</ele>
        <time>2020-09-06T11:05:06.378Z</time>
      </trkpt>
      <trkpt lat="48.38397" lon="7.2795">
        <ele>933</ele>
        <time>2020-09-06T11:05:07.378Z</time>
      </trkpt>
      <trkpt lat="48.38397" lon="7.27952">
        <ele>933</ele>
        <time>2020-09-06T11:05:08.378Z</time>
      </trkpt>
      <trkpt lat="48.38397" lon="7.27953">
        <ele>933</ele>
        <time>2020-09-06T11:05:09.377Z</time>
      </trkpt>
      <trkpt lat="48.38396" lon="7.27955">
        <ele>933</ele>
        <time>2020-09-06T11:05:10.378Z</time>
      </trkpt>
      <trkpt lat="48.38396" lon="7.27955">
        <ele>934</ele>
        <time>2020-09-06T11:05:11.378Z</time>
      </trkpt>
      <trkpt lat="48.38396" lon="7.27954">
        <ele>934</ele>
        <time>2020-09-06T11:05:12.378Z</time>
      </trkpt>
      <trkpt lat="48.38396" lon="7.27954">
        <ele>934</ele>
        <time>2020-09-06T11:05:13.378Z</time>
      </trkpt>
      <trkpt lat="48.384" lon="7.27951">
        <ele>943</ele>
        <time>2020-09-06T11:05:14.377Z</time>
      </trkpt>
      <trkpt lat="48.38395" lon="7.2796">
        <ele>941</ele>
        <time>2020-09-06T11:05:15.378Z</time>
      </trkpt>
      <trkpt lat="48.38394" lon="7.27963">
        <ele>941</ele>
        <time>2020-09-06T11:05:16.378Z</time>
      </trkpt>
      <trkpt lat="48.38393" lon="7.27966">
        <ele>941</ele>
        <time>2020-09-06T11:05:17.377Z</time>
      </trkpt>
      <trkpt lat="48.38391" lon="7.27968">
        <ele>941</ele>
        <time>2020-09-06T11:05:18.378Z</time>
      </trkpt>
      <trkpt lat="48.38391" lon="7.2797">
        <ele>940</ele>
        <time>2020-09-06T11:05:19.378Z</time>
      </trkpt>
      <trkpt lat="48.38389" lon="7.27972">
        <ele>940</ele>
        <time>2020-09-06T11:05:20.378Z</time>
      </trkpt>
      <trkpt lat="48.38387" lon="7.27975">
        <ele>939</ele>
        <time>2020-09-06T11:05:21.377Z</time>
      </trkpt>
      <trkpt lat="48.38386" lon="7.27977">
        <ele>939</ele>
        <time>2020-09-06T11:05:22.378Z</time>
      </trkpt>
      <trkpt lat="48.38385" lon="7.27978">
        <ele>939</ele>
        <time>2020-09-06T11:05:23.378Z</time>
      </trkpt>
      <trkpt lat="48.38384" lon="7.27979">
        <ele>938</ele>
        <time>2020-09-06T11:05:24.378Z</time>
      </trkpt>
      <trkpt lat="48.38383" lon="7.27981">
        <ele>938</ele>
        <time>2020-09-06T11:05:25.378Z</time>
      </trkpt>
      <trkpt lat="48.38382" lon="7.27983">
        <ele>937</ele>
        <time>2020-09-06T11:05:26.378Z</time>
      </trkpt>
      <trkpt lat="48.38381" lon="7.27985">
        <ele>937</ele>
        <time>2020-09-06T11:05:27.378Z</time>
      </trkpt>
      <trkpt lat="48.3838" lon="7.27986">
        <ele>937</ele>
        <time>2020-09-06T11:05:28.377Z</time>
      </trkpt>
      <trkpt lat="48.38379" lon="7.27987">
        <ele>937</ele>
        <time>2020-09-06T11:05:29.378Z</time>
      </trkpt>
      <trkpt lat="48.38378" lon="7.27988">
        <ele>936</ele>
        <time>2020-09-06T11:05:30.378Z</time>
      </trkpt>
      <trkpt lat="48.38377" lon="7.27988">
        <ele>936</ele>
        <time>2020-09-06T11:05:31.378Z</time>
      </trkpt>
      <trkpt lat="48.38376" lon="7.27988">
        <ele>935</ele>
        <time>2020-09-06T11:05:32.377Z</time>
      </trkpt>
      <trkpt lat="48.38375" lon="7.27988">
        <ele>935</ele>
        <time>2020-09-06T11:05:33.378Z</time>
      </trkpt>
      <trkpt lat="48.38374" lon="7.27989">
        <ele>935</ele>
        <time>2020-09-06T11:05:34.377Z</time>
      </trkpt>
      <trkpt lat="48.38373" lon="7.27992">
        <ele>935</ele>
        <time>2020-09-06T11:05:35.378Z</time>
      </trkpt>
      <trkpt lat="48.38373" lon="7.27993">
        <ele>935</ele>
        <time>2020-09-06T11:05:36.378Z</time>
      </trkpt>
      <trkpt lat="48.38371" lon="7.27995">
        <ele>935</ele>
        <time>2020-09-06T11:05:37.378Z</time>
      </trkpt>
      <trkpt lat="48.3837" lon="7.27996">
        <ele>936</ele>
        <time>2020-09-06T11:05:38.378Z</time>
      </trkpt>
      <trkpt lat="48.38368" lon="7.27998">
        <ele>936</ele>
        <time>2020-09-06T11:05:39.378Z</time>
      </trkpt>
      <trkpt lat="48.38367" lon="7.28">
        <ele>936</ele>
        <time>2020-09-06T11:05:40.378Z</time>
      </trkpt>
      <trkpt lat="48.38366" lon="7.28002">
        <ele>937</ele>
        <time>2020-09-06T11:05:41.378Z</time>
      </trkpt>
      <trkpt lat="48.38365" lon="7.28004">
        <ele>937</ele>
        <time>2020-09-06T11:05:42.378Z</time>
      </trkpt>
      <trkpt lat="48.38364" lon="7.28005">
        <ele>937</ele>
        <time>2020-09-06T11:05:43.378Z</time>
      </trkpt>
      <trkpt lat="48.38363" lon="7.28007">
        <ele>938</ele>
        <time>2020-09-06T11:05:44.378Z</time>
      </trkpt>
      <trkpt lat="48.38362" lon="7.28009">
        <ele>938</ele>
        <time>2020-09-06T11:05:45.377Z</time>
      </trkpt>
      <trkpt lat="48.3836" lon="7.2801">
        <ele>938</ele>
        <time>2020-09-06T11:05:46.378Z</time>
      </trkpt>
      <trkpt lat="48.38359" lon="7.28012">
        <ele>938</ele>
        <time>2020-09-06T11:05:47.377Z</time>
      </trkpt>
      <trkpt lat="48.38358" lon="7.28013">
        <ele>939</ele>
        <time>2020-09-06T11:05:48.378Z</time>
      </trkpt>
      <trkpt lat="48.38357" lon="7.28015">
        <ele>939</ele>
        <time>2020-09-06T11:05:49.378Z</time>
      </trkpt>
      <trkpt lat="48.38355" lon="7.28017">
        <ele>940</ele>
        <time>2020-09-06T11:05:50.378Z</time>
      </trkpt>
      <trkpt lat="48.38355" lon="7.28019">
        <ele>940</ele>
        <time>2020-09-06T11:05:51.378Z</time>
      </trkpt>
      <trkpt lat="48.38354" lon="7.28019">
        <ele>941</ele>
        <time>2020-09-06T11:05:52.378Z</time>
      </trkpt>
      <trkpt lat="48.38353" lon="7.2802">
        <ele>941</ele>
        <time>2020-09-06T11:05:53.378Z</time>
      </trkpt>
      <trkpt lat="48.38353" lon="7.2802">
        <ele>942</ele>
        <time>2020-09-06T11:05:54.378Z</time>
      </trkpt>
      <trkpt lat="48.38352" lon="7.2802">
        <ele>942</ele>
        <time>2020-09-06T11:05:55.377Z</time>
      </trkpt>
      <trkpt lat="48.38351" lon="7.2802">
        <ele>942</ele>
        <time>2020-09-06T11:05:56.378Z</time>
      </trkpt>
      <trkpt lat="48.3835" lon="7.28021">
        <ele>943</ele>
        <time>2020-09-06T11:05:57.378Z</time>
      </trkpt>
      <trkpt lat="48.38349" lon="7.28021">
        <ele>943</ele>
        <time>2020-09-06T11:05:58.378Z</time>
      </trkpt>
      <trkpt lat="48.38349" lon="7.28021">
        <ele>944</ele>
        <time>2020-09-06T11:05:59.378Z</time>
      </trkpt>
      <trkpt lat="48.38349" lon="7.28022">
        <ele>944</ele>
        <time>2020-09-06T11:06:00.378Z</time>
      </trkpt>
      <trkpt lat="48.38347" lon="7.28025">
        <ele>946</ele>
        <time>2020-09-06T11:06:01.378Z</time>
      </trkpt>
      <trkpt lat="48.38346" lon="7.28027">
        <ele>946</ele>
        <time>2020-09-06T11:06:02.377Z</time>
      </trkpt>
      <trkpt lat="48.38345" lon="7.28029">
        <ele>947</ele>
        <time>2020-09-06T11:06:03.377Z</time>
      </trkpt>
      <trkpt lat="48.38344" lon="7.28031">
        <ele>947</ele>
        <time>2020-09-06T11:06:04.377Z</time>
      </trkpt>
      <trkpt lat="48.38343" lon="7.28033">
        <ele>947</ele>
        <time>2020-09-06T11:06:05.378Z</time>
      </trkpt>
      <trkpt lat="48.38342" lon="7.28036">
        <ele>947</ele>
        <time>2020-09-06T11:06:06.378Z</time>
      </trkpt>
      <trkpt lat="48.38341" lon="7.28038">
        <ele>947</ele>
        <time>2020-09-06T11:06:07.378Z</time>
      </trkpt>
      <trkpt lat="48.3834" lon="7.2804">
        <ele>947</ele>
        <time>2020-09-06T11:06:08.377Z</time>
      </trkpt>
      <trkpt lat="48.38338" lon="7.28041">
        <ele>947</ele>
        <time>2020-09-06T11:06:09.378Z</time>
      </trkpt>
      <trkpt lat="48.38337" lon="7.28042">
        <ele>947</ele>
        <time>2020-09-06T11:06:10.378Z</time>
      </trkpt>
      <trkpt lat="48.38335" lon="7.28043">
        <ele>947</ele>
        <time>2020-09-06T11:06:11.377Z</time>
      </trkpt>
      <trkpt lat="48.38334" lon="7.28043">
        <ele>947</ele>
        <time>2020-09-06T11:06:12.378Z</time>
      </trkpt>
      <trkpt lat="48.38332" lon="7.28043">
        <ele>947</ele>
        <time>2020-09-06T11:06:13.378Z</time>
      </trkpt>
      <trkpt lat="48.38331" lon="7.28043">
        <ele>946</ele>
        <time>2020-09-06T11:06:14.377Z</time>
      </trkpt>
      <trkpt lat="48.3833" lon="7.28043">
        <ele>947</ele>
        <time>2020-09-06T11:06:15.378Z</time>
      </trkpt>
      <trkpt lat="48.38329" lon="7.28043">
        <ele>946</ele>
        <time>2020-09-06T11:06:16.378Z</time>
      </trkpt>
      <trkpt lat="48.38328" lon="7.28042">
        <ele>946</ele>
        <time>2020-09-06T11:06:17.377Z</time>
      </trkpt>
      <trkpt lat="48.38327" lon="7.28041">
        <ele>946</ele>
        <time>2020-09-06T11:06:18.378Z</time>
      </trkpt>
      <trkpt lat="48.38327" lon="7.2804">
        <ele>946</ele>
        <time>2020-09-06T11:06:19.378Z</time>
      </trkpt>
      <trkpt lat="48.38327" lon="7.2804">
        <ele>947</ele>
        <time>2020-09-06T11:06:20.378Z</time>
      </trkpt>
      <trkpt lat="48.38329" lon="7.28039">
        <ele>936</ele>
        <time>2020-09-06T11:06:21.377Z</time>
      </trkpt>
      <trkpt lat="48.38328" lon="7.28038">
        <ele>936</ele>
        <time>2020-09-06T11:06:22.378Z</time>
      </trkpt>
      <trkpt lat="48.38328" lon="7.28039">
        <ele>936</ele>
        <time>2020-09-06T11:06:23.378Z</time>
      </trkpt>
      <trkpt lat="48.38328" lon="7.28039">
        <ele>936</ele>
        <time>2020-09-06T11:06:24.378Z</time>
      </trkpt>
      <trkpt lat="48.3833" lon="7.28045">
        <ele>938</ele>
        <time>2020-09-06T11:06:25.379Z</time>
      </trkpt>
      <trkpt lat="48.3833" lon="7.28045">
        <ele>938</ele>
        <time>2020-09-06T11:06:26.380Z</time>
      </trkpt>
      <trkpt lat="48.3833" lon="7.28045">
        <ele>939</ele>
        <time>2020-09-06T11:06:27.379Z</time>
      </trkpt>
      <trkpt lat="48.38331" lon="7.28045">
        <ele>939</ele>
        <time>2020-09-06T11:06:28.380Z</time>
      </trkpt>
      <trkpt lat="48.3833" lon="7.28045">
        <ele>939</ele>
        <time>2020-09-06T11:06:29.380Z</time>
      </trkpt>
      <trkpt lat="48.38334" lon="7.2805">
        <ele>935</ele>
        <time>2020-09-06T11:06:30.380Z</time>
      </trkpt>
      <trkpt lat="48.38335" lon="7.28053">
        <ele>936</ele>
        <time>2020-09-06T11:06:31.380Z</time>
      </trkpt>
      <trkpt lat="48.38336" lon="7.28056">
        <ele>936</ele>
        <time>2020-09-06T11:06:32.380Z</time>
      </trkpt>
      <trkpt lat="48.38338" lon="7.28058">
        <ele>936</ele>
        <time>2020-09-06T11:06:33.380Z</time>
      </trkpt>
      <trkpt lat="48.38339" lon="7.28061">
        <ele>936</ele>
        <time>2020-09-06T11:06:34.380Z</time>
      </trkpt>
      <trkpt lat="48.38339" lon="7.28063">
        <ele>936</ele>
        <time>2020-09-06T11:06:35.380Z</time>
      </trkpt>
      <trkpt lat="48.38341" lon="7.28065">
        <ele>937</ele>
        <time>2020-09-06T11:06:36.380Z</time>
      </trkpt>
      <trkpt lat="48.38341" lon="7.28067">
        <ele>938</ele>
        <time>2020-09-06T11:06:37.380Z</time>
      </trkpt>
      <trkpt lat="48.38342" lon="7.28068">
        <ele>938</ele>
        <time>2020-09-06T11:06:38.380Z</time>
      </trkpt>
      <trkpt lat="48.38342" lon="7.28068">
        <ele>939</ele>
        <time>2020-09-06T11:06:39.380Z</time>
      </trkpt>
      <trkpt lat="48.38342" lon="7.28069">
        <ele>940</ele>
        <time>2020-09-06T11:06:40.380Z</time>
      </trkpt>
      <trkpt lat="48.38343" lon="7.28069">
        <ele>941</ele>
        <time>2020-09-06T11:06:41.380Z</time>
      </trkpt>
      <trkpt lat="48.38344" lon="7.2807">
        <ele>942</ele>
        <time>2020-09-06T11:06:42.380Z</time>
      </trkpt>
      <trkpt lat="48.38345" lon="7.28072">
        <ele>943</ele>
        <time>2020-09-06T11:06:43.380Z</time>
      </trkpt>
      <trkpt lat="48.38346" lon="7.28073">
        <ele>944</ele>
        <time>2020-09-06T11:06:44.380Z</time>
      </trkpt>
      <trkpt lat="48.38346" lon="7.28074">
        <ele>944</ele>
        <time>2020-09-06T11:06:45.380Z</time>
      </trkpt>
      <trkpt lat="48.38347" lon="7.28075">
        <ele>945</ele>
        <time>2020-09-06T11:06:46.380Z</time>
      </trkpt>
      <trkpt lat="48.38348" lon="7.28076">
        <ele>945</ele>
        <time>2020-09-06T11:06:47.380Z</time>
      </trkpt>
      <trkpt lat="48.38348" lon="7.28078">
        <ele>946</ele>
        <time>2020-09-06T11:06:48.380Z</time>
      </trkpt>
      <trkpt lat="48.38349" lon="7.28079">
        <ele>946</ele>
        <time>2020-09-06T11:06:49.380Z</time>
      </trkpt>
      <trkpt lat="48.38349" lon="7.28081">
        <ele>946</ele>
        <time>2020-09-06T11:06:50.380Z</time>
      </trkpt>
      <trkpt lat="48.38349" lon="7.28083">
        <ele>947</ele>
        <time>2020-09-06T11:06:51.380Z</time>
      </trkpt>
      <trkpt lat="48.3835" lon="7.28085">
        <ele>948</ele>
        <time>2020-09-06T11:06:52.380Z</time>
      </trkpt>
      <trkpt lat="48.38351" lon="7.28086">
        <ele>949</ele>
        <time>2020-09-06T11:06:53.380Z</time>
      </trkpt>
      <trkpt lat="48.38351" lon="7.28088">
        <ele>949</ele>
        <time>2020-09-06T11:06:54.380Z</time>
      </trkpt>
      <trkpt lat="48.38351" lon="7.28089">
        <ele>949</ele>
        <time>2020-09-06T11:06:55.380Z</time>
      </trkpt>
      <trkpt lat="48.38351" lon="7.28091">
        <ele>950</ele>
        <time>2020-09-06T11:06:56.380Z</time>
      </trkpt>
      <trkpt lat="48.38352" lon="7.28094">
        <ele>950</ele>
        <time>2020-09-06T11:06:57.380Z</time>
      </trkpt>
      <trkpt lat="48.38352" lon="7.28096">
        <ele>950</ele>
        <time>2020-09-06T11:06:58.380Z</time>
      </trkpt>
      <trkpt lat="48.38353" lon="7.28097">
        <ele>950</ele>
        <time>2020-09-06T11:06:59.380Z</time>
      </trkpt>
      <trkpt lat="48.38355" lon="7.28098">
        <ele>951</ele>
        <time>2020-09-06T11:07:00.380Z</time>
      </trkpt>
      <trkpt lat="48.38355" lon="7.28098">
        <ele>951</ele>
        <time>2020-09-06T11:07:01.380Z</time>
      </trkpt>
      <trkpt lat="48.38356" lon="7.281">
        <ele>952</ele>
        <time>2020-09-06T11:07:02.380Z</time>
      </trkpt>
      <trkpt lat="48.38357" lon="7.28101">
        <ele>952</ele>
        <time>2020-09-06T11:07:03.380Z</time>
      </trkpt>
      <trkpt lat="48.38358" lon="7.28102">
        <ele>952</ele>
        <time>2020-09-06T11:07:04.380Z</time>
      </trkpt>
      <trkpt lat="48.38359" lon="7.28103">
        <ele>953</ele>
        <time>2020-09-06T11:07:05.380Z</time>
      </trkpt>
      <trkpt lat="48.38361" lon="7.28104">
        <ele>953</ele>
        <time>2020-09-06T11:07:06.380Z</time>
      </trkpt>
      <trkpt lat="48.38362" lon="7.28105">
        <ele>954</ele>
        <time>2020-09-06T11:07:07.380Z</time>
      </trkpt>
      <trkpt lat="48.38363" lon="7.28106">
        <ele>955</ele>
        <time>2020-09-06T11:07:08.380Z</time>
      </trkpt>
      <trkpt lat="48.38364" lon="7.28106">
        <ele>955</ele>
        <time>2020-09-06T11:07:09.380Z</time>
      </trkpt>
      <trkpt lat="48.38364" lon="7.28106">
        <ele>956</ele>
        <time>2020-09-06T11:07:10.380Z</time>
      </trkpt>
      <trkpt lat="48.38363" lon="7.28106">
        <ele>956</ele>
        <time>2020-09-06T11:07:11.380Z</time>
      </trkpt>
      <trkpt lat="48.38362" lon="7.28105">
        <ele>957</ele>
        <time>2020-09-06T11:07:12.380Z</time>
      </trkpt>
      <trkpt lat="48.38361" lon="7.28106">
        <ele>957</ele>
        <time>2020-09-06T11:07:13.380Z</time>
      </trkpt>
      <trkpt lat="48.38362" lon="7.28107">
        <ele>957</ele>
        <time>2020-09-06T11:07:14.380Z</time>
      </trkpt>
      <trkpt lat="48.38362" lon="7.28108">
        <ele>958</ele>
        <time>2020-09-06T11:07:15.380Z</time>
      </trkpt>
      <trkpt lat="48.38363" lon="7.2811">
        <ele>958</ele>
        <time>2020-09-06T11:07:16.380Z</time>
      </trkpt>
      <trkpt lat="48.38364" lon="7.28112">
        <ele>958</ele>
        <time>2020-09-06T11:07:17.380Z</time>
      </trkpt>
      <trkpt lat="48.38364" lon="7.28113">
        <ele>958</ele>
        <time>2020-09-06T11:07:18.380Z</time>
      </trkpt>
      <trkpt lat="48.38364" lon="7.28114">
        <ele>958</ele>
        <time>2020-09-06T11:07:19.380Z</time>
      </trkpt>
      <trkpt lat="48.38365" lon="7.28115">
        <ele>958</ele>
        <time>2020-09-06T11:07:20.380Z</time>
      </trkpt>
      <trkpt lat="48.38365" lon="7.28117">
        <ele>958</ele>
        <time>2020-09-06T11:07:21.380Z</time>
      </trkpt>
      <trkpt lat="48.38365" lon="7.28118">
        <ele>958</ele>
        <time>2020-09-06T11:07:22.380Z</time>
      </trkpt>
      <trkpt lat="48.38366" lon="7.2812">
        <ele>959</ele>
        <time>2020-09-06T11:07:23.380Z</time>
      </trkpt>
      <trkpt lat="48.38366" lon="7.28121">
        <ele>959</ele>
        <time>2020-09-06T11:07:24.380Z</time>
      </trkpt>
      <trkpt lat="48.38366" lon="7.28123">
        <ele>959</ele>
        <time>2020-09-06T11:07:25.380Z</time>
      </trkpt>
      <trkpt lat="48.38366" lon="7.28124">
        <ele>959</ele>
        <time>2020-09-06T11:07:26.380Z</time>
      </trkpt>
      <trkpt lat="48.38366" lon="7.28126">
        <ele>960</ele>
        <time>2020-09-06T11:07:27.380Z</time>
      </trkpt>
      <trkpt lat="48.38367" lon="7.28127">
        <ele>959</ele>
        <time>2020-09-06T11:07:28.380Z</time>
      </trkpt>
      <trkpt lat="48.38367" lon="7.28128">
        <ele>959</ele>
        <time>2020-09-06T11:07:29.380Z</time>
      </trkpt>
      <trkpt lat="48.38368" lon="7.2813">
        <ele>959</ele>
        <time>2020-09-06T11:07:35.466Z</time>
      </trkpt>
      <trkpt lat="48.38369" lon="7.28131">
        <ele>959</ele>
        <time>2020-09-06T11:07:36.466Z</time>
      </trkpt>
      <trkpt lat="48.38369" lon="7.28133">
        <ele>959</ele>
        <time>2020-09-06T11:07:37.466Z</time>
      </trkpt>
      <trkpt lat="48.3837" lon="7.28134">
        <ele>959</ele>
        <time>2020-09-06T11:11:29.557Z</time>
      </trkpt>
      <trkpt lat="48.38371" lon="7.28136">
        <ele>959</ele>
        <time>2020-09-06T11:11:35.445Z</time>
      </trkpt>
      <trkpt lat="48.38371" lon="7.28138">
        <ele>959</ele>
        <time>2020-09-06T11:11:39.324Z</time>
      </trkpt>
      <trkpt lat="48.38372" lon="7.2814">
        <ele>959</ele>
        <time>2020-09-06T11:11:40.324Z</time>
      </trkpt>
      <trkpt lat="48.38372" lon="7.28142">
        <ele>959</ele>
        <time>2020-09-06T11:11:41.324Z</time>
      </trkpt>
      <trkpt lat="48.38372" lon="7.28144">
        <ele>960</ele>
        <time>2020-09-06T11:11:42.324Z</time>
      </trkpt>
      <trkpt lat="48.38372" lon="7.28147">
        <ele>959</ele>
        <time>2020-09-06T11:11:49.440Z</time>
      </trkpt>
      <trkpt lat="48.38371" lon="7.28149">
        <ele>959</ele>
        <time>2020-09-06T11:11:50.440Z</time>
      </trkpt>
      <trkpt lat="48.38372" lon="7.28151">
        <ele>959</ele>
        <time>2020-09-06T11:11:51.440Z</time>
      </trkpt>
      <trkpt lat="48.38371" lon="7.28153">
        <ele>959</ele>
        <time>2020-09-06T11:11:52.440Z</time>
      </trkpt>
      <trkpt lat="48.38371" lon="7.28155">
        <ele>960</ele>
        <time>2020-09-06T11:11:53.440Z</time>
      </trkpt>
      <trkpt lat="48.38371" lon="7.28156">
        <ele>960</ele>
        <time>2020-09-06T11:11:54.440Z</time>
      </trkpt>
      <trkpt lat="48.38371" lon="7.28158">
        <ele>960</ele>
        <time>2020-09-06T11:12:19.560Z</time>
      </trkpt>
      <trkpt lat="48.38371" lon="7.28161">
        <ele>961</ele>
        <time>2020-09-06T11:12:20.560Z</time>
      </trkpt>
      <trkpt lat="48.3837" lon="7.28164">
        <ele>961</ele>
        <time>2020-09-06T11:12:26.450Z</time>
      </trkpt>
      <trkpt lat="48.3837" lon="7.28166">
        <ele>961</ele>
        <time>2020-09-06T11:12:27.450Z</time>
      </trkpt>
      <trkpt lat="48.3837" lon="7.28168">
        <ele>961</ele>
        <time>2020-09-06T11:12:28.450Z</time>
      </trkpt>
      <trkpt lat="48.3837" lon="7.28171">
        <ele>961</ele>
        <time>2020-09-06T11:12:53.576Z</time>
      </trkpt>
      <trkpt lat="48.3837" lon="7.28174">
        <ele>962</ele>
        <time>2020-09-06T11:15:05.784Z</time>
      </trkpt>
      <trkpt lat="48.3837" lon="7.28177">
        <ele>962</ele>
        <time>2020-09-06T11:15:06.784Z</time>
      </trkpt>
      <trkpt lat="48.38372" lon="7.28179">
        <ele>962</ele>
        <time>2020-09-06T11:15:07.784Z</time>
      </trkpt>
      <trkpt lat="48.38373" lon="7.2818">
        <ele>962</ele>
        <time>2020-09-06T11:15:08.784Z</time>
      </trkpt>
      <trkpt lat="48.38374" lon="7.28181">
        <ele>962</ele>
        <time>2020-09-06T11:15:09.784Z</time>
      </trkpt>
      <trkpt lat="48.38375" lon="7.28183">
        <ele>962</ele>
        <time>2020-09-06T11:15:10.784Z</time>
      </trkpt>
      <trkpt lat="48.38375" lon="7.28185">
        <ele>962</ele>
        <time>2020-09-06T11:15:11.784Z</time>
      </trkpt>
      <trkpt lat="48.38374" lon="7.28187">
        <ele>962</ele>
        <time>2020-09-06T11:15:12.784Z</time>
      </trkpt>
      <trkpt lat="48.38374" lon="7.28189">
        <ele>962</ele>
        <time>2020-09-06T11:15:13.784Z</time>
      </trkpt>
      <trkpt lat="48.38373" lon="7.28191">
        <ele>963</ele>
        <time>2020-09-06T11:15:14.784Z</time>
      </trkpt>
      <trkpt lat="48.38373" lon="7.28192">
        <ele>962</ele>
        <time>2020-09-06T11:15:15.784Z</time>
      </trkpt>
      <trkpt lat="48.38372" lon="7.28194">
        <ele>962</ele>
        <time>2020-09-06T11:15:16.784Z</time>
      </trkpt>
      <trkpt lat="48.38372" lon="7.28194">
        <ele>962</ele>
        <time>2020-09-06T11:15:17.784Z</time>
      </trkpt>
      <trkpt lat="48.38372" lon="7.28195">
        <ele>962</ele>
        <time>2020-09-06T11:15:18.784Z</time>
      </trkpt>
      <trkpt lat="48.38372" lon="7.28196">
        <ele>962</ele>
        <time>2020-09-06T11:15:19.784Z</time>
      </trkpt>
      <trkpt lat="48.38372" lon="7.28197">
        <ele>963</ele>
        <time>2020-09-06T11:15:20.784Z</time>
      </trkpt>
      <trkpt lat="48.38373" lon="7.28198">
        <ele>963</ele>
        <time>2020-09-06T11:15:21.784Z</time>
      </trkpt>
      <trkpt lat="48.38373" lon="7.282">
        <ele>963</ele>
        <time>2020-09-06T11:15:22.784Z</time>
      </trkpt>
      <trkpt lat="48.38372" lon="7.28201">
        <ele>963</ele>
        <time>2020-09-06T11:15:23.784Z</time>
      </trkpt>
      <trkpt lat="48.38372" lon="7.28202">
        <ele>963</ele>
        <time>2020-09-06T11:15:24.784Z</time>
      </trkpt>
      <trkpt lat="48.38372" lon="7.28203">
        <ele>963</ele>
        <time>2020-09-06T11:15:25.784Z</time>
      </trkpt>
      <trkpt lat="48.38372" lon="7.28205">
        <ele>962</ele>
        <time>2020-09-06T11:15:26.784Z</time>
      </trkpt>
      <trkpt lat="48.38372" lon="7.28206">
        <ele>962</ele>
        <time>2020-09-06T11:15:27.784Z</time>
      </trkpt>
      <trkpt lat="48.38372" lon="7.28208">
        <ele>962</ele>
        <time>2020-09-06T11:15:28.784Z</time>
      </trkpt>
      <trkpt lat="48.38372" lon="7.28209">
        <ele>962</ele>
        <time>2020-09-06T11:15:29.784Z</time>
      </trkpt>
      <trkpt lat="48.38372" lon="7.2821">
        <ele>962</ele>
        <time>2020-09-06T11:15:30.784Z</time>
      </trkpt>
      <trkpt lat="48.38372" lon="7.28212">
        <ele>962</ele>
        <time>2020-09-06T11:15:31.784Z</time>
      </trkpt>
      <trkpt lat="48.38372" lon="7.28214">
        <ele>962</ele>
        <time>2020-09-06T11:15:32.784Z</time>
      </trkpt>
      <trkpt lat="48.38372" lon="7.28217">
        <ele>962</ele>
        <time>2020-09-06T11:15:33.784Z</time>
      </trkpt>
      <trkpt lat="48.38373" lon="7.28218">
        <ele>962</ele>
        <time>2020-09-06T11:15:34.784Z</time>
      </trkpt>
      <trkpt lat="48.38373" lon="7.28219">
        <ele>962</ele>
        <time>2020-09-06T11:15:35.784Z</time>
      </trkpt>
      <trkpt lat="48.38373" lon="7.2822">
        <ele>962</ele>
        <time>2020-09-06T11:15:36.784Z</time>
      </trkpt>
      <trkpt lat="48.38373" lon="7.28223">
        <ele>963</ele>
        <time>2020-09-06T11:15:37.784Z</time>
      </trkpt>
      <trkpt lat="48.38373" lon="7.28225">
        <ele>963</ele>
        <time>2020-09-06T11:15:38.784Z</time>
      </trkpt>
      <trkpt lat="48.38374" lon="7.28227">
        <ele>963</ele>
        <time>2020-09-06T11:15:39.784Z</time>
      </trkpt>
      <trkpt lat="48.38374" lon="7.28229">
        <ele>963</ele>
        <time>2020-09-06T11:15:40.784Z</time>
      </trkpt>
      <trkpt lat="48.38375" lon="7.28231">
        <ele>963</ele>
        <time>2020-09-06T11:15:41.784Z</time>
      </trkpt>
      <trkpt lat="48.38375" lon="7.28232">
        <ele>963</ele>
        <time>2020-09-06T11:15:42.784Z</time>
      </trkpt>
      <trkpt lat="48.38376" lon="7.28234">
        <ele>963</ele>
        <time>2020-09-06T11:15:43.784Z</time>
      </trkpt>
      <trkpt lat="48.38376" lon="7.28236">
        <ele>963</ele>
        <time>2020-09-06T11:15:44.784Z</time>
      </trkpt>
      <trkpt lat="48.38377" lon="7.28238">
        <ele>963</ele>
        <time>2020-09-06T11:15:45.784Z</time>
      </trkpt>
      <trkpt lat="48.38377" lon="7.28239">
        <ele>963</ele>
        <time>2020-09-06T11:15:46.784Z</time>
      </trkpt>
      <trkpt lat="48.38377" lon="7.28241">
        <ele>963</ele>
        <time>2020-09-06T11:15:47.784Z</time>
      </trkpt>
      <trkpt lat="48.38377" lon="7.28242">
        <ele>962</ele>
        <time>2020-09-06T11:15:48.784Z</time>
      </trkpt>
      <trkpt lat="48.38377" lon="7.28244">
        <ele>961</ele>
        <time>2020-09-06T11:15:49.784Z</time>
      </trkpt>
      <trkpt lat="48.38378" lon="7.28245">
        <ele>961</ele>
        <time>2020-09-06T11:15:50.784Z</time>
      </trkpt>
      <trkpt lat="48.38377" lon="7.28246">
        <ele>960</ele>
        <time>2020-09-06T11:15:51.784Z</time>
      </trkpt>
      <trkpt lat="48.38377" lon="7.28247">
        <ele>960</ele>
        <time>2020-09-06T11:15:52.784Z</time>
      </trkpt>
      <trkpt lat="48.38375" lon="7.28255">
        <ele>957</ele>
        <time>2020-09-06T11:15:53.784Z</time>
      </trkpt>
      <trkpt lat="48.38374" lon="7.28254">
        <ele>957</ele>
        <time>2020-09-06T11:15:54.784Z</time>
      </trkpt>
      <trkpt lat="48.38374" lon="7.28253">
        <ele>956</ele>
        <time>2020-09-06T11:15:55.785Z</time>
      </trkpt>
      <trkpt lat="48.38374" lon="7.28252">
        <ele>955</ele>
        <time>2020-09-06T11:15:56.785Z</time>
      </trkpt>
      <trkpt lat="48.38374" lon="7.28252">
        <ele>955</ele>
        <time>2020-09-06T11:15:57.785Z</time>
      </trkpt>
      <trkpt lat="48.38373" lon="7.28252">
        <ele>955</ele>
        <time>2020-09-06T11:15:58.785Z</time>
      </trkpt>
      <trkpt lat="48.38373" lon="7.28251">
        <ele>954</ele>
        <time>2020-09-06T11:15:59.784Z</time>
      </trkpt>
      <trkpt lat="48.38373" lon="7.2825">
        <ele>957</ele>
        <time>2020-09-06T11:16:00.784Z</time>
      </trkpt>
      <trkpt lat="48.38374" lon="7.28248">
        <ele>957</ele>
        <time>2020-09-06T11:16:01.785Z</time>
      </trkpt>
      <trkpt lat="48.38373" lon="7.28247">
        <ele>957</ele>
        <time>2020-09-06T11:16:02.786Z</time>
      </trkpt>
      <trkpt lat="48.38372" lon="7.28247">
        <ele>957</ele>
        <time>2020-09-06T11:16:03.786Z</time>
      </trkpt>
      <trkpt lat="48.38372" lon="7.28246">
        <ele>957</ele>
        <time>2020-09-06T11:16:04.786Z</time>
      </trkpt>
      <trkpt lat="48.38371" lon="7.28246">
        <ele>956</ele>
        <time>2020-09-06T11:16:05.786Z</time>
      </trkpt>
      <trkpt lat="48.38371" lon="7.28245">
        <ele>956</ele>
        <time>2020-09-06T11:16:06.786Z</time>
      </trkpt>
      <trkpt lat="48.3837" lon="7.28246">
        <ele>955</ele>
        <time>2020-09-06T11:16:07.785Z</time>
      </trkpt>
      <trkpt lat="48.3837" lon="7.28247">
        <ele>955</ele>
        <time>2020-09-06T11:16:08.785Z</time>
      </trkpt>
      <trkpt lat="48.38371" lon="7.28243">
        <ele>954</ele>
        <time>2020-09-06T11:16:09.786Z</time>
      </trkpt>
      <trkpt lat="48.3837" lon="7.28236">
        <ele>959</ele>
        <time>2020-09-06T11:16:10.786Z</time>
      </trkpt>
      <trkpt lat="48.38369" lon="7.28236">
        <ele>959</ele>
        <time>2020-09-06T11:16:11.785Z</time>
      </trkpt>
      <trkpt lat="48.38369" lon="7.28234">
        <ele>959</ele>
        <time>2020-09-06T11:16:12.785Z</time>
      </trkpt>
      <trkpt lat="48.38368" lon="7.28232">
        <ele>959</ele>
        <time>2020-09-06T11:16:13.785Z</time>
      </trkpt>
      <trkpt lat="48.38367" lon="7.2823">
        <ele>959</ele>
        <time>2020-09-06T11:16:14.785Z</time>
      </trkpt>
      <trkpt lat="48.38367" lon="7.28227">
        <ele>959</ele>
        <time>2020-09-06T11:16:15.785Z</time>
      </trkpt>
      <trkpt lat="48.38367" lon="7.28225">
        <ele>959</ele>
        <time>2020-09-06T11:16:16.786Z</time>
      </trkpt>
      <trkpt lat="48.38366" lon="7.28224">
        <ele>958</ele>
        <time>2020-09-06T11:16:17.786Z</time>
      </trkpt>
      <trkpt lat="48.38366" lon="7.28223">
        <ele>958</ele>
        <time>2020-09-06T11:16:18.786Z</time>
      </trkpt>
      <trkpt lat="48.38366" lon="7.28221">
        <ele>958</ele>
        <time>2020-09-06T11:16:19.786Z</time>
      </trkpt>
      <trkpt lat="48.38365" lon="7.2822">
        <ele>957</ele>
        <time>2020-09-06T11:16:20.786Z</time>
      </trkpt>
      <trkpt lat="48.38365" lon="7.28219">
        <ele>957</ele>
        <time>2020-09-06T11:16:21.786Z</time>
      </trkpt>
      <trkpt lat="48.38365" lon="7.28216">
        <ele>957</ele>
        <time>2020-09-06T11:16:22.785Z</time>
      </trkpt>
      <trkpt lat="48.38365" lon="7.28215">
        <ele>957</ele>
        <time>2020-09-06T11:16:23.785Z</time>
      </trkpt>
      <trkpt lat="48.38364" lon="7.28213">
        <ele>956</ele>
        <time>2020-09-06T11:16:24.786Z</time>
      </trkpt>
      <trkpt lat="48.38364" lon="7.28212">
        <ele>956</ele>
        <time>2020-09-06T11:16:25.785Z</time>
      </trkpt>
      <trkpt lat="48.38364" lon="7.28211">
        <ele>956</ele>
        <time>2020-09-06T11:16:26.786Z</time>
      </trkpt>
      <trkpt lat="48.38364" lon="7.2821">
        <ele>955</ele>
        <time>2020-09-06T11:16:27.786Z</time>
      </trkpt>
      <trkpt lat="48.38364" lon="7.28209">
        <ele>954</ele>
        <time>2020-09-06T11:16:28.786Z</time>
      </trkpt>
      <trkpt lat="48.38364" lon="7.28208">
        <ele>954</ele>
        <time>2020-09-06T11:16:29.786Z</time>
      </trkpt>
      <trkpt lat="48.38364" lon="7.28206">
        <ele>954</ele>
        <time>2020-09-06T11:16:30.786Z</time>
      </trkpt>
      <trkpt lat="48.38365" lon="7.28205">
        <ele>953</ele>
        <time>2020-09-06T11:16:31.786Z</time>
      </trkpt>
      <trkpt lat="48.38365" lon="7.28204">
        <ele>953</ele>
        <time>2020-09-06T11:16:32.786Z</time>
      </trkpt>
      <trkpt lat="48.38365" lon="7.28203">
        <ele>953</ele>
        <time>2020-09-06T11:16:33.786Z</time>
      </trkpt>
      <trkpt lat="48.38365" lon="7.28202">
        <ele>953</ele>
        <time>2020-09-06T11:16:34.786Z</time>
      </trkpt>
      <trkpt lat="48.38366" lon="7.28201">
        <ele>953</ele>
        <time>2020-09-06T11:16:35.786Z</time>
      </trkpt>
      <trkpt lat="48.38366" lon="7.282">
        <ele>953</ele>
        <time>2020-09-06T11:16:36.786Z</time>
      </trkpt>
      <trkpt lat="48.38366" lon="7.28199">
        <ele>953</ele>
        <time>2020-09-06T11:16:37.785Z</time>
      </trkpt>
      <trkpt lat="48.38366" lon="7.28197">
        <ele>954</ele>
        <time>2020-09-06T11:16:38.786Z</time>
      </trkpt>
      <trkpt lat="48.38366" lon="7.28196">
        <ele>954</ele>
        <time>2020-09-06T11:16:39.786Z</time>
      </trkpt>
      <trkpt lat="48.38365" lon="7.28194">
        <ele>955</ele>
        <time>2020-09-06T11:16:40.786Z</time>
      </trkpt>
      <trkpt lat="48.38365" lon="7.28192">
        <ele>956</ele>
        <time>2020-09-06T11:16:41.785Z</time>
      </trkpt>
      <trkpt lat="48.38365" lon="7.2819">
        <ele>956</ele>
        <time>2020-09-06T11:16:42.785Z</time>
      </trkpt>
      <trkpt lat="48.38365" lon="7.28187">
        <ele>956</ele>
        <time>2020-09-06T11:16:43.786Z</time>
      </trkpt>
      <trkpt lat="48.38365" lon="7.28185">
        <ele>956</ele>
        <time>2020-09-06T11:16:44.785Z</time>
      </trkpt>
      <trkpt lat="48.38366" lon="7.28183">
        <ele>957</ele>
        <time>2020-09-06T11:16:45.785Z</time>
      </trkpt>
      <trkpt lat="48.38366" lon="7.28182">
        <ele>957</ele>
        <time>2020-09-06T11:16:46.785Z</time>
      </trkpt>
      <trkpt lat="48.38367" lon="7.2818">
        <ele>957</ele>
        <time>2020-09-06T11:16:47.786Z</time>
      </trkpt>
      <trkpt lat="48.38367" lon="7.28178">
        <ele>957</ele>
        <time>2020-09-06T11:16:48.786Z</time>
      </trkpt>
      <trkpt lat="48.38366" lon="7.28177">
        <ele>957</ele>
        <time>2020-09-06T11:16:49.786Z</time>
      </trkpt>
      <trkpt lat="48.38365" lon="7.28176">
        <ele>957</ele>
        <time>2020-09-06T11:16:50.785Z</time>
      </trkpt>
      <trkpt lat="48.38364" lon="7.28176">
        <ele>957</ele>
        <time>2020-09-06T11:16:51.786Z</time>
      </trkpt>
      <trkpt lat="48.38364" lon="7.28175">
        <ele>958</ele>
        <time>2020-09-06T11:16:52.786Z</time>
      </trkpt>
      <trkpt lat="48.38364" lon="7.28173">
        <ele>958</ele>
        <time>2020-09-06T11:16:53.785Z</time>
      </trkpt>
      <trkpt lat="48.38364" lon="7.28172">
        <ele>958</ele>
        <time>2020-09-06T11:16:54.786Z</time>
      </trkpt>
      <trkpt lat="48.38364" lon="7.2817">
        <ele>958</ele>
        <time>2020-09-06T11:16:55.786Z</time>
      </trkpt>
      <trkpt lat="48.38364" lon="7.28168">
        <ele>957</ele>
        <time>2020-09-06T11:16:56.786Z</time>
      </trkpt>
      <trkpt lat="48.38365" lon="7.28167">
        <ele>957</ele>
        <time>2020-09-06T11:16:57.786Z</time>
      </trkpt>
      <trkpt lat="48.38365" lon="7.28166">
        <ele>957</ele>
        <time>2020-09-06T11:16:58.785Z</time>
      </trkpt>
      <trkpt lat="48.38365" lon="7.28164">
        <ele>957</ele>
        <time>2020-09-06T11:16:59.786Z</time>
      </trkpt>
      <trkpt lat="48.38366" lon="7.28163">
        <ele>957</ele>
        <time>2020-09-06T11:17:00.786Z</time>
      </trkpt>
      <trkpt lat="48.38366" lon="7.28162">
        <ele>957</ele>
        <time>2020-09-06T11:17:01.786Z</time>
      </trkpt>
      <trkpt lat="48.38366" lon="7.2816">
        <ele>957</ele>
        <time>2020-09-06T11:17:02.786Z</time>
      </trkpt>
      <trkpt lat="48.38366" lon="7.28158">
        <ele>957</ele>
        <time>2020-09-06T11:17:03.786Z</time>
      </trkpt>
      <trkpt lat="48.38367" lon="7.28157">
        <ele>957</ele>
        <time>2020-09-06T11:17:04.786Z</time>
      </trkpt>
      <trkpt lat="48.38367" lon="7.28155">
        <ele>956</ele>
        <time>2020-09-06T11:17:05.785Z</time>
      </trkpt>
      <trkpt lat="48.38367" lon="7.28153">
        <ele>956</ele>
        <time>2020-09-06T11:17:06.786Z</time>
      </trkpt>
      <trkpt lat="48.38367" lon="7.28152">
        <ele>957</ele>
        <time>2020-09-06T11:17:07.786Z</time>
      </trkpt>
      <trkpt lat="48.38366" lon="7.2815">
        <ele>957</ele>
        <time>2020-09-06T11:17:08.785Z</time>
      </trkpt>
      <trkpt lat="48.38365" lon="7.28148">
        <ele>957</ele>
        <time>2020-09-06T11:17:09.785Z</time>
      </trkpt>
      <trkpt lat="48.38364" lon="7.28146">
        <ele>957</ele>
        <time>2020-09-06T11:17:10.786Z</time>
      </trkpt>
      <trkpt lat="48.38364" lon="7.28145">
        <ele>958</ele>
        <time>2020-09-06T11:17:11.786Z</time>
      </trkpt>
      <trkpt lat="48.38363" lon="7.28144">
        <ele>958</ele>
        <time>2020-09-06T11:17:12.786Z</time>
      </trkpt>
      <trkpt lat="48.38362" lon="7.28143">
        <ele>959</ele>
        <time>2020-09-06T11:17:13.786Z</time>
      </trkpt>
      <trkpt lat="48.38361" lon="7.28141">
        <ele>959</ele>
        <time>2020-09-06T11:17:14.785Z</time>
      </trkpt>
      <trkpt lat="48.38361" lon="7.2814">
        <ele>960</ele>
        <time>2020-09-06T11:17:15.786Z</time>
      </trkpt>
      <trkpt lat="48.38361" lon="7.28139">
        <ele>960</ele>
        <time>2020-09-06T11:17:16.786Z</time>
      </trkpt>
      <trkpt lat="48.38361" lon="7.28137">
        <ele>960</ele>
        <time>2020-09-06T11:17:17.786Z</time>
      </trkpt>
      <trkpt lat="48.38361" lon="7.28135">
        <ele>960</ele>
        <time>2020-09-06T11:17:18.786Z</time>
      </trkpt>
      <trkpt lat="48.38362" lon="7.28133">
        <ele>960</ele>
        <time>2020-09-06T11:17:19.786Z</time>
      </trkpt>
      <trkpt lat="48.38362" lon="7.28131">
        <ele>960</ele>
        <time>2020-09-06T11:17:20.785Z</time>
      </trkpt>
      <trkpt lat="48.38362" lon="7.2813">
        <ele>960</ele>
        <time>2020-09-06T11:17:21.786Z</time>
      </trkpt>
      <trkpt lat="48.38362" lon="7.28128">
        <ele>959</ele>
        <time>2020-09-06T11:17:22.786Z</time>
      </trkpt>
      <trkpt lat="48.38363" lon="7.28126">
        <ele>959</ele>
        <time>2020-09-06T11:17:23.786Z</time>
      </trkpt>
      <trkpt lat="48.38362" lon="7.28125">
        <ele>959</ele>
        <time>2020-09-06T11:17:24.786Z</time>
      </trkpt>
      <trkpt lat="48.38362" lon="7.28123">
        <ele>959</ele>
        <time>2020-09-06T11:17:25.786Z</time>
      </trkpt>
      <trkpt lat="48.38361" lon="7.28121">
        <ele>958</ele>
        <time>2020-09-06T11:17:26.786Z</time>
      </trkpt>
      <trkpt lat="48.3836" lon="7.28119">
        <ele>958</ele>
        <time>2020-09-06T11:17:27.786Z</time>
      </trkpt>
      <trkpt lat="48.3836" lon="7.28117">
        <ele>958</ele>
        <time>2020-09-06T11:17:28.786Z</time>
      </trkpt>
      <trkpt lat="48.3836" lon="7.28116">
        <ele>958</ele>
        <time>2020-09-06T11:17:29.786Z</time>
      </trkpt>
      <trkpt lat="48.38359" lon="7.28113">
        <ele>958</ele>
        <time>2020-09-06T11:17:30.785Z</time>
      </trkpt>
      <trkpt lat="48.38358" lon="7.28111">
        <ele>958</ele>
        <time>2020-09-06T11:17:31.785Z</time>
      </trkpt>
      <trkpt lat="48.38357" lon="7.28109">
        <ele>958</ele>
        <time>2020-09-06T11:17:32.786Z</time>
      </trkpt>
      <trkpt lat="48.38356" lon="7.28107">
        <ele>958</ele>
        <time>2020-09-06T11:17:33.786Z</time>
      </trkpt>
      <trkpt lat="48.38355" lon="7.28107">
        <ele>958</ele>
        <time>2020-09-06T11:17:34.786Z</time>
      </trkpt>
      <trkpt lat="48.38354" lon="7.28106">
        <ele>959</ele>
        <time>2020-09-06T11:17:35.786Z</time>
      </trkpt>
      <trkpt lat="48.38354" lon="7.28105">
        <ele>959</ele>
        <time>2020-09-06T11:17:36.786Z</time>
      </trkpt>
      <trkpt lat="48.38353" lon="7.28105">
        <ele>958</ele>
        <time>2020-09-06T11:17:37.786Z</time>
      </trkpt>
      <trkpt lat="48.38353" lon="7.28105">
        <ele>958</ele>
        <time>2020-09-06T11:17:38.786Z</time>
      </trkpt>
      <trkpt lat="48.38352" lon="7.28104">
        <ele>957</ele>
        <time>2020-09-06T11:17:39.786Z</time>
      </trkpt>
      <trkpt lat="48.38352" lon="7.28103">
        <ele>957</ele>
        <time>2020-09-06T11:17:40.786Z</time>
      </trkpt>
      <trkpt lat="48.38352" lon="7.28102">
        <ele>957</ele>
        <time>2020-09-06T11:17:41.785Z</time>
      </trkpt>
      <trkpt lat="48.38352" lon="7.28101">
        <ele>956</ele>
        <time>2020-09-06T11:17:42.786Z</time>
      </trkpt>
      <trkpt lat="48.38351" lon="7.28101">
        <ele>956</ele>
        <time>2020-09-06T11:17:43.785Z</time>
      </trkpt>
      <trkpt lat="48.38351" lon="7.281">
        <ele>956</ele>
        <time>2020-09-06T11:17:44.786Z</time>
      </trkpt>
      <trkpt lat="48.3835" lon="7.28098">
        <ele>955</ele>
        <time>2020-09-06T11:17:45.786Z</time>
      </trkpt>
      <trkpt lat="48.3835" lon="7.28097">
        <ele>955</ele>
        <time>2020-09-06T11:17:46.786Z</time>
      </trkpt>
      <trkpt lat="48.3835" lon="7.28095">
        <ele>954</ele>
        <time>2020-09-06T11:17:47.786Z</time>
      </trkpt>
      <trkpt lat="48.3835" lon="7.28094">
        <ele>954</ele>
        <time>2020-09-06T11:17:48.785Z</time>
      </trkpt>
      <trkpt lat="48.3835" lon="7.28092">
        <ele>954</ele>
        <time>2020-09-06T11:17:49.786Z</time>
      </trkpt>
      <trkpt lat="48.3835" lon="7.28091">
        <ele>954</ele>
        <time>2020-09-06T11:17:50.786Z</time>
      </trkpt>
      <trkpt lat="48.3835" lon="7.2809">
        <ele>953</ele>
        <time>2020-09-06T11:17:51.785Z</time>
      </trkpt>
      <trkpt lat="48.38349" lon="7.28087">
        <ele>953</ele>
        <time>2020-09-06T11:17:52.785Z</time>
      </trkpt>
      <trkpt lat="48.38349" lon="7.28085">
        <ele>952</ele>
        <time>2020-09-06T11:17:53.786Z</time>
      </trkpt>
      <trkpt lat="48.38348" lon="7.28085">
        <ele>952</ele>
        <time>2020-09-06T11:17:54.785Z</time>
      </trkpt>
      <trkpt lat="48.38347" lon="7.28084">
        <ele>952</ele>
        <time>2020-09-06T11:17:55.786Z</time>
      </trkpt>
      <trkpt lat="48.38346" lon="7.28083">
        <ele>952</ele>
        <time>2020-09-06T11:17:56.785Z</time>
      </trkpt>
      <trkpt lat="48.38345" lon="7.28082">
        <ele>952</ele>
        <time>2020-09-06T11:17:57.785Z</time>
      </trkpt>
      <trkpt lat="48.38345" lon="7.2808">
        <ele>952</ele>
        <time>2020-09-06T11:17:58.786Z</time>
      </trkpt>
      <trkpt lat="48.38344" lon="7.28078">
        <ele>952</ele>
        <time>2020-09-06T11:17:59.785Z</time>
      </trkpt>
      <trkpt lat="48.38344" lon="7.28076">
        <ele>952</ele>
        <time>2020-09-06T11:18:00.786Z</time>
      </trkpt>
      <trkpt lat="48.38344" lon="7.28075">
        <ele>951</ele>
        <time>2020-09-06T11:18:01.785Z</time>
      </trkpt>
      <trkpt lat="48.38343" lon="7.28074">
        <ele>951</ele>
        <time>2020-09-06T11:18:02.786Z</time>
      </trkpt>
      <trkpt lat="48.38342" lon="7.28072">
        <ele>951</ele>
        <time>2020-09-06T11:18:03.786Z</time>
      </trkpt>
      <trkpt lat="48.38341" lon="7.28071">
        <ele>951</ele>
        <time>2020-09-06T11:18:04.786Z</time>
      </trkpt>
      <trkpt lat="48.38341" lon="7.2807">
        <ele>951</ele>
        <time>2020-09-06T11:18:05.786Z</time>
      </trkpt>
      <trkpt lat="48.3834" lon="7.2807">
        <ele>951</ele>
        <time>2020-09-06T11:18:06.786Z</time>
      </trkpt>
      <trkpt lat="48.3834" lon="7.28069">
        <ele>951</ele>
        <time>2020-09-06T11:18:07.785Z</time>
      </trkpt>
      <trkpt lat="48.38339" lon="7.28068">
        <ele>952</ele>
        <time>2020-09-06T11:18:08.786Z</time>
      </trkpt>
      <trkpt lat="48.38338" lon="7.28067">
        <ele>952</ele>
        <time>2020-09-06T11:18:09.786Z</time>
      </trkpt>
      <trkpt lat="48.38337" lon="7.28066">
        <ele>952</ele>
        <time>2020-09-06T11:18:10.786Z</time>
      </trkpt>
      <trkpt lat="48.38336" lon="7.28064">
        <ele>953</ele>
        <time>2020-09-06T11:18:11.786Z</time>
      </trkpt>
      <trkpt lat="48.38335" lon="7.28063">
        <ele>953</ele>
        <time>2020-09-06T11:18:12.786Z</time>
      </trkpt>
      <trkpt lat="48.38335" lon="7.28062">
        <ele>954</ele>
        <time>2020-09-06T11:18:13.785Z</time>
      </trkpt>
      <trkpt lat="48.38334" lon="7.2806">
        <ele>954</ele>
        <time>2020-09-06T11:18:14.786Z</time>
      </trkpt>
      <trkpt lat="48.38333" lon="7.28058">
        <ele>955</ele>
        <time>2020-09-06T11:18:15.786Z</time>
      </trkpt>
      <trkpt lat="48.38332" lon="7.28056">
        <ele>956</ele>
        <time>2020-09-06T11:18:28.814Z</time>
      </trkpt>
      <trkpt lat="48.38333" lon="7.28054">
        <ele>956</ele>
        <time>2020-09-06T11:18:29.814Z</time>
      </trkpt>
      <trkpt lat="48.38333" lon="7.28052">
        <ele>955</ele>
        <time>2020-09-06T11:18:30.814Z</time>
      </trkpt>
      <trkpt lat="48.38333" lon="7.28051">
        <ele>954</ele>
        <time>2020-09-06T11:18:31.814Z</time>
      </trkpt>
      <trkpt lat="48.38332" lon="7.2805">
        <ele>953</ele>
        <time>2020-09-06T11:18:32.814Z</time>
      </trkpt>
      <trkpt lat="48.38331" lon="7.28049">
        <ele>953</ele>
        <time>2020-09-06T11:18:33.814Z</time>
      </trkpt>
      <trkpt lat="48.38331" lon="7.28047">
        <ele>952</ele>
        <time>2020-09-06T11:18:34.814Z</time>
      </trkpt>
      <trkpt lat="48.3833" lon="7.28045">
        <ele>952</ele>
        <time>2020-09-06T11:18:35.814Z</time>
      </trkpt>
      <trkpt lat="48.38328" lon="7.28044">
        <ele>952</ele>
        <time>2020-09-06T11:18:36.813Z</time>
      </trkpt>
      <trkpt lat="48.38327" lon="7.28044">
        <ele>952</ele>
        <time>2020-09-06T11:18:37.814Z</time>
      </trkpt>
      <trkpt lat="48.38326" lon="7.28044">
        <ele>952</ele>
        <time>2020-09-06T11:18:38.814Z</time>
      </trkpt>
      <trkpt lat="48.38327" lon="7.28044">
        <ele>951</ele>
        <time>2020-09-06T11:18:39.813Z</time>
      </trkpt>
      <trkpt lat="48.38327" lon="7.28044">
        <ele>951</ele>
        <time>2020-09-06T11:18:40.814Z</time>
      </trkpt>
      <trkpt lat="48.38327" lon="7.28043">
        <ele>951</ele>
        <time>2020-09-06T11:18:41.813Z</time>
      </trkpt>
      <trkpt lat="48.38327" lon="7.28042">
        <ele>950</ele>
        <time>2020-09-06T11:18:42.814Z</time>
      </trkpt>
      <trkpt lat="48.38327" lon="7.28042">
        <ele>949</ele>
        <time>2020-09-06T11:18:43.814Z</time>
      </trkpt>
      <trkpt lat="48.38327" lon="7.28043">
        <ele>948</ele>
        <time>2020-09-06T11:18:44.814Z</time>
      </trkpt>
      <trkpt lat="48.38326" lon="7.28045">
        <ele>946</ele>
        <time>2020-09-06T11:18:45.815Z</time>
      </trkpt>
      <trkpt lat="48.38326" lon="7.28046">
        <ele>946</ele>
        <time>2020-09-06T11:18:46.815Z</time>
      </trkpt>
      <trkpt lat="48.38325" lon="7.28047">
        <ele>945</ele>
        <time>2020-09-06T11:18:47.814Z</time>
      </trkpt>
      <trkpt lat="48.38325" lon="7.28048">
        <ele>945</ele>
        <time>2020-09-06T11:18:48.814Z</time>
      </trkpt>
      <trkpt lat="48.38324" lon="7.28049">
        <ele>944</ele>
        <time>2020-09-06T11:18:49.814Z</time>
      </trkpt>
      <trkpt lat="48.38324" lon="7.2805">
        <ele>943</ele>
        <time>2020-09-06T11:18:50.815Z</time>
      </trkpt>
      <trkpt lat="48.38323" lon="7.28051">
        <ele>943</ele>
        <time>2020-09-06T11:18:51.815Z</time>
      </trkpt>
      <trkpt lat="48.38323" lon="7.28053">
        <ele>942</ele>
        <time>2020-09-06T11:18:52.815Z</time>
      </trkpt>
      <trkpt lat="48.38322" lon="7.28054">
        <ele>942</ele>
        <time>2020-09-06T11:18:53.815Z</time>
      </trkpt>
      <trkpt lat="48.38322" lon="7.28056">
        <ele>941</ele>
        <time>2020-09-06T11:18:54.815Z</time>
      </trkpt>
      <trkpt lat="48.38321" lon="7.28058">
        <ele>941</ele>
        <time>2020-09-06T11:18:55.815Z</time>
      </trkpt>
      <trkpt lat="48.38321" lon="7.28059">
        <ele>940</ele>
        <time>2020-09-06T11:18:56.815Z</time>
      </trkpt>
      <trkpt lat="48.3832" lon="7.28061">
        <ele>940</ele>
        <time>2020-09-06T11:18:57.814Z</time>
      </trkpt>
      <trkpt lat="48.38319" lon="7.28063">
        <ele>939</ele>
        <time>2020-09-06T11:18:58.814Z</time>
      </trkpt>
      <trkpt lat="48.38318" lon="7.28065">
        <ele>939</ele>
        <time>2020-09-06T11:18:59.814Z</time>
      </trkpt>
      <trkpt lat="48.38318" lon="7.28067">
        <ele>938</ele>
        <time>2020-09-06T11:19:00.815Z</time>
      </trkpt>
      <trkpt lat="48.38317" lon="7.28069">
        <ele>938</ele>
        <time>2020-09-06T11:19:01.815Z</time>
      </trkpt>
      <trkpt lat="48.38317" lon="7.2807">
        <ele>938</ele>
        <time>2020-09-06T11:19:02.815Z</time>
      </trkpt>
      <trkpt lat="48.38316" lon="7.28072">
        <ele>937</ele>
        <time>2020-09-06T11:19:03.815Z</time>
      </trkpt>
      <trkpt lat="48.38316" lon="7.28073">
        <ele>937</ele>
        <time>2020-09-06T11:19:04.815Z</time>
      </trkpt>
      <trkpt lat="48.38315" lon="7.28075">
        <ele>937</ele>
        <time>2020-09-06T11:19:05.815Z</time>
      </trkpt>
      <trkpt lat="48.38315" lon="7.28076">
        <ele>936</ele>
        <time>2020-09-06T11:19:06.814Z</time>
      </trkpt>
      <trkpt lat="48.38314" lon="7.28078">
        <ele>936</ele>
        <time>2020-09-06T11:19:07.815Z</time>
      </trkpt>
      <trkpt lat="48.38314" lon="7.2808">
        <ele>936</ele>
        <time>2020-09-06T11:19:08.815Z</time>
      </trkpt>
      <trkpt lat="48.38314" lon="7.28082">
        <ele>936</ele>
        <time>2020-09-06T11:19:09.814Z</time>
      </trkpt>
      <trkpt lat="48.38313" lon="7.28083">
        <ele>936</ele>
        <time>2020-09-06T11:19:10.814Z</time>
      </trkpt>
      <trkpt lat="48.38313" lon="7.28084">
        <ele>936</ele>
        <time>2020-09-06T11:19:11.815Z</time>
      </trkpt>
      <trkpt lat="48.38312" lon="7.28085">
        <ele>937</ele>
        <time>2020-09-06T11:19:12.815Z</time>
      </trkpt>
      <trkpt lat="48.38312" lon="7.28086">
        <ele>938</ele>
        <time>2020-09-06T11:19:13.815Z</time>
      </trkpt>
      <trkpt lat="48.38311" lon="7.28087">
        <ele>939</ele>
        <time>2020-09-06T11:19:14.815Z</time>
      </trkpt>
      <trkpt lat="48.38311" lon="7.2809">
        <ele>939</ele>
        <time>2020-09-06T11:19:15.815Z</time>
      </trkpt>
      <trkpt lat="48.38311" lon="7.28092">
        <ele>939</ele>
        <time>2020-09-06T11:19:16.815Z</time>
      </trkpt>
      <trkpt lat="48.38311" lon="7.28093">
        <ele>940</ele>
        <time>2020-09-06T11:19:17.814Z</time>
      </trkpt>
      <trkpt lat="48.38311" lon="7.28095">
        <ele>940</ele>
        <time>2020-09-06T11:19:18.815Z</time>
      </trkpt>
      <trkpt lat="48.38311" lon="7.28098">
        <ele>941</ele>
        <time>2020-09-06T11:19:19.815Z</time>
      </trkpt>
      <trkpt lat="48.3831" lon="7.281">
        <ele>942</ele>
        <time>2020-09-06T11:19:20.815Z</time>
      </trkpt>
      <trkpt lat="48.3831" lon="7.28101">
        <ele>942</ele>
        <time>2020-09-06T11:19:21.814Z</time>
      </trkpt>
      <trkpt lat="48.38311" lon="7.28105">
        <ele>943</ele>
        <time>2020-09-06T11:19:22.814Z</time>
      </trkpt>
      <trkpt lat="48.38311" lon="7.28107">
        <ele>944</ele>
        <time>2020-09-06T11:19:23.815Z</time>
      </trkpt>
      <trkpt lat="48.38311" lon="7.28109">
        <ele>944</ele>
        <time>2020-09-06T11:19:24.815Z</time>
      </trkpt>
      <trkpt lat="48.38311" lon="7.2811">
        <ele>944</ele>
        <time>2020-09-06T11:19:25.815Z</time>
      </trkpt>
      <trkpt lat="48.3831" lon="7.28112">
        <ele>945</ele>
        <time>2020-09-06T11:19:29.824Z</time>
      </trkpt>
      <trkpt lat="48.38311" lon="7.28114">
        <ele>946</ele>
        <time>2020-09-06T11:19:30.824Z</time>
      </trkpt>
      <trkpt lat="48.38311" lon="7.28117">
        <ele>946</ele>
        <time>2020-09-06T11:19:31.824Z</time>
      </trkpt>
      <trkpt lat="48.38311" lon="7.28119">
        <ele>946</ele>
        <time>2020-09-06T11:19:32.824Z</time>
      </trkpt>
      <trkpt lat="48.38312" lon="7.28121">
        <ele>947</ele>
        <time>2020-09-06T11:19:33.824Z</time>
      </trkpt>
      <trkpt lat="48.38312" lon="7.28123">
        <ele>947</ele>
        <time>2020-09-06T11:19:34.824Z</time>
      </trkpt>
      <trkpt lat="48.38312" lon="7.28125">
        <ele>947</ele>
        <time>2020-09-06T11:19:35.824Z</time>
      </trkpt>
      <trkpt lat="48.38312" lon="7.28127">
        <ele>947</ele>
        <time>2020-09-06T11:19:36.824Z</time>
      </trkpt>
      <trkpt lat="48.38312" lon="7.2813">
        <ele>947</ele>
        <time>2020-09-06T11:19:37.824Z</time>
      </trkpt>
      <trkpt lat="48.38312" lon="7.28131">
        <ele>947</ele>
        <time>2020-09-06T11:19:38.824Z</time>
      </trkpt>
      <trkpt lat="48.38312" lon="7.28133">
        <ele>947</ele>
        <time>2020-09-06T11:19:39.824Z</time>
      </trkpt>
      <trkpt lat="48.38312" lon="7.28135">
        <ele>947</ele>
        <time>2020-09-06T11:19:40.824Z</time>
      </trkpt>
      <trkpt lat="48.38312" lon="7.28137">
        <ele>947</ele>
        <time>2020-09-06T11:19:41.823Z</time>
      </trkpt>
      <trkpt lat="48.38312" lon="7.28138">
        <ele>948</ele>
        <time>2020-09-06T11:19:42.824Z</time>
      </trkpt>
      <trkpt lat="48.38311" lon="7.2814">
        <ele>948</ele>
        <time>2020-09-06T11:19:43.823Z</time>
      </trkpt>
      <trkpt lat="48.38311" lon="7.28141">
        <ele>948</ele>
        <time>2020-09-06T11:19:44.823Z</time>
      </trkpt>
      <trkpt lat="48.38311" lon="7.28142">
        <ele>948</ele>
        <time>2020-09-06T11:19:45.824Z</time>
      </trkpt>
      <trkpt lat="48.3831" lon="7.28144">
        <ele>948</ele>
        <time>2020-09-06T11:19:46.824Z</time>
      </trkpt>
      <trkpt lat="48.3831" lon="7.28145">
        <ele>948</ele>
        <time>2020-09-06T11:19:47.824Z</time>
      </trkpt>
      <trkpt lat="48.3831" lon="7.28147">
        <ele>948</ele>
        <time>2020-09-06T11:19:48.823Z</time>
      </trkpt>
      <trkpt lat="48.38309" lon="7.28149">
        <ele>948</ele>
        <time>2020-09-06T11:19:49.824Z</time>
      </trkpt>
      <trkpt lat="48.38308" lon="7.28152">
        <ele>948</ele>
        <time>2020-09-06T11:19:50.823Z</time>
      </trkpt>
      <trkpt lat="48.38307" lon="7.28154">
        <ele>947</ele>
        <time>2020-09-06T11:19:51.824Z</time>
      </trkpt>
      <trkpt lat="48.38307" lon="7.28157">
        <ele>947</ele>
        <time>2020-09-06T11:19:52.824Z</time>
      </trkpt>
      <trkpt lat="48.38306" lon="7.28158">
        <ele>947</ele>
        <time>2020-09-06T11:19:53.824Z</time>
      </trkpt>
      <trkpt lat="48.38306" lon="7.2816">
        <ele>947</ele>
        <time>2020-09-06T11:19:54.823Z</time>
      </trkpt>
      <trkpt lat="48.38306" lon="7.28161">
        <ele>947</ele>
        <time>2020-09-06T11:19:55.823Z</time>
      </trkpt>
      <trkpt lat="48.38306" lon="7.28164">
        <ele>947</ele>
        <time>2020-09-06T11:19:56.824Z</time>
      </trkpt>
      <trkpt lat="48.38306" lon="7.28167">
        <ele>947</ele>
        <time>2020-09-06T11:19:57.824Z</time>
      </trkpt>
      <trkpt lat="48.38305" lon="7.28169">
        <ele>946</ele>
        <time>2020-09-06T11:19:58.824Z</time>
      </trkpt>
      <trkpt lat="48.38305" lon="7.28172">
        <ele>946</ele>
        <time>2020-09-06T11:19:59.824Z</time>
      </trkpt>
      <trkpt lat="48.38305" lon="7.28173">
        <ele>946</ele>
        <time>2020-09-06T11:20:00.824Z</time>
      </trkpt>
      <trkpt lat="48.38305" lon="7.28174">
        <ele>945</ele>
        <time>2020-09-06T11:20:01.823Z</time>
      </trkpt>
      <trkpt lat="48.38304" lon="7.28175">
        <ele>945</ele>
        <time>2020-09-06T11:20:02.824Z</time>
      </trkpt>
      <trkpt lat="48.38304" lon="7.28177">
        <ele>945</ele>
        <time>2020-09-06T11:20:03.824Z</time>
      </trkpt>
      <trkpt lat="48.38304" lon="7.28179">
        <ele>945</ele>
        <time>2020-09-06T11:20:04.824Z</time>
      </trkpt>
      <trkpt lat="48.38303" lon="7.28181">
        <ele>945</ele>
        <time>2020-09-06T11:20:05.823Z</time>
      </trkpt>
      <trkpt lat="48.38303" lon="7.28183">
        <ele>946</ele>
        <time>2020-09-06T11:20:06.824Z</time>
      </trkpt>
      <trkpt lat="48.38303" lon="7.28185">
        <ele>946</ele>
        <time>2020-09-06T11:20:07.824Z</time>
      </trkpt>
      <trkpt lat="48.38303" lon="7.28187">
        <ele>946</ele>
        <time>2020-09-06T11:20:08.823Z</time>
      </trkpt>
      <trkpt lat="48.38303" lon="7.28188">
        <ele>946</ele>
        <time>2020-09-06T11:20:09.824Z</time>
      </trkpt>
      <trkpt lat="48.38303" lon="7.2819">
        <ele>946</ele>
        <time>2020-09-06T11:20:10.823Z</time>
      </trkpt>
      <trkpt lat="48.38303" lon="7.28192">
        <ele>946</ele>
        <time>2020-09-06T11:20:11.823Z</time>
      </trkpt>
      <trkpt lat="48.38303" lon="7.28194">
        <ele>946</ele>
        <time>2020-09-06T11:20:12.824Z</time>
      </trkpt>
      <trkpt lat="48.38304" lon="7.28196">
        <ele>946</ele>
        <time>2020-09-06T11:20:13.823Z</time>
      </trkpt>
      <trkpt lat="48.38304" lon="7.28198">
        <ele>946</ele>
        <time>2020-09-06T11:20:14.823Z</time>
      </trkpt>
      <trkpt lat="48.38304" lon="7.28199">
        <ele>946</ele>
        <time>2020-09-06T11:20:15.823Z</time>
      </trkpt>
      <trkpt lat="48.38303" lon="7.282">
        <ele>946</ele>
        <time>2020-09-06T11:20:16.824Z</time>
      </trkpt>
      <trkpt lat="48.38304" lon="7.28201">
        <ele>946</ele>
        <time>2020-09-06T11:20:17.823Z</time>
      </trkpt>
      <trkpt lat="48.38304" lon="7.28203">
        <ele>946</ele>
        <time>2020-09-06T11:20:18.823Z</time>
      </trkpt>
      <trkpt lat="48.38304" lon="7.28204">
        <ele>946</ele>
        <time>2020-09-06T11:20:19.823Z</time>
      </trkpt>
      <trkpt lat="48.38304" lon="7.28206">
        <ele>946</ele>
        <time>2020-09-06T11:20:20.824Z</time>
      </trkpt>
      <trkpt lat="48.38304" lon="7.28207">
        <ele>946</ele>
        <time>2020-09-06T11:20:21.824Z</time>
      </trkpt>
      <trkpt lat="48.38304" lon="7.28209">
        <ele>946</ele>
        <time>2020-09-06T11:20:22.823Z</time>
      </trkpt>
      <trkpt lat="48.38305" lon="7.28211">
        <ele>945</ele>
        <time>2020-09-06T11:20:23.823Z</time>
      </trkpt>
      <trkpt lat="48.38305" lon="7.28212">
        <ele>945</ele>
        <time>2020-09-06T11:20:24.823Z</time>
      </trkpt>
      <trkpt lat="48.38305" lon="7.28214">
        <ele>946</ele>
        <time>2020-09-06T11:20:25.823Z</time>
      </trkpt>
      <trkpt lat="48.38305" lon="7.28215">
        <ele>946</ele>
        <time>2020-09-06T11:20:26.824Z</time>
      </trkpt>
      <trkpt lat="48.38305" lon="7.28217">
        <ele>946</ele>
        <time>2020-09-06T11:20:27.823Z</time>
      </trkpt>
      <trkpt lat="48.38305" lon="7.28218">
        <ele>945</ele>
        <time>2020-09-06T11:20:28.823Z</time>
      </trkpt>
      <trkpt lat="48.38305" lon="7.28219">
        <ele>945</ele>
        <time>2020-09-06T11:20:29.824Z</time>
      </trkpt>
      <trkpt lat="48.38306" lon="7.28221">
        <ele>944</ele>
        <time>2020-09-06T11:20:30.823Z</time>
      </trkpt>
      <trkpt lat="48.38306" lon="7.28222">
        <ele>943</ele>
        <time>2020-09-06T11:20:31.824Z</time>
      </trkpt>
      <trkpt lat="48.38306" lon="7.28224">
        <ele>943</ele>
        <time>2020-09-06T11:20:32.824Z</time>
      </trkpt>
      <trkpt lat="48.38306" lon="7.28227">
        <ele>942</ele>
        <time>2020-09-06T11:20:33.823Z</time>
      </trkpt>
      <trkpt lat="48.38306" lon="7.28228">
        <ele>941</ele>
        <time>2020-09-06T11:20:34.823Z</time>
      </trkpt>
      <trkpt lat="48.38307" lon="7.2823">
        <ele>941</ele>
        <time>2020-09-06T11:20:35.823Z</time>
      </trkpt>
      <trkpt lat="48.38307" lon="7.28232">
        <ele>941</ele>
        <time>2020-09-06T11:20:36.824Z</time>
      </trkpt>
      <trkpt lat="48.38307" lon="7.28235">
        <ele>941</ele>
        <time>2020-09-06T11:20:37.824Z</time>
      </trkpt>
      <trkpt lat="48.38307" lon="7.28237">
        <ele>941</ele>
        <time>2020-09-06T11:20:38.823Z</time>
      </trkpt>
      <trkpt lat="48.38307" lon="7.28238">
        <ele>940</ele>
        <time>2020-09-06T11:20:39.823Z</time>
      </trkpt>
      <trkpt lat="48.38307" lon="7.28239">
        <ele>941</ele>
        <time>2020-09-06T11:20:40.823Z</time>
      </trkpt>
      <trkpt lat="48.38307" lon="7.28242">
        <ele>941</ele>
        <time>2020-09-06T11:20:41.824Z</time>
      </trkpt>
      <trkpt lat="48.38307" lon="7.28243">
        <ele>941</ele>
        <time>2020-09-06T11:20:42.823Z</time>
      </trkpt>
      <trkpt lat="48.38307" lon="7.28246">
        <ele>940</ele>
        <time>2020-09-06T11:20:43.824Z</time>
      </trkpt>
      <trkpt lat="48.38307" lon="7.28247">
        <ele>940</ele>
        <time>2020-09-06T11:20:44.824Z</time>
      </trkpt>
      <trkpt lat="48.38307" lon="7.28248">
        <ele>939</ele>
        <time>2020-09-06T11:20:45.823Z</time>
      </trkpt>
      <trkpt lat="48.38307" lon="7.2825">
        <ele>939</ele>
        <time>2020-09-06T11:20:46.823Z</time>
      </trkpt>
      <trkpt lat="48.38307" lon="7.28251">
        <ele>938</ele>
        <time>2020-09-06T11:20:47.823Z</time>
      </trkpt>
      <trkpt lat="48.38307" lon="7.28253">
        <ele>938</ele>
        <time>2020-09-06T11:20:48.823Z</time>
      </trkpt>
      <trkpt lat="48.38307" lon="7.28256">
        <ele>938</ele>
        <time>2020-09-06T11:20:49.823Z</time>
      </trkpt>
      <trkpt lat="48.38308" lon="7.28257">
        <ele>937</ele>
        <time>2020-09-06T11:20:50.823Z</time>
      </trkpt>
      <trkpt lat="48.38308" lon="7.28259">
        <ele>937</ele>
        <time>2020-09-06T11:20:51.824Z</time>
      </trkpt>
      <trkpt lat="48.38308" lon="7.28261">
        <ele>938</ele>
        <time>2020-09-06T11:20:52.824Z</time>
      </trkpt>
      <trkpt lat="48.38309" lon="7.28263">
        <ele>938</ele>
        <time>2020-09-06T11:20:53.823Z</time>
      </trkpt>
      <trkpt lat="48.38309" lon="7.28264">
        <ele>938</ele>
        <time>2020-09-06T11:20:54.824Z</time>
      </trkpt>
      <trkpt lat="48.3831" lon="7.28266">
        <ele>937</ele>
        <time>2020-09-06T11:20:55.823Z</time>
      </trkpt>
      <trkpt lat="48.3831" lon="7.28267">
        <ele>937</ele>
        <time>2020-09-06T11:20:56.823Z</time>
      </trkpt>
      <trkpt lat="48.38309" lon="7.28268">
        <ele>937</ele>
        <time>2020-09-06T11:20:57.823Z</time>
      </trkpt>
      <trkpt lat="48.3831" lon="7.28269">
        <ele>937</ele>
        <time>2020-09-06T11:20:58.823Z</time>
      </trkpt>
      <trkpt lat="48.38309" lon="7.28269">
        <ele>937</ele>
        <time>2020-09-06T11:20:59.823Z</time>
      </trkpt>
      <trkpt lat="48.38309" lon="7.2827">
        <ele>936</ele>
        <time>2020-09-06T11:21:00.823Z</time>
      </trkpt>
      <trkpt lat="48.38309" lon="7.2827">
        <ele>936</ele>
        <time>2020-09-06T11:21:01.823Z</time>
      </trkpt>
      <trkpt lat="48.38308" lon="7.2827">
        <ele>936</ele>
        <time>2020-09-06T11:21:02.823Z</time>
      </trkpt>
      <trkpt lat="48.38308" lon="7.28271">
        <ele>935</ele>
        <time>2020-09-06T11:21:03.823Z</time>
      </trkpt>
      <trkpt lat="48.38308" lon="7.28272">
        <ele>934</ele>
        <time>2020-09-06T11:21:04.823Z</time>
      </trkpt>
      <trkpt lat="48.38308" lon="7.28274">
        <ele>934</ele>
        <time>2020-09-06T11:21:05.823Z</time>
      </trkpt>
      <trkpt lat="48.38307" lon="7.28277">
        <ele>933</ele>
        <time>2020-09-06T11:21:06.823Z</time>
      </trkpt>
      <trkpt lat="48.38307" lon="7.28279">
        <ele>933</ele>
        <time>2020-09-06T11:21:07.823Z</time>
      </trkpt>
      <trkpt lat="48.38308" lon="7.28281">
        <ele>932</ele>
        <time>2020-09-06T11:21:08.823Z</time>
      </trkpt>
      <trkpt lat="48.38308" lon="7.28282">
        <ele>931</ele>
        <time>2020-09-06T11:21:09.824Z</time>
      </trkpt>
      <trkpt lat="48.38308" lon="7.28284">
        <ele>930</ele>
        <time>2020-09-06T11:21:10.824Z</time>
      </trkpt>
      <trkpt lat="48.38308" lon="7.28285">
        <ele>929</ele>
        <time>2020-09-06T11:21:11.823Z</time>
      </trkpt>
      <trkpt lat="48.38308" lon="7.28286">
        <ele>929</ele>
        <time>2020-09-06T11:21:12.823Z</time>
      </trkpt>
      <trkpt lat="48.38308" lon="7.28288">
        <ele>929</ele>
        <time>2020-09-06T11:21:13.824Z</time>
      </trkpt>
      <trkpt lat="48.38308" lon="7.2829">
        <ele>928</ele>
        <time>2020-09-06T11:21:14.824Z</time>
      </trkpt>
      <trkpt lat="48.38308" lon="7.28292">
        <ele>928</ele>
        <time>2020-09-06T11:21:15.824Z</time>
      </trkpt>
      <trkpt lat="48.38308" lon="7.28294">
        <ele>927</ele>
        <time>2020-09-06T11:21:16.824Z</time>
      </trkpt>
      <trkpt lat="48.38308" lon="7.28296">
        <ele>927</ele>
        <time>2020-09-06T11:21:17.824Z</time>
      </trkpt>
      <trkpt lat="48.38308" lon="7.28298">
        <ele>926</ele>
        <time>2020-09-06T11:21:18.824Z</time>
      </trkpt>
      <trkpt lat="48.38308" lon="7.28299">
        <ele>926</ele>
        <time>2020-09-06T11:21:19.824Z</time>
      </trkpt>
      <trkpt lat="48.38308" lon="7.28301">
        <ele>926</ele>
        <time>2020-09-06T11:21:20.824Z</time>
      </trkpt>
      <trkpt lat="48.38308" lon="7.28302">
        <ele>925</ele>
        <time>2020-09-06T11:21:21.823Z</time>
      </trkpt>
      <trkpt lat="48.38308" lon="7.28304">
        <ele>924</ele>
        <time>2020-09-06T11:21:22.823Z</time>
      </trkpt>
      <trkpt lat="48.38308" lon="7.28306">
        <ele>923</ele>
        <time>2020-09-06T11:21:23.823Z</time>
      </trkpt>
      <trkpt lat="48.38308" lon="7.28308">
        <ele>923</ele>
        <time>2020-09-06T11:21:24.823Z</time>
      </trkpt>
      <trkpt lat="48.38308" lon="7.2831">
        <ele>922</ele>
        <time>2020-09-06T11:21:25.823Z</time>
      </trkpt>
      <trkpt lat="48.38308" lon="7.28311">
        <ele>921</ele>
        <time>2020-09-06T11:21:26.824Z</time>
      </trkpt>
      <trkpt lat="48.38308" lon="7.28313">
        <ele>921</ele>
        <time>2020-09-06T11:21:27.824Z</time>
      </trkpt>
      <trkpt lat="48.38308" lon="7.28315">
        <ele>920</ele>
        <time>2020-09-06T11:21:28.823Z</time>
      </trkpt>
      <trkpt lat="48.38307" lon="7.28316">
        <ele>920</ele>
        <time>2020-09-06T11:21:29.824Z</time>
      </trkpt>
      <trkpt lat="48.38307" lon="7.28317">
        <ele>919</ele>
        <time>2020-09-06T11:21:30.824Z</time>
      </trkpt>
      <trkpt lat="48.38307" lon="7.28319">
        <ele>918</ele>
        <time>2020-09-06T11:21:31.824Z</time>
      </trkpt>
      <trkpt lat="48.38307" lon="7.28321">
        <ele>918</ele>
        <time>2020-09-06T11:21:32.824Z</time>
      </trkpt>
      <trkpt lat="48.38308" lon="7.28322">
        <ele>917</ele>
        <time>2020-09-06T11:21:33.824Z</time>
      </trkpt>
      <trkpt lat="48.38308" lon="7.28323">
        <ele>917</ele>
        <time>2020-09-06T11:21:34.824Z</time>
      </trkpt>
      <trkpt lat="48.38307" lon="7.28323">
        <ele>917</ele>
        <time>2020-09-06T11:21:35.823Z</time>
      </trkpt>
      <trkpt lat="48.38306" lon="7.28324">
        <ele>917</ele>
        <time>2020-09-06T11:21:36.824Z</time>
      </trkpt>
      <trkpt lat="48.38306" lon="7.28326">
        <ele>917</ele>
        <time>2020-09-06T11:21:37.824Z</time>
      </trkpt>
      <trkpt lat="48.38306" lon="7.28328">
        <ele>917</ele>
        <time>2020-09-06T11:21:38.824Z</time>
      </trkpt>
      <trkpt lat="48.38306" lon="7.28329">
        <ele>917</ele>
        <time>2020-09-06T11:21:39.824Z</time>
      </trkpt>
      <trkpt lat="48.38306" lon="7.28331">
        <ele>917</ele>
        <time>2020-09-06T11:21:40.824Z</time>
      </trkpt>
      <trkpt lat="48.38306" lon="7.28333">
        <ele>917</ele>
        <time>2020-09-06T11:21:41.823Z</time>
      </trkpt>
      <trkpt lat="48.38307" lon="7.28334">
        <ele>917</ele>
        <time>2020-09-06T11:21:42.824Z</time>
      </trkpt>
      <trkpt lat="48.38307" lon="7.28336">
        <ele>918</ele>
        <time>2020-09-06T11:21:43.824Z</time>
      </trkpt>
      <trkpt lat="48.38307" lon="7.28338">
        <ele>918</ele>
        <time>2020-09-06T11:21:44.823Z</time>
      </trkpt>
      <trkpt lat="48.38307" lon="7.2834">
        <ele>919</ele>
        <time>2020-09-06T11:21:45.824Z</time>
      </trkpt>
      <trkpt lat="48.38307" lon="7.28341">
        <ele>919</ele>
        <time>2020-09-06T11:21:46.824Z</time>
      </trkpt>
      <trkpt lat="48.38307" lon="7.28341">
        <ele>919</ele>
        <time>2020-09-06T11:21:47.824Z</time>
      </trkpt>
      <trkpt lat="48.38307" lon="7.28341">
        <ele>919</ele>
        <time>2020-09-06T11:21:48.824Z</time>
      </trkpt>
      <trkpt lat="48.38308" lon="7.28342">
        <ele>919</ele>
        <time>2020-09-06T11:21:49.824Z</time>
      </trkpt>
      <trkpt lat="48.38308" lon="7.28343">
        <ele>919</ele>
        <time>2020-09-06T11:21:50.824Z</time>
      </trkpt>
      <trkpt lat="48.38309" lon="7.28344">
        <ele>920</ele>
        <time>2020-09-06T11:21:51.824Z</time>
      </trkpt>
      <trkpt lat="48.38309" lon="7.28345">
        <ele>920</ele>
        <time>2020-09-06T11:21:52.824Z</time>
      </trkpt>
      <trkpt lat="48.38309" lon="7.28347">
        <ele>920</ele>
        <time>2020-09-06T11:21:53.824Z</time>
      </trkpt>
      <trkpt lat="48.38309" lon="7.28349">
        <ele>920</ele>
        <time>2020-09-06T11:21:54.824Z</time>
      </trkpt>
      <trkpt lat="48.38309" lon="7.28351">
        <ele>920</ele>
        <time>2020-09-06T11:21:55.823Z</time>
      </trkpt>
      <trkpt lat="48.38309" lon="7.28353">
        <ele>920</ele>
        <time>2020-09-06T11:21:56.824Z</time>
      </trkpt>
      <trkpt lat="48.38309" lon="7.28354">
        <ele>919</ele>
        <time>2020-09-06T11:21:57.823Z</time>
      </trkpt>
      <trkpt lat="48.38308" lon="7.28355">
        <ele>919</ele>
        <time>2020-09-06T11:21:58.824Z</time>
      </trkpt>
      <trkpt lat="48.38309" lon="7.28357">
        <ele>919</ele>
        <time>2020-09-06T11:21:59.823Z</time>
      </trkpt>
      <trkpt lat="48.38309" lon="7.28359">
        <ele>920</ele>
        <time>2020-09-06T11:22:00.824Z</time>
      </trkpt>
      <trkpt lat="48.38309" lon="7.28361">
        <ele>920</ele>
        <time>2020-09-06T11:22:01.823Z</time>
      </trkpt>
      <trkpt lat="48.38308" lon="7.28363">
        <ele>920</ele>
        <time>2020-09-06T11:22:02.823Z</time>
      </trkpt>
      <trkpt lat="48.38308" lon="7.28364">
        <ele>920</ele>
        <time>2020-09-06T11:22:03.824Z</time>
      </trkpt>
      <trkpt lat="48.38308" lon="7.28366">
        <ele>920</ele>
        <time>2020-09-06T11:22:04.824Z</time>
      </trkpt>
      <trkpt lat="48.38308" lon="7.28368">
        <ele>920</ele>
        <time>2020-09-06T11:22:05.824Z</time>
      </trkpt>
      <trkpt lat="48.38309" lon="7.28369">
        <ele>921</ele>
        <time>2020-09-06T11:22:06.824Z</time>
      </trkpt>
      <trkpt lat="48.38309" lon="7.28371">
        <ele>921</ele>
        <time>2020-09-06T11:22:07.823Z</time>
      </trkpt>
      <trkpt lat="48.38309" lon="7.28373">
        <ele>921</ele>
        <time>2020-09-06T11:22:08.824Z</time>
      </trkpt>
      <trkpt lat="48.3831" lon="7.28374">
        <ele>921</ele>
        <time>2020-09-06T11:22:09.824Z</time>
      </trkpt>
      <trkpt lat="48.38311" lon="7.28375">
        <ele>921</ele>
        <time>2020-09-06T11:22:10.824Z</time>
      </trkpt>
      <trkpt lat="48.38311" lon="7.28377">
        <ele>920</ele>
        <time>2020-09-06T11:22:11.824Z</time>
      </trkpt>
      <trkpt lat="48.38311" lon="7.28378">
        <ele>920</ele>
        <time>2020-09-06T11:22:12.824Z</time>
      </trkpt>
      <trkpt lat="48.38311" lon="7.28381">
        <ele>920</ele>
        <time>2020-09-06T11:22:13.824Z</time>
      </trkpt>
      <trkpt lat="48.38311" lon="7.28383">
        <ele>920</ele>
        <time>2020-09-06T11:22:14.824Z</time>
      </trkpt>
      <trkpt lat="48.38312" lon="7.28385">
        <ele>920</ele>
        <time>2020-09-06T11:22:15.824Z</time>
      </trkpt>
      <trkpt lat="48.38312" lon="7.28387">
        <ele>920</ele>
        <time>2020-09-06T11:22:16.824Z</time>
      </trkpt>
      <trkpt lat="48.38313" lon="7.2839">
        <ele>920</ele>
        <time>2020-09-06T11:22:17.824Z</time>
      </trkpt>
      <trkpt lat="48.38313" lon="7.28392">
        <ele>920</ele>
        <time>2020-09-06T11:22:18.824Z</time>
      </trkpt>
      <trkpt lat="48.38313" lon="7.28394">
        <ele>920</ele>
        <time>2020-09-06T11:22:19.824Z</time>
      </trkpt>
      <trkpt lat="48.38314" lon="7.28396">
        <ele>920</ele>
        <time>2020-09-06T11:22:20.824Z</time>
      </trkpt>
      <trkpt lat="48.38315" lon="7.28398">
        <ele>920</ele>
        <time>2020-09-06T11:22:21.824Z</time>
      </trkpt>
      <trkpt lat="48.38316" lon="7.28399">
        <ele>920</ele>
        <time>2020-09-06T11:22:22.824Z</time>
      </trkpt>
      <trkpt lat="48.38317" lon="7.28401">
        <ele>920</ele>
        <time>2020-09-06T11:22:23.823Z</time>
      </trkpt>
      <trkpt lat="48.38318" lon="7.28402">
        <ele>920</ele>
        <time>2020-09-06T11:22:24.824Z</time>
      </trkpt>
      <trkpt lat="48.38318" lon="7.28404">
        <ele>920</ele>
        <time>2020-09-06T11:22:25.824Z</time>
      </trkpt>
      <trkpt lat="48.38319" lon="7.28406">
        <ele>920</ele>
        <time>2020-09-06T11:22:26.823Z</time>
      </trkpt>
      <trkpt lat="48.38319" lon="7.28408">
        <ele>920</ele>
        <time>2020-09-06T11:22:27.824Z</time>
      </trkpt>
      <trkpt lat="48.3832" lon="7.28409">
        <ele>920</ele>
        <time>2020-09-06T11:22:28.824Z</time>
      </trkpt>
      <trkpt lat="48.3832" lon="7.28411">
        <ele>920</ele>
        <time>2020-09-06T11:22:29.824Z</time>
      </trkpt>
      <trkpt lat="48.3832" lon="7.28413">
        <ele>920</ele>
        <time>2020-09-06T11:22:30.824Z</time>
      </trkpt>
      <trkpt lat="48.38321" lon="7.28415">
        <ele>920</ele>
        <time>2020-09-06T11:22:31.824Z</time>
      </trkpt>
      <trkpt lat="48.3832" lon="7.28416">
        <ele>920</ele>
        <time>2020-09-06T11:22:32.823Z</time>
      </trkpt>
      <trkpt lat="48.3832" lon="7.28417">
        <ele>920</ele>
        <time>2020-09-06T11:22:33.824Z</time>
      </trkpt>
      <trkpt lat="48.38321" lon="7.28419">
        <ele>920</ele>
        <time>2020-09-06T11:22:34.824Z</time>
      </trkpt>
      <trkpt lat="48.38321" lon="7.28421">
        <ele>920</ele>
        <time>2020-09-06T11:22:35.824Z</time>
      </trkpt>
      <trkpt lat="48.38322" lon="7.28423">
        <ele>920</ele>
        <time>2020-09-06T11:22:36.824Z</time>
      </trkpt>
      <trkpt lat="48.38322" lon="7.28425">
        <ele>920</ele>
        <time>2020-09-06T11:22:37.824Z</time>
      </trkpt>
      <trkpt lat="48.38322" lon="7.28427">
        <ele>919</ele>
        <time>2020-09-06T11:22:38.824Z</time>
      </trkpt>
      <trkpt lat="48.38322" lon="7.28429">
        <ele>919</ele>
        <time>2020-09-06T11:22:39.824Z</time>
      </trkpt>
      <trkpt lat="48.38322" lon="7.2843">
        <ele>919</ele>
        <time>2020-09-06T11:22:40.824Z</time>
      </trkpt>
      <trkpt lat="48.38323" lon="7.28432">
        <ele>919</ele>
        <time>2020-09-06T11:22:41.824Z</time>
      </trkpt>
      <trkpt lat="48.38323" lon="7.28434">
        <ele>919</ele>
        <time>2020-09-06T11:22:42.824Z</time>
      </trkpt>
      <trkpt lat="48.38324" lon="7.28435">
        <ele>918</ele>
        <time>2020-09-06T11:22:43.824Z</time>
      </trkpt>
      <trkpt lat="48.38326" lon="7.28438">
        <ele>918</ele>
        <time>2020-09-06T11:22:44.824Z</time>
      </trkpt>
      <trkpt lat="48.38328" lon="7.2844">
        <ele>918</ele>
        <time>2020-09-06T11:22:45.824Z</time>
      </trkpt>
      <trkpt lat="48.38329" lon="7.28442">
        <ele>918</ele>
        <time>2020-09-06T11:22:46.824Z</time>
      </trkpt>
      <trkpt lat="48.38329" lon="7.28444">
        <ele>917</ele>
        <time>2020-09-06T11:22:47.824Z</time>
      </trkpt>
      <trkpt lat="48.3833" lon="7.28446">
        <ele>917</ele>
        <time>2020-09-06T11:22:48.824Z</time>
      </trkpt>
      <trkpt lat="48.38331" lon="7.28448">
        <ele>916</ele>
        <time>2020-09-06T11:22:49.824Z</time>
      </trkpt>
      <trkpt lat="48.38332" lon="7.2845">
        <ele>916</ele>
        <time>2020-09-06T11:22:50.824Z</time>
      </trkpt>
      <trkpt lat="48.38332" lon="7.28452">
        <ele>916</ele>
        <time>2020-09-06T11:22:51.824Z</time>
      </trkpt>
      <trkpt lat="48.38332" lon="7.28454">
        <ele>916</ele>
        <time>2020-09-06T11:22:52.824Z</time>
      </trkpt>
      <trkpt lat="48.38333" lon="7.28456">
        <ele>916</ele>
        <time>2020-09-06T11:22:53.823Z</time>
      </trkpt>
      <trkpt lat="48.38334" lon="7.28458">
        <ele>916</ele>
        <time>2020-09-06T11:22:54.824Z</time>
      </trkpt>
      <trkpt lat="48.38335" lon="7.28459">
        <ele>916</ele>
        <time>2020-09-06T11:22:55.824Z</time>
      </trkpt>
      <trkpt lat="48.38337" lon="7.28461">
        <ele>915</ele>
        <time>2020-09-06T11:22:56.824Z</time>
      </trkpt>
      <trkpt lat="48.38338" lon="7.28462">
        <ele>915</ele>
        <time>2020-09-06T11:22:57.824Z</time>
      </trkpt>
      <trkpt lat="48.38339" lon="7.28464">
        <ele>915</ele>
        <time>2020-09-06T11:22:58.824Z</time>
      </trkpt>
      <trkpt lat="48.38339" lon="7.28465">
        <ele>915</ele>
        <time>2020-09-06T11:22:59.824Z</time>
      </trkpt>
      <trkpt lat="48.38339" lon="7.28466">
        <ele>915</ele>
        <time>2020-09-06T11:23:00.824Z</time>
      </trkpt>
      <trkpt lat="48.3834" lon="7.28468">
        <ele>915</ele>
        <time>2020-09-06T11:23:01.824Z</time>
      </trkpt>
      <trkpt lat="48.3834" lon="7.28469">
        <ele>915</ele>
        <time>2020-09-06T11:23:02.824Z</time>
      </trkpt>
      <trkpt lat="48.38341" lon="7.2847">
        <ele>915</ele>
        <time>2020-09-06T11:23:03.824Z</time>
      </trkpt>
      <trkpt lat="48.38342" lon="7.28471">
        <ele>915</ele>
        <time>2020-09-06T11:23:04.824Z</time>
      </trkpt>
      <trkpt lat="48.38342" lon="7.28472">
        <ele>914</ele>
        <time>2020-09-06T11:23:05.823Z</time>
      </trkpt>
      <trkpt lat="48.38343" lon="7.28473">
        <ele>913</ele>
        <time>2020-09-06T11:23:06.823Z</time>
      </trkpt>
      <trkpt lat="48.38343" lon="7.28474">
        <ele>913</ele>
        <time>2020-09-06T11:23:07.824Z</time>
      </trkpt>
      <trkpt lat="48.38344" lon="7.28476">
        <ele>912</ele>
        <time>2020-09-06T11:23:08.823Z</time>
      </trkpt>
      <trkpt lat="48.38344" lon="7.28476">
        <ele>912</ele>
        <time>2020-09-06T11:23:09.824Z</time>
      </trkpt>
      <trkpt lat="48.38345" lon="7.28477">
        <ele>911</ele>
        <time>2020-09-06T11:23:10.824Z</time>
      </trkpt>
      <trkpt lat="48.38346" lon="7.28478">
        <ele>911</ele>
        <time>2020-09-06T11:23:13.937Z</time>
      </trkpt>
      <trkpt lat="48.38346" lon="7.28479">
        <ele>911</ele>
        <time>2020-09-06T11:23:14.937Z</time>
      </trkpt>
      <trkpt lat="48.38347" lon="7.2848">
        <ele>911</ele>
        <time>2020-09-06T11:23:15.937Z</time>
      </trkpt>
      <trkpt lat="48.38347" lon="7.28481">
        <ele>910</ele>
        <time>2020-09-06T11:23:16.937Z</time>
      </trkpt>
      <trkpt lat="48.38348" lon="7.28483">
        <ele>910</ele>
        <time>2020-09-06T11:23:17.937Z</time>
      </trkpt>
      <trkpt lat="48.38349" lon="7.28484">
        <ele>910</ele>
        <time>2020-09-06T11:23:18.937Z</time>
      </trkpt>
      <trkpt lat="48.38349" lon="7.28485">
        <ele>910</ele>
        <time>2020-09-06T11:23:19.937Z</time>
      </trkpt>
      <trkpt lat="48.38349" lon="7.28485">
        <ele>910</ele>
        <time>2020-09-06T11:23:20.937Z</time>
      </trkpt>
      <trkpt lat="48.38349" lon="7.28486">
        <ele>909</ele>
        <time>2020-09-06T11:23:21.937Z</time>
      </trkpt>
      <trkpt lat="48.38349" lon="7.28486">
        <ele>909</ele>
        <time>2020-09-06T11:23:22.937Z</time>
      </trkpt>
      <trkpt lat="48.3835" lon="7.28486">
        <ele>909</ele>
        <time>2020-09-06T11:23:23.937Z</time>
      </trkpt>
      <trkpt lat="48.3835" lon="7.28487">
        <ele>909</ele>
        <time>2020-09-06T11:23:24.937Z</time>
      </trkpt>
      <trkpt lat="48.3835" lon="7.28487">
        <ele>908</ele>
        <time>2020-09-06T11:23:25.936Z</time>
      </trkpt>
      <trkpt lat="48.3835" lon="7.28488">
        <ele>908</ele>
        <time>2020-09-06T11:23:26.937Z</time>
      </trkpt>
      <trkpt lat="48.3835" lon="7.28489">
        <ele>908</ele>
        <time>2020-09-06T11:23:27.937Z</time>
      </trkpt>
      <trkpt lat="48.38351" lon="7.2849">
        <ele>908</ele>
        <time>2020-09-06T11:23:28.937Z</time>
      </trkpt>
      <trkpt lat="48.3835" lon="7.28491">
        <ele>908</ele>
        <time>2020-09-06T11:23:29.937Z</time>
      </trkpt>
      <trkpt lat="48.38351" lon="7.28492">
        <ele>908</ele>
        <time>2020-09-06T11:23:30.937Z</time>
      </trkpt>
      <trkpt lat="48.38351" lon="7.28493">
        <ele>908</ele>
        <time>2020-09-06T11:23:31.936Z</time>
      </trkpt>
      <trkpt lat="48.38352" lon="7.28494">
        <ele>908</ele>
        <time>2020-09-06T11:23:32.937Z</time>
      </trkpt>
      <trkpt lat="48.38352" lon="7.28495">
        <ele>908</ele>
        <time>2020-09-06T11:23:33.937Z</time>
      </trkpt>
      <trkpt lat="48.38353" lon="7.28496">
        <ele>908</ele>
        <time>2020-09-06T11:23:34.937Z</time>
      </trkpt>
      <trkpt lat="48.38353" lon="7.28497">
        <ele>908</ele>
        <time>2020-09-06T11:23:35.937Z</time>
      </trkpt>
      <trkpt lat="48.38353" lon="7.28497">
        <ele>907</ele>
        <time>2020-09-06T11:23:36.936Z</time>
      </trkpt>
      <trkpt lat="48.38354" lon="7.28498">
        <ele>907</ele>
        <time>2020-09-06T11:23:37.937Z</time>
      </trkpt>
      <trkpt lat="48.38354" lon="7.28499">
        <ele>907</ele>
        <time>2020-09-06T11:23:38.937Z</time>
      </trkpt>
      <trkpt lat="48.38354" lon="7.285">
        <ele>907</ele>
        <time>2020-09-06T11:23:39.937Z</time>
      </trkpt>
      <trkpt lat="48.38355" lon="7.285">
        <ele>907</ele>
        <time>2020-09-06T11:23:40.937Z</time>
      </trkpt>
      <trkpt lat="48.38356" lon="7.285">
        <ele>907</ele>
        <time>2020-09-06T11:23:41.937Z</time>
      </trkpt>
      <trkpt lat="48.38356" lon="7.28501">
        <ele>907</ele>
        <time>2020-09-06T11:23:42.937Z</time>
      </trkpt>
      <trkpt lat="48.38357" lon="7.28503">
        <ele>907</ele>
        <time>2020-09-06T11:23:43.937Z</time>
      </trkpt>
      <trkpt lat="48.38357" lon="7.28505">
        <ele>908</ele>
        <time>2020-09-06T11:23:44.937Z</time>
      </trkpt>
      <trkpt lat="48.38358" lon="7.28506">
        <ele>908</ele>
        <time>2020-09-06T11:23:45.936Z</time>
      </trkpt>
      <trkpt lat="48.38359" lon="7.28508">
        <ele>908</ele>
        <time>2020-09-06T11:23:46.937Z</time>
      </trkpt>
      <trkpt lat="48.3836" lon="7.28509">
        <ele>908</ele>
        <time>2020-09-06T11:23:47.937Z</time>
      </trkpt>
      <trkpt lat="48.3836" lon="7.2851">
        <ele>907</ele>
        <time>2020-09-06T11:23:48.937Z</time>
      </trkpt>
      <trkpt lat="48.38361" lon="7.28511">
        <ele>907</ele>
        <time>2020-09-06T11:23:49.937Z</time>
      </trkpt>
      <trkpt lat="48.38362" lon="7.28512">
        <ele>907</ele>
        <time>2020-09-06T11:23:50.937Z</time>
      </trkpt>
      <trkpt lat="48.38362" lon="7.28512">
        <ele>907</ele>
        <time>2020-09-06T11:23:51.936Z</time>
      </trkpt>
      <trkpt lat="48.38362" lon="7.28512">
        <ele>906</ele>
        <time>2020-09-06T11:23:52.937Z</time>
      </trkpt>
      <trkpt lat="48.38363" lon="7.28512">
        <ele>906</ele>
        <time>2020-09-06T11:23:53.936Z</time>
      </trkpt>
      <trkpt lat="48.38364" lon="7.28514">
        <ele>906</ele>
        <time>2020-09-06T11:23:54.937Z</time>
      </trkpt>
      <trkpt lat="48.38364" lon="7.28516">
        <ele>906</ele>
        <time>2020-09-06T11:23:55.937Z</time>
      </trkpt>
      <trkpt lat="48.38365" lon="7.28517">
        <ele>905</ele>
        <time>2020-09-06T11:23:56.937Z</time>
      </trkpt>
      <trkpt lat="48.38366" lon="7.28517">
        <ele>905</ele>
        <time>2020-09-06T11:23:57.936Z</time>
      </trkpt>
      <trkpt lat="48.38367" lon="7.28518">
        <ele>905</ele>
        <time>2020-09-06T11:23:58.937Z</time>
      </trkpt>
      <trkpt lat="48.38367" lon="7.28518">
        <ele>905</ele>
        <time>2020-09-06T11:23:59.937Z</time>
      </trkpt>
      <trkpt lat="48.38368" lon="7.28518">
        <ele>905</ele>
        <time>2020-09-06T11:24:00.937Z</time>
      </trkpt>
      <trkpt lat="48.38368" lon="7.28518">
        <ele>905</ele>
        <time>2020-09-06T11:24:01.936Z</time>
      </trkpt>
      <trkpt lat="48.38368" lon="7.28518">
        <ele>904</ele>
        <time>2020-09-06T11:24:02.937Z</time>
      </trkpt>
      <trkpt lat="48.38368" lon="7.28518">
        <ele>904</ele>
        <time>2020-09-06T11:24:03.937Z</time>
      </trkpt>
      <trkpt lat="48.38368" lon="7.28519">
        <ele>903</ele>
        <time>2020-09-06T11:24:04.937Z</time>
      </trkpt>
      <trkpt lat="48.38369" lon="7.28519">
        <ele>903</ele>
        <time>2020-09-06T11:24:05.937Z</time>
      </trkpt>
      <trkpt lat="48.38369" lon="7.28519">
        <ele>903</ele>
        <time>2020-09-06T11:24:06.937Z</time>
      </trkpt>
      <trkpt lat="48.3837" lon="7.2852">
        <ele>902</ele>
        <time>2020-09-06T11:24:07.937Z</time>
      </trkpt>
      <trkpt lat="48.38371" lon="7.28521">
        <ele>902</ele>
        <time>2020-09-06T11:24:08.936Z</time>
      </trkpt>
      <trkpt lat="48.38371" lon="7.28522">
        <ele>901</ele>
        <time>2020-09-06T11:24:09.937Z</time>
      </trkpt>
      <trkpt lat="48.38372" lon="7.28523">
        <ele>901</ele>
        <time>2020-09-06T11:24:10.937Z</time>
      </trkpt>
      <trkpt lat="48.38373" lon="7.28523">
        <ele>901</ele>
        <time>2020-09-06T11:24:11.937Z</time>
      </trkpt>
      <trkpt lat="48.38373" lon="7.28523">
        <ele>900</ele>
        <time>2020-09-06T11:24:12.937Z</time>
      </trkpt>
      <trkpt lat="48.38374" lon="7.28523">
        <ele>900</ele>
        <time>2020-09-06T11:24:13.937Z</time>
      </trkpt>
      <trkpt lat="48.38374" lon="7.28523">
        <ele>900</ele>
        <time>2020-09-06T11:24:14.937Z</time>
      </trkpt>
      <trkpt lat="48.38375" lon="7.28524">
        <ele>900</ele>
        <time>2020-09-06T11:24:15.937Z</time>
      </trkpt>
      <trkpt lat="48.38375" lon="7.28524">
        <ele>900</ele>
        <time>2020-09-06T11:24:16.936Z</time>
      </trkpt>
      <trkpt lat="48.38376" lon="7.28524">
        <ele>901</ele>
        <time>2020-09-06T11:24:17.936Z</time>
      </trkpt>
      <trkpt lat="48.38377" lon="7.28524">
        <ele>901</ele>
        <time>2020-09-06T11:24:18.937Z</time>
      </trkpt>
      <trkpt lat="48.38377" lon="7.28524">
        <ele>902</ele>
        <time>2020-09-06T11:24:19.937Z</time>
      </trkpt>
      <trkpt lat="48.38378" lon="7.28524">
        <ele>903</ele>
        <time>2020-09-06T11:24:20.936Z</time>
      </trkpt>
      <trkpt lat="48.38378" lon="7.28525">
        <ele>903</ele>
        <time>2020-09-06T11:24:21.937Z</time>
      </trkpt>
      <trkpt lat="48.38379" lon="7.28526">
        <ele>904</ele>
        <time>2020-09-06T11:24:22.936Z</time>
      </trkpt>
      <trkpt lat="48.38379" lon="7.28526">
        <ele>904</ele>
        <time>2020-09-06T11:24:23.937Z</time>
      </trkpt>
      <trkpt lat="48.3838" lon="7.28526">
        <ele>904</ele>
        <time>2020-09-06T11:24:24.936Z</time>
      </trkpt>
      <trkpt lat="48.3838" lon="7.28526">
        <ele>904</ele>
        <time>2020-09-06T11:24:25.937Z</time>
      </trkpt>
      <trkpt lat="48.38381" lon="7.28527">
        <ele>904</ele>
        <time>2020-09-06T11:24:26.936Z</time>
      </trkpt>
      <trkpt lat="48.38381" lon="7.28527">
        <ele>905</ele>
        <time>2020-09-06T11:24:27.937Z</time>
      </trkpt>
      <trkpt lat="48.38382" lon="7.28527">
        <ele>904</ele>
        <time>2020-09-06T11:24:28.937Z</time>
      </trkpt>
      <trkpt lat="48.38383" lon="7.28527">
        <ele>904</ele>
        <time>2020-09-06T11:24:29.936Z</time>
      </trkpt>
      <trkpt lat="48.38385" lon="7.28528">
        <ele>904</ele>
        <time>2020-09-06T11:24:30.937Z</time>
      </trkpt>
      <trkpt lat="48.38386" lon="7.28528">
        <ele>904</ele>
        <time>2020-09-06T11:24:31.937Z</time>
      </trkpt>
      <trkpt lat="48.38387" lon="7.28528">
        <ele>904</ele>
        <time>2020-09-06T11:24:32.937Z</time>
      </trkpt>
      <trkpt lat="48.38388" lon="7.28527">
        <ele>904</ele>
        <time>2020-09-06T11:24:33.937Z</time>
      </trkpt>
      <trkpt lat="48.38388" lon="7.28525">
        <ele>904</ele>
        <time>2020-09-06T11:24:34.937Z</time>
      </trkpt>
      <trkpt lat="48.38388" lon="7.28524">
        <ele>904</ele>
        <time>2020-09-06T11:24:35.936Z</time>
      </trkpt>
      <trkpt lat="48.38388" lon="7.28524">
        <ele>904</ele>
        <time>2020-09-06T11:24:36.937Z</time>
      </trkpt>
      <trkpt lat="48.38389" lon="7.28524">
        <ele>904</ele>
        <time>2020-09-06T11:24:37.937Z</time>
      </trkpt>
      <trkpt lat="48.3839" lon="7.28525">
        <ele>904</ele>
        <time>2020-09-06T11:24:38.937Z</time>
      </trkpt>
      <trkpt lat="48.38391" lon="7.28526">
        <ele>904</ele>
        <time>2020-09-06T11:24:39.937Z</time>
      </trkpt>
      <trkpt lat="48.38392" lon="7.28527">
        <ele>905</ele>
        <time>2020-09-06T11:24:40.937Z</time>
      </trkpt>
      <trkpt lat="48.38393" lon="7.28528">
        <ele>905</ele>
        <time>2020-09-06T11:24:41.937Z</time>
      </trkpt>
      <trkpt lat="48.38394" lon="7.28528">
        <ele>905</ele>
        <time>2020-09-06T11:24:42.936Z</time>
      </trkpt>
      <trkpt lat="48.38395" lon="7.28529">
        <ele>905</ele>
        <time>2020-09-06T11:24:43.937Z</time>
      </trkpt>
      <trkpt lat="48.38395" lon="7.2853">
        <ele>905</ele>
        <time>2020-09-06T11:24:44.936Z</time>
      </trkpt>
      <trkpt lat="48.38396" lon="7.28532">
        <ele>905</ele>
        <time>2020-09-06T11:24:45.937Z</time>
      </trkpt>
      <trkpt lat="48.38398" lon="7.28533">
        <ele>905</ele>
        <time>2020-09-06T11:24:46.937Z</time>
      </trkpt>
      <trkpt lat="48.38399" lon="7.28534">
        <ele>905</ele>
        <time>2020-09-06T11:24:47.937Z</time>
      </trkpt>
      <trkpt lat="48.384" lon="7.28535">
        <ele>905</ele>
        <time>2020-09-06T11:24:48.936Z</time>
      </trkpt>
      <trkpt lat="48.38401" lon="7.28536">
        <ele>905</ele>
        <time>2020-09-06T11:24:49.937Z</time>
      </trkpt>
      <trkpt lat="48.38402" lon="7.28537">
        <ele>905</ele>
        <time>2020-09-06T11:24:50.937Z</time>
      </trkpt>
      <trkpt lat="48.38403" lon="7.28538">
        <ele>904</ele>
        <time>2020-09-06T11:24:51.937Z</time>
      </trkpt>
      <trkpt lat="48.38405" lon="7.28539">
        <ele>904</ele>
        <time>2020-09-06T11:24:52.937Z</time>
      </trkpt>
      <trkpt lat="48.38405" lon="7.2854">
        <ele>904</ele>
        <time>2020-09-06T11:24:53.937Z</time>
      </trkpt>
      <trkpt lat="48.38406" lon="7.2854">
        <ele>904</ele>
        <time>2020-09-06T11:24:54.937Z</time>
      </trkpt>
      <trkpt lat="48.38406" lon="7.2854">
        <ele>904</ele>
        <time>2020-09-06T11:24:55.937Z</time>
      </trkpt>
      <trkpt lat="48.38407" lon="7.2854">
        <ele>904</ele>
        <time>2020-09-06T11:24:56.937Z</time>
      </trkpt>
      <trkpt lat="48.38407" lon="7.28541">
        <ele>905</ele>
        <time>2020-09-06T11:24:57.937Z</time>
      </trkpt>
      <trkpt lat="48.38408" lon="7.2854">
        <ele>905</ele>
        <time>2020-09-06T11:24:58.936Z</time>
      </trkpt>
      <trkpt lat="48.38409" lon="7.28541">
        <ele>905</ele>
        <time>2020-09-06T11:24:59.937Z</time>
      </trkpt>
      <trkpt lat="48.3841" lon="7.28542">
        <ele>906</ele>
        <time>2020-09-06T11:25:00.937Z</time>
      </trkpt>
      <trkpt lat="48.38411" lon="7.28543">
        <ele>906</ele>
        <time>2020-09-06T11:25:01.937Z</time>
      </trkpt>
      <trkpt lat="48.38412" lon="7.28544">
        <ele>906</ele>
        <time>2020-09-06T11:25:02.936Z</time>
      </trkpt>
      <trkpt lat="48.38412" lon="7.28545">
        <ele>906</ele>
        <time>2020-09-06T11:25:03.937Z</time>
      </trkpt>
      <trkpt lat="48.38413" lon="7.28545">
        <ele>906</ele>
        <time>2020-09-06T11:25:04.937Z</time>
      </trkpt>
      <trkpt lat="48.38413" lon="7.28545">
        <ele>906</ele>
        <time>2020-09-06T11:25:05.937Z</time>
      </trkpt>
      <trkpt lat="48.38414" lon="7.28545">
        <ele>906</ele>
        <time>2020-09-06T11:25:06.937Z</time>
      </trkpt>
      <trkpt lat="48.38414" lon="7.28544">
        <ele>905</ele>
        <time>2020-09-06T11:25:07.936Z</time>
      </trkpt>
      <trkpt lat="48.38414" lon="7.28544">
        <ele>905</ele>
        <time>2020-09-06T11:25:08.937Z</time>
      </trkpt>
      <trkpt lat="48.38415" lon="7.28546">
        <ele>905</ele>
        <time>2020-09-06T11:25:09.936Z</time>
      </trkpt>
      <trkpt lat="48.38416" lon="7.28547">
        <ele>904</ele>
        <time>2020-09-06T11:25:10.937Z</time>
      </trkpt>
      <trkpt lat="48.38417" lon="7.28549">
        <ele>904</ele>
        <time>2020-09-06T11:25:11.937Z</time>
      </trkpt>
      <trkpt lat="48.38418" lon="7.28551">
        <ele>904</ele>
        <time>2020-09-06T11:25:12.937Z</time>
      </trkpt>
      <trkpt lat="48.38419" lon="7.28552">
        <ele>904</ele>
        <time>2020-09-06T11:25:13.937Z</time>
      </trkpt>
      <trkpt lat="48.3842" lon="7.28552">
        <ele>904</ele>
        <time>2020-09-06T11:25:14.937Z</time>
      </trkpt>
      <trkpt lat="48.3842" lon="7.28553">
        <ele>903</ele>
        <time>2020-09-06T11:25:15.937Z</time>
      </trkpt>
      <trkpt lat="48.38421" lon="7.28554">
        <ele>903</ele>
        <time>2020-09-06T11:25:16.937Z</time>
      </trkpt>
      <trkpt lat="48.38422" lon="7.28555">
        <ele>902</ele>
        <time>2020-09-06T11:25:17.937Z</time>
      </trkpt>
      <trkpt lat="48.38423" lon="7.28556">
        <ele>902</ele>
        <time>2020-09-06T11:25:18.937Z</time>
      </trkpt>
      <trkpt lat="48.38424" lon="7.28558">
        <ele>902</ele>
        <time>2020-09-06T11:25:19.937Z</time>
      </trkpt>
      <trkpt lat="48.38424" lon="7.28559">
        <ele>901</ele>
        <time>2020-09-06T11:25:20.936Z</time>
      </trkpt>
      <trkpt lat="48.38425" lon="7.2856">
        <ele>901</ele>
        <time>2020-09-06T11:25:21.936Z</time>
      </trkpt>
      <trkpt lat="48.38426" lon="7.2856">
        <ele>901</ele>
        <time>2020-09-06T11:25:22.937Z</time>
      </trkpt>
      <trkpt lat="48.38426" lon="7.28561">
        <ele>901</ele>
        <time>2020-09-06T11:25:23.937Z</time>
      </trkpt>
      <trkpt lat="48.38427" lon="7.28561">
        <ele>901</ele>
        <time>2020-09-06T11:25:24.937Z</time>
      </trkpt>
      <trkpt lat="48.38428" lon="7.28562">
        <ele>902</ele>
        <time>2020-09-06T11:25:25.937Z</time>
      </trkpt>
      <trkpt lat="48.38428" lon="7.28563">
        <ele>902</ele>
        <time>2020-09-06T11:25:26.937Z</time>
      </trkpt>
      <trkpt lat="48.38428" lon="7.28565">
        <ele>902</ele>
        <time>2020-09-06T11:25:27.937Z</time>
      </trkpt>
      <trkpt lat="48.38429" lon="7.28566">
        <ele>902</ele>
        <time>2020-09-06T11:25:28.936Z</time>
      </trkpt>
      <trkpt lat="48.3843" lon="7.28567">
        <ele>902</ele>
        <time>2020-09-06T11:25:29.937Z</time>
      </trkpt>
      <trkpt lat="48.38432" lon="7.28568">
        <ele>902</ele>
        <time>2020-09-06T11:25:30.936Z</time>
      </trkpt>
      <trkpt lat="48.38433" lon="7.28569">
        <ele>902</ele>
        <time>2020-09-06T11:25:31.937Z</time>
      </trkpt>
      <trkpt lat="48.38433" lon="7.28569">
        <ele>903</ele>
        <time>2020-09-06T11:25:32.936Z</time>
      </trkpt>
      <trkpt lat="48.38434" lon="7.2857">
        <ele>903</ele>
        <time>2020-09-06T11:25:33.937Z</time>
      </trkpt>
      <trkpt lat="48.38434" lon="7.28572">
        <ele>903</ele>
        <time>2020-09-06T11:25:34.937Z</time>
      </trkpt>
      <trkpt lat="48.38435" lon="7.28574">
        <ele>903</ele>
        <time>2020-09-06T11:25:35.937Z</time>
      </trkpt>
      <trkpt lat="48.38435" lon="7.28575">
        <ele>903</ele>
        <time>2020-09-06T11:25:36.936Z</time>
      </trkpt>
      <trkpt lat="48.38435" lon="7.28576">
        <ele>904</ele>
        <time>2020-09-06T11:25:37.937Z</time>
      </trkpt>
      <trkpt lat="48.38436" lon="7.28577">
        <ele>904</ele>
        <time>2020-09-06T11:25:38.936Z</time>
      </trkpt>
      <trkpt lat="48.38437" lon="7.28578">
        <ele>904</ele>
        <time>2020-09-06T11:25:39.936Z</time>
      </trkpt>
      <trkpt lat="48.38438" lon="7.28579">
        <ele>903</ele>
        <time>2020-09-06T11:25:40.937Z</time>
      </trkpt>
      <trkpt lat="48.38438" lon="7.28579">
        <ele>903</ele>
        <time>2020-09-06T11:25:41.937Z</time>
      </trkpt>
      <trkpt lat="48.38439" lon="7.2858">
        <ele>903</ele>
        <time>2020-09-06T11:25:42.937Z</time>
      </trkpt>
      <trkpt lat="48.38439" lon="7.28582">
        <ele>902</ele>
        <time>2020-09-06T11:25:43.937Z</time>
      </trkpt>
      <trkpt lat="48.38439" lon="7.28583">
        <ele>902</ele>
        <time>2020-09-06T11:25:44.937Z</time>
      </trkpt>
      <trkpt lat="48.3844" lon="7.28584">
        <ele>902</ele>
        <time>2020-09-06T11:25:45.937Z</time>
      </trkpt>
      <trkpt lat="48.3844" lon="7.28585">
        <ele>902</ele>
        <time>2020-09-06T11:25:46.937Z</time>
      </trkpt>
      <trkpt lat="48.38441" lon="7.28587">
        <ele>902</ele>
        <time>2020-09-06T11:25:47.937Z</time>
      </trkpt>
      <trkpt lat="48.38441" lon="7.28588">
        <ele>902</ele>
        <time>2020-09-06T11:25:48.937Z</time>
      </trkpt>
      <trkpt lat="48.38442" lon="7.28589">
        <ele>902</ele>
        <time>2020-09-06T11:25:49.936Z</time>
      </trkpt>
      <trkpt lat="48.38442" lon="7.28589">
        <ele>901</ele>
        <time>2020-09-06T11:25:50.936Z</time>
      </trkpt>
      <trkpt lat="48.38442" lon="7.28589">
        <ele>901</ele>
        <time>2020-09-06T11:25:51.937Z</time>
      </trkpt>
      <trkpt lat="48.38443" lon="7.2859">
        <ele>901</ele>
        <time>2020-09-06T11:25:52.937Z</time>
      </trkpt>
      <trkpt lat="48.38443" lon="7.2859">
        <ele>901</ele>
        <time>2020-09-06T11:25:53.936Z</time>
      </trkpt>
      <trkpt lat="48.38444" lon="7.28591">
        <ele>900</ele>
        <time>2020-09-06T11:25:54.936Z</time>
      </trkpt>
      <trkpt lat="48.38445" lon="7.28592">
        <ele>900</ele>
        <time>2020-09-06T11:25:55.936Z</time>
      </trkpt>
      <trkpt lat="48.38445" lon="7.28594">
        <ele>900</ele>
        <time>2020-09-06T11:25:56.937Z</time>
      </trkpt>
      <trkpt lat="48.38445" lon="7.28596">
        <ele>900</ele>
        <time>2020-09-06T11:25:57.937Z</time>
      </trkpt>
      <trkpt lat="48.38445" lon="7.28599">
        <ele>899</ele>
        <time>2020-09-06T11:25:58.937Z</time>
      </trkpt>
      <trkpt lat="48.38446" lon="7.28601">
        <ele>899</ele>
        <time>2020-09-06T11:25:59.937Z</time>
      </trkpt>
      <trkpt lat="48.38446" lon="7.28603">
        <ele>899</ele>
        <time>2020-09-06T11:26:00.936Z</time>
      </trkpt>
      <trkpt lat="48.38447" lon="7.28605">
        <ele>899</ele>
        <time>2020-09-06T11:26:01.937Z</time>
      </trkpt>
      <trkpt lat="48.38447" lon="7.28606">
        <ele>899</ele>
        <time>2020-09-06T11:26:02.937Z</time>
      </trkpt>
      <trkpt lat="48.38448" lon="7.28606">
        <ele>898</ele>
        <time>2020-09-06T11:26:03.937Z</time>
      </trkpt>
      <trkpt lat="48.38449" lon="7.28608">
        <ele>898</ele>
        <time>2020-09-06T11:26:04.937Z</time>
      </trkpt>
      <trkpt lat="48.3845" lon="7.2861">
        <ele>898</ele>
        <time>2020-09-06T11:26:05.936Z</time>
      </trkpt>
      <trkpt lat="48.38451" lon="7.28612">
        <ele>898</ele>
        <time>2020-09-06T11:26:06.937Z</time>
      </trkpt>
      <trkpt lat="48.38451" lon="7.28614">
        <ele>898</ele>
        <time>2020-09-06T11:26:07.937Z</time>
      </trkpt>
      <trkpt lat="48.38452" lon="7.28616">
        <ele>898</ele>
        <time>2020-09-06T11:26:08.936Z</time>
      </trkpt>
      <trkpt lat="48.38453" lon="7.28617">
        <ele>898</ele>
        <time>2020-09-06T11:26:09.937Z</time>
      </trkpt>
      <trkpt lat="48.38454" lon="7.28619">
        <ele>898</ele>
        <time>2020-09-06T11:26:10.937Z</time>
      </trkpt>
      <trkpt lat="48.38455" lon="7.28621">
        <ele>898</ele>
        <time>2020-09-06T11:26:11.937Z</time>
      </trkpt>
      <trkpt lat="48.38455" lon="7.28623">
        <ele>898</ele>
        <time>2020-09-06T11:26:12.937Z</time>
      </trkpt>
      <trkpt lat="48.38456" lon="7.28625">
        <ele>898</ele>
        <time>2020-09-06T11:26:13.937Z</time>
      </trkpt>
      <trkpt lat="48.38457" lon="7.28626">
        <ele>898</ele>
        <time>2020-09-06T11:26:14.937Z</time>
      </trkpt>
      <trkpt lat="48.38457" lon="7.28627">
        <ele>898</ele>
        <time>2020-09-06T11:26:15.936Z</time>
      </trkpt>
      <trkpt lat="48.38458" lon="7.28628">
        <ele>898</ele>
        <time>2020-09-06T11:26:16.936Z</time>
      </trkpt>
      <trkpt lat="48.38459" lon="7.28628">
        <ele>897</ele>
        <time>2020-09-06T11:26:17.937Z</time>
      </trkpt>
      <trkpt lat="48.3846" lon="7.28629">
        <ele>897</ele>
        <time>2020-09-06T11:26:18.937Z</time>
      </trkpt>
      <trkpt lat="48.38461" lon="7.2863">
        <ele>897</ele>
        <time>2020-09-06T11:26:19.937Z</time>
      </trkpt>
      <trkpt lat="48.38462" lon="7.2863">
        <ele>896</ele>
        <time>2020-09-06T11:26:20.937Z</time>
      </trkpt>
      <trkpt lat="48.38463" lon="7.28631">
        <ele>896</ele>
        <time>2020-09-06T11:26:21.937Z</time>
      </trkpt>
      <trkpt lat="48.38464" lon="7.28632">
        <ele>896</ele>
        <time>2020-09-06T11:26:22.937Z</time>
      </trkpt>
      <trkpt lat="48.38465" lon="7.28633">
        <ele>895</ele>
        <time>2020-09-06T11:26:23.937Z</time>
      </trkpt>
      <trkpt lat="48.38465" lon="7.28634">
        <ele>895</ele>
        <time>2020-09-06T11:26:24.937Z</time>
      </trkpt>
      <trkpt lat="48.38466" lon="7.28635">
        <ele>895</ele>
        <time>2020-09-06T11:26:25.936Z</time>
      </trkpt>
      <trkpt lat="48.38467" lon="7.28636">
        <ele>895</ele>
        <time>2020-09-06T11:26:26.937Z</time>
      </trkpt>
      <trkpt lat="48.38468" lon="7.28637">
        <ele>895</ele>
        <time>2020-09-06T11:26:27.937Z</time>
      </trkpt>
      <trkpt lat="48.38469" lon="7.28637">
        <ele>895</ele>
        <time>2020-09-06T11:26:28.936Z</time>
      </trkpt>
      <trkpt lat="48.3847" lon="7.28638">
        <ele>894</ele>
        <time>2020-09-06T11:26:29.936Z</time>
      </trkpt>
      <trkpt lat="48.38471" lon="7.28639">
        <ele>894</ele>
        <time>2020-09-06T11:26:30.937Z</time>
      </trkpt>
      <trkpt lat="48.38472" lon="7.2864">
        <ele>894</ele>
        <time>2020-09-06T11:26:31.937Z</time>
      </trkpt>
      <trkpt lat="48.38474" lon="7.28642">
        <ele>894</ele>
        <time>2020-09-06T11:26:32.936Z</time>
      </trkpt>
      <trkpt lat="48.38475" lon="7.28642">
        <ele>894</ele>
        <time>2020-09-06T11:26:33.937Z</time>
      </trkpt>
      <trkpt lat="48.38475" lon="7.28643">
        <ele>893</ele>
        <time>2020-09-06T11:26:34.937Z</time>
      </trkpt>
      <trkpt lat="48.38477" lon="7.28645">
        <ele>893</ele>
        <time>2020-09-06T11:26:35.937Z</time>
      </trkpt>
      <trkpt lat="48.38478" lon="7.28647">
        <ele>893</ele>
        <time>2020-09-06T11:26:36.937Z</time>
      </trkpt>
      <trkpt lat="48.38479" lon="7.28648">
        <ele>893</ele>
        <time>2020-09-06T11:26:37.937Z</time>
      </trkpt>
      <trkpt lat="48.3848" lon="7.28649">
        <ele>893</ele>
        <time>2020-09-06T11:26:38.937Z</time>
      </trkpt>
      <trkpt lat="48.38481" lon="7.2865">
        <ele>893</ele>
        <time>2020-09-06T11:26:39.937Z</time>
      </trkpt>
      <trkpt lat="48.38482" lon="7.28653">
        <ele>893</ele>
        <time>2020-09-06T11:26:40.937Z</time>
      </trkpt>
      <trkpt lat="48.38482" lon="7.28654">
        <ele>893</ele>
        <time>2020-09-06T11:26:41.936Z</time>
      </trkpt>
      <trkpt lat="48.38483" lon="7.28654">
        <ele>893</ele>
        <time>2020-09-06T11:26:42.937Z</time>
      </trkpt>
      <trkpt lat="48.38483" lon="7.28654">
        <ele>893</ele>
        <time>2020-09-06T11:26:43.937Z</time>
      </trkpt>
      <trkpt lat="48.38483" lon="7.28655">
        <ele>894</ele>
        <time>2020-09-06T11:26:44.936Z</time>
      </trkpt>
      <trkpt lat="48.38484" lon="7.28655">
        <ele>894</ele>
        <time>2020-09-06T11:26:45.937Z</time>
      </trkpt>
      <trkpt lat="48.38485" lon="7.28657">
        <ele>894</ele>
        <time>2020-09-06T11:26:46.937Z</time>
      </trkpt>
      <trkpt lat="48.38487" lon="7.28659">
        <ele>895</ele>
        <time>2020-09-06T11:26:47.936Z</time>
      </trkpt>
      <trkpt lat="48.38488" lon="7.28661">
        <ele>895</ele>
        <time>2020-09-06T11:26:48.937Z</time>
      </trkpt>
      <trkpt lat="48.3849" lon="7.28662">
        <ele>895</ele>
        <time>2020-09-06T11:26:49.937Z</time>
      </trkpt>
      <trkpt lat="48.38491" lon="7.28662">
        <ele>895</ele>
        <time>2020-09-06T11:26:50.937Z</time>
      </trkpt>
      <trkpt lat="48.38492" lon="7.28663">
        <ele>895</ele>
        <time>2020-09-06T11:26:51.937Z</time>
      </trkpt>
      <trkpt lat="48.38493" lon="7.28663">
        <ele>895</ele>
        <time>2020-09-06T11:26:52.937Z</time>
      </trkpt>
      <trkpt lat="48.38494" lon="7.28664">
        <ele>895</ele>
        <time>2020-09-06T11:26:53.937Z</time>
      </trkpt>
      <trkpt lat="48.38494" lon="7.28665">
        <ele>895</ele>
        <time>2020-09-06T11:26:54.937Z</time>
      </trkpt>
      <trkpt lat="48.38495" lon="7.28665">
        <ele>894</ele>
        <time>2020-09-06T11:26:55.937Z</time>
      </trkpt>
      <trkpt lat="48.38495" lon="7.28665">
        <ele>894</ele>
        <time>2020-09-06T11:26:56.937Z</time>
      </trkpt>
      <trkpt lat="48.38496" lon="7.28666">
        <ele>894</ele>
        <time>2020-09-06T11:26:57.937Z</time>
      </trkpt>
      <trkpt lat="48.38496" lon="7.28666">
        <ele>894</ele>
        <time>2020-09-06T11:26:58.937Z</time>
      </trkpt>
      <trkpt lat="48.38497" lon="7.28667">
        <ele>894</ele>
        <time>2020-09-06T11:26:59.937Z</time>
      </trkpt>
      <trkpt lat="48.38498" lon="7.28668">
        <ele>894</ele>
        <time>2020-09-06T11:27:00.937Z</time>
      </trkpt>
      <trkpt lat="48.38498" lon="7.28669">
        <ele>893</ele>
        <time>2020-09-06T11:27:01.937Z</time>
      </trkpt>
      <trkpt lat="48.38499" lon="7.2867">
        <ele>893</ele>
        <time>2020-09-06T11:27:02.937Z</time>
      </trkpt>
      <trkpt lat="48.385" lon="7.28671">
        <ele>893</ele>
        <time>2020-09-06T11:27:03.936Z</time>
      </trkpt>
      <trkpt lat="48.38501" lon="7.28671">
        <ele>893</ele>
        <time>2020-09-06T11:27:04.936Z</time>
      </trkpt>
      <trkpt lat="48.38502" lon="7.28672">
        <ele>893</ele>
        <time>2020-09-06T11:27:05.937Z</time>
      </trkpt>
      <trkpt lat="48.38503" lon="7.28673">
        <ele>893</ele>
        <time>2020-09-06T11:27:06.937Z</time>
      </trkpt>
      <trkpt lat="48.38504" lon="7.28674">
        <ele>892</ele>
        <time>2020-09-06T11:27:07.937Z</time>
      </trkpt>
      <trkpt lat="48.38504" lon="7.28675">
        <ele>892</ele>
        <time>2020-09-06T11:27:08.936Z</time>
      </trkpt>
      <trkpt lat="48.38505" lon="7.28676">
        <ele>892</ele>
        <time>2020-09-06T11:27:09.936Z</time>
      </trkpt>
      <trkpt lat="48.38506" lon="7.28677">
        <ele>891</ele>
        <time>2020-09-06T11:27:10.937Z</time>
      </trkpt>
      <trkpt lat="48.38506" lon="7.28678">
        <ele>891</ele>
        <time>2020-09-06T11:27:11.937Z</time>
      </trkpt>
      <trkpt lat="48.38507" lon="7.28678">
        <ele>891</ele>
        <time>2020-09-06T11:27:12.937Z</time>
      </trkpt>
      <trkpt lat="48.38508" lon="7.28678">
        <ele>891</ele>
        <time>2020-09-06T11:27:13.936Z</time>
      </trkpt>
      <trkpt lat="48.38509" lon="7.28678">
        <ele>891</ele>
        <time>2020-09-06T11:27:14.937Z</time>
      </trkpt>
      <trkpt lat="48.3851" lon="7.28678">
        <ele>891</ele>
        <time>2020-09-06T11:27:15.937Z</time>
      </trkpt>
      <trkpt lat="48.38511" lon="7.28679">
        <ele>891</ele>
        <time>2020-09-06T11:27:16.937Z</time>
      </trkpt>
      <trkpt lat="48.38512" lon="7.28679">
        <ele>891</ele>
        <time>2020-09-06T11:27:17.936Z</time>
      </trkpt>
      <trkpt lat="48.38512" lon="7.2868">
        <ele>891</ele>
        <time>2020-09-06T11:27:18.936Z</time>
      </trkpt>
      <trkpt lat="48.38514" lon="7.28682">
        <ele>891</ele>
        <time>2020-09-06T11:27:19.937Z</time>
      </trkpt>
      <trkpt lat="48.38514" lon="7.28682">
        <ele>891</ele>
        <time>2020-09-06T11:27:20.937Z</time>
      </trkpt>
      <trkpt lat="48.38515" lon="7.28683">
        <ele>891</ele>
        <time>2020-09-06T11:27:21.937Z</time>
      </trkpt>
      <trkpt lat="48.38516" lon="7.28684">
        <ele>891</ele>
        <time>2020-09-06T11:27:22.936Z</time>
      </trkpt>
      <trkpt lat="48.38517" lon="7.28685">
        <ele>891</ele>
        <time>2020-09-06T11:27:23.937Z</time>
      </trkpt>
      <trkpt lat="48.38517" lon="7.28687">
        <ele>892</ele>
        <time>2020-09-06T11:27:24.937Z</time>
      </trkpt>
      <trkpt lat="48.38518" lon="7.28688">
        <ele>892</ele>
        <time>2020-09-06T11:27:25.937Z</time>
      </trkpt>
      <trkpt lat="48.38518" lon="7.28689">
        <ele>892</ele>
        <time>2020-09-06T11:27:26.937Z</time>
      </trkpt>
      <trkpt lat="48.38518" lon="7.28691">
        <ele>892</ele>
        <time>2020-09-06T11:27:27.937Z</time>
      </trkpt>
      <trkpt lat="48.38519" lon="7.28692">
        <ele>892</ele>
        <time>2020-09-06T11:27:28.936Z</time>
      </trkpt>
      <trkpt lat="48.38519" lon="7.28693">
        <ele>892</ele>
        <time>2020-09-06T11:27:29.937Z</time>
      </trkpt>
      <trkpt lat="48.3852" lon="7.28693">
        <ele>892</ele>
        <time>2020-09-06T11:27:30.937Z</time>
      </trkpt>
      <trkpt lat="48.38521" lon="7.28695">
        <ele>892</ele>
        <time>2020-09-06T11:27:31.937Z</time>
      </trkpt>
      <trkpt lat="48.38522" lon="7.28697">
        <ele>892</ele>
        <time>2020-09-06T11:27:32.937Z</time>
      </trkpt>
      <trkpt lat="48.38522" lon="7.28698">
        <ele>891</ele>
        <time>2020-09-06T11:27:33.937Z</time>
      </trkpt>
      <trkpt lat="48.38523" lon="7.28699">
        <ele>891</ele>
        <time>2020-09-06T11:27:34.937Z</time>
      </trkpt>
      <trkpt lat="48.38525" lon="7.28703">
        <ele>891</ele>
        <time>2020-09-06T11:27:35.937Z</time>
      </trkpt>
      <trkpt lat="48.38526" lon="7.28705">
        <ele>891</ele>
        <time>2020-09-06T11:27:36.937Z</time>
      </trkpt>
      <trkpt lat="48.38526" lon="7.28706">
        <ele>891</ele>
        <time>2020-09-06T11:27:37.937Z</time>
      </trkpt>
      <trkpt lat="48.38525" lon="7.28708">
        <ele>891</ele>
        <time>2020-09-06T11:27:38.937Z</time>
      </trkpt>
      <trkpt lat="48.38526" lon="7.2871">
        <ele>892</ele>
        <time>2020-09-06T11:27:39.936Z</time>
      </trkpt>
      <trkpt lat="48.38526" lon="7.28711">
        <ele>892</ele>
        <time>2020-09-06T11:27:40.936Z</time>
      </trkpt>
      <trkpt lat="48.38527" lon="7.28712">
        <ele>892</ele>
        <time>2020-09-06T11:27:41.937Z</time>
      </trkpt>
      <trkpt lat="48.38529" lon="7.28713">
        <ele>892</ele>
        <time>2020-09-06T11:27:42.937Z</time>
      </trkpt>
      <trkpt lat="48.38529" lon="7.28713">
        <ele>892</ele>
        <time>2020-09-06T11:27:43.936Z</time>
      </trkpt>
      <trkpt lat="48.3853" lon="7.28714">
        <ele>892</ele>
        <time>2020-09-06T11:27:44.937Z</time>
      </trkpt>
      <trkpt lat="48.3853" lon="7.28714">
        <ele>893</ele>
        <time>2020-09-06T11:27:45.936Z</time>
      </trkpt>
      <trkpt lat="48.38531" lon="7.28714">
        <ele>893</ele>
        <time>2020-09-06T11:27:46.937Z</time>
      </trkpt>
      <trkpt lat="48.38532" lon="7.28715">
        <ele>892</ele>
        <time>2020-09-06T11:27:47.936Z</time>
      </trkpt>
      <trkpt lat="48.38533" lon="7.28716">
        <ele>892</ele>
        <time>2020-09-06T11:27:48.937Z</time>
      </trkpt>
      <trkpt lat="48.38533" lon="7.28717">
        <ele>892</ele>
        <time>2020-09-06T11:27:49.937Z</time>
      </trkpt>
      <trkpt lat="48.38534" lon="7.28718">
        <ele>892</ele>
        <time>2020-09-06T11:27:50.936Z</time>
      </trkpt>
      <trkpt lat="48.38534" lon="7.28719">
        <ele>891</ele>
        <time>2020-09-06T11:27:51.936Z</time>
      </trkpt>
      <trkpt lat="48.38535" lon="7.2872">
        <ele>891</ele>
        <time>2020-09-06T11:27:52.937Z</time>
      </trkpt>
      <trkpt lat="48.38536" lon="7.28721">
        <ele>891</ele>
        <time>2020-09-06T11:27:53.937Z</time>
      </trkpt>
      <trkpt lat="48.38536" lon="7.28722">
        <ele>891</ele>
        <time>2020-09-06T11:27:54.937Z</time>
      </trkpt>
      <trkpt lat="48.38537" lon="7.28723">
        <ele>891</ele>
        <time>2020-09-06T11:27:55.937Z</time>
      </trkpt>
      <trkpt lat="48.38538" lon="7.28724">
        <ele>891</ele>
        <time>2020-09-06T11:27:56.936Z</time>
      </trkpt>
      <trkpt lat="48.38539" lon="7.28725">
        <ele>891</ele>
        <time>2020-09-06T11:27:57.937Z</time>
      </trkpt>
      <trkpt lat="48.38541" lon="7.28726">
        <ele>891</ele>
        <time>2020-09-06T11:27:58.937Z</time>
      </trkpt>
      <trkpt lat="48.38541" lon="7.28727">
        <ele>891</ele>
        <time>2020-09-06T11:27:59.937Z</time>
      </trkpt>
      <trkpt lat="48.38542" lon="7.28729">
        <ele>890</ele>
        <time>2020-09-06T11:28:00.937Z</time>
      </trkpt>
      <trkpt lat="48.38542" lon="7.2873">
        <ele>890</ele>
        <time>2020-09-06T11:28:01.937Z</time>
      </trkpt>
      <trkpt lat="48.38542" lon="7.28731">
        <ele>890</ele>
        <time>2020-09-06T11:28:02.937Z</time>
      </trkpt>
      <trkpt lat="48.38543" lon="7.28733">
        <ele>890</ele>
        <time>2020-09-06T11:28:03.937Z</time>
      </trkpt>
      <trkpt lat="48.38543" lon="7.28734">
        <ele>890</ele>
        <time>2020-09-06T11:28:04.937Z</time>
      </trkpt>
      <trkpt lat="48.38543" lon="7.28736">
        <ele>890</ele>
        <time>2020-09-06T11:28:05.937Z</time>
      </trkpt>
      <trkpt lat="48.38544" lon="7.28737">
        <ele>889</ele>
        <time>2020-09-06T11:28:06.937Z</time>
      </trkpt>
      <trkpt lat="48.38545" lon="7.28738">
        <ele>888</ele>
        <time>2020-09-06T11:28:07.937Z</time>
      </trkpt>
      <trkpt lat="48.38546" lon="7.2874">
        <ele>888</ele>
        <time>2020-09-06T11:28:08.937Z</time>
      </trkpt>
      <trkpt lat="48.38547" lon="7.28742">
        <ele>887</ele>
        <time>2020-09-06T11:28:09.937Z</time>
      </trkpt>
      <trkpt lat="48.38548" lon="7.28744">
        <ele>887</ele>
        <time>2020-09-06T11:28:10.936Z</time>
      </trkpt>
      <trkpt lat="48.38548" lon="7.28746">
        <ele>886</ele>
        <time>2020-09-06T11:28:11.937Z</time>
      </trkpt>
      <trkpt lat="48.38549" lon="7.28747">
        <ele>886</ele>
        <time>2020-09-06T11:28:12.937Z</time>
      </trkpt>
      <trkpt lat="48.38549" lon="7.28748">
        <ele>885</ele>
        <time>2020-09-06T11:28:13.937Z</time>
      </trkpt>
      <trkpt lat="48.38549" lon="7.2875">
        <ele>885</ele>
        <time>2020-09-06T11:28:14.937Z</time>
      </trkpt>
      <trkpt lat="48.3855" lon="7.28751">
        <ele>885</ele>
        <time>2020-09-06T11:28:15.937Z</time>
      </trkpt>
      <trkpt lat="48.3855" lon="7.28753">
        <ele>884</ele>
        <time>2020-09-06T11:28:16.937Z</time>
      </trkpt>
      <trkpt lat="48.38551" lon="7.28754">
        <ele>884</ele>
        <time>2020-09-06T11:28:17.937Z</time>
      </trkpt>
      <trkpt lat="48.38552" lon="7.28756">
        <ele>884</ele>
        <time>2020-09-06T11:28:18.937Z</time>
      </trkpt>
      <trkpt lat="48.38554" lon="7.28759">
        <ele>884</ele>
        <time>2020-09-06T11:28:19.937Z</time>
      </trkpt>
      <trkpt lat="48.38555" lon="7.2876">
        <ele>883</ele>
        <time>2020-09-06T11:28:20.936Z</time>
      </trkpt>
      <trkpt lat="48.38556" lon="7.28762">
        <ele>883</ele>
        <time>2020-09-06T11:28:21.937Z</time>
      </trkpt>
      <trkpt lat="48.38556" lon="7.28765">
        <ele>883</ele>
        <time>2020-09-06T11:28:22.937Z</time>
      </trkpt>
      <trkpt lat="48.38557" lon="7.28766">
        <ele>882</ele>
        <time>2020-09-06T11:28:23.936Z</time>
      </trkpt>
      <trkpt lat="48.38558" lon="7.28768">
        <ele>882</ele>
        <time>2020-09-06T11:28:24.937Z</time>
      </trkpt>
      <trkpt lat="48.38558" lon="7.2877">
        <ele>881</ele>
        <time>2020-09-06T11:28:25.937Z</time>
      </trkpt>
      <trkpt lat="48.38558" lon="7.28771">
        <ele>881</ele>
        <time>2020-09-06T11:28:26.937Z</time>
      </trkpt>
      <trkpt lat="48.38558" lon="7.28771">
        <ele>881</ele>
        <time>2020-09-06T11:28:27.937Z</time>
      </trkpt>
      <trkpt lat="48.38559" lon="7.28772">
        <ele>881</ele>
        <time>2020-09-06T11:28:28.937Z</time>
      </trkpt>
      <trkpt lat="48.38559" lon="7.28773">
        <ele>880</ele>
        <time>2020-09-06T11:28:29.937Z</time>
      </trkpt>
      <trkpt lat="48.38559" lon="7.28775">
        <ele>880</ele>
        <time>2020-09-06T11:28:30.937Z</time>
      </trkpt>
      <trkpt lat="48.3856" lon="7.28777">
        <ele>880</ele>
        <time>2020-09-06T11:28:31.937Z</time>
      </trkpt>
      <trkpt lat="48.3856" lon="7.28778">
        <ele>880</ele>
        <time>2020-09-06T11:28:32.937Z</time>
      </trkpt>
      <trkpt lat="48.38561" lon="7.28779">
        <ele>879</ele>
        <time>2020-09-06T11:28:33.936Z</time>
      </trkpt>
      <trkpt lat="48.38562" lon="7.28781">
        <ele>879</ele>
        <time>2020-09-06T11:28:34.937Z</time>
      </trkpt>
      <trkpt lat="48.38562" lon="7.28782">
        <ele>879</ele>
        <time>2020-09-06T11:28:35.937Z</time>
      </trkpt>
      <trkpt lat="48.38563" lon="7.28784">
        <ele>878</ele>
        <time>2020-09-06T11:28:36.937Z</time>
      </trkpt>
      <trkpt lat="48.38564" lon="7.28785">
        <ele>878</ele>
        <time>2020-09-06T11:28:37.937Z</time>
      </trkpt>
      <trkpt lat="48.38564" lon="7.28787">
        <ele>878</ele>
        <time>2020-09-06T11:28:38.937Z</time>
      </trkpt>
      <trkpt lat="48.38564" lon="7.28787">
        <ele>878</ele>
        <time>2020-09-06T11:28:39.937Z</time>
      </trkpt>
      <trkpt lat="48.38565" lon="7.28788">
        <ele>878</ele>
        <time>2020-09-06T11:28:40.937Z</time>
      </trkpt>
      <trkpt lat="48.38566" lon="7.2879">
        <ele>878</ele>
        <time>2020-09-06T11:28:41.937Z</time>
      </trkpt>
      <trkpt lat="48.38567" lon="7.28791">
        <ele>878</ele>
        <time>2020-09-06T11:28:42.936Z</time>
      </trkpt>
      <trkpt lat="48.38568" lon="7.28793">
        <ele>878</ele>
        <time>2020-09-06T11:28:43.937Z</time>
      </trkpt>
      <trkpt lat="48.3857" lon="7.28797">
        <ele>878</ele>
        <time>2020-09-06T11:28:44.937Z</time>
      </trkpt>
      <trkpt lat="48.38571" lon="7.28798">
        <ele>879</ele>
        <time>2020-09-06T11:28:45.936Z</time>
      </trkpt>
      <trkpt lat="48.38572" lon="7.288">
        <ele>879</ele>
        <time>2020-09-06T11:28:46.937Z</time>
      </trkpt>
      <trkpt lat="48.38572" lon="7.28801">
        <ele>879</ele>
        <time>2020-09-06T11:28:47.937Z</time>
      </trkpt>
      <trkpt lat="48.38573" lon="7.28802">
        <ele>879</ele>
        <time>2020-09-06T11:28:48.937Z</time>
      </trkpt>
      <trkpt lat="48.38573" lon="7.28804">
        <ele>879</ele>
        <time>2020-09-06T11:28:49.936Z</time>
      </trkpt>
      <trkpt lat="48.38574" lon="7.28807">
        <ele>879</ele>
        <time>2020-09-06T11:28:50.936Z</time>
      </trkpt>
      <trkpt lat="48.38574" lon="7.28809">
        <ele>879</ele>
        <time>2020-09-06T11:28:51.937Z</time>
      </trkpt>
      <trkpt lat="48.38574" lon="7.28811">
        <ele>879</ele>
        <time>2020-09-06T11:28:52.936Z</time>
      </trkpt>
      <trkpt lat="48.38574" lon="7.28811">
        <ele>879</ele>
        <time>2020-09-06T11:28:53.937Z</time>
      </trkpt>
      <trkpt lat="48.38574" lon="7.28813">
        <ele>879</ele>
        <time>2020-09-06T11:28:54.937Z</time>
      </trkpt>
      <trkpt lat="48.38575" lon="7.28814">
        <ele>879</ele>
        <time>2020-09-06T11:28:55.937Z</time>
      </trkpt>
      <trkpt lat="48.38575" lon="7.28816">
        <ele>879</ele>
        <time>2020-09-06T11:28:56.936Z</time>
      </trkpt>
      <trkpt lat="48.38576" lon="7.28818">
        <ele>879</ele>
        <time>2020-09-06T11:28:57.937Z</time>
      </trkpt>
      <trkpt lat="48.38577" lon="7.28821">
        <ele>879</ele>
        <time>2020-09-06T11:28:58.937Z</time>
      </trkpt>
      <trkpt lat="48.38578" lon="7.28823">
        <ele>879</ele>
        <time>2020-09-06T11:28:59.937Z</time>
      </trkpt>
      <trkpt lat="48.38578" lon="7.28825">
        <ele>879</ele>
        <time>2020-09-06T11:29:00.937Z</time>
      </trkpt>
      <trkpt lat="48.38579" lon="7.28827">
        <ele>879</ele>
        <time>2020-09-06T11:29:01.937Z</time>
      </trkpt>
      <trkpt lat="48.3858" lon="7.28829">
        <ele>879</ele>
        <time>2020-09-06T11:29:02.937Z</time>
      </trkpt>
      <trkpt lat="48.38579" lon="7.28831">
        <ele>878</ele>
        <time>2020-09-06T11:29:03.936Z</time>
      </trkpt>
      <trkpt lat="48.38579" lon="7.28833">
        <ele>878</ele>
        <time>2020-09-06T11:29:04.937Z</time>
      </trkpt>
      <trkpt lat="48.38579" lon="7.28835">
        <ele>877</ele>
        <time>2020-09-06T11:29:05.937Z</time>
      </trkpt>
      <trkpt lat="48.38579" lon="7.28837">
        <ele>877</ele>
        <time>2020-09-06T11:29:06.937Z</time>
      </trkpt>
      <trkpt lat="48.38579" lon="7.28839">
        <ele>876</ele>
        <time>2020-09-06T11:29:07.937Z</time>
      </trkpt>
      <trkpt lat="48.3858" lon="7.28841">
        <ele>876</ele>
        <time>2020-09-06T11:29:08.936Z</time>
      </trkpt>
      <trkpt lat="48.3858" lon="7.28843">
        <ele>875</ele>
        <time>2020-09-06T11:29:09.937Z</time>
      </trkpt>
      <trkpt lat="48.38581" lon="7.28845">
        <ele>875</ele>
        <time>2020-09-06T11:29:10.937Z</time>
      </trkpt>
      <trkpt lat="48.38581" lon="7.28847">
        <ele>875</ele>
        <time>2020-09-06T11:29:11.937Z</time>
      </trkpt>
      <trkpt lat="48.38582" lon="7.28848">
        <ele>875</ele>
        <time>2020-09-06T11:29:12.937Z</time>
      </trkpt>
      <trkpt lat="48.38582" lon="7.2885">
        <ele>874</ele>
        <time>2020-09-06T11:29:13.937Z</time>
      </trkpt>
      <trkpt lat="48.38583" lon="7.28852">
        <ele>874</ele>
        <time>2020-09-06T11:29:14.937Z</time>
      </trkpt>
      <trkpt lat="48.38583" lon="7.28854">
        <ele>873</ele>
        <time>2020-09-06T11:29:15.937Z</time>
      </trkpt>
      <trkpt lat="48.38583" lon="7.28856">
        <ele>872</ele>
        <time>2020-09-06T11:29:16.937Z</time>
      </trkpt>
      <trkpt lat="48.38583" lon="7.28858">
        <ele>871</ele>
        <time>2020-09-06T11:29:17.937Z</time>
      </trkpt>
      <trkpt lat="48.38583" lon="7.2886">
        <ele>870</ele>
        <time>2020-09-06T11:29:18.937Z</time>
      </trkpt>
      <trkpt lat="48.38584" lon="7.28861">
        <ele>869</ele>
        <time>2020-09-06T11:29:19.937Z</time>
      </trkpt>
      <trkpt lat="48.38583" lon="7.28862">
        <ele>869</ele>
        <time>2020-09-06T11:29:20.937Z</time>
      </trkpt>
      <trkpt lat="48.38583" lon="7.28865">
        <ele>869</ele>
        <time>2020-09-06T11:29:27.946Z</time>
      </trkpt>
      <trkpt lat="48.38582" lon="7.28867">
        <ele>868</ele>
        <time>2020-09-06T11:29:28.946Z</time>
      </trkpt>
      <trkpt lat="48.38582" lon="7.2887">
        <ele>868</ele>
        <time>2020-09-06T11:29:29.945Z</time>
      </trkpt>
      <trkpt lat="48.38582" lon="7.28872">
        <ele>868</ele>
        <time>2020-09-06T11:29:32.953Z</time>
      </trkpt>
      <trkpt lat="48.38582" lon="7.28874">
        <ele>868</ele>
        <time>2020-09-06T11:30:38.841Z</time>
      </trkpt>
      <trkpt lat="48.38582" lon="7.28876">
        <ele>869</ele>
        <time>2020-09-06T11:30:39.841Z</time>
      </trkpt>
      <trkpt lat="48.38583" lon="7.28878">
        <ele>869</ele>
        <time>2020-09-06T11:30:40.841Z</time>
      </trkpt>
      <trkpt lat="48.38583" lon="7.2888">
        <ele>869</ele>
        <time>2020-09-06T11:30:41.841Z</time>
      </trkpt>
      <trkpt lat="48.38583" lon="7.28882">
        <ele>869</ele>
        <time>2020-09-06T11:30:42.841Z</time>
      </trkpt>
      <trkpt lat="48.38584" lon="7.28884">
        <ele>869</ele>
        <time>2020-09-06T11:30:43.840Z</time>
      </trkpt>
      <trkpt lat="48.38584" lon="7.28885">
        <ele>869</ele>
        <time>2020-09-06T11:30:44.841Z</time>
      </trkpt>
      <trkpt lat="48.38584" lon="7.28887">
        <ele>869</ele>
        <time>2020-09-06T11:30:45.841Z</time>
      </trkpt>
      <trkpt lat="48.38584" lon="7.28888">
        <ele>869</ele>
        <time>2020-09-06T11:30:46.841Z</time>
      </trkpt>
      <trkpt lat="48.38584" lon="7.28889">
        <ele>869</ele>
        <time>2020-09-06T11:30:47.841Z</time>
      </trkpt>
      <trkpt lat="48.38584" lon="7.28891">
        <ele>869</ele>
        <time>2020-09-06T11:30:48.841Z</time>
      </trkpt>
      <trkpt lat="48.38585" lon="7.28893">
        <ele>869</ele>
        <time>2020-09-06T11:30:49.841Z</time>
      </trkpt>
      <trkpt lat="48.38585" lon="7.28895">
        <ele>868</ele>
        <time>2020-09-06T11:30:50.841Z</time>
      </trkpt>
      <trkpt lat="48.38585" lon="7.28897">
        <ele>868</ele>
        <time>2020-09-06T11:30:56.843Z</time>
      </trkpt>
      <trkpt lat="48.38586" lon="7.28898">
        <ele>868</ele>
        <time>2020-09-06T11:30:57.843Z</time>
      </trkpt>
      <trkpt lat="48.38586" lon="7.289">
        <ele>867</ele>
        <time>2020-09-06T11:31:16.715Z</time>
      </trkpt>
      <trkpt lat="48.38586" lon="7.28902">
        <ele>867</ele>
        <time>2020-09-06T11:31:17.715Z</time>
      </trkpt>
      <trkpt lat="48.38586" lon="7.28903">
        <ele>866</ele>
        <time>2020-09-06T11:31:18.715Z</time>
      </trkpt>
      <trkpt lat="48.38587" lon="7.28904">
        <ele>865</ele>
        <time>2020-09-06T11:31:22.819Z</time>
      </trkpt>
      <trkpt lat="48.38588" lon="7.28907">
        <ele>864</ele>
        <time>2020-09-06T11:31:23.819Z</time>
      </trkpt>
      <trkpt lat="48.38589" lon="7.28908">
        <ele>864</ele>
        <time>2020-09-06T11:31:24.818Z</time>
      </trkpt>
      <trkpt lat="48.3859" lon="7.28911">
        <ele>863</ele>
        <time>2020-09-06T11:31:25.819Z</time>
      </trkpt>
      <trkpt lat="48.38591" lon="7.28913">
        <ele>863</ele>
        <time>2020-09-06T11:31:26.819Z</time>
      </trkpt>
      <trkpt lat="48.38591" lon="7.28914">
        <ele>862</ele>
        <time>2020-09-06T11:31:27.819Z</time>
      </trkpt>
      <trkpt lat="48.38592" lon="7.28914">
        <ele>862</ele>
        <time>2020-09-06T11:31:28.819Z</time>
      </trkpt>
      <trkpt lat="48.38593" lon="7.28915">
        <ele>861</ele>
        <time>2020-09-06T11:31:29.819Z</time>
      </trkpt>
      <trkpt lat="48.38593" lon="7.28916">
        <ele>861</ele>
        <time>2020-09-06T11:31:30.818Z</time>
      </trkpt>
      <trkpt lat="48.38594" lon="7.28917">
        <ele>861</ele>
        <time>2020-09-06T11:31:31.818Z</time>
      </trkpt>
      <trkpt lat="48.38594" lon="7.28919">
        <ele>861</ele>
        <time>2020-09-06T11:31:32.819Z</time>
      </trkpt>
      <trkpt lat="48.38595" lon="7.28921">
        <ele>860</ele>
        <time>2020-09-06T11:31:33.819Z</time>
      </trkpt>
      <trkpt lat="48.38596" lon="7.28923">
        <ele>860</ele>
        <time>2020-09-06T11:31:34.819Z</time>
      </trkpt>
      <trkpt lat="48.38598" lon="7.28925">
        <ele>860</ele>
        <time>2020-09-06T11:31:35.818Z</time>
      </trkpt>
      <trkpt lat="48.38599" lon="7.28927">
        <ele>860</ele>
        <time>2020-09-06T11:31:36.819Z</time>
      </trkpt>
      <trkpt lat="48.386" lon="7.28928">
        <ele>859</ele>
        <time>2020-09-06T11:31:37.819Z</time>
      </trkpt>
      <trkpt lat="48.386" lon="7.2893">
        <ele>859</ele>
        <time>2020-09-06T11:31:38.819Z</time>
      </trkpt>
      <trkpt lat="48.386" lon="7.28931">
        <ele>859</ele>
        <time>2020-09-06T11:31:39.819Z</time>
      </trkpt>
      <trkpt lat="48.38601" lon="7.28933">
        <ele>858</ele>
        <time>2020-09-06T11:31:40.819Z</time>
      </trkpt>
      <trkpt lat="48.38602" lon="7.28934">
        <ele>858</ele>
        <time>2020-09-06T11:31:41.819Z</time>
      </trkpt>
      <trkpt lat="48.38603" lon="7.28936">
        <ele>859</ele>
        <time>2020-09-06T11:31:42.819Z</time>
      </trkpt>
      <trkpt lat="48.38603" lon="7.28937">
        <ele>859</ele>
        <time>2020-09-06T11:31:43.819Z</time>
      </trkpt>
      <trkpt lat="48.38603" lon="7.28938">
        <ele>859</ele>
        <time>2020-09-06T11:31:44.819Z</time>
      </trkpt>
      <trkpt lat="48.38604" lon="7.28939">
        <ele>858</ele>
        <time>2020-09-06T11:31:45.819Z</time>
      </trkpt>
      <trkpt lat="48.38605" lon="7.2894">
        <ele>858</ele>
        <time>2020-09-06T11:31:46.818Z</time>
      </trkpt>
      <trkpt lat="48.38605" lon="7.28941">
        <ele>858</ele>
        <time>2020-09-06T11:31:47.819Z</time>
      </trkpt>
      <trkpt lat="48.38605" lon="7.28943">
        <ele>857</ele>
        <time>2020-09-06T11:31:48.818Z</time>
      </trkpt>
      <trkpt lat="48.38606" lon="7.28944">
        <ele>857</ele>
        <time>2020-09-06T11:31:49.819Z</time>
      </trkpt>
      <trkpt lat="48.38607" lon="7.28945">
        <ele>856</ele>
        <time>2020-09-06T11:31:50.819Z</time>
      </trkpt>
      <trkpt lat="48.38607" lon="7.28947">
        <ele>856</ele>
        <time>2020-09-06T11:31:51.819Z</time>
      </trkpt>
      <trkpt lat="48.38608" lon="7.28949">
        <ele>856</ele>
        <time>2020-09-06T11:31:52.818Z</time>
      </trkpt>
      <trkpt lat="48.38609" lon="7.2895">
        <ele>856</ele>
        <time>2020-09-06T11:31:53.819Z</time>
      </trkpt>
      <trkpt lat="48.38609" lon="7.28951">
        <ele>856</ele>
        <time>2020-09-06T11:31:54.819Z</time>
      </trkpt>
      <trkpt lat="48.3861" lon="7.28952">
        <ele>856</ele>
        <time>2020-09-06T11:31:55.819Z</time>
      </trkpt>
      <trkpt lat="48.3861" lon="7.28953">
        <ele>856</ele>
        <time>2020-09-06T11:31:56.819Z</time>
      </trkpt>
      <trkpt lat="48.38611" lon="7.28954">
        <ele>855</ele>
        <time>2020-09-06T11:31:57.819Z</time>
      </trkpt>
      <trkpt lat="48.38611" lon="7.28956">
        <ele>855</ele>
        <time>2020-09-06T11:31:58.819Z</time>
      </trkpt>
      <trkpt lat="48.3861" lon="7.28958">
        <ele>855</ele>
        <time>2020-09-06T11:31:59.819Z</time>
      </trkpt>
      <trkpt lat="48.38611" lon="7.28959">
        <ele>855</ele>
        <time>2020-09-06T11:32:00.819Z</time>
      </trkpt>
      <trkpt lat="48.38611" lon="7.28961">
        <ele>855</ele>
        <time>2020-09-06T11:32:01.819Z</time>
      </trkpt>
      <trkpt lat="48.38611" lon="7.28963">
        <ele>854</ele>
        <time>2020-09-06T11:32:02.818Z</time>
      </trkpt>
      <trkpt lat="48.38612" lon="7.28965">
        <ele>854</ele>
        <time>2020-09-06T11:32:03.819Z</time>
      </trkpt>
      <trkpt lat="48.38612" lon="7.28966">
        <ele>854</ele>
        <time>2020-09-06T11:32:04.818Z</time>
      </trkpt>
      <trkpt lat="48.38613" lon="7.28968">
        <ele>854</ele>
        <time>2020-09-06T11:32:05.819Z</time>
      </trkpt>
      <trkpt lat="48.38613" lon="7.2897">
        <ele>854</ele>
        <time>2020-09-06T11:32:06.819Z</time>
      </trkpt>
      <trkpt lat="48.38614" lon="7.28971">
        <ele>854</ele>
        <time>2020-09-06T11:32:07.818Z</time>
      </trkpt>
      <trkpt lat="48.38615" lon="7.28972">
        <ele>854</ele>
        <time>2020-09-06T11:32:08.818Z</time>
      </trkpt>
      <trkpt lat="48.38616" lon="7.28974">
        <ele>853</ele>
        <time>2020-09-06T11:32:09.819Z</time>
      </trkpt>
      <trkpt lat="48.38617" lon="7.28976">
        <ele>853</ele>
        <time>2020-09-06T11:32:10.819Z</time>
      </trkpt>
      <trkpt lat="48.38618" lon="7.28978">
        <ele>853</ele>
        <time>2020-09-06T11:32:11.819Z</time>
      </trkpt>
      <trkpt lat="48.38619" lon="7.28981">
        <ele>852</ele>
        <time>2020-09-06T11:32:12.819Z</time>
      </trkpt>
      <trkpt lat="48.3862" lon="7.28983">
        <ele>852</ele>
        <time>2020-09-06T11:32:13.819Z</time>
      </trkpt>
      <trkpt lat="48.3862" lon="7.28985">
        <ele>852</ele>
        <time>2020-09-06T11:32:14.819Z</time>
      </trkpt>
      <trkpt lat="48.38621" lon="7.28987">
        <ele>852</ele>
        <time>2020-09-06T11:32:15.819Z</time>
      </trkpt>
      <trkpt lat="48.38622" lon="7.28987">
        <ele>852</ele>
        <time>2020-09-06T11:32:16.819Z</time>
      </trkpt>
      <trkpt lat="48.38623" lon="7.28989">
        <ele>852</ele>
        <time>2020-09-06T11:32:17.818Z</time>
      </trkpt>
      <trkpt lat="48.38623" lon="7.2899">
        <ele>852</ele>
        <time>2020-09-06T11:32:18.819Z</time>
      </trkpt>
      <trkpt lat="48.38624" lon="7.28991">
        <ele>852</ele>
        <time>2020-09-06T11:32:19.819Z</time>
      </trkpt>
      <trkpt lat="48.38624" lon="7.28993">
        <ele>852</ele>
        <time>2020-09-06T11:32:20.819Z</time>
      </trkpt>
      <trkpt lat="48.38625" lon="7.28994">
        <ele>852</ele>
        <time>2020-09-06T11:32:21.819Z</time>
      </trkpt>
      <trkpt lat="48.38626" lon="7.28995">
        <ele>852</ele>
        <time>2020-09-06T11:32:22.818Z</time>
      </trkpt>
      <trkpt lat="48.38627" lon="7.28997">
        <ele>852</ele>
        <time>2020-09-06T11:32:23.819Z</time>
      </trkpt>
      <trkpt lat="48.38628" lon="7.28998">
        <ele>852</ele>
        <time>2020-09-06T11:32:24.819Z</time>
      </trkpt>
      <trkpt lat="48.38629" lon="7.29">
        <ele>852</ele>
        <time>2020-09-06T11:32:25.818Z</time>
      </trkpt>
      <trkpt lat="48.3863" lon="7.29001">
        <ele>851</ele>
        <time>2020-09-06T11:32:26.819Z</time>
      </trkpt>
      <trkpt lat="48.38631" lon="7.29001">
        <ele>851</ele>
        <time>2020-09-06T11:32:27.818Z</time>
      </trkpt>
      <trkpt lat="48.38632" lon="7.29002">
        <ele>851</ele>
        <time>2020-09-06T11:32:28.819Z</time>
      </trkpt>
      <trkpt lat="48.38633" lon="7.29003">
        <ele>850</ele>
        <time>2020-09-06T11:32:29.819Z</time>
      </trkpt>
      <trkpt lat="48.38633" lon="7.29005">
        <ele>850</ele>
        <time>2020-09-06T11:32:30.819Z</time>
      </trkpt>
      <trkpt lat="48.38633" lon="7.29007">
        <ele>850</ele>
        <time>2020-09-06T11:32:31.819Z</time>
      </trkpt>
      <trkpt lat="48.38634" lon="7.29009">
        <ele>850</ele>
        <time>2020-09-06T11:32:32.818Z</time>
      </trkpt>
      <trkpt lat="48.38634" lon="7.29011">
        <ele>849</ele>
        <time>2020-09-06T11:32:33.819Z</time>
      </trkpt>
      <trkpt lat="48.38636" lon="7.29013">
        <ele>849</ele>
        <time>2020-09-06T11:32:34.819Z</time>
      </trkpt>
      <trkpt lat="48.38636" lon="7.29015">
        <ele>849</ele>
        <time>2020-09-06T11:32:35.819Z</time>
      </trkpt>
      <trkpt lat="48.38637" lon="7.29017">
        <ele>849</ele>
        <time>2020-09-06T11:32:36.819Z</time>
      </trkpt>
      <trkpt lat="48.38638" lon="7.29019">
        <ele>848</ele>
        <time>2020-09-06T11:32:37.819Z</time>
      </trkpt>
      <trkpt lat="48.38639" lon="7.29021">
        <ele>848</ele>
        <time>2020-09-06T11:32:38.819Z</time>
      </trkpt>
      <trkpt lat="48.3864" lon="7.29022">
        <ele>847</ele>
        <time>2020-09-06T11:32:39.819Z</time>
      </trkpt>
      <trkpt lat="48.38641" lon="7.29024">
        <ele>847</ele>
        <time>2020-09-06T11:32:40.819Z</time>
      </trkpt>
      <trkpt lat="48.38642" lon="7.29026">
        <ele>847</ele>
        <time>2020-09-06T11:32:41.818Z</time>
      </trkpt>
      <trkpt lat="48.38643" lon="7.29027">
        <ele>846</ele>
        <time>2020-09-06T11:32:42.819Z</time>
      </trkpt>
      <trkpt lat="48.38644" lon="7.29028">
        <ele>846</ele>
        <time>2020-09-06T11:32:43.819Z</time>
      </trkpt>
      <trkpt lat="48.38645" lon="7.2903">
        <ele>845</ele>
        <time>2020-09-06T11:32:44.819Z</time>
      </trkpt>
      <trkpt lat="48.38646" lon="7.29032">
        <ele>845</ele>
        <time>2020-09-06T11:32:45.819Z</time>
      </trkpt>
      <trkpt lat="48.38647" lon="7.29034">
        <ele>844</ele>
        <time>2020-09-06T11:32:46.819Z</time>
      </trkpt>
      <trkpt lat="48.38648" lon="7.29035">
        <ele>844</ele>
        <time>2020-09-06T11:32:47.819Z</time>
      </trkpt>
      <trkpt lat="48.38649" lon="7.29035">
        <ele>844</ele>
        <time>2020-09-06T11:32:48.819Z</time>
      </trkpt>
      <trkpt lat="48.38649" lon="7.29036">
        <ele>844</ele>
        <time>2020-09-06T11:32:49.818Z</time>
      </trkpt>
      <trkpt lat="48.3865" lon="7.29036">
        <ele>843</ele>
        <time>2020-09-06T11:32:50.818Z</time>
      </trkpt>
      <trkpt lat="48.3865" lon="7.29037">
        <ele>843</ele>
        <time>2020-09-06T11:32:51.819Z</time>
      </trkpt>
      <trkpt lat="48.38651" lon="7.29037">
        <ele>843</ele>
        <time>2020-09-06T11:32:52.818Z</time>
      </trkpt>
      <trkpt lat="48.38651" lon="7.29038">
        <ele>843</ele>
        <time>2020-09-06T11:32:53.818Z</time>
      </trkpt>
      <trkpt lat="48.38652" lon="7.29038">
        <ele>842</ele>
        <time>2020-09-06T11:32:54.819Z</time>
      </trkpt>
      <trkpt lat="48.38653" lon="7.29039">
        <ele>842</ele>
        <time>2020-09-06T11:32:55.819Z</time>
      </trkpt>
      <trkpt lat="48.38654" lon="7.2904">
        <ele>842</ele>
        <time>2020-09-06T11:32:56.819Z</time>
      </trkpt>
      <trkpt lat="48.38655" lon="7.29041">
        <ele>842</ele>
        <time>2020-09-06T11:32:57.819Z</time>
      </trkpt>
      <trkpt lat="48.38656" lon="7.29042">
        <ele>842</ele>
        <time>2020-09-06T11:32:58.819Z</time>
      </trkpt>
      <trkpt lat="48.38657" lon="7.29043">
        <ele>842</ele>
        <time>2020-09-06T11:32:59.818Z</time>
      </trkpt>
      <trkpt lat="48.38658" lon="7.29044">
        <ele>841</ele>
        <time>2020-09-06T11:33:00.818Z</time>
      </trkpt>
      <trkpt lat="48.38659" lon="7.29044">
        <ele>841</ele>
        <time>2020-09-06T11:33:01.818Z</time>
      </trkpt>
      <trkpt lat="48.38659" lon="7.29045">
        <ele>841</ele>
        <time>2020-09-06T11:33:02.819Z</time>
      </trkpt>
      <trkpt lat="48.38661" lon="7.29046">
        <ele>841</ele>
        <time>2020-09-06T11:33:03.819Z</time>
      </trkpt>
      <trkpt lat="48.38662" lon="7.29047">
        <ele>841</ele>
        <time>2020-09-06T11:33:04.818Z</time>
      </trkpt>
      <trkpt lat="48.38662" lon="7.29048">
        <ele>841</ele>
        <time>2020-09-06T11:33:05.819Z</time>
      </trkpt>
      <trkpt lat="48.38662" lon="7.29048">
        <ele>841</ele>
        <time>2020-09-06T11:33:06.819Z</time>
      </trkpt>
      <trkpt lat="48.38663" lon="7.29049">
        <ele>841</ele>
        <time>2020-09-06T11:33:07.819Z</time>
      </trkpt>
      <trkpt lat="48.38663" lon="7.29049">
        <ele>841</ele>
        <time>2020-09-06T11:33:08.819Z</time>
      </trkpt>
      <trkpt lat="48.38664" lon="7.2905">
        <ele>841</ele>
        <time>2020-09-06T11:33:09.819Z</time>
      </trkpt>
      <trkpt lat="48.38665" lon="7.29051">
        <ele>841</ele>
        <time>2020-09-06T11:33:10.818Z</time>
      </trkpt>
      <trkpt lat="48.38665" lon="7.29052">
        <ele>841</ele>
        <time>2020-09-06T11:33:11.819Z</time>
      </trkpt>
      <trkpt lat="48.38665" lon="7.29053">
        <ele>841</ele>
        <time>2020-09-06T11:33:12.819Z</time>
      </trkpt>
      <trkpt lat="48.38665" lon="7.29051">
        <ele>841</ele>
        <time>2020-09-06T11:33:13.819Z</time>
      </trkpt>
      <trkpt lat="48.38665" lon="7.29051">
        <ele>841</ele>
        <time>2020-09-06T11:33:14.819Z</time>
      </trkpt>
      <trkpt lat="48.38664" lon="7.29058">
        <ele>841</ele>
        <time>2020-09-06T11:33:15.818Z</time>
      </trkpt>
      <trkpt lat="48.38663" lon="7.29058">
        <ele>841</ele>
        <time>2020-09-06T11:33:16.818Z</time>
      </trkpt>
      <trkpt lat="48.38666" lon="7.29062">
        <ele>843</ele>
        <time>2020-09-06T11:33:17.818Z</time>
      </trkpt>
      <trkpt lat="48.38667" lon="7.29063">
        <ele>842</ele>
        <time>2020-09-06T11:33:18.819Z</time>
      </trkpt>
      <trkpt lat="48.38669" lon="7.29064">
        <ele>842</ele>
        <time>2020-09-06T11:33:19.818Z</time>
      </trkpt>
      <trkpt lat="48.3867" lon="7.29065">
        <ele>842</ele>
        <time>2020-09-06T11:33:20.819Z</time>
      </trkpt>
      <trkpt lat="48.38671" lon="7.29066">
        <ele>842</ele>
        <time>2020-09-06T11:33:21.819Z</time>
      </trkpt>
      <trkpt lat="48.38672" lon="7.29067">
        <ele>842</ele>
        <time>2020-09-06T11:33:22.818Z</time>
      </trkpt>
      <trkpt lat="48.38674" lon="7.29068">
        <ele>842</ele>
        <time>2020-09-06T11:33:23.818Z</time>
      </trkpt>
      <trkpt lat="48.38675" lon="7.29069">
        <ele>842</ele>
        <time>2020-09-06T11:33:24.819Z</time>
      </trkpt>
      <trkpt lat="48.38676" lon="7.29069">
        <ele>841</ele>
        <time>2020-09-06T11:33:25.818Z</time>
      </trkpt>
      <trkpt lat="48.38677" lon="7.29069">
        <ele>841</ele>
        <time>2020-09-06T11:33:26.819Z</time>
      </trkpt>
      <trkpt lat="48.38678" lon="7.29069">
        <ele>840</ele>
        <time>2020-09-06T11:33:27.818Z</time>
      </trkpt>
      <trkpt lat="48.3868" lon="7.29069">
        <ele>840</ele>
        <time>2020-09-06T11:33:28.819Z</time>
      </trkpt>
      <trkpt lat="48.38681" lon="7.29069">
        <ele>839</ele>
        <time>2020-09-06T11:33:29.818Z</time>
      </trkpt>
      <trkpt lat="48.38682" lon="7.2907">
        <ele>839</ele>
        <time>2020-09-06T11:33:30.819Z</time>
      </trkpt>
      <trkpt lat="48.38683" lon="7.2907">
        <ele>839</ele>
        <time>2020-09-06T11:33:31.818Z</time>
      </trkpt>
      <trkpt lat="48.38684" lon="7.2907">
        <ele>838</ele>
        <time>2020-09-06T11:33:32.819Z</time>
      </trkpt>
      <trkpt lat="48.38685" lon="7.29071">
        <ele>838</ele>
        <time>2020-09-06T11:33:33.818Z</time>
      </trkpt>
      <trkpt lat="48.38686" lon="7.29071">
        <ele>837</ele>
        <time>2020-09-06T11:33:34.819Z</time>
      </trkpt>
      <trkpt lat="48.38687" lon="7.29072">
        <ele>837</ele>
        <time>2020-09-06T11:33:35.818Z</time>
      </trkpt>
      <trkpt lat="48.38689" lon="7.29073">
        <ele>837</ele>
        <time>2020-09-06T11:33:36.819Z</time>
      </trkpt>
      <trkpt lat="48.3869" lon="7.29074">
        <ele>837</ele>
        <time>2020-09-06T11:33:37.818Z</time>
      </trkpt>
      <trkpt lat="48.38692" lon="7.29075">
        <ele>837</ele>
        <time>2020-09-06T11:33:38.819Z</time>
      </trkpt>
      <trkpt lat="48.38693" lon="7.29077">
        <ele>837</ele>
        <time>2020-09-06T11:33:39.819Z</time>
      </trkpt>
      <trkpt lat="48.38694" lon="7.29078">
        <ele>837</ele>
        <time>2020-09-06T11:33:40.819Z</time>
      </trkpt>
      <trkpt lat="48.38695" lon="7.29079">
        <ele>837</ele>
        <time>2020-09-06T11:33:41.819Z</time>
      </trkpt>
      <trkpt lat="48.38696" lon="7.29081">
        <ele>836</ele>
        <time>2020-09-06T11:33:42.819Z</time>
      </trkpt>
      <trkpt lat="48.38697" lon="7.29081">
        <ele>836</ele>
        <time>2020-09-06T11:33:43.819Z</time>
      </trkpt>
      <trkpt lat="48.38698" lon="7.29082">
        <ele>836</ele>
        <time>2020-09-06T11:33:44.819Z</time>
      </trkpt>
      <trkpt lat="48.38698" lon="7.29083">
        <ele>836</ele>
        <time>2020-09-06T11:33:45.819Z</time>
      </trkpt>
      <trkpt lat="48.38699" lon="7.29084">
        <ele>836</ele>
        <time>2020-09-06T11:33:46.818Z</time>
      </trkpt>
      <trkpt lat="48.387" lon="7.29084">
        <ele>836</ele>
        <time>2020-09-06T11:33:47.818Z</time>
      </trkpt>
      <trkpt lat="48.38701" lon="7.29084">
        <ele>836</ele>
        <time>2020-09-06T11:33:48.818Z</time>
      </trkpt>
      <trkpt lat="48.38702" lon="7.29085">
        <ele>836</ele>
        <time>2020-09-06T11:33:49.819Z</time>
      </trkpt>
      <trkpt lat="48.38703" lon="7.29086">
        <ele>836</ele>
        <time>2020-09-06T11:33:50.819Z</time>
      </trkpt>
      <trkpt lat="48.38705" lon="7.29087">
        <ele>836</ele>
        <time>2020-09-06T11:33:51.818Z</time>
      </trkpt>
      <trkpt lat="48.38706" lon="7.29087">
        <ele>836</ele>
        <time>2020-09-06T11:33:52.819Z</time>
      </trkpt>
      <trkpt lat="48.38707" lon="7.29088">
        <ele>836</ele>
        <time>2020-09-06T11:33:53.818Z</time>
      </trkpt>
      <trkpt lat="48.3871" lon="7.29088">
        <ele>836</ele>
        <time>2020-09-06T11:33:54.819Z</time>
      </trkpt>
      <trkpt lat="48.38712" lon="7.29089">
        <ele>836</ele>
        <time>2020-09-06T11:33:55.818Z</time>
      </trkpt>
      <trkpt lat="48.38714" lon="7.2909">
        <ele>836</ele>
        <time>2020-09-06T11:33:56.819Z</time>
      </trkpt>
      <trkpt lat="48.38715" lon="7.29091">
        <ele>836</ele>
        <time>2020-09-06T11:33:57.819Z</time>
      </trkpt>
      <trkpt lat="48.38716" lon="7.29092">
        <ele>836</ele>
        <time>2020-09-06T11:33:58.819Z</time>
      </trkpt>
      <trkpt lat="48.38717" lon="7.29092">
        <ele>835</ele>
        <time>2020-09-06T11:33:59.819Z</time>
      </trkpt>
      <trkpt lat="48.38718" lon="7.29092">
        <ele>835</ele>
        <time>2020-09-06T11:34:00.819Z</time>
      </trkpt>
      <trkpt lat="48.38719" lon="7.29093">
        <ele>835</ele>
        <time>2020-09-06T11:34:01.819Z</time>
      </trkpt>
      <trkpt lat="48.3872" lon="7.29094">
        <ele>835</ele>
        <time>2020-09-06T11:34:02.819Z</time>
      </trkpt>
      <trkpt lat="48.38722" lon="7.29094">
        <ele>835</ele>
        <time>2020-09-06T11:34:03.818Z</time>
      </trkpt>
      <trkpt lat="48.38723" lon="7.29094">
        <ele>835</ele>
        <time>2020-09-06T11:34:04.819Z</time>
      </trkpt>
      <trkpt lat="48.38725" lon="7.29095">
        <ele>834</ele>
        <time>2020-09-06T11:34:05.819Z</time>
      </trkpt>
      <trkpt lat="48.38725" lon="7.29095">
        <ele>834</ele>
        <time>2020-09-06T11:34:06.819Z</time>
      </trkpt>
      <trkpt lat="48.38726" lon="7.29096">
        <ele>834</ele>
        <time>2020-09-06T11:34:07.819Z</time>
      </trkpt>
      <trkpt lat="48.38727" lon="7.29097">
        <ele>834</ele>
        <time>2020-09-06T11:34:08.819Z</time>
      </trkpt>
      <trkpt lat="48.38728" lon="7.29098">
        <ele>834</ele>
        <time>2020-09-06T11:34:09.819Z</time>
      </trkpt>
      <trkpt lat="48.38729" lon="7.291">
        <ele>834</ele>
        <time>2020-09-06T11:34:10.819Z</time>
      </trkpt>
      <trkpt lat="48.3873" lon="7.29101">
        <ele>833</ele>
        <time>2020-09-06T11:34:11.819Z</time>
      </trkpt>
      <trkpt lat="48.38731" lon="7.29101">
        <ele>833</ele>
        <time>2020-09-06T11:34:12.819Z</time>
      </trkpt>
      <trkpt lat="48.38732" lon="7.29102">
        <ele>833</ele>
        <time>2020-09-06T11:34:13.819Z</time>
      </trkpt>
      <trkpt lat="48.38733" lon="7.29102">
        <ele>832</ele>
        <time>2020-09-06T11:34:14.819Z</time>
      </trkpt>
      <trkpt lat="48.38733" lon="7.29103">
        <ele>832</ele>
        <time>2020-09-06T11:34:15.819Z</time>
      </trkpt>
      <trkpt lat="48.38734" lon="7.29103">
        <ele>832</ele>
        <time>2020-09-06T11:34:16.818Z</time>
      </trkpt>
      <trkpt lat="48.38734" lon="7.29105">
        <ele>831</ele>
        <time>2020-09-06T11:34:17.819Z</time>
      </trkpt>
      <trkpt lat="48.38734" lon="7.29107">
        <ele>831</ele>
        <time>2020-09-06T11:34:18.818Z</time>
      </trkpt>
      <trkpt lat="48.38734" lon="7.29108">
        <ele>831</ele>
        <time>2020-09-06T11:34:19.819Z</time>
      </trkpt>
      <trkpt lat="48.38735" lon="7.29109">
        <ele>831</ele>
        <time>2020-09-06T11:34:20.819Z</time>
      </trkpt>
      <trkpt lat="48.38736" lon="7.2911">
        <ele>831</ele>
        <time>2020-09-06T11:34:21.819Z</time>
      </trkpt>
      <trkpt lat="48.38736" lon="7.2911">
        <ele>830</ele>
        <time>2020-09-06T11:34:22.819Z</time>
      </trkpt>
      <trkpt lat="48.38737" lon="7.29111">
        <ele>830</ele>
        <time>2020-09-06T11:34:23.819Z</time>
      </trkpt>
      <trkpt lat="48.38739" lon="7.29113">
        <ele>830</ele>
        <time>2020-09-06T11:34:24.818Z</time>
      </trkpt>
      <trkpt lat="48.3874" lon="7.29115">
        <ele>830</ele>
        <time>2020-09-06T11:34:25.819Z</time>
      </trkpt>
      <trkpt lat="48.38741" lon="7.29116">
        <ele>830</ele>
        <time>2020-09-06T11:34:26.819Z</time>
      </trkpt>
      <trkpt lat="48.38741" lon="7.29117">
        <ele>829</ele>
        <time>2020-09-06T11:34:27.819Z</time>
      </trkpt>
      <trkpt lat="48.38742" lon="7.29118">
        <ele>829</ele>
        <time>2020-09-06T11:34:28.819Z</time>
      </trkpt>
      <trkpt lat="48.38743" lon="7.29118">
        <ele>829</ele>
        <time>2020-09-06T11:34:29.818Z</time>
      </trkpt>
      <trkpt lat="48.38743" lon="7.29119">
        <ele>829</ele>
        <time>2020-09-06T11:34:30.819Z</time>
      </trkpt>
      <trkpt lat="48.38744" lon="7.2912">
        <ele>828</ele>
        <time>2020-09-06T11:34:31.819Z</time>
      </trkpt>
      <trkpt lat="48.38745" lon="7.29121">
        <ele>828</ele>
        <time>2020-09-06T11:34:32.818Z</time>
      </trkpt>
      <trkpt lat="48.38745" lon="7.29122">
        <ele>828</ele>
        <time>2020-09-06T11:34:33.818Z</time>
      </trkpt>
      <trkpt lat="48.38746" lon="7.29122">
        <ele>827</ele>
        <time>2020-09-06T11:34:34.819Z</time>
      </trkpt>
      <trkpt lat="48.38747" lon="7.29123">
        <ele>827</ele>
        <time>2020-09-06T11:34:35.819Z</time>
      </trkpt>
      <trkpt lat="48.38748" lon="7.29124">
        <ele>827</ele>
        <time>2020-09-06T11:34:36.819Z</time>
      </trkpt>
      <trkpt lat="48.38749" lon="7.29126">
        <ele>827</ele>
        <time>2020-09-06T11:34:37.819Z</time>
      </trkpt>
      <trkpt lat="48.3875" lon="7.29128">
        <ele>826</ele>
        <time>2020-09-06T11:34:38.819Z</time>
      </trkpt>
      <trkpt lat="48.38751" lon="7.29129">
        <ele>826</ele>
        <time>2020-09-06T11:34:39.819Z</time>
      </trkpt>
      <trkpt lat="48.38752" lon="7.2913">
        <ele>826</ele>
        <time>2020-09-06T11:34:40.819Z</time>
      </trkpt>
      <trkpt lat="48.38753" lon="7.2913">
        <ele>825</ele>
        <time>2020-09-06T11:34:41.818Z</time>
      </trkpt>
      <trkpt lat="48.38754" lon="7.2913">
        <ele>825</ele>
        <time>2020-09-06T11:34:42.819Z</time>
      </trkpt>
      <trkpt lat="48.38756" lon="7.2913">
        <ele>825</ele>
        <time>2020-09-06T11:34:43.818Z</time>
      </trkpt>
      <trkpt lat="48.38757" lon="7.2913">
        <ele>824</ele>
        <time>2020-09-06T11:34:44.819Z</time>
      </trkpt>
      <trkpt lat="48.38758" lon="7.2913">
        <ele>824</ele>
        <time>2020-09-06T11:34:45.818Z</time>
      </trkpt>
      <trkpt lat="48.38758" lon="7.29131">
        <ele>824</ele>
        <time>2020-09-06T11:34:46.819Z</time>
      </trkpt>
      <trkpt lat="48.38759" lon="7.29132">
        <ele>824</ele>
        <time>2020-09-06T11:34:47.819Z</time>
      </trkpt>
      <trkpt lat="48.3876" lon="7.29133">
        <ele>824</ele>
        <time>2020-09-06T11:34:48.819Z</time>
      </trkpt>
      <trkpt lat="48.3876" lon="7.29133">
        <ele>824</ele>
        <time>2020-09-06T11:34:49.819Z</time>
      </trkpt>
      <trkpt lat="48.38761" lon="7.29134">
        <ele>823</ele>
        <time>2020-09-06T11:34:50.819Z</time>
      </trkpt>
      <trkpt lat="48.38762" lon="7.29134">
        <ele>823</ele>
        <time>2020-09-06T11:34:51.819Z</time>
      </trkpt>
      <trkpt lat="48.38763" lon="7.29135">
        <ele>823</ele>
        <time>2020-09-06T11:34:52.819Z</time>
      </trkpt>
      <trkpt lat="48.38765" lon="7.29136">
        <ele>823</ele>
        <time>2020-09-06T11:34:53.819Z</time>
      </trkpt>
      <trkpt lat="48.38766" lon="7.29137">
        <ele>822</ele>
        <time>2020-09-06T11:34:54.818Z</time>
      </trkpt>
      <trkpt lat="48.38767" lon="7.29138">
        <ele>822</ele>
        <time>2020-09-06T11:34:55.819Z</time>
      </trkpt>
      <trkpt lat="48.38768" lon="7.2914">
        <ele>821</ele>
        <time>2020-09-06T11:34:56.819Z</time>
      </trkpt>
      <trkpt lat="48.38769" lon="7.29141">
        <ele>821</ele>
        <time>2020-09-06T11:34:57.819Z</time>
      </trkpt>
      <trkpt lat="48.3877" lon="7.29143">
        <ele>821</ele>
        <time>2020-09-06T11:34:58.819Z</time>
      </trkpt>
      <trkpt lat="48.38771" lon="7.29144">
        <ele>820</ele>
        <time>2020-09-06T11:34:59.819Z</time>
      </trkpt>
      <trkpt lat="48.38772" lon="7.29144">
        <ele>820</ele>
        <time>2020-09-06T11:35:00.819Z</time>
      </trkpt>
      <trkpt lat="48.38772" lon="7.29145">
        <ele>820</ele>
        <time>2020-09-06T11:35:01.818Z</time>
      </trkpt>
      <trkpt lat="48.38773" lon="7.29146">
        <ele>820</ele>
        <time>2020-09-06T11:35:02.819Z</time>
      </trkpt>
      <trkpt lat="48.38774" lon="7.29146">
        <ele>820</ele>
        <time>2020-09-06T11:35:03.819Z</time>
      </trkpt>
      <trkpt lat="48.38775" lon="7.29147">
        <ele>820</ele>
        <time>2020-09-06T11:35:04.819Z</time>
      </trkpt>
      <trkpt lat="48.38776" lon="7.29148">
        <ele>820</ele>
        <time>2020-09-06T11:35:05.819Z</time>
      </trkpt>
      <trkpt lat="48.38776" lon="7.29149">
        <ele>820</ele>
        <time>2020-09-06T11:35:06.819Z</time>
      </trkpt>
      <trkpt lat="48.38777" lon="7.2915">
        <ele>820</ele>
        <time>2020-09-06T11:35:07.819Z</time>
      </trkpt>
      <trkpt lat="48.38777" lon="7.29151">
        <ele>820</ele>
        <time>2020-09-06T11:35:08.819Z</time>
      </trkpt>
      <trkpt lat="48.38778" lon="7.29151">
        <ele>820</ele>
        <time>2020-09-06T11:35:09.819Z</time>
      </trkpt>
      <trkpt lat="48.38779" lon="7.29152">
        <ele>820</ele>
        <time>2020-09-06T11:35:10.819Z</time>
      </trkpt>
      <trkpt lat="48.3878" lon="7.29153">
        <ele>820</ele>
        <time>2020-09-06T11:35:11.819Z</time>
      </trkpt>
      <trkpt lat="48.38781" lon="7.29154">
        <ele>820</ele>
        <time>2020-09-06T11:35:12.819Z</time>
      </trkpt>
      <trkpt lat="48.38781" lon="7.29155">
        <ele>821</ele>
        <time>2020-09-06T11:35:13.819Z</time>
      </trkpt>
      <trkpt lat="48.38781" lon="7.29156">
        <ele>821</ele>
        <time>2020-09-06T11:35:14.818Z</time>
      </trkpt>
      <trkpt lat="48.38782" lon="7.29156">
        <ele>821</ele>
        <time>2020-09-06T11:35:15.819Z</time>
      </trkpt>
      <trkpt lat="48.38783" lon="7.29156">
        <ele>821</ele>
        <time>2020-09-06T11:35:16.819Z</time>
      </trkpt>
      <trkpt lat="48.38783" lon="7.29157">
        <ele>821</ele>
        <time>2020-09-06T11:35:17.818Z</time>
      </trkpt>
      <trkpt lat="48.38784" lon="7.29157">
        <ele>821</ele>
        <time>2020-09-06T11:35:18.818Z</time>
      </trkpt>
      <trkpt lat="48.38785" lon="7.29158">
        <ele>821</ele>
        <time>2020-09-06T11:35:19.819Z</time>
      </trkpt>
      <trkpt lat="48.38787" lon="7.29159">
        <ele>821</ele>
        <time>2020-09-06T11:35:20.819Z</time>
      </trkpt>
      <trkpt lat="48.38788" lon="7.2916">
        <ele>821</ele>
        <time>2020-09-06T11:35:21.818Z</time>
      </trkpt>
      <trkpt lat="48.38789" lon="7.29161">
        <ele>822</ele>
        <time>2020-09-06T11:35:22.818Z</time>
      </trkpt>
      <trkpt lat="48.38789" lon="7.29161">
        <ele>822</ele>
        <time>2020-09-06T11:35:23.819Z</time>
      </trkpt>
      <trkpt lat="48.3879" lon="7.29161">
        <ele>822</ele>
        <time>2020-09-06T11:35:24.819Z</time>
      </trkpt>
      <trkpt lat="48.38791" lon="7.29161">
        <ele>822</ele>
        <time>2020-09-06T11:35:25.819Z</time>
      </trkpt>
      <trkpt lat="48.38792" lon="7.29162">
        <ele>822</ele>
        <time>2020-09-06T11:35:26.819Z</time>
      </trkpt>
      <trkpt lat="48.38792" lon="7.29163">
        <ele>822</ele>
        <time>2020-09-06T11:35:27.819Z</time>
      </trkpt>
      <trkpt lat="48.38793" lon="7.29164">
        <ele>822</ele>
        <time>2020-09-06T11:35:28.818Z</time>
      </trkpt>
      <trkpt lat="48.38795" lon="7.29165">
        <ele>821</ele>
        <time>2020-09-06T11:35:29.819Z</time>
      </trkpt>
      <trkpt lat="48.38797" lon="7.29166">
        <ele>821</ele>
        <time>2020-09-06T11:35:30.819Z</time>
      </trkpt>
      <trkpt lat="48.38799" lon="7.29166">
        <ele>821</ele>
        <time>2020-09-06T11:35:31.818Z</time>
      </trkpt>
      <trkpt lat="48.388" lon="7.29167">
        <ele>821</ele>
        <time>2020-09-06T11:35:32.819Z</time>
      </trkpt>
      <trkpt lat="48.38801" lon="7.29167">
        <ele>821</ele>
        <time>2020-09-06T11:35:33.818Z</time>
      </trkpt>
      <trkpt lat="48.38802" lon="7.29167">
        <ele>821</ele>
        <time>2020-09-06T11:35:34.819Z</time>
      </trkpt>
      <trkpt lat="48.38803" lon="7.29167">
        <ele>821</ele>
        <time>2020-09-06T11:35:35.819Z</time>
      </trkpt>
      <trkpt lat="48.38804" lon="7.29167">
        <ele>821</ele>
        <time>2020-09-06T11:35:36.818Z</time>
      </trkpt>
      <trkpt lat="48.38805" lon="7.29168">
        <ele>821</ele>
        <time>2020-09-06T11:35:37.819Z</time>
      </trkpt>
      <trkpt lat="48.38806" lon="7.29168">
        <ele>821</ele>
        <time>2020-09-06T11:35:38.819Z</time>
      </trkpt>
      <trkpt lat="48.38807" lon="7.29169">
        <ele>821</ele>
        <time>2020-09-06T11:35:39.819Z</time>
      </trkpt>
      <trkpt lat="48.38808" lon="7.29169">
        <ele>821</ele>
        <time>2020-09-06T11:35:40.819Z</time>
      </trkpt>
      <trkpt lat="48.38808" lon="7.2917">
        <ele>822</ele>
        <time>2020-09-06T11:35:41.819Z</time>
      </trkpt>
      <trkpt lat="48.38809" lon="7.2917">
        <ele>822</ele>
        <time>2020-09-06T11:35:42.819Z</time>
      </trkpt>
      <trkpt lat="48.3881" lon="7.2917">
        <ele>822</ele>
        <time>2020-09-06T11:35:43.819Z</time>
      </trkpt>
      <trkpt lat="48.38811" lon="7.29171">
        <ele>823</ele>
        <time>2020-09-06T11:35:44.818Z</time>
      </trkpt>
      <trkpt lat="48.38812" lon="7.29171">
        <ele>823</ele>
        <time>2020-09-06T11:35:45.818Z</time>
      </trkpt>
      <trkpt lat="48.38813" lon="7.29172">
        <ele>823</ele>
        <time>2020-09-06T11:35:46.819Z</time>
      </trkpt>
      <trkpt lat="48.38814" lon="7.29173">
        <ele>823</ele>
        <time>2020-09-06T11:35:47.818Z</time>
      </trkpt>
      <trkpt lat="48.38815" lon="7.29174">
        <ele>823</ele>
        <time>2020-09-06T11:35:48.818Z</time>
      </trkpt>
      <trkpt lat="48.38816" lon="7.29174">
        <ele>823</ele>
        <time>2020-09-06T11:35:49.818Z</time>
      </trkpt>
      <trkpt lat="48.38816" lon="7.29174">
        <ele>823</ele>
        <time>2020-09-06T11:35:50.819Z</time>
      </trkpt>
      <trkpt lat="48.38817" lon="7.29174">
        <ele>822</ele>
        <time>2020-09-06T11:35:51.818Z</time>
      </trkpt>
      <trkpt lat="48.38819" lon="7.29174">
        <ele>822</ele>
        <time>2020-09-06T11:35:52.818Z</time>
      </trkpt>
      <trkpt lat="48.3882" lon="7.29175">
        <ele>822</ele>
        <time>2020-09-06T11:35:53.819Z</time>
      </trkpt>
      <trkpt lat="48.38822" lon="7.29175">
        <ele>821</ele>
        <time>2020-09-06T11:35:54.819Z</time>
      </trkpt>
      <trkpt lat="48.38823" lon="7.29176">
        <ele>821</ele>
        <time>2020-09-06T11:35:55.818Z</time>
      </trkpt>
      <trkpt lat="48.38824" lon="7.29177">
        <ele>820</ele>
        <time>2020-09-06T11:35:56.818Z</time>
      </trkpt>
      <trkpt lat="48.38825" lon="7.29178">
        <ele>820</ele>
        <time>2020-09-06T11:35:57.819Z</time>
      </trkpt>
      <trkpt lat="48.38826" lon="7.29179">
        <ele>819</ele>
        <time>2020-09-06T11:35:58.819Z</time>
      </trkpt>
      <trkpt lat="48.38828" lon="7.29179">
        <ele>818</ele>
        <time>2020-09-06T11:35:59.818Z</time>
      </trkpt>
      <trkpt lat="48.38829" lon="7.29179">
        <ele>818</ele>
        <time>2020-09-06T11:36:00.819Z</time>
      </trkpt>
      <trkpt lat="48.3883" lon="7.29178">
        <ele>817</ele>
        <time>2020-09-06T11:36:01.818Z</time>
      </trkpt>
      <trkpt lat="48.38831" lon="7.29177">
        <ele>817</ele>
        <time>2020-09-06T11:36:02.819Z</time>
      </trkpt>
      <trkpt lat="48.38833" lon="7.29177">
        <ele>818</ele>
        <time>2020-09-06T11:36:03.819Z</time>
      </trkpt>
      <trkpt lat="48.38834" lon="7.29177">
        <ele>818</ele>
        <time>2020-09-06T11:36:04.818Z</time>
      </trkpt>
      <trkpt lat="48.38836" lon="7.29177">
        <ele>818</ele>
        <time>2020-09-06T11:36:05.818Z</time>
      </trkpt>
      <trkpt lat="48.38838" lon="7.29178">
        <ele>819</ele>
        <time>2020-09-06T11:36:06.819Z</time>
      </trkpt>
      <trkpt lat="48.38839" lon="7.29178">
        <ele>820</ele>
        <time>2020-09-06T11:36:07.819Z</time>
      </trkpt>
      <trkpt lat="48.38841" lon="7.29178">
        <ele>820</ele>
        <time>2020-09-06T11:36:08.819Z</time>
      </trkpt>
      <trkpt lat="48.38842" lon="7.29177">
        <ele>821</ele>
        <time>2020-09-06T11:36:09.819Z</time>
      </trkpt>
      <trkpt lat="48.38844" lon="7.29178">
        <ele>821</ele>
        <time>2020-09-06T11:36:10.818Z</time>
      </trkpt>
      <trkpt lat="48.38845" lon="7.29178">
        <ele>821</ele>
        <time>2020-09-06T11:36:11.819Z</time>
      </trkpt>
      <trkpt lat="48.38846" lon="7.29178">
        <ele>821</ele>
        <time>2020-09-06T11:36:12.819Z</time>
      </trkpt>
      <trkpt lat="48.38847" lon="7.29178">
        <ele>822</ele>
        <time>2020-09-06T11:36:13.819Z</time>
      </trkpt>
      <trkpt lat="48.38849" lon="7.29179">
        <ele>822</ele>
        <time>2020-09-06T11:36:14.819Z</time>
      </trkpt>
      <trkpt lat="48.3885" lon="7.29179">
        <ele>821</ele>
        <time>2020-09-06T11:36:15.819Z</time>
      </trkpt>
      <trkpt lat="48.38851" lon="7.29179">
        <ele>821</ele>
        <time>2020-09-06T11:36:16.818Z</time>
      </trkpt>
      <trkpt lat="48.38853" lon="7.29179">
        <ele>821</ele>
        <time>2020-09-06T11:36:17.819Z</time>
      </trkpt>
      <trkpt lat="48.38854" lon="7.2918">
        <ele>821</ele>
        <time>2020-09-06T11:36:18.819Z</time>
      </trkpt>
      <trkpt lat="48.38854" lon="7.2918">
        <ele>821</ele>
        <time>2020-09-06T11:36:19.818Z</time>
      </trkpt>
      <trkpt lat="48.38855" lon="7.29179">
        <ele>821</ele>
        <time>2020-09-06T11:36:20.819Z</time>
      </trkpt>
      <trkpt lat="48.38855" lon="7.29179">
        <ele>821</ele>
        <time>2020-09-06T11:36:21.819Z</time>
      </trkpt>
      <trkpt lat="48.38855" lon="7.2918">
        <ele>821</ele>
        <time>2020-09-06T11:36:22.818Z</time>
      </trkpt>
      <trkpt lat="48.38857" lon="7.29181">
        <ele>821</ele>
        <time>2020-09-06T11:36:23.819Z</time>
      </trkpt>
      <trkpt lat="48.38858" lon="7.29182">
        <ele>821</ele>
        <time>2020-09-06T11:36:24.818Z</time>
      </trkpt>
      <trkpt lat="48.3886" lon="7.29182">
        <ele>821</ele>
        <time>2020-09-06T11:36:25.818Z</time>
      </trkpt>
      <trkpt lat="48.38861" lon="7.29182">
        <ele>821</ele>
        <time>2020-09-06T11:36:26.818Z</time>
      </trkpt>
      <trkpt lat="48.38863" lon="7.29183">
        <ele>820</ele>
        <time>2020-09-06T11:36:27.818Z</time>
      </trkpt>
      <trkpt lat="48.38864" lon="7.29184">
        <ele>820</ele>
        <time>2020-09-06T11:36:28.818Z</time>
      </trkpt>
      <trkpt lat="48.38866" lon="7.29185">
        <ele>820</ele>
        <time>2020-09-06T11:36:29.818Z</time>
      </trkpt>
      <trkpt lat="48.38867" lon="7.29186">
        <ele>820</ele>
        <time>2020-09-06T11:36:30.818Z</time>
      </trkpt>
      <trkpt lat="48.38868" lon="7.29187">
        <ele>820</ele>
        <time>2020-09-06T11:36:31.818Z</time>
      </trkpt>
      <trkpt lat="48.38868" lon="7.29188">
        <ele>821</ele>
        <time>2020-09-06T11:36:32.819Z</time>
      </trkpt>
      <trkpt lat="48.38869" lon="7.29189">
        <ele>821</ele>
        <time>2020-09-06T11:36:33.818Z</time>
      </trkpt>
      <trkpt lat="48.38869" lon="7.2919">
        <ele>821</ele>
        <time>2020-09-06T11:36:34.819Z</time>
      </trkpt>
      <trkpt lat="48.3887" lon="7.29192">
        <ele>821</ele>
        <time>2020-09-06T11:36:35.819Z</time>
      </trkpt>
      <trkpt lat="48.38869" lon="7.29194">
        <ele>820</ele>
        <time>2020-09-06T11:36:36.818Z</time>
      </trkpt>
      <trkpt lat="48.38869" lon="7.29196">
        <ele>819</ele>
        <time>2020-09-06T11:36:37.818Z</time>
      </trkpt>
      <trkpt lat="48.38868" lon="7.29197">
        <ele>818</ele>
        <time>2020-09-06T11:36:38.818Z</time>
      </trkpt>
      <trkpt lat="48.38868" lon="7.29198">
        <ele>817</ele>
        <time>2020-09-06T11:36:39.819Z</time>
      </trkpt>
      <trkpt lat="48.38867" lon="7.292">
        <ele>816</ele>
        <time>2020-09-06T11:36:40.819Z</time>
      </trkpt>
      <trkpt lat="48.38866" lon="7.29201">
        <ele>815</ele>
        <time>2020-09-06T11:36:41.818Z</time>
      </trkpt>
      <trkpt lat="48.38865" lon="7.29202">
        <ele>814</ele>
        <time>2020-09-06T11:36:42.818Z</time>
      </trkpt>
      <trkpt lat="48.38865" lon="7.29204">
        <ele>813</ele>
        <time>2020-09-06T11:36:43.819Z</time>
      </trkpt>
      <trkpt lat="48.38864" lon="7.29205">
        <ele>812</ele>
        <time>2020-09-06T11:36:44.818Z</time>
      </trkpt>
      <trkpt lat="48.38863" lon="7.29207">
        <ele>811</ele>
        <time>2020-09-06T11:36:45.819Z</time>
      </trkpt>
      <trkpt lat="48.38862" lon="7.29209">
        <ele>810</ele>
        <time>2020-09-06T11:36:46.819Z</time>
      </trkpt>
      <trkpt lat="48.38861" lon="7.2921">
        <ele>809</ele>
        <time>2020-09-06T11:36:47.819Z</time>
      </trkpt>
      <trkpt lat="48.38861" lon="7.29212">
        <ele>808</ele>
        <time>2020-09-06T11:36:48.819Z</time>
      </trkpt>
      <trkpt lat="48.3886" lon="7.29215">
        <ele>807</ele>
        <time>2020-09-06T11:36:49.819Z</time>
      </trkpt>
      <trkpt lat="48.38859" lon="7.29218">
        <ele>806</ele>
        <time>2020-09-06T11:36:50.819Z</time>
      </trkpt>
      <trkpt lat="48.38858" lon="7.29222">
        <ele>806</ele>
        <time>2020-09-06T11:36:51.819Z</time>
      </trkpt>
      <trkpt lat="48.38857" lon="7.29227">
        <ele>805</ele>
        <time>2020-09-06T11:36:52.819Z</time>
      </trkpt>
      <trkpt lat="48.38856" lon="7.29228">
        <ele>805</ele>
        <time>2020-09-06T11:36:53.818Z</time>
      </trkpt>
      <trkpt lat="48.38856" lon="7.29231">
        <ele>805</ele>
        <time>2020-09-06T11:36:54.818Z</time>
      </trkpt>
      <trkpt lat="48.38856" lon="7.29234">
        <ele>805</ele>
        <time>2020-09-06T11:36:55.819Z</time>
      </trkpt>
      <trkpt lat="48.38855" lon="7.29238">
        <ele>805</ele>
        <time>2020-09-06T11:36:56.818Z</time>
      </trkpt>
      <trkpt lat="48.38854" lon="7.2924">
        <ele>805</ele>
        <time>2020-09-06T11:36:57.818Z</time>
      </trkpt>
      <trkpt lat="48.38853" lon="7.29243">
        <ele>805</ele>
        <time>2020-09-06T11:36:58.819Z</time>
      </trkpt>
      <trkpt lat="48.38853" lon="7.29245">
        <ele>805</ele>
        <time>2020-09-06T11:36:59.819Z</time>
      </trkpt>
      <trkpt lat="48.38852" lon="7.29247">
        <ele>805</ele>
        <time>2020-09-06T11:37:00.819Z</time>
      </trkpt>
      <trkpt lat="48.38852" lon="7.29248">
        <ele>804</ele>
        <time>2020-09-06T11:37:01.818Z</time>
      </trkpt>
      <trkpt lat="48.38851" lon="7.2925">
        <ele>804</ele>
        <time>2020-09-06T11:37:02.818Z</time>
      </trkpt>
      <trkpt lat="48.38851" lon="7.29252">
        <ele>804</ele>
        <time>2020-09-06T11:37:03.818Z</time>
      </trkpt>
      <trkpt lat="48.3885" lon="7.29253">
        <ele>804</ele>
        <time>2020-09-06T11:37:04.818Z</time>
      </trkpt>
      <trkpt lat="48.38849" lon="7.29256">
        <ele>804</ele>
        <time>2020-09-06T11:37:05.819Z</time>
      </trkpt>
      <trkpt lat="48.38849" lon="7.29257">
        <ele>804</ele>
        <time>2020-09-06T11:37:06.818Z</time>
      </trkpt>
      <trkpt lat="48.38848" lon="7.29258">
        <ele>804</ele>
        <time>2020-09-06T11:37:07.818Z</time>
      </trkpt>
      <trkpt lat="48.38847" lon="7.2926">
        <ele>804</ele>
        <time>2020-09-06T11:37:08.819Z</time>
      </trkpt>
      <trkpt lat="48.38846" lon="7.29261">
        <ele>804</ele>
        <time>2020-09-06T11:37:09.818Z</time>
      </trkpt>
      <trkpt lat="48.38845" lon="7.29262">
        <ele>804</ele>
        <time>2020-09-06T11:37:10.818Z</time>
      </trkpt>
      <trkpt lat="48.38844" lon="7.29263">
        <ele>804</ele>
        <time>2020-09-06T11:37:11.819Z</time>
      </trkpt>
      <trkpt lat="48.38844" lon="7.29264">
        <ele>804</ele>
        <time>2020-09-06T11:37:12.819Z</time>
      </trkpt>
      <trkpt lat="48.38844" lon="7.29263">
        <ele>804</ele>
        <time>2020-09-06T11:37:13.819Z</time>
      </trkpt>
      <trkpt lat="48.38843" lon="7.29262">
        <ele>804</ele>
        <time>2020-09-06T11:37:14.819Z</time>
      </trkpt>
      <trkpt lat="48.38842" lon="7.29259">
        <ele>804</ele>
        <time>2020-09-06T11:37:15.818Z</time>
      </trkpt>
      <trkpt lat="48.38841" lon="7.29259">
        <ele>804</ele>
        <time>2020-09-06T11:37:16.819Z</time>
      </trkpt>
      <trkpt lat="48.3884" lon="7.2926">
        <ele>803</ele>
        <time>2020-09-06T11:37:17.819Z</time>
      </trkpt>
      <trkpt lat="48.3884" lon="7.29261">
        <ele>803</ele>
        <time>2020-09-06T11:37:18.819Z</time>
      </trkpt>
      <trkpt lat="48.38839" lon="7.29261">
        <ele>802</ele>
        <time>2020-09-06T11:37:19.819Z</time>
      </trkpt>
      <trkpt lat="48.38839" lon="7.29261">
        <ele>801</ele>
        <time>2020-09-06T11:37:20.819Z</time>
      </trkpt>
      <trkpt lat="48.38838" lon="7.2926">
        <ele>800</ele>
        <time>2020-09-06T11:37:21.819Z</time>
      </trkpt>
      <trkpt lat="48.38838" lon="7.2926">
        <ele>799</ele>
        <time>2020-09-06T11:37:22.819Z</time>
      </trkpt>
      <trkpt lat="48.38837" lon="7.2926">
        <ele>798</ele>
        <time>2020-09-06T11:37:23.819Z</time>
      </trkpt>
      <trkpt lat="48.38836" lon="7.2926">
        <ele>798</ele>
        <time>2020-09-06T11:37:24.819Z</time>
      </trkpt>
      <trkpt lat="48.38836" lon="7.2926">
        <ele>797</ele>
        <time>2020-09-06T11:37:25.819Z</time>
      </trkpt>
      <trkpt lat="48.38835" lon="7.29261">
        <ele>797</ele>
        <time>2020-09-06T11:37:26.818Z</time>
      </trkpt>
      <trkpt lat="48.38834" lon="7.29262">
        <ele>796</ele>
        <time>2020-09-06T11:37:27.819Z</time>
      </trkpt>
      <trkpt lat="48.38833" lon="7.29263">
        <ele>796</ele>
        <time>2020-09-06T11:37:28.819Z</time>
      </trkpt>
      <trkpt lat="48.38832" lon="7.29264">
        <ele>796</ele>
        <time>2020-09-06T11:37:29.819Z</time>
      </trkpt>
      <trkpt lat="48.38831" lon="7.29265">
        <ele>796</ele>
        <time>2020-09-06T11:37:30.819Z</time>
      </trkpt>
      <trkpt lat="48.38829" lon="7.29265">
        <ele>796</ele>
        <time>2020-09-06T11:37:31.819Z</time>
      </trkpt>
      <trkpt lat="48.38829" lon="7.29265">
        <ele>796</ele>
        <time>2020-09-06T11:37:32.819Z</time>
      </trkpt>
      <trkpt lat="48.38828" lon="7.29265">
        <ele>796</ele>
        <time>2020-09-06T11:37:33.819Z</time>
      </trkpt>
      <trkpt lat="48.38826" lon="7.29265">
        <ele>795</ele>
        <time>2020-09-06T11:37:34.819Z</time>
      </trkpt>
      <trkpt lat="48.38825" lon="7.29265">
        <ele>795</ele>
        <time>2020-09-06T11:37:35.818Z</time>
      </trkpt>
      <trkpt lat="48.38824" lon="7.29264">
        <ele>794</ele>
        <time>2020-09-06T11:37:36.819Z</time>
      </trkpt>
      <trkpt lat="48.38824" lon="7.29264">
        <ele>793</ele>
        <time>2020-09-06T11:37:37.819Z</time>
      </trkpt>
      <trkpt lat="48.38823" lon="7.29265">
        <ele>793</ele>
        <time>2020-09-06T11:37:38.819Z</time>
      </trkpt>
      <trkpt lat="48.38822" lon="7.29266">
        <ele>792</ele>
        <time>2020-09-06T11:37:39.818Z</time>
      </trkpt>
      <trkpt lat="48.38822" lon="7.29266">
        <ele>792</ele>
        <time>2020-09-06T11:37:40.819Z</time>
      </trkpt>
      <trkpt lat="48.38821" lon="7.29266">
        <ele>792</ele>
        <time>2020-09-06T11:37:46.970Z</time>
      </trkpt>
      <trkpt lat="48.3882" lon="7.29268">
        <ele>792</ele>
        <time>2020-09-06T11:37:47.971Z</time>
      </trkpt>
      <trkpt lat="48.3882" lon="7.29269">
        <ele>792</ele>
        <time>2020-09-06T11:37:48.971Z</time>
      </trkpt>
      <trkpt lat="48.3882" lon="7.2927">
        <ele>791</ele>
        <time>2020-09-06T11:37:49.971Z</time>
      </trkpt>
      <trkpt lat="48.3882" lon="7.29272">
        <ele>791</ele>
        <time>2020-09-06T11:37:54.074Z</time>
      </trkpt>
      <trkpt lat="48.3882" lon="7.29274">
        <ele>791</ele>
        <time>2020-09-06T11:40:56.984Z</time>
      </trkpt>
      <trkpt lat="48.3882" lon="7.29276">
        <ele>791</ele>
        <time>2020-09-06T11:40:57.984Z</time>
      </trkpt>
      <trkpt lat="48.3882" lon="7.29277">
        <ele>790</ele>
        <time>2020-09-06T11:40:58.985Z</time>
      </trkpt>
      <trkpt lat="48.3882" lon="7.29278">
        <ele>789</ele>
        <time>2020-09-06T11:40:59.985Z</time>
      </trkpt>
      <trkpt lat="48.38819" lon="7.29281">
        <ele>789</ele>
        <time>2020-09-06T11:41:00.985Z</time>
      </trkpt>
      <trkpt lat="48.3882" lon="7.29282">
        <ele>788</ele>
        <time>2020-09-06T11:41:01.984Z</time>
      </trkpt>
      <trkpt lat="48.38821" lon="7.29284">
        <ele>787</ele>
        <time>2020-09-06T11:41:02.985Z</time>
      </trkpt>
      <trkpt lat="48.38821" lon="7.29285">
        <ele>787</ele>
        <time>2020-09-06T11:41:03.985Z</time>
      </trkpt>
      <trkpt lat="48.38822" lon="7.29286">
        <ele>786</ele>
        <time>2020-09-06T11:41:04.984Z</time>
      </trkpt>
      <trkpt lat="48.38822" lon="7.29287">
        <ele>786</ele>
        <time>2020-09-06T11:41:05.984Z</time>
      </trkpt>
      <trkpt lat="48.38823" lon="7.29287">
        <ele>786</ele>
        <time>2020-09-06T11:41:06.985Z</time>
      </trkpt>
      <trkpt lat="48.38823" lon="7.29288">
        <ele>785</ele>
        <time>2020-09-06T11:41:07.985Z</time>
      </trkpt>
      <trkpt lat="48.38824" lon="7.2929">
        <ele>785</ele>
        <time>2020-09-06T11:41:08.984Z</time>
      </trkpt>
      <trkpt lat="48.38824" lon="7.29291">
        <ele>785</ele>
        <time>2020-09-06T11:41:09.984Z</time>
      </trkpt>
      <trkpt lat="48.38824" lon="7.29293">
        <ele>785</ele>
        <time>2020-09-06T11:41:10.985Z</time>
      </trkpt>
      <trkpt lat="48.38824" lon="7.29295">
        <ele>785</ele>
        <time>2020-09-06T11:41:11.984Z</time>
      </trkpt>
      <trkpt lat="48.38825" lon="7.29296">
        <ele>785</ele>
        <time>2020-09-06T11:41:12.985Z</time>
      </trkpt>
      <trkpt lat="48.38824" lon="7.29297">
        <ele>785</ele>
        <time>2020-09-06T11:41:13.985Z</time>
      </trkpt>
      <trkpt lat="48.38823" lon="7.29297">
        <ele>785</ele>
        <time>2020-09-06T11:41:14.985Z</time>
      </trkpt>
      <trkpt lat="48.38823" lon="7.29297">
        <ele>785</ele>
        <time>2020-09-06T11:41:15.985Z</time>
      </trkpt>
      <trkpt lat="48.38823" lon="7.29297">
        <ele>785</ele>
        <time>2020-09-06T11:41:16.984Z</time>
      </trkpt>
      <trkpt lat="48.38824" lon="7.29296">
        <ele>786</ele>
        <time>2020-09-06T11:41:17.985Z</time>
      </trkpt>
      <trkpt lat="48.38824" lon="7.29296">
        <ele>786</ele>
        <time>2020-09-06T11:41:18.985Z</time>
      </trkpt>
      <trkpt lat="48.38824" lon="7.29296">
        <ele>786</ele>
        <time>2020-09-06T11:41:19.985Z</time>
      </trkpt>
      <trkpt lat="48.38824" lon="7.29296">
        <ele>787</ele>
        <time>2020-09-06T11:41:20.985Z</time>
      </trkpt>
      <trkpt lat="48.3882" lon="7.29298">
        <ele>787</ele>
        <time>2020-09-06T11:41:21.985Z</time>
      </trkpt>
      <trkpt lat="48.38818" lon="7.29305">
        <ele>788</ele>
        <time>2020-09-06T11:41:22.986Z</time>
      </trkpt>
      <trkpt lat="48.38817" lon="7.29307">
        <ele>787</ele>
        <time>2020-09-06T11:41:23.986Z</time>
      </trkpt>
      <trkpt lat="48.38816" lon="7.29309">
        <ele>787</ele>
        <time>2020-09-06T11:41:24.985Z</time>
      </trkpt>
      <trkpt lat="48.38816" lon="7.29311">
        <ele>786</ele>
        <time>2020-09-06T11:41:25.986Z</time>
      </trkpt>
      <trkpt lat="48.38815" lon="7.29313">
        <ele>786</ele>
        <time>2020-09-06T11:41:26.985Z</time>
      </trkpt>
      <trkpt lat="48.38814" lon="7.29314">
        <ele>785</ele>
        <time>2020-09-06T11:41:27.986Z</time>
      </trkpt>
      <trkpt lat="48.38814" lon="7.29316">
        <ele>785</ele>
        <time>2020-09-06T11:41:28.986Z</time>
      </trkpt>
      <trkpt lat="48.38814" lon="7.29318">
        <ele>784</ele>
        <time>2020-09-06T11:41:29.986Z</time>
      </trkpt>
      <trkpt lat="48.38813" lon="7.29317">
        <ele>783</ele>
        <time>2020-09-06T11:41:30.985Z</time>
      </trkpt>
      <trkpt lat="48.38813" lon="7.29317">
        <ele>782</ele>
        <time>2020-09-06T11:41:31.985Z</time>
      </trkpt>
      <trkpt lat="48.38813" lon="7.29317">
        <ele>777</ele>
        <time>2020-09-06T11:41:32.986Z</time>
      </trkpt>
      <trkpt lat="48.38813" lon="7.29318">
        <ele>777</ele>
        <time>2020-09-06T11:41:33.986Z</time>
      </trkpt>
      <trkpt lat="48.38812" lon="7.2932">
        <ele>776</ele>
        <time>2020-09-06T11:41:34.985Z</time>
      </trkpt>
      <trkpt lat="48.38811" lon="7.29321">
        <ele>776</ele>
        <time>2020-09-06T11:41:35.986Z</time>
      </trkpt>
      <trkpt lat="48.3881" lon="7.29323">
        <ele>776</ele>
        <time>2020-09-06T11:41:36.985Z</time>
      </trkpt>
      <trkpt lat="48.3881" lon="7.29324">
        <ele>776</ele>
        <time>2020-09-06T11:41:37.986Z</time>
      </trkpt>
      <trkpt lat="48.38809" lon="7.29326">
        <ele>775</ele>
        <time>2020-09-06T11:41:38.986Z</time>
      </trkpt>
      <trkpt lat="48.38808" lon="7.29327">
        <ele>775</ele>
        <time>2020-09-06T11:41:39.986Z</time>
      </trkpt>
      <trkpt lat="48.38807" lon="7.29329">
        <ele>775</ele>
        <time>2020-09-06T11:41:40.985Z</time>
      </trkpt>
      <trkpt lat="48.38807" lon="7.2933">
        <ele>775</ele>
        <time>2020-09-06T11:41:41.986Z</time>
      </trkpt>
      <trkpt lat="48.38806" lon="7.29332">
        <ele>776</ele>
        <time>2020-09-06T11:41:42.986Z</time>
      </trkpt>
      <trkpt lat="48.38805" lon="7.29333">
        <ele>776</ele>
        <time>2020-09-06T11:41:43.986Z</time>
      </trkpt>
      <trkpt lat="48.38804" lon="7.29334">
        <ele>776</ele>
        <time>2020-09-06T11:41:44.985Z</time>
      </trkpt>
      <trkpt lat="48.38803" lon="7.29335">
        <ele>776</ele>
        <time>2020-09-06T11:41:45.986Z</time>
      </trkpt>
      <trkpt lat="48.38803" lon="7.29336">
        <ele>776</ele>
        <time>2020-09-06T11:41:46.986Z</time>
      </trkpt>
      <trkpt lat="48.38802" lon="7.29337">
        <ele>776</ele>
        <time>2020-09-06T11:41:47.986Z</time>
      </trkpt>
      <trkpt lat="48.38802" lon="7.29339">
        <ele>776</ele>
        <time>2020-09-06T11:41:48.986Z</time>
      </trkpt>
      <trkpt lat="48.38801" lon="7.2934">
        <ele>776</ele>
        <time>2020-09-06T11:41:49.986Z</time>
      </trkpt>
      <trkpt lat="48.38801" lon="7.29341">
        <ele>776</ele>
        <time>2020-09-06T11:41:50.986Z</time>
      </trkpt>
      <trkpt lat="48.388" lon="7.29343">
        <ele>776</ele>
        <time>2020-09-06T11:41:51.986Z</time>
      </trkpt>
      <trkpt lat="48.388" lon="7.29345">
        <ele>776</ele>
        <time>2020-09-06T11:41:52.986Z</time>
      </trkpt>
      <trkpt lat="48.388" lon="7.29347">
        <ele>775</ele>
        <time>2020-09-06T11:41:53.986Z</time>
      </trkpt>
      <trkpt lat="48.38799" lon="7.29349">
        <ele>774</ele>
        <time>2020-09-06T11:41:54.986Z</time>
      </trkpt>
      <trkpt lat="48.38799" lon="7.2935">
        <ele>774</ele>
        <time>2020-09-06T11:41:55.986Z</time>
      </trkpt>
      <trkpt lat="48.38799" lon="7.29352">
        <ele>774</ele>
        <time>2020-09-06T11:41:56.985Z</time>
      </trkpt>
      <trkpt lat="48.38798" lon="7.29354">
        <ele>774</ele>
        <time>2020-09-06T11:41:57.986Z</time>
      </trkpt>
      <trkpt lat="48.38798" lon="7.29355">
        <ele>774</ele>
        <time>2020-09-06T11:41:58.986Z</time>
      </trkpt>
      <trkpt lat="48.38797" lon="7.29357">
        <ele>774</ele>
        <time>2020-09-06T11:41:59.986Z</time>
      </trkpt>
      <trkpt lat="48.38796" lon="7.29359">
        <ele>773</ele>
        <time>2020-09-06T11:42:00.985Z</time>
      </trkpt>
      <trkpt lat="48.38796" lon="7.29361">
        <ele>773</ele>
        <time>2020-09-06T11:42:01.985Z</time>
      </trkpt>
      <trkpt lat="48.38795" lon="7.29362">
        <ele>773</ele>
        <time>2020-09-06T11:42:02.986Z</time>
      </trkpt>
      <trkpt lat="48.38795" lon="7.29364">
        <ele>774</ele>
        <time>2020-09-06T11:42:03.986Z</time>
      </trkpt>
      <trkpt lat="48.38794" lon="7.29366">
        <ele>774</ele>
        <time>2020-09-06T11:42:04.986Z</time>
      </trkpt>
      <trkpt lat="48.38793" lon="7.29368">
        <ele>774</ele>
        <time>2020-09-06T11:42:05.985Z</time>
      </trkpt>
      <trkpt lat="48.38792" lon="7.2937">
        <ele>774</ele>
        <time>2020-09-06T11:42:06.986Z</time>
      </trkpt>
      <trkpt lat="48.38791" lon="7.29371">
        <ele>774</ele>
        <time>2020-09-06T11:42:07.985Z</time>
      </trkpt>
      <trkpt lat="48.3879" lon="7.29372">
        <ele>774</ele>
        <time>2020-09-06T11:42:08.986Z</time>
      </trkpt>
      <trkpt lat="48.38789" lon="7.29373">
        <ele>773</ele>
        <time>2020-09-06T11:42:09.986Z</time>
      </trkpt>
      <trkpt lat="48.38788" lon="7.29375">
        <ele>774</ele>
        <time>2020-09-06T11:42:10.985Z</time>
      </trkpt>
      <trkpt lat="48.38787" lon="7.29377">
        <ele>774</ele>
        <time>2020-09-06T11:42:11.986Z</time>
      </trkpt>
      <trkpt lat="48.38786" lon="7.29378">
        <ele>774</ele>
        <time>2020-09-06T11:42:12.986Z</time>
      </trkpt>
      <trkpt lat="48.38786" lon="7.2938">
        <ele>774</ele>
        <time>2020-09-06T11:42:13.985Z</time>
      </trkpt>
      <trkpt lat="48.38786" lon="7.2938">
        <ele>774</ele>
        <time>2020-09-06T11:42:14.986Z</time>
      </trkpt>
      <trkpt lat="48.38787" lon="7.29381">
        <ele>774</ele>
        <time>2020-09-06T11:42:15.985Z</time>
      </trkpt>
      <trkpt lat="48.38787" lon="7.29382">
        <ele>774</ele>
        <time>2020-09-06T11:42:16.985Z</time>
      </trkpt>
      <trkpt lat="48.38787" lon="7.29383">
        <ele>774</ele>
        <time>2020-09-06T11:42:17.986Z</time>
      </trkpt>
      <trkpt lat="48.38787" lon="7.29383">
        <ele>774</ele>
        <time>2020-09-06T11:42:18.986Z</time>
      </trkpt>
      <trkpt lat="48.38787" lon="7.29384">
        <ele>774</ele>
        <time>2020-09-06T11:42:19.986Z</time>
      </trkpt>
      <trkpt lat="48.38787" lon="7.29384">
        <ele>773</ele>
        <time>2020-09-06T11:42:20.986Z</time>
      </trkpt>
      <trkpt lat="48.38786" lon="7.29387">
        <ele>772</ele>
        <time>2020-09-06T11:42:21.987Z</time>
      </trkpt>
      <trkpt lat="48.38786" lon="7.29387">
        <ele>772</ele>
        <time>2020-09-06T11:42:22.988Z</time>
      </trkpt>
      <trkpt lat="48.38786" lon="7.29389">
        <ele>772</ele>
        <time>2020-09-06T11:42:23.987Z</time>
      </trkpt>
      <trkpt lat="48.38785" lon="7.2939">
        <ele>772</ele>
        <time>2020-09-06T11:42:24.988Z</time>
      </trkpt>
      <trkpt lat="48.38784" lon="7.29391">
        <ele>772</ele>
        <time>2020-09-06T11:42:25.988Z</time>
      </trkpt>
      <trkpt lat="48.38783" lon="7.29393">
        <ele>772</ele>
        <time>2020-09-06T11:42:26.987Z</time>
      </trkpt>
      <trkpt lat="48.38783" lon="7.29394">
        <ele>772</ele>
        <time>2020-09-06T11:42:27.987Z</time>
      </trkpt>
      <trkpt lat="48.38782" lon="7.29395">
        <ele>772</ele>
        <time>2020-09-06T11:42:28.988Z</time>
      </trkpt>
      <trkpt lat="48.38781" lon="7.29395">
        <ele>771</ele>
        <time>2020-09-06T11:42:29.987Z</time>
      </trkpt>
      <trkpt lat="48.3878" lon="7.29397">
        <ele>771</ele>
        <time>2020-09-06T11:42:30.988Z</time>
      </trkpt>
      <trkpt lat="48.38779" lon="7.29398">
        <ele>770</ele>
        <time>2020-09-06T11:42:31.988Z</time>
      </trkpt>
      <trkpt lat="48.38778" lon="7.29399">
        <ele>770</ele>
        <time>2020-09-06T11:42:32.988Z</time>
      </trkpt>
      <trkpt lat="48.38777" lon="7.294">
        <ele>770</ele>
        <time>2020-09-06T11:42:33.988Z</time>
      </trkpt>
      <trkpt lat="48.38777" lon="7.29402">
        <ele>770</ele>
        <time>2020-09-06T11:42:34.988Z</time>
      </trkpt>
      <trkpt lat="48.38776" lon="7.29403">
        <ele>770</ele>
        <time>2020-09-06T11:42:35.987Z</time>
      </trkpt>
      <trkpt lat="48.38775" lon="7.29404">
        <ele>770</ele>
        <time>2020-09-06T11:42:36.988Z</time>
      </trkpt>
      <trkpt lat="48.38774" lon="7.29405">
        <ele>770</ele>
        <time>2020-09-06T11:42:37.988Z</time>
      </trkpt>
      <trkpt lat="48.38773" lon="7.29406">
        <ele>770</ele>
        <time>2020-09-06T11:42:38.988Z</time>
      </trkpt>
      <trkpt lat="48.38773" lon="7.29407">
        <ele>770</ele>
        <time>2020-09-06T11:42:39.988Z</time>
      </trkpt>
      <trkpt lat="48.38773" lon="7.29408">
        <ele>770</ele>
        <time>2020-09-06T11:42:40.988Z</time>
      </trkpt>
      <trkpt lat="48.38772" lon="7.29409">
        <ele>771</ele>
        <time>2020-09-06T11:42:41.988Z</time>
      </trkpt>
      <trkpt lat="48.38771" lon="7.29409">
        <ele>772</ele>
        <time>2020-09-06T11:42:42.988Z</time>
      </trkpt>
      <trkpt lat="48.3877" lon="7.2941">
        <ele>772</ele>
        <time>2020-09-06T11:42:43.988Z</time>
      </trkpt>
      <trkpt lat="48.3877" lon="7.29411">
        <ele>773</ele>
        <time>2020-09-06T11:42:44.988Z</time>
      </trkpt>
      <trkpt lat="48.38769" lon="7.29411">
        <ele>773</ele>
        <time>2020-09-06T11:42:45.988Z</time>
      </trkpt>
      <trkpt lat="48.38769" lon="7.29412">
        <ele>773</ele>
        <time>2020-09-06T11:42:46.988Z</time>
      </trkpt>
      <trkpt lat="48.38769" lon="7.29412">
        <ele>774</ele>
        <time>2020-09-06T11:42:47.988Z</time>
      </trkpt>
      <trkpt lat="48.38769" lon="7.29411">
        <ele>774</ele>
        <time>2020-09-06T11:42:48.988Z</time>
      </trkpt>
      <trkpt lat="48.3877" lon="7.29405">
        <ele>769</ele>
        <time>2020-09-06T11:42:49.988Z</time>
      </trkpt>
      <trkpt lat="48.38769" lon="7.29404">
        <ele>769</ele>
        <time>2020-09-06T11:42:50.988Z</time>
      </trkpt>
      <trkpt lat="48.38769" lon="7.29405">
        <ele>769</ele>
        <time>2020-09-06T11:42:51.987Z</time>
      </trkpt>
      <trkpt lat="48.3877" lon="7.29406">
        <ele>769</ele>
        <time>2020-09-06T11:42:52.987Z</time>
      </trkpt>
      <trkpt lat="48.3877" lon="7.29406">
        <ele>769</ele>
        <time>2020-09-06T11:42:53.987Z</time>
      </trkpt>
      <trkpt lat="48.3877" lon="7.29406">
        <ele>770</ele>
        <time>2020-09-06T11:42:54.988Z</time>
      </trkpt>
      <trkpt lat="48.3877" lon="7.29405">
        <ele>770</ele>
        <time>2020-09-06T11:42:55.988Z</time>
      </trkpt>
      <trkpt lat="48.38771" lon="7.29408">
        <ele>770</ele>
        <time>2020-09-06T11:42:56.988Z</time>
      </trkpt>
      <trkpt lat="48.38769" lon="7.29406">
        <ele>769</ele>
        <time>2020-09-06T11:42:57.989Z</time>
      </trkpt>
      <trkpt lat="48.3877" lon="7.29407">
        <ele>769</ele>
        <time>2020-09-06T11:42:58.988Z</time>
      </trkpt>
      <trkpt lat="48.3877" lon="7.29406">
        <ele>769</ele>
        <time>2020-09-06T11:42:59.989Z</time>
      </trkpt>
      <trkpt lat="48.38771" lon="7.29407">
        <ele>769</ele>
        <time>2020-09-06T11:43:00.988Z</time>
      </trkpt>
      <trkpt lat="48.38772" lon="7.29406">
        <ele>768</ele>
        <time>2020-09-06T11:43:01.988Z</time>
      </trkpt>
      <trkpt lat="48.38772" lon="7.29406">
        <ele>768</ele>
        <time>2020-09-06T11:43:02.989Z</time>
      </trkpt>
      <trkpt lat="48.38774" lon="7.29398">
        <ele>770</ele>
        <time>2020-09-06T11:43:03.989Z</time>
      </trkpt>
      <trkpt lat="48.38775" lon="7.29396">
        <ele>770</ele>
        <time>2020-09-06T11:43:04.989Z</time>
      </trkpt>
      <trkpt lat="48.38776" lon="7.29396">
        <ele>771</ele>
        <time>2020-09-06T11:43:05.989Z</time>
      </trkpt>
      <trkpt lat="48.38777" lon="7.29396">
        <ele>771</ele>
        <time>2020-09-06T11:43:06.989Z</time>
      </trkpt>
      <trkpt lat="48.38778" lon="7.29396">
        <ele>771</ele>
        <time>2020-09-06T11:43:07.989Z</time>
      </trkpt>
      <trkpt lat="48.38778" lon="7.29395">
        <ele>771</ele>
        <time>2020-09-06T11:43:08.989Z</time>
      </trkpt>
      <trkpt lat="48.38779" lon="7.29394">
        <ele>771</ele>
        <time>2020-09-06T11:43:09.989Z</time>
      </trkpt>
      <trkpt lat="48.38779" lon="7.29392">
        <ele>772</ele>
        <time>2020-09-06T11:43:10.989Z</time>
      </trkpt>
      <trkpt lat="48.38779" lon="7.2939">
        <ele>773</ele>
        <time>2020-09-06T11:43:11.989Z</time>
      </trkpt>
      <trkpt lat="48.38779" lon="7.29389">
        <ele>774</ele>
        <time>2020-09-06T11:43:12.989Z</time>
      </trkpt>
      <trkpt lat="48.3878" lon="7.29387">
        <ele>774</ele>
        <time>2020-09-06T11:43:13.989Z</time>
      </trkpt>
      <trkpt lat="48.38781" lon="7.29387">
        <ele>774</ele>
        <time>2020-09-06T11:43:14.989Z</time>
      </trkpt>
      <trkpt lat="48.38782" lon="7.29385">
        <ele>775</ele>
        <time>2020-09-06T11:43:15.989Z</time>
      </trkpt>
      <trkpt lat="48.38783" lon="7.29385">
        <ele>775</ele>
        <time>2020-09-06T11:43:16.989Z</time>
      </trkpt>
      <trkpt lat="48.38784" lon="7.29384">
        <ele>775</ele>
        <time>2020-09-06T11:43:17.989Z</time>
      </trkpt>
      <trkpt lat="48.38784" lon="7.29384">
        <ele>775</ele>
        <time>2020-09-06T11:43:18.989Z</time>
      </trkpt>
      <trkpt lat="48.38785" lon="7.29383">
        <ele>774</ele>
        <time>2020-09-06T11:43:19.989Z</time>
      </trkpt>
      <trkpt lat="48.38786" lon="7.29382">
        <ele>774</ele>
        <time>2020-09-06T11:43:20.989Z</time>
      </trkpt>
      <trkpt lat="48.38786" lon="7.29382">
        <ele>774</ele>
        <time>2020-09-06T11:43:21.989Z</time>
      </trkpt>
      <trkpt lat="48.38787" lon="7.29381">
        <ele>773</ele>
        <time>2020-09-06T11:43:22.989Z</time>
      </trkpt>
      <trkpt lat="48.38787" lon="7.2938">
        <ele>773</ele>
        <time>2020-09-06T11:43:23.989Z</time>
      </trkpt>
      <trkpt lat="48.38788" lon="7.29378">
        <ele>773</ele>
        <time>2020-09-06T11:43:24.989Z</time>
      </trkpt>
      <trkpt lat="48.38789" lon="7.29376">
        <ele>773</ele>
        <time>2020-09-06T11:43:25.989Z</time>
      </trkpt>
      <trkpt lat="48.38789" lon="7.29374">
        <ele>773</ele>
        <time>2020-09-06T11:43:26.989Z</time>
      </trkpt>
      <trkpt lat="48.3879" lon="7.29373">
        <ele>774</ele>
        <time>2020-09-06T11:43:27.989Z</time>
      </trkpt>
      <trkpt lat="48.38791" lon="7.29372">
        <ele>774</ele>
        <time>2020-09-06T11:43:28.989Z</time>
      </trkpt>
      <trkpt lat="48.38792" lon="7.2937">
        <ele>774</ele>
        <time>2020-09-06T11:43:29.989Z</time>
      </trkpt>
      <trkpt lat="48.38793" lon="7.29369">
        <ele>775</ele>
        <time>2020-09-06T11:43:30.989Z</time>
      </trkpt>
      <trkpt lat="48.38794" lon="7.29367">
        <ele>776</ele>
        <time>2020-09-06T11:43:31.989Z</time>
      </trkpt>
      <trkpt lat="48.38795" lon="7.29366">
        <ele>776</ele>
        <time>2020-09-06T11:43:32.989Z</time>
      </trkpt>
      <trkpt lat="48.38796" lon="7.29365">
        <ele>777</ele>
        <time>2020-09-06T11:43:33.989Z</time>
      </trkpt>
      <trkpt lat="48.38796" lon="7.29364">
        <ele>777</ele>
        <time>2020-09-06T11:43:34.989Z</time>
      </trkpt>
      <trkpt lat="48.38797" lon="7.29363">
        <ele>777</ele>
        <time>2020-09-06T11:43:35.989Z</time>
      </trkpt>
      <trkpt lat="48.38798" lon="7.29362">
        <ele>777</ele>
        <time>2020-09-06T11:43:36.989Z</time>
      </trkpt>
      <trkpt lat="48.38799" lon="7.29362">
        <ele>776</ele>
        <time>2020-09-06T11:43:37.989Z</time>
      </trkpt>
      <trkpt lat="48.388" lon="7.29361">
        <ele>776</ele>
        <time>2020-09-06T11:43:38.989Z</time>
      </trkpt>
      <trkpt lat="48.38801" lon="7.2936">
        <ele>775</ele>
        <time>2020-09-06T11:43:39.989Z</time>
      </trkpt>
      <trkpt lat="48.38801" lon="7.2936">
        <ele>774</ele>
        <time>2020-09-06T11:43:40.989Z</time>
      </trkpt>
      <trkpt lat="48.38802" lon="7.29359">
        <ele>774</ele>
        <time>2020-09-06T11:43:41.989Z</time>
      </trkpt>
      <trkpt lat="48.38803" lon="7.29358">
        <ele>774</ele>
        <time>2020-09-06T11:43:42.989Z</time>
      </trkpt>
      <trkpt lat="48.38804" lon="7.29356">
        <ele>774</ele>
        <time>2020-09-06T11:43:43.989Z</time>
      </trkpt>
      <trkpt lat="48.38805" lon="7.29355">
        <ele>774</ele>
        <time>2020-09-06T11:43:44.989Z</time>
      </trkpt>
      <trkpt lat="48.38806" lon="7.29355">
        <ele>774</ele>
        <time>2020-09-06T11:43:45.989Z</time>
      </trkpt>
      <trkpt lat="48.38807" lon="7.29354">
        <ele>774</ele>
        <time>2020-09-06T11:43:46.989Z</time>
      </trkpt>
      <trkpt lat="48.38808" lon="7.29353">
        <ele>774</ele>
        <time>2020-09-06T11:43:47.989Z</time>
      </trkpt>
      <trkpt lat="48.38809" lon="7.29352">
        <ele>774</ele>
        <time>2020-09-06T11:43:48.989Z</time>
      </trkpt>
      <trkpt lat="48.38809" lon="7.29351">
        <ele>774</ele>
        <time>2020-09-06T11:43:49.989Z</time>
      </trkpt>
      <trkpt lat="48.3881" lon="7.29349">
        <ele>775</ele>
        <time>2020-09-06T11:43:50.989Z</time>
      </trkpt>
      <trkpt lat="48.38811" lon="7.29348">
        <ele>775</ele>
        <time>2020-09-06T11:43:51.989Z</time>
      </trkpt>
      <trkpt lat="48.38812" lon="7.29347">
        <ele>776</ele>
        <time>2020-09-06T11:43:52.989Z</time>
      </trkpt>
      <trkpt lat="48.38813" lon="7.29346">
        <ele>777</ele>
        <time>2020-09-06T11:43:53.989Z</time>
      </trkpt>
      <trkpt lat="48.38814" lon="7.29345">
        <ele>777</ele>
        <time>2020-09-06T11:43:54.989Z</time>
      </trkpt>
      <trkpt lat="48.38815" lon="7.29343">
        <ele>778</ele>
        <time>2020-09-06T11:43:55.989Z</time>
      </trkpt>
      <trkpt lat="48.38815" lon="7.29341">
        <ele>779</ele>
        <time>2020-09-06T11:43:56.989Z</time>
      </trkpt>
      <trkpt lat="48.38816" lon="7.2934">
        <ele>780</ele>
        <time>2020-09-06T11:43:57.989Z</time>
      </trkpt>
      <trkpt lat="48.38817" lon="7.29339">
        <ele>780</ele>
        <time>2020-09-06T11:43:58.989Z</time>
      </trkpt>
      <trkpt lat="48.38818" lon="7.29338">
        <ele>780</ele>
        <time>2020-09-06T11:43:59.989Z</time>
      </trkpt>
      <trkpt lat="48.38819" lon="7.29337">
        <ele>780</ele>
        <time>2020-09-06T11:44:00.989Z</time>
      </trkpt>
      <trkpt lat="48.38819" lon="7.29336">
        <ele>780</ele>
        <time>2020-09-06T11:44:01.989Z</time>
      </trkpt>
      <trkpt lat="48.3882" lon="7.29334">
        <ele>781</ele>
        <time>2020-09-06T11:44:02.989Z</time>
      </trkpt>
      <trkpt lat="48.38821" lon="7.29333">
        <ele>781</ele>
        <time>2020-09-06T11:44:03.989Z</time>
      </trkpt>
      <trkpt lat="48.38821" lon="7.29332">
        <ele>782</ele>
        <time>2020-09-06T11:44:04.989Z</time>
      </trkpt>
      <trkpt lat="48.38822" lon="7.29332">
        <ele>782</ele>
        <time>2020-09-06T11:44:05.989Z</time>
      </trkpt>
      <trkpt lat="48.38823" lon="7.29332">
        <ele>783</ele>
        <time>2020-09-06T11:44:06.989Z</time>
      </trkpt>
      <trkpt lat="48.38824" lon="7.29331">
        <ele>783</ele>
        <time>2020-09-06T11:44:07.989Z</time>
      </trkpt>
      <trkpt lat="48.38825" lon="7.29331">
        <ele>783</ele>
        <time>2020-09-06T11:44:08.989Z</time>
      </trkpt>
      <trkpt lat="48.38826" lon="7.2933">
        <ele>783</ele>
        <time>2020-09-06T11:44:09.989Z</time>
      </trkpt>
      <trkpt lat="48.38827" lon="7.29329">
        <ele>783</ele>
        <time>2020-09-06T11:44:10.989Z</time>
      </trkpt>
      <trkpt lat="48.38828" lon="7.29328">
        <ele>783</ele>
        <time>2020-09-06T11:44:11.989Z</time>
      </trkpt>
      <trkpt lat="48.38828" lon="7.29327">
        <ele>784</ele>
        <time>2020-09-06T11:44:12.989Z</time>
      </trkpt>
      <trkpt lat="48.38829" lon="7.29326">
        <ele>785</ele>
        <time>2020-09-06T11:44:13.989Z</time>
      </trkpt>
      <trkpt lat="48.3883" lon="7.29325">
        <ele>785</ele>
        <time>2020-09-06T11:44:14.989Z</time>
      </trkpt>
      <trkpt lat="48.38831" lon="7.29324">
        <ele>786</ele>
        <time>2020-09-06T11:44:15.989Z</time>
      </trkpt>
      <trkpt lat="48.38832" lon="7.29324">
        <ele>786</ele>
        <time>2020-09-06T11:44:16.989Z</time>
      </trkpt>
      <trkpt lat="48.38832" lon="7.29323">
        <ele>787</ele>
        <time>2020-09-06T11:44:17.989Z</time>
      </trkpt>
      <trkpt lat="48.38833" lon="7.29323">
        <ele>787</ele>
        <time>2020-09-06T11:44:18.989Z</time>
      </trkpt>
      <trkpt lat="48.38834" lon="7.29322">
        <ele>787</ele>
        <time>2020-09-06T11:44:19.989Z</time>
      </trkpt>
      <trkpt lat="48.38835" lon="7.29321">
        <ele>787</ele>
        <time>2020-09-06T11:44:20.989Z</time>
      </trkpt>
      <trkpt lat="48.38835" lon="7.29319">
        <ele>787</ele>
        <time>2020-09-06T11:44:21.989Z</time>
      </trkpt>
      <trkpt lat="48.38836" lon="7.29317">
        <ele>787</ele>
        <time>2020-09-06T11:44:22.989Z</time>
      </trkpt>
      <trkpt lat="48.38838" lon="7.29315">
        <ele>787</ele>
        <time>2020-09-06T11:44:23.989Z</time>
      </trkpt>
      <trkpt lat="48.38839" lon="7.29314">
        <ele>787</ele>
        <time>2020-09-06T11:44:24.989Z</time>
      </trkpt>
      <trkpt lat="48.3884" lon="7.29313">
        <ele>787</ele>
        <time>2020-09-06T11:44:25.989Z</time>
      </trkpt>
      <trkpt lat="48.38841" lon="7.29312">
        <ele>788</ele>
        <time>2020-09-06T11:44:26.989Z</time>
      </trkpt>
      <trkpt lat="48.38842" lon="7.29311">
        <ele>788</ele>
        <time>2020-09-06T11:44:27.989Z</time>
      </trkpt>
      <trkpt lat="48.38843" lon="7.29309">
        <ele>789</ele>
        <time>2020-09-06T11:44:28.989Z</time>
      </trkpt>
      <trkpt lat="48.38844" lon="7.29308">
        <ele>789</ele>
        <time>2020-09-06T11:44:29.989Z</time>
      </trkpt>
      <trkpt lat="48.38845" lon="7.29307">
        <ele>789</ele>
        <time>2020-09-06T11:44:30.989Z</time>
      </trkpt>
      <trkpt lat="48.38846" lon="7.29306">
        <ele>789</ele>
        <time>2020-09-06T11:44:31.989Z</time>
      </trkpt>
      <trkpt lat="48.38846" lon="7.29306">
        <ele>790</ele>
        <time>2020-09-06T11:44:32.989Z</time>
      </trkpt>
      <trkpt lat="48.38847" lon="7.29304">
        <ele>790</ele>
        <time>2020-09-06T11:44:33.989Z</time>
      </trkpt>
      <trkpt lat="48.38848" lon="7.29303">
        <ele>790</ele>
        <time>2020-09-06T11:44:34.989Z</time>
      </trkpt>
      <trkpt lat="48.3885" lon="7.29303">
        <ele>789</ele>
        <time>2020-09-06T11:44:35.989Z</time>
      </trkpt>
      <trkpt lat="48.38851" lon="7.29302">
        <ele>789</ele>
        <time>2020-09-06T11:44:36.989Z</time>
      </trkpt>
      <trkpt lat="48.38852" lon="7.29301">
        <ele>789</ele>
        <time>2020-09-06T11:44:37.989Z</time>
      </trkpt>
      <trkpt lat="48.38852" lon="7.293">
        <ele>789</ele>
        <time>2020-09-06T11:44:38.989Z</time>
      </trkpt>
      <trkpt lat="48.38853" lon="7.29299">
        <ele>789</ele>
        <time>2020-09-06T11:44:41.092Z</time>
      </trkpt>
      <trkpt lat="48.38853" lon="7.29299">
        <ele>789</ele>
        <time>2020-09-06T11:44:42.092Z</time>
      </trkpt>
      <trkpt lat="48.38854" lon="7.29298">
        <ele>789</ele>
        <time>2020-09-06T11:44:43.092Z</time>
      </trkpt>
      <trkpt lat="48.38855" lon="7.29297">
        <ele>790</ele>
        <time>2020-09-06T11:44:44.092Z</time>
      </trkpt>
      <trkpt lat="48.38856" lon="7.29297">
        <ele>790</ele>
        <time>2020-09-06T11:44:45.092Z</time>
      </trkpt>
      <trkpt lat="48.38856" lon="7.29297">
        <ele>790</ele>
        <time>2020-09-06T11:44:46.092Z</time>
      </trkpt>
      <trkpt lat="48.38857" lon="7.29297">
        <ele>790</ele>
        <time>2020-09-06T11:44:47.092Z</time>
      </trkpt>
      <trkpt lat="48.38858" lon="7.29296">
        <ele>791</ele>
        <time>2020-09-06T11:44:48.092Z</time>
      </trkpt>
      <trkpt lat="48.38859" lon="7.29295">
        <ele>791</ele>
        <time>2020-09-06T11:44:49.092Z</time>
      </trkpt>
      <trkpt lat="48.38859" lon="7.29293">
        <ele>791</ele>
        <time>2020-09-06T11:44:50.092Z</time>
      </trkpt>
      <trkpt lat="48.38861" lon="7.29291">
        <ele>792</ele>
        <time>2020-09-06T11:44:51.092Z</time>
      </trkpt>
      <trkpt lat="48.38862" lon="7.2929">
        <ele>792</ele>
        <time>2020-09-06T11:44:52.092Z</time>
      </trkpt>
      <trkpt lat="48.38864" lon="7.29289">
        <ele>792</ele>
        <time>2020-09-06T11:44:53.092Z</time>
      </trkpt>
      <trkpt lat="48.38866" lon="7.29289">
        <ele>793</ele>
        <time>2020-09-06T11:44:54.092Z</time>
      </trkpt>
      <trkpt lat="48.38867" lon="7.29288">
        <ele>793</ele>
        <time>2020-09-06T11:44:55.092Z</time>
      </trkpt>
      <trkpt lat="48.38868" lon="7.29288">
        <ele>794</ele>
        <time>2020-09-06T11:44:56.092Z</time>
      </trkpt>
      <trkpt lat="48.38868" lon="7.29287">
        <ele>794</ele>
        <time>2020-09-06T11:44:57.092Z</time>
      </trkpt>
      <trkpt lat="48.38869" lon="7.29286">
        <ele>795</ele>
        <time>2020-09-06T11:44:58.092Z</time>
      </trkpt>
      <trkpt lat="48.38871" lon="7.29285">
        <ele>795</ele>
        <time>2020-09-06T11:44:59.092Z</time>
      </trkpt>
      <trkpt lat="48.38872" lon="7.29283">
        <ele>795</ele>
        <time>2020-09-06T11:45:00.092Z</time>
      </trkpt>
      <trkpt lat="48.38873" lon="7.29283">
        <ele>796</ele>
        <time>2020-09-06T11:45:01.092Z</time>
      </trkpt>
      <trkpt lat="48.38873" lon="7.29283">
        <ele>796</ele>
        <time>2020-09-06T11:45:02.092Z</time>
      </trkpt>
      <trkpt lat="48.38874" lon="7.29283">
        <ele>796</ele>
        <time>2020-09-06T11:45:03.092Z</time>
      </trkpt>
      <trkpt lat="48.38875" lon="7.29282">
        <ele>797</ele>
        <time>2020-09-06T11:45:04.092Z</time>
      </trkpt>
      <trkpt lat="48.38876" lon="7.29282">
        <ele>797</ele>
        <time>2020-09-06T11:45:05.092Z</time>
      </trkpt>
      <trkpt lat="48.38876" lon="7.29282">
        <ele>798</ele>
        <time>2020-09-06T11:45:06.092Z</time>
      </trkpt>
      <trkpt lat="48.38877" lon="7.29281">
        <ele>798</ele>
        <time>2020-09-06T11:45:07.092Z</time>
      </trkpt>
      <trkpt lat="48.38878" lon="7.29281">
        <ele>799</ele>
        <time>2020-09-06T11:45:08.092Z</time>
      </trkpt>
      <trkpt lat="48.38879" lon="7.29281">
        <ele>799</ele>
        <time>2020-09-06T11:45:09.092Z</time>
      </trkpt>
      <trkpt lat="48.3888" lon="7.29282">
        <ele>799</ele>
        <time>2020-09-06T11:45:10.092Z</time>
      </trkpt>
      <trkpt lat="48.38881" lon="7.29281">
        <ele>800</ele>
        <time>2020-09-06T11:45:11.092Z</time>
      </trkpt>
      <trkpt lat="48.38882" lon="7.29281">
        <ele>801</ele>
        <time>2020-09-06T11:45:12.092Z</time>
      </trkpt>
      <trkpt lat="48.38883" lon="7.29281">
        <ele>801</ele>
        <time>2020-09-06T11:45:13.092Z</time>
      </trkpt>
      <trkpt lat="48.38884" lon="7.29281">
        <ele>802</ele>
        <time>2020-09-06T11:45:14.092Z</time>
      </trkpt>
      <trkpt lat="48.38885" lon="7.2928">
        <ele>802</ele>
        <time>2020-09-06T11:45:15.092Z</time>
      </trkpt>
      <trkpt lat="48.38886" lon="7.2928">
        <ele>802</ele>
        <time>2020-09-06T11:45:16.092Z</time>
      </trkpt>
      <trkpt lat="48.38887" lon="7.2928">
        <ele>802</ele>
        <time>2020-09-06T11:45:17.092Z</time>
      </trkpt>
      <trkpt lat="48.38888" lon="7.29279">
        <ele>802</ele>
        <time>2020-09-06T11:45:18.092Z</time>
      </trkpt>
      <trkpt lat="48.38889" lon="7.29279">
        <ele>802</ele>
        <time>2020-09-06T11:45:19.092Z</time>
      </trkpt>
      <trkpt lat="48.3889" lon="7.29279">
        <ele>801</ele>
        <time>2020-09-06T11:45:20.092Z</time>
      </trkpt>
      <trkpt lat="48.38891" lon="7.29279">
        <ele>801</ele>
        <time>2020-09-06T11:45:21.092Z</time>
      </trkpt>
      <trkpt lat="48.38892" lon="7.2928">
        <ele>800</ele>
        <time>2020-09-06T11:45:22.092Z</time>
      </trkpt>
      <trkpt lat="48.38894" lon="7.2928">
        <ele>799</ele>
        <time>2020-09-06T11:45:23.092Z</time>
      </trkpt>
      <trkpt lat="48.38896" lon="7.29281">
        <ele>798</ele>
        <time>2020-09-06T11:45:24.092Z</time>
      </trkpt>
      <trkpt lat="48.38897" lon="7.29281">
        <ele>798</ele>
        <time>2020-09-06T11:45:25.092Z</time>
      </trkpt>
      <trkpt lat="48.38899" lon="7.29282">
        <ele>797</ele>
        <time>2020-09-06T11:45:26.092Z</time>
      </trkpt>
      <trkpt lat="48.389" lon="7.29282">
        <ele>796</ele>
        <time>2020-09-06T11:45:27.092Z</time>
      </trkpt>
      <trkpt lat="48.38901" lon="7.29282">
        <ele>796</ele>
        <time>2020-09-06T11:45:28.092Z</time>
      </trkpt>
      <trkpt lat="48.38901" lon="7.29282">
        <ele>796</ele>
        <time>2020-09-06T11:45:29.092Z</time>
      </trkpt>
      <trkpt lat="48.38902" lon="7.29282">
        <ele>795</ele>
        <time>2020-09-06T11:45:30.092Z</time>
      </trkpt>
      <trkpt lat="48.38903" lon="7.29282">
        <ele>795</ele>
        <time>2020-09-06T11:45:31.092Z</time>
      </trkpt>
      <trkpt lat="48.38905" lon="7.29283">
        <ele>794</ele>
        <time>2020-09-06T11:45:32.092Z</time>
      </trkpt>
      <trkpt lat="48.38906" lon="7.29283">
        <ele>794</ele>
        <time>2020-09-06T11:45:33.092Z</time>
      </trkpt>
      <trkpt lat="48.38907" lon="7.29283">
        <ele>793</ele>
        <time>2020-09-06T11:45:34.092Z</time>
      </trkpt>
      <trkpt lat="48.38909" lon="7.29284">
        <ele>792</ele>
        <time>2020-09-06T11:45:35.092Z</time>
      </trkpt>
      <trkpt lat="48.38911" lon="7.29285">
        <ele>791</ele>
        <time>2020-09-06T11:45:36.092Z</time>
      </trkpt>
      <trkpt lat="48.38912" lon="7.29286">
        <ele>790</ele>
        <time>2020-09-06T11:45:37.092Z</time>
      </trkpt>
      <trkpt lat="48.38914" lon="7.29287">
        <ele>789</ele>
        <time>2020-09-06T11:45:38.092Z</time>
      </trkpt>
      <trkpt lat="48.38916" lon="7.29288">
        <ele>788</ele>
        <time>2020-09-06T11:45:39.092Z</time>
      </trkpt>
      <trkpt lat="48.38917" lon="7.29287">
        <ele>787</ele>
        <time>2020-09-06T11:45:40.092Z</time>
      </trkpt>
      <trkpt lat="48.38919" lon="7.29286">
        <ele>786</ele>
        <time>2020-09-06T11:45:41.092Z</time>
      </trkpt>
      <trkpt lat="48.38921" lon="7.29285">
        <ele>786</ele>
        <time>2020-09-06T11:45:42.092Z</time>
      </trkpt>
      <trkpt lat="48.38922" lon="7.29285">
        <ele>786</ele>
        <time>2020-09-06T11:45:43.092Z</time>
      </trkpt>
      <trkpt lat="48.38924" lon="7.29285">
        <ele>786</ele>
        <time>2020-09-06T11:45:44.092Z</time>
      </trkpt>
      <trkpt lat="48.38925" lon="7.29285">
        <ele>786</ele>
        <time>2020-09-06T11:45:45.092Z</time>
      </trkpt>
      <trkpt lat="48.38927" lon="7.29286">
        <ele>786</ele>
        <time>2020-09-06T11:45:46.092Z</time>
      </trkpt>
      <trkpt lat="48.38929" lon="7.29287">
        <ele>786</ele>
        <time>2020-09-06T11:45:47.092Z</time>
      </trkpt>
      <trkpt lat="48.38932" lon="7.29288">
        <ele>785</ele>
        <time>2020-09-06T11:45:48.092Z</time>
      </trkpt>
      <trkpt lat="48.38934" lon="7.29289">
        <ele>785</ele>
        <time>2020-09-06T11:45:49.092Z</time>
      </trkpt>
      <trkpt lat="48.38936" lon="7.2929">
        <ele>785</ele>
        <time>2020-09-06T11:45:50.092Z</time>
      </trkpt>
      <trkpt lat="48.38937" lon="7.29291">
        <ele>785</ele>
        <time>2020-09-06T11:45:51.092Z</time>
      </trkpt>
      <trkpt lat="48.38938" lon="7.29292">
        <ele>785</ele>
        <time>2020-09-06T11:45:52.092Z</time>
      </trkpt>
      <trkpt lat="48.38939" lon="7.29292">
        <ele>785</ele>
        <time>2020-09-06T11:45:53.092Z</time>
      </trkpt>
      <trkpt lat="48.38941" lon="7.29292">
        <ele>785</ele>
        <time>2020-09-06T11:45:54.092Z</time>
      </trkpt>
      <trkpt lat="48.38942" lon="7.29292">
        <ele>785</ele>
        <time>2020-09-06T11:45:55.092Z</time>
      </trkpt>
      <trkpt lat="48.38943" lon="7.29293">
        <ele>784</ele>
        <time>2020-09-06T11:45:56.092Z</time>
      </trkpt>
      <trkpt lat="48.38944" lon="7.29293">
        <ele>784</ele>
        <time>2020-09-06T11:45:57.092Z</time>
      </trkpt>
      <trkpt lat="48.38946" lon="7.29295">
        <ele>783</ele>
        <time>2020-09-06T11:46:02.086Z</time>
      </trkpt>
      <trkpt lat="48.38947" lon="7.29296">
        <ele>783</ele>
        <time>2020-09-06T11:46:03.086Z</time>
      </trkpt>
      <trkpt lat="48.38948" lon="7.29296">
        <ele>782</ele>
        <time>2020-09-06T11:46:04.086Z</time>
      </trkpt>
      <trkpt lat="48.38949" lon="7.29297">
        <ele>782</ele>
        <time>2020-09-06T11:46:05.086Z</time>
      </trkpt>
      <trkpt lat="48.3895" lon="7.29297">
        <ele>782</ele>
        <time>2020-09-06T11:46:06.086Z</time>
      </trkpt>
      <trkpt lat="48.38952" lon="7.29297">
        <ele>781</ele>
        <time>2020-09-06T11:46:07.086Z</time>
      </trkpt>
      <trkpt lat="48.38953" lon="7.29297">
        <ele>781</ele>
        <time>2020-09-06T11:48:51.269Z</time>
      </trkpt>
      <trkpt lat="48.38954" lon="7.29297">
        <ele>781</ele>
        <time>2020-09-06T11:48:52.269Z</time>
      </trkpt>
      <trkpt lat="48.38955" lon="7.29297">
        <ele>781</ele>
        <time>2020-09-06T11:48:53.269Z</time>
      </trkpt>
      <trkpt lat="48.38955" lon="7.29299">
        <ele>780</ele>
        <time>2020-09-06T11:48:54.269Z</time>
      </trkpt>
      <trkpt lat="48.38957" lon="7.29299">
        <ele>780</ele>
        <time>2020-09-06T11:48:55.269Z</time>
      </trkpt>
      <trkpt lat="48.38957" lon="7.29299">
        <ele>781</ele>
        <time>2020-09-06T11:48:56.269Z</time>
      </trkpt>
      <trkpt lat="48.38958" lon="7.293">
        <ele>782</ele>
        <time>2020-09-06T11:48:57.269Z</time>
      </trkpt>
      <trkpt lat="48.38959" lon="7.29301">
        <ele>782</ele>
        <time>2020-09-06T11:48:58.269Z</time>
      </trkpt>
      <trkpt lat="48.3896" lon="7.29302">
        <ele>783</ele>
        <time>2020-09-06T11:48:59.269Z</time>
      </trkpt>
      <trkpt lat="48.38961" lon="7.29303">
        <ele>783</ele>
        <time>2020-09-06T11:49:00.269Z</time>
      </trkpt>
      <trkpt lat="48.38962" lon="7.29304">
        <ele>783</ele>
        <time>2020-09-06T11:49:01.269Z</time>
      </trkpt>
      <trkpt lat="48.38963" lon="7.29304">
        <ele>783</ele>
        <time>2020-09-06T11:49:02.269Z</time>
      </trkpt>
      <trkpt lat="48.38964" lon="7.29304">
        <ele>783</ele>
        <time>2020-09-06T11:49:03.269Z</time>
      </trkpt>
      <trkpt lat="48.38965" lon="7.29304">
        <ele>783</ele>
        <time>2020-09-06T11:49:04.269Z</time>
      </trkpt>
      <trkpt lat="48.38966" lon="7.29304">
        <ele>784</ele>
        <time>2020-09-06T11:49:05.269Z</time>
      </trkpt>
      <trkpt lat="48.38967" lon="7.29305">
        <ele>784</ele>
        <time>2020-09-06T11:49:06.269Z</time>
      </trkpt>
      <trkpt lat="48.38968" lon="7.29305">
        <ele>784</ele>
        <time>2020-09-06T11:49:07.269Z</time>
      </trkpt>
      <trkpt lat="48.38969" lon="7.29307">
        <ele>785</ele>
        <time>2020-09-06T11:49:08.269Z</time>
      </trkpt>
      <trkpt lat="48.3897" lon="7.29307">
        <ele>785</ele>
        <time>2020-09-06T11:49:09.269Z</time>
      </trkpt>
      <trkpt lat="48.38971" lon="7.29306">
        <ele>785</ele>
        <time>2020-09-06T11:49:10.269Z</time>
      </trkpt>
      <trkpt lat="48.38973" lon="7.29306">
        <ele>785</ele>
        <time>2020-09-06T11:49:11.269Z</time>
      </trkpt>
      <trkpt lat="48.38973" lon="7.29306">
        <ele>785</ele>
        <time>2020-09-06T11:49:12.269Z</time>
      </trkpt>
      <trkpt lat="48.38975" lon="7.29307">
        <ele>785</ele>
        <time>2020-09-06T11:49:13.269Z</time>
      </trkpt>
      <trkpt lat="48.38977" lon="7.29307">
        <ele>785</ele>
        <time>2020-09-06T11:49:14.269Z</time>
      </trkpt>
      <trkpt lat="48.38978" lon="7.29307">
        <ele>785</ele>
        <time>2020-09-06T11:49:15.269Z</time>
      </trkpt>
      <trkpt lat="48.38979" lon="7.29307">
        <ele>785</ele>
        <time>2020-09-06T11:49:16.269Z</time>
      </trkpt>
      <trkpt lat="48.38981" lon="7.29307">
        <ele>784</ele>
        <time>2020-09-06T11:49:17.269Z</time>
      </trkpt>
      <trkpt lat="48.38982" lon="7.29307">
        <ele>784</ele>
        <time>2020-09-06T11:49:18.269Z</time>
      </trkpt>
      <trkpt lat="48.38983" lon="7.29308">
        <ele>784</ele>
        <time>2020-09-06T11:49:19.269Z</time>
      </trkpt>
      <trkpt lat="48.38984" lon="7.29308">
        <ele>783</ele>
        <time>2020-09-06T11:49:20.269Z</time>
      </trkpt>
      <trkpt lat="48.38986" lon="7.29308">
        <ele>783</ele>
        <time>2020-09-06T11:49:21.269Z</time>
      </trkpt>
      <trkpt lat="48.38988" lon="7.29307">
        <ele>783</ele>
        <time>2020-09-06T11:49:22.269Z</time>
      </trkpt>
      <trkpt lat="48.38989" lon="7.29306">
        <ele>783</ele>
        <time>2020-09-06T11:49:23.269Z</time>
      </trkpt>
      <trkpt lat="48.3899" lon="7.29305">
        <ele>783</ele>
        <time>2020-09-06T11:49:24.269Z</time>
      </trkpt>
      <trkpt lat="48.38991" lon="7.29305">
        <ele>784</ele>
        <time>2020-09-06T11:49:25.269Z</time>
      </trkpt>
      <trkpt lat="48.38993" lon="7.29304">
        <ele>784</ele>
        <time>2020-09-06T11:49:26.269Z</time>
      </trkpt>
      <trkpt lat="48.38994" lon="7.29304">
        <ele>784</ele>
        <time>2020-09-06T11:49:27.269Z</time>
      </trkpt>
      <trkpt lat="48.38995" lon="7.29304">
        <ele>785</ele>
        <time>2020-09-06T11:49:28.269Z</time>
      </trkpt>
      <trkpt lat="48.38996" lon="7.29303">
        <ele>785</ele>
        <time>2020-09-06T11:49:29.269Z</time>
      </trkpt>
      <trkpt lat="48.38998" lon="7.29303">
        <ele>786</ele>
        <time>2020-09-06T11:49:30.269Z</time>
      </trkpt>
      <trkpt lat="48.38998" lon="7.29303">
        <ele>786</ele>
        <time>2020-09-06T11:49:31.269Z</time>
      </trkpt>
      <trkpt lat="48.38999" lon="7.29302">
        <ele>787</ele>
        <time>2020-09-06T11:49:32.269Z</time>
      </trkpt>
      <trkpt lat="48.39" lon="7.29302">
        <ele>787</ele>
        <time>2020-09-06T11:49:33.269Z</time>
      </trkpt>
      <trkpt lat="48.39001" lon="7.29303">
        <ele>788</ele>
        <time>2020-09-06T11:49:34.269Z</time>
      </trkpt>
      <trkpt lat="48.39002" lon="7.29303">
        <ele>789</ele>
        <time>2020-09-06T11:49:35.269Z</time>
      </trkpt>
      <trkpt lat="48.39004" lon="7.29303">
        <ele>789</ele>
        <time>2020-09-06T11:49:36.269Z</time>
      </trkpt>
      <trkpt lat="48.39005" lon="7.29302">
        <ele>790</ele>
        <time>2020-09-06T11:49:37.269Z</time>
      </trkpt>
      <trkpt lat="48.39006" lon="7.29301">
        <ele>791</ele>
        <time>2020-09-06T11:49:38.269Z</time>
      </trkpt>
      <trkpt lat="48.39007" lon="7.293">
        <ele>791</ele>
        <time>2020-09-06T11:49:39.269Z</time>
      </trkpt>
      <trkpt lat="48.39008" lon="7.293">
        <ele>791</ele>
        <time>2020-09-06T11:49:40.269Z</time>
      </trkpt>
      <trkpt lat="48.39009" lon="7.293">
        <ele>791</ele>
        <time>2020-09-06T11:49:41.269Z</time>
      </trkpt>
      <trkpt lat="48.39011" lon="7.29299">
        <ele>791</ele>
        <time>2020-09-06T11:49:42.269Z</time>
      </trkpt>
      <trkpt lat="48.39012" lon="7.29299">
        <ele>791</ele>
        <time>2020-09-06T11:49:43.269Z</time>
      </trkpt>
      <trkpt lat="48.39014" lon="7.29298">
        <ele>790</ele>
        <time>2020-09-06T11:49:44.269Z</time>
      </trkpt>
      <trkpt lat="48.39016" lon="7.29297">
        <ele>790</ele>
        <time>2020-09-06T11:49:45.269Z</time>
      </trkpt>
      <trkpt lat="48.39017" lon="7.29297">
        <ele>789</ele>
        <time>2020-09-06T11:49:46.269Z</time>
      </trkpt>
      <trkpt lat="48.39019" lon="7.29297">
        <ele>788</ele>
        <time>2020-09-06T11:49:47.269Z</time>
      </trkpt>
      <trkpt lat="48.39021" lon="7.29298">
        <ele>787</ele>
        <time>2020-09-06T11:49:48.269Z</time>
      </trkpt>
      <trkpt lat="48.39022" lon="7.29298">
        <ele>787</ele>
        <time>2020-09-06T11:49:49.269Z</time>
      </trkpt>
      <trkpt lat="48.39023" lon="7.29298">
        <ele>787</ele>
        <time>2020-09-06T11:49:50.269Z</time>
      </trkpt>
      <trkpt lat="48.39024" lon="7.29298">
        <ele>786</ele>
        <time>2020-09-06T11:49:51.269Z</time>
      </trkpt>
      <trkpt lat="48.39025" lon="7.29297">
        <ele>786</ele>
        <time>2020-09-06T11:49:52.269Z</time>
      </trkpt>
      <trkpt lat="48.39027" lon="7.29296">
        <ele>786</ele>
        <time>2020-09-06T11:49:53.269Z</time>
      </trkpt>
      <trkpt lat="48.39029" lon="7.29296">
        <ele>786</ele>
        <time>2020-09-06T11:49:54.269Z</time>
      </trkpt>
      <trkpt lat="48.3903" lon="7.29295">
        <ele>786</ele>
        <time>2020-09-06T11:49:55.269Z</time>
      </trkpt>
      <trkpt lat="48.39031" lon="7.29295">
        <ele>786</ele>
        <time>2020-09-06T11:49:56.269Z</time>
      </trkpt>
      <trkpt lat="48.39033" lon="7.29295">
        <ele>786</ele>
        <time>2020-09-06T11:49:57.269Z</time>
      </trkpt>
      <trkpt lat="48.39034" lon="7.29293">
        <ele>786</ele>
        <time>2020-09-06T11:49:58.269Z</time>
      </trkpt>
      <trkpt lat="48.39035" lon="7.29292">
        <ele>786</ele>
        <time>2020-09-06T11:49:59.269Z</time>
      </trkpt>
      <trkpt lat="48.39037" lon="7.2929">
        <ele>786</ele>
        <time>2020-09-06T11:50:00.269Z</time>
      </trkpt>
      <trkpt lat="48.39038" lon="7.29289">
        <ele>786</ele>
        <time>2020-09-06T11:50:01.269Z</time>
      </trkpt>
      <trkpt lat="48.39039" lon="7.29287">
        <ele>786</ele>
        <time>2020-09-06T11:50:02.269Z</time>
      </trkpt>
      <trkpt lat="48.39041" lon="7.29286">
        <ele>786</ele>
        <time>2020-09-06T11:50:03.269Z</time>
      </trkpt>
      <trkpt lat="48.39042" lon="7.29285">
        <ele>786</ele>
        <time>2020-09-06T11:50:04.269Z</time>
      </trkpt>
      <trkpt lat="48.39043" lon="7.29285">
        <ele>786</ele>
        <time>2020-09-06T11:50:05.269Z</time>
      </trkpt>
      <trkpt lat="48.39044" lon="7.29285">
        <ele>786</ele>
        <time>2020-09-06T11:50:06.269Z</time>
      </trkpt>
      <trkpt lat="48.39045" lon="7.29284">
        <ele>786</ele>
        <time>2020-09-06T11:50:07.269Z</time>
      </trkpt>
      <trkpt lat="48.39047" lon="7.29284">
        <ele>786</ele>
        <time>2020-09-06T11:50:08.269Z</time>
      </trkpt>
      <trkpt lat="48.39048" lon="7.29284">
        <ele>786</ele>
        <time>2020-09-06T11:50:09.269Z</time>
      </trkpt>
      <trkpt lat="48.39049" lon="7.29283">
        <ele>786</ele>
        <time>2020-09-06T11:50:10.269Z</time>
      </trkpt>
      <trkpt lat="48.3905" lon="7.29282">
        <ele>787</ele>
        <time>2020-09-06T11:50:11.269Z</time>
      </trkpt>
      <trkpt lat="48.39051" lon="7.29282">
        <ele>787</ele>
        <time>2020-09-06T11:50:12.269Z</time>
      </trkpt>
      <trkpt lat="48.39052" lon="7.29281">
        <ele>787</ele>
        <time>2020-09-06T11:50:13.269Z</time>
      </trkpt>
      <trkpt lat="48.39053" lon="7.2928">
        <ele>788</ele>
        <time>2020-09-06T11:50:14.269Z</time>
      </trkpt>
      <trkpt lat="48.39055" lon="7.29279">
        <ele>788</ele>
        <time>2020-09-06T11:50:15.269Z</time>
      </trkpt>
      <trkpt lat="48.39056" lon="7.29279">
        <ele>788</ele>
        <time>2020-09-06T11:50:16.269Z</time>
      </trkpt>
      <trkpt lat="48.39058" lon="7.29278">
        <ele>788</ele>
        <time>2020-09-06T11:50:17.269Z</time>
      </trkpt>
      <trkpt lat="48.3906" lon="7.29278">
        <ele>787</ele>
        <time>2020-09-06T11:50:18.269Z</time>
      </trkpt>
      <trkpt lat="48.39061" lon="7.29277">
        <ele>787</ele>
        <time>2020-09-06T11:50:19.269Z</time>
      </trkpt>
      <trkpt lat="48.39063" lon="7.29276">
        <ele>787</ele>
        <time>2020-09-06T11:50:20.269Z</time>
      </trkpt>
      <trkpt lat="48.39064" lon="7.29274">
        <ele>787</ele>
        <time>2020-09-06T11:50:21.269Z</time>
      </trkpt>
      <trkpt lat="48.39064" lon="7.29273">
        <ele>786</ele>
        <time>2020-09-06T11:50:22.269Z</time>
      </trkpt>
      <trkpt lat="48.39066" lon="7.29273">
        <ele>786</ele>
        <time>2020-09-06T11:50:23.269Z</time>
      </trkpt>
      <trkpt lat="48.39067" lon="7.29272">
        <ele>785</ele>
        <time>2020-09-06T11:50:24.269Z</time>
      </trkpt>
      <trkpt lat="48.39068" lon="7.29271">
        <ele>785</ele>
        <time>2020-09-06T11:50:25.269Z</time>
      </trkpt>
      <trkpt lat="48.39069" lon="7.2927">
        <ele>785</ele>
        <time>2020-09-06T11:50:26.269Z</time>
      </trkpt>
      <trkpt lat="48.3907" lon="7.2927">
        <ele>785</ele>
        <time>2020-09-06T11:50:27.269Z</time>
      </trkpt>
      <trkpt lat="48.3907" lon="7.29269">
        <ele>784</ele>
        <time>2020-09-06T11:50:28.269Z</time>
      </trkpt>
      <trkpt lat="48.39072" lon="7.29268">
        <ele>784</ele>
        <time>2020-09-06T11:50:29.269Z</time>
      </trkpt>
      <trkpt lat="48.39073" lon="7.29267">
        <ele>784</ele>
        <time>2020-09-06T11:50:30.269Z</time>
      </trkpt>
      <trkpt lat="48.39074" lon="7.29267">
        <ele>784</ele>
        <time>2020-09-06T11:50:31.269Z</time>
      </trkpt>
      <trkpt lat="48.39076" lon="7.29266">
        <ele>783</ele>
        <time>2020-09-06T11:50:32.269Z</time>
      </trkpt>
      <trkpt lat="48.39077" lon="7.29266">
        <ele>783</ele>
        <time>2020-09-06T11:50:33.269Z</time>
      </trkpt>
      <trkpt lat="48.39078" lon="7.29266">
        <ele>783</ele>
        <time>2020-09-06T11:50:34.269Z</time>
      </trkpt>
      <trkpt lat="48.39079" lon="7.29264">
        <ele>783</ele>
        <time>2020-09-06T11:50:35.269Z</time>
      </trkpt>
      <trkpt lat="48.3908" lon="7.29262">
        <ele>783</ele>
        <time>2020-09-06T11:50:36.269Z</time>
      </trkpt>
      <trkpt lat="48.39081" lon="7.29261">
        <ele>783</ele>
        <time>2020-09-06T11:50:37.269Z</time>
      </trkpt>
      <trkpt lat="48.39082" lon="7.2926">
        <ele>783</ele>
        <time>2020-09-06T11:50:38.269Z</time>
      </trkpt>
      <trkpt lat="48.39083" lon="7.2926">
        <ele>783</ele>
        <time>2020-09-06T11:50:39.269Z</time>
      </trkpt>
      <trkpt lat="48.39084" lon="7.2926">
        <ele>783</ele>
        <time>2020-09-06T11:50:40.269Z</time>
      </trkpt>
      <trkpt lat="48.39086" lon="7.29259">
        <ele>783</ele>
        <time>2020-09-06T11:50:41.269Z</time>
      </trkpt>
      <trkpt lat="48.39087" lon="7.29259">
        <ele>784</ele>
        <time>2020-09-06T11:50:42.269Z</time>
      </trkpt>
      <trkpt lat="48.39088" lon="7.29258">
        <ele>784</ele>
        <time>2020-09-06T11:50:43.269Z</time>
      </trkpt>
      <trkpt lat="48.39089" lon="7.29257">
        <ele>784</ele>
        <time>2020-09-06T11:50:44.269Z</time>
      </trkpt>
      <trkpt lat="48.3909" lon="7.29256">
        <ele>784</ele>
        <time>2020-09-06T11:50:45.269Z</time>
      </trkpt>
      <trkpt lat="48.39091" lon="7.29256">
        <ele>785</ele>
        <time>2020-09-06T11:50:46.269Z</time>
      </trkpt>
      <trkpt lat="48.39093" lon="7.29255">
        <ele>785</ele>
        <time>2020-09-06T11:50:47.269Z</time>
      </trkpt>
      <trkpt lat="48.39095" lon="7.29255">
        <ele>786</ele>
        <time>2020-09-06T11:50:48.269Z</time>
      </trkpt>
      <trkpt lat="48.39096" lon="7.29253">
        <ele>787</ele>
        <time>2020-09-06T11:50:49.269Z</time>
      </trkpt>
      <trkpt lat="48.39097" lon="7.29252">
        <ele>788</ele>
        <time>2020-09-06T11:50:50.269Z</time>
      </trkpt>
      <trkpt lat="48.39098" lon="7.29251">
        <ele>789</ele>
        <time>2020-09-06T11:50:51.269Z</time>
      </trkpt>
      <trkpt lat="48.39099" lon="7.2925">
        <ele>790</ele>
        <time>2020-09-06T11:50:52.269Z</time>
      </trkpt>
      <trkpt lat="48.391" lon="7.29249">
        <ele>791</ele>
        <time>2020-09-06T11:50:53.269Z</time>
      </trkpt>
      <trkpt lat="48.39101" lon="7.29249">
        <ele>792</ele>
        <time>2020-09-06T11:50:54.269Z</time>
      </trkpt>
      <trkpt lat="48.39103" lon="7.29249">
        <ele>792</ele>
        <time>2020-09-06T11:50:55.269Z</time>
      </trkpt>
      <trkpt lat="48.39104" lon="7.29249">
        <ele>793</ele>
        <time>2020-09-06T11:50:56.269Z</time>
      </trkpt>
      <trkpt lat="48.39105" lon="7.29248">
        <ele>793</ele>
        <time>2020-09-06T11:50:57.269Z</time>
      </trkpt>
      <trkpt lat="48.39106" lon="7.29248">
        <ele>793</ele>
        <time>2020-09-06T11:50:58.269Z</time>
      </trkpt>
      <trkpt lat="48.39107" lon="7.29247">
        <ele>794</ele>
        <time>2020-09-06T11:50:59.269Z</time>
      </trkpt>
      <trkpt lat="48.39108" lon="7.29246">
        <ele>794</ele>
        <time>2020-09-06T11:51:00.269Z</time>
      </trkpt>
      <trkpt lat="48.39109" lon="7.29245">
        <ele>794</ele>
        <time>2020-09-06T11:51:01.269Z</time>
      </trkpt>
      <trkpt lat="48.3911" lon="7.29244">
        <ele>794</ele>
        <time>2020-09-06T11:51:02.269Z</time>
      </trkpt>
      <trkpt lat="48.39111" lon="7.29243">
        <ele>794</ele>
        <time>2020-09-06T11:51:03.269Z</time>
      </trkpt>
      <trkpt lat="48.39113" lon="7.29243">
        <ele>794</ele>
        <time>2020-09-06T11:51:04.269Z</time>
      </trkpt>
      <trkpt lat="48.39114" lon="7.29243">
        <ele>794</ele>
        <time>2020-09-06T11:51:05.269Z</time>
      </trkpt>
      <trkpt lat="48.39116" lon="7.29243">
        <ele>794</ele>
        <time>2020-09-06T11:51:06.269Z</time>
      </trkpt>
      <trkpt lat="48.39117" lon="7.29242">
        <ele>794</ele>
        <time>2020-09-06T11:51:07.269Z</time>
      </trkpt>
      <trkpt lat="48.39118" lon="7.29242">
        <ele>794</ele>
        <time>2020-09-06T11:51:08.269Z</time>
      </trkpt>
      <trkpt lat="48.3912" lon="7.29241">
        <ele>793</ele>
        <time>2020-09-06T11:51:09.269Z</time>
      </trkpt>
      <trkpt lat="48.39122" lon="7.2924">
        <ele>793</ele>
        <time>2020-09-06T11:51:10.269Z</time>
      </trkpt>
      <trkpt lat="48.39123" lon="7.29239">
        <ele>794</ele>
        <time>2020-09-06T11:51:11.269Z</time>
      </trkpt>
      <trkpt lat="48.39124" lon="7.29238">
        <ele>794</ele>
        <time>2020-09-06T11:51:12.269Z</time>
      </trkpt>
      <trkpt lat="48.39125" lon="7.29237">
        <ele>794</ele>
        <time>2020-09-06T11:51:13.269Z</time>
      </trkpt>
      <trkpt lat="48.39126" lon="7.29236">
        <ele>794</ele>
        <time>2020-09-06T11:51:14.269Z</time>
      </trkpt>
      <trkpt lat="48.39127" lon="7.29235">
        <ele>795</ele>
        <time>2020-09-06T11:51:15.269Z</time>
      </trkpt>
      <trkpt lat="48.39128" lon="7.29234">
        <ele>795</ele>
        <time>2020-09-06T11:51:16.269Z</time>
      </trkpt>
      <trkpt lat="48.39128" lon="7.29233">
        <ele>795</ele>
        <time>2020-09-06T11:51:17.269Z</time>
      </trkpt>
      <trkpt lat="48.39129" lon="7.29231">
        <ele>796</ele>
        <time>2020-09-06T11:51:18.269Z</time>
      </trkpt>
      <trkpt lat="48.39129" lon="7.2923">
        <ele>796</ele>
        <time>2020-09-06T11:51:19.269Z</time>
      </trkpt>
      <trkpt lat="48.3913" lon="7.29228">
        <ele>796</ele>
        <time>2020-09-06T11:51:20.269Z</time>
      </trkpt>
      <trkpt lat="48.39132" lon="7.29226">
        <ele>796</ele>
        <time>2020-09-06T11:51:21.269Z</time>
      </trkpt>
      <trkpt lat="48.39132" lon="7.29223">
        <ele>796</ele>
        <time>2020-09-06T11:51:22.269Z</time>
      </trkpt>
      <trkpt lat="48.39133" lon="7.29221">
        <ele>796</ele>
        <time>2020-09-06T11:51:23.269Z</time>
      </trkpt>
      <trkpt lat="48.39134" lon="7.2922">
        <ele>796</ele>
        <time>2020-09-06T11:51:24.269Z</time>
      </trkpt>
      <trkpt lat="48.39134" lon="7.29218">
        <ele>796</ele>
        <time>2020-09-06T11:51:25.269Z</time>
      </trkpt>
      <trkpt lat="48.39135" lon="7.29215">
        <ele>796</ele>
        <time>2020-09-06T11:51:26.269Z</time>
      </trkpt>
      <trkpt lat="48.39136" lon="7.29212">
        <ele>796</ele>
        <time>2020-09-06T11:51:27.269Z</time>
      </trkpt>
      <trkpt lat="48.39137" lon="7.2921">
        <ele>797</ele>
        <time>2020-09-06T11:51:28.269Z</time>
      </trkpt>
      <trkpt lat="48.39137" lon="7.29209">
        <ele>796</ele>
        <time>2020-09-06T11:51:29.269Z</time>
      </trkpt>
      <trkpt lat="48.39138" lon="7.29208">
        <ele>796</ele>
        <time>2020-09-06T11:51:30.269Z</time>
      </trkpt>
      <trkpt lat="48.39138" lon="7.29206">
        <ele>796</ele>
        <time>2020-09-06T11:51:31.269Z</time>
      </trkpt>
      <trkpt lat="48.39139" lon="7.29204">
        <ele>796</ele>
        <time>2020-09-06T11:51:32.269Z</time>
      </trkpt>
      <trkpt lat="48.3914" lon="7.29203">
        <ele>795</ele>
        <time>2020-09-06T11:51:33.269Z</time>
      </trkpt>
      <trkpt lat="48.3914" lon="7.29202">
        <ele>794</ele>
        <time>2020-09-06T11:51:34.269Z</time>
      </trkpt>
      <trkpt lat="48.3914" lon="7.29202">
        <ele>793</ele>
        <time>2020-09-06T11:51:35.269Z</time>
      </trkpt>
      <trkpt lat="48.39139" lon="7.29202">
        <ele>792</ele>
        <time>2020-09-06T11:51:36.269Z</time>
      </trkpt>
      <trkpt lat="48.3914" lon="7.29201">
        <ele>791</ele>
        <time>2020-09-06T11:51:37.269Z</time>
      </trkpt>
      <trkpt lat="48.3914" lon="7.292">
        <ele>790</ele>
        <time>2020-09-06T11:51:38.269Z</time>
      </trkpt>
      <trkpt lat="48.3914" lon="7.29199">
        <ele>790</ele>
        <time>2020-09-06T11:51:39.269Z</time>
      </trkpt>
      <trkpt lat="48.39141" lon="7.29196">
        <ele>789</ele>
        <time>2020-09-06T11:51:40.269Z</time>
      </trkpt>
      <trkpt lat="48.3914" lon="7.29194">
        <ele>788</ele>
        <time>2020-09-06T11:51:41.269Z</time>
      </trkpt>
      <trkpt lat="48.3914" lon="7.29193">
        <ele>788</ele>
        <time>2020-09-06T11:51:42.269Z</time>
      </trkpt>
      <trkpt lat="48.3914" lon="7.29191">
        <ele>788</ele>
        <time>2020-09-06T11:51:43.269Z</time>
      </trkpt>
      <trkpt lat="48.3914" lon="7.29189">
        <ele>788</ele>
        <time>2020-09-06T11:51:44.269Z</time>
      </trkpt>
      <trkpt lat="48.39141" lon="7.29187">
        <ele>788</ele>
        <time>2020-09-06T11:51:45.269Z</time>
      </trkpt>
      <trkpt lat="48.39141" lon="7.29186">
        <ele>788</ele>
        <time>2020-09-06T11:51:46.269Z</time>
      </trkpt>
      <trkpt lat="48.39141" lon="7.29184">
        <ele>788</ele>
        <time>2020-09-06T11:51:47.269Z</time>
      </trkpt>
      <trkpt lat="48.39141" lon="7.29182">
        <ele>789</ele>
        <time>2020-09-06T11:51:48.269Z</time>
      </trkpt>
      <trkpt lat="48.39141" lon="7.2918">
        <ele>789</ele>
        <time>2020-09-06T11:51:49.269Z</time>
      </trkpt>
      <trkpt lat="48.39142" lon="7.29178">
        <ele>790</ele>
        <time>2020-09-06T11:51:50.269Z</time>
      </trkpt>
      <trkpt lat="48.39142" lon="7.29176">
        <ele>790</ele>
        <time>2020-09-06T11:51:51.269Z</time>
      </trkpt>
      <trkpt lat="48.39142" lon="7.29175">
        <ele>791</ele>
        <time>2020-09-06T11:51:52.269Z</time>
      </trkpt>
      <trkpt lat="48.39143" lon="7.29174">
        <ele>791</ele>
        <time>2020-09-06T11:51:53.269Z</time>
      </trkpt>
      <trkpt lat="48.39144" lon="7.29172">
        <ele>791</ele>
        <time>2020-09-06T11:51:54.269Z</time>
      </trkpt>
      <trkpt lat="48.39145" lon="7.2917">
        <ele>792</ele>
        <time>2020-09-06T11:51:55.269Z</time>
      </trkpt>
      <trkpt lat="48.39146" lon="7.29167">
        <ele>792</ele>
        <time>2020-09-06T11:51:56.269Z</time>
      </trkpt>
      <trkpt lat="48.39146" lon="7.29165">
        <ele>793</ele>
        <time>2020-09-06T11:51:57.269Z</time>
      </trkpt>
      <trkpt lat="48.39145" lon="7.29162">
        <ele>794</ele>
        <time>2020-09-06T11:51:58.269Z</time>
      </trkpt>
      <trkpt lat="48.39145" lon="7.29159">
        <ele>795</ele>
        <time>2020-09-06T11:51:59.269Z</time>
      </trkpt>
      <trkpt lat="48.39145" lon="7.29157">
        <ele>795</ele>
        <time>2020-09-06T11:52:00.269Z</time>
      </trkpt>
      <trkpt lat="48.39145" lon="7.29154">
        <ele>796</ele>
        <time>2020-09-06T11:52:01.269Z</time>
      </trkpt>
      <trkpt lat="48.39145" lon="7.29152">
        <ele>797</ele>
        <time>2020-09-06T11:52:02.269Z</time>
      </trkpt>
      <trkpt lat="48.39145" lon="7.2915">
        <ele>798</ele>
        <time>2020-09-06T11:52:03.269Z</time>
      </trkpt>
      <trkpt lat="48.39146" lon="7.29147">
        <ele>798</ele>
        <time>2020-09-06T11:52:04.269Z</time>
      </trkpt>
      <trkpt lat="48.39146" lon="7.29145">
        <ele>798</ele>
        <time>2020-09-06T11:52:05.269Z</time>
      </trkpt>
      <trkpt lat="48.39146" lon="7.29143">
        <ele>798</ele>
        <time>2020-09-06T11:52:06.269Z</time>
      </trkpt>
      <trkpt lat="48.39146" lon="7.29141">
        <ele>798</ele>
        <time>2020-09-06T11:52:07.269Z</time>
      </trkpt>
      <trkpt lat="48.39146" lon="7.29138">
        <ele>798</ele>
        <time>2020-09-06T11:52:08.269Z</time>
      </trkpt>
      <trkpt lat="48.39147" lon="7.29137">
        <ele>798</ele>
        <time>2020-09-06T11:52:09.269Z</time>
      </trkpt>
      <trkpt lat="48.39148" lon="7.29135">
        <ele>798</ele>
        <time>2020-09-06T11:52:10.269Z</time>
      </trkpt>
      <trkpt lat="48.39148" lon="7.29133">
        <ele>798</ele>
        <time>2020-09-06T11:52:11.269Z</time>
      </trkpt>
      <trkpt lat="48.39149" lon="7.29132">
        <ele>798</ele>
        <time>2020-09-06T11:52:12.269Z</time>
      </trkpt>
      <trkpt lat="48.3915" lon="7.2913">
        <ele>798</ele>
        <time>2020-09-06T11:52:13.269Z</time>
      </trkpt>
      <trkpt lat="48.3915" lon="7.29129">
        <ele>797</ele>
        <time>2020-09-06T11:52:14.269Z</time>
      </trkpt>
      <trkpt lat="48.3915" lon="7.29127">
        <ele>797</ele>
        <time>2020-09-06T11:52:15.269Z</time>
      </trkpt>
      <trkpt lat="48.39151" lon="7.29126">
        <ele>797</ele>
        <time>2020-09-06T11:52:16.269Z</time>
      </trkpt>
      <trkpt lat="48.39152" lon="7.29124">
        <ele>797</ele>
        <time>2020-09-06T11:52:17.269Z</time>
      </trkpt>
      <trkpt lat="48.39153" lon="7.29122">
        <ele>797</ele>
        <time>2020-09-06T11:52:18.269Z</time>
      </trkpt>
      <trkpt lat="48.39154" lon="7.29121">
        <ele>797</ele>
        <time>2020-09-06T11:52:19.269Z</time>
      </trkpt>
      <trkpt lat="48.39156" lon="7.29119">
        <ele>797</ele>
        <time>2020-09-06T11:52:20.269Z</time>
      </trkpt>
      <trkpt lat="48.39158" lon="7.29118">
        <ele>796</ele>
        <time>2020-09-06T11:52:21.269Z</time>
      </trkpt>
      <trkpt lat="48.39159" lon="7.29117">
        <ele>796</ele>
        <time>2020-09-06T11:52:22.269Z</time>
      </trkpt>
      <trkpt lat="48.39159" lon="7.29116">
        <ele>796</ele>
        <time>2020-09-06T11:52:23.269Z</time>
      </trkpt>
      <trkpt lat="48.39159" lon="7.29115">
        <ele>796</ele>
        <time>2020-09-06T11:52:24.269Z</time>
      </trkpt>
      <trkpt lat="48.39159" lon="7.29114">
        <ele>796</ele>
        <time>2020-09-06T11:52:25.269Z</time>
      </trkpt>
      <trkpt lat="48.3916" lon="7.29113">
        <ele>796</ele>
        <time>2020-09-06T11:52:26.269Z</time>
      </trkpt>
      <trkpt lat="48.3916" lon="7.29111">
        <ele>796</ele>
        <time>2020-09-06T11:52:27.269Z</time>
      </trkpt>
      <trkpt lat="48.3916" lon="7.29111">
        <ele>795</ele>
        <time>2020-09-06T11:52:28.269Z</time>
      </trkpt>
      <trkpt lat="48.39161" lon="7.2911">
        <ele>795</ele>
        <time>2020-09-06T11:52:29.269Z</time>
      </trkpt>
      <trkpt lat="48.39163" lon="7.29111">
        <ele>793</ele>
        <time>2020-09-06T11:52:30.269Z</time>
      </trkpt>
      <trkpt lat="48.39164" lon="7.29112">
        <ele>793</ele>
        <time>2020-09-06T11:52:31.270Z</time>
      </trkpt>
      <trkpt lat="48.39163" lon="7.29113">
        <ele>792</ele>
        <time>2020-09-06T11:52:32.269Z</time>
      </trkpt>
      <trkpt lat="48.39163" lon="7.29114">
        <ele>792</ele>
        <time>2020-09-06T11:52:33.270Z</time>
      </trkpt>
      <trkpt lat="48.39163" lon="7.29115">
        <ele>791</ele>
        <time>2020-09-06T11:52:34.270Z</time>
      </trkpt>
      <trkpt lat="48.39164" lon="7.29116">
        <ele>791</ele>
        <time>2020-09-06T11:52:35.270Z</time>
      </trkpt>
      <trkpt lat="48.39165" lon="7.29118">
        <ele>791</ele>
        <time>2020-09-06T11:52:36.270Z</time>
      </trkpt>
      <trkpt lat="48.39166" lon="7.29119">
        <ele>791</ele>
        <time>2020-09-06T11:52:37.270Z</time>
      </trkpt>
      <trkpt lat="48.39167" lon="7.2912">
        <ele>791</ele>
        <time>2020-09-06T11:52:38.270Z</time>
      </trkpt>
      <trkpt lat="48.39168" lon="7.29122">
        <ele>792</ele>
        <time>2020-09-06T11:52:39.270Z</time>
      </trkpt>
      <trkpt lat="48.39169" lon="7.29123">
        <ele>792</ele>
        <time>2020-09-06T11:52:40.269Z</time>
      </trkpt>
      <trkpt lat="48.3917" lon="7.29125">
        <ele>793</ele>
        <time>2020-09-06T11:52:41.270Z</time>
      </trkpt>
      <trkpt lat="48.39171" lon="7.29127">
        <ele>794</ele>
        <time>2020-09-06T11:52:42.270Z</time>
      </trkpt>
      <trkpt lat="48.39172" lon="7.29128">
        <ele>794</ele>
        <time>2020-09-06T11:52:43.270Z</time>
      </trkpt>
      <trkpt lat="48.39173" lon="7.29129">
        <ele>795</ele>
        <time>2020-09-06T11:52:44.269Z</time>
      </trkpt>
      <trkpt lat="48.39174" lon="7.29131">
        <ele>795</ele>
        <time>2020-09-06T11:52:45.270Z</time>
      </trkpt>
      <trkpt lat="48.39175" lon="7.29132">
        <ele>794</ele>
        <time>2020-09-06T11:52:46.269Z</time>
      </trkpt>
      <trkpt lat="48.39176" lon="7.29133">
        <ele>794</ele>
        <time>2020-09-06T11:52:47.269Z</time>
      </trkpt>
      <trkpt lat="48.39176" lon="7.29135">
        <ele>794</ele>
        <time>2020-09-06T11:52:48.270Z</time>
      </trkpt>
      <trkpt lat="48.39176" lon="7.29137">
        <ele>794</ele>
        <time>2020-09-06T11:52:49.269Z</time>
      </trkpt>
      <trkpt lat="48.39178" lon="7.29139">
        <ele>794</ele>
        <time>2020-09-06T11:52:50.270Z</time>
      </trkpt>
      <trkpt lat="48.39178" lon="7.2914">
        <ele>794</ele>
        <time>2020-09-06T11:52:51.270Z</time>
      </trkpt>
      <trkpt lat="48.39178" lon="7.29142">
        <ele>794</ele>
        <time>2020-09-06T11:52:52.270Z</time>
      </trkpt>
      <trkpt lat="48.39179" lon="7.29144">
        <ele>795</ele>
        <time>2020-09-06T11:52:53.269Z</time>
      </trkpt>
      <trkpt lat="48.3918" lon="7.29148">
        <ele>795</ele>
        <time>2020-09-06T11:52:54.270Z</time>
      </trkpt>
      <trkpt lat="48.3918" lon="7.2915">
        <ele>795</ele>
        <time>2020-09-06T11:52:55.270Z</time>
      </trkpt>
      <trkpt lat="48.39181" lon="7.29152">
        <ele>795</ele>
        <time>2020-09-06T11:52:56.270Z</time>
      </trkpt>
      <trkpt lat="48.39183" lon="7.29155">
        <ele>796</ele>
        <time>2020-09-06T11:52:57.269Z</time>
      </trkpt>
      <trkpt lat="48.39183" lon="7.29158">
        <ele>796</ele>
        <time>2020-09-06T11:52:58.270Z</time>
      </trkpt>
      <trkpt lat="48.39183" lon="7.2916">
        <ele>797</ele>
        <time>2020-09-06T11:52:59.269Z</time>
      </trkpt>
      <trkpt lat="48.39183" lon="7.29163">
        <ele>797</ele>
        <time>2020-09-06T11:53:00.270Z</time>
      </trkpt>
      <trkpt lat="48.39183" lon="7.29166">
        <ele>797</ele>
        <time>2020-09-06T11:53:01.270Z</time>
      </trkpt>
      <trkpt lat="48.39184" lon="7.29169">
        <ele>797</ele>
        <time>2020-09-06T11:53:02.270Z</time>
      </trkpt>
      <trkpt lat="48.39185" lon="7.29173">
        <ele>798</ele>
        <time>2020-09-06T11:53:03.270Z</time>
      </trkpt>
      <trkpt lat="48.39186" lon="7.29175">
        <ele>798</ele>
        <time>2020-09-06T11:53:04.270Z</time>
      </trkpt>
      <trkpt lat="48.39186" lon="7.29178">
        <ele>798</ele>
        <time>2020-09-06T11:53:05.270Z</time>
      </trkpt>
      <trkpt lat="48.39186" lon="7.2918">
        <ele>798</ele>
        <time>2020-09-06T11:53:06.270Z</time>
      </trkpt>
      <trkpt lat="48.39186" lon="7.29182">
        <ele>798</ele>
        <time>2020-09-06T11:53:07.270Z</time>
      </trkpt>
      <trkpt lat="48.39187" lon="7.29182">
        <ele>798</ele>
        <time>2020-09-06T11:53:08.270Z</time>
      </trkpt>
      <trkpt lat="48.39187" lon="7.29184">
        <ele>798</ele>
        <time>2020-09-06T11:53:09.270Z</time>
      </trkpt>
      <trkpt lat="48.39188" lon="7.29186">
        <ele>798</ele>
        <time>2020-09-06T11:53:10.270Z</time>
      </trkpt>
      <trkpt lat="48.39189" lon="7.29187">
        <ele>798</ele>
        <time>2020-09-06T11:53:11.270Z</time>
      </trkpt>
      <trkpt lat="48.3919" lon="7.29189">
        <ele>798</ele>
        <time>2020-09-06T11:53:12.269Z</time>
      </trkpt>
      <trkpt lat="48.3919" lon="7.2919">
        <ele>798</ele>
        <time>2020-09-06T11:53:13.270Z</time>
      </trkpt>
      <trkpt lat="48.39191" lon="7.29191">
        <ele>798</ele>
        <time>2020-09-06T11:53:14.269Z</time>
      </trkpt>
      <trkpt lat="48.39191" lon="7.29192">
        <ele>798</ele>
        <time>2020-09-06T11:53:15.269Z</time>
      </trkpt>
      <trkpt lat="48.39191" lon="7.29193">
        <ele>797</ele>
        <time>2020-09-06T11:53:16.269Z</time>
      </trkpt>
      <trkpt lat="48.39191" lon="7.29195">
        <ele>797</ele>
        <time>2020-09-06T11:53:17.270Z</time>
      </trkpt>
      <trkpt lat="48.39192" lon="7.29197">
        <ele>796</ele>
        <time>2020-09-06T11:53:18.270Z</time>
      </trkpt>
      <trkpt lat="48.39192" lon="7.29198">
        <ele>796</ele>
        <time>2020-09-06T11:53:19.269Z</time>
      </trkpt>
      <trkpt lat="48.39192" lon="7.292">
        <ele>795</ele>
        <time>2020-09-06T11:53:20.269Z</time>
      </trkpt>
      <trkpt lat="48.39192" lon="7.29202">
        <ele>794</ele>
        <time>2020-09-06T11:53:21.269Z</time>
      </trkpt>
      <trkpt lat="48.39192" lon="7.29204">
        <ele>793</ele>
        <time>2020-09-06T11:53:22.270Z</time>
      </trkpt>
      <trkpt lat="48.39192" lon="7.29206">
        <ele>792</ele>
        <time>2020-09-06T11:53:23.270Z</time>
      </trkpt>
      <trkpt lat="48.39193" lon="7.29208">
        <ele>792</ele>
        <time>2020-09-06T11:53:24.270Z</time>
      </trkpt>
      <trkpt lat="48.39193" lon="7.2921">
        <ele>791</ele>
        <time>2020-09-06T11:53:25.269Z</time>
      </trkpt>
      <trkpt lat="48.39194" lon="7.29211">
        <ele>790</ele>
        <time>2020-09-06T11:53:26.270Z</time>
      </trkpt>
      <trkpt lat="48.39194" lon="7.29213">
        <ele>789</ele>
        <time>2020-09-06T11:53:27.269Z</time>
      </trkpt>
      <trkpt lat="48.39195" lon="7.29215">
        <ele>789</ele>
        <time>2020-09-06T11:53:28.270Z</time>
      </trkpt>
      <trkpt lat="48.39195" lon="7.29217">
        <ele>788</ele>
        <time>2020-09-06T11:53:29.270Z</time>
      </trkpt>
      <trkpt lat="48.39196" lon="7.29219">
        <ele>788</ele>
        <time>2020-09-06T11:53:30.270Z</time>
      </trkpt>
      <trkpt lat="48.39197" lon="7.29221">
        <ele>788</ele>
        <time>2020-09-06T11:53:31.269Z</time>
      </trkpt>
      <trkpt lat="48.39197" lon="7.29223">
        <ele>788</ele>
        <time>2020-09-06T11:53:32.270Z</time>
      </trkpt>
      <trkpt lat="48.39198" lon="7.29224">
        <ele>788</ele>
        <time>2020-09-06T11:53:33.270Z</time>
      </trkpt>
      <trkpt lat="48.39198" lon="7.29226">
        <ele>787</ele>
        <time>2020-09-06T11:53:34.269Z</time>
      </trkpt>
      <trkpt lat="48.392" lon="7.29228">
        <ele>786</ele>
        <time>2020-09-06T11:53:35.269Z</time>
      </trkpt>
      <trkpt lat="48.39201" lon="7.2923">
        <ele>785</ele>
        <time>2020-09-06T11:53:36.270Z</time>
      </trkpt>
      <trkpt lat="48.39201" lon="7.29231">
        <ele>784</ele>
        <time>2020-09-06T11:53:37.269Z</time>
      </trkpt>
      <trkpt lat="48.39201" lon="7.29232">
        <ele>784</ele>
        <time>2020-09-06T11:53:38.269Z</time>
      </trkpt>
      <trkpt lat="48.39201" lon="7.29234">
        <ele>783</ele>
        <time>2020-09-06T11:53:39.270Z</time>
      </trkpt>
      <trkpt lat="48.39202" lon="7.29236">
        <ele>782</ele>
        <time>2020-09-06T11:53:40.270Z</time>
      </trkpt>
      <trkpt lat="48.39202" lon="7.29238">
        <ele>781</ele>
        <time>2020-09-06T11:53:41.269Z</time>
      </trkpt>
      <trkpt lat="48.39202" lon="7.2924">
        <ele>781</ele>
        <time>2020-09-06T11:53:42.270Z</time>
      </trkpt>
      <trkpt lat="48.39202" lon="7.29243">
        <ele>781</ele>
        <time>2020-09-06T11:53:43.270Z</time>
      </trkpt>
      <trkpt lat="48.39203" lon="7.29244">
        <ele>781</ele>
        <time>2020-09-06T11:53:44.270Z</time>
      </trkpt>
      <trkpt lat="48.39203" lon="7.29247">
        <ele>782</ele>
        <time>2020-09-06T11:53:45.270Z</time>
      </trkpt>
      <trkpt lat="48.39205" lon="7.2925">
        <ele>782</ele>
        <time>2020-09-06T11:53:46.269Z</time>
      </trkpt>
      <trkpt lat="48.39205" lon="7.29252">
        <ele>783</ele>
        <time>2020-09-06T11:53:47.270Z</time>
      </trkpt>
      <trkpt lat="48.39206" lon="7.29254">
        <ele>783</ele>
        <time>2020-09-06T11:53:48.269Z</time>
      </trkpt>
      <trkpt lat="48.39207" lon="7.29256">
        <ele>784</ele>
        <time>2020-09-06T11:53:49.269Z</time>
      </trkpt>
      <trkpt lat="48.39207" lon="7.29257">
        <ele>785</ele>
        <time>2020-09-06T11:53:50.270Z</time>
      </trkpt>
      <trkpt lat="48.39208" lon="7.29259">
        <ele>786</ele>
        <time>2020-09-06T11:53:51.269Z</time>
      </trkpt>
      <trkpt lat="48.39207" lon="7.29261">
        <ele>787</ele>
        <time>2020-09-06T11:53:52.270Z</time>
      </trkpt>
      <trkpt lat="48.39207" lon="7.29263">
        <ele>787</ele>
        <time>2020-09-06T11:53:53.269Z</time>
      </trkpt>
      <trkpt lat="48.39207" lon="7.29265">
        <ele>787</ele>
        <time>2020-09-06T11:53:54.269Z</time>
      </trkpt>
      <trkpt lat="48.39208" lon="7.29266">
        <ele>788</ele>
        <time>2020-09-06T11:53:55.270Z</time>
      </trkpt>
      <trkpt lat="48.39209" lon="7.29267">
        <ele>788</ele>
        <time>2020-09-06T11:53:56.269Z</time>
      </trkpt>
      <trkpt lat="48.39209" lon="7.29268">
        <ele>788</ele>
        <time>2020-09-06T11:53:57.270Z</time>
      </trkpt>
      <trkpt lat="48.3921" lon="7.2927">
        <ele>788</ele>
        <time>2020-09-06T11:53:58.269Z</time>
      </trkpt>
      <trkpt lat="48.39211" lon="7.29271">
        <ele>788</ele>
        <time>2020-09-06T11:53:59.270Z</time>
      </trkpt>
      <trkpt lat="48.39211" lon="7.29272">
        <ele>788</ele>
        <time>2020-09-06T11:54:00.270Z</time>
      </trkpt>
      <trkpt lat="48.39212" lon="7.29273">
        <ele>789</ele>
        <time>2020-09-06T11:54:01.270Z</time>
      </trkpt>
      <trkpt lat="48.39214" lon="7.29274">
        <ele>789</ele>
        <time>2020-09-06T11:54:02.270Z</time>
      </trkpt>
      <trkpt lat="48.39215" lon="7.29275">
        <ele>789</ele>
        <time>2020-09-06T11:54:03.270Z</time>
      </trkpt>
      <trkpt lat="48.39216" lon="7.29277">
        <ele>789</ele>
        <time>2020-09-06T11:54:04.270Z</time>
      </trkpt>
      <trkpt lat="48.39217" lon="7.29278">
        <ele>789</ele>
        <time>2020-09-06T11:54:05.270Z</time>
      </trkpt>
      <trkpt lat="48.39217" lon="7.29279">
        <ele>789</ele>
        <time>2020-09-06T11:54:06.270Z</time>
      </trkpt>
      <trkpt lat="48.39218" lon="7.29281">
        <ele>789</ele>
        <time>2020-09-06T11:54:07.269Z</time>
      </trkpt>
      <trkpt lat="48.39218" lon="7.29282">
        <ele>789</ele>
        <time>2020-09-06T11:54:08.270Z</time>
      </trkpt>
      <trkpt lat="48.39219" lon="7.29284">
        <ele>790</ele>
        <time>2020-09-06T11:54:09.270Z</time>
      </trkpt>
      <trkpt lat="48.39219" lon="7.29286">
        <ele>790</ele>
        <time>2020-09-06T11:54:10.270Z</time>
      </trkpt>
      <trkpt lat="48.3922" lon="7.29287">
        <ele>790</ele>
        <time>2020-09-06T11:54:11.270Z</time>
      </trkpt>
      <trkpt lat="48.3922" lon="7.29289">
        <ele>791</ele>
        <time>2020-09-06T11:54:12.269Z</time>
      </trkpt>
      <trkpt lat="48.39221" lon="7.29291">
        <ele>791</ele>
        <time>2020-09-06T11:54:13.269Z</time>
      </trkpt>
      <trkpt lat="48.39222" lon="7.29293">
        <ele>791</ele>
        <time>2020-09-06T11:54:14.270Z</time>
      </trkpt>
      <trkpt lat="48.39223" lon="7.29294">
        <ele>792</ele>
        <time>2020-09-06T11:54:15.269Z</time>
      </trkpt>
      <trkpt lat="48.39223" lon="7.29295">
        <ele>792</ele>
        <time>2020-09-06T11:54:16.270Z</time>
      </trkpt>
      <trkpt lat="48.39224" lon="7.29296">
        <ele>792</ele>
        <time>2020-09-06T11:54:17.270Z</time>
      </trkpt>
      <trkpt lat="48.39224" lon="7.29296">
        <ele>792</ele>
        <time>2020-09-06T11:54:18.270Z</time>
      </trkpt>
      <trkpt lat="48.39224" lon="7.29297">
        <ele>792</ele>
        <time>2020-09-06T11:54:19.269Z</time>
      </trkpt>
      <trkpt lat="48.39225" lon="7.29298">
        <ele>792</ele>
        <time>2020-09-06T11:54:20.270Z</time>
      </trkpt>
      <trkpt lat="48.39226" lon="7.293">
        <ele>792</ele>
        <time>2020-09-06T11:54:21.270Z</time>
      </trkpt>
      <trkpt lat="48.39227" lon="7.29303">
        <ele>792</ele>
        <time>2020-09-06T11:54:22.270Z</time>
      </trkpt>
      <trkpt lat="48.39227" lon="7.29305">
        <ele>792</ele>
        <time>2020-09-06T11:54:23.269Z</time>
      </trkpt>
      <trkpt lat="48.39228" lon="7.29306">
        <ele>792</ele>
        <time>2020-09-06T11:54:24.270Z</time>
      </trkpt>
      <trkpt lat="48.39228" lon="7.29307">
        <ele>793</ele>
        <time>2020-09-06T11:54:25.269Z</time>
      </trkpt>
      <trkpt lat="48.39228" lon="7.29308">
        <ele>793</ele>
        <time>2020-09-06T11:54:26.270Z</time>
      </trkpt>
      <trkpt lat="48.39229" lon="7.2931">
        <ele>794</ele>
        <time>2020-09-06T11:54:27.269Z</time>
      </trkpt>
      <trkpt lat="48.3923" lon="7.29311">
        <ele>795</ele>
        <time>2020-09-06T11:54:28.270Z</time>
      </trkpt>
      <trkpt lat="48.3923" lon="7.29311">
        <ele>796</ele>
        <time>2020-09-06T11:54:29.270Z</time>
      </trkpt>
      <trkpt lat="48.39231" lon="7.29313">
        <ele>797</ele>
        <time>2020-09-06T11:54:30.269Z</time>
      </trkpt>
      <trkpt lat="48.39232" lon="7.29314">
        <ele>798</ele>
        <time>2020-09-06T11:54:31.270Z</time>
      </trkpt>
      <trkpt lat="48.39233" lon="7.29316">
        <ele>798</ele>
        <time>2020-09-06T11:54:32.270Z</time>
      </trkpt>
      <trkpt lat="48.39233" lon="7.29318">
        <ele>799</ele>
        <time>2020-09-06T11:54:33.270Z</time>
      </trkpt>
      <trkpt lat="48.39234" lon="7.2932">
        <ele>799</ele>
        <time>2020-09-06T11:54:34.270Z</time>
      </trkpt>
      <trkpt lat="48.39235" lon="7.29321">
        <ele>800</ele>
        <time>2020-09-06T11:54:35.270Z</time>
      </trkpt>
      <trkpt lat="48.39236" lon="7.29323">
        <ele>800</ele>
        <time>2020-09-06T11:54:36.270Z</time>
      </trkpt>
      <trkpt lat="48.39237" lon="7.29325">
        <ele>801</ele>
        <time>2020-09-06T11:54:37.270Z</time>
      </trkpt>
      <trkpt lat="48.39238" lon="7.29327">
        <ele>801</ele>
        <time>2020-09-06T11:54:38.270Z</time>
      </trkpt>
      <trkpt lat="48.39239" lon="7.29329">
        <ele>802</ele>
        <time>2020-09-06T11:54:39.270Z</time>
      </trkpt>
      <trkpt lat="48.3924" lon="7.2933">
        <ele>802</ele>
        <time>2020-09-06T11:54:40.270Z</time>
      </trkpt>
      <trkpt lat="48.3924" lon="7.29332">
        <ele>802</ele>
        <time>2020-09-06T11:54:41.270Z</time>
      </trkpt>
      <trkpt lat="48.39242" lon="7.29333">
        <ele>802</ele>
        <time>2020-09-06T11:54:42.270Z</time>
      </trkpt>
      <trkpt lat="48.39243" lon="7.29334">
        <ele>803</ele>
        <time>2020-09-06T11:54:43.269Z</time>
      </trkpt>
      <trkpt lat="48.39244" lon="7.29335">
        <ele>803</ele>
        <time>2020-09-06T11:54:44.270Z</time>
      </trkpt>
      <trkpt lat="48.39244" lon="7.29337">
        <ele>803</ele>
        <time>2020-09-06T11:54:45.270Z</time>
      </trkpt>
      <trkpt lat="48.39245" lon="7.29339">
        <ele>804</ele>
        <time>2020-09-06T11:54:46.270Z</time>
      </trkpt>
      <trkpt lat="48.39245" lon="7.29341">
        <ele>804</ele>
        <time>2020-09-06T11:54:47.270Z</time>
      </trkpt>
      <trkpt lat="48.39246" lon="7.29342">
        <ele>804</ele>
        <time>2020-09-06T11:54:48.270Z</time>
      </trkpt>
      <trkpt lat="48.39247" lon="7.29343">
        <ele>804</ele>
        <time>2020-09-06T11:54:49.269Z</time>
      </trkpt>
      <trkpt lat="48.39248" lon="7.29345">
        <ele>804</ele>
        <time>2020-09-06T11:54:50.270Z</time>
      </trkpt>
      <trkpt lat="48.39248" lon="7.29347">
        <ele>804</ele>
        <time>2020-09-06T11:54:51.270Z</time>
      </trkpt>
      <trkpt lat="48.39249" lon="7.29349">
        <ele>804</ele>
        <time>2020-09-06T11:54:52.270Z</time>
      </trkpt>
      <trkpt lat="48.39249" lon="7.29351">
        <ele>804</ele>
        <time>2020-09-06T11:54:53.269Z</time>
      </trkpt>
      <trkpt lat="48.3925" lon="7.29353">
        <ele>804</ele>
        <time>2020-09-06T11:54:54.269Z</time>
      </trkpt>
      <trkpt lat="48.39251" lon="7.29354">
        <ele>804</ele>
        <time>2020-09-06T11:54:55.270Z</time>
      </trkpt>
      <trkpt lat="48.39252" lon="7.29356">
        <ele>804</ele>
        <time>2020-09-06T11:54:56.270Z</time>
      </trkpt>
      <trkpt lat="48.39252" lon="7.29358">
        <ele>804</ele>
        <time>2020-09-06T11:54:57.270Z</time>
      </trkpt>
      <trkpt lat="48.39253" lon="7.29361">
        <ele>804</ele>
        <time>2020-09-06T11:54:58.270Z</time>
      </trkpt>
      <trkpt lat="48.39255" lon="7.29363">
        <ele>804</ele>
        <time>2020-09-06T11:54:59.269Z</time>
      </trkpt>
      <trkpt lat="48.39256" lon="7.29366">
        <ele>804</ele>
        <time>2020-09-06T11:55:00.270Z</time>
      </trkpt>
      <trkpt lat="48.39257" lon="7.29368">
        <ele>804</ele>
        <time>2020-09-06T11:55:01.270Z</time>
      </trkpt>
      <trkpt lat="48.39257" lon="7.29369">
        <ele>804</ele>
        <time>2020-09-06T11:55:02.270Z</time>
      </trkpt>
      <trkpt lat="48.39257" lon="7.29371">
        <ele>804</ele>
        <time>2020-09-06T11:55:03.270Z</time>
      </trkpt>
      <trkpt lat="48.39257" lon="7.29371">
        <ele>804</ele>
        <time>2020-09-06T11:55:04.269Z</time>
      </trkpt>
      <trkpt lat="48.39258" lon="7.29373">
        <ele>804</ele>
        <time>2020-09-06T11:55:05.270Z</time>
      </trkpt>
      <trkpt lat="48.39259" lon="7.29374">
        <ele>803</ele>
        <time>2020-09-06T11:55:06.269Z</time>
      </trkpt>
      <trkpt lat="48.39261" lon="7.29375">
        <ele>803</ele>
        <time>2020-09-06T11:55:07.269Z</time>
      </trkpt>
      <trkpt lat="48.39261" lon="7.29376">
        <ele>803</ele>
        <time>2020-09-06T11:55:08.269Z</time>
      </trkpt>
      <trkpt lat="48.39262" lon="7.29376">
        <ele>803</ele>
        <time>2020-09-06T11:55:09.270Z</time>
      </trkpt>
      <trkpt lat="48.39262" lon="7.29377">
        <ele>803</ele>
        <time>2020-09-06T11:55:10.270Z</time>
      </trkpt>
      <trkpt lat="48.39263" lon="7.29379">
        <ele>803</ele>
        <time>2020-09-06T11:55:11.270Z</time>
      </trkpt>
      <trkpt lat="48.39263" lon="7.2938">
        <ele>803</ele>
        <time>2020-09-06T11:55:12.270Z</time>
      </trkpt>
      <trkpt lat="48.39264" lon="7.2938">
        <ele>803</ele>
        <time>2020-09-06T11:55:13.269Z</time>
      </trkpt>
      <trkpt lat="48.39264" lon="7.29382">
        <ele>803</ele>
        <time>2020-09-06T11:55:14.270Z</time>
      </trkpt>
      <trkpt lat="48.39265" lon="7.29383">
        <ele>803</ele>
        <time>2020-09-06T11:55:15.270Z</time>
      </trkpt>
      <trkpt lat="48.39266" lon="7.29385">
        <ele>802</ele>
        <time>2020-09-06T11:55:16.270Z</time>
      </trkpt>
      <trkpt lat="48.39267" lon="7.29385">
        <ele>801</ele>
        <time>2020-09-06T11:55:17.270Z</time>
      </trkpt>
      <trkpt lat="48.39268" lon="7.29386">
        <ele>800</ele>
        <time>2020-09-06T11:55:18.269Z</time>
      </trkpt>
      <trkpt lat="48.39268" lon="7.29389">
        <ele>799</ele>
        <time>2020-09-06T11:55:19.269Z</time>
      </trkpt>
      <trkpt lat="48.39268" lon="7.2939">
        <ele>798</ele>
        <time>2020-09-06T11:55:20.270Z</time>
      </trkpt>
      <trkpt lat="48.39268" lon="7.29391">
        <ele>797</ele>
        <time>2020-09-06T11:55:21.270Z</time>
      </trkpt>
      <trkpt lat="48.39269" lon="7.29392">
        <ele>796</ele>
        <time>2020-09-06T11:55:22.270Z</time>
      </trkpt>
      <trkpt lat="48.3927" lon="7.29392">
        <ele>796</ele>
        <time>2020-09-06T11:55:23.270Z</time>
      </trkpt>
      <trkpt lat="48.3927" lon="7.29393">
        <ele>796</ele>
        <time>2020-09-06T11:55:24.270Z</time>
      </trkpt>
      <trkpt lat="48.39271" lon="7.29394">
        <ele>796</ele>
        <time>2020-09-06T11:55:25.270Z</time>
      </trkpt>
      <trkpt lat="48.39272" lon="7.29395">
        <ele>796</ele>
        <time>2020-09-06T11:55:26.270Z</time>
      </trkpt>
      <trkpt lat="48.39272" lon="7.29397">
        <ele>796</ele>
        <time>2020-09-06T11:55:27.270Z</time>
      </trkpt>
      <trkpt lat="48.39273" lon="7.29397">
        <ele>797</ele>
        <time>2020-09-06T11:55:28.269Z</time>
      </trkpt>
      <trkpt lat="48.39274" lon="7.29398">
        <ele>797</ele>
        <time>2020-09-06T11:55:29.270Z</time>
      </trkpt>
      <trkpt lat="48.39274" lon="7.29399">
        <ele>798</ele>
        <time>2020-09-06T11:55:30.269Z</time>
      </trkpt>
      <trkpt lat="48.39275" lon="7.294">
        <ele>798</ele>
        <time>2020-09-06T11:55:31.269Z</time>
      </trkpt>
      <trkpt lat="48.39275" lon="7.294">
        <ele>799</ele>
        <time>2020-09-06T11:55:32.270Z</time>
      </trkpt>
      <trkpt lat="48.39276" lon="7.29401">
        <ele>799</ele>
        <time>2020-09-06T11:55:33.269Z</time>
      </trkpt>
      <trkpt lat="48.39277" lon="7.29401">
        <ele>800</ele>
        <time>2020-09-06T11:55:34.269Z</time>
      </trkpt>
      <trkpt lat="48.39278" lon="7.29402">
        <ele>801</ele>
        <time>2020-09-06T11:55:35.270Z</time>
      </trkpt>
      <trkpt lat="48.39279" lon="7.29403">
        <ele>802</ele>
        <time>2020-09-06T11:55:36.269Z</time>
      </trkpt>
      <trkpt lat="48.3928" lon="7.29404">
        <ele>802</ele>
        <time>2020-09-06T11:55:37.270Z</time>
      </trkpt>
      <trkpt lat="48.39281" lon="7.29405">
        <ele>802</ele>
        <time>2020-09-06T11:55:38.269Z</time>
      </trkpt>
      <trkpt lat="48.39281" lon="7.29407">
        <ele>802</ele>
        <time>2020-09-06T11:55:39.270Z</time>
      </trkpt>
      <trkpt lat="48.39282" lon="7.29408">
        <ele>803</ele>
        <time>2020-09-06T11:55:40.270Z</time>
      </trkpt>
      <trkpt lat="48.39283" lon="7.29409">
        <ele>803</ele>
        <time>2020-09-06T11:55:41.269Z</time>
      </trkpt>
      <trkpt lat="48.39284" lon="7.29411">
        <ele>803</ele>
        <time>2020-09-06T11:55:42.270Z</time>
      </trkpt>
      <trkpt lat="48.39286" lon="7.29412">
        <ele>803</ele>
        <time>2020-09-06T11:55:43.269Z</time>
      </trkpt>
      <trkpt lat="48.39287" lon="7.29413">
        <ele>804</ele>
        <time>2020-09-06T11:55:44.269Z</time>
      </trkpt>
      <trkpt lat="48.39287" lon="7.29415">
        <ele>804</ele>
        <time>2020-09-06T11:55:45.270Z</time>
      </trkpt>
      <trkpt lat="48.39289" lon="7.29417">
        <ele>804</ele>
        <time>2020-09-06T11:55:46.270Z</time>
      </trkpt>
      <trkpt lat="48.3929" lon="7.29418">
        <ele>803</ele>
        <time>2020-09-06T11:55:47.270Z</time>
      </trkpt>
      <trkpt lat="48.39292" lon="7.29419">
        <ele>803</ele>
        <time>2020-09-06T11:55:48.269Z</time>
      </trkpt>
      <trkpt lat="48.39293" lon="7.29421">
        <ele>803</ele>
        <time>2020-09-06T11:55:49.269Z</time>
      </trkpt>
      <trkpt lat="48.39294" lon="7.29421">
        <ele>803</ele>
        <time>2020-09-06T11:55:50.270Z</time>
      </trkpt>
      <trkpt lat="48.39295" lon="7.29422">
        <ele>803</ele>
        <time>2020-09-06T11:55:51.270Z</time>
      </trkpt>
      <trkpt lat="48.39296" lon="7.29422">
        <ele>802</ele>
        <time>2020-09-06T11:55:52.270Z</time>
      </trkpt>
      <trkpt lat="48.39298" lon="7.29423">
        <ele>802</ele>
        <time>2020-09-06T11:55:53.270Z</time>
      </trkpt>
      <trkpt lat="48.39299" lon="7.29425">
        <ele>802</ele>
        <time>2020-09-06T11:55:54.269Z</time>
      </trkpt>
      <trkpt lat="48.393" lon="7.29427">
        <ele>801</ele>
        <time>2020-09-06T11:55:55.270Z</time>
      </trkpt>
      <trkpt lat="48.39302" lon="7.29428">
        <ele>800</ele>
        <time>2020-09-06T11:55:56.270Z</time>
      </trkpt>
      <trkpt lat="48.39303" lon="7.29429">
        <ele>800</ele>
        <time>2020-09-06T11:55:57.269Z</time>
      </trkpt>
      <trkpt lat="48.39305" lon="7.2943">
        <ele>799</ele>
        <time>2020-09-06T11:55:58.270Z</time>
      </trkpt>
      <trkpt lat="48.39306" lon="7.29431">
        <ele>799</ele>
        <time>2020-09-06T11:55:59.269Z</time>
      </trkpt>
      <trkpt lat="48.39307" lon="7.29432">
        <ele>798</ele>
        <time>2020-09-06T11:56:00.269Z</time>
      </trkpt>
      <trkpt lat="48.39308" lon="7.29434">
        <ele>798</ele>
        <time>2020-09-06T11:56:01.269Z</time>
      </trkpt>
      <trkpt lat="48.39308" lon="7.29435">
        <ele>798</ele>
        <time>2020-09-06T11:56:02.270Z</time>
      </trkpt>
      <trkpt lat="48.39309" lon="7.29436">
        <ele>798</ele>
        <time>2020-09-06T11:56:03.269Z</time>
      </trkpt>
      <trkpt lat="48.3931" lon="7.29438">
        <ele>798</ele>
        <time>2020-09-06T11:56:04.269Z</time>
      </trkpt>
      <trkpt lat="48.39311" lon="7.29439">
        <ele>798</ele>
        <time>2020-09-06T11:56:05.269Z</time>
      </trkpt>
      <trkpt lat="48.39312" lon="7.2944">
        <ele>798</ele>
        <time>2020-09-06T11:56:06.270Z</time>
      </trkpt>
      <trkpt lat="48.39313" lon="7.2944">
        <ele>798</ele>
        <time>2020-09-06T11:56:07.269Z</time>
      </trkpt>
      <trkpt lat="48.39314" lon="7.29441">
        <ele>798</ele>
        <time>2020-09-06T11:56:08.269Z</time>
      </trkpt>
      <trkpt lat="48.39315" lon="7.29443">
        <ele>798</ele>
        <time>2020-09-06T11:56:09.269Z</time>
      </trkpt>
      <trkpt lat="48.39317" lon="7.29445">
        <ele>798</ele>
        <time>2020-09-06T11:56:10.270Z</time>
      </trkpt>
      <trkpt lat="48.39318" lon="7.29446">
        <ele>798</ele>
        <time>2020-09-06T11:56:11.270Z</time>
      </trkpt>
      <trkpt lat="48.39319" lon="7.29447">
        <ele>797</ele>
        <time>2020-09-06T11:56:12.269Z</time>
      </trkpt>
      <trkpt lat="48.3932" lon="7.29447">
        <ele>797</ele>
        <time>2020-09-06T11:56:13.269Z</time>
      </trkpt>
      <trkpt lat="48.39321" lon="7.29448">
        <ele>796</ele>
        <time>2020-09-06T11:56:14.269Z</time>
      </trkpt>
      <trkpt lat="48.39323" lon="7.29449">
        <ele>796</ele>
        <time>2020-09-06T11:56:15.270Z</time>
      </trkpt>
      <trkpt lat="48.39325" lon="7.29451">
        <ele>796</ele>
        <time>2020-09-06T11:56:16.270Z</time>
      </trkpt>
      <trkpt lat="48.39327" lon="7.29453">
        <ele>796</ele>
        <time>2020-09-06T11:56:17.269Z</time>
      </trkpt>
      <trkpt lat="48.39328" lon="7.29455">
        <ele>797</ele>
        <time>2020-09-06T11:56:18.270Z</time>
      </trkpt>
      <trkpt lat="48.39329" lon="7.29457">
        <ele>796</ele>
        <time>2020-09-06T11:56:19.270Z</time>
      </trkpt>
      <trkpt lat="48.3933" lon="7.29458">
        <ele>796</ele>
        <time>2020-09-06T11:56:20.270Z</time>
      </trkpt>
      <trkpt lat="48.39331" lon="7.29459">
        <ele>796</ele>
        <time>2020-09-06T11:56:21.270Z</time>
      </trkpt>
      <trkpt lat="48.39331" lon="7.29459">
        <ele>797</ele>
        <time>2020-09-06T11:56:22.269Z</time>
      </trkpt>
      <trkpt lat="48.39332" lon="7.2946">
        <ele>797</ele>
        <time>2020-09-06T11:56:23.269Z</time>
      </trkpt>
      <trkpt lat="48.39332" lon="7.29462">
        <ele>797</ele>
        <time>2020-09-06T11:56:24.269Z</time>
      </trkpt>
      <trkpt lat="48.39332" lon="7.29463">
        <ele>798</ele>
        <time>2020-09-06T11:56:25.270Z</time>
      </trkpt>
      <trkpt lat="48.39333" lon="7.29464">
        <ele>798</ele>
        <time>2020-09-06T11:56:26.270Z</time>
      </trkpt>
      <trkpt lat="48.39333" lon="7.29465">
        <ele>799</ele>
        <time>2020-09-06T11:56:27.269Z</time>
      </trkpt>
      <trkpt lat="48.39334" lon="7.29466">
        <ele>799</ele>
        <time>2020-09-06T11:56:28.269Z</time>
      </trkpt>
      <trkpt lat="48.39335" lon="7.29467">
        <ele>799</ele>
        <time>2020-09-06T11:56:29.269Z</time>
      </trkpt>
      <trkpt lat="48.39336" lon="7.29469">
        <ele>800</ele>
        <time>2020-09-06T11:56:30.270Z</time>
      </trkpt>
      <trkpt lat="48.39336" lon="7.2947">
        <ele>800</ele>
        <time>2020-09-06T11:56:31.269Z</time>
      </trkpt>
      <trkpt lat="48.39336" lon="7.29471">
        <ele>800</ele>
        <time>2020-09-06T11:56:32.269Z</time>
      </trkpt>
      <trkpt lat="48.39337" lon="7.29471">
        <ele>800</ele>
        <time>2020-09-06T11:56:33.269Z</time>
      </trkpt>
      <trkpt lat="48.39338" lon="7.29473">
        <ele>800</ele>
        <time>2020-09-06T11:56:34.269Z</time>
      </trkpt>
      <trkpt lat="48.39339" lon="7.29474">
        <ele>800</ele>
        <time>2020-09-06T11:56:35.270Z</time>
      </trkpt>
      <trkpt lat="48.3934" lon="7.29476">
        <ele>800</ele>
        <time>2020-09-06T11:56:36.270Z</time>
      </trkpt>
      <trkpt lat="48.3934" lon="7.29476">
        <ele>800</ele>
        <time>2020-09-06T11:56:37.269Z</time>
      </trkpt>
      <trkpt lat="48.39341" lon="7.29477">
        <ele>800</ele>
        <time>2020-09-06T11:56:38.269Z</time>
      </trkpt>
      <trkpt lat="48.39343" lon="7.29478">
        <ele>800</ele>
        <time>2020-09-06T11:56:39.269Z</time>
      </trkpt>
      <trkpt lat="48.39343" lon="7.2948">
        <ele>800</ele>
        <time>2020-09-06T11:56:40.269Z</time>
      </trkpt>
      <trkpt lat="48.39344" lon="7.29482">
        <ele>800</ele>
        <time>2020-09-06T11:56:41.270Z</time>
      </trkpt>
      <trkpt lat="48.39345" lon="7.29484">
        <ele>800</ele>
        <time>2020-09-06T11:56:42.269Z</time>
      </trkpt>
      <trkpt lat="48.39346" lon="7.29485">
        <ele>800</ele>
        <time>2020-09-06T11:56:43.269Z</time>
      </trkpt>
      <trkpt lat="48.39348" lon="7.29487">
        <ele>800</ele>
        <time>2020-09-06T11:56:44.269Z</time>
      </trkpt>
      <trkpt lat="48.39348" lon="7.29488">
        <ele>801</ele>
        <time>2020-09-06T11:56:45.270Z</time>
      </trkpt>
      <trkpt lat="48.39349" lon="7.29489">
        <ele>801</ele>
        <time>2020-09-06T11:56:46.269Z</time>
      </trkpt>
      <trkpt lat="48.3935" lon="7.29489">
        <ele>801</ele>
        <time>2020-09-06T11:56:47.269Z</time>
      </trkpt>
      <trkpt lat="48.3935" lon="7.29489">
        <ele>801</ele>
        <time>2020-09-06T11:56:48.269Z</time>
      </trkpt>
      <trkpt lat="48.39351" lon="7.29489">
        <ele>801</ele>
        <time>2020-09-06T11:56:49.269Z</time>
      </trkpt>
      <trkpt lat="48.3935" lon="7.29492">
        <ele>802</ele>
        <time>2020-09-06T11:56:50.269Z</time>
      </trkpt>
      <trkpt lat="48.3935" lon="7.29493">
        <ele>802</ele>
        <time>2020-09-06T11:56:51.269Z</time>
      </trkpt>
      <trkpt lat="48.3935" lon="7.29494">
        <ele>802</ele>
        <time>2020-09-06T11:56:52.270Z</time>
      </trkpt>
      <trkpt lat="48.39351" lon="7.29494">
        <ele>802</ele>
        <time>2020-09-06T11:56:53.269Z</time>
      </trkpt>
      <trkpt lat="48.39352" lon="7.29495">
        <ele>802</ele>
        <time>2020-09-06T11:56:54.269Z</time>
      </trkpt>
      <trkpt lat="48.39352" lon="7.29496">
        <ele>802</ele>
        <time>2020-09-06T11:56:55.269Z</time>
      </trkpt>
      <trkpt lat="48.39353" lon="7.29497">
        <ele>802</ele>
        <time>2020-09-06T11:56:56.269Z</time>
      </trkpt>
      <trkpt lat="48.39354" lon="7.29498">
        <ele>802</ele>
        <time>2020-09-06T11:56:57.269Z</time>
      </trkpt>
      <trkpt lat="48.39354" lon="7.29499">
        <ele>802</ele>
        <time>2020-09-06T11:56:58.269Z</time>
      </trkpt>
      <trkpt lat="48.39355" lon="7.29499">
        <ele>803</ele>
        <time>2020-09-06T11:56:59.269Z</time>
      </trkpt>
      <trkpt lat="48.39356" lon="7.29499">
        <ele>803</ele>
        <time>2020-09-06T11:57:00.269Z</time>
      </trkpt>
      <trkpt lat="48.39356" lon="7.295">
        <ele>804</ele>
        <time>2020-09-06T11:57:01.269Z</time>
      </trkpt>
      <trkpt lat="48.39357" lon="7.29501">
        <ele>804</ele>
        <time>2020-09-06T11:57:02.269Z</time>
      </trkpt>
      <trkpt lat="48.39358" lon="7.29503">
        <ele>805</ele>
        <time>2020-09-06T11:57:03.269Z</time>
      </trkpt>
      <trkpt lat="48.39359" lon="7.29505">
        <ele>805</ele>
        <time>2020-09-06T11:57:04.270Z</time>
      </trkpt>
      <trkpt lat="48.39361" lon="7.29506">
        <ele>805</ele>
        <time>2020-09-06T11:57:05.270Z</time>
      </trkpt>
      <trkpt lat="48.39362" lon="7.29508">
        <ele>805</ele>
        <time>2020-09-06T11:57:06.270Z</time>
      </trkpt>
      <trkpt lat="48.39362" lon="7.29508">
        <ele>806</ele>
        <time>2020-09-06T11:57:07.270Z</time>
      </trkpt>
      <trkpt lat="48.39363" lon="7.29508">
        <ele>806</ele>
        <time>2020-09-06T11:57:08.270Z</time>
      </trkpt>
      <trkpt lat="48.39364" lon="7.29508">
        <ele>806</ele>
        <time>2020-09-06T11:57:09.270Z</time>
      </trkpt>
      <trkpt lat="48.39365" lon="7.29509">
        <ele>806</ele>
        <time>2020-09-06T11:57:10.270Z</time>
      </trkpt>
      <trkpt lat="48.39366" lon="7.2951">
        <ele>807</ele>
        <time>2020-09-06T11:57:11.269Z</time>
      </trkpt>
      <trkpt lat="48.39367" lon="7.29511">
        <ele>807</ele>
        <time>2020-09-06T11:57:12.270Z</time>
      </trkpt>
      <trkpt lat="48.39368" lon="7.29511">
        <ele>808</ele>
        <time>2020-09-06T11:57:13.270Z</time>
      </trkpt>
      <trkpt lat="48.39368" lon="7.29512">
        <ele>808</ele>
        <time>2020-09-06T11:57:14.270Z</time>
      </trkpt>
      <trkpt lat="48.3937" lon="7.29513">
        <ele>809</ele>
        <time>2020-09-06T11:57:15.270Z</time>
      </trkpt>
      <trkpt lat="48.39371" lon="7.29514">
        <ele>809</ele>
        <time>2020-09-06T11:57:16.270Z</time>
      </trkpt>
      <trkpt lat="48.39373" lon="7.29516">
        <ele>810</ele>
        <time>2020-09-06T11:57:17.270Z</time>
      </trkpt>
      <trkpt lat="48.39374" lon="7.29516">
        <ele>810</ele>
        <time>2020-09-06T11:57:18.270Z</time>
      </trkpt>
      <trkpt lat="48.39376" lon="7.29518">
        <ele>810</ele>
        <time>2020-09-06T11:57:19.270Z</time>
      </trkpt>
      <trkpt lat="48.39376" lon="7.29519">
        <ele>810</ele>
        <time>2020-09-06T11:57:20.270Z</time>
      </trkpt>
      <trkpt lat="48.39377" lon="7.2952">
        <ele>810</ele>
        <time>2020-09-06T11:57:21.270Z</time>
      </trkpt>
      <trkpt lat="48.39377" lon="7.29522">
        <ele>810</ele>
        <time>2020-09-06T11:57:22.270Z</time>
      </trkpt>
      <trkpt lat="48.39378" lon="7.29523">
        <ele>810</ele>
        <time>2020-09-06T11:57:23.270Z</time>
      </trkpt>
      <trkpt lat="48.39379" lon="7.29524">
        <ele>809</ele>
        <time>2020-09-06T11:57:24.269Z</time>
      </trkpt>
      <trkpt lat="48.39379" lon="7.29525">
        <ele>809</ele>
        <time>2020-09-06T11:57:25.270Z</time>
      </trkpt>
      <trkpt lat="48.3938" lon="7.29525">
        <ele>809</ele>
        <time>2020-09-06T11:57:26.270Z</time>
      </trkpt>
      <trkpt lat="48.39381" lon="7.29526">
        <ele>809</ele>
        <time>2020-09-06T11:57:27.270Z</time>
      </trkpt>
      <trkpt lat="48.39382" lon="7.29527">
        <ele>808</ele>
        <time>2020-09-06T11:57:28.270Z</time>
      </trkpt>
      <trkpt lat="48.39384" lon="7.29528">
        <ele>808</ele>
        <time>2020-09-06T11:57:29.270Z</time>
      </trkpt>
      <trkpt lat="48.39384" lon="7.29528">
        <ele>808</ele>
        <time>2020-09-06T11:57:30.270Z</time>
      </trkpt>
      <trkpt lat="48.39384" lon="7.29529">
        <ele>809</ele>
        <time>2020-09-06T11:57:31.270Z</time>
      </trkpt>
      <trkpt lat="48.39385" lon="7.29529">
        <ele>809</ele>
        <time>2020-09-06T11:57:32.269Z</time>
      </trkpt>
      <trkpt lat="48.39385" lon="7.29529">
        <ele>809</ele>
        <time>2020-09-06T11:57:33.270Z</time>
      </trkpt>
      <trkpt lat="48.39386" lon="7.2953">
        <ele>810</ele>
        <time>2020-09-06T11:57:34.270Z</time>
      </trkpt>
      <trkpt lat="48.39387" lon="7.29532">
        <ele>810</ele>
        <time>2020-09-06T11:57:35.270Z</time>
      </trkpt>
      <trkpt lat="48.39389" lon="7.29533">
        <ele>810</ele>
        <time>2020-09-06T11:57:36.270Z</time>
      </trkpt>
      <trkpt lat="48.39389" lon="7.29534">
        <ele>809</ele>
        <time>2020-09-06T11:57:37.270Z</time>
      </trkpt>
      <trkpt lat="48.3939" lon="7.29536">
        <ele>809</ele>
        <time>2020-09-06T11:57:38.270Z</time>
      </trkpt>
      <trkpt lat="48.39391" lon="7.29538">
        <ele>809</ele>
        <time>2020-09-06T11:57:39.270Z</time>
      </trkpt>
      <trkpt lat="48.39392" lon="7.29539">
        <ele>808</ele>
        <time>2020-09-06T11:57:40.270Z</time>
      </trkpt>
      <trkpt lat="48.39392" lon="7.29539">
        <ele>808</ele>
        <time>2020-09-06T11:57:41.269Z</time>
      </trkpt>
      <trkpt lat="48.39392" lon="7.2954">
        <ele>808</ele>
        <time>2020-09-06T11:57:42.270Z</time>
      </trkpt>
      <trkpt lat="48.39392" lon="7.2954">
        <ele>808</ele>
        <time>2020-09-06T11:57:43.270Z</time>
      </trkpt>
      <trkpt lat="48.39393" lon="7.2954">
        <ele>808</ele>
        <time>2020-09-06T11:57:44.269Z</time>
      </trkpt>
      <trkpt lat="48.39394" lon="7.29541">
        <ele>808</ele>
        <time>2020-09-06T11:57:45.270Z</time>
      </trkpt>
      <trkpt lat="48.39395" lon="7.29541">
        <ele>809</ele>
        <time>2020-09-06T11:57:46.270Z</time>
      </trkpt>
      <trkpt lat="48.39396" lon="7.29542">
        <ele>810</ele>
        <time>2020-09-06T11:57:47.270Z</time>
      </trkpt>
      <trkpt lat="48.39397" lon="7.29543">
        <ele>810</ele>
        <time>2020-09-06T11:57:48.270Z</time>
      </trkpt>
      <trkpt lat="48.39398" lon="7.29543">
        <ele>811</ele>
        <time>2020-09-06T11:57:49.270Z</time>
      </trkpt>
      <trkpt lat="48.394" lon="7.29544">
        <ele>811</ele>
        <time>2020-09-06T11:57:50.269Z</time>
      </trkpt>
      <trkpt lat="48.39401" lon="7.29544">
        <ele>811</ele>
        <time>2020-09-06T11:57:51.269Z</time>
      </trkpt>
      <trkpt lat="48.39402" lon="7.29545">
        <ele>811</ele>
        <time>2020-09-06T11:57:52.269Z</time>
      </trkpt>
      <trkpt lat="48.39403" lon="7.29546">
        <ele>812</ele>
        <time>2020-09-06T11:57:53.269Z</time>
      </trkpt>
      <trkpt lat="48.39404" lon="7.29548">
        <ele>812</ele>
        <time>2020-09-06T11:57:54.270Z</time>
      </trkpt>
      <trkpt lat="48.39405" lon="7.29549">
        <ele>812</ele>
        <time>2020-09-06T11:57:55.270Z</time>
      </trkpt>
      <trkpt lat="48.39406" lon="7.2955">
        <ele>812</ele>
        <time>2020-09-06T11:57:56.270Z</time>
      </trkpt>
      <trkpt lat="48.39407" lon="7.29551">
        <ele>812</ele>
        <time>2020-09-06T11:57:57.269Z</time>
      </trkpt>
      <trkpt lat="48.39409" lon="7.29552">
        <ele>812</ele>
        <time>2020-09-06T11:57:58.270Z</time>
      </trkpt>
      <trkpt lat="48.3941" lon="7.29552">
        <ele>811</ele>
        <time>2020-09-06T11:57:59.269Z</time>
      </trkpt>
      <trkpt lat="48.39412" lon="7.29552">
        <ele>811</ele>
        <time>2020-09-06T11:58:00.270Z</time>
      </trkpt>
      <trkpt lat="48.39414" lon="7.29553">
        <ele>811</ele>
        <time>2020-09-06T11:58:01.270Z</time>
      </trkpt>
      <trkpt lat="48.39415" lon="7.29553">
        <ele>810</ele>
        <time>2020-09-06T11:58:02.269Z</time>
      </trkpt>
      <trkpt lat="48.39416" lon="7.29554">
        <ele>810</ele>
        <time>2020-09-06T11:58:03.270Z</time>
      </trkpt>
      <trkpt lat="48.39418" lon="7.29555">
        <ele>810</ele>
        <time>2020-09-06T11:58:04.270Z</time>
      </trkpt>
      <trkpt lat="48.3942" lon="7.29553">
        <ele>810</ele>
        <time>2020-09-06T11:58:05.270Z</time>
      </trkpt>
      <trkpt lat="48.39422" lon="7.29554">
        <ele>810</ele>
        <time>2020-09-06T11:58:06.269Z</time>
      </trkpt>
      <trkpt lat="48.39425" lon="7.29555">
        <ele>811</ele>
        <time>2020-09-06T11:58:07.269Z</time>
      </trkpt>
      <trkpt lat="48.39426" lon="7.29556">
        <ele>811</ele>
        <time>2020-09-06T11:58:08.269Z</time>
      </trkpt>
      <trkpt lat="48.39428" lon="7.29558">
        <ele>811</ele>
        <time>2020-09-06T11:58:09.269Z</time>
      </trkpt>
      <trkpt lat="48.3943" lon="7.29558">
        <ele>811</ele>
        <time>2020-09-06T11:58:10.270Z</time>
      </trkpt>
      <trkpt lat="48.39431" lon="7.29558">
        <ele>812</ele>
        <time>2020-09-06T11:58:11.270Z</time>
      </trkpt>
      <trkpt lat="48.39433" lon="7.29558">
        <ele>812</ele>
        <time>2020-09-06T11:58:12.270Z</time>
      </trkpt>
      <trkpt lat="48.39434" lon="7.29558">
        <ele>812</ele>
        <time>2020-09-06T11:58:13.270Z</time>
      </trkpt>
      <trkpt lat="48.39435" lon="7.29558">
        <ele>813</ele>
        <time>2020-09-06T11:58:14.269Z</time>
      </trkpt>
      <trkpt lat="48.39436" lon="7.29559">
        <ele>813</ele>
        <time>2020-09-06T11:58:15.270Z</time>
      </trkpt>
      <trkpt lat="48.39438" lon="7.2956">
        <ele>813</ele>
        <time>2020-09-06T11:58:16.270Z</time>
      </trkpt>
      <trkpt lat="48.39439" lon="7.29561">
        <ele>814</ele>
        <time>2020-09-06T11:58:17.270Z</time>
      </trkpt>
      <trkpt lat="48.3944" lon="7.29562">
        <ele>814</ele>
        <time>2020-09-06T11:58:18.270Z</time>
      </trkpt>
      <trkpt lat="48.39441" lon="7.29563">
        <ele>814</ele>
        <time>2020-09-06T11:58:19.270Z</time>
      </trkpt>
      <trkpt lat="48.39442" lon="7.29564">
        <ele>814</ele>
        <time>2020-09-06T11:58:20.270Z</time>
      </trkpt>
      <trkpt lat="48.39442" lon="7.29565">
        <ele>814</ele>
        <time>2020-09-06T11:58:21.270Z</time>
      </trkpt>
      <trkpt lat="48.39443" lon="7.29566">
        <ele>814</ele>
        <time>2020-09-06T11:58:22.270Z</time>
      </trkpt>
      <trkpt lat="48.39444" lon="7.29567">
        <ele>814</ele>
        <time>2020-09-06T11:58:23.269Z</time>
      </trkpt>
      <trkpt lat="48.39446" lon="7.29568">
        <ele>813</ele>
        <time>2020-09-06T11:58:24.270Z</time>
      </trkpt>
      <trkpt lat="48.39447" lon="7.2957">
        <ele>813</ele>
        <time>2020-09-06T11:58:25.269Z</time>
      </trkpt>
      <trkpt lat="48.39448" lon="7.29571">
        <ele>813</ele>
        <time>2020-09-06T11:58:26.269Z</time>
      </trkpt>
      <trkpt lat="48.39449" lon="7.29572">
        <ele>813</ele>
        <time>2020-09-06T11:58:27.270Z</time>
      </trkpt>
      <trkpt lat="48.3945" lon="7.29573">
        <ele>813</ele>
        <time>2020-09-06T11:58:28.269Z</time>
      </trkpt>
      <trkpt lat="48.39451" lon="7.29573">
        <ele>813</ele>
        <time>2020-09-06T11:58:29.270Z</time>
      </trkpt>
      <trkpt lat="48.39452" lon="7.29574">
        <ele>814</ele>
        <time>2020-09-06T11:58:30.269Z</time>
      </trkpt>
      <trkpt lat="48.39453" lon="7.29575">
        <ele>814</ele>
        <time>2020-09-06T11:58:31.269Z</time>
      </trkpt>
      <trkpt lat="48.39454" lon="7.29576">
        <ele>815</ele>
        <time>2020-09-06T11:58:32.269Z</time>
      </trkpt>
      <trkpt lat="48.39456" lon="7.29576">
        <ele>815</ele>
        <time>2020-09-06T11:58:33.270Z</time>
      </trkpt>
      <trkpt lat="48.39458" lon="7.29577">
        <ele>816</ele>
        <time>2020-09-06T11:58:34.270Z</time>
      </trkpt>
      <trkpt lat="48.39459" lon="7.29578">
        <ele>816</ele>
        <time>2020-09-06T11:58:35.270Z</time>
      </trkpt>
      <trkpt lat="48.3946" lon="7.29579">
        <ele>816</ele>
        <time>2020-09-06T11:58:36.270Z</time>
      </trkpt>
      <trkpt lat="48.39462" lon="7.2958">
        <ele>816</ele>
        <time>2020-09-06T11:58:37.270Z</time>
      </trkpt>
      <trkpt lat="48.39463" lon="7.2958">
        <ele>816</ele>
        <time>2020-09-06T11:58:38.269Z</time>
      </trkpt>
      <trkpt lat="48.39464" lon="7.29581">
        <ele>816</ele>
        <time>2020-09-06T11:58:39.270Z</time>
      </trkpt>
      <trkpt lat="48.39465" lon="7.29582">
        <ele>815</ele>
        <time>2020-09-06T11:58:40.270Z</time>
      </trkpt>
      <trkpt lat="48.39466" lon="7.29582">
        <ele>815</ele>
        <time>2020-09-06T11:58:41.269Z</time>
      </trkpt>
      <trkpt lat="48.39467" lon="7.29583">
        <ele>815</ele>
        <time>2020-09-06T11:58:42.269Z</time>
      </trkpt>
      <trkpt lat="48.39468" lon="7.29584">
        <ele>814</ele>
        <time>2020-09-06T11:58:43.270Z</time>
      </trkpt>
      <trkpt lat="48.39468" lon="7.29585">
        <ele>814</ele>
        <time>2020-09-06T11:58:44.270Z</time>
      </trkpt>
      <trkpt lat="48.39469" lon="7.29586">
        <ele>813</ele>
        <time>2020-09-06T11:58:45.270Z</time>
      </trkpt>
      <trkpt lat="48.3947" lon="7.29587">
        <ele>813</ele>
        <time>2020-09-06T11:58:46.270Z</time>
      </trkpt>
      <trkpt lat="48.39471" lon="7.29588">
        <ele>813</ele>
        <time>2020-09-06T11:58:47.269Z</time>
      </trkpt>
      <trkpt lat="48.39472" lon="7.29589">
        <ele>812</ele>
        <time>2020-09-06T11:58:48.270Z</time>
      </trkpt>
      <trkpt lat="48.39473" lon="7.2959">
        <ele>812</ele>
        <time>2020-09-06T11:58:49.270Z</time>
      </trkpt>
      <trkpt lat="48.39474" lon="7.29591">
        <ele>812</ele>
        <time>2020-09-06T11:58:50.270Z</time>
      </trkpt>
      <trkpt lat="48.39475" lon="7.29591">
        <ele>812</ele>
        <time>2020-09-06T11:58:51.270Z</time>
      </trkpt>
      <trkpt lat="48.39476" lon="7.29591">
        <ele>812</ele>
        <time>2020-09-06T11:58:52.270Z</time>
      </trkpt>
      <trkpt lat="48.39477" lon="7.29592">
        <ele>812</ele>
        <time>2020-09-06T11:58:53.270Z</time>
      </trkpt>
      <trkpt lat="48.39479" lon="7.29593">
        <ele>811</ele>
        <time>2020-09-06T11:58:54.269Z</time>
      </trkpt>
      <trkpt lat="48.3948" lon="7.29594">
        <ele>811</ele>
        <time>2020-09-06T11:58:55.269Z</time>
      </trkpt>
      <trkpt lat="48.39481" lon="7.29595">
        <ele>810</ele>
        <time>2020-09-06T11:58:56.270Z</time>
      </trkpt>
      <trkpt lat="48.39483" lon="7.29596">
        <ele>809</ele>
        <time>2020-09-06T11:58:57.269Z</time>
      </trkpt>
      <trkpt lat="48.39484" lon="7.29596">
        <ele>809</ele>
        <time>2020-09-06T11:58:58.270Z</time>
      </trkpt>
      <trkpt lat="48.39485" lon="7.29596">
        <ele>809</ele>
        <time>2020-09-06T11:58:59.269Z</time>
      </trkpt>
      <trkpt lat="48.39486" lon="7.29596">
        <ele>809</ele>
        <time>2020-09-06T11:59:00.270Z</time>
      </trkpt>
      <trkpt lat="48.39486" lon="7.29597">
        <ele>809</ele>
        <time>2020-09-06T11:59:01.270Z</time>
      </trkpt>
      <trkpt lat="48.39488" lon="7.29598">
        <ele>809</ele>
        <time>2020-09-06T11:59:02.269Z</time>
      </trkpt>
      <trkpt lat="48.39489" lon="7.29598">
        <ele>809</ele>
        <time>2020-09-06T11:59:03.270Z</time>
      </trkpt>
      <trkpt lat="48.3949" lon="7.29599">
        <ele>809</ele>
        <time>2020-09-06T11:59:04.270Z</time>
      </trkpt>
      <trkpt lat="48.39491" lon="7.296">
        <ele>808</ele>
        <time>2020-09-06T11:59:05.270Z</time>
      </trkpt>
      <trkpt lat="48.39492" lon="7.296">
        <ele>807</ele>
        <time>2020-09-06T11:59:06.270Z</time>
      </trkpt>
      <trkpt lat="48.39493" lon="7.296">
        <ele>807</ele>
        <time>2020-09-06T11:59:07.270Z</time>
      </trkpt>
      <trkpt lat="48.39495" lon="7.29602">
        <ele>806</ele>
        <time>2020-09-06T11:59:08.270Z</time>
      </trkpt>
      <trkpt lat="48.39497" lon="7.29603">
        <ele>806</ele>
        <time>2020-09-06T11:59:09.270Z</time>
      </trkpt>
      <trkpt lat="48.39498" lon="7.29606">
        <ele>807</ele>
        <time>2020-09-06T11:59:10.270Z</time>
      </trkpt>
      <trkpt lat="48.39498" lon="7.29607">
        <ele>807</ele>
        <time>2020-09-06T11:59:11.270Z</time>
      </trkpt>
      <trkpt lat="48.395" lon="7.29608">
        <ele>807</ele>
        <time>2020-09-06T11:59:12.270Z</time>
      </trkpt>
      <trkpt lat="48.39501" lon="7.29609">
        <ele>807</ele>
        <time>2020-09-06T11:59:13.270Z</time>
      </trkpt>
      <trkpt lat="48.39502" lon="7.29609">
        <ele>807</ele>
        <time>2020-09-06T11:59:14.270Z</time>
      </trkpt>
      <trkpt lat="48.39503" lon="7.29609">
        <ele>806</ele>
        <time>2020-09-06T11:59:15.269Z</time>
      </trkpt>
      <trkpt lat="48.39504" lon="7.29609">
        <ele>806</ele>
        <time>2020-09-06T11:59:16.270Z</time>
      </trkpt>
      <trkpt lat="48.39505" lon="7.29609">
        <ele>806</ele>
        <time>2020-09-06T11:59:17.270Z</time>
      </trkpt>
      <trkpt lat="48.39506" lon="7.2961">
        <ele>806</ele>
        <time>2020-09-06T11:59:18.270Z</time>
      </trkpt>
      <trkpt lat="48.39507" lon="7.2961">
        <ele>806</ele>
        <time>2020-09-06T11:59:19.269Z</time>
      </trkpt>
      <trkpt lat="48.39508" lon="7.2961">
        <ele>806</ele>
        <time>2020-09-06T11:59:20.270Z</time>
      </trkpt>
      <trkpt lat="48.3951" lon="7.29611">
        <ele>807</ele>
        <time>2020-09-06T11:59:21.270Z</time>
      </trkpt>
      <trkpt lat="48.39511" lon="7.29611">
        <ele>807</ele>
        <time>2020-09-06T11:59:22.270Z</time>
      </trkpt>
      <trkpt lat="48.39512" lon="7.29611">
        <ele>808</ele>
        <time>2020-09-06T11:59:23.270Z</time>
      </trkpt>
      <trkpt lat="48.39513" lon="7.29612">
        <ele>808</ele>
        <time>2020-09-06T11:59:24.269Z</time>
      </trkpt>
      <trkpt lat="48.39514" lon="7.29612">
        <ele>809</ele>
        <time>2020-09-06T11:59:25.270Z</time>
      </trkpt>
      <trkpt lat="48.39515" lon="7.29612">
        <ele>809</ele>
        <time>2020-09-06T11:59:26.269Z</time>
      </trkpt>
      <trkpt lat="48.39516" lon="7.29613">
        <ele>809</ele>
        <time>2020-09-06T11:59:27.270Z</time>
      </trkpt>
      <trkpt lat="48.39517" lon="7.29614">
        <ele>809</ele>
        <time>2020-09-06T11:59:28.269Z</time>
      </trkpt>
      <trkpt lat="48.39519" lon="7.29614">
        <ele>810</ele>
        <time>2020-09-06T11:59:29.270Z</time>
      </trkpt>
      <trkpt lat="48.39521" lon="7.29612">
        <ele>810</ele>
        <time>2020-09-06T11:59:30.270Z</time>
      </trkpt>
      <trkpt lat="48.39523" lon="7.29611">
        <ele>810</ele>
        <time>2020-09-06T11:59:31.270Z</time>
      </trkpt>
      <trkpt lat="48.39524" lon="7.2961">
        <ele>811</ele>
        <time>2020-09-06T11:59:32.269Z</time>
      </trkpt>
      <trkpt lat="48.39526" lon="7.2961">
        <ele>811</ele>
        <time>2020-09-06T11:59:33.269Z</time>
      </trkpt>
      <trkpt lat="48.39527" lon="7.29611">
        <ele>812</ele>
        <time>2020-09-06T11:59:34.270Z</time>
      </trkpt>
      <trkpt lat="48.39528" lon="7.29612">
        <ele>812</ele>
        <time>2020-09-06T11:59:35.270Z</time>
      </trkpt>
      <trkpt lat="48.39529" lon="7.29614">
        <ele>811</ele>
        <time>2020-09-06T11:59:36.269Z</time>
      </trkpt>
      <trkpt lat="48.3953" lon="7.29615">
        <ele>811</ele>
        <time>2020-09-06T11:59:37.270Z</time>
      </trkpt>
      <trkpt lat="48.39531" lon="7.29616">
        <ele>810</ele>
        <time>2020-09-06T11:59:38.270Z</time>
      </trkpt>
      <trkpt lat="48.39532" lon="7.29616">
        <ele>810</ele>
        <time>2020-09-06T11:59:39.269Z</time>
      </trkpt>
      <trkpt lat="48.39532" lon="7.29616">
        <ele>809</ele>
        <time>2020-09-06T11:59:40.269Z</time>
      </trkpt>
      <trkpt lat="48.39533" lon="7.29616">
        <ele>810</ele>
        <time>2020-09-06T11:59:41.270Z</time>
      </trkpt>
      <trkpt lat="48.39534" lon="7.29616">
        <ele>810</ele>
        <time>2020-09-06T11:59:42.270Z</time>
      </trkpt>
      <trkpt lat="48.39534" lon="7.29616">
        <ele>810</ele>
        <time>2020-09-06T11:59:43.270Z</time>
      </trkpt>
      <trkpt lat="48.39535" lon="7.29615">
        <ele>811</ele>
        <time>2020-09-06T11:59:44.270Z</time>
      </trkpt>
      <trkpt lat="48.39536" lon="7.29615">
        <ele>812</ele>
        <time>2020-09-06T11:59:45.270Z</time>
      </trkpt>
      <trkpt lat="48.39538" lon="7.29616">
        <ele>812</ele>
        <time>2020-09-06T11:59:46.270Z</time>
      </trkpt>
      <trkpt lat="48.3954" lon="7.29617">
        <ele>812</ele>
        <time>2020-09-06T11:59:47.270Z</time>
      </trkpt>
      <trkpt lat="48.39542" lon="7.29618">
        <ele>812</ele>
        <time>2020-09-06T11:59:48.270Z</time>
      </trkpt>
      <trkpt lat="48.39543" lon="7.29618">
        <ele>812</ele>
        <time>2020-09-06T11:59:49.270Z</time>
      </trkpt>
      <trkpt lat="48.39544" lon="7.29617">
        <ele>811</ele>
        <time>2020-09-06T11:59:50.270Z</time>
      </trkpt>
      <trkpt lat="48.39545" lon="7.29617">
        <ele>811</ele>
        <time>2020-09-06T11:59:51.269Z</time>
      </trkpt>
      <trkpt lat="48.39546" lon="7.29617">
        <ele>810</ele>
        <time>2020-09-06T11:59:52.270Z</time>
      </trkpt>
      <trkpt lat="48.39548" lon="7.29618">
        <ele>810</ele>
        <time>2020-09-06T11:59:53.270Z</time>
      </trkpt>
      <trkpt lat="48.39549" lon="7.29618">
        <ele>810</ele>
        <time>2020-09-06T11:59:54.270Z</time>
      </trkpt>
      <trkpt lat="48.3955" lon="7.29618">
        <ele>810</ele>
        <time>2020-09-06T11:59:55.270Z</time>
      </trkpt>
      <trkpt lat="48.39551" lon="7.29618">
        <ele>811</ele>
        <time>2020-09-06T11:59:56.270Z</time>
      </trkpt>
      <trkpt lat="48.39552" lon="7.29618">
        <ele>811</ele>
        <time>2020-09-06T11:59:57.270Z</time>
      </trkpt>
      <trkpt lat="48.39553" lon="7.29618">
        <ele>811</ele>
        <time>2020-09-06T11:59:58.270Z</time>
      </trkpt>
      <trkpt lat="48.39555" lon="7.29618">
        <ele>812</ele>
        <time>2020-09-06T11:59:59.270Z</time>
      </trkpt>
      <trkpt lat="48.39556" lon="7.29618">
        <ele>812</ele>
        <time>2020-09-06T12:00:00.270Z</time>
      </trkpt>
      <trkpt lat="48.39558" lon="7.29619">
        <ele>812</ele>
        <time>2020-09-06T12:00:01.270Z</time>
      </trkpt>
      <trkpt lat="48.39559" lon="7.29618">
        <ele>813</ele>
        <time>2020-09-06T12:00:02.270Z</time>
      </trkpt>
      <trkpt lat="48.3956" lon="7.29618">
        <ele>813</ele>
        <time>2020-09-06T12:00:03.270Z</time>
      </trkpt>
      <trkpt lat="48.39562" lon="7.29618">
        <ele>814</ele>
        <time>2020-09-06T12:00:04.270Z</time>
      </trkpt>
      <trkpt lat="48.39563" lon="7.29617">
        <ele>814</ele>
        <time>2020-09-06T12:00:05.270Z</time>
      </trkpt>
      <trkpt lat="48.39564" lon="7.29618">
        <ele>814</ele>
        <time>2020-09-06T12:00:06.270Z</time>
      </trkpt>
      <trkpt lat="48.39565" lon="7.29617">
        <ele>815</ele>
        <time>2020-09-06T12:00:07.269Z</time>
      </trkpt>
      <trkpt lat="48.39566" lon="7.29617">
        <ele>815</ele>
        <time>2020-09-06T12:00:08.269Z</time>
      </trkpt>
      <trkpt lat="48.39567" lon="7.29616">
        <ele>816</ele>
        <time>2020-09-06T12:00:09.270Z</time>
      </trkpt>
      <trkpt lat="48.39569" lon="7.29616">
        <ele>816</ele>
        <time>2020-09-06T12:00:10.270Z</time>
      </trkpt>
      <trkpt lat="48.39569" lon="7.29616">
        <ele>816</ele>
        <time>2020-09-06T12:00:11.270Z</time>
      </trkpt>
      <trkpt lat="48.3957" lon="7.29617">
        <ele>817</ele>
        <time>2020-09-06T12:00:12.269Z</time>
      </trkpt>
      <trkpt lat="48.39572" lon="7.29618">
        <ele>817</ele>
        <time>2020-09-06T12:00:13.270Z</time>
      </trkpt>
      <trkpt lat="48.39574" lon="7.29619">
        <ele>818</ele>
        <time>2020-09-06T12:00:14.270Z</time>
      </trkpt>
      <trkpt lat="48.39576" lon="7.2962">
        <ele>818</ele>
        <time>2020-09-06T12:00:15.270Z</time>
      </trkpt>
      <trkpt lat="48.39577" lon="7.29621">
        <ele>818</ele>
        <time>2020-09-06T12:00:16.270Z</time>
      </trkpt>
      <trkpt lat="48.39578" lon="7.29622">
        <ele>818</ele>
        <time>2020-09-06T12:00:17.270Z</time>
      </trkpt>
      <trkpt lat="48.39579" lon="7.29623">
        <ele>817</ele>
        <time>2020-09-06T12:00:18.270Z</time>
      </trkpt>
      <trkpt lat="48.3958" lon="7.29624">
        <ele>816</ele>
        <time>2020-09-06T12:00:19.269Z</time>
      </trkpt>
      <trkpt lat="48.39581" lon="7.29624">
        <ele>815</ele>
        <time>2020-09-06T12:00:20.270Z</time>
      </trkpt>
      <trkpt lat="48.39582" lon="7.29624">
        <ele>815</ele>
        <time>2020-09-06T12:00:21.269Z</time>
      </trkpt>
      <trkpt lat="48.39582" lon="7.29624">
        <ele>814</ele>
        <time>2020-09-06T12:00:22.269Z</time>
      </trkpt>
      <trkpt lat="48.39583" lon="7.29624">
        <ele>813</ele>
        <time>2020-09-06T12:00:23.270Z</time>
      </trkpt>
      <trkpt lat="48.39584" lon="7.29624">
        <ele>813</ele>
        <time>2020-09-06T12:00:24.269Z</time>
      </trkpt>
      <trkpt lat="48.39585" lon="7.29625">
        <ele>812</ele>
        <time>2020-09-06T12:00:25.269Z</time>
      </trkpt>
      <trkpt lat="48.39585" lon="7.29625">
        <ele>811</ele>
        <time>2020-09-06T12:00:26.270Z</time>
      </trkpt>
      <trkpt lat="48.39586" lon="7.29626">
        <ele>811</ele>
        <time>2020-09-06T12:00:27.269Z</time>
      </trkpt>
      <trkpt lat="48.39587" lon="7.29627">
        <ele>810</ele>
        <time>2020-09-06T12:00:28.270Z</time>
      </trkpt>
      <trkpt lat="48.39588" lon="7.29628">
        <ele>810</ele>
        <time>2020-09-06T12:00:29.269Z</time>
      </trkpt>
      <trkpt lat="48.39589" lon="7.29628">
        <ele>810</ele>
        <time>2020-09-06T12:00:30.270Z</time>
      </trkpt>
      <trkpt lat="48.39591" lon="7.29628">
        <ele>810</ele>
        <time>2020-09-06T12:00:37.357Z</time>
      </trkpt>
      <trkpt lat="48.39593" lon="7.29628">
        <ele>810</ele>
        <time>2020-09-06T12:00:38.357Z</time>
      </trkpt>
      <trkpt lat="48.39594" lon="7.29627">
        <ele>811</ele>
        <time>2020-09-06T12:00:39.357Z</time>
      </trkpt>
      <trkpt lat="48.39596" lon="7.29627">
        <ele>811</ele>
        <time>2020-09-06T12:00:40.358Z</time>
      </trkpt>
      <trkpt lat="48.39597" lon="7.29627">
        <ele>812</ele>
        <time>2020-09-06T12:00:41.358Z</time>
      </trkpt>
      <trkpt lat="48.39599" lon="7.29627">
        <ele>812</ele>
        <time>2020-09-06T12:00:42.358Z</time>
      </trkpt>
      <trkpt lat="48.396" lon="7.29627">
        <ele>813</ele>
        <time>2020-09-06T12:00:43.358Z</time>
      </trkpt>
      <trkpt lat="48.39601" lon="7.29627">
        <ele>813</ele>
        <time>2020-09-06T12:00:44.358Z</time>
      </trkpt>
      <trkpt lat="48.39603" lon="7.29628">
        <ele>813</ele>
        <time>2020-09-06T12:00:45.358Z</time>
      </trkpt>
      <trkpt lat="48.39604" lon="7.29629">
        <ele>813</ele>
        <time>2020-09-06T12:00:46.358Z</time>
      </trkpt>
      <trkpt lat="48.39606" lon="7.29629">
        <ele>812</ele>
        <time>2020-09-06T12:00:47.358Z</time>
      </trkpt>
      <trkpt lat="48.39606" lon="7.29629">
        <ele>811</ele>
        <time>2020-09-06T12:00:48.358Z</time>
      </trkpt>
      <trkpt lat="48.39607" lon="7.29628">
        <ele>810</ele>
        <time>2020-09-06T12:00:49.358Z</time>
      </trkpt>
      <trkpt lat="48.39608" lon="7.29628">
        <ele>809</ele>
        <time>2020-09-06T12:00:50.358Z</time>
      </trkpt>
      <trkpt lat="48.39609" lon="7.29628">
        <ele>809</ele>
        <time>2020-09-06T12:00:51.358Z</time>
      </trkpt>
      <trkpt lat="48.3961" lon="7.29628">
        <ele>808</ele>
        <time>2020-09-06T12:00:52.358Z</time>
      </trkpt>
      <trkpt lat="48.39611" lon="7.29628">
        <ele>808</ele>
        <time>2020-09-06T12:00:53.358Z</time>
      </trkpt>
      <trkpt lat="48.39613" lon="7.29629">
        <ele>808</ele>
        <time>2020-09-06T12:00:54.357Z</time>
      </trkpt>
      <trkpt lat="48.39615" lon="7.29629">
        <ele>808</ele>
        <time>2020-09-06T12:00:55.358Z</time>
      </trkpt>
      <trkpt lat="48.39616" lon="7.29629">
        <ele>809</ele>
        <time>2020-09-06T12:00:56.358Z</time>
      </trkpt>
      <trkpt lat="48.39617" lon="7.29628">
        <ele>809</ele>
        <time>2020-09-06T12:00:57.358Z</time>
      </trkpt>
      <trkpt lat="48.39619" lon="7.29627">
        <ele>810</ele>
        <time>2020-09-06T12:00:58.357Z</time>
      </trkpt>
      <trkpt lat="48.3962" lon="7.29626">
        <ele>811</ele>
        <time>2020-09-06T12:00:59.358Z</time>
      </trkpt>
      <trkpt lat="48.39622" lon="7.29626">
        <ele>811</ele>
        <time>2020-09-06T12:01:00.358Z</time>
      </trkpt>
      <trkpt lat="48.39623" lon="7.29626">
        <ele>811</ele>
        <time>2020-09-06T12:01:01.358Z</time>
      </trkpt>
      <trkpt lat="48.39625" lon="7.29625">
        <ele>812</ele>
        <time>2020-09-06T12:01:02.358Z</time>
      </trkpt>
      <trkpt lat="48.39626" lon="7.29625">
        <ele>812</ele>
        <time>2020-09-06T12:01:03.358Z</time>
      </trkpt>
      <trkpt lat="48.39627" lon="7.29627">
        <ele>812</ele>
        <time>2020-09-06T12:01:04.357Z</time>
      </trkpt>
      <trkpt lat="48.39628" lon="7.29628">
        <ele>812</ele>
        <time>2020-09-06T12:01:05.357Z</time>
      </trkpt>
      <trkpt lat="48.39629" lon="7.29629">
        <ele>812</ele>
        <time>2020-09-06T12:01:06.357Z</time>
      </trkpt>
      <trkpt lat="48.3963" lon="7.29631">
        <ele>813</ele>
        <time>2020-09-06T12:01:07.358Z</time>
      </trkpt>
      <trkpt lat="48.39631" lon="7.29632">
        <ele>813</ele>
        <time>2020-09-06T12:01:08.358Z</time>
      </trkpt>
      <trkpt lat="48.39632" lon="7.29632">
        <ele>812</ele>
        <time>2020-09-06T12:01:09.358Z</time>
      </trkpt>
      <trkpt lat="48.39634" lon="7.29632">
        <ele>812</ele>
        <time>2020-09-06T12:01:10.358Z</time>
      </trkpt>
      <trkpt lat="48.39635" lon="7.29632">
        <ele>812</ele>
        <time>2020-09-06T12:01:11.358Z</time>
      </trkpt>
      <trkpt lat="48.39636" lon="7.29632">
        <ele>812</ele>
        <time>2020-09-06T12:01:12.358Z</time>
      </trkpt>
      <trkpt lat="48.39637" lon="7.29633">
        <ele>812</ele>
        <time>2020-09-06T12:01:13.358Z</time>
      </trkpt>
      <trkpt lat="48.39638" lon="7.29633">
        <ele>811</ele>
        <time>2020-09-06T12:01:14.358Z</time>
      </trkpt>
      <trkpt lat="48.3964" lon="7.29634">
        <ele>811</ele>
        <time>2020-09-06T12:01:15.358Z</time>
      </trkpt>
      <trkpt lat="48.39641" lon="7.29634">
        <ele>811</ele>
        <time>2020-09-06T12:01:16.357Z</time>
      </trkpt>
      <trkpt lat="48.39643" lon="7.29634">
        <ele>812</ele>
        <time>2020-09-06T12:01:17.358Z</time>
      </trkpt>
      <trkpt lat="48.39645" lon="7.29634">
        <ele>812</ele>
        <time>2020-09-06T12:01:18.358Z</time>
      </trkpt>
      <trkpt lat="48.39646" lon="7.29634">
        <ele>812</ele>
        <time>2020-09-06T12:01:19.357Z</time>
      </trkpt>
      <trkpt lat="48.39647" lon="7.29634">
        <ele>812</ele>
        <time>2020-09-06T12:01:20.358Z</time>
      </trkpt>
      <trkpt lat="48.39647" lon="7.29634">
        <ele>812</ele>
        <time>2020-09-06T12:01:21.357Z</time>
      </trkpt>
      <trkpt lat="48.39647" lon="7.29633">
        <ele>813</ele>
        <time>2020-09-06T12:01:22.358Z</time>
      </trkpt>
      <trkpt lat="48.39647" lon="7.29633">
        <ele>813</ele>
        <time>2020-09-06T12:01:23.358Z</time>
      </trkpt>
      <trkpt lat="48.39647" lon="7.29632">
        <ele>813</ele>
        <time>2020-09-06T12:01:24.357Z</time>
      </trkpt>
      <trkpt lat="48.39647" lon="7.29632">
        <ele>814</ele>
        <time>2020-09-06T12:01:25.357Z</time>
      </trkpt>
      <trkpt lat="48.39647" lon="7.29631">
        <ele>815</ele>
        <time>2020-09-06T12:01:26.359Z</time>
      </trkpt>
      <trkpt lat="48.39647" lon="7.29631">
        <ele>815</ele>
        <time>2020-09-06T12:01:27.359Z</time>
      </trkpt>
      <trkpt lat="48.39648" lon="7.29631">
        <ele>815</ele>
        <time>2020-09-06T12:01:28.358Z</time>
      </trkpt>
      <trkpt lat="48.3965" lon="7.2963">
        <ele>815</ele>
        <time>2020-09-06T12:01:29.359Z</time>
      </trkpt>
      <trkpt lat="48.39651" lon="7.2963">
        <ele>815</ele>
        <time>2020-09-06T12:01:30.359Z</time>
      </trkpt>
      <trkpt lat="48.39653" lon="7.2963">
        <ele>816</ele>
        <time>2020-09-06T12:01:31.359Z</time>
      </trkpt>
      <trkpt lat="48.39655" lon="7.29629">
        <ele>816</ele>
        <time>2020-09-06T12:01:32.358Z</time>
      </trkpt>
      <trkpt lat="48.39657" lon="7.29629">
        <ele>816</ele>
        <time>2020-09-06T12:01:33.359Z</time>
      </trkpt>
      <trkpt lat="48.39658" lon="7.29629">
        <ele>817</ele>
        <time>2020-09-06T12:01:34.358Z</time>
      </trkpt>
      <trkpt lat="48.3966" lon="7.29629">
        <ele>817</ele>
        <time>2020-09-06T12:01:35.359Z</time>
      </trkpt>
      <trkpt lat="48.39661" lon="7.29628">
        <ele>817</ele>
        <time>2020-09-06T12:01:36.359Z</time>
      </trkpt>
      <trkpt lat="48.39662" lon="7.29629">
        <ele>817</ele>
        <time>2020-09-06T12:01:37.359Z</time>
      </trkpt>
      <trkpt lat="48.39663" lon="7.2963">
        <ele>816</ele>
        <time>2020-09-06T12:01:38.359Z</time>
      </trkpt>
      <trkpt lat="48.39665" lon="7.29632">
        <ele>815</ele>
        <time>2020-09-06T12:01:39.359Z</time>
      </trkpt>
      <trkpt lat="48.39667" lon="7.29632">
        <ele>815</ele>
        <time>2020-09-06T12:01:40.359Z</time>
      </trkpt>
      <trkpt lat="48.39669" lon="7.29631">
        <ele>814</ele>
        <time>2020-09-06T12:01:41.359Z</time>
      </trkpt>
      <trkpt lat="48.39671" lon="7.29629">
        <ele>813</ele>
        <time>2020-09-06T12:01:42.359Z</time>
      </trkpt>
      <trkpt lat="48.39673" lon="7.29628">
        <ele>813</ele>
        <time>2020-09-06T12:01:43.359Z</time>
      </trkpt>
      <trkpt lat="48.39674" lon="7.29627">
        <ele>813</ele>
        <time>2020-09-06T12:01:44.359Z</time>
      </trkpt>
      <trkpt lat="48.39675" lon="7.29627">
        <ele>813</ele>
        <time>2020-09-06T12:01:45.358Z</time>
      </trkpt>
      <trkpt lat="48.39676" lon="7.29626">
        <ele>813</ele>
        <time>2020-09-06T12:01:46.359Z</time>
      </trkpt>
      <trkpt lat="48.39677" lon="7.29625">
        <ele>814</ele>
        <time>2020-09-06T12:01:47.358Z</time>
      </trkpt>
      <trkpt lat="48.39679" lon="7.29625">
        <ele>815</ele>
        <time>2020-09-06T12:01:48.359Z</time>
      </trkpt>
      <trkpt lat="48.39679" lon="7.29624">
        <ele>815</ele>
        <time>2020-09-06T12:01:49.359Z</time>
      </trkpt>
      <trkpt lat="48.3968" lon="7.29624">
        <ele>816</ele>
        <time>2020-09-06T12:01:50.359Z</time>
      </trkpt>
      <trkpt lat="48.39682" lon="7.29623">
        <ele>816</ele>
        <time>2020-09-06T12:01:51.359Z</time>
      </trkpt>
      <trkpt lat="48.39683" lon="7.29623">
        <ele>817</ele>
        <time>2020-09-06T12:01:52.359Z</time>
      </trkpt>
      <trkpt lat="48.39684" lon="7.29623">
        <ele>817</ele>
        <time>2020-09-06T12:01:53.358Z</time>
      </trkpt>
      <trkpt lat="48.39684" lon="7.29623">
        <ele>818</ele>
        <time>2020-09-06T12:01:54.359Z</time>
      </trkpt>
      <trkpt lat="48.39685" lon="7.29623">
        <ele>819</ele>
        <time>2020-09-06T12:01:55.359Z</time>
      </trkpt>
      <trkpt lat="48.39686" lon="7.29622">
        <ele>820</ele>
        <time>2020-09-06T12:01:56.358Z</time>
      </trkpt>
      <trkpt lat="48.39687" lon="7.29622">
        <ele>820</ele>
        <time>2020-09-06T12:01:57.359Z</time>
      </trkpt>
      <trkpt lat="48.39688" lon="7.29622">
        <ele>821</ele>
        <time>2020-09-06T12:01:58.359Z</time>
      </trkpt>
      <trkpt lat="48.39688" lon="7.29621">
        <ele>822</ele>
        <time>2020-09-06T12:01:59.359Z</time>
      </trkpt>
      <trkpt lat="48.3969" lon="7.29621">
        <ele>823</ele>
        <time>2020-09-06T12:02:00.359Z</time>
      </trkpt>
      <trkpt lat="48.39691" lon="7.29621">
        <ele>824</ele>
        <time>2020-09-06T12:02:01.358Z</time>
      </trkpt>
      <trkpt lat="48.39692" lon="7.29621">
        <ele>826</ele>
        <time>2020-09-06T12:02:02.358Z</time>
      </trkpt>
      <trkpt lat="48.39694" lon="7.29621">
        <ele>826</ele>
        <time>2020-09-06T12:02:03.359Z</time>
      </trkpt>
      <trkpt lat="48.39696" lon="7.2962">
        <ele>827</ele>
        <time>2020-09-06T12:02:04.359Z</time>
      </trkpt>
      <trkpt lat="48.39698" lon="7.2962">
        <ele>827</ele>
        <time>2020-09-06T12:02:05.359Z</time>
      </trkpt>
      <trkpt lat="48.39699" lon="7.29619">
        <ele>827</ele>
        <time>2020-09-06T12:02:06.359Z</time>
      </trkpt>
      <trkpt lat="48.397" lon="7.29617">
        <ele>827</ele>
        <time>2020-09-06T12:02:07.359Z</time>
      </trkpt>
      <trkpt lat="48.39701" lon="7.29616">
        <ele>826</ele>
        <time>2020-09-06T12:02:08.359Z</time>
      </trkpt>
      <trkpt lat="48.39701" lon="7.29615">
        <ele>826</ele>
        <time>2020-09-06T12:02:09.358Z</time>
      </trkpt>
      <trkpt lat="48.39703" lon="7.29615">
        <ele>826</ele>
        <time>2020-09-06T12:02:10.359Z</time>
      </trkpt>
      <trkpt lat="48.39705" lon="7.29615">
        <ele>826</ele>
        <time>2020-09-06T12:02:11.359Z</time>
      </trkpt>
      <trkpt lat="48.39707" lon="7.29614">
        <ele>827</ele>
        <time>2020-09-06T12:02:12.359Z</time>
      </trkpt>
      <trkpt lat="48.39708" lon="7.29615">
        <ele>827</ele>
        <time>2020-09-06T12:02:13.359Z</time>
      </trkpt>
      <trkpt lat="48.39709" lon="7.29615">
        <ele>827</ele>
        <time>2020-09-06T12:02:14.359Z</time>
      </trkpt>
      <trkpt lat="48.3971" lon="7.29615">
        <ele>828</ele>
        <time>2020-09-06T12:02:15.358Z</time>
      </trkpt>
      <trkpt lat="48.3971" lon="7.29616">
        <ele>828</ele>
        <time>2020-09-06T12:02:16.359Z</time>
      </trkpt>
      <trkpt lat="48.39711" lon="7.29617">
        <ele>827</ele>
        <time>2020-09-06T12:02:17.358Z</time>
      </trkpt>
      <trkpt lat="48.39712" lon="7.29618">
        <ele>827</ele>
        <time>2020-09-06T12:02:18.359Z</time>
      </trkpt>
      <trkpt lat="48.39713" lon="7.29619">
        <ele>826</ele>
        <time>2020-09-06T12:02:19.359Z</time>
      </trkpt>
      <trkpt lat="48.39715" lon="7.2962">
        <ele>826</ele>
        <time>2020-09-06T12:02:20.359Z</time>
      </trkpt>
      <trkpt lat="48.39716" lon="7.2962">
        <ele>826</ele>
        <time>2020-09-06T12:02:21.359Z</time>
      </trkpt>
      <trkpt lat="48.39717" lon="7.2962">
        <ele>826</ele>
        <time>2020-09-06T12:02:22.358Z</time>
      </trkpt>
      <trkpt lat="48.39717" lon="7.2962">
        <ele>826</ele>
        <time>2020-09-06T12:02:23.359Z</time>
      </trkpt>
      <trkpt lat="48.39718" lon="7.29619">
        <ele>826</ele>
        <time>2020-09-06T12:02:24.358Z</time>
      </trkpt>
      <trkpt lat="48.39719" lon="7.29619">
        <ele>826</ele>
        <time>2020-09-06T12:02:25.358Z</time>
      </trkpt>
      <trkpt lat="48.3972" lon="7.29618">
        <ele>827</ele>
        <time>2020-09-06T12:02:26.358Z</time>
      </trkpt>
      <trkpt lat="48.39721" lon="7.29618">
        <ele>827</ele>
        <time>2020-09-06T12:02:27.359Z</time>
      </trkpt>
      <trkpt lat="48.39723" lon="7.29618">
        <ele>827</ele>
        <time>2020-09-06T12:02:28.359Z</time>
      </trkpt>
      <trkpt lat="48.39725" lon="7.29618">
        <ele>827</ele>
        <time>2020-09-06T12:02:29.358Z</time>
      </trkpt>
      <trkpt lat="48.39726" lon="7.29618">
        <ele>828</ele>
        <time>2020-09-06T12:02:30.358Z</time>
      </trkpt>
      <trkpt lat="48.39727" lon="7.29618">
        <ele>828</ele>
        <time>2020-09-06T12:02:31.358Z</time>
      </trkpt>
      <trkpt lat="48.39728" lon="7.29618">
        <ele>828</ele>
        <time>2020-09-06T12:02:32.359Z</time>
      </trkpt>
      <trkpt lat="48.39729" lon="7.29618">
        <ele>829</ele>
        <time>2020-09-06T12:02:33.359Z</time>
      </trkpt>
      <trkpt lat="48.3973" lon="7.29619">
        <ele>829</ele>
        <time>2020-09-06T12:02:34.359Z</time>
      </trkpt>
      <trkpt lat="48.39731" lon="7.29619">
        <ele>829</ele>
        <time>2020-09-06T12:02:35.359Z</time>
      </trkpt>
      <trkpt lat="48.39732" lon="7.2962">
        <ele>829</ele>
        <time>2020-09-06T12:02:36.358Z</time>
      </trkpt>
      <trkpt lat="48.39733" lon="7.2962">
        <ele>830</ele>
        <time>2020-09-06T12:02:37.358Z</time>
      </trkpt>
      <trkpt lat="48.39734" lon="7.29621">
        <ele>830</ele>
        <time>2020-09-06T12:02:38.359Z</time>
      </trkpt>
      <trkpt lat="48.39736" lon="7.29621">
        <ele>830</ele>
        <time>2020-09-06T12:02:39.359Z</time>
      </trkpt>
      <trkpt lat="48.39737" lon="7.2962">
        <ele>830</ele>
        <time>2020-09-06T12:02:40.359Z</time>
      </trkpt>
      <trkpt lat="48.39737" lon="7.29619">
        <ele>831</ele>
        <time>2020-09-06T12:02:41.359Z</time>
      </trkpt>
      <trkpt lat="48.39738" lon="7.29618">
        <ele>831</ele>
        <time>2020-09-06T12:02:42.358Z</time>
      </trkpt>
      <trkpt lat="48.39738" lon="7.29618">
        <ele>832</ele>
        <time>2020-09-06T12:02:43.359Z</time>
      </trkpt>
      <trkpt lat="48.39738" lon="7.29619">
        <ele>832</ele>
        <time>2020-09-06T12:02:44.359Z</time>
      </trkpt>
      <trkpt lat="48.39739" lon="7.29619">
        <ele>833</ele>
        <time>2020-09-06T12:02:45.359Z</time>
      </trkpt>
      <trkpt lat="48.39741" lon="7.29619">
        <ele>833</ele>
        <time>2020-09-06T12:02:46.359Z</time>
      </trkpt>
      <trkpt lat="48.39742" lon="7.2962">
        <ele>834</ele>
        <time>2020-09-06T12:02:47.358Z</time>
      </trkpt>
      <trkpt lat="48.39743" lon="7.2962">
        <ele>834</ele>
        <time>2020-09-06T12:02:48.359Z</time>
      </trkpt>
      <trkpt lat="48.39745" lon="7.2962">
        <ele>834</ele>
        <time>2020-09-06T12:02:49.359Z</time>
      </trkpt>
      <trkpt lat="48.39746" lon="7.29621">
        <ele>835</ele>
        <time>2020-09-06T12:02:50.358Z</time>
      </trkpt>
      <trkpt lat="48.39747" lon="7.29621">
        <ele>835</ele>
        <time>2020-09-06T12:02:51.358Z</time>
      </trkpt>
      <trkpt lat="48.39748" lon="7.29621">
        <ele>835</ele>
        <time>2020-09-06T12:02:52.358Z</time>
      </trkpt>
      <trkpt lat="48.39749" lon="7.29621">
        <ele>834</ele>
        <time>2020-09-06T12:02:53.359Z</time>
      </trkpt>
      <trkpt lat="48.3975" lon="7.29621">
        <ele>834</ele>
        <time>2020-09-06T12:02:54.358Z</time>
      </trkpt>
      <trkpt lat="48.39751" lon="7.29621">
        <ele>834</ele>
        <time>2020-09-06T12:02:55.359Z</time>
      </trkpt>
      <trkpt lat="48.39752" lon="7.29622">
        <ele>834</ele>
        <time>2020-09-06T12:02:56.359Z</time>
      </trkpt>
      <trkpt lat="48.39754" lon="7.29622">
        <ele>833</ele>
        <time>2020-09-06T12:02:57.359Z</time>
      </trkpt>
      <trkpt lat="48.39755" lon="7.29621">
        <ele>833</ele>
        <time>2020-09-06T12:02:58.359Z</time>
      </trkpt>
      <trkpt lat="48.39756" lon="7.29621">
        <ele>833</ele>
        <time>2020-09-06T12:02:59.358Z</time>
      </trkpt>
      <trkpt lat="48.39757" lon="7.2962">
        <ele>833</ele>
        <time>2020-09-06T12:03:00.359Z</time>
      </trkpt>
      <trkpt lat="48.39759" lon="7.2962">
        <ele>832</ele>
        <time>2020-09-06T12:03:01.359Z</time>
      </trkpt>
      <trkpt lat="48.39761" lon="7.2962">
        <ele>833</ele>
        <time>2020-09-06T12:03:02.359Z</time>
      </trkpt>
      <trkpt lat="48.39764" lon="7.29621">
        <ele>833</ele>
        <time>2020-09-06T12:03:03.359Z</time>
      </trkpt>
      <trkpt lat="48.39766" lon="7.29622">
        <ele>833</ele>
        <time>2020-09-06T12:03:04.359Z</time>
      </trkpt>
      <trkpt lat="48.39768" lon="7.29623">
        <ele>833</ele>
        <time>2020-09-06T12:03:05.358Z</time>
      </trkpt>
      <trkpt lat="48.39769" lon="7.29623">
        <ele>833</ele>
        <time>2020-09-06T12:03:06.358Z</time>
      </trkpt>
      <trkpt lat="48.3977" lon="7.29624">
        <ele>833</ele>
        <time>2020-09-06T12:03:07.358Z</time>
      </trkpt>
      <trkpt lat="48.39771" lon="7.29624">
        <ele>833</ele>
        <time>2020-09-06T12:03:08.358Z</time>
      </trkpt>
      <trkpt lat="48.39772" lon="7.29626">
        <ele>833</ele>
        <time>2020-09-06T12:03:09.358Z</time>
      </trkpt>
      <trkpt lat="48.39773" lon="7.29627">
        <ele>832</ele>
        <time>2020-09-06T12:03:10.358Z</time>
      </trkpt>
      <trkpt lat="48.39773" lon="7.29628">
        <ele>831</ele>
        <time>2020-09-06T12:03:11.358Z</time>
      </trkpt>
      <trkpt lat="48.39775" lon="7.29629">
        <ele>831</ele>
        <time>2020-09-06T12:03:12.358Z</time>
      </trkpt>
      <trkpt lat="48.39776" lon="7.29631">
        <ele>830</ele>
        <time>2020-09-06T12:03:13.359Z</time>
      </trkpt>
      <trkpt lat="48.39778" lon="7.29632">
        <ele>830</ele>
        <time>2020-09-06T12:03:14.359Z</time>
      </trkpt>
      <trkpt lat="48.3978" lon="7.29633">
        <ele>829</ele>
        <time>2020-09-06T12:03:15.358Z</time>
      </trkpt>
      <trkpt lat="48.39782" lon="7.29634">
        <ele>829</ele>
        <time>2020-09-06T12:03:16.359Z</time>
      </trkpt>
      <trkpt lat="48.39783" lon="7.29636">
        <ele>828</ele>
        <time>2020-09-06T12:03:17.359Z</time>
      </trkpt>
      <trkpt lat="48.39785" lon="7.29637">
        <ele>827</ele>
        <time>2020-09-06T12:03:18.359Z</time>
      </trkpt>
      <trkpt lat="48.39786" lon="7.29637">
        <ele>827</ele>
        <time>2020-09-06T12:03:19.359Z</time>
      </trkpt>
      <trkpt lat="48.39786" lon="7.29638">
        <ele>826</ele>
        <time>2020-09-06T12:03:20.358Z</time>
      </trkpt>
      <trkpt lat="48.39787" lon="7.29638">
        <ele>825</ele>
        <time>2020-09-06T12:03:21.359Z</time>
      </trkpt>
      <trkpt lat="48.39788" lon="7.29639">
        <ele>824</ele>
        <time>2020-09-06T12:03:22.359Z</time>
      </trkpt>
      <trkpt lat="48.39789" lon="7.2964">
        <ele>824</ele>
        <time>2020-09-06T12:03:23.359Z</time>
      </trkpt>
      <trkpt lat="48.3979" lon="7.2964">
        <ele>824</ele>
        <time>2020-09-06T12:03:24.359Z</time>
      </trkpt>
      <trkpt lat="48.39791" lon="7.29641">
        <ele>824</ele>
        <time>2020-09-06T12:03:25.359Z</time>
      </trkpt>
      <trkpt lat="48.39792" lon="7.29641">
        <ele>824</ele>
        <time>2020-09-06T12:03:26.359Z</time>
      </trkpt>
      <trkpt lat="48.39793" lon="7.29642">
        <ele>824</ele>
        <time>2020-09-06T12:03:27.359Z</time>
      </trkpt>
      <trkpt lat="48.39794" lon="7.29643">
        <ele>824</ele>
        <time>2020-09-06T12:03:28.358Z</time>
      </trkpt>
      <trkpt lat="48.39795" lon="7.29644">
        <ele>824</ele>
        <time>2020-09-06T12:03:29.359Z</time>
      </trkpt>
      <trkpt lat="48.39796" lon="7.29645">
        <ele>824</ele>
        <time>2020-09-06T12:03:30.358Z</time>
      </trkpt>
      <trkpt lat="48.39797" lon="7.29645">
        <ele>824</ele>
        <time>2020-09-06T12:03:31.359Z</time>
      </trkpt>
      <trkpt lat="48.39798" lon="7.29645">
        <ele>824</ele>
        <time>2020-09-06T12:03:32.359Z</time>
      </trkpt>
      <trkpt lat="48.39799" lon="7.29645">
        <ele>824</ele>
        <time>2020-09-06T12:03:33.359Z</time>
      </trkpt>
      <trkpt lat="48.39801" lon="7.29644">
        <ele>824</ele>
        <time>2020-09-06T12:03:34.359Z</time>
      </trkpt>
      <trkpt lat="48.39802" lon="7.29643">
        <ele>824</ele>
        <time>2020-09-06T12:03:35.359Z</time>
      </trkpt>
      <trkpt lat="48.39804" lon="7.29642">
        <ele>824</ele>
        <time>2020-09-06T12:03:36.358Z</time>
      </trkpt>
      <trkpt lat="48.39805" lon="7.29642">
        <ele>824</ele>
        <time>2020-09-06T12:03:37.358Z</time>
      </trkpt>
      <trkpt lat="48.39806" lon="7.29642">
        <ele>824</ele>
        <time>2020-09-06T12:03:38.359Z</time>
      </trkpt>
      <trkpt lat="48.39807" lon="7.29642">
        <ele>824</ele>
        <time>2020-09-06T12:03:39.359Z</time>
      </trkpt>
      <trkpt lat="48.39809" lon="7.29642">
        <ele>824</ele>
        <time>2020-09-06T12:03:40.358Z</time>
      </trkpt>
      <trkpt lat="48.3981" lon="7.29641">
        <ele>824</ele>
        <time>2020-09-06T12:03:41.359Z</time>
      </trkpt>
      <trkpt lat="48.39812" lon="7.29642">
        <ele>825</ele>
        <time>2020-09-06T12:03:42.358Z</time>
      </trkpt>
      <trkpt lat="48.39814" lon="7.29642">
        <ele>825</ele>
        <time>2020-09-06T12:03:43.359Z</time>
      </trkpt>
      <trkpt lat="48.39815" lon="7.29642">
        <ele>826</ele>
        <time>2020-09-06T12:03:44.359Z</time>
      </trkpt>
      <trkpt lat="48.39816" lon="7.29643">
        <ele>826</ele>
        <time>2020-09-06T12:03:45.359Z</time>
      </trkpt>
      <trkpt lat="48.39817" lon="7.29642">
        <ele>827</ele>
        <time>2020-09-06T12:03:46.359Z</time>
      </trkpt>
      <trkpt lat="48.39817" lon="7.29642">
        <ele>827</ele>
        <time>2020-09-06T12:03:47.359Z</time>
      </trkpt>
      <trkpt lat="48.39818" lon="7.29642">
        <ele>828</ele>
        <time>2020-09-06T12:03:48.359Z</time>
      </trkpt>
      <trkpt lat="48.39819" lon="7.29642">
        <ele>829</ele>
        <time>2020-09-06T12:03:49.359Z</time>
      </trkpt>
      <trkpt lat="48.39821" lon="7.29643">
        <ele>829</ele>
        <time>2020-09-06T12:03:50.358Z</time>
      </trkpt>
      <trkpt lat="48.39823" lon="7.29644">
        <ele>830</ele>
        <time>2020-09-06T12:03:51.359Z</time>
      </trkpt>
      <trkpt lat="48.39824" lon="7.29645">
        <ele>831</ele>
        <time>2020-09-06T12:03:52.358Z</time>
      </trkpt>
      <trkpt lat="48.39825" lon="7.29645">
        <ele>831</ele>
        <time>2020-09-06T12:03:53.359Z</time>
      </trkpt>
      <trkpt lat="48.39826" lon="7.29646">
        <ele>832</ele>
        <time>2020-09-06T12:03:54.359Z</time>
      </trkpt>
      <trkpt lat="48.39827" lon="7.29646">
        <ele>832</ele>
        <time>2020-09-06T12:03:55.359Z</time>
      </trkpt>
      <trkpt lat="48.39828" lon="7.29647">
        <ele>832</ele>
        <time>2020-09-06T12:03:56.359Z</time>
      </trkpt>
      <trkpt lat="48.39829" lon="7.29648">
        <ele>832</ele>
        <time>2020-09-06T12:03:57.358Z</time>
      </trkpt>
      <trkpt lat="48.39831" lon="7.29649">
        <ele>832</ele>
        <time>2020-09-06T12:03:58.358Z</time>
      </trkpt>
      <trkpt lat="48.39832" lon="7.29649">
        <ele>832</ele>
        <time>2020-09-06T12:03:59.358Z</time>
      </trkpt>
      <trkpt lat="48.39833" lon="7.2965">
        <ele>832</ele>
        <time>2020-09-06T12:04:00.358Z</time>
      </trkpt>
      <trkpt lat="48.39835" lon="7.29651">
        <ele>831</ele>
        <time>2020-09-06T12:04:01.359Z</time>
      </trkpt>
      <trkpt lat="48.39836" lon="7.29652">
        <ele>831</ele>
        <time>2020-09-06T12:04:02.359Z</time>
      </trkpt>
      <trkpt lat="48.39837" lon="7.29653">
        <ele>831</ele>
        <time>2020-09-06T12:04:03.359Z</time>
      </trkpt>
      <trkpt lat="48.39839" lon="7.29653">
        <ele>831</ele>
        <time>2020-09-06T12:04:04.359Z</time>
      </trkpt>
      <trkpt lat="48.3984" lon="7.29653">
        <ele>831</ele>
        <time>2020-09-06T12:04:05.359Z</time>
      </trkpt>
      <trkpt lat="48.39841" lon="7.29653">
        <ele>831</ele>
        <time>2020-09-06T12:04:06.359Z</time>
      </trkpt>
      <trkpt lat="48.39842" lon="7.29654">
        <ele>831</ele>
        <time>2020-09-06T12:04:07.359Z</time>
      </trkpt>
      <trkpt lat="48.39844" lon="7.29654">
        <ele>831</ele>
        <time>2020-09-06T12:04:08.358Z</time>
      </trkpt>
      <trkpt lat="48.39845" lon="7.29655">
        <ele>831</ele>
        <time>2020-09-06T12:04:09.359Z</time>
      </trkpt>
      <trkpt lat="48.39847" lon="7.29656">
        <ele>831</ele>
        <time>2020-09-06T12:04:10.359Z</time>
      </trkpt>
      <trkpt lat="48.39848" lon="7.29657">
        <ele>831</ele>
        <time>2020-09-06T12:04:11.358Z</time>
      </trkpt>
      <trkpt lat="48.39849" lon="7.29657">
        <ele>830</ele>
        <time>2020-09-06T12:04:12.359Z</time>
      </trkpt>
      <trkpt lat="48.3985" lon="7.29658">
        <ele>830</ele>
        <time>2020-09-06T12:04:13.359Z</time>
      </trkpt>
      <trkpt lat="48.39851" lon="7.29659">
        <ele>830</ele>
        <time>2020-09-06T12:04:14.359Z</time>
      </trkpt>
      <trkpt lat="48.39852" lon="7.29659">
        <ele>829</ele>
        <time>2020-09-06T12:04:15.359Z</time>
      </trkpt>
      <trkpt lat="48.39854" lon="7.2966">
        <ele>829</ele>
        <time>2020-09-06T12:04:16.359Z</time>
      </trkpt>
      <trkpt lat="48.39855" lon="7.2966">
        <ele>829</ele>
        <time>2020-09-06T12:04:17.359Z</time>
      </trkpt>
      <trkpt lat="48.39856" lon="7.2966">
        <ele>829</ele>
        <time>2020-09-06T12:04:18.358Z</time>
      </trkpt>
      <trkpt lat="48.39857" lon="7.2966">
        <ele>829</ele>
        <time>2020-09-06T12:04:19.358Z</time>
      </trkpt>
      <trkpt lat="48.39858" lon="7.2966">
        <ele>829</ele>
        <time>2020-09-06T12:04:20.359Z</time>
      </trkpt>
      <trkpt lat="48.3986" lon="7.29661">
        <ele>829</ele>
        <time>2020-09-06T12:04:21.358Z</time>
      </trkpt>
      <trkpt lat="48.39861" lon="7.29661">
        <ele>829</ele>
        <time>2020-09-06T12:04:22.359Z</time>
      </trkpt>
      <trkpt lat="48.39863" lon="7.29662">
        <ele>829</ele>
        <time>2020-09-06T12:04:23.359Z</time>
      </trkpt>
      <trkpt lat="48.39865" lon="7.29662">
        <ele>829</ele>
        <time>2020-09-06T12:04:24.359Z</time>
      </trkpt>
      <trkpt lat="48.39866" lon="7.29662">
        <ele>829</ele>
        <time>2020-09-06T12:04:25.359Z</time>
      </trkpt>
      <trkpt lat="48.39868" lon="7.29662">
        <ele>830</ele>
        <time>2020-09-06T12:04:26.358Z</time>
      </trkpt>
      <trkpt lat="48.39869" lon="7.29662">
        <ele>830</ele>
        <time>2020-09-06T12:04:27.358Z</time>
      </trkpt>
      <trkpt lat="48.39869" lon="7.29661">
        <ele>831</ele>
        <time>2020-09-06T12:04:28.358Z</time>
      </trkpt>
      <trkpt lat="48.3987" lon="7.29661">
        <ele>831</ele>
        <time>2020-09-06T12:04:29.359Z</time>
      </trkpt>
      <trkpt lat="48.39871" lon="7.29661">
        <ele>832</ele>
        <time>2020-09-06T12:04:30.358Z</time>
      </trkpt>
      <trkpt lat="48.39872" lon="7.29661">
        <ele>833</ele>
        <time>2020-09-06T12:04:31.358Z</time>
      </trkpt>
      <trkpt lat="48.39873" lon="7.2966">
        <ele>834</ele>
        <time>2020-09-06T12:04:32.359Z</time>
      </trkpt>
      <trkpt lat="48.39875" lon="7.29659">
        <ele>835</ele>
        <time>2020-09-06T12:04:33.359Z</time>
      </trkpt>
      <trkpt lat="48.39875" lon="7.29659">
        <ele>835</ele>
        <time>2020-09-06T12:04:34.359Z</time>
      </trkpt>
      <trkpt lat="48.39876" lon="7.29659">
        <ele>835</ele>
        <time>2020-09-06T12:04:35.359Z</time>
      </trkpt>
      <trkpt lat="48.39877" lon="7.29659">
        <ele>835</ele>
        <time>2020-09-06T12:04:36.359Z</time>
      </trkpt>
      <trkpt lat="48.39878" lon="7.29658">
        <ele>835</ele>
        <time>2020-09-06T12:04:37.359Z</time>
      </trkpt>
      <trkpt lat="48.39879" lon="7.29658">
        <ele>835</ele>
        <time>2020-09-06T12:04:38.359Z</time>
      </trkpt>
      <trkpt lat="48.3988" lon="7.29657">
        <ele>836</ele>
        <time>2020-09-06T12:04:39.359Z</time>
      </trkpt>
      <trkpt lat="48.39881" lon="7.29657">
        <ele>836</ele>
        <time>2020-09-06T12:04:40.359Z</time>
      </trkpt>
      <trkpt lat="48.39882" lon="7.29656">
        <ele>837</ele>
        <time>2020-09-06T12:04:41.359Z</time>
      </trkpt>
      <trkpt lat="48.39883" lon="7.29652">
        <ele>837</ele>
        <time>2020-09-06T12:04:42.359Z</time>
      </trkpt>
      <trkpt lat="48.39884" lon="7.29651">
        <ele>838</ele>
        <time>2020-09-06T12:04:43.358Z</time>
      </trkpt>
      <trkpt lat="48.39884" lon="7.29651">
        <ele>838</ele>
        <time>2020-09-06T12:04:44.359Z</time>
      </trkpt>
      <trkpt lat="48.39884" lon="7.29649">
        <ele>838</ele>
        <time>2020-09-06T12:04:45.358Z</time>
      </trkpt>
      <trkpt lat="48.39883" lon="7.29648">
        <ele>838</ele>
        <time>2020-09-06T12:04:46.358Z</time>
      </trkpt>
      <trkpt lat="48.39883" lon="7.29649">
        <ele>838</ele>
        <time>2020-09-06T12:04:47.359Z</time>
      </trkpt>
      <trkpt lat="48.39884" lon="7.29649">
        <ele>838</ele>
        <time>2020-09-06T12:04:48.359Z</time>
      </trkpt>
      <trkpt lat="48.39886" lon="7.29648">
        <ele>837</ele>
        <time>2020-09-06T12:04:49.359Z</time>
      </trkpt>
      <trkpt lat="48.39887" lon="7.29647">
        <ele>837</ele>
        <time>2020-09-06T12:04:50.359Z</time>
      </trkpt>
      <trkpt lat="48.39888" lon="7.29647">
        <ele>836</ele>
        <time>2020-09-06T12:04:51.358Z</time>
      </trkpt>
      <trkpt lat="48.39889" lon="7.29647">
        <ele>836</ele>
        <time>2020-09-06T12:04:52.359Z</time>
      </trkpt>
      <trkpt lat="48.39891" lon="7.29647">
        <ele>836</ele>
        <time>2020-09-06T12:04:53.359Z</time>
      </trkpt>
      <trkpt lat="48.39892" lon="7.29646">
        <ele>836</ele>
        <time>2020-09-06T12:04:54.358Z</time>
      </trkpt>
      <trkpt lat="48.39892" lon="7.29646">
        <ele>835</ele>
        <time>2020-09-06T12:04:55.358Z</time>
      </trkpt>
      <trkpt lat="48.39893" lon="7.29645">
        <ele>835</ele>
        <time>2020-09-06T12:04:56.359Z</time>
      </trkpt>
      <trkpt lat="48.39893" lon="7.29643">
        <ele>835</ele>
        <time>2020-09-06T12:04:57.359Z</time>
      </trkpt>
      <trkpt lat="48.39894" lon="7.29642">
        <ele>836</ele>
        <time>2020-09-06T12:04:58.359Z</time>
      </trkpt>
      <trkpt lat="48.39895" lon="7.29641">
        <ele>836</ele>
        <time>2020-09-06T12:04:59.359Z</time>
      </trkpt>
      <trkpt lat="48.39897" lon="7.29641">
        <ele>836</ele>
        <time>2020-09-06T12:05:00.359Z</time>
      </trkpt>
      <trkpt lat="48.39897" lon="7.2964">
        <ele>837</ele>
        <time>2020-09-06T12:05:01.359Z</time>
      </trkpt>
      <trkpt lat="48.39898" lon="7.2964">
        <ele>837</ele>
        <time>2020-09-06T12:05:02.359Z</time>
      </trkpt>
      <trkpt lat="48.39904" lon="7.29646">
        <ele>833</ele>
        <time>2020-09-06T12:05:03.359Z</time>
      </trkpt>
      <trkpt lat="48.39904" lon="7.29647">
        <ele>832</ele>
        <time>2020-09-06T12:05:04.359Z</time>
      </trkpt>
      <trkpt lat="48.39905" lon="7.29648">
        <ele>831</ele>
        <time>2020-09-06T12:05:05.359Z</time>
      </trkpt>
      <trkpt lat="48.39906" lon="7.29649">
        <ele>830</ele>
        <time>2020-09-06T12:05:06.359Z</time>
      </trkpt>
      <trkpt lat="48.39907" lon="7.2965">
        <ele>829</ele>
        <time>2020-09-06T12:05:07.359Z</time>
      </trkpt>
      <trkpt lat="48.39907" lon="7.29652">
        <ele>829</ele>
        <time>2020-09-06T12:05:08.359Z</time>
      </trkpt>
      <trkpt lat="48.39907" lon="7.29653">
        <ele>828</ele>
        <time>2020-09-06T12:05:09.358Z</time>
      </trkpt>
      <trkpt lat="48.39908" lon="7.29654">
        <ele>828</ele>
        <time>2020-09-06T12:05:10.358Z</time>
      </trkpt>
      <trkpt lat="48.39908" lon="7.29655">
        <ele>827</ele>
        <time>2020-09-06T12:05:11.359Z</time>
      </trkpt>
      <trkpt lat="48.39909" lon="7.29657">
        <ele>827</ele>
        <time>2020-09-06T12:05:12.359Z</time>
      </trkpt>
      <trkpt lat="48.3991" lon="7.29658">
        <ele>827</ele>
        <time>2020-09-06T12:05:16.367Z</time>
      </trkpt>
      <trkpt lat="48.39911" lon="7.2966">
        <ele>826</ele>
        <time>2020-09-06T12:05:17.368Z</time>
      </trkpt>
      <trkpt lat="48.39912" lon="7.29662">
        <ele>826</ele>
        <time>2020-09-06T12:05:18.367Z</time>
      </trkpt>
      <trkpt lat="48.39913" lon="7.29664">
        <ele>826</ele>
        <time>2020-09-06T12:05:19.368Z</time>
      </trkpt>
      <trkpt lat="48.39914" lon="7.29665">
        <ele>826</ele>
        <time>2020-09-06T12:05:20.368Z</time>
      </trkpt>
      <trkpt lat="48.39915" lon="7.29667">
        <ele>826</ele>
        <time>2020-09-06T12:05:21.368Z</time>
      </trkpt>
      <trkpt lat="48.39916" lon="7.2967">
        <ele>826</ele>
        <time>2020-09-06T12:05:23.486Z</time>
      </trkpt>
      <trkpt lat="48.39917" lon="7.29673">
        <ele>826</ele>
        <time>2020-09-06T12:05:24.486Z</time>
      </trkpt>
      <trkpt lat="48.39918" lon="7.29674">
        <ele>826</ele>
        <time>2020-09-06T12:05:25.486Z</time>
      </trkpt>
      <trkpt lat="48.39919" lon="7.29674">
        <ele>825</ele>
        <time>2020-09-06T12:05:26.486Z</time>
      </trkpt>
      <trkpt lat="48.39921" lon="7.29674">
        <ele>825</ele>
        <time>2020-09-06T12:05:27.485Z</time>
      </trkpt>
      <trkpt lat="48.39922" lon="7.29675">
        <ele>826</ele>
        <time>2020-09-06T12:05:30.593Z</time>
      </trkpt>
      <trkpt lat="48.39923" lon="7.29677">
        <ele>826</ele>
        <time>2020-09-06T12:05:31.592Z</time>
      </trkpt>
      <trkpt lat="48.39924" lon="7.29679">
        <ele>826</ele>
        <time>2020-09-06T12:05:32.593Z</time>
      </trkpt>
      <trkpt lat="48.39925" lon="7.29682">
        <ele>827</ele>
        <time>2020-09-06T12:05:58.752Z</time>
      </trkpt>
      <trkpt lat="48.39926" lon="7.29684">
        <ele>827</ele>
        <time>2020-09-06T12:05:59.752Z</time>
      </trkpt>
      <trkpt lat="48.39927" lon="7.29685">
        <ele>826</ele>
        <time>2020-09-06T12:06:00.752Z</time>
      </trkpt>
      <trkpt lat="48.39928" lon="7.29687">
        <ele>826</ele>
        <time>2020-09-06T12:06:01.752Z</time>
      </trkpt>
      <trkpt lat="48.39929" lon="7.29688">
        <ele>826</ele>
        <time>2020-09-06T12:06:02.751Z</time>
      </trkpt>
      <trkpt lat="48.3993" lon="7.29691">
        <ele>825</ele>
        <time>2020-09-06T12:06:03.752Z</time>
      </trkpt>
      <trkpt lat="48.3993" lon="7.29692">
        <ele>825</ele>
        <time>2020-09-06T12:06:04.752Z</time>
      </trkpt>
      <trkpt lat="48.39931" lon="7.29694">
        <ele>825</ele>
        <time>2020-09-06T12:06:05.751Z</time>
      </trkpt>
      <trkpt lat="48.39932" lon="7.29697">
        <ele>825</ele>
        <time>2020-09-06T12:06:06.752Z</time>
      </trkpt>
      <trkpt lat="48.39931" lon="7.29699">
        <ele>824</ele>
        <time>2020-09-06T12:06:07.752Z</time>
      </trkpt>
      <trkpt lat="48.39931" lon="7.297">
        <ele>824</ele>
        <time>2020-09-06T12:06:08.751Z</time>
      </trkpt>
      <trkpt lat="48.39931" lon="7.29701">
        <ele>823</ele>
        <time>2020-09-06T12:06:09.752Z</time>
      </trkpt>
      <trkpt lat="48.39932" lon="7.29703">
        <ele>823</ele>
        <time>2020-09-06T12:06:10.752Z</time>
      </trkpt>
      <trkpt lat="48.39932" lon="7.29705">
        <ele>822</ele>
        <time>2020-09-06T12:06:11.751Z</time>
      </trkpt>
      <trkpt lat="48.39933" lon="7.29706">
        <ele>822</ele>
        <time>2020-09-06T12:06:12.752Z</time>
      </trkpt>
      <trkpt lat="48.39933" lon="7.29708">
        <ele>821</ele>
        <time>2020-09-06T12:06:13.752Z</time>
      </trkpt>
      <trkpt lat="48.39934" lon="7.29709">
        <ele>820</ele>
        <time>2020-09-06T12:06:19.853Z</time>
      </trkpt>
      <trkpt lat="48.39935" lon="7.29711">
        <ele>819</ele>
        <time>2020-09-06T12:07:32.052Z</time>
      </trkpt>
      <trkpt lat="48.39936" lon="7.29712">
        <ele>818</ele>
        <time>2020-09-06T12:07:33.052Z</time>
      </trkpt>
      <trkpt lat="48.39936" lon="7.29714">
        <ele>817</ele>
        <time>2020-09-06T12:07:34.052Z</time>
      </trkpt>
      <trkpt lat="48.39936" lon="7.29714">
        <ele>816</ele>
        <time>2020-09-06T12:07:35.052Z</time>
      </trkpt>
      <trkpt lat="48.39937" lon="7.29716">
        <ele>815</ele>
        <time>2020-09-06T12:07:36.052Z</time>
      </trkpt>
      <trkpt lat="48.39937" lon="7.29717">
        <ele>815</ele>
        <time>2020-09-06T12:07:37.052Z</time>
      </trkpt>
      <trkpt lat="48.39938" lon="7.29718">
        <ele>814</ele>
        <time>2020-09-06T12:07:38.051Z</time>
      </trkpt>
      <trkpt lat="48.39938" lon="7.29719">
        <ele>814</ele>
        <time>2020-09-06T12:07:39.052Z</time>
      </trkpt>
      <trkpt lat="48.39938" lon="7.29721">
        <ele>813</ele>
        <time>2020-09-06T12:07:40.052Z</time>
      </trkpt>
      <trkpt lat="48.39938" lon="7.29722">
        <ele>812</ele>
        <time>2020-09-06T12:07:41.052Z</time>
      </trkpt>
      <trkpt lat="48.39938" lon="7.29722">
        <ele>812</ele>
        <time>2020-09-06T12:07:42.052Z</time>
      </trkpt>
      <trkpt lat="48.39938" lon="7.29723">
        <ele>812</ele>
        <time>2020-09-06T12:07:43.052Z</time>
      </trkpt>
      <trkpt lat="48.39938" lon="7.29724">
        <ele>811</ele>
        <time>2020-09-06T12:07:44.051Z</time>
      </trkpt>
      <trkpt lat="48.39939" lon="7.29726">
        <ele>811</ele>
        <time>2020-09-06T12:07:45.051Z</time>
      </trkpt>
      <trkpt lat="48.3994" lon="7.29727">
        <ele>810</ele>
        <time>2020-09-06T12:07:46.052Z</time>
      </trkpt>
      <trkpt lat="48.39941" lon="7.2973">
        <ele>810</ele>
        <time>2020-09-06T12:07:47.051Z</time>
      </trkpt>
      <trkpt lat="48.39942" lon="7.29731">
        <ele>809</ele>
        <time>2020-09-06T12:07:48.051Z</time>
      </trkpt>
      <trkpt lat="48.39942" lon="7.29733">
        <ele>809</ele>
        <time>2020-09-06T12:07:49.051Z</time>
      </trkpt>
      <trkpt lat="48.39943" lon="7.29733">
        <ele>808</ele>
        <time>2020-09-06T12:07:50.052Z</time>
      </trkpt>
      <trkpt lat="48.39944" lon="7.29733">
        <ele>808</ele>
        <time>2020-09-06T12:07:51.051Z</time>
      </trkpt>
      <trkpt lat="48.39945" lon="7.29734">
        <ele>808</ele>
        <time>2020-09-06T12:07:52.052Z</time>
      </trkpt>
      <trkpt lat="48.39945" lon="7.29735">
        <ele>807</ele>
        <time>2020-09-06T12:07:53.052Z</time>
      </trkpt>
      <trkpt lat="48.39946" lon="7.29736">
        <ele>806</ele>
        <time>2020-09-06T12:07:54.052Z</time>
      </trkpt>
      <trkpt lat="48.39947" lon="7.29737">
        <ele>806</ele>
        <time>2020-09-06T12:07:55.052Z</time>
      </trkpt>
      <trkpt lat="48.39948" lon="7.29738">
        <ele>805</ele>
        <time>2020-09-06T12:07:56.052Z</time>
      </trkpt>
      <trkpt lat="48.39948" lon="7.29738">
        <ele>805</ele>
        <time>2020-09-06T12:07:57.052Z</time>
      </trkpt>
      <trkpt lat="48.39949" lon="7.29738">
        <ele>805</ele>
        <time>2020-09-06T12:07:58.052Z</time>
      </trkpt>
      <trkpt lat="48.39949" lon="7.29739">
        <ele>806</ele>
        <time>2020-09-06T12:07:59.052Z</time>
      </trkpt>
      <trkpt lat="48.39949" lon="7.29739">
        <ele>806</ele>
        <time>2020-09-06T12:08:00.052Z</time>
      </trkpt>
      <trkpt lat="48.39949" lon="7.29741">
        <ele>807</ele>
        <time>2020-09-06T12:08:01.051Z</time>
      </trkpt>
      <trkpt lat="48.39949" lon="7.29742">
        <ele>807</ele>
        <time>2020-09-06T12:08:02.052Z</time>
      </trkpt>
      <trkpt lat="48.3995" lon="7.29744">
        <ele>807</ele>
        <time>2020-09-06T12:08:03.052Z</time>
      </trkpt>
      <trkpt lat="48.39951" lon="7.29745">
        <ele>807</ele>
        <time>2020-09-06T12:08:04.052Z</time>
      </trkpt>
      <trkpt lat="48.39951" lon="7.29746">
        <ele>807</ele>
        <time>2020-09-06T12:08:05.052Z</time>
      </trkpt>
      <trkpt lat="48.39952" lon="7.29748">
        <ele>808</ele>
        <time>2020-09-06T12:08:06.052Z</time>
      </trkpt>
      <trkpt lat="48.39952" lon="7.29749">
        <ele>808</ele>
        <time>2020-09-06T12:08:07.052Z</time>
      </trkpt>
      <trkpt lat="48.39953" lon="7.2975">
        <ele>808</ele>
        <time>2020-09-06T12:08:08.052Z</time>
      </trkpt>
      <trkpt lat="48.39954" lon="7.29751">
        <ele>808</ele>
        <time>2020-09-06T12:08:09.052Z</time>
      </trkpt>
      <trkpt lat="48.39954" lon="7.29753">
        <ele>809</ele>
        <time>2020-09-06T12:08:10.051Z</time>
      </trkpt>
      <trkpt lat="48.39955" lon="7.29754">
        <ele>809</ele>
        <time>2020-09-06T12:08:11.052Z</time>
      </trkpt>
      <trkpt lat="48.39955" lon="7.29756">
        <ele>809</ele>
        <time>2020-09-06T12:08:12.052Z</time>
      </trkpt>
      <trkpt lat="48.39956" lon="7.29758">
        <ele>809</ele>
        <time>2020-09-06T12:08:13.052Z</time>
      </trkpt>
      <trkpt lat="48.39956" lon="7.2976">
        <ele>809</ele>
        <time>2020-09-06T12:08:14.052Z</time>
      </trkpt>
      <trkpt lat="48.39957" lon="7.29761">
        <ele>809</ele>
        <time>2020-09-06T12:08:15.052Z</time>
      </trkpt>
      <trkpt lat="48.39957" lon="7.29763">
        <ele>809</ele>
        <time>2020-09-06T12:08:16.052Z</time>
      </trkpt>
      <trkpt lat="48.39956" lon="7.29764">
        <ele>809</ele>
        <time>2020-09-06T12:08:17.052Z</time>
      </trkpt>
      <trkpt lat="48.39956" lon="7.29765">
        <ele>809</ele>
        <time>2020-09-06T12:08:18.052Z</time>
      </trkpt>
      <trkpt lat="48.39956" lon="7.29766">
        <ele>810</ele>
        <time>2020-09-06T12:08:19.051Z</time>
      </trkpt>
      <trkpt lat="48.39957" lon="7.29767">
        <ele>810</ele>
        <time>2020-09-06T12:08:20.052Z</time>
      </trkpt>
      <trkpt lat="48.39957" lon="7.29768">
        <ele>810</ele>
        <time>2020-09-06T12:08:21.051Z</time>
      </trkpt>
      <trkpt lat="48.39956" lon="7.2977">
        <ele>810</ele>
        <time>2020-09-06T12:08:22.051Z</time>
      </trkpt>
      <trkpt lat="48.39956" lon="7.29771">
        <ele>811</ele>
        <time>2020-09-06T12:08:23.052Z</time>
      </trkpt>
      <trkpt lat="48.39956" lon="7.29772">
        <ele>811</ele>
        <time>2020-09-06T12:08:24.052Z</time>
      </trkpt>
      <trkpt lat="48.39957" lon="7.29773">
        <ele>811</ele>
        <time>2020-09-06T12:08:25.052Z</time>
      </trkpt>
      <trkpt lat="48.39957" lon="7.29774">
        <ele>811</ele>
        <time>2020-09-06T12:08:26.052Z</time>
      </trkpt>
      <trkpt lat="48.39957" lon="7.29776">
        <ele>810</ele>
        <time>2020-09-06T12:08:27.052Z</time>
      </trkpt>
      <trkpt lat="48.39958" lon="7.29778">
        <ele>809</ele>
        <time>2020-09-06T12:08:28.052Z</time>
      </trkpt>
      <trkpt lat="48.39959" lon="7.29779">
        <ele>809</ele>
        <time>2020-09-06T12:08:29.052Z</time>
      </trkpt>
      <trkpt lat="48.39959" lon="7.2978">
        <ele>809</ele>
        <time>2020-09-06T12:08:30.052Z</time>
      </trkpt>
      <trkpt lat="48.3996" lon="7.29782">
        <ele>809</ele>
        <time>2020-09-06T12:08:31.052Z</time>
      </trkpt>
      <trkpt lat="48.39961" lon="7.29783">
        <ele>809</ele>
        <time>2020-09-06T12:08:32.052Z</time>
      </trkpt>
      <trkpt lat="48.39961" lon="7.29786">
        <ele>809</ele>
        <time>2020-09-06T12:08:33.051Z</time>
      </trkpt>
      <trkpt lat="48.39962" lon="7.29788">
        <ele>808</ele>
        <time>2020-09-06T12:08:34.052Z</time>
      </trkpt>
      <trkpt lat="48.39962" lon="7.29789">
        <ele>808</ele>
        <time>2020-09-06T12:08:35.052Z</time>
      </trkpt>
      <trkpt lat="48.39962" lon="7.29791">
        <ele>808</ele>
        <time>2020-09-06T12:08:36.052Z</time>
      </trkpt>
      <trkpt lat="48.39962" lon="7.29794">
        <ele>807</ele>
        <time>2020-09-06T12:08:37.052Z</time>
      </trkpt>
      <trkpt lat="48.39962" lon="7.29796">
        <ele>807</ele>
        <time>2020-09-06T12:08:38.051Z</time>
      </trkpt>
      <trkpt lat="48.39962" lon="7.29796">
        <ele>806</ele>
        <time>2020-09-06T12:08:39.052Z</time>
      </trkpt>
      <trkpt lat="48.39961" lon="7.29796">
        <ele>806</ele>
        <time>2020-09-06T12:08:40.052Z</time>
      </trkpt>
      <trkpt lat="48.39961" lon="7.29796">
        <ele>805</ele>
        <time>2020-09-06T12:08:41.052Z</time>
      </trkpt>
      <trkpt lat="48.39961" lon="7.29797">
        <ele>805</ele>
        <time>2020-09-06T12:08:42.052Z</time>
      </trkpt>
      <trkpt lat="48.39961" lon="7.29798">
        <ele>804</ele>
        <time>2020-09-06T12:08:43.052Z</time>
      </trkpt>
      <trkpt lat="48.39961" lon="7.29798">
        <ele>804</ele>
        <time>2020-09-06T12:08:44.052Z</time>
      </trkpt>
      <trkpt lat="48.39962" lon="7.29799">
        <ele>803</ele>
        <time>2020-09-06T12:08:45.052Z</time>
      </trkpt>
      <trkpt lat="48.39963" lon="7.29799">
        <ele>803</ele>
        <time>2020-09-06T12:08:46.051Z</time>
      </trkpt>
      <trkpt lat="48.39963" lon="7.29799">
        <ele>803</ele>
        <time>2020-09-06T12:08:47.052Z</time>
      </trkpt>
      <trkpt lat="48.39964" lon="7.298">
        <ele>803</ele>
        <time>2020-09-06T12:08:48.052Z</time>
      </trkpt>
      <trkpt lat="48.39964" lon="7.298">
        <ele>803</ele>
        <time>2020-09-06T12:08:49.052Z</time>
      </trkpt>
      <trkpt lat="48.39965" lon="7.298">
        <ele>803</ele>
        <time>2020-09-06T12:08:50.052Z</time>
      </trkpt>
      <trkpt lat="48.39966" lon="7.29799">
        <ele>803</ele>
        <time>2020-09-06T12:08:51.052Z</time>
      </trkpt>
      <trkpt lat="48.39967" lon="7.29799">
        <ele>804</ele>
        <time>2020-09-06T12:08:52.052Z</time>
      </trkpt>
      <trkpt lat="48.39968" lon="7.29799">
        <ele>805</ele>
        <time>2020-09-06T12:08:53.052Z</time>
      </trkpt>
      <trkpt lat="48.3997" lon="7.298">
        <ele>806</ele>
        <time>2020-09-06T12:08:54.051Z</time>
      </trkpt>
      <trkpt lat="48.39971" lon="7.29801">
        <ele>806</ele>
        <time>2020-09-06T12:08:55.052Z</time>
      </trkpt>
      <trkpt lat="48.39972" lon="7.29802">
        <ele>806</ele>
        <time>2020-09-06T12:08:56.052Z</time>
      </trkpt>
      <trkpt lat="48.39972" lon="7.29803">
        <ele>805</ele>
        <time>2020-09-06T12:08:57.052Z</time>
      </trkpt>
      <trkpt lat="48.39973" lon="7.29804">
        <ele>805</ele>
        <time>2020-09-06T12:08:58.052Z</time>
      </trkpt>
      <trkpt lat="48.39974" lon="7.29804">
        <ele>805</ele>
        <time>2020-09-06T12:08:59.052Z</time>
      </trkpt>
      <trkpt lat="48.39974" lon="7.29803">
        <ele>805</ele>
        <time>2020-09-06T12:09:00.052Z</time>
      </trkpt>
      <trkpt lat="48.39974" lon="7.29803">
        <ele>804</ele>
        <time>2020-09-06T12:09:05.108Z</time>
      </trkpt>
      <trkpt lat="48.39974" lon="7.29803">
        <ele>804</ele>
        <time>2020-09-06T12:09:06.108Z</time>
      </trkpt>
      <trkpt lat="48.39978" lon="7.29806">
        <ele>803</ele>
        <time>2020-09-06T12:09:07.109Z</time>
      </trkpt>
      <trkpt lat="48.39979" lon="7.29807">
        <ele>802</ele>
        <time>2020-09-06T12:10:22.231Z</time>
      </trkpt>
      <trkpt lat="48.39979" lon="7.29809">
        <ele>802</ele>
        <time>2020-09-06T12:10:23.231Z</time>
      </trkpt>
      <trkpt lat="48.39979" lon="7.2981">
        <ele>801</ele>
        <time>2020-09-06T12:10:24.231Z</time>
      </trkpt>
      <trkpt lat="48.3998" lon="7.29811">
        <ele>800</ele>
        <time>2020-09-06T12:10:25.231Z</time>
      </trkpt>
      <trkpt lat="48.3998" lon="7.29812">
        <ele>800</ele>
        <time>2020-09-06T12:10:26.231Z</time>
      </trkpt>
      <trkpt lat="48.39981" lon="7.29813">
        <ele>799</ele>
        <time>2020-09-06T12:10:27.231Z</time>
      </trkpt>
      <trkpt lat="48.39981" lon="7.29813">
        <ele>798</ele>
        <time>2020-09-06T12:10:28.230Z</time>
      </trkpt>
      <trkpt lat="48.39982" lon="7.29813">
        <ele>797</ele>
        <time>2020-09-06T12:10:29.231Z</time>
      </trkpt>
      <trkpt lat="48.39983" lon="7.29814">
        <ele>796</ele>
        <time>2020-09-06T12:10:30.230Z</time>
      </trkpt>
      <trkpt lat="48.39983" lon="7.29815">
        <ele>795</ele>
        <time>2020-09-06T12:10:31.231Z</time>
      </trkpt>
      <trkpt lat="48.39984" lon="7.29816">
        <ele>795</ele>
        <time>2020-09-06T12:10:32.231Z</time>
      </trkpt>
      <trkpt lat="48.39986" lon="7.29817">
        <ele>794</ele>
        <time>2020-09-06T12:10:33.231Z</time>
      </trkpt>
      <trkpt lat="48.39988" lon="7.29819">
        <ele>793</ele>
        <time>2020-09-06T12:10:34.230Z</time>
      </trkpt>
      <trkpt lat="48.39988" lon="7.2982">
        <ele>793</ele>
        <time>2020-09-06T12:10:35.230Z</time>
      </trkpt>
      <trkpt lat="48.39988" lon="7.2982">
        <ele>793</ele>
        <time>2020-09-06T12:10:36.231Z</time>
      </trkpt>
      <trkpt lat="48.39988" lon="7.2982">
        <ele>793</ele>
        <time>2020-09-06T12:10:37.230Z</time>
      </trkpt>
      <trkpt lat="48.39989" lon="7.29819">
        <ele>793</ele>
        <time>2020-09-06T12:10:38.230Z</time>
      </trkpt>
      <trkpt lat="48.39989" lon="7.29819">
        <ele>793</ele>
        <time>2020-09-06T12:10:39.231Z</time>
      </trkpt>
      <trkpt lat="48.39989" lon="7.2982">
        <ele>793</ele>
        <time>2020-09-06T12:10:40.231Z</time>
      </trkpt>
      <trkpt lat="48.3999" lon="7.2982">
        <ele>793</ele>
        <time>2020-09-06T12:10:41.231Z</time>
      </trkpt>
      <trkpt lat="48.39991" lon="7.29821">
        <ele>794</ele>
        <time>2020-09-06T12:10:42.231Z</time>
      </trkpt>
      <trkpt lat="48.39991" lon="7.29822">
        <ele>794</ele>
        <time>2020-09-06T12:10:43.230Z</time>
      </trkpt>
      <trkpt lat="48.39992" lon="7.29823">
        <ele>795</ele>
        <time>2020-09-06T12:10:44.231Z</time>
      </trkpt>
      <trkpt lat="48.39992" lon="7.29825">
        <ele>795</ele>
        <time>2020-09-06T12:10:45.231Z</time>
      </trkpt>
      <trkpt lat="48.39992" lon="7.29826">
        <ele>795</ele>
        <time>2020-09-06T12:10:46.231Z</time>
      </trkpt>
      <trkpt lat="48.39992" lon="7.29827">
        <ele>795</ele>
        <time>2020-09-06T12:10:47.231Z</time>
      </trkpt>
      <trkpt lat="48.39993" lon="7.29828">
        <ele>795</ele>
        <time>2020-09-06T12:10:48.231Z</time>
      </trkpt>
      <trkpt lat="48.39993" lon="7.29828">
        <ele>795</ele>
        <time>2020-09-06T12:10:49.231Z</time>
      </trkpt>
      <trkpt lat="48.39993" lon="7.29829">
        <ele>795</ele>
        <time>2020-09-06T12:10:50.231Z</time>
      </trkpt>
      <trkpt lat="48.39994" lon="7.2983">
        <ele>794</ele>
        <time>2020-09-06T12:10:51.231Z</time>
      </trkpt>
      <trkpt lat="48.39995" lon="7.29832">
        <ele>794</ele>
        <time>2020-09-06T12:10:52.231Z</time>
      </trkpt>
      <trkpt lat="48.39995" lon="7.29833">
        <ele>793</ele>
        <time>2020-09-06T12:10:53.230Z</time>
      </trkpt>
      <trkpt lat="48.39995" lon="7.29835">
        <ele>793</ele>
        <time>2020-09-06T12:10:54.231Z</time>
      </trkpt>
      <trkpt lat="48.39996" lon="7.29836">
        <ele>792</ele>
        <time>2020-09-06T12:10:55.231Z</time>
      </trkpt>
      <trkpt lat="48.39996" lon="7.29838">
        <ele>791</ele>
        <time>2020-09-06T12:10:56.231Z</time>
      </trkpt>
      <trkpt lat="48.39996" lon="7.29839">
        <ele>791</ele>
        <time>2020-09-06T12:10:57.230Z</time>
      </trkpt>
      <trkpt lat="48.39996" lon="7.2984">
        <ele>790</ele>
        <time>2020-09-06T12:10:58.231Z</time>
      </trkpt>
      <trkpt lat="48.39996" lon="7.29841">
        <ele>790</ele>
        <time>2020-09-06T12:10:59.231Z</time>
      </trkpt>
      <trkpt lat="48.39997" lon="7.29843">
        <ele>790</ele>
        <time>2020-09-06T12:11:00.231Z</time>
      </trkpt>
      <trkpt lat="48.39997" lon="7.29844">
        <ele>789</ele>
        <time>2020-09-06T12:11:01.230Z</time>
      </trkpt>
      <trkpt lat="48.39998" lon="7.29845">
        <ele>789</ele>
        <time>2020-09-06T12:11:02.231Z</time>
      </trkpt>
      <trkpt lat="48.39998" lon="7.29845">
        <ele>790</ele>
        <time>2020-09-06T12:11:03.231Z</time>
      </trkpt>
      <trkpt lat="48.39999" lon="7.29845">
        <ele>790</ele>
        <time>2020-09-06T12:11:04.231Z</time>
      </trkpt>
      <trkpt lat="48.39999" lon="7.29845">
        <ele>790</ele>
        <time>2020-09-06T12:11:05.231Z</time>
      </trkpt>
      <trkpt lat="48.4" lon="7.29845">
        <ele>790</ele>
        <time>2020-09-06T12:11:06.231Z</time>
      </trkpt>
      <trkpt lat="48.40001" lon="7.29844">
        <ele>791</ele>
        <time>2020-09-06T12:11:07.230Z</time>
      </trkpt>
      <trkpt lat="48.40001" lon="7.29844">
        <ele>791</ele>
        <time>2020-09-06T12:11:08.231Z</time>
      </trkpt>
      <trkpt lat="48.40002" lon="7.29844">
        <ele>791</ele>
        <time>2020-09-06T12:11:09.231Z</time>
      </trkpt>
      <trkpt lat="48.40003" lon="7.29845">
        <ele>792</ele>
        <time>2020-09-06T12:11:10.231Z</time>
      </trkpt>
      <trkpt lat="48.40003" lon="7.29847">
        <ele>792</ele>
        <time>2020-09-06T12:11:11.231Z</time>
      </trkpt>
      <trkpt lat="48.40004" lon="7.29849">
        <ele>792</ele>
        <time>2020-09-06T12:11:12.231Z</time>
      </trkpt>
      <trkpt lat="48.40004" lon="7.29851">
        <ele>792</ele>
        <time>2020-09-06T12:11:13.231Z</time>
      </trkpt>
      <trkpt lat="48.40004" lon="7.29852">
        <ele>792</ele>
        <time>2020-09-06T12:11:14.231Z</time>
      </trkpt>
      <trkpt lat="48.40005" lon="7.29853">
        <ele>792</ele>
        <time>2020-09-06T12:11:15.230Z</time>
      </trkpt>
      <trkpt lat="48.40006" lon="7.29854">
        <ele>793</ele>
        <time>2020-09-06T12:11:16.230Z</time>
      </trkpt>
      <trkpt lat="48.40007" lon="7.29854">
        <ele>793</ele>
        <time>2020-09-06T12:11:17.230Z</time>
      </trkpt>
      <trkpt lat="48.40007" lon="7.29855">
        <ele>793</ele>
        <time>2020-09-06T12:11:18.231Z</time>
      </trkpt>
      <trkpt lat="48.40008" lon="7.29855">
        <ele>793</ele>
        <time>2020-09-06T12:11:19.230Z</time>
      </trkpt>
      <trkpt lat="48.40008" lon="7.29855">
        <ele>793</ele>
        <time>2020-09-06T12:11:20.230Z</time>
      </trkpt>
      <trkpt lat="48.40008" lon="7.29855">
        <ele>793</ele>
        <time>2020-09-06T12:11:21.231Z</time>
      </trkpt>
      <trkpt lat="48.40009" lon="7.29855">
        <ele>793</ele>
        <time>2020-09-06T12:11:22.231Z</time>
      </trkpt>
      <trkpt lat="48.4001" lon="7.29856">
        <ele>793</ele>
        <time>2020-09-06T12:11:23.231Z</time>
      </trkpt>
      <trkpt lat="48.40011" lon="7.29857">
        <ele>793</ele>
        <time>2020-09-06T12:11:24.231Z</time>
      </trkpt>
      <trkpt lat="48.40012" lon="7.29858">
        <ele>792</ele>
        <time>2020-09-06T12:11:25.231Z</time>
      </trkpt>
      <trkpt lat="48.40012" lon="7.29861">
        <ele>791</ele>
        <time>2020-09-06T12:11:26.230Z</time>
      </trkpt>
      <trkpt lat="48.40012" lon="7.29863">
        <ele>789</ele>
        <time>2020-09-06T12:11:27.231Z</time>
      </trkpt>
      <trkpt lat="48.40011" lon="7.29865">
        <ele>788</ele>
        <time>2020-09-06T12:11:28.231Z</time>
      </trkpt>
      <trkpt lat="48.40011" lon="7.29867">
        <ele>787</ele>
        <time>2020-09-06T12:11:29.231Z</time>
      </trkpt>
      <trkpt lat="48.4001" lon="7.29869">
        <ele>786</ele>
        <time>2020-09-06T12:11:30.231Z</time>
      </trkpt>
      <trkpt lat="48.4001" lon="7.2987">
        <ele>785</ele>
        <time>2020-09-06T12:11:31.231Z</time>
      </trkpt>
      <trkpt lat="48.4001" lon="7.29871">
        <ele>784</ele>
        <time>2020-09-06T12:11:32.231Z</time>
      </trkpt>
      <trkpt lat="48.40009" lon="7.29873">
        <ele>783</ele>
        <time>2020-09-06T12:11:33.231Z</time>
      </trkpt>
      <trkpt lat="48.40009" lon="7.29875">
        <ele>781</ele>
        <time>2020-09-06T12:11:34.231Z</time>
      </trkpt>
      <trkpt lat="48.40009" lon="7.29876">
        <ele>780</ele>
        <time>2020-09-06T12:11:35.231Z</time>
      </trkpt>
      <trkpt lat="48.40009" lon="7.29878">
        <ele>779</ele>
        <time>2020-09-06T12:11:36.230Z</time>
      </trkpt>
      <trkpt lat="48.40009" lon="7.2988">
        <ele>779</ele>
        <time>2020-09-06T12:11:37.231Z</time>
      </trkpt>
      <trkpt lat="48.40008" lon="7.29881">
        <ele>778</ele>
        <time>2020-09-06T12:11:38.231Z</time>
      </trkpt>
      <trkpt lat="48.40009" lon="7.29882">
        <ele>777</ele>
        <time>2020-09-06T12:11:39.230Z</time>
      </trkpt>
      <trkpt lat="48.40009" lon="7.29884">
        <ele>777</ele>
        <time>2020-09-06T12:11:40.231Z</time>
      </trkpt>
      <trkpt lat="48.40009" lon="7.29887">
        <ele>776</ele>
        <time>2020-09-06T12:11:41.231Z</time>
      </trkpt>
      <trkpt lat="48.40009" lon="7.29889">
        <ele>775</ele>
        <time>2020-09-06T12:11:42.231Z</time>
      </trkpt>
      <trkpt lat="48.40008" lon="7.29892">
        <ele>774</ele>
        <time>2020-09-06T12:11:43.231Z</time>
      </trkpt>
      <trkpt lat="48.40008" lon="7.29895">
        <ele>773</ele>
        <time>2020-09-06T12:11:44.231Z</time>
      </trkpt>
      <trkpt lat="48.4001" lon="7.29898">
        <ele>772</ele>
        <time>2020-09-06T12:11:45.231Z</time>
      </trkpt>
      <trkpt lat="48.40011" lon="7.29901">
        <ele>771</ele>
        <time>2020-09-06T12:11:46.231Z</time>
      </trkpt>
      <trkpt lat="48.4001" lon="7.29902">
        <ele>771</ele>
        <time>2020-09-06T12:11:47.231Z</time>
      </trkpt>
      <trkpt lat="48.40009" lon="7.29903">
        <ele>771</ele>
        <time>2020-09-06T12:11:48.231Z</time>
      </trkpt>
      <trkpt lat="48.40008" lon="7.29905">
        <ele>771</ele>
        <time>2020-09-06T12:11:49.231Z</time>
      </trkpt>
      <trkpt lat="48.40007" lon="7.29906">
        <ele>771</ele>
        <time>2020-09-06T12:11:50.231Z</time>
      </trkpt>
      <trkpt lat="48.40006" lon="7.29908">
        <ele>772</ele>
        <time>2020-09-06T12:11:51.231Z</time>
      </trkpt>
      <trkpt lat="48.40006" lon="7.29911">
        <ele>772</ele>
        <time>2020-09-06T12:11:52.230Z</time>
      </trkpt>
      <trkpt lat="48.40006" lon="7.29912">
        <ele>772</ele>
        <time>2020-09-06T12:11:53.231Z</time>
      </trkpt>
      <trkpt lat="48.40006" lon="7.29914">
        <ele>772</ele>
        <time>2020-09-06T12:11:54.231Z</time>
      </trkpt>
      <trkpt lat="48.40005" lon="7.29916">
        <ele>772</ele>
        <time>2020-09-06T12:11:55.231Z</time>
      </trkpt>
      <trkpt lat="48.40005" lon="7.29917">
        <ele>772</ele>
        <time>2020-09-06T12:11:56.231Z</time>
      </trkpt>
      <trkpt lat="48.40005" lon="7.29918">
        <ele>772</ele>
        <time>2020-09-06T12:11:57.231Z</time>
      </trkpt>
      <trkpt lat="48.40004" lon="7.29919">
        <ele>773</ele>
        <time>2020-09-06T12:11:58.231Z</time>
      </trkpt>
      <trkpt lat="48.40004" lon="7.29921">
        <ele>773</ele>
        <time>2020-09-06T12:11:59.231Z</time>
      </trkpt>
      <trkpt lat="48.40004" lon="7.29923">
        <ele>773</ele>
        <time>2020-09-06T12:12:00.231Z</time>
      </trkpt>
      <trkpt lat="48.40003" lon="7.29926">
        <ele>773</ele>
        <time>2020-09-06T12:12:01.231Z</time>
      </trkpt>
      <trkpt lat="48.40002" lon="7.29929">
        <ele>773</ele>
        <time>2020-09-06T12:12:02.231Z</time>
      </trkpt>
      <trkpt lat="48.40001" lon="7.29931">
        <ele>773</ele>
        <time>2020-09-06T12:12:03.231Z</time>
      </trkpt>
      <trkpt lat="48.4" lon="7.29933">
        <ele>773</ele>
        <time>2020-09-06T12:12:04.231Z</time>
      </trkpt>
      <trkpt lat="48.4" lon="7.29935">
        <ele>773</ele>
        <time>2020-09-06T12:12:05.231Z</time>
      </trkpt>
      <trkpt lat="48.4" lon="7.29936">
        <ele>773</ele>
        <time>2020-09-06T12:12:06.231Z</time>
      </trkpt>
      <trkpt lat="48.4" lon="7.29937">
        <ele>773</ele>
        <time>2020-09-06T12:12:07.231Z</time>
      </trkpt>
      <trkpt lat="48.39999" lon="7.29938">
        <ele>773</ele>
        <time>2020-09-06T12:12:08.231Z</time>
      </trkpt>
      <trkpt lat="48.39999" lon="7.2994">
        <ele>773</ele>
        <time>2020-09-06T12:12:09.231Z</time>
      </trkpt>
      <trkpt lat="48.39999" lon="7.29942">
        <ele>773</ele>
        <time>2020-09-06T12:12:10.231Z</time>
      </trkpt>
      <trkpt lat="48.39998" lon="7.29943">
        <ele>772</ele>
        <time>2020-09-06T12:12:11.230Z</time>
      </trkpt>
      <trkpt lat="48.39998" lon="7.29946">
        <ele>772</ele>
        <time>2020-09-06T12:12:12.231Z</time>
      </trkpt>
      <trkpt lat="48.39998" lon="7.29947">
        <ele>771</ele>
        <time>2020-09-06T12:12:13.231Z</time>
      </trkpt>
      <trkpt lat="48.39997" lon="7.29948">
        <ele>771</ele>
        <time>2020-09-06T12:12:14.231Z</time>
      </trkpt>
      <trkpt lat="48.39997" lon="7.2995">
        <ele>770</ele>
        <time>2020-09-06T12:12:15.231Z</time>
      </trkpt>
      <trkpt lat="48.39996" lon="7.29951">
        <ele>770</ele>
        <time>2020-09-06T12:12:16.230Z</time>
      </trkpt>
      <trkpt lat="48.39996" lon="7.29953">
        <ele>769</ele>
        <time>2020-09-06T12:12:17.231Z</time>
      </trkpt>
      <trkpt lat="48.39995" lon="7.29955">
        <ele>768</ele>
        <time>2020-09-06T12:12:18.231Z</time>
      </trkpt>
      <trkpt lat="48.39994" lon="7.29957">
        <ele>768</ele>
        <time>2020-09-06T12:12:19.230Z</time>
      </trkpt>
      <trkpt lat="48.39993" lon="7.29959">
        <ele>767</ele>
        <time>2020-09-06T12:12:20.231Z</time>
      </trkpt>
      <trkpt lat="48.39991" lon="7.29961">
        <ele>767</ele>
        <time>2020-09-06T12:12:21.231Z</time>
      </trkpt>
      <trkpt lat="48.39989" lon="7.29962">
        <ele>766</ele>
        <time>2020-09-06T12:12:22.230Z</time>
      </trkpt>
      <trkpt lat="48.39988" lon="7.29962">
        <ele>766</ele>
        <time>2020-09-06T12:12:23.231Z</time>
      </trkpt>
      <trkpt lat="48.39987" lon="7.29963">
        <ele>765</ele>
        <time>2020-09-06T12:12:24.231Z</time>
      </trkpt>
      <trkpt lat="48.39986" lon="7.29965">
        <ele>764</ele>
        <time>2020-09-06T12:12:25.231Z</time>
      </trkpt>
      <trkpt lat="48.39985" lon="7.29966">
        <ele>764</ele>
        <time>2020-09-06T12:12:26.231Z</time>
      </trkpt>
      <trkpt lat="48.39984" lon="7.29968">
        <ele>764</ele>
        <time>2020-09-06T12:12:27.231Z</time>
      </trkpt>
      <trkpt lat="48.39983" lon="7.29969">
        <ele>763</ele>
        <time>2020-09-06T12:12:28.231Z</time>
      </trkpt>
      <trkpt lat="48.39982" lon="7.2997">
        <ele>763</ele>
        <time>2020-09-06T12:12:29.231Z</time>
      </trkpt>
      <trkpt lat="48.39981" lon="7.29972">
        <ele>763</ele>
        <time>2020-09-06T12:12:30.231Z</time>
      </trkpt>
      <trkpt lat="48.3998" lon="7.29972">
        <ele>762</ele>
        <time>2020-09-06T12:12:31.231Z</time>
      </trkpt>
      <trkpt lat="48.39978" lon="7.29974">
        <ele>761</ele>
        <time>2020-09-06T12:12:32.231Z</time>
      </trkpt>
      <trkpt lat="48.39977" lon="7.29974">
        <ele>760</ele>
        <time>2020-09-06T12:12:33.231Z</time>
      </trkpt>
      <trkpt lat="48.39976" lon="7.29975">
        <ele>760</ele>
        <time>2020-09-06T12:12:34.231Z</time>
      </trkpt>
      <trkpt lat="48.39975" lon="7.29975">
        <ele>759</ele>
        <time>2020-09-06T12:12:35.231Z</time>
      </trkpt>
      <trkpt lat="48.39974" lon="7.29976">
        <ele>759</ele>
        <time>2020-09-06T12:12:36.231Z</time>
      </trkpt>
      <trkpt lat="48.39973" lon="7.29977">
        <ele>758</ele>
        <time>2020-09-06T12:12:37.231Z</time>
      </trkpt>
      <trkpt lat="48.39973" lon="7.29977">
        <ele>758</ele>
        <time>2020-09-06T12:12:38.231Z</time>
      </trkpt>
      <trkpt lat="48.39973" lon="7.29978">
        <ele>759</ele>
        <time>2020-09-06T12:12:39.231Z</time>
      </trkpt>
      <trkpt lat="48.39972" lon="7.29979">
        <ele>759</ele>
        <time>2020-09-06T12:12:40.231Z</time>
      </trkpt>
      <trkpt lat="48.39971" lon="7.29979">
        <ele>759</ele>
        <time>2020-09-06T12:12:41.231Z</time>
      </trkpt>
      <trkpt lat="48.3997" lon="7.2998">
        <ele>759</ele>
        <time>2020-09-06T12:12:42.231Z</time>
      </trkpt>
      <trkpt lat="48.39969" lon="7.2998">
        <ele>759</ele>
        <time>2020-09-06T12:12:43.231Z</time>
      </trkpt>
      <trkpt lat="48.39968" lon="7.2998">
        <ele>759</ele>
        <time>2020-09-06T12:12:44.231Z</time>
      </trkpt>
      <trkpt lat="48.39968" lon="7.29979">
        <ele>758</ele>
        <time>2020-09-06T12:12:45.231Z</time>
      </trkpt>
      <trkpt lat="48.39968" lon="7.29978">
        <ele>758</ele>
        <time>2020-09-06T12:12:46.230Z</time>
      </trkpt>
      <trkpt lat="48.39968" lon="7.29977">
        <ele>758</ele>
        <time>2020-09-06T12:12:47.231Z</time>
      </trkpt>
      <trkpt lat="48.39968" lon="7.29978">
        <ele>757</ele>
        <time>2020-09-06T12:12:48.231Z</time>
      </trkpt>
      <trkpt lat="48.39968" lon="7.29977">
        <ele>757</ele>
        <time>2020-09-06T12:12:49.231Z</time>
      </trkpt>
      <trkpt lat="48.39967" lon="7.29976">
        <ele>757</ele>
        <time>2020-09-06T12:12:50.230Z</time>
      </trkpt>
      <trkpt lat="48.39967" lon="7.29976">
        <ele>756</ele>
        <time>2020-09-06T12:12:51.231Z</time>
      </trkpt>
      <trkpt lat="48.39967" lon="7.29975">
        <ele>756</ele>
        <time>2020-09-06T12:12:52.230Z</time>
      </trkpt>
      <trkpt lat="48.39967" lon="7.29975">
        <ele>756</ele>
        <time>2020-09-06T12:12:53.231Z</time>
      </trkpt>
      <trkpt lat="48.39967" lon="7.29975">
        <ele>755</ele>
        <time>2020-09-06T12:12:54.230Z</time>
      </trkpt>
      <trkpt lat="48.39962" lon="7.29978">
        <ele>757</ele>
        <time>2020-09-06T12:12:55.232Z</time>
      </trkpt>
      <trkpt lat="48.3996" lon="7.29979">
        <ele>757</ele>
        <time>2020-09-06T12:12:56.231Z</time>
      </trkpt>
      <trkpt lat="48.39959" lon="7.29981">
        <ele>757</ele>
        <time>2020-09-06T12:12:57.232Z</time>
      </trkpt>
      <trkpt lat="48.39957" lon="7.29982">
        <ele>757</ele>
        <time>2020-09-06T12:12:58.231Z</time>
      </trkpt>
      <trkpt lat="48.39956" lon="7.29983">
        <ele>757</ele>
        <time>2020-09-06T12:12:59.232Z</time>
      </trkpt>
      <trkpt lat="48.39954" lon="7.29983">
        <ele>757</ele>
        <time>2020-09-06T12:13:00.232Z</time>
      </trkpt>
      <trkpt lat="48.39952" lon="7.29984">
        <ele>756</ele>
        <time>2020-09-06T12:13:01.231Z</time>
      </trkpt>
      <trkpt lat="48.39951" lon="7.29985">
        <ele>756</ele>
        <time>2020-09-06T12:13:02.231Z</time>
      </trkpt>
      <trkpt lat="48.3995" lon="7.29987">
        <ele>755</ele>
        <time>2020-09-06T12:13:03.231Z</time>
      </trkpt>
      <trkpt lat="48.39948" lon="7.29988">
        <ele>755</ele>
        <time>2020-09-06T12:13:04.232Z</time>
      </trkpt>
      <trkpt lat="48.39947" lon="7.29989">
        <ele>755</ele>
        <time>2020-09-06T12:13:05.232Z</time>
      </trkpt>
      <trkpt lat="48.39946" lon="7.29989">
        <ele>755</ele>
        <time>2020-09-06T12:13:06.231Z</time>
      </trkpt>
      <trkpt lat="48.39945" lon="7.2999">
        <ele>755</ele>
        <time>2020-09-06T12:13:07.231Z</time>
      </trkpt>
      <trkpt lat="48.39944" lon="7.2999">
        <ele>754</ele>
        <time>2020-09-06T12:13:08.232Z</time>
      </trkpt>
      <trkpt lat="48.39942" lon="7.29991">
        <ele>754</ele>
        <time>2020-09-06T12:13:09.232Z</time>
      </trkpt>
      <trkpt lat="48.39941" lon="7.29991">
        <ele>754</ele>
        <time>2020-09-06T12:13:10.232Z</time>
      </trkpt>
      <trkpt lat="48.3994" lon="7.29992">
        <ele>754</ele>
        <time>2020-09-06T12:13:11.232Z</time>
      </trkpt>
      <trkpt lat="48.39938" lon="7.29992">
        <ele>753</ele>
        <time>2020-09-06T12:13:12.231Z</time>
      </trkpt>
      <trkpt lat="48.39937" lon="7.29993">
        <ele>753</ele>
        <time>2020-09-06T12:13:13.231Z</time>
      </trkpt>
      <trkpt lat="48.39936" lon="7.29993">
        <ele>753</ele>
        <time>2020-09-06T12:13:14.232Z</time>
      </trkpt>
      <trkpt lat="48.39935" lon="7.29994">
        <ele>753</ele>
        <time>2020-09-06T12:13:15.232Z</time>
      </trkpt>
      <trkpt lat="48.39933" lon="7.29994">
        <ele>753</ele>
        <time>2020-09-06T12:13:16.232Z</time>
      </trkpt>
      <trkpt lat="48.39932" lon="7.29995">
        <ele>753</ele>
        <time>2020-09-06T12:13:17.232Z</time>
      </trkpt>
      <trkpt lat="48.39931" lon="7.29995">
        <ele>753</ele>
        <time>2020-09-06T12:13:18.232Z</time>
      </trkpt>
      <trkpt lat="48.3993" lon="7.29995">
        <ele>753</ele>
        <time>2020-09-06T12:13:19.232Z</time>
      </trkpt>
      <trkpt lat="48.39929" lon="7.29996">
        <ele>753</ele>
        <time>2020-09-06T12:13:20.232Z</time>
      </trkpt>
      <trkpt lat="48.39928" lon="7.29997">
        <ele>752</ele>
        <time>2020-09-06T12:13:21.232Z</time>
      </trkpt>
      <trkpt lat="48.39927" lon="7.29997">
        <ele>752</ele>
        <time>2020-09-06T12:13:22.232Z</time>
      </trkpt>
      <trkpt lat="48.39926" lon="7.29998">
        <ele>753</ele>
        <time>2020-09-06T12:13:23.232Z</time>
      </trkpt>
      <trkpt lat="48.39926" lon="7.29998">
        <ele>753</ele>
        <time>2020-09-06T12:13:24.231Z</time>
      </trkpt>
      <trkpt lat="48.39926" lon="7.29998">
        <ele>753</ele>
        <time>2020-09-06T12:13:25.232Z</time>
      </trkpt>
      <trkpt lat="48.39925" lon="7.29997">
        <ele>751</ele>
        <time>2020-09-06T12:13:26.232Z</time>
      </trkpt>
      <trkpt lat="48.39924" lon="7.29997">
        <ele>752</ele>
        <time>2020-09-06T12:13:27.232Z</time>
      </trkpt>
      <trkpt lat="48.39924" lon="7.29996">
        <ele>752</ele>
        <time>2020-09-06T12:13:28.232Z</time>
      </trkpt>
      <trkpt lat="48.39923" lon="7.29996">
        <ele>752</ele>
        <time>2020-09-06T12:13:29.231Z</time>
      </trkpt>
      <trkpt lat="48.39922" lon="7.29996">
        <ele>752</ele>
        <time>2020-09-06T12:13:30.232Z</time>
      </trkpt>
      <trkpt lat="48.39921" lon="7.29996">
        <ele>751</ele>
        <time>2020-09-06T12:13:31.231Z</time>
      </trkpt>
      <trkpt lat="48.3992" lon="7.29996">
        <ele>751</ele>
        <time>2020-09-06T12:13:32.232Z</time>
      </trkpt>
      <trkpt lat="48.3992" lon="7.29996">
        <ele>752</ele>
        <time>2020-09-06T12:13:33.232Z</time>
      </trkpt>
      <trkpt lat="48.39919" lon="7.29997">
        <ele>752</ele>
        <time>2020-09-06T12:13:34.232Z</time>
      </trkpt>
      <trkpt lat="48.39919" lon="7.29997">
        <ele>752</ele>
        <time>2020-09-06T12:13:35.231Z</time>
      </trkpt>
      <trkpt lat="48.39917" lon="7.3">
        <ele>752</ele>
        <time>2020-09-06T12:13:36.232Z</time>
      </trkpt>
      <trkpt lat="48.39917" lon="7.30001">
        <ele>752</ele>
        <time>2020-09-06T12:13:37.232Z</time>
      </trkpt>
      <trkpt lat="48.39924" lon="7.29999">
        <ele>753</ele>
        <time>2020-09-06T12:13:38.233Z</time>
      </trkpt>
      <trkpt lat="48.39925" lon="7.29999">
        <ele>752</ele>
        <time>2020-09-06T12:13:39.233Z</time>
      </trkpt>
      <trkpt lat="48.39925" lon="7.29998">
        <ele>752</ele>
        <time>2020-09-06T12:13:40.233Z</time>
      </trkpt>
      <trkpt lat="48.39926" lon="7.29998">
        <ele>752</ele>
        <time>2020-09-06T12:13:41.233Z</time>
      </trkpt>
      <trkpt lat="48.39927" lon="7.29998">
        <ele>752</ele>
        <time>2020-09-06T12:13:42.233Z</time>
      </trkpt>
      <trkpt lat="48.39927" lon="7.29999">
        <ele>753</ele>
        <time>2020-09-06T12:13:43.232Z</time>
      </trkpt>
      <trkpt lat="48.39927" lon="7.29999">
        <ele>753</ele>
        <time>2020-09-06T12:13:44.233Z</time>
      </trkpt>
      <trkpt lat="48.39928" lon="7.29999">
        <ele>753</ele>
        <time>2020-09-06T12:13:45.233Z</time>
      </trkpt>
      <trkpt lat="48.39927" lon="7.29999">
        <ele>755</ele>
        <time>2020-09-06T12:13:46.234Z</time>
      </trkpt>
      <trkpt lat="48.39927" lon="7.29999">
        <ele>755</ele>
        <time>2020-09-06T12:13:47.233Z</time>
      </trkpt>
      <trkpt lat="48.39927" lon="7.29998">
        <ele>755</ele>
        <time>2020-09-06T12:13:48.233Z</time>
      </trkpt>
      <trkpt lat="48.39927" lon="7.29998">
        <ele>754</ele>
        <time>2020-09-06T12:13:49.234Z</time>
      </trkpt>
      <trkpt lat="48.39928" lon="7.29998">
        <ele>753</ele>
        <time>2020-09-06T12:13:50.235Z</time>
      </trkpt>
      <trkpt lat="48.39928" lon="7.29998">
        <ele>753</ele>
        <time>2020-09-06T12:13:51.235Z</time>
      </trkpt>
      <trkpt lat="48.39928" lon="7.29998">
        <ele>753</ele>
        <time>2020-09-06T12:13:52.235Z</time>
      </trkpt>
      <trkpt lat="48.39928" lon="7.29998">
        <ele>753</ele>
        <time>2020-09-06T12:13:53.234Z</time>
      </trkpt>
      <trkpt lat="48.39928" lon="7.29998">
        <ele>753</ele>
        <time>2020-09-06T12:13:54.235Z</time>
      </trkpt>
      <trkpt lat="48.39929" lon="7.29997">
        <ele>753</ele>
        <time>2020-09-06T12:13:55.235Z</time>
      </trkpt>
      <trkpt lat="48.39929" lon="7.29997">
        <ele>753</ele>
        <time>2020-09-06T12:13:56.235Z</time>
      </trkpt>
      <trkpt lat="48.3993" lon="7.29997">
        <ele>753</ele>
        <time>2020-09-06T12:13:57.234Z</time>
      </trkpt>
      <trkpt lat="48.39931" lon="7.29997">
        <ele>753</ele>
        <time>2020-09-06T12:13:58.234Z</time>
      </trkpt>
      <trkpt lat="48.39931" lon="7.29996">
        <ele>753</ele>
        <time>2020-09-06T12:13:59.234Z</time>
      </trkpt>
      <trkpt lat="48.39932" lon="7.29996">
        <ele>753</ele>
        <time>2020-09-06T12:14:00.235Z</time>
      </trkpt>
      <trkpt lat="48.39932" lon="7.29996">
        <ele>753</ele>
        <time>2020-09-06T12:14:01.235Z</time>
      </trkpt>
      <trkpt lat="48.39932" lon="7.29996">
        <ele>753</ele>
        <time>2020-09-06T12:14:02.235Z</time>
      </trkpt>
      <trkpt lat="48.39932" lon="7.29996">
        <ele>753</ele>
        <time>2020-09-06T12:14:03.235Z</time>
      </trkpt>
      <trkpt lat="48.39932" lon="7.29996">
        <ele>753</ele>
        <time>2020-09-06T12:14:04.235Z</time>
      </trkpt>
      <trkpt lat="48.39932" lon="7.29996">
        <ele>753</ele>
        <time>2020-09-06T12:14:05.235Z</time>
      </trkpt>
      <trkpt lat="48.39932" lon="7.29996">
        <ele>753</ele>
        <time>2020-09-06T12:14:06.234Z</time>
      </trkpt>
      <trkpt lat="48.39932" lon="7.29996">
        <ele>753</ele>
        <time>2020-09-06T12:14:07.234Z</time>
      </trkpt>
      <trkpt lat="48.39932" lon="7.29996">
        <ele>753</ele>
        <time>2020-09-06T12:14:08.235Z</time>
      </trkpt>
      <trkpt lat="48.39932" lon="7.29996">
        <ele>753</ele>
        <time>2020-09-06T12:14:09.234Z</time>
      </trkpt>
      <trkpt lat="48.39932" lon="7.29996">
        <ele>753</ele>
        <time>2020-09-06T12:14:10.235Z</time>
      </trkpt>
      <trkpt lat="48.39932" lon="7.29996">
        <ele>753</ele>
        <time>2020-09-06T12:14:11.235Z</time>
      </trkpt>
      <trkpt lat="48.39932" lon="7.29996">
        <ele>753</ele>
        <time>2020-09-06T12:14:12.235Z</time>
      </trkpt>
      <trkpt lat="48.39932" lon="7.29996">
        <ele>753</ele>
        <time>2020-09-06T12:14:13.235Z</time>
      </trkpt>
      <trkpt lat="48.39932" lon="7.29996">
        <ele>753</ele>
        <time>2020-09-06T12:14:14.235Z</time>
      </trkpt>
      <trkpt lat="48.39932" lon="7.29996">
        <ele>753</ele>
        <time>2020-09-06T12:14:15.234Z</time>
      </trkpt>
      <trkpt lat="48.39932" lon="7.29996">
        <ele>753</ele>
        <time>2020-09-06T12:14:16.235Z</time>
      </trkpt>
      <trkpt lat="48.39932" lon="7.29996">
        <ele>753</ele>
        <time>2020-09-06T12:14:17.235Z</time>
      </trkpt>
      <trkpt lat="48.39932" lon="7.29996">
        <ele>753</ele>
        <time>2020-09-06T12:14:18.235Z</time>
      </trkpt>
      <trkpt lat="48.39932" lon="7.29996">
        <ele>753</ele>
        <time>2020-09-06T12:14:19.235Z</time>
      </trkpt>
      <trkpt lat="48.39932" lon="7.29995">
        <ele>753</ele>
        <time>2020-09-06T12:14:20.234Z</time>
      </trkpt>
      <trkpt lat="48.39932" lon="7.29995">
        <ele>753</ele>
        <time>2020-09-06T12:14:21.235Z</time>
      </trkpt>
      <trkpt lat="48.39932" lon="7.29995">
        <ele>753</ele>
        <time>2020-09-06T12:14:22.235Z</time>
      </trkpt>
      <trkpt lat="48.39932" lon="7.29995">
        <ele>753</ele>
        <time>2020-09-06T12:14:23.235Z</time>
      </trkpt>
      <trkpt lat="48.39932" lon="7.29995">
        <ele>753</ele>
        <time>2020-09-06T12:14:24.235Z</time>
      </trkpt>
      <trkpt lat="48.39932" lon="7.29995">
        <ele>753</ele>
        <time>2020-09-06T12:14:25.234Z</time>
      </trkpt>
      <trkpt lat="48.39932" lon="7.29995">
        <ele>753</ele>
        <time>2020-09-06T12:14:26.235Z</time>
      </trkpt>
      <trkpt lat="48.39932" lon="7.29995">
        <ele>753</ele>
        <time>2020-09-06T12:14:27.235Z</time>
      </trkpt>
      <trkpt lat="48.39932" lon="7.29995">
        <ele>753</ele>
        <time>2020-09-06T12:14:28.235Z</time>
      </trkpt>
      <trkpt lat="48.39932" lon="7.29995">
        <ele>753</ele>
        <time>2020-09-06T12:14:29.235Z</time>
      </trkpt>
      <trkpt lat="48.39932" lon="7.29995">
        <ele>753</ele>
        <time>2020-09-06T12:14:30.235Z</time>
      </trkpt>
      <trkpt lat="48.39932" lon="7.29995">
        <ele>753</ele>
        <time>2020-09-06T12:14:31.235Z</time>
      </trkpt>
      <trkpt lat="48.39932" lon="7.29995">
        <ele>753</ele>
        <time>2020-09-06T12:14:32.235Z</time>
      </trkpt>
      <trkpt lat="48.39932" lon="7.29995">
        <ele>753</ele>
        <time>2020-09-06T12:14:33.235Z</time>
      </trkpt>
      <trkpt lat="48.39932" lon="7.29995">
        <ele>753</ele>
        <time>2020-09-06T12:14:34.235Z</time>
      </trkpt>
      <trkpt lat="48.39932" lon="7.29995">
        <ele>753</ele>
        <time>2020-09-06T12:14:35.235Z</time>
      </trkpt>
      <trkpt lat="48.39932" lon="7.29995">
        <ele>753</ele>
        <time>2020-09-06T12:14:36.234Z</time>
      </trkpt>
      <trkpt lat="48.39932" lon="7.29995">
        <ele>753</ele>
        <time>2020-09-06T12:14:37.234Z</time>
      </trkpt>
      <trkpt lat="48.39932" lon="7.29994">
        <ele>753</ele>
        <time>2020-09-06T12:14:38.235Z</time>
      </trkpt>
      <trkpt lat="48.39932" lon="7.29994">
        <ele>753</ele>
        <time>2020-09-06T12:14:39.235Z</time>
      </trkpt>
      <trkpt lat="48.39933" lon="7.29994">
        <ele>753</ele>
        <time>2020-09-06T12:14:40.235Z</time>
      </trkpt>
      <trkpt lat="48.39934" lon="7.29994">
        <ele>753</ele>
        <time>2020-09-06T12:14:41.235Z</time>
      </trkpt>
      <trkpt lat="48.39935" lon="7.29994">
        <ele>753</ele>
        <time>2020-09-06T12:14:42.235Z</time>
      </trkpt>
      <trkpt lat="48.39937" lon="7.29993">
        <ele>753</ele>
        <time>2020-09-06T12:14:43.235Z</time>
      </trkpt>
      <trkpt lat="48.39938" lon="7.29993">
        <ele>753</ele>
        <time>2020-09-06T12:14:44.235Z</time>
      </trkpt>
      <trkpt lat="48.39939" lon="7.29992">
        <ele>753</ele>
        <time>2020-09-06T12:14:45.235Z</time>
      </trkpt>
      <trkpt lat="48.3994" lon="7.29992">
        <ele>753</ele>
        <time>2020-09-06T12:14:46.235Z</time>
      </trkpt>
      <trkpt lat="48.39942" lon="7.29992">
        <ele>753</ele>
        <time>2020-09-06T12:14:47.235Z</time>
      </trkpt>
      <trkpt lat="48.39943" lon="7.29991">
        <ele>754</ele>
        <time>2020-09-06T12:14:48.235Z</time>
      </trkpt>
      <trkpt lat="48.39945" lon="7.29991">
        <ele>755</ele>
        <time>2020-09-06T12:14:49.235Z</time>
      </trkpt>
      <trkpt lat="48.39945" lon="7.2999">
        <ele>756</ele>
        <time>2020-09-06T12:14:50.234Z</time>
      </trkpt>
      <trkpt lat="48.39946" lon="7.29988">
        <ele>758</ele>
        <time>2020-09-06T12:14:51.235Z</time>
      </trkpt>
      <trkpt lat="48.39947" lon="7.29987">
        <ele>758</ele>
        <time>2020-09-06T12:14:52.235Z</time>
      </trkpt>
      <trkpt lat="48.39948" lon="7.29986">
        <ele>758</ele>
        <time>2020-09-06T12:14:53.235Z</time>
      </trkpt>
      <trkpt lat="48.3995" lon="7.29986">
        <ele>758</ele>
        <time>2020-09-06T12:14:54.235Z</time>
      </trkpt>
      <trkpt lat="48.39951" lon="7.29986">
        <ele>758</ele>
        <time>2020-09-06T12:14:55.236Z</time>
      </trkpt>
      <trkpt lat="48.39953" lon="7.29985">
        <ele>758</ele>
        <time>2020-09-06T12:14:56.235Z</time>
      </trkpt>
      <trkpt lat="48.39954" lon="7.29984">
        <ele>758</ele>
        <time>2020-09-06T12:14:57.236Z</time>
      </trkpt>
      <trkpt lat="48.39955" lon="7.29984">
        <ele>758</ele>
        <time>2020-09-06T12:14:58.236Z</time>
      </trkpt>
      <trkpt lat="48.39957" lon="7.29983">
        <ele>759</ele>
        <time>2020-09-06T12:14:59.235Z</time>
      </trkpt>
      <trkpt lat="48.39958" lon="7.29983">
        <ele>759</ele>
        <time>2020-09-06T12:15:00.235Z</time>
      </trkpt>
      <trkpt lat="48.39959" lon="7.29983">
        <ele>759</ele>
        <time>2020-09-06T12:15:01.236Z</time>
      </trkpt>
      <trkpt lat="48.39959" lon="7.29982">
        <ele>760</ele>
        <time>2020-09-06T12:15:02.236Z</time>
      </trkpt>
      <trkpt lat="48.3996" lon="7.29982">
        <ele>760</ele>
        <time>2020-09-06T12:15:03.235Z</time>
      </trkpt>
      <trkpt lat="48.39961" lon="7.29981">
        <ele>761</ele>
        <time>2020-09-06T12:15:04.236Z</time>
      </trkpt>
      <trkpt lat="48.39962" lon="7.2998">
        <ele>761</ele>
        <time>2020-09-06T12:15:05.236Z</time>
      </trkpt>
      <trkpt lat="48.39963" lon="7.2998">
        <ele>762</ele>
        <time>2020-09-06T12:15:06.236Z</time>
      </trkpt>
      <trkpt lat="48.39964" lon="7.29979">
        <ele>762</ele>
        <time>2020-09-06T12:15:07.236Z</time>
      </trkpt>
      <trkpt lat="48.39965" lon="7.29978">
        <ele>762</ele>
        <time>2020-09-06T12:15:08.236Z</time>
      </trkpt>
      <trkpt lat="48.39966" lon="7.29978">
        <ele>763</ele>
        <time>2020-09-06T12:15:09.236Z</time>
      </trkpt>
      <trkpt lat="48.39967" lon="7.29978">
        <ele>764</ele>
        <time>2020-09-06T12:15:10.236Z</time>
      </trkpt>
      <trkpt lat="48.39968" lon="7.29977">
        <ele>764</ele>
        <time>2020-09-06T12:15:11.236Z</time>
      </trkpt>
      <trkpt lat="48.39969" lon="7.29976">
        <ele>764</ele>
        <time>2020-09-06T12:15:12.236Z</time>
      </trkpt>
      <trkpt lat="48.3997" lon="7.29976">
        <ele>765</ele>
        <time>2020-09-06T12:15:13.235Z</time>
      </trkpt>
      <trkpt lat="48.39971" lon="7.29975">
        <ele>765</ele>
        <time>2020-09-06T12:15:14.235Z</time>
      </trkpt>
      <trkpt lat="48.39972" lon="7.29975">
        <ele>765</ele>
        <time>2020-09-06T12:15:15.236Z</time>
      </trkpt>
      <trkpt lat="48.39973" lon="7.29975">
        <ele>765</ele>
        <time>2020-09-06T12:15:16.235Z</time>
      </trkpt>
      <trkpt lat="48.39974" lon="7.29974">
        <ele>765</ele>
        <time>2020-09-06T12:15:17.236Z</time>
      </trkpt>
      <trkpt lat="48.39975" lon="7.29975">
        <ele>765</ele>
        <time>2020-09-06T12:15:18.236Z</time>
      </trkpt>
      <trkpt lat="48.39975" lon="7.29974">
        <ele>766</ele>
        <time>2020-09-06T12:15:19.235Z</time>
      </trkpt>
      <trkpt lat="48.39976" lon="7.29973">
        <ele>766</ele>
        <time>2020-09-06T12:15:20.236Z</time>
      </trkpt>
      <trkpt lat="48.39977" lon="7.29973">
        <ele>765</ele>
        <time>2020-09-06T12:15:21.236Z</time>
      </trkpt>
      <trkpt lat="48.39978" lon="7.29973">
        <ele>765</ele>
        <time>2020-09-06T12:15:22.236Z</time>
      </trkpt>
      <trkpt lat="48.3998" lon="7.29973">
        <ele>764</ele>
        <time>2020-09-06T12:15:23.235Z</time>
      </trkpt>
      <trkpt lat="48.39981" lon="7.29973">
        <ele>764</ele>
        <time>2020-09-06T12:15:24.235Z</time>
      </trkpt>
      <trkpt lat="48.39983" lon="7.29974">
        <ele>764</ele>
        <time>2020-09-06T12:15:25.236Z</time>
      </trkpt>
      <trkpt lat="48.39984" lon="7.29975">
        <ele>764</ele>
        <time>2020-09-06T12:15:26.235Z</time>
      </trkpt>
      <trkpt lat="48.39985" lon="7.29975">
        <ele>763</ele>
        <time>2020-09-06T12:15:27.236Z</time>
      </trkpt>
      <trkpt lat="48.39986" lon="7.29975">
        <ele>762</ele>
        <time>2020-09-06T12:15:28.236Z</time>
      </trkpt>
      <trkpt lat="48.39987" lon="7.29975">
        <ele>761</ele>
        <time>2020-09-06T12:15:29.236Z</time>
      </trkpt>
      <trkpt lat="48.39988" lon="7.29975">
        <ele>760</ele>
        <time>2020-09-06T12:15:30.236Z</time>
      </trkpt>
      <trkpt lat="48.39989" lon="7.29976">
        <ele>760</ele>
        <time>2020-09-06T12:15:31.236Z</time>
      </trkpt>
      <trkpt lat="48.39989" lon="7.29976">
        <ele>759</ele>
        <time>2020-09-06T12:15:32.236Z</time>
      </trkpt>
      <trkpt lat="48.3999" lon="7.29976">
        <ele>759</ele>
        <time>2020-09-06T12:15:33.236Z</time>
      </trkpt>
      <trkpt lat="48.39991" lon="7.29976">
        <ele>759</ele>
        <time>2020-09-06T12:15:34.236Z</time>
      </trkpt>
      <trkpt lat="48.39992" lon="7.29977">
        <ele>759</ele>
        <time>2020-09-06T12:15:35.236Z</time>
      </trkpt>
      <trkpt lat="48.39993" lon="7.29976">
        <ele>759</ele>
        <time>2020-09-06T12:15:36.236Z</time>
      </trkpt>
      <trkpt lat="48.39994" lon="7.29977">
        <ele>760</ele>
        <time>2020-09-06T12:15:37.236Z</time>
      </trkpt>
      <trkpt lat="48.39994" lon="7.29977">
        <ele>760</ele>
        <time>2020-09-06T12:15:38.236Z</time>
      </trkpt>
      <trkpt lat="48.39994" lon="7.29977">
        <ele>761</ele>
        <time>2020-09-06T12:15:39.235Z</time>
      </trkpt>
      <trkpt lat="48.39995" lon="7.29977">
        <ele>761</ele>
        <time>2020-09-06T12:15:40.235Z</time>
      </trkpt>
      <trkpt lat="48.39996" lon="7.29977">
        <ele>761</ele>
        <time>2020-09-06T12:15:41.236Z</time>
      </trkpt>
      <trkpt lat="48.39996" lon="7.29976">
        <ele>762</ele>
        <time>2020-09-06T12:15:42.236Z</time>
      </trkpt>
      <trkpt lat="48.39998" lon="7.29976">
        <ele>762</ele>
        <time>2020-09-06T12:15:43.236Z</time>
      </trkpt>
      <trkpt lat="48.39999" lon="7.29975">
        <ele>763</ele>
        <time>2020-09-06T12:15:44.236Z</time>
      </trkpt>
      <trkpt lat="48.4" lon="7.29975">
        <ele>763</ele>
        <time>2020-09-06T12:15:45.235Z</time>
      </trkpt>
      <trkpt lat="48.40001" lon="7.29975">
        <ele>763</ele>
        <time>2020-09-06T12:15:46.235Z</time>
      </trkpt>
      <trkpt lat="48.40001" lon="7.29974">
        <ele>764</ele>
        <time>2020-09-06T12:15:47.235Z</time>
      </trkpt>
      <trkpt lat="48.4" lon="7.29974">
        <ele>764</ele>
        <time>2020-09-06T12:15:48.236Z</time>
      </trkpt>
      <trkpt lat="48.40001" lon="7.29974">
        <ele>764</ele>
        <time>2020-09-06T12:15:49.236Z</time>
      </trkpt>
      <trkpt lat="48.4" lon="7.29973">
        <ele>764</ele>
        <time>2020-09-06T12:15:50.236Z</time>
      </trkpt>
      <trkpt lat="48.4" lon="7.29972">
        <ele>764</ele>
        <time>2020-09-06T12:15:51.236Z</time>
      </trkpt>
      <trkpt lat="48.40001" lon="7.29971">
        <ele>765</ele>
        <time>2020-09-06T12:15:52.237Z</time>
      </trkpt>
      <trkpt lat="48.40001" lon="7.29971">
        <ele>765</ele>
        <time>2020-09-06T12:15:53.237Z</time>
      </trkpt>
      <trkpt lat="48.40002" lon="7.2997">
        <ele>766</ele>
        <time>2020-09-06T12:15:54.237Z</time>
      </trkpt>
      <trkpt lat="48.40003" lon="7.2997">
        <ele>766</ele>
        <time>2020-09-06T12:15:55.237Z</time>
      </trkpt>
      <trkpt lat="48.40004" lon="7.2997">
        <ele>766</ele>
        <time>2020-09-06T12:15:56.237Z</time>
      </trkpt>
      <trkpt lat="48.40005" lon="7.2997">
        <ele>767</ele>
        <time>2020-09-06T12:15:57.237Z</time>
      </trkpt>
      <trkpt lat="48.40007" lon="7.29969">
        <ele>767</ele>
        <time>2020-09-06T12:15:58.237Z</time>
      </trkpt>
      <trkpt lat="48.40008" lon="7.29969">
        <ele>767</ele>
        <time>2020-09-06T12:15:59.237Z</time>
      </trkpt>
      <trkpt lat="48.40009" lon="7.29968">
        <ele>767</ele>
        <time>2020-09-06T12:16:00.237Z</time>
      </trkpt>
      <trkpt lat="48.40011" lon="7.29967">
        <ele>768</ele>
        <time>2020-09-06T12:16:01.237Z</time>
      </trkpt>
      <trkpt lat="48.40011" lon="7.29966">
        <ele>768</ele>
        <time>2020-09-06T12:16:02.237Z</time>
      </trkpt>
      <trkpt lat="48.40013" lon="7.29966">
        <ele>768</ele>
        <time>2020-09-06T12:16:03.237Z</time>
      </trkpt>
      <trkpt lat="48.40014" lon="7.29966">
        <ele>768</ele>
        <time>2020-09-06T12:16:04.237Z</time>
      </trkpt>
      <trkpt lat="48.40015" lon="7.29966">
        <ele>768</ele>
        <time>2020-09-06T12:16:05.237Z</time>
      </trkpt>
      <trkpt lat="48.40015" lon="7.29965">
        <ele>768</ele>
        <time>2020-09-06T12:16:06.237Z</time>
      </trkpt>
      <trkpt lat="48.40016" lon="7.29965">
        <ele>768</ele>
        <time>2020-09-06T12:16:07.237Z</time>
      </trkpt>
      <trkpt lat="48.40017" lon="7.29965">
        <ele>768</ele>
        <time>2020-09-06T12:16:08.236Z</time>
      </trkpt>
      <trkpt lat="48.40018" lon="7.29966">
        <ele>768</ele>
        <time>2020-09-06T12:16:09.237Z</time>
      </trkpt>
      <trkpt lat="48.40019" lon="7.29965">
        <ele>768</ele>
        <time>2020-09-06T12:16:10.236Z</time>
      </trkpt>
      <trkpt lat="48.4002" lon="7.29965">
        <ele>768</ele>
        <time>2020-09-06T12:16:11.237Z</time>
      </trkpt>
      <trkpt lat="48.4002" lon="7.29964">
        <ele>767</ele>
        <time>2020-09-06T12:16:12.236Z</time>
      </trkpt>
      <trkpt lat="48.40021" lon="7.29963">
        <ele>767</ele>
        <time>2020-09-06T12:16:13.237Z</time>
      </trkpt>
      <trkpt lat="48.40021" lon="7.29962">
        <ele>766</ele>
        <time>2020-09-06T12:16:14.237Z</time>
      </trkpt>
      <trkpt lat="48.40022" lon="7.2996">
        <ele>765</ele>
        <time>2020-09-06T12:16:15.237Z</time>
      </trkpt>
      <trkpt lat="48.40022" lon="7.29959">
        <ele>764</ele>
        <time>2020-09-06T12:16:16.236Z</time>
      </trkpt>
      <trkpt lat="48.40023" lon="7.29957">
        <ele>763</ele>
        <time>2020-09-06T12:16:17.237Z</time>
      </trkpt>
      <trkpt lat="48.40024" lon="7.29956">
        <ele>763</ele>
        <time>2020-09-06T12:16:18.236Z</time>
      </trkpt>
      <trkpt lat="48.40025" lon="7.29954">
        <ele>762</ele>
        <time>2020-09-06T12:16:19.237Z</time>
      </trkpt>
      <trkpt lat="48.40026" lon="7.29953">
        <ele>761</ele>
        <time>2020-09-06T12:16:20.237Z</time>
      </trkpt>
      <trkpt lat="48.40027" lon="7.29952">
        <ele>761</ele>
        <time>2020-09-06T12:16:21.236Z</time>
      </trkpt>
      <trkpt lat="48.40028" lon="7.2995">
        <ele>760</ele>
        <time>2020-09-06T12:16:22.236Z</time>
      </trkpt>
      <trkpt lat="48.40028" lon="7.29949">
        <ele>760</ele>
        <time>2020-09-06T12:16:23.236Z</time>
      </trkpt>
      <trkpt lat="48.40029" lon="7.29948">
        <ele>760</ele>
        <time>2020-09-06T12:16:24.236Z</time>
      </trkpt>
      <trkpt lat="48.40029" lon="7.29946">
        <ele>760</ele>
        <time>2020-09-06T12:16:25.236Z</time>
      </trkpt>
      <trkpt lat="48.40029" lon="7.29944">
        <ele>760</ele>
        <time>2020-09-06T12:16:26.236Z</time>
      </trkpt>
      <trkpt lat="48.4003" lon="7.29943">
        <ele>760</ele>
        <time>2020-09-06T12:16:27.236Z</time>
      </trkpt>
      <trkpt lat="48.40031" lon="7.29942">
        <ele>759</ele>
        <time>2020-09-06T12:16:28.237Z</time>
      </trkpt>
      <trkpt lat="48.40032" lon="7.29941">
        <ele>759</ele>
        <time>2020-09-06T12:16:29.237Z</time>
      </trkpt>
      <trkpt lat="48.40033" lon="7.2994">
        <ele>758</ele>
        <time>2020-09-06T12:16:30.237Z</time>
      </trkpt>
      <trkpt lat="48.40034" lon="7.29939">
        <ele>758</ele>
        <time>2020-09-06T12:16:31.237Z</time>
      </trkpt>
      <trkpt lat="48.40034" lon="7.29938">
        <ele>757</ele>
        <time>2020-09-06T12:16:32.237Z</time>
      </trkpt>
      <trkpt lat="48.40035" lon="7.29937">
        <ele>757</ele>
        <time>2020-09-06T12:16:33.236Z</time>
      </trkpt>
      <trkpt lat="48.40036" lon="7.29936">
        <ele>756</ele>
        <time>2020-09-06T12:16:34.237Z</time>
      </trkpt>
      <trkpt lat="48.40036" lon="7.29935">
        <ele>756</ele>
        <time>2020-09-06T12:16:35.237Z</time>
      </trkpt>
      <trkpt lat="48.40036" lon="7.29934">
        <ele>755</ele>
        <time>2020-09-06T12:16:36.237Z</time>
      </trkpt>
      <trkpt lat="48.40036" lon="7.29933">
        <ele>755</ele>
        <time>2020-09-06T12:16:37.237Z</time>
      </trkpt>
      <trkpt lat="48.40036" lon="7.29933">
        <ele>754</ele>
        <time>2020-09-06T12:16:38.237Z</time>
      </trkpt>
      <trkpt lat="48.40036" lon="7.29932">
        <ele>754</ele>
        <time>2020-09-06T12:16:39.236Z</time>
      </trkpt>
      <trkpt lat="48.40037" lon="7.29931">
        <ele>753</ele>
        <time>2020-09-06T12:16:40.237Z</time>
      </trkpt>
      <trkpt lat="48.40037" lon="7.29931">
        <ele>753</ele>
        <time>2020-09-06T12:16:41.236Z</time>
      </trkpt>
      <trkpt lat="48.40038" lon="7.2993">
        <ele>754</ele>
        <time>2020-09-06T12:16:42.237Z</time>
      </trkpt>
      <trkpt lat="48.40039" lon="7.29929">
        <ele>754</ele>
        <time>2020-09-06T12:16:43.237Z</time>
      </trkpt>
      <trkpt lat="48.40039" lon="7.29928">
        <ele>755</ele>
        <time>2020-09-06T12:16:44.237Z</time>
      </trkpt>
      <trkpt lat="48.4004" lon="7.29927">
        <ele>755</ele>
        <time>2020-09-06T12:16:45.236Z</time>
      </trkpt>
      <trkpt lat="48.4004" lon="7.29926">
        <ele>756</ele>
        <time>2020-09-06T12:16:46.237Z</time>
      </trkpt>
      <trkpt lat="48.40041" lon="7.29925">
        <ele>756</ele>
        <time>2020-09-06T12:16:47.236Z</time>
      </trkpt>
      <trkpt lat="48.40042" lon="7.29924">
        <ele>757</ele>
        <time>2020-09-06T12:16:48.237Z</time>
      </trkpt>
      <trkpt lat="48.40043" lon="7.29923">
        <ele>758</ele>
        <time>2020-09-06T12:16:49.237Z</time>
      </trkpt>
      <trkpt lat="48.40044" lon="7.29922">
        <ele>758</ele>
        <time>2020-09-06T12:16:50.237Z</time>
      </trkpt>
      <trkpt lat="48.40045" lon="7.29921">
        <ele>759</ele>
        <time>2020-09-06T12:16:51.236Z</time>
      </trkpt>
      <trkpt lat="48.40046" lon="7.29921">
        <ele>760</ele>
        <time>2020-09-06T12:16:52.237Z</time>
      </trkpt>
      <trkpt lat="48.40046" lon="7.2992">
        <ele>761</ele>
        <time>2020-09-06T12:16:53.236Z</time>
      </trkpt>
      <trkpt lat="48.40047" lon="7.2992">
        <ele>761</ele>
        <time>2020-09-06T12:16:54.237Z</time>
      </trkpt>
      <trkpt lat="48.40048" lon="7.29922">
        <ele>760</ele>
        <time>2020-09-06T12:16:55.237Z</time>
      </trkpt>
      <trkpt lat="48.40049" lon="7.29923">
        <ele>760</ele>
        <time>2020-09-06T12:16:56.237Z</time>
      </trkpt>
      <trkpt lat="48.4005" lon="7.29925">
        <ele>759</ele>
        <time>2020-09-06T12:16:57.237Z</time>
      </trkpt>
      <trkpt lat="48.40052" lon="7.29927">
        <ele>758</ele>
        <time>2020-09-06T12:16:58.237Z</time>
      </trkpt>
      <trkpt lat="48.40054" lon="7.29928">
        <ele>758</ele>
        <time>2020-09-06T12:16:59.237Z</time>
      </trkpt>
      <trkpt lat="48.40054" lon="7.29929">
        <ele>757</ele>
        <time>2020-09-06T12:17:00.236Z</time>
      </trkpt>
      <trkpt lat="48.40056" lon="7.29931">
        <ele>756</ele>
        <time>2020-09-06T12:17:01.237Z</time>
      </trkpt>
      <trkpt lat="48.40057" lon="7.29932">
        <ele>755</ele>
        <time>2020-09-06T12:17:02.237Z</time>
      </trkpt>
      <trkpt lat="48.40058" lon="7.29933">
        <ele>754</ele>
        <time>2020-09-06T12:17:03.237Z</time>
      </trkpt>
      <trkpt lat="48.40058" lon="7.29933">
        <ele>754</ele>
        <time>2020-09-06T12:17:04.236Z</time>
      </trkpt>
      <trkpt lat="48.40058" lon="7.29935">
        <ele>753</ele>
        <time>2020-09-06T12:17:05.236Z</time>
      </trkpt>
      <trkpt lat="48.40058" lon="7.29936">
        <ele>753</ele>
        <time>2020-09-06T12:17:06.237Z</time>
      </trkpt>
      <trkpt lat="48.40058" lon="7.29937">
        <ele>753</ele>
        <time>2020-09-06T12:17:07.237Z</time>
      </trkpt>
      <trkpt lat="48.40058" lon="7.29938">
        <ele>753</ele>
        <time>2020-09-06T12:17:08.237Z</time>
      </trkpt>
      <trkpt lat="48.40059" lon="7.29939">
        <ele>752</ele>
        <time>2020-09-06T12:17:09.237Z</time>
      </trkpt>
      <trkpt lat="48.4006" lon="7.29941">
        <ele>752</ele>
        <time>2020-09-06T12:17:10.236Z</time>
      </trkpt>
      <trkpt lat="48.4006" lon="7.29943">
        <ele>752</ele>
        <time>2020-09-06T12:17:11.237Z</time>
      </trkpt>
      <trkpt lat="48.40061" lon="7.29944">
        <ele>751</ele>
        <time>2020-09-06T12:17:12.237Z</time>
      </trkpt>
      <trkpt lat="48.40061" lon="7.29945">
        <ele>751</ele>
        <time>2020-09-06T12:17:13.237Z</time>
      </trkpt>
      <trkpt lat="48.40062" lon="7.29947">
        <ele>750</ele>
        <time>2020-09-06T12:17:14.237Z</time>
      </trkpt>
      <trkpt lat="48.40062" lon="7.29948">
        <ele>749</ele>
        <time>2020-09-06T12:17:15.236Z</time>
      </trkpt>
      <trkpt lat="48.40062" lon="7.2995">
        <ele>749</ele>
        <time>2020-09-06T12:17:16.236Z</time>
      </trkpt>
      <trkpt lat="48.40063" lon="7.29952">
        <ele>749</ele>
        <time>2020-09-06T12:17:17.237Z</time>
      </trkpt>
      <trkpt lat="48.40063" lon="7.29954">
        <ele>748</ele>
        <time>2020-09-06T12:17:18.237Z</time>
      </trkpt>
      <trkpt lat="48.40063" lon="7.29956">
        <ele>748</ele>
        <time>2020-09-06T12:17:19.237Z</time>
      </trkpt>
      <trkpt lat="48.40064" lon="7.29958">
        <ele>748</ele>
        <time>2020-09-06T12:17:20.237Z</time>
      </trkpt>
      <trkpt lat="48.40064" lon="7.2996">
        <ele>748</ele>
        <time>2020-09-06T12:17:21.236Z</time>
      </trkpt>
      <trkpt lat="48.40064" lon="7.29962">
        <ele>748</ele>
        <time>2020-09-06T12:17:22.237Z</time>
      </trkpt>
      <trkpt lat="48.40063" lon="7.29964">
        <ele>748</ele>
        <time>2020-09-06T12:17:23.237Z</time>
      </trkpt>
      <trkpt lat="48.40063" lon="7.29966">
        <ele>747</ele>
        <time>2020-09-06T12:17:24.237Z</time>
      </trkpt>
      <trkpt lat="48.40062" lon="7.29969">
        <ele>748</ele>
        <time>2020-09-06T12:17:25.237Z</time>
      </trkpt>
      <trkpt lat="48.40062" lon="7.2997">
        <ele>748</ele>
        <time>2020-09-06T12:17:26.236Z</time>
      </trkpt>
      <trkpt lat="48.40061" lon="7.29972">
        <ele>748</ele>
        <time>2020-09-06T12:17:27.237Z</time>
      </trkpt>
      <trkpt lat="48.40062" lon="7.29974">
        <ele>748</ele>
        <time>2020-09-06T12:17:28.237Z</time>
      </trkpt>
      <trkpt lat="48.40062" lon="7.29975">
        <ele>748</ele>
        <time>2020-09-06T12:17:29.237Z</time>
      </trkpt>
      <trkpt lat="48.40062" lon="7.29976">
        <ele>748</ele>
        <time>2020-09-06T12:17:30.236Z</time>
      </trkpt>
      <trkpt lat="48.40063" lon="7.29977">
        <ele>748</ele>
        <time>2020-09-06T12:17:31.237Z</time>
      </trkpt>
      <trkpt lat="48.40064" lon="7.29978">
        <ele>748</ele>
        <time>2020-09-06T12:17:32.237Z</time>
      </trkpt>
      <trkpt lat="48.40064" lon="7.29979">
        <ele>747</ele>
        <time>2020-09-06T12:17:33.237Z</time>
      </trkpt>
      <trkpt lat="48.40064" lon="7.2998">
        <ele>747</ele>
        <time>2020-09-06T12:17:34.237Z</time>
      </trkpt>
      <trkpt lat="48.40064" lon="7.29982">
        <ele>746</ele>
        <time>2020-09-06T12:17:35.237Z</time>
      </trkpt>
      <trkpt lat="48.40064" lon="7.29983">
        <ele>746</ele>
        <time>2020-09-06T12:17:36.237Z</time>
      </trkpt>
      <trkpt lat="48.40064" lon="7.29985">
        <ele>745</ele>
        <time>2020-09-06T12:17:37.237Z</time>
      </trkpt>
      <trkpt lat="48.40064" lon="7.29987">
        <ele>744</ele>
        <time>2020-09-06T12:17:38.237Z</time>
      </trkpt>
      <trkpt lat="48.40063" lon="7.29988">
        <ele>744</ele>
        <time>2020-09-06T12:17:39.237Z</time>
      </trkpt>
      <trkpt lat="48.40064" lon="7.2999">
        <ele>744</ele>
        <time>2020-09-06T12:17:40.237Z</time>
      </trkpt>
      <trkpt lat="48.40063" lon="7.29991">
        <ele>744</ele>
        <time>2020-09-06T12:17:41.236Z</time>
      </trkpt>
      <trkpt lat="48.40063" lon="7.29993">
        <ele>743</ele>
        <time>2020-09-06T12:17:42.237Z</time>
      </trkpt>
      <trkpt lat="48.40062" lon="7.29995">
        <ele>743</ele>
        <time>2020-09-06T12:17:43.237Z</time>
      </trkpt>
      <trkpt lat="48.40062" lon="7.29997">
        <ele>743</ele>
        <time>2020-09-06T12:17:44.237Z</time>
      </trkpt>
      <trkpt lat="48.40062" lon="7.29999">
        <ele>742</ele>
        <time>2020-09-06T12:17:45.237Z</time>
      </trkpt>
      <trkpt lat="48.40061" lon="7.30001">
        <ele>742</ele>
        <time>2020-09-06T12:17:46.237Z</time>
      </trkpt>
      <trkpt lat="48.40061" lon="7.30003">
        <ele>742</ele>
        <time>2020-09-06T12:17:47.237Z</time>
      </trkpt>
      <trkpt lat="48.4006" lon="7.30005">
        <ele>742</ele>
        <time>2020-09-06T12:17:48.237Z</time>
      </trkpt>
      <trkpt lat="48.4006" lon="7.30007">
        <ele>742</ele>
        <time>2020-09-06T12:17:49.237Z</time>
      </trkpt>
      <trkpt lat="48.4006" lon="7.30008">
        <ele>741</ele>
        <time>2020-09-06T12:17:50.237Z</time>
      </trkpt>
      <trkpt lat="48.40059" lon="7.3001">
        <ele>741</ele>
        <time>2020-09-06T12:17:51.237Z</time>
      </trkpt>
      <trkpt lat="48.40058" lon="7.30012">
        <ele>740</ele>
        <time>2020-09-06T12:17:52.237Z</time>
      </trkpt>
      <trkpt lat="48.40058" lon="7.30013">
        <ele>740</ele>
        <time>2020-09-06T12:17:53.237Z</time>
      </trkpt>
      <trkpt lat="48.40058" lon="7.30015">
        <ele>740</ele>
        <time>2020-09-06T12:17:54.237Z</time>
      </trkpt>
      <trkpt lat="48.40058" lon="7.30017">
        <ele>740</ele>
        <time>2020-09-06T12:17:55.237Z</time>
      </trkpt>
      <trkpt lat="48.40058" lon="7.30018">
        <ele>740</ele>
        <time>2020-09-06T12:17:56.237Z</time>
      </trkpt>
      <trkpt lat="48.40058" lon="7.30021">
        <ele>740</ele>
        <time>2020-09-06T12:17:57.237Z</time>
      </trkpt>
      <trkpt lat="48.40058" lon="7.30022">
        <ele>740</ele>
        <time>2020-09-06T12:17:58.237Z</time>
      </trkpt>
      <trkpt lat="48.40058" lon="7.30023">
        <ele>741</ele>
        <time>2020-09-06T12:17:59.237Z</time>
      </trkpt>
      <trkpt lat="48.40058" lon="7.30026">
        <ele>741</ele>
        <time>2020-09-06T12:18:00.237Z</time>
      </trkpt>
      <trkpt lat="48.40058" lon="7.30028">
        <ele>741</ele>
        <time>2020-09-06T12:18:01.237Z</time>
      </trkpt>
      <trkpt lat="48.40058" lon="7.3003">
        <ele>741</ele>
        <time>2020-09-06T12:18:02.236Z</time>
      </trkpt>
      <trkpt lat="48.40058" lon="7.30031">
        <ele>741</ele>
        <time>2020-09-06T12:18:03.236Z</time>
      </trkpt>
      <trkpt lat="48.40058" lon="7.30033">
        <ele>741</ele>
        <time>2020-09-06T12:18:04.236Z</time>
      </trkpt>
      <trkpt lat="48.40058" lon="7.30034">
        <ele>741</ele>
        <time>2020-09-06T12:18:05.237Z</time>
      </trkpt>
      <trkpt lat="48.40058" lon="7.30035">
        <ele>740</ele>
        <time>2020-09-06T12:18:06.236Z</time>
      </trkpt>
      <trkpt lat="48.40057" lon="7.30037">
        <ele>740</ele>
        <time>2020-09-06T12:18:07.237Z</time>
      </trkpt>
      <trkpt lat="48.40057" lon="7.30039">
        <ele>740</ele>
        <time>2020-09-06T12:18:08.236Z</time>
      </trkpt>
      <trkpt lat="48.40057" lon="7.30041">
        <ele>739</ele>
        <time>2020-09-06T12:18:09.237Z</time>
      </trkpt>
      <trkpt lat="48.40056" lon="7.30043">
        <ele>739</ele>
        <time>2020-09-06T12:18:10.237Z</time>
      </trkpt>
      <trkpt lat="48.40057" lon="7.30045">
        <ele>738</ele>
        <time>2020-09-06T12:18:11.237Z</time>
      </trkpt>
      <trkpt lat="48.40057" lon="7.30047">
        <ele>738</ele>
        <time>2020-09-06T12:18:12.236Z</time>
      </trkpt>
      <trkpt lat="48.40057" lon="7.30048">
        <ele>738</ele>
        <time>2020-09-06T12:18:13.236Z</time>
      </trkpt>
      <trkpt lat="48.40057" lon="7.30049">
        <ele>737</ele>
        <time>2020-09-06T12:18:14.237Z</time>
      </trkpt>
      <trkpt lat="48.40057" lon="7.30051">
        <ele>738</ele>
        <time>2020-09-06T12:18:15.236Z</time>
      </trkpt>
      <trkpt lat="48.40056" lon="7.30053">
        <ele>737</ele>
        <time>2020-09-06T12:18:16.236Z</time>
      </trkpt>
      <trkpt lat="48.40056" lon="7.30055">
        <ele>737</ele>
        <time>2020-09-06T12:18:17.236Z</time>
      </trkpt>
      <trkpt lat="48.40056" lon="7.30057">
        <ele>737</ele>
        <time>2020-09-06T12:18:18.236Z</time>
      </trkpt>
      <trkpt lat="48.40055" lon="7.30058">
        <ele>737</ele>
        <time>2020-09-06T12:18:19.237Z</time>
      </trkpt>
      <trkpt lat="48.40055" lon="7.30059">
        <ele>737</ele>
        <time>2020-09-06T12:18:20.237Z</time>
      </trkpt>
      <trkpt lat="48.40055" lon="7.30061">
        <ele>737</ele>
        <time>2020-09-06T12:18:21.236Z</time>
      </trkpt>
      <trkpt lat="48.40054" lon="7.30062">
        <ele>737</ele>
        <time>2020-09-06T12:18:22.236Z</time>
      </trkpt>
      <trkpt lat="48.40054" lon="7.30064">
        <ele>737</ele>
        <time>2020-09-06T12:18:23.237Z</time>
      </trkpt>
      <trkpt lat="48.40054" lon="7.30065">
        <ele>737</ele>
        <time>2020-09-06T12:18:24.236Z</time>
      </trkpt>
      <trkpt lat="48.40053" lon="7.30066">
        <ele>737</ele>
        <time>2020-09-06T12:18:25.237Z</time>
      </trkpt>
      <trkpt lat="48.40053" lon="7.30068">
        <ele>738</ele>
        <time>2020-09-06T12:18:26.237Z</time>
      </trkpt>
      <trkpt lat="48.40053" lon="7.3007">
        <ele>738</ele>
        <time>2020-09-06T12:18:27.236Z</time>
      </trkpt>
      <trkpt lat="48.40053" lon="7.30072">
        <ele>738</ele>
        <time>2020-09-06T12:18:28.236Z</time>
      </trkpt>
      <trkpt lat="48.40053" lon="7.30074">
        <ele>737</ele>
        <time>2020-09-06T12:18:29.237Z</time>
      </trkpt>
      <trkpt lat="48.40054" lon="7.30075">
        <ele>737</ele>
        <time>2020-09-06T12:18:30.237Z</time>
      </trkpt>
      <trkpt lat="48.40054" lon="7.30077">
        <ele>737</ele>
        <time>2020-09-06T12:18:31.236Z</time>
      </trkpt>
      <trkpt lat="48.40054" lon="7.30078">
        <ele>737</ele>
        <time>2020-09-06T12:18:32.236Z</time>
      </trkpt>
      <trkpt lat="48.40055" lon="7.3008">
        <ele>737</ele>
        <time>2020-09-06T12:18:33.237Z</time>
      </trkpt>
      <trkpt lat="48.40055" lon="7.30081">
        <ele>737</ele>
        <time>2020-09-06T12:18:34.237Z</time>
      </trkpt>
      <trkpt lat="48.40056" lon="7.30083">
        <ele>736</ele>
        <time>2020-09-06T12:18:35.237Z</time>
      </trkpt>
      <trkpt lat="48.40057" lon="7.30085">
        <ele>736</ele>
        <time>2020-09-06T12:18:36.236Z</time>
      </trkpt>
      <trkpt lat="48.40057" lon="7.30086">
        <ele>736</ele>
        <time>2020-09-06T12:18:37.236Z</time>
      </trkpt>
      <trkpt lat="48.40057" lon="7.30087">
        <ele>735</ele>
        <time>2020-09-06T12:18:38.237Z</time>
      </trkpt>
      <trkpt lat="48.40057" lon="7.30088">
        <ele>735</ele>
        <time>2020-09-06T12:18:39.237Z</time>
      </trkpt>
      <trkpt lat="48.40058" lon="7.30089">
        <ele>735</ele>
        <time>2020-09-06T12:18:40.237Z</time>
      </trkpt>
      <trkpt lat="48.40058" lon="7.3009">
        <ele>735</ele>
        <time>2020-09-06T12:18:41.237Z</time>
      </trkpt>
      <trkpt lat="48.40058" lon="7.30092">
        <ele>735</ele>
        <time>2020-09-06T12:18:42.236Z</time>
      </trkpt>
      <trkpt lat="48.40058" lon="7.30093">
        <ele>735</ele>
        <time>2020-09-06T12:18:43.237Z</time>
      </trkpt>
      <trkpt lat="48.40058" lon="7.30094">
        <ele>735</ele>
        <time>2020-09-06T12:18:44.237Z</time>
      </trkpt>
      <trkpt lat="48.40058" lon="7.30095">
        <ele>736</ele>
        <time>2020-09-06T12:18:45.237Z</time>
      </trkpt>
      <trkpt lat="48.40058" lon="7.30096">
        <ele>736</ele>
        <time>2020-09-06T12:18:46.236Z</time>
      </trkpt>
      <trkpt lat="48.40058" lon="7.30098">
        <ele>736</ele>
        <time>2020-09-06T12:18:47.236Z</time>
      </trkpt>
      <trkpt lat="48.40059" lon="7.301">
        <ele>737</ele>
        <time>2020-09-06T12:18:48.236Z</time>
      </trkpt>
      <trkpt lat="48.40059" lon="7.30102">
        <ele>737</ele>
        <time>2020-09-06T12:18:49.236Z</time>
      </trkpt>
      <trkpt lat="48.40058" lon="7.30103">
        <ele>738</ele>
        <time>2020-09-06T12:18:50.237Z</time>
      </trkpt>
      <trkpt lat="48.40058" lon="7.30104">
        <ele>738</ele>
        <time>2020-09-06T12:18:51.237Z</time>
      </trkpt>
      <trkpt lat="48.40058" lon="7.30104">
        <ele>739</ele>
        <time>2020-09-06T12:18:52.236Z</time>
      </trkpt>
      <trkpt lat="48.40058" lon="7.30104">
        <ele>739</ele>
        <time>2020-09-06T12:18:53.237Z</time>
      </trkpt>
      <trkpt lat="48.40058" lon="7.30105">
        <ele>740</ele>
        <time>2020-09-06T12:18:54.237Z</time>
      </trkpt>
      <trkpt lat="48.40058" lon="7.30107">
        <ele>741</ele>
        <time>2020-09-06T12:18:55.237Z</time>
      </trkpt>
      <trkpt lat="48.40058" lon="7.30108">
        <ele>741</ele>
        <time>2020-09-06T12:18:56.236Z</time>
      </trkpt>
      <trkpt lat="48.40058" lon="7.30109">
        <ele>741</ele>
        <time>2020-09-06T12:18:57.237Z</time>
      </trkpt>
      <trkpt lat="48.40058" lon="7.30111">
        <ele>742</ele>
        <time>2020-09-06T12:18:58.236Z</time>
      </trkpt>
      <trkpt lat="48.40057" lon="7.30117">
        <ele>747</ele>
        <time>2020-09-06T12:18:59.238Z</time>
      </trkpt>
      <trkpt lat="48.40056" lon="7.30117">
        <ele>745</ele>
        <time>2020-09-06T12:19:00.238Z</time>
      </trkpt>
      <trkpt lat="48.40056" lon="7.30117">
        <ele>744</ele>
        <time>2020-09-06T12:19:01.239Z</time>
      </trkpt>
      <trkpt lat="48.40052" lon="7.30122">
        <ele>741</ele>
        <time>2020-09-06T12:19:02.240Z</time>
      </trkpt>
      <trkpt lat="48.40052" lon="7.30124">
        <ele>741</ele>
        <time>2020-09-06T12:19:03.240Z</time>
      </trkpt>
      <trkpt lat="48.40052" lon="7.30125">
        <ele>741</ele>
        <time>2020-09-06T12:19:04.239Z</time>
      </trkpt>
      <trkpt lat="48.40051" lon="7.30126">
        <ele>740</ele>
        <time>2020-09-06T12:19:05.240Z</time>
      </trkpt>
      <trkpt lat="48.4005" lon="7.30126">
        <ele>740</ele>
        <time>2020-09-06T12:19:06.240Z</time>
      </trkpt>
      <trkpt lat="48.4005" lon="7.30127">
        <ele>740</ele>
        <time>2020-09-06T12:19:07.241Z</time>
      </trkpt>
      <trkpt lat="48.4005" lon="7.30127">
        <ele>740</ele>
        <time>2020-09-06T12:19:08.241Z</time>
      </trkpt>
      <trkpt lat="48.4005" lon="7.30127">
        <ele>740</ele>
        <time>2020-09-06T12:19:09.240Z</time>
      </trkpt>
      <trkpt lat="48.40051" lon="7.30129">
        <ele>739</ele>
        <time>2020-09-06T12:19:10.242Z</time>
      </trkpt>
      <trkpt lat="48.40052" lon="7.3013">
        <ele>738</ele>
        <time>2020-09-06T12:19:11.241Z</time>
      </trkpt>
      <trkpt lat="48.40052" lon="7.3013">
        <ele>738</ele>
        <time>2020-09-06T12:19:12.241Z</time>
      </trkpt>
      <trkpt lat="48.40052" lon="7.3013">
        <ele>737</ele>
        <time>2020-09-06T12:19:13.242Z</time>
      </trkpt>
      <trkpt lat="48.40052" lon="7.30131">
        <ele>737</ele>
        <time>2020-09-06T12:19:14.242Z</time>
      </trkpt>
      <trkpt lat="48.40054" lon="7.30134">
        <ele>731</ele>
        <time>2020-09-06T12:19:15.244Z</time>
      </trkpt>
      <trkpt lat="48.40055" lon="7.30136">
        <ele>731</ele>
        <time>2020-09-06T12:19:16.243Z</time>
      </trkpt>
      <trkpt lat="48.40056" lon="7.30138">
        <ele>730</ele>
        <time>2020-09-06T12:19:17.243Z</time>
      </trkpt>
      <trkpt lat="48.40056" lon="7.30141">
        <ele>730</ele>
        <time>2020-09-06T12:19:18.244Z</time>
      </trkpt>
      <trkpt lat="48.40057" lon="7.30144">
        <ele>730</ele>
        <time>2020-09-06T12:19:19.243Z</time>
      </trkpt>
      <trkpt lat="48.40058" lon="7.30146">
        <ele>731</ele>
        <time>2020-09-06T12:19:20.243Z</time>
      </trkpt>
      <trkpt lat="48.40059" lon="7.30149">
        <ele>731</ele>
        <time>2020-09-06T12:19:21.243Z</time>
      </trkpt>
      <trkpt lat="48.4006" lon="7.30151">
        <ele>732</ele>
        <time>2020-09-06T12:19:22.243Z</time>
      </trkpt>
      <trkpt lat="48.4006" lon="7.30152">
        <ele>732</ele>
        <time>2020-09-06T12:19:23.244Z</time>
      </trkpt>
      <trkpt lat="48.40061" lon="7.30153">
        <ele>732</ele>
        <time>2020-09-06T12:19:24.243Z</time>
      </trkpt>
      <trkpt lat="48.40061" lon="7.30154">
        <ele>733</ele>
        <time>2020-09-06T12:19:25.244Z</time>
      </trkpt>
      <trkpt lat="48.40061" lon="7.30155">
        <ele>733</ele>
        <time>2020-09-06T12:19:26.244Z</time>
      </trkpt>
      <trkpt lat="48.40062" lon="7.30156">
        <ele>733</ele>
        <time>2020-09-06T12:19:27.244Z</time>
      </trkpt>
      <trkpt lat="48.40063" lon="7.30157">
        <ele>733</ele>
        <time>2020-09-06T12:19:28.243Z</time>
      </trkpt>
      <trkpt lat="48.40064" lon="7.30157">
        <ele>733</ele>
        <time>2020-09-06T12:19:29.244Z</time>
      </trkpt>
      <trkpt lat="48.40064" lon="7.30158">
        <ele>734</ele>
        <time>2020-09-06T12:19:30.244Z</time>
      </trkpt>
      <trkpt lat="48.40065" lon="7.30159">
        <ele>734</ele>
        <time>2020-09-06T12:19:31.244Z</time>
      </trkpt>
      <trkpt lat="48.40065" lon="7.3016">
        <ele>734</ele>
        <time>2020-09-06T12:19:32.243Z</time>
      </trkpt>
      <trkpt lat="48.40064" lon="7.30162">
        <ele>733</ele>
        <time>2020-09-06T12:19:33.244Z</time>
      </trkpt>
      <trkpt lat="48.40062" lon="7.30165">
        <ele>733</ele>
        <time>2020-09-06T12:19:34.244Z</time>
      </trkpt>
      <trkpt lat="48.40061" lon="7.30166">
        <ele>732</ele>
        <time>2020-09-06T12:19:35.244Z</time>
      </trkpt>
      <trkpt lat="48.40061" lon="7.30167">
        <ele>731</ele>
        <time>2020-09-06T12:19:36.244Z</time>
      </trkpt>
      <trkpt lat="48.40061" lon="7.30168">
        <ele>731</ele>
        <time>2020-09-06T12:19:37.244Z</time>
      </trkpt>
      <trkpt lat="48.4006" lon="7.30169">
        <ele>730</ele>
        <time>2020-09-06T12:19:38.244Z</time>
      </trkpt>
      <trkpt lat="48.4006" lon="7.3017">
        <ele>729</ele>
        <time>2020-09-06T12:19:39.244Z</time>
      </trkpt>
      <trkpt lat="48.40059" lon="7.30171">
        <ele>729</ele>
        <time>2020-09-06T12:19:40.243Z</time>
      </trkpt>
      <trkpt lat="48.40059" lon="7.30172">
        <ele>729</ele>
        <time>2020-09-06T12:19:41.244Z</time>
      </trkpt>
      <trkpt lat="48.40058" lon="7.30173">
        <ele>728</ele>
        <time>2020-09-06T12:19:42.244Z</time>
      </trkpt>
      <trkpt lat="48.40057" lon="7.30174">
        <ele>728</ele>
        <time>2020-09-06T12:19:43.244Z</time>
      </trkpt>
      <trkpt lat="48.40057" lon="7.30175">
        <ele>728</ele>
        <time>2020-09-06T12:19:44.243Z</time>
      </trkpt>
      <trkpt lat="48.40056" lon="7.30176">
        <ele>728</ele>
        <time>2020-09-06T12:19:45.243Z</time>
      </trkpt>
      <trkpt lat="48.40056" lon="7.30177">
        <ele>728</ele>
        <time>2020-09-06T12:19:46.244Z</time>
      </trkpt>
      <trkpt lat="48.40056" lon="7.30178">
        <ele>728</ele>
        <time>2020-09-06T12:19:47.243Z</time>
      </trkpt>
      <trkpt lat="48.40055" lon="7.3018">
        <ele>728</ele>
        <time>2020-09-06T12:19:48.243Z</time>
      </trkpt>
      <trkpt lat="48.40055" lon="7.30181">
        <ele>728</ele>
        <time>2020-09-06T12:19:49.244Z</time>
      </trkpt>
      <trkpt lat="48.40055" lon="7.30183">
        <ele>727</ele>
        <time>2020-09-06T12:19:50.244Z</time>
      </trkpt>
      <trkpt lat="48.40056" lon="7.30185">
        <ele>727</ele>
        <time>2020-09-06T12:19:51.243Z</time>
      </trkpt>
      <trkpt lat="48.40055" lon="7.30187">
        <ele>727</ele>
        <time>2020-09-06T12:19:52.244Z</time>
      </trkpt>
      <trkpt lat="48.40054" lon="7.3019">
        <ele>727</ele>
        <time>2020-09-06T12:19:53.244Z</time>
      </trkpt>
      <trkpt lat="48.40053" lon="7.30192">
        <ele>727</ele>
        <time>2020-09-06T12:19:54.244Z</time>
      </trkpt>
      <trkpt lat="48.40053" lon="7.30195">
        <ele>726</ele>
        <time>2020-09-06T12:19:55.244Z</time>
      </trkpt>
      <trkpt lat="48.40052" lon="7.30197">
        <ele>725</ele>
        <time>2020-09-06T12:19:56.244Z</time>
      </trkpt>
      <trkpt lat="48.40052" lon="7.30198">
        <ele>725</ele>
        <time>2020-09-06T12:19:57.244Z</time>
      </trkpt>
      <trkpt lat="48.40052" lon="7.30199">
        <ele>725</ele>
        <time>2020-09-06T12:19:58.244Z</time>
      </trkpt>
      <trkpt lat="48.40051" lon="7.30199">
        <ele>724</ele>
        <time>2020-09-06T12:19:59.244Z</time>
      </trkpt>
      <trkpt lat="48.4005" lon="7.302">
        <ele>724</ele>
        <time>2020-09-06T12:20:00.244Z</time>
      </trkpt>
      <trkpt lat="48.40049" lon="7.302">
        <ele>724</ele>
        <time>2020-09-06T12:20:01.244Z</time>
      </trkpt>
      <trkpt lat="48.40048" lon="7.302">
        <ele>724</ele>
        <time>2020-09-06T12:20:02.243Z</time>
      </trkpt>
      <trkpt lat="48.40046" lon="7.30199">
        <ele>724</ele>
        <time>2020-09-06T12:20:03.244Z</time>
      </trkpt>
      <trkpt lat="48.40044" lon="7.30198">
        <ele>725</ele>
        <time>2020-09-06T12:20:04.243Z</time>
      </trkpt>
      <trkpt lat="48.40043" lon="7.30197">
        <ele>725</ele>
        <time>2020-09-06T12:20:05.244Z</time>
      </trkpt>
      <trkpt lat="48.40041" lon="7.30196">
        <ele>725</ele>
        <time>2020-09-06T12:20:06.243Z</time>
      </trkpt>
      <trkpt lat="48.40041" lon="7.30194">
        <ele>725</ele>
        <time>2020-09-06T12:20:07.244Z</time>
      </trkpt>
      <trkpt lat="48.4004" lon="7.30192">
        <ele>725</ele>
        <time>2020-09-06T12:20:08.243Z</time>
      </trkpt>
      <trkpt lat="48.4004" lon="7.30191">
        <ele>725</ele>
        <time>2020-09-06T12:20:09.244Z</time>
      </trkpt>
      <trkpt lat="48.4004" lon="7.30189">
        <ele>724</ele>
        <time>2020-09-06T12:20:10.243Z</time>
      </trkpt>
      <trkpt lat="48.4004" lon="7.30188">
        <ele>724</ele>
        <time>2020-09-06T12:20:11.243Z</time>
      </trkpt>
      <trkpt lat="48.4004" lon="7.30186">
        <ele>723</ele>
        <time>2020-09-06T12:20:12.243Z</time>
      </trkpt>
      <trkpt lat="48.4004" lon="7.30184">
        <ele>723</ele>
        <time>2020-09-06T12:20:13.244Z</time>
      </trkpt>
      <trkpt lat="48.4004" lon="7.30182">
        <ele>722</ele>
        <time>2020-09-06T12:20:14.244Z</time>
      </trkpt>
      <trkpt lat="48.4004" lon="7.30181">
        <ele>721</ele>
        <time>2020-09-06T12:20:15.243Z</time>
      </trkpt>
      <trkpt lat="48.4004" lon="7.30179">
        <ele>720</ele>
        <time>2020-09-06T12:20:16.244Z</time>
      </trkpt>
      <trkpt lat="48.4004" lon="7.30177">
        <ele>719</ele>
        <time>2020-09-06T12:20:17.244Z</time>
      </trkpt>
      <trkpt lat="48.40039" lon="7.30176">
        <ele>718</ele>
        <time>2020-09-06T12:20:18.243Z</time>
      </trkpt>
      <trkpt lat="48.40039" lon="7.30174">
        <ele>717</ele>
        <time>2020-09-06T12:20:19.244Z</time>
      </trkpt>
      <trkpt lat="48.4004" lon="7.30173">
        <ele>716</ele>
        <time>2020-09-06T12:20:20.244Z</time>
      </trkpt>
      <trkpt lat="48.4004" lon="7.30172">
        <ele>716</ele>
        <time>2020-09-06T12:20:21.243Z</time>
      </trkpt>
      <trkpt lat="48.40041" lon="7.30171">
        <ele>715</ele>
        <time>2020-09-06T12:20:22.243Z</time>
      </trkpt>
      <trkpt lat="48.40041" lon="7.30169">
        <ele>714</ele>
        <time>2020-09-06T12:20:23.244Z</time>
      </trkpt>
      <trkpt lat="48.4004" lon="7.30168">
        <ele>713</ele>
        <time>2020-09-06T12:20:24.244Z</time>
      </trkpt>
      <trkpt lat="48.40039" lon="7.30166">
        <ele>713</ele>
        <time>2020-09-06T12:20:25.243Z</time>
      </trkpt>
      <trkpt lat="48.40038" lon="7.30165">
        <ele>712</ele>
        <time>2020-09-06T12:20:26.243Z</time>
      </trkpt>
      <trkpt lat="48.40037" lon="7.30164">
        <ele>712</ele>
        <time>2020-09-06T12:20:27.243Z</time>
      </trkpt>
      <trkpt lat="48.40035" lon="7.30163">
        <ele>712</ele>
        <time>2020-09-06T12:20:28.243Z</time>
      </trkpt>
      <trkpt lat="48.40034" lon="7.30162">
        <ele>713</ele>
        <time>2020-09-06T12:20:29.243Z</time>
      </trkpt>
      <trkpt lat="48.40034" lon="7.30161">
        <ele>713</ele>
        <time>2020-09-06T12:20:30.244Z</time>
      </trkpt>
      <trkpt lat="48.40034" lon="7.3016">
        <ele>714</ele>
        <time>2020-09-06T12:20:31.244Z</time>
      </trkpt>
      <trkpt lat="48.40034" lon="7.3016">
        <ele>714</ele>
        <time>2020-09-06T12:20:32.244Z</time>
      </trkpt>
      <trkpt lat="48.40034" lon="7.30159">
        <ele>720</ele>
        <time>2020-09-06T12:20:33.244Z</time>
      </trkpt>
      <trkpt lat="48.40034" lon="7.30159">
        <ele>721</ele>
        <time>2020-09-06T12:20:34.245Z</time>
      </trkpt>
      <trkpt lat="48.40034" lon="7.30158">
        <ele>721</ele>
        <time>2020-09-06T12:20:35.244Z</time>
      </trkpt>
      <trkpt lat="48.40034" lon="7.30158">
        <ele>721</ele>
        <time>2020-09-06T12:20:36.245Z</time>
      </trkpt>
      <trkpt lat="48.40034" lon="7.30157">
        <ele>721</ele>
        <time>2020-09-06T12:20:37.245Z</time>
      </trkpt>
      <trkpt lat="48.40033" lon="7.30157">
        <ele>722</ele>
        <time>2020-09-06T12:20:38.245Z</time>
      </trkpt>
      <trkpt lat="48.40033" lon="7.30156">
        <ele>722</ele>
        <time>2020-09-06T12:20:39.245Z</time>
      </trkpt>
      <trkpt lat="48.40032" lon="7.30155">
        <ele>722</ele>
        <time>2020-09-06T12:20:40.245Z</time>
      </trkpt>
      <trkpt lat="48.40032" lon="7.30155">
        <ele>723</ele>
        <time>2020-09-06T12:20:41.245Z</time>
      </trkpt>
      <trkpt lat="48.40031" lon="7.30154">
        <ele>723</ele>
        <time>2020-09-06T12:20:42.245Z</time>
      </trkpt>
      <trkpt lat="48.40031" lon="7.30153">
        <ele>723</ele>
        <time>2020-09-06T12:21:02.429Z</time>
      </trkpt>
      <trkpt lat="48.4003" lon="7.30152">
        <ele>723</ele>
        <time>2020-09-06T12:21:03.429Z</time>
      </trkpt>
      <trkpt lat="48.4003" lon="7.30152">
        <ele>723</ele>
        <time>2020-09-06T12:21:04.429Z</time>
      </trkpt>
      <trkpt lat="48.4003" lon="7.30151">
        <ele>723</ele>
        <time>2020-09-06T12:21:05.428Z</time>
      </trkpt>
      <trkpt lat="48.40029" lon="7.30151">
        <ele>723</ele>
        <time>2020-09-06T12:21:06.429Z</time>
      </trkpt>
      <trkpt lat="48.40029" lon="7.30151">
        <ele>723</ele>
        <time>2020-09-06T12:21:07.429Z</time>
      </trkpt>
      <trkpt lat="48.40028" lon="7.30151">
        <ele>724</ele>
        <time>2020-09-06T12:21:08.429Z</time>
      </trkpt>
      <trkpt lat="48.40028" lon="7.30151">
        <ele>725</ele>
        <time>2020-09-06T12:21:09.429Z</time>
      </trkpt>
      <trkpt lat="48.40029" lon="7.30158">
        <ele>723</ele>
        <time>2020-09-06T12:21:10.430Z</time>
      </trkpt>
      <trkpt lat="48.40029" lon="7.30159">
        <ele>723</ele>
        <time>2020-09-06T12:21:11.429Z</time>
      </trkpt>
      <trkpt lat="48.4003" lon="7.30161">
        <ele>723</ele>
        <time>2020-09-06T12:21:12.429Z</time>
      </trkpt>
      <trkpt lat="48.4003" lon="7.30162">
        <ele>723</ele>
        <time>2020-09-06T12:21:13.429Z</time>
      </trkpt>
      <trkpt lat="48.4003" lon="7.30163">
        <ele>723</ele>
        <time>2020-09-06T12:21:14.429Z</time>
      </trkpt>
      <trkpt lat="48.4003" lon="7.30164">
        <ele>722</ele>
        <time>2020-09-06T12:21:15.430Z</time>
      </trkpt>
      <trkpt lat="48.4003" lon="7.30165">
        <ele>722</ele>
        <time>2020-09-06T12:21:16.430Z</time>
      </trkpt>
      <trkpt lat="48.4003" lon="7.30166">
        <ele>721</ele>
        <time>2020-09-06T12:21:17.430Z</time>
      </trkpt>
      <trkpt lat="48.40029" lon="7.30167">
        <ele>721</ele>
        <time>2020-09-06T12:21:18.430Z</time>
      </trkpt>
      <trkpt lat="48.40029" lon="7.30168">
        <ele>720</ele>
        <time>2020-09-06T12:21:19.430Z</time>
      </trkpt>
      <trkpt lat="48.40028" lon="7.30169">
        <ele>720</ele>
        <time>2020-09-06T12:21:20.429Z</time>
      </trkpt>
      <trkpt lat="48.40028" lon="7.3017">
        <ele>719</ele>
        <time>2020-09-06T12:21:21.430Z</time>
      </trkpt>
      <trkpt lat="48.40029" lon="7.30171">
        <ele>719</ele>
        <time>2020-09-06T12:21:22.430Z</time>
      </trkpt>
      <trkpt lat="48.40028" lon="7.30172">
        <ele>719</ele>
        <time>2020-09-06T12:21:23.430Z</time>
      </trkpt>
      <trkpt lat="48.40028" lon="7.30173">
        <ele>719</ele>
        <time>2020-09-06T12:21:24.429Z</time>
      </trkpt>
      <trkpt lat="48.40028" lon="7.30174">
        <ele>719</ele>
        <time>2020-09-06T12:21:25.430Z</time>
      </trkpt>
      <trkpt lat="48.40027" lon="7.30176">
        <ele>719</ele>
        <time>2020-09-06T12:21:26.429Z</time>
      </trkpt>
      <trkpt lat="48.40026" lon="7.30178">
        <ele>720</ele>
        <time>2020-09-06T12:21:27.429Z</time>
      </trkpt>
      <trkpt lat="48.40024" lon="7.30178">
        <ele>720</ele>
        <time>2020-09-06T12:21:28.430Z</time>
      </trkpt>
      <trkpt lat="48.40022" lon="7.30179">
        <ele>720</ele>
        <time>2020-09-06T12:21:29.430Z</time>
      </trkpt>
      <trkpt lat="48.40021" lon="7.3018">
        <ele>720</ele>
        <time>2020-09-06T12:21:30.429Z</time>
      </trkpt>
      <trkpt lat="48.4002" lon="7.30179">
        <ele>721</ele>
        <time>2020-09-06T12:21:31.430Z</time>
      </trkpt>
      <trkpt lat="48.40019" lon="7.30179">
        <ele>721</ele>
        <time>2020-09-06T12:21:32.430Z</time>
      </trkpt>
      <trkpt lat="48.40019" lon="7.30179">
        <ele>721</ele>
        <time>2020-09-06T12:21:33.430Z</time>
      </trkpt>
      <trkpt lat="48.40019" lon="7.30178">
        <ele>721</ele>
        <time>2020-09-06T12:21:34.429Z</time>
      </trkpt>
      <trkpt lat="48.40019" lon="7.30178">
        <ele>721</ele>
        <time>2020-09-06T12:21:35.429Z</time>
      </trkpt>
      <trkpt lat="48.40022" lon="7.30181">
        <ele>718</ele>
        <time>2020-09-06T12:21:36.430Z</time>
      </trkpt>
      <trkpt lat="48.40022" lon="7.30181">
        <ele>718</ele>
        <time>2020-09-06T12:21:37.431Z</time>
      </trkpt>
      <trkpt lat="48.40018" lon="7.3018">
        <ele>706</ele>
        <time>2020-09-06T12:21:38.431Z</time>
      </trkpt>
      <trkpt lat="48.40018" lon="7.30181">
        <ele>706</ele>
        <time>2020-09-06T12:21:39.431Z</time>
      </trkpt>
      <trkpt lat="48.40018" lon="7.3018">
        <ele>706</ele>
        <time>2020-09-06T12:21:40.431Z</time>
      </trkpt>
      <trkpt lat="48.40017" lon="7.30179">
        <ele>706</ele>
        <time>2020-09-06T12:21:41.430Z</time>
      </trkpt>
      <trkpt lat="48.40018" lon="7.30179">
        <ele>706</ele>
        <time>2020-09-06T12:21:42.430Z</time>
      </trkpt>
      <trkpt lat="48.40019" lon="7.3018">
        <ele>706</ele>
        <time>2020-09-06T12:21:43.431Z</time>
      </trkpt>
      <trkpt lat="48.4002" lon="7.30179">
        <ele>705</ele>
        <time>2020-09-06T12:21:44.431Z</time>
      </trkpt>
      <trkpt lat="48.40021" lon="7.30179">
        <ele>705</ele>
        <time>2020-09-06T12:21:45.431Z</time>
      </trkpt>
      <trkpt lat="48.40021" lon="7.30179">
        <ele>704</ele>
        <time>2020-09-06T12:21:46.431Z</time>
      </trkpt>
      <trkpt lat="48.4002" lon="7.30179">
        <ele>704</ele>
        <time>2020-09-06T12:21:47.430Z</time>
      </trkpt>
      <trkpt lat="48.40021" lon="7.3018">
        <ele>704</ele>
        <time>2020-09-06T12:21:48.430Z</time>
      </trkpt>
      <trkpt lat="48.4002" lon="7.3018">
        <ele>703</ele>
        <time>2020-09-06T12:21:49.430Z</time>
      </trkpt>
      <trkpt lat="48.40017" lon="7.30178">
        <ele>703</ele>
        <time>2020-09-06T12:21:50.430Z</time>
      </trkpt>
      <trkpt lat="48.40017" lon="7.30177">
        <ele>702</ele>
        <time>2020-09-06T12:21:51.431Z</time>
      </trkpt>
      <trkpt lat="48.40017" lon="7.30177">
        <ele>702</ele>
        <time>2020-09-06T12:21:52.431Z</time>
      </trkpt>
      <trkpt lat="48.40013" lon="7.30185">
        <ele>699</ele>
        <time>2020-09-06T12:21:53.431Z</time>
      </trkpt>
      <trkpt lat="48.40013" lon="7.30185">
        <ele>700</ele>
        <time>2020-09-06T12:21:54.431Z</time>
      </trkpt>
      <trkpt lat="48.40013" lon="7.30186">
        <ele>700</ele>
        <time>2020-09-06T12:21:55.430Z</time>
      </trkpt>
      <trkpt lat="48.40012" lon="7.30186">
        <ele>701</ele>
        <time>2020-09-06T12:21:56.431Z</time>
      </trkpt>
      <trkpt lat="48.40012" lon="7.30187">
        <ele>701</ele>
        <time>2020-09-06T12:21:57.431Z</time>
      </trkpt>
      <trkpt lat="48.40012" lon="7.30188">
        <ele>701</ele>
        <time>2020-09-06T12:21:58.431Z</time>
      </trkpt>
      <trkpt lat="48.40011" lon="7.30189">
        <ele>702</ele>
        <time>2020-09-06T12:21:59.430Z</time>
      </trkpt>
      <trkpt lat="48.40011" lon="7.3019">
        <ele>703</ele>
        <time>2020-09-06T12:22:00.431Z</time>
      </trkpt>
      <trkpt lat="48.40011" lon="7.30191">
        <ele>703</ele>
        <time>2020-09-06T12:22:01.430Z</time>
      </trkpt>
      <trkpt lat="48.40011" lon="7.30192">
        <ele>704</ele>
        <time>2020-09-06T12:22:02.431Z</time>
      </trkpt>
      <trkpt lat="48.40011" lon="7.30193">
        <ele>704</ele>
        <time>2020-09-06T12:22:03.431Z</time>
      </trkpt>
      <trkpt lat="48.40011" lon="7.30194">
        <ele>705</ele>
        <time>2020-09-06T12:22:04.431Z</time>
      </trkpt>
      <trkpt lat="48.4001" lon="7.30194">
        <ele>705</ele>
        <time>2020-09-06T12:22:05.430Z</time>
      </trkpt>
      <trkpt lat="48.4001" lon="7.30194">
        <ele>706</ele>
        <time>2020-09-06T12:22:06.431Z</time>
      </trkpt>
      <trkpt lat="48.4001" lon="7.30194">
        <ele>706</ele>
        <time>2020-09-06T12:22:07.431Z</time>
      </trkpt>
      <trkpt lat="48.4001" lon="7.30196">
        <ele>707</ele>
        <time>2020-09-06T12:22:08.430Z</time>
      </trkpt>
      <trkpt lat="48.4001" lon="7.30197">
        <ele>708</ele>
        <time>2020-09-06T12:22:09.431Z</time>
      </trkpt>
      <trkpt lat="48.4001" lon="7.30198">
        <ele>708</ele>
        <time>2020-09-06T12:22:10.430Z</time>
      </trkpt>
      <trkpt lat="48.4001" lon="7.30199">
        <ele>708</ele>
        <time>2020-09-06T12:22:11.430Z</time>
      </trkpt>
      <trkpt lat="48.40009" lon="7.30201">
        <ele>709</ele>
        <time>2020-09-06T12:22:12.431Z</time>
      </trkpt>
      <trkpt lat="48.40009" lon="7.30202">
        <ele>709</ele>
        <time>2020-09-06T12:22:13.431Z</time>
      </trkpt>
      <trkpt lat="48.40009" lon="7.30204">
        <ele>709</ele>
        <time>2020-09-06T12:22:14.430Z</time>
      </trkpt>
      <trkpt lat="48.40009" lon="7.30206">
        <ele>709</ele>
        <time>2020-09-06T12:22:15.430Z</time>
      </trkpt>
      <trkpt lat="48.40009" lon="7.30207">
        <ele>709</ele>
        <time>2020-09-06T12:22:16.431Z</time>
      </trkpt>
      <trkpt lat="48.4001" lon="7.30208">
        <ele>709</ele>
        <time>2020-09-06T12:22:17.430Z</time>
      </trkpt>
      <trkpt lat="48.40009" lon="7.30209">
        <ele>710</ele>
        <time>2020-09-06T12:22:18.431Z</time>
      </trkpt>
      <trkpt lat="48.40009" lon="7.3021">
        <ele>710</ele>
        <time>2020-09-06T12:22:19.430Z</time>
      </trkpt>
      <trkpt lat="48.40009" lon="7.30212">
        <ele>710</ele>
        <time>2020-09-06T12:22:20.430Z</time>
      </trkpt>
      <trkpt lat="48.40008" lon="7.30213">
        <ele>710</ele>
        <time>2020-09-06T12:22:21.431Z</time>
      </trkpt>
      <trkpt lat="48.40009" lon="7.30214">
        <ele>710</ele>
        <time>2020-09-06T12:22:22.431Z</time>
      </trkpt>
      <trkpt lat="48.40009" lon="7.30216">
        <ele>710</ele>
        <time>2020-09-06T12:22:23.430Z</time>
      </trkpt>
      <trkpt lat="48.40009" lon="7.30217">
        <ele>709</ele>
        <time>2020-09-06T12:22:24.430Z</time>
      </trkpt>
      <trkpt lat="48.40009" lon="7.30218">
        <ele>709</ele>
        <time>2020-09-06T12:22:25.431Z</time>
      </trkpt>
      <trkpt lat="48.40009" lon="7.30219">
        <ele>708</ele>
        <time>2020-09-06T12:22:26.431Z</time>
      </trkpt>
      <trkpt lat="48.40008" lon="7.30221">
        <ele>708</ele>
        <time>2020-09-06T12:22:27.431Z</time>
      </trkpt>
      <trkpt lat="48.40008" lon="7.30222">
        <ele>707</ele>
        <time>2020-09-06T12:22:28.431Z</time>
      </trkpt>
      <trkpt lat="48.40007" lon="7.30223">
        <ele>707</ele>
        <time>2020-09-06T12:22:29.431Z</time>
      </trkpt>
      <trkpt lat="48.40007" lon="7.30224">
        <ele>707</ele>
        <time>2020-09-06T12:22:30.431Z</time>
      </trkpt>
      <trkpt lat="48.40006" lon="7.30226">
        <ele>706</ele>
        <time>2020-09-06T12:22:31.431Z</time>
      </trkpt>
      <trkpt lat="48.40006" lon="7.30228">
        <ele>706</ele>
        <time>2020-09-06T12:22:32.431Z</time>
      </trkpt>
      <trkpt lat="48.40006" lon="7.30229">
        <ele>705</ele>
        <time>2020-09-06T12:22:33.431Z</time>
      </trkpt>
      <trkpt lat="48.40006" lon="7.3023">
        <ele>705</ele>
        <time>2020-09-06T12:22:34.431Z</time>
      </trkpt>
      <trkpt lat="48.40005" lon="7.30231">
        <ele>704</ele>
        <time>2020-09-06T12:22:35.431Z</time>
      </trkpt>
      <trkpt lat="48.40005" lon="7.30233">
        <ele>704</ele>
        <time>2020-09-06T12:22:36.431Z</time>
      </trkpt>
      <trkpt lat="48.40004" lon="7.30234">
        <ele>704</ele>
        <time>2020-09-06T12:22:37.431Z</time>
      </trkpt>
      <trkpt lat="48.40004" lon="7.30236">
        <ele>703</ele>
        <time>2020-09-06T12:22:38.431Z</time>
      </trkpt>
      <trkpt lat="48.40004" lon="7.30237">
        <ele>703</ele>
        <time>2020-09-06T12:22:39.430Z</time>
      </trkpt>
      <trkpt lat="48.40005" lon="7.30239">
        <ele>702</ele>
        <time>2020-09-06T12:22:40.431Z</time>
      </trkpt>
      <trkpt lat="48.40005" lon="7.30241">
        <ele>701</ele>
        <time>2020-09-06T12:22:41.431Z</time>
      </trkpt>
      <trkpt lat="48.40005" lon="7.30242">
        <ele>701</ele>
        <time>2020-09-06T12:22:42.430Z</time>
      </trkpt>
      <trkpt lat="48.40005" lon="7.30243">
        <ele>700</ele>
        <time>2020-09-06T12:22:43.431Z</time>
      </trkpt>
      <trkpt lat="48.40006" lon="7.30245">
        <ele>700</ele>
        <time>2020-09-06T12:22:44.431Z</time>
      </trkpt>
      <trkpt lat="48.40006" lon="7.30246">
        <ele>699</ele>
        <time>2020-09-06T12:22:45.430Z</time>
      </trkpt>
      <trkpt lat="48.40006" lon="7.30248">
        <ele>699</ele>
        <time>2020-09-06T12:22:46.431Z</time>
      </trkpt>
      <trkpt lat="48.40006" lon="7.30249">
        <ele>699</ele>
        <time>2020-09-06T12:22:47.431Z</time>
      </trkpt>
      <trkpt lat="48.40006" lon="7.3025">
        <ele>698</ele>
        <time>2020-09-06T12:22:48.431Z</time>
      </trkpt>
      <trkpt lat="48.40006" lon="7.30252">
        <ele>698</ele>
        <time>2020-09-06T12:22:49.431Z</time>
      </trkpt>
      <trkpt lat="48.40005" lon="7.30253">
        <ele>699</ele>
        <time>2020-09-06T12:22:50.430Z</time>
      </trkpt>
      <trkpt lat="48.40005" lon="7.30255">
        <ele>699</ele>
        <time>2020-09-06T12:22:51.431Z</time>
      </trkpt>
      <trkpt lat="48.40004" lon="7.30256">
        <ele>700</ele>
        <time>2020-09-06T12:22:52.431Z</time>
      </trkpt>
      <trkpt lat="48.40004" lon="7.30258">
        <ele>700</ele>
        <time>2020-09-06T12:22:53.431Z</time>
      </trkpt>
      <trkpt lat="48.40004" lon="7.3026">
        <ele>701</ele>
        <time>2020-09-06T12:22:54.430Z</time>
      </trkpt>
      <trkpt lat="48.40005" lon="7.30262">
        <ele>702</ele>
        <time>2020-09-06T12:22:55.431Z</time>
      </trkpt>
      <trkpt lat="48.40006" lon="7.30265">
        <ele>702</ele>
        <time>2020-09-06T12:22:56.431Z</time>
      </trkpt>
      <trkpt lat="48.40006" lon="7.30267">
        <ele>703</ele>
        <time>2020-09-06T12:22:57.431Z</time>
      </trkpt>
      <trkpt lat="48.40006" lon="7.30269">
        <ele>703</ele>
        <time>2020-09-06T12:22:58.431Z</time>
      </trkpt>
      <trkpt lat="48.40006" lon="7.30271">
        <ele>703</ele>
        <time>2020-09-06T12:22:59.431Z</time>
      </trkpt>
      <trkpt lat="48.40005" lon="7.30272">
        <ele>703</ele>
        <time>2020-09-06T12:23:00.431Z</time>
      </trkpt>
      <trkpt lat="48.40005" lon="7.30274">
        <ele>703</ele>
        <time>2020-09-06T12:23:01.431Z</time>
      </trkpt>
      <trkpt lat="48.40005" lon="7.30275">
        <ele>703</ele>
        <time>2020-09-06T12:23:02.431Z</time>
      </trkpt>
      <trkpt lat="48.40005" lon="7.30276">
        <ele>702</ele>
        <time>2020-09-06T12:23:03.430Z</time>
      </trkpt>
      <trkpt lat="48.40005" lon="7.30277">
        <ele>701</ele>
        <time>2020-09-06T12:23:04.431Z</time>
      </trkpt>
      <trkpt lat="48.40005" lon="7.30278">
        <ele>701</ele>
        <time>2020-09-06T12:23:05.431Z</time>
      </trkpt>
      <trkpt lat="48.40005" lon="7.30279">
        <ele>700</ele>
        <time>2020-09-06T12:23:06.431Z</time>
      </trkpt>
      <trkpt lat="48.40004" lon="7.3028">
        <ele>700</ele>
        <time>2020-09-06T12:23:07.431Z</time>
      </trkpt>
      <trkpt lat="48.40004" lon="7.30282">
        <ele>700</ele>
        <time>2020-09-06T12:23:08.431Z</time>
      </trkpt>
      <trkpt lat="48.40003" lon="7.30283">
        <ele>699</ele>
        <time>2020-09-06T12:23:09.431Z</time>
      </trkpt>
      <trkpt lat="48.40003" lon="7.30285">
        <ele>698</ele>
        <time>2020-09-06T12:23:10.431Z</time>
      </trkpt>
      <trkpt lat="48.40003" lon="7.30286">
        <ele>698</ele>
        <time>2020-09-06T12:23:11.430Z</time>
      </trkpt>
      <trkpt lat="48.40003" lon="7.30288">
        <ele>698</ele>
        <time>2020-09-06T12:23:12.430Z</time>
      </trkpt>
      <trkpt lat="48.40003" lon="7.30289">
        <ele>697</ele>
        <time>2020-09-06T12:23:13.431Z</time>
      </trkpt>
      <trkpt lat="48.40003" lon="7.30291">
        <ele>697</ele>
        <time>2020-09-06T12:23:14.430Z</time>
      </trkpt>
      <trkpt lat="48.40003" lon="7.30292">
        <ele>697</ele>
        <time>2020-09-06T12:23:15.431Z</time>
      </trkpt>
      <trkpt lat="48.40003" lon="7.30294">
        <ele>697</ele>
        <time>2020-09-06T12:23:16.431Z</time>
      </trkpt>
      <trkpt lat="48.40003" lon="7.30295">
        <ele>697</ele>
        <time>2020-09-06T12:23:17.431Z</time>
      </trkpt>
      <trkpt lat="48.40003" lon="7.30297">
        <ele>698</ele>
        <time>2020-09-06T12:23:18.431Z</time>
      </trkpt>
      <trkpt lat="48.40003" lon="7.30298">
        <ele>698</ele>
        <time>2020-09-06T12:23:19.431Z</time>
      </trkpt>
      <trkpt lat="48.40003" lon="7.30299">
        <ele>697</ele>
        <time>2020-09-06T12:23:20.430Z</time>
      </trkpt>
      <trkpt lat="48.40003" lon="7.303">
        <ele>697</ele>
        <time>2020-09-06T12:23:21.431Z</time>
      </trkpt>
      <trkpt lat="48.40003" lon="7.303">
        <ele>697</ele>
        <time>2020-09-06T12:23:22.430Z</time>
      </trkpt>
      <trkpt lat="48.40001" lon="7.30305">
        <ele>696</ele>
        <time>2020-09-06T12:23:23.432Z</time>
      </trkpt>
      <trkpt lat="48.40001" lon="7.30306">
        <ele>696</ele>
        <time>2020-09-06T12:23:24.432Z</time>
      </trkpt>
      <trkpt lat="48.40001" lon="7.30307">
        <ele>696</ele>
        <time>2020-09-06T12:23:25.431Z</time>
      </trkpt>
      <trkpt lat="48.40001" lon="7.30308">
        <ele>696</ele>
        <time>2020-09-06T12:23:26.431Z</time>
      </trkpt>
      <trkpt lat="48.40001" lon="7.30311">
        <ele>695</ele>
        <time>2020-09-06T12:23:27.432Z</time>
      </trkpt>
      <trkpt lat="48.40001" lon="7.30313">
        <ele>695</ele>
        <time>2020-09-06T12:23:28.432Z</time>
      </trkpt>
      <trkpt lat="48.40001" lon="7.30315">
        <ele>694</ele>
        <time>2020-09-06T12:23:29.431Z</time>
      </trkpt>
      <trkpt lat="48.4" lon="7.30316">
        <ele>694</ele>
        <time>2020-09-06T12:23:30.432Z</time>
      </trkpt>
      <trkpt lat="48.4" lon="7.30317">
        <ele>693</ele>
        <time>2020-09-06T12:23:31.432Z</time>
      </trkpt>
      <trkpt lat="48.4" lon="7.30317">
        <ele>693</ele>
        <time>2020-09-06T12:23:32.431Z</time>
      </trkpt>
      <trkpt lat="48.4" lon="7.30318">
        <ele>693</ele>
        <time>2020-09-06T12:23:33.432Z</time>
      </trkpt>
      <trkpt lat="48.4" lon="7.30319">
        <ele>693</ele>
        <time>2020-09-06T12:23:34.432Z</time>
      </trkpt>
      <trkpt lat="48.4" lon="7.3032">
        <ele>693</ele>
        <time>2020-09-06T12:23:35.432Z</time>
      </trkpt>
      <trkpt lat="48.4" lon="7.30321">
        <ele>693</ele>
        <time>2020-09-06T12:23:36.432Z</time>
      </trkpt>
      <trkpt lat="48.4" lon="7.30322">
        <ele>693</ele>
        <time>2020-09-06T12:23:37.431Z</time>
      </trkpt>
      <trkpt lat="48.4" lon="7.30322">
        <ele>693</ele>
        <time>2020-09-06T12:23:38.432Z</time>
      </trkpt>
      <trkpt lat="48.39999" lon="7.30323">
        <ele>693</ele>
        <time>2020-09-06T12:23:39.432Z</time>
      </trkpt>
      <trkpt lat="48.39999" lon="7.30324">
        <ele>692</ele>
        <time>2020-09-06T12:23:40.432Z</time>
      </trkpt>
      <trkpt lat="48.39999" lon="7.30325">
        <ele>692</ele>
        <time>2020-09-06T12:23:41.432Z</time>
      </trkpt>
      <trkpt lat="48.4" lon="7.30326">
        <ele>692</ele>
        <time>2020-09-06T12:23:42.431Z</time>
      </trkpt>
      <trkpt lat="48.4" lon="7.30327">
        <ele>691</ele>
        <time>2020-09-06T12:23:43.432Z</time>
      </trkpt>
      <trkpt lat="48.4" lon="7.30328">
        <ele>691</ele>
        <time>2020-09-06T12:23:44.432Z</time>
      </trkpt>
      <trkpt lat="48.4" lon="7.30329">
        <ele>691</ele>
        <time>2020-09-06T12:23:45.431Z</time>
      </trkpt>
      <trkpt lat="48.40001" lon="7.30331">
        <ele>690</ele>
        <time>2020-09-06T12:23:46.432Z</time>
      </trkpt>
      <trkpt lat="48.40001" lon="7.30333">
        <ele>690</ele>
        <time>2020-09-06T12:23:47.432Z</time>
      </trkpt>
      <trkpt lat="48.4" lon="7.30336">
        <ele>690</ele>
        <time>2020-09-06T12:23:48.432Z</time>
      </trkpt>
      <trkpt lat="48.39999" lon="7.30339">
        <ele>690</ele>
        <time>2020-09-06T12:23:49.431Z</time>
      </trkpt>
      <trkpt lat="48.39999" lon="7.3034">
        <ele>689</ele>
        <time>2020-09-06T12:23:50.432Z</time>
      </trkpt>
      <trkpt lat="48.39999" lon="7.30342">
        <ele>689</ele>
        <time>2020-09-06T12:23:51.432Z</time>
      </trkpt>
      <trkpt lat="48.39998" lon="7.30344">
        <ele>688</ele>
        <time>2020-09-06T12:23:52.432Z</time>
      </trkpt>
      <trkpt lat="48.39998" lon="7.30345">
        <ele>688</ele>
        <time>2020-09-06T12:23:53.432Z</time>
      </trkpt>
      <trkpt lat="48.39998" lon="7.30347">
        <ele>687</ele>
        <time>2020-09-06T12:23:54.431Z</time>
      </trkpt>
      <trkpt lat="48.39998" lon="7.30349">
        <ele>687</ele>
        <time>2020-09-06T12:23:55.432Z</time>
      </trkpt>
      <trkpt lat="48.39998" lon="7.3035">
        <ele>686</ele>
        <time>2020-09-06T12:23:56.431Z</time>
      </trkpt>
      <trkpt lat="48.39998" lon="7.30352">
        <ele>686</ele>
        <time>2020-09-06T12:23:57.432Z</time>
      </trkpt>
      <trkpt lat="48.39998" lon="7.30354">
        <ele>686</ele>
        <time>2020-09-06T12:23:58.432Z</time>
      </trkpt>
      <trkpt lat="48.39998" lon="7.30356">
        <ele>686</ele>
        <time>2020-09-06T12:23:59.432Z</time>
      </trkpt>
      <trkpt lat="48.39997" lon="7.30357">
        <ele>687</ele>
        <time>2020-09-06T12:24:00.432Z</time>
      </trkpt>
      <trkpt lat="48.39996" lon="7.3036">
        <ele>687</ele>
        <time>2020-09-06T12:24:01.432Z</time>
      </trkpt>
      <trkpt lat="48.39996" lon="7.30361">
        <ele>687</ele>
        <time>2020-09-06T12:24:02.432Z</time>
      </trkpt>
      <trkpt lat="48.39997" lon="7.30363">
        <ele>687</ele>
        <time>2020-09-06T12:24:03.432Z</time>
      </trkpt>
      <trkpt lat="48.39997" lon="7.30364">
        <ele>687</ele>
        <time>2020-09-06T12:24:04.432Z</time>
      </trkpt>
      <trkpt lat="48.39996" lon="7.30366">
        <ele>687</ele>
        <time>2020-09-06T12:24:05.431Z</time>
      </trkpt>
      <trkpt lat="48.39995" lon="7.30366">
        <ele>687</ele>
        <time>2020-09-06T12:24:06.432Z</time>
      </trkpt>
      <trkpt lat="48.39994" lon="7.30368">
        <ele>687</ele>
        <time>2020-09-06T12:24:07.432Z</time>
      </trkpt>
      <trkpt lat="48.39994" lon="7.30369">
        <ele>687</ele>
        <time>2020-09-06T12:24:08.432Z</time>
      </trkpt>
      <trkpt lat="48.39994" lon="7.3037">
        <ele>688</ele>
        <time>2020-09-06T12:24:09.432Z</time>
      </trkpt>
      <trkpt lat="48.39994" lon="7.30371">
        <ele>688</ele>
        <time>2020-09-06T12:24:10.432Z</time>
      </trkpt>
      <trkpt lat="48.39995" lon="7.30372">
        <ele>687</ele>
        <time>2020-09-06T12:24:11.432Z</time>
      </trkpt>
      <trkpt lat="48.39996" lon="7.30373">
        <ele>687</ele>
        <time>2020-09-06T12:24:12.432Z</time>
      </trkpt>
      <trkpt lat="48.39996" lon="7.30374">
        <ele>687</ele>
        <time>2020-09-06T12:24:13.432Z</time>
      </trkpt>
      <trkpt lat="48.39997" lon="7.30375">
        <ele>687</ele>
        <time>2020-09-06T12:24:14.432Z</time>
      </trkpt>
      <trkpt lat="48.39998" lon="7.30376">
        <ele>686</ele>
        <time>2020-09-06T12:24:15.432Z</time>
      </trkpt>
      <trkpt lat="48.39998" lon="7.30377">
        <ele>686</ele>
        <time>2020-09-06T12:24:16.432Z</time>
      </trkpt>
      <trkpt lat="48.39998" lon="7.30378">
        <ele>686</ele>
        <time>2020-09-06T12:24:17.432Z</time>
      </trkpt>
      <trkpt lat="48.39999" lon="7.3038">
        <ele>685</ele>
        <time>2020-09-06T12:24:18.432Z</time>
      </trkpt>
      <trkpt lat="48.4" lon="7.30382">
        <ele>685</ele>
        <time>2020-09-06T12:24:19.431Z</time>
      </trkpt>
      <trkpt lat="48.40001" lon="7.30383">
        <ele>685</ele>
        <time>2020-09-06T12:24:20.432Z</time>
      </trkpt>
      <trkpt lat="48.40001" lon="7.30384">
        <ele>685</ele>
        <time>2020-09-06T12:24:21.431Z</time>
      </trkpt>
      <trkpt lat="48.40002" lon="7.30385">
        <ele>684</ele>
        <time>2020-09-06T12:24:22.431Z</time>
      </trkpt>
      <trkpt lat="48.40003" lon="7.30386">
        <ele>684</ele>
        <time>2020-09-06T12:24:23.431Z</time>
      </trkpt>
      <trkpt lat="48.40003" lon="7.30388">
        <ele>684</ele>
        <time>2020-09-06T12:24:24.431Z</time>
      </trkpt>
      <trkpt lat="48.40004" lon="7.30389">
        <ele>684</ele>
        <time>2020-09-06T12:24:25.432Z</time>
      </trkpt>
      <trkpt lat="48.40005" lon="7.3039">
        <ele>684</ele>
        <time>2020-09-06T12:24:26.431Z</time>
      </trkpt>
      <trkpt lat="48.40006" lon="7.30391">
        <ele>684</ele>
        <time>2020-09-06T12:24:27.432Z</time>
      </trkpt>
      <trkpt lat="48.40007" lon="7.30393">
        <ele>683</ele>
        <time>2020-09-06T12:24:28.432Z</time>
      </trkpt>
      <trkpt lat="48.40006" lon="7.30394">
        <ele>683</ele>
        <time>2020-09-06T12:24:29.432Z</time>
      </trkpt>
      <trkpt lat="48.40005" lon="7.30396">
        <ele>683</ele>
        <time>2020-09-06T12:24:30.432Z</time>
      </trkpt>
      <trkpt lat="48.40005" lon="7.30398">
        <ele>683</ele>
        <time>2020-09-06T12:24:31.432Z</time>
      </trkpt>
      <trkpt lat="48.40004" lon="7.304">
        <ele>683</ele>
        <time>2020-09-06T12:24:32.431Z</time>
      </trkpt>
      <trkpt lat="48.40004" lon="7.30401">
        <ele>683</ele>
        <time>2020-09-06T12:24:33.432Z</time>
      </trkpt>
      <trkpt lat="48.40005" lon="7.30403">
        <ele>683</ele>
        <time>2020-09-06T12:24:34.432Z</time>
      </trkpt>
      <trkpt lat="48.40006" lon="7.30404">
        <ele>683</ele>
        <time>2020-09-06T12:24:35.432Z</time>
      </trkpt>
      <trkpt lat="48.40007" lon="7.30405">
        <ele>683</ele>
        <time>2020-09-06T12:24:36.432Z</time>
      </trkpt>
      <trkpt lat="48.40007" lon="7.30406">
        <ele>683</ele>
        <time>2020-09-06T12:24:37.431Z</time>
      </trkpt>
      <trkpt lat="48.40008" lon="7.30408">
        <ele>683</ele>
        <time>2020-09-06T12:24:38.432Z</time>
      </trkpt>
      <trkpt lat="48.40008" lon="7.30409">
        <ele>683</ele>
        <time>2020-09-06T12:24:39.432Z</time>
      </trkpt>
      <trkpt lat="48.40008" lon="7.3041">
        <ele>682</ele>
        <time>2020-09-06T12:24:40.432Z</time>
      </trkpt>
      <trkpt lat="48.40009" lon="7.30412">
        <ele>681</ele>
        <time>2020-09-06T12:24:41.432Z</time>
      </trkpt>
      <trkpt lat="48.40009" lon="7.30414">
        <ele>680</ele>
        <time>2020-09-06T12:24:42.431Z</time>
      </trkpt>
      <trkpt lat="48.4001" lon="7.30416">
        <ele>679</ele>
        <time>2020-09-06T12:24:43.432Z</time>
      </trkpt>
      <trkpt lat="48.4001" lon="7.30417">
        <ele>679</ele>
        <time>2020-09-06T12:24:44.432Z</time>
      </trkpt>
      <trkpt lat="48.4001" lon="7.30419">
        <ele>678</ele>
        <time>2020-09-06T12:24:45.432Z</time>
      </trkpt>
      <trkpt lat="48.40011" lon="7.3042">
        <ele>677</ele>
        <time>2020-09-06T12:24:46.432Z</time>
      </trkpt>
      <trkpt lat="48.40011" lon="7.30421">
        <ele>677</ele>
        <time>2020-09-06T12:24:47.431Z</time>
      </trkpt>
      <trkpt lat="48.40012" lon="7.30423">
        <ele>677</ele>
        <time>2020-09-06T12:24:48.431Z</time>
      </trkpt>
      <trkpt lat="48.40012" lon="7.30424">
        <ele>677</ele>
        <time>2020-09-06T12:24:49.432Z</time>
      </trkpt>
      <trkpt lat="48.40012" lon="7.30426">
        <ele>677</ele>
        <time>2020-09-06T12:24:50.432Z</time>
      </trkpt>
      <trkpt lat="48.40012" lon="7.30428">
        <ele>677</ele>
        <time>2020-09-06T12:24:51.432Z</time>
      </trkpt>
      <trkpt lat="48.40012" lon="7.3043">
        <ele>676</ele>
        <time>2020-09-06T12:24:52.432Z</time>
      </trkpt>
      <trkpt lat="48.40012" lon="7.30431">
        <ele>676</ele>
        <time>2020-09-06T12:24:53.432Z</time>
      </trkpt>
      <trkpt lat="48.40012" lon="7.30433">
        <ele>676</ele>
        <time>2020-09-06T12:24:54.431Z</time>
      </trkpt>
      <trkpt lat="48.40012" lon="7.30435">
        <ele>675</ele>
        <time>2020-09-06T12:24:55.432Z</time>
      </trkpt>
      <trkpt lat="48.40011" lon="7.30436">
        <ele>674</ele>
        <time>2020-09-06T12:24:56.432Z</time>
      </trkpt>
      <trkpt lat="48.40012" lon="7.30437">
        <ele>673</ele>
        <time>2020-09-06T12:24:57.432Z</time>
      </trkpt>
      <trkpt lat="48.40012" lon="7.30439">
        <ele>673</ele>
        <time>2020-09-06T12:24:58.432Z</time>
      </trkpt>
      <trkpt lat="48.40013" lon="7.3044">
        <ele>672</ele>
        <time>2020-09-06T12:24:59.432Z</time>
      </trkpt>
      <trkpt lat="48.40014" lon="7.30441">
        <ele>672</ele>
        <time>2020-09-06T12:25:00.431Z</time>
      </trkpt>
      <trkpt lat="48.40014" lon="7.30443">
        <ele>671</ele>
        <time>2020-09-06T12:25:01.431Z</time>
      </trkpt>
      <trkpt lat="48.40015" lon="7.30445">
        <ele>671</ele>
        <time>2020-09-06T12:25:02.431Z</time>
      </trkpt>
      <trkpt lat="48.40016" lon="7.30447">
        <ele>670</ele>
        <time>2020-09-06T12:25:03.431Z</time>
      </trkpt>
      <trkpt lat="48.40017" lon="7.30448">
        <ele>670</ele>
        <time>2020-09-06T12:25:04.431Z</time>
      </trkpt>
      <trkpt lat="48.40017" lon="7.3045">
        <ele>670</ele>
        <time>2020-09-06T12:25:05.431Z</time>
      </trkpt>
      <trkpt lat="48.40017" lon="7.30452">
        <ele>671</ele>
        <time>2020-09-06T12:25:06.432Z</time>
      </trkpt>
      <trkpt lat="48.40017" lon="7.30454">
        <ele>671</ele>
        <time>2020-09-06T12:25:07.432Z</time>
      </trkpt>
      <trkpt lat="48.40017" lon="7.30457">
        <ele>672</ele>
        <time>2020-09-06T12:25:08.432Z</time>
      </trkpt>
      <trkpt lat="48.40016" lon="7.3046">
        <ele>673</ele>
        <time>2020-09-06T12:25:09.432Z</time>
      </trkpt>
      <trkpt lat="48.40016" lon="7.30462">
        <ele>673</ele>
        <time>2020-09-06T12:25:10.431Z</time>
      </trkpt>
      <trkpt lat="48.40016" lon="7.30465">
        <ele>673</ele>
        <time>2020-09-06T12:25:11.432Z</time>
      </trkpt>
      <trkpt lat="48.40016" lon="7.30467">
        <ele>673</ele>
        <time>2020-09-06T12:25:12.432Z</time>
      </trkpt>
      <trkpt lat="48.40016" lon="7.30469">
        <ele>673</ele>
        <time>2020-09-06T12:25:13.431Z</time>
      </trkpt>
      <trkpt lat="48.40016" lon="7.30471">
        <ele>673</ele>
        <time>2020-09-06T12:25:14.431Z</time>
      </trkpt>
      <trkpt lat="48.40016" lon="7.30474">
        <ele>673</ele>
        <time>2020-09-06T12:25:15.432Z</time>
      </trkpt>
      <trkpt lat="48.40016" lon="7.30476">
        <ele>673</ele>
        <time>2020-09-06T12:25:16.432Z</time>
      </trkpt>
      <trkpt lat="48.40015" lon="7.30478">
        <ele>673</ele>
        <time>2020-09-06T12:25:17.432Z</time>
      </trkpt>
      <trkpt lat="48.40016" lon="7.30479">
        <ele>673</ele>
        <time>2020-09-06T12:25:18.432Z</time>
      </trkpt>
      <trkpt lat="48.40016" lon="7.30481">
        <ele>674</ele>
        <time>2020-09-06T12:25:19.431Z</time>
      </trkpt>
      <trkpt lat="48.40015" lon="7.30482">
        <ele>674</ele>
        <time>2020-09-06T12:25:20.432Z</time>
      </trkpt>
      <trkpt lat="48.40015" lon="7.30483">
        <ele>674</ele>
        <time>2020-09-06T12:25:21.431Z</time>
      </trkpt>
      <trkpt lat="48.40015" lon="7.30485">
        <ele>674</ele>
        <time>2020-09-06T12:25:22.431Z</time>
      </trkpt>
      <trkpt lat="48.40015" lon="7.30486">
        <ele>675</ele>
        <time>2020-09-06T12:25:23.432Z</time>
      </trkpt>
      <trkpt lat="48.40014" lon="7.30488">
        <ele>675</ele>
        <time>2020-09-06T12:25:24.432Z</time>
      </trkpt>
      <trkpt lat="48.40013" lon="7.30489">
        <ele>675</ele>
        <time>2020-09-06T12:25:25.431Z</time>
      </trkpt>
      <trkpt lat="48.40013" lon="7.30491">
        <ele>675</ele>
        <time>2020-09-06T12:25:26.432Z</time>
      </trkpt>
      <trkpt lat="48.40013" lon="7.30493">
        <ele>675</ele>
        <time>2020-09-06T12:25:27.432Z</time>
      </trkpt>
      <trkpt lat="48.40013" lon="7.30495">
        <ele>674</ele>
        <time>2020-09-06T12:25:28.432Z</time>
      </trkpt>
      <trkpt lat="48.40012" lon="7.30497">
        <ele>673</ele>
        <time>2020-09-06T12:25:29.431Z</time>
      </trkpt>
      <trkpt lat="48.40012" lon="7.30499">
        <ele>673</ele>
        <time>2020-09-06T12:25:30.432Z</time>
      </trkpt>
      <trkpt lat="48.40012" lon="7.30501">
        <ele>672</ele>
        <time>2020-09-06T12:25:31.431Z</time>
      </trkpt>
      <trkpt lat="48.40012" lon="7.30504">
        <ele>672</ele>
        <time>2020-09-06T12:25:32.432Z</time>
      </trkpt>
      <trkpt lat="48.40013" lon="7.30507">
        <ele>671</ele>
        <time>2020-09-06T12:25:33.432Z</time>
      </trkpt>
      <trkpt lat="48.40013" lon="7.30508">
        <ele>671</ele>
        <time>2020-09-06T12:25:34.432Z</time>
      </trkpt>
      <trkpt lat="48.40014" lon="7.30508">
        <ele>670</ele>
        <time>2020-09-06T12:25:35.431Z</time>
      </trkpt>
      <trkpt lat="48.40015" lon="7.30508">
        <ele>669</ele>
        <time>2020-09-06T12:25:36.432Z</time>
      </trkpt>
      <trkpt lat="48.40016" lon="7.30509">
        <ele>669</ele>
        <time>2020-09-06T12:25:37.432Z</time>
      </trkpt>
      <trkpt lat="48.40016" lon="7.3051">
        <ele>668</ele>
        <time>2020-09-06T12:25:38.432Z</time>
      </trkpt>
      <trkpt lat="48.40017" lon="7.30511">
        <ele>668</ele>
        <time>2020-09-06T12:25:39.432Z</time>
      </trkpt>
      <trkpt lat="48.40017" lon="7.30512">
        <ele>668</ele>
        <time>2020-09-06T12:25:40.432Z</time>
      </trkpt>
      <trkpt lat="48.40018" lon="7.30514">
        <ele>668</ele>
        <time>2020-09-06T12:25:41.432Z</time>
      </trkpt>
      <trkpt lat="48.40019" lon="7.30515">
        <ele>668</ele>
        <time>2020-09-06T12:25:42.432Z</time>
      </trkpt>
      <trkpt lat="48.40019" lon="7.30516">
        <ele>667</ele>
        <time>2020-09-06T12:25:43.432Z</time>
      </trkpt>
      <trkpt lat="48.40019" lon="7.30517">
        <ele>667</ele>
        <time>2020-09-06T12:25:44.432Z</time>
      </trkpt>
      <trkpt lat="48.40019" lon="7.30518">
        <ele>667</ele>
        <time>2020-09-06T12:25:45.432Z</time>
      </trkpt>
      <trkpt lat="48.4002" lon="7.3052">
        <ele>667</ele>
        <time>2020-09-06T12:25:46.432Z</time>
      </trkpt>
      <trkpt lat="48.40021" lon="7.30521">
        <ele>666</ele>
        <time>2020-09-06T12:25:47.432Z</time>
      </trkpt>
      <trkpt lat="48.40021" lon="7.30522">
        <ele>666</ele>
        <time>2020-09-06T12:25:48.432Z</time>
      </trkpt>
      <trkpt lat="48.40021" lon="7.30524">
        <ele>666</ele>
        <time>2020-09-06T12:25:49.432Z</time>
      </trkpt>
      <trkpt lat="48.40021" lon="7.30525">
        <ele>666</ele>
        <time>2020-09-06T12:25:50.431Z</time>
      </trkpt>
      <trkpt lat="48.40021" lon="7.30526">
        <ele>666</ele>
        <time>2020-09-06T12:25:51.432Z</time>
      </trkpt>
      <trkpt lat="48.40021" lon="7.30528">
        <ele>666</ele>
        <time>2020-09-06T12:25:52.431Z</time>
      </trkpt>
      <trkpt lat="48.40022" lon="7.3053">
        <ele>665</ele>
        <time>2020-09-06T12:25:53.432Z</time>
      </trkpt>
      <trkpt lat="48.40022" lon="7.30531">
        <ele>665</ele>
        <time>2020-09-06T12:25:54.432Z</time>
      </trkpt>
      <trkpt lat="48.40023" lon="7.30533">
        <ele>665</ele>
        <time>2020-09-06T12:25:55.431Z</time>
      </trkpt>
      <trkpt lat="48.40023" lon="7.30534">
        <ele>665</ele>
        <time>2020-09-06T12:25:56.432Z</time>
      </trkpt>
      <trkpt lat="48.40023" lon="7.30536">
        <ele>665</ele>
        <time>2020-09-06T12:25:57.432Z</time>
      </trkpt>
      <trkpt lat="48.40024" lon="7.30538">
        <ele>665</ele>
        <time>2020-09-06T12:25:58.432Z</time>
      </trkpt>
      <trkpt lat="48.40024" lon="7.30539">
        <ele>665</ele>
        <time>2020-09-06T12:25:59.432Z</time>
      </trkpt>
      <trkpt lat="48.40025" lon="7.3054">
        <ele>666</ele>
        <time>2020-09-06T12:26:00.432Z</time>
      </trkpt>
      <trkpt lat="48.40025" lon="7.30541">
        <ele>666</ele>
        <time>2020-09-06T12:26:01.431Z</time>
      </trkpt>
      <trkpt lat="48.40025" lon="7.30543">
        <ele>666</ele>
        <time>2020-09-06T12:26:02.431Z</time>
      </trkpt>
      <trkpt lat="48.40025" lon="7.30544">
        <ele>665</ele>
        <time>2020-09-06T12:26:03.431Z</time>
      </trkpt>
      <trkpt lat="48.40024" lon="7.30546">
        <ele>665</ele>
        <time>2020-09-06T12:26:04.432Z</time>
      </trkpt>
      <trkpt lat="48.40024" lon="7.30547">
        <ele>665</ele>
        <time>2020-09-06T12:26:05.432Z</time>
      </trkpt>
      <trkpt lat="48.40025" lon="7.30549">
        <ele>665</ele>
        <time>2020-09-06T12:26:06.432Z</time>
      </trkpt>
      <trkpt lat="48.40025" lon="7.3055">
        <ele>665</ele>
        <time>2020-09-06T12:26:07.431Z</time>
      </trkpt>
      <trkpt lat="48.40026" lon="7.30553">
        <ele>665</ele>
        <time>2020-09-06T12:26:08.432Z</time>
      </trkpt>
      <trkpt lat="48.40026" lon="7.30556">
        <ele>665</ele>
        <time>2020-09-06T12:26:09.432Z</time>
      </trkpt>
      <trkpt lat="48.40026" lon="7.30557">
        <ele>664</ele>
        <time>2020-09-06T12:26:10.432Z</time>
      </trkpt>
      <trkpt lat="48.40026" lon="7.30558">
        <ele>664</ele>
        <time>2020-09-06T12:26:11.432Z</time>
      </trkpt>
      <trkpt lat="48.40027" lon="7.3056">
        <ele>664</ele>
        <time>2020-09-06T12:26:12.432Z</time>
      </trkpt>
      <trkpt lat="48.40027" lon="7.30562">
        <ele>663</ele>
        <time>2020-09-06T12:26:13.432Z</time>
      </trkpt>
      <trkpt lat="48.40026" lon="7.30563">
        <ele>663</ele>
        <time>2020-09-06T12:26:14.432Z</time>
      </trkpt>
      <trkpt lat="48.40026" lon="7.30564">
        <ele>662</ele>
        <time>2020-09-06T12:26:15.432Z</time>
      </trkpt>
      <trkpt lat="48.40027" lon="7.30567">
        <ele>662</ele>
        <time>2020-09-06T12:26:16.431Z</time>
      </trkpt>
      <trkpt lat="48.40027" lon="7.30568">
        <ele>662</ele>
        <time>2020-09-06T12:26:17.432Z</time>
      </trkpt>
      <trkpt lat="48.40027" lon="7.30569">
        <ele>662</ele>
        <time>2020-09-06T12:26:18.431Z</time>
      </trkpt>
      <trkpt lat="48.40027" lon="7.3057">
        <ele>662</ele>
        <time>2020-09-06T12:26:20.498Z</time>
      </trkpt>
      <trkpt lat="48.40027" lon="7.30572">
        <ele>661</ele>
        <time>2020-09-06T12:26:21.498Z</time>
      </trkpt>
      <trkpt lat="48.40027" lon="7.30574">
        <ele>661</ele>
        <time>2020-09-06T12:26:22.498Z</time>
      </trkpt>
      <trkpt lat="48.40028" lon="7.30575">
        <ele>661</ele>
        <time>2020-09-06T12:26:23.497Z</time>
      </trkpt>
      <trkpt lat="48.40029" lon="7.30577">
        <ele>661</ele>
        <time>2020-09-06T12:26:24.498Z</time>
      </trkpt>
      <trkpt lat="48.40029" lon="7.30578">
        <ele>660</ele>
        <time>2020-09-06T12:26:25.498Z</time>
      </trkpt>
      <trkpt lat="48.40029" lon="7.30579">
        <ele>660</ele>
        <time>2020-09-06T12:26:26.498Z</time>
      </trkpt>
      <trkpt lat="48.40029" lon="7.30581">
        <ele>660</ele>
        <time>2020-09-06T12:26:27.498Z</time>
      </trkpt>
      <trkpt lat="48.40029" lon="7.30582">
        <ele>661</ele>
        <time>2020-09-06T12:26:28.498Z</time>
      </trkpt>
      <trkpt lat="48.40029" lon="7.30584">
        <ele>661</ele>
        <time>2020-09-06T12:26:29.497Z</time>
      </trkpt>
      <trkpt lat="48.40029" lon="7.30585">
        <ele>661</ele>
        <time>2020-09-06T12:26:30.498Z</time>
      </trkpt>
      <trkpt lat="48.40029" lon="7.30587">
        <ele>661</ele>
        <time>2020-09-06T12:26:31.497Z</time>
      </trkpt>
      <trkpt lat="48.40029" lon="7.30588">
        <ele>661</ele>
        <time>2020-09-06T12:26:32.498Z</time>
      </trkpt>
      <trkpt lat="48.40028" lon="7.3059">
        <ele>660</ele>
        <time>2020-09-06T12:26:33.498Z</time>
      </trkpt>
      <trkpt lat="48.40029" lon="7.30591">
        <ele>660</ele>
        <time>2020-09-06T12:26:34.497Z</time>
      </trkpt>
      <trkpt lat="48.40029" lon="7.30593">
        <ele>660</ele>
        <time>2020-09-06T12:26:35.498Z</time>
      </trkpt>
      <trkpt lat="48.40029" lon="7.30594">
        <ele>660</ele>
        <time>2020-09-06T12:26:37.498Z</time>
      </trkpt>
      <trkpt lat="48.40029" lon="7.30596">
        <ele>660</ele>
        <time>2020-09-06T12:26:38.498Z</time>
      </trkpt>
      <trkpt lat="48.4003" lon="7.30597">
        <ele>660</ele>
        <time>2020-09-06T12:26:39.498Z</time>
      </trkpt>
      <trkpt lat="48.40029" lon="7.30599">
        <ele>661</ele>
        <time>2020-09-06T12:26:40.498Z</time>
      </trkpt>
      <trkpt lat="48.40029" lon="7.30601">
        <ele>661</ele>
        <time>2020-09-06T12:26:41.498Z</time>
      </trkpt>
      <trkpt lat="48.40029" lon="7.30603">
        <ele>661</ele>
        <time>2020-09-06T12:26:42.497Z</time>
      </trkpt>
      <trkpt lat="48.4003" lon="7.30607">
        <ele>661</ele>
        <time>2020-09-06T12:26:43.498Z</time>
      </trkpt>
      <trkpt lat="48.4003" lon="7.3061">
        <ele>661</ele>
        <time>2020-09-06T12:26:44.498Z</time>
      </trkpt>
      <trkpt lat="48.40032" lon="7.30611">
        <ele>661</ele>
        <time>2020-09-06T12:26:45.498Z</time>
      </trkpt>
      <trkpt lat="48.40032" lon="7.30613">
        <ele>661</ele>
        <time>2020-09-06T12:26:46.498Z</time>
      </trkpt>
      <trkpt lat="48.40033" lon="7.30616">
        <ele>662</ele>
        <time>2020-09-06T12:26:47.498Z</time>
      </trkpt>
      <trkpt lat="48.40033" lon="7.30618">
        <ele>662</ele>
        <time>2020-09-06T12:26:48.498Z</time>
      </trkpt>
      <trkpt lat="48.40032" lon="7.30619">
        <ele>663</ele>
        <time>2020-09-06T12:26:49.498Z</time>
      </trkpt>
      <trkpt lat="48.40031" lon="7.30621">
        <ele>663</ele>
        <time>2020-09-06T12:26:50.497Z</time>
      </trkpt>
      <trkpt lat="48.40031" lon="7.30622">
        <ele>663</ele>
        <time>2020-09-06T12:26:51.498Z</time>
      </trkpt>
      <trkpt lat="48.4003" lon="7.30624">
        <ele>663</ele>
        <time>2020-09-06T12:26:52.498Z</time>
      </trkpt>
      <trkpt lat="48.4003" lon="7.30625">
        <ele>663</ele>
        <time>2020-09-06T12:26:53.498Z</time>
      </trkpt>
      <trkpt lat="48.40031" lon="7.30626">
        <ele>663</ele>
        <time>2020-09-06T12:26:54.498Z</time>
      </trkpt>
      <trkpt lat="48.40031" lon="7.30627">
        <ele>663</ele>
        <time>2020-09-06T12:26:55.498Z</time>
      </trkpt>
      <trkpt lat="48.40031" lon="7.30628">
        <ele>664</ele>
        <time>2020-09-06T12:26:56.498Z</time>
      </trkpt>
      <trkpt lat="48.40031" lon="7.30629">
        <ele>664</ele>
        <time>2020-09-06T12:26:57.498Z</time>
      </trkpt>
      <trkpt lat="48.40031" lon="7.3063">
        <ele>664</ele>
        <time>2020-09-06T12:26:58.498Z</time>
      </trkpt>
      <trkpt lat="48.40031" lon="7.30631">
        <ele>663</ele>
        <time>2020-09-06T12:26:59.497Z</time>
      </trkpt>
      <trkpt lat="48.40032" lon="7.30634">
        <ele>663</ele>
        <time>2020-09-06T12:27:00.497Z</time>
      </trkpt>
      <trkpt lat="48.40031" lon="7.30638">
        <ele>662</ele>
        <time>2020-09-06T12:27:01.497Z</time>
      </trkpt>
      <trkpt lat="48.40031" lon="7.3064">
        <ele>662</ele>
        <time>2020-09-06T12:27:02.498Z</time>
      </trkpt>
      <trkpt lat="48.4003" lon="7.30641">
        <ele>662</ele>
        <time>2020-09-06T12:27:03.498Z</time>
      </trkpt>
      <trkpt lat="48.40029" lon="7.30643">
        <ele>662</ele>
        <time>2020-09-06T12:27:04.498Z</time>
      </trkpt>
      <trkpt lat="48.40029" lon="7.30644">
        <ele>661</ele>
        <time>2020-09-06T12:27:05.498Z</time>
      </trkpt>
      <trkpt lat="48.40028" lon="7.30645">
        <ele>661</ele>
        <time>2020-09-06T12:27:06.498Z</time>
      </trkpt>
      <trkpt lat="48.40028" lon="7.30646">
        <ele>660</ele>
        <time>2020-09-06T12:27:07.498Z</time>
      </trkpt>
      <trkpt lat="48.40028" lon="7.30646">
        <ele>659</ele>
        <time>2020-09-06T12:27:08.498Z</time>
      </trkpt>
      <trkpt lat="48.40028" lon="7.30647">
        <ele>659</ele>
        <time>2020-09-06T12:27:09.498Z</time>
      </trkpt>
      <trkpt lat="48.40028" lon="7.30647">
        <ele>658</ele>
        <time>2020-09-06T12:27:10.498Z</time>
      </trkpt>
      <trkpt lat="48.40028" lon="7.30649">
        <ele>658</ele>
        <time>2020-09-06T12:27:11.498Z</time>
      </trkpt>
      <trkpt lat="48.40029" lon="7.30653">
        <ele>658</ele>
        <time>2020-09-06T12:27:12.500Z</time>
      </trkpt>
      <trkpt lat="48.40029" lon="7.30656">
        <ele>657</ele>
        <time>2020-09-06T12:27:13.500Z</time>
      </trkpt>
      <trkpt lat="48.40028" lon="7.30658">
        <ele>657</ele>
        <time>2020-09-06T12:27:14.500Z</time>
      </trkpt>
      <trkpt lat="48.40028" lon="7.3066">
        <ele>656</ele>
        <time>2020-09-06T12:27:15.500Z</time>
      </trkpt>
      <trkpt lat="48.40028" lon="7.30663">
        <ele>656</ele>
        <time>2020-09-06T12:27:16.499Z</time>
      </trkpt>
      <trkpt lat="48.40029" lon="7.30666">
        <ele>656</ele>
        <time>2020-09-06T12:27:17.500Z</time>
      </trkpt>
      <trkpt lat="48.4003" lon="7.30668">
        <ele>656</ele>
        <time>2020-09-06T12:27:18.499Z</time>
      </trkpt>
      <trkpt lat="48.4003" lon="7.3067">
        <ele>656</ele>
        <time>2020-09-06T12:27:19.500Z</time>
      </trkpt>
      <trkpt lat="48.4003" lon="7.30672">
        <ele>655</ele>
        <time>2020-09-06T12:27:20.500Z</time>
      </trkpt>
      <trkpt lat="48.4003" lon="7.30673">
        <ele>654</ele>
        <time>2020-09-06T12:27:21.500Z</time>
      </trkpt>
      <trkpt lat="48.4003" lon="7.30675">
        <ele>653</ele>
        <time>2020-09-06T12:27:22.500Z</time>
      </trkpt>
      <trkpt lat="48.4003" lon="7.30676">
        <ele>652</ele>
        <time>2020-09-06T12:27:23.500Z</time>
      </trkpt>
      <trkpt lat="48.4003" lon="7.30677">
        <ele>651</ele>
        <time>2020-09-06T12:27:24.500Z</time>
      </trkpt>
      <trkpt lat="48.4003" lon="7.30677">
        <ele>650</ele>
        <time>2020-09-06T12:27:25.500Z</time>
      </trkpt>
      <trkpt lat="48.40031" lon="7.30678">
        <ele>649</ele>
        <time>2020-09-06T12:27:26.500Z</time>
      </trkpt>
      <trkpt lat="48.40031" lon="7.30678">
        <ele>648</ele>
        <time>2020-09-06T12:27:27.499Z</time>
      </trkpt>
      <trkpt lat="48.40031" lon="7.30679">
        <ele>647</ele>
        <time>2020-09-06T12:27:28.500Z</time>
      </trkpt>
      <trkpt lat="48.40032" lon="7.3068">
        <ele>646</ele>
        <time>2020-09-06T12:27:29.500Z</time>
      </trkpt>
      <trkpt lat="48.40032" lon="7.30681">
        <ele>645</ele>
        <time>2020-09-06T12:27:30.500Z</time>
      </trkpt>
      <trkpt lat="48.40031" lon="7.30681">
        <ele>644</ele>
        <time>2020-09-06T12:27:31.500Z</time>
      </trkpt>
      <trkpt lat="48.40031" lon="7.30681">
        <ele>643</ele>
        <time>2020-09-06T12:27:32.500Z</time>
      </trkpt>
      <trkpt lat="48.40031" lon="7.30682">
        <ele>642</ele>
        <time>2020-09-06T12:27:33.500Z</time>
      </trkpt>
      <trkpt lat="48.40031" lon="7.30683">
        <ele>640</ele>
        <time>2020-09-06T12:27:34.499Z</time>
      </trkpt>
      <trkpt lat="48.40032" lon="7.30684">
        <ele>639</ele>
        <time>2020-09-06T12:27:35.500Z</time>
      </trkpt>
      <trkpt lat="48.40032" lon="7.30684">
        <ele>638</ele>
        <time>2020-09-06T12:27:36.500Z</time>
      </trkpt>
      <trkpt lat="48.40033" lon="7.30684">
        <ele>638</ele>
        <time>2020-09-06T12:27:37.499Z</time>
      </trkpt>
      <trkpt lat="48.40033" lon="7.30685">
        <ele>638</ele>
        <time>2020-09-06T12:27:38.500Z</time>
      </trkpt>
      <trkpt lat="48.40034" lon="7.30686">
        <ele>638</ele>
        <time>2020-09-06T12:27:39.500Z</time>
      </trkpt>
      <trkpt lat="48.40034" lon="7.30687">
        <ele>639</ele>
        <time>2020-09-06T12:27:40.499Z</time>
      </trkpt>
      <trkpt lat="48.40035" lon="7.30687">
        <ele>639</ele>
        <time>2020-09-06T12:27:41.500Z</time>
      </trkpt>
      <trkpt lat="48.40036" lon="7.30687">
        <ele>640</ele>
        <time>2020-09-06T12:27:42.500Z</time>
      </trkpt>
      <trkpt lat="48.40036" lon="7.30687">
        <ele>640</ele>
        <time>2020-09-06T12:27:43.499Z</time>
      </trkpt>
      <trkpt lat="48.40037" lon="7.30688">
        <ele>641</ele>
        <time>2020-09-06T12:27:44.500Z</time>
      </trkpt>
      <trkpt lat="48.40038" lon="7.30689">
        <ele>641</ele>
        <time>2020-09-06T12:27:45.499Z</time>
      </trkpt>
      <trkpt lat="48.40039" lon="7.30689">
        <ele>642</ele>
        <time>2020-09-06T12:27:46.499Z</time>
      </trkpt>
      <trkpt lat="48.4004" lon="7.3069">
        <ele>643</ele>
        <time>2020-09-06T12:27:47.499Z</time>
      </trkpt>
      <trkpt lat="48.40041" lon="7.30691">
        <ele>644</ele>
        <time>2020-09-06T12:27:48.500Z</time>
      </trkpt>
      <trkpt lat="48.40042" lon="7.30692">
        <ele>646</ele>
        <time>2020-09-06T12:27:49.500Z</time>
      </trkpt>
      <trkpt lat="48.40042" lon="7.30693">
        <ele>647</ele>
        <time>2020-09-06T12:27:50.500Z</time>
      </trkpt>
      <trkpt lat="48.40043" lon="7.30694">
        <ele>648</ele>
        <time>2020-09-06T12:27:51.499Z</time>
      </trkpt>
      <trkpt lat="48.40044" lon="7.30695">
        <ele>649</ele>
        <time>2020-09-06T12:27:52.499Z</time>
      </trkpt>
      <trkpt lat="48.40045" lon="7.30696">
        <ele>650</ele>
        <time>2020-09-06T12:27:53.500Z</time>
      </trkpt>
      <trkpt lat="48.40046" lon="7.30696">
        <ele>651</ele>
        <time>2020-09-06T12:27:54.500Z</time>
      </trkpt>
      <trkpt lat="48.40047" lon="7.30697">
        <ele>652</ele>
        <time>2020-09-06T12:27:55.499Z</time>
      </trkpt>
      <trkpt lat="48.40048" lon="7.30699">
        <ele>652</ele>
        <time>2020-09-06T12:27:56.500Z</time>
      </trkpt>
      <trkpt lat="48.40049" lon="7.30701">
        <ele>653</ele>
        <time>2020-09-06T12:27:57.499Z</time>
      </trkpt>
      <trkpt lat="48.4005" lon="7.30702">
        <ele>653</ele>
        <time>2020-09-06T12:27:58.500Z</time>
      </trkpt>
      <trkpt lat="48.40051" lon="7.30704">
        <ele>654</ele>
        <time>2020-09-06T12:27:59.500Z</time>
      </trkpt>
      <trkpt lat="48.40052" lon="7.30706">
        <ele>654</ele>
        <time>2020-09-06T12:28:00.500Z</time>
      </trkpt>
      <trkpt lat="48.40053" lon="7.30709">
        <ele>655</ele>
        <time>2020-09-06T12:28:01.500Z</time>
      </trkpt>
      <trkpt lat="48.40054" lon="7.30712">
        <ele>656</ele>
        <time>2020-09-06T12:28:02.499Z</time>
      </trkpt>
      <trkpt lat="48.40056" lon="7.30715">
        <ele>656</ele>
        <time>2020-09-06T12:28:03.499Z</time>
      </trkpt>
      <trkpt lat="48.40057" lon="7.30717">
        <ele>657</ele>
        <time>2020-09-06T12:28:04.499Z</time>
      </trkpt>
      <trkpt lat="48.40058" lon="7.30719">
        <ele>658</ele>
        <time>2020-09-06T12:28:05.500Z</time>
      </trkpt>
      <trkpt lat="48.40058" lon="7.30721">
        <ele>658</ele>
        <time>2020-09-06T12:28:06.500Z</time>
      </trkpt>
      <trkpt lat="48.40059" lon="7.30722">
        <ele>659</ele>
        <time>2020-09-06T12:28:07.500Z</time>
      </trkpt>
      <trkpt lat="48.4006" lon="7.30724">
        <ele>659</ele>
        <time>2020-09-06T12:28:08.500Z</time>
      </trkpt>
      <trkpt lat="48.4006" lon="7.30726">
        <ele>659</ele>
        <time>2020-09-06T12:28:09.500Z</time>
      </trkpt>
      <trkpt lat="48.40061" lon="7.30727">
        <ele>659</ele>
        <time>2020-09-06T12:28:10.500Z</time>
      </trkpt>
      <trkpt lat="48.40062" lon="7.30729">
        <ele>659</ele>
        <time>2020-09-06T12:28:11.500Z</time>
      </trkpt>
      <trkpt lat="48.40062" lon="7.3073">
        <ele>659</ele>
        <time>2020-09-06T12:28:12.500Z</time>
      </trkpt>
      <trkpt lat="48.40062" lon="7.30731">
        <ele>659</ele>
        <time>2020-09-06T12:28:13.500Z</time>
      </trkpt>
      <trkpt lat="48.40063" lon="7.30734">
        <ele>659</ele>
        <time>2020-09-06T12:28:14.499Z</time>
      </trkpt>
      <trkpt lat="48.40064" lon="7.30735">
        <ele>659</ele>
        <time>2020-09-06T12:28:15.500Z</time>
      </trkpt>
      <trkpt lat="48.40065" lon="7.30737">
        <ele>659</ele>
        <time>2020-09-06T12:28:16.500Z</time>
      </trkpt>
      <trkpt lat="48.40065" lon="7.30738">
        <ele>659</ele>
        <time>2020-09-06T12:28:17.500Z</time>
      </trkpt>
      <trkpt lat="48.40066" lon="7.30739">
        <ele>659</ele>
        <time>2020-09-06T12:28:18.500Z</time>
      </trkpt>
      <trkpt lat="48.40066" lon="7.3074">
        <ele>659</ele>
        <time>2020-09-06T12:28:19.500Z</time>
      </trkpt>
      <trkpt lat="48.40066" lon="7.30742">
        <ele>659</ele>
        <time>2020-09-06T12:28:20.499Z</time>
      </trkpt>
      <trkpt lat="48.40066" lon="7.30743">
        <ele>659</ele>
        <time>2020-09-06T12:28:21.500Z</time>
      </trkpt>
      <trkpt lat="48.40066" lon="7.30745">
        <ele>659</ele>
        <time>2020-09-06T12:28:22.500Z</time>
      </trkpt>
      <trkpt lat="48.40066" lon="7.30746">
        <ele>659</ele>
        <time>2020-09-06T12:28:23.499Z</time>
      </trkpt>
      <trkpt lat="48.40066" lon="7.30747">
        <ele>659</ele>
        <time>2020-09-06T12:28:24.500Z</time>
      </trkpt>
      <trkpt lat="48.40066" lon="7.30749">
        <ele>659</ele>
        <time>2020-09-06T12:28:25.499Z</time>
      </trkpt>
      <trkpt lat="48.40066" lon="7.3075">
        <ele>659</ele>
        <time>2020-09-06T12:28:26.500Z</time>
      </trkpt>
      <trkpt lat="48.40066" lon="7.30752">
        <ele>659</ele>
        <time>2020-09-06T12:28:27.499Z</time>
      </trkpt>
      <trkpt lat="48.40066" lon="7.30753">
        <ele>659</ele>
        <time>2020-09-06T12:28:28.500Z</time>
      </trkpt>
      <trkpt lat="48.40066" lon="7.30755">
        <ele>658</ele>
        <time>2020-09-06T12:28:29.500Z</time>
      </trkpt>
      <trkpt lat="48.40066" lon="7.30758">
        <ele>658</ele>
        <time>2020-09-06T12:28:30.500Z</time>
      </trkpt>
      <trkpt lat="48.40066" lon="7.3076">
        <ele>658</ele>
        <time>2020-09-06T12:28:31.500Z</time>
      </trkpt>
      <trkpt lat="48.40066" lon="7.30762">
        <ele>658</ele>
        <time>2020-09-06T12:28:32.500Z</time>
      </trkpt>
      <trkpt lat="48.40067" lon="7.30763">
        <ele>657</ele>
        <time>2020-09-06T12:28:33.500Z</time>
      </trkpt>
      <trkpt lat="48.40067" lon="7.30764">
        <ele>656</ele>
        <time>2020-09-06T12:28:34.500Z</time>
      </trkpt>
      <trkpt lat="48.40067" lon="7.30764">
        <ele>656</ele>
        <time>2020-09-06T12:28:35.500Z</time>
      </trkpt>
      <trkpt lat="48.40067" lon="7.30764">
        <ele>656</ele>
        <time>2020-09-06T12:28:36.500Z</time>
      </trkpt>
      <trkpt lat="48.40069" lon="7.30764">
        <ele>655</ele>
        <time>2020-09-06T12:28:37.500Z</time>
      </trkpt>
      <trkpt lat="48.40069" lon="7.30765">
        <ele>655</ele>
        <time>2020-09-06T12:28:38.500Z</time>
      </trkpt>
      <trkpt lat="48.4007" lon="7.30766">
        <ele>654</ele>
        <time>2020-09-06T12:28:39.499Z</time>
      </trkpt>
      <trkpt lat="48.40071" lon="7.30768">
        <ele>654</ele>
        <time>2020-09-06T12:28:40.500Z</time>
      </trkpt>
      <trkpt lat="48.40072" lon="7.30769">
        <ele>654</ele>
        <time>2020-09-06T12:28:41.499Z</time>
      </trkpt>
      <trkpt lat="48.40073" lon="7.3077">
        <ele>654</ele>
        <time>2020-09-06T12:28:42.500Z</time>
      </trkpt>
      <trkpt lat="48.40074" lon="7.30771">
        <ele>655</ele>
        <time>2020-09-06T12:28:43.500Z</time>
      </trkpt>
      <trkpt lat="48.40075" lon="7.30773">
        <ele>655</ele>
        <time>2020-09-06T12:28:44.500Z</time>
      </trkpt>
      <trkpt lat="48.40076" lon="7.30774">
        <ele>656</ele>
        <time>2020-09-06T12:28:45.499Z</time>
      </trkpt>
      <trkpt lat="48.40077" lon="7.30775">
        <ele>656</ele>
        <time>2020-09-06T12:28:46.500Z</time>
      </trkpt>
      <trkpt lat="48.40078" lon="7.30776">
        <ele>656</ele>
        <time>2020-09-06T12:28:47.499Z</time>
      </trkpt>
      <trkpt lat="48.40079" lon="7.30777">
        <ele>656</ele>
        <time>2020-09-06T12:28:48.500Z</time>
      </trkpt>
      <trkpt lat="48.4008" lon="7.30778">
        <ele>656</ele>
        <time>2020-09-06T12:28:49.499Z</time>
      </trkpt>
      <trkpt lat="48.40081" lon="7.3078">
        <ele>656</ele>
        <time>2020-09-06T12:28:50.500Z</time>
      </trkpt>
      <trkpt lat="48.40082" lon="7.30781">
        <ele>657</ele>
        <time>2020-09-06T12:28:51.500Z</time>
      </trkpt>
      <trkpt lat="48.40084" lon="7.30782">
        <ele>657</ele>
        <time>2020-09-06T12:28:52.499Z</time>
      </trkpt>
      <trkpt lat="48.40085" lon="7.30784">
        <ele>658</ele>
        <time>2020-09-06T12:28:53.499Z</time>
      </trkpt>
      <trkpt lat="48.40086" lon="7.30788">
        <ele>658</ele>
        <time>2020-09-06T12:28:54.500Z</time>
      </trkpt>
      <trkpt lat="48.40087" lon="7.30789">
        <ele>659</ele>
        <time>2020-09-06T12:28:55.500Z</time>
      </trkpt>
      <trkpt lat="48.40088" lon="7.30791">
        <ele>660</ele>
        <time>2020-09-06T12:28:56.499Z</time>
      </trkpt>
      <trkpt lat="48.40089" lon="7.30792">
        <ele>660</ele>
        <time>2020-09-06T12:28:57.500Z</time>
      </trkpt>
      <trkpt lat="48.4009" lon="7.30794">
        <ele>660</ele>
        <time>2020-09-06T12:28:58.500Z</time>
      </trkpt>
      <trkpt lat="48.4009" lon="7.30795">
        <ele>660</ele>
        <time>2020-09-06T12:28:59.500Z</time>
      </trkpt>
      <trkpt lat="48.40091" lon="7.30796">
        <ele>660</ele>
        <time>2020-09-06T12:29:00.499Z</time>
      </trkpt>
      <trkpt lat="48.40092" lon="7.30796">
        <ele>660</ele>
        <time>2020-09-06T12:29:01.499Z</time>
      </trkpt>
      <trkpt lat="48.40092" lon="7.30798">
        <ele>660</ele>
        <time>2020-09-06T12:29:02.500Z</time>
      </trkpt>
      <trkpt lat="48.40093" lon="7.30799">
        <ele>660</ele>
        <time>2020-09-06T12:29:03.499Z</time>
      </trkpt>
      <trkpt lat="48.40094" lon="7.308">
        <ele>660</ele>
        <time>2020-09-06T12:29:04.500Z</time>
      </trkpt>
      <trkpt lat="48.40094" lon="7.30801">
        <ele>660</ele>
        <time>2020-09-06T12:29:05.500Z</time>
      </trkpt>
      <trkpt lat="48.40095" lon="7.30803">
        <ele>660</ele>
        <time>2020-09-06T12:29:06.500Z</time>
      </trkpt>
      <trkpt lat="48.40095" lon="7.30805">
        <ele>660</ele>
        <time>2020-09-06T12:29:07.500Z</time>
      </trkpt>
      <trkpt lat="48.40095" lon="7.30807">
        <ele>660</ele>
        <time>2020-09-06T12:29:08.500Z</time>
      </trkpt>
      <trkpt lat="48.40096" lon="7.30809">
        <ele>660</ele>
        <time>2020-09-06T12:29:09.500Z</time>
      </trkpt>
      <trkpt lat="48.40096" lon="7.3081">
        <ele>660</ele>
        <time>2020-09-06T12:29:10.500Z</time>
      </trkpt>
      <trkpt lat="48.40098" lon="7.30812">
        <ele>660</ele>
        <time>2020-09-06T12:29:11.499Z</time>
      </trkpt>
      <trkpt lat="48.40099" lon="7.30813">
        <ele>660</ele>
        <time>2020-09-06T12:29:12.500Z</time>
      </trkpt>
      <trkpt lat="48.40101" lon="7.30814">
        <ele>660</ele>
        <time>2020-09-06T12:29:13.499Z</time>
      </trkpt>
      <trkpt lat="48.40102" lon="7.30815">
        <ele>660</ele>
        <time>2020-09-06T12:29:14.500Z</time>
      </trkpt>
      <trkpt lat="48.40103" lon="7.30816">
        <ele>660</ele>
        <time>2020-09-06T12:29:15.500Z</time>
      </trkpt>
      <trkpt lat="48.40104" lon="7.30817">
        <ele>660</ele>
        <time>2020-09-06T12:29:16.500Z</time>
      </trkpt>
      <trkpt lat="48.40105" lon="7.30818">
        <ele>660</ele>
        <time>2020-09-06T12:29:17.500Z</time>
      </trkpt>
      <trkpt lat="48.40106" lon="7.30819">
        <ele>660</ele>
        <time>2020-09-06T12:29:18.500Z</time>
      </trkpt>
      <trkpt lat="48.40106" lon="7.3082">
        <ele>659</ele>
        <time>2020-09-06T12:29:19.500Z</time>
      </trkpt>
      <trkpt lat="48.40107" lon="7.30821">
        <ele>659</ele>
        <time>2020-09-06T12:29:20.500Z</time>
      </trkpt>
      <trkpt lat="48.40108" lon="7.30822">
        <ele>659</ele>
        <time>2020-09-06T12:29:21.500Z</time>
      </trkpt>
      <trkpt lat="48.40108" lon="7.30823">
        <ele>659</ele>
        <time>2020-09-06T12:29:22.499Z</time>
      </trkpt>
      <trkpt lat="48.40109" lon="7.30825">
        <ele>659</ele>
        <time>2020-09-06T12:29:23.500Z</time>
      </trkpt>
      <trkpt lat="48.40111" lon="7.30826">
        <ele>659</ele>
        <time>2020-09-06T12:29:24.500Z</time>
      </trkpt>
      <trkpt lat="48.40112" lon="7.30828">
        <ele>659</ele>
        <time>2020-09-06T12:29:25.500Z</time>
      </trkpt>
      <trkpt lat="48.40113" lon="7.30829">
        <ele>659</ele>
        <time>2020-09-06T12:29:26.500Z</time>
      </trkpt>
      <trkpt lat="48.40113" lon="7.3083">
        <ele>658</ele>
        <time>2020-09-06T12:29:27.500Z</time>
      </trkpt>
      <trkpt lat="48.40114" lon="7.30832">
        <ele>658</ele>
        <time>2020-09-06T12:29:28.499Z</time>
      </trkpt>
      <trkpt lat="48.40115" lon="7.30833">
        <ele>658</ele>
        <time>2020-09-06T12:29:29.499Z</time>
      </trkpt>
      <trkpt lat="48.40115" lon="7.30834">
        <ele>657</ele>
        <time>2020-09-06T12:29:30.499Z</time>
      </trkpt>
      <trkpt lat="48.40116" lon="7.30835">
        <ele>657</ele>
        <time>2020-09-06T12:29:31.500Z</time>
      </trkpt>
      <trkpt lat="48.40116" lon="7.30837">
        <ele>656</ele>
        <time>2020-09-06T12:29:32.500Z</time>
      </trkpt>
      <trkpt lat="48.40118" lon="7.3084">
        <ele>656</ele>
        <time>2020-09-06T12:29:33.500Z</time>
      </trkpt>
      <trkpt lat="48.40119" lon="7.30841">
        <ele>655</ele>
        <time>2020-09-06T12:29:34.500Z</time>
      </trkpt>
      <trkpt lat="48.4012" lon="7.30843">
        <ele>654</ele>
        <time>2020-09-06T12:29:35.500Z</time>
      </trkpt>
      <trkpt lat="48.40121" lon="7.30844">
        <ele>653</ele>
        <time>2020-09-06T12:29:36.500Z</time>
      </trkpt>
      <trkpt lat="48.40122" lon="7.30846">
        <ele>653</ele>
        <time>2020-09-06T12:29:37.500Z</time>
      </trkpt>
      <trkpt lat="48.40122" lon="7.30846">
        <ele>653</ele>
        <time>2020-09-06T12:29:38.500Z</time>
      </trkpt>
      <trkpt lat="48.40121" lon="7.30846">
        <ele>653</ele>
        <time>2020-09-06T12:29:39.500Z</time>
      </trkpt>
      <trkpt lat="48.4012" lon="7.30845">
        <ele>653</ele>
        <time>2020-09-06T12:29:40.499Z</time>
      </trkpt>
      <trkpt lat="48.40121" lon="7.30845">
        <ele>653</ele>
        <time>2020-09-06T12:29:41.500Z</time>
      </trkpt>
      <trkpt lat="48.40121" lon="7.30846">
        <ele>653</ele>
        <time>2020-09-06T12:29:42.499Z</time>
      </trkpt>
      <trkpt lat="48.40121" lon="7.30847">
        <ele>653</ele>
        <time>2020-09-06T12:29:43.499Z</time>
      </trkpt>
      <trkpt lat="48.40121" lon="7.30849">
        <ele>653</ele>
        <time>2020-09-06T12:29:44.500Z</time>
      </trkpt>
      <trkpt lat="48.40122" lon="7.3085">
        <ele>653</ele>
        <time>2020-09-06T12:29:45.500Z</time>
      </trkpt>
      <trkpt lat="48.40122" lon="7.30851">
        <ele>654</ele>
        <time>2020-09-06T12:29:46.500Z</time>
      </trkpt>
      <trkpt lat="48.40123" lon="7.30853">
        <ele>654</ele>
        <time>2020-09-06T12:29:47.499Z</time>
      </trkpt>
      <trkpt lat="48.40123" lon="7.30854">
        <ele>655</ele>
        <time>2020-09-06T12:29:48.499Z</time>
      </trkpt>
      <trkpt lat="48.40123" lon="7.30855">
        <ele>656</ele>
        <time>2020-09-06T12:29:49.499Z</time>
      </trkpt>
      <trkpt lat="48.40123" lon="7.30856">
        <ele>656</ele>
        <time>2020-09-06T12:29:50.500Z</time>
      </trkpt>
      <trkpt lat="48.40124" lon="7.30858">
        <ele>657</ele>
        <time>2020-09-06T12:29:51.500Z</time>
      </trkpt>
      <trkpt lat="48.40124" lon="7.30859">
        <ele>657</ele>
        <time>2020-09-06T12:29:52.500Z</time>
      </trkpt>
      <trkpt lat="48.40124" lon="7.3086">
        <ele>657</ele>
        <time>2020-09-06T12:29:53.499Z</time>
      </trkpt>
      <trkpt lat="48.40124" lon="7.30863">
        <ele>656</ele>
        <time>2020-09-06T12:29:54.500Z</time>
      </trkpt>
      <trkpt lat="48.40123" lon="7.30864">
        <ele>656</ele>
        <time>2020-09-06T12:29:55.500Z</time>
      </trkpt>
      <trkpt lat="48.40123" lon="7.30866">
        <ele>655</ele>
        <time>2020-09-06T12:29:56.499Z</time>
      </trkpt>
      <trkpt lat="48.40123" lon="7.30867">
        <ele>654</ele>
        <time>2020-09-06T12:29:57.500Z</time>
      </trkpt>
      <trkpt lat="48.40123" lon="7.30868">
        <ele>653</ele>
        <time>2020-09-06T12:29:58.499Z</time>
      </trkpt>
      <trkpt lat="48.40124" lon="7.3087">
        <ele>652</ele>
        <time>2020-09-06T12:29:59.500Z</time>
      </trkpt>
      <trkpt lat="48.40125" lon="7.30872">
        <ele>651</ele>
        <time>2020-09-06T12:30:00.499Z</time>
      </trkpt>
      <trkpt lat="48.40126" lon="7.30874">
        <ele>651</ele>
        <time>2020-09-06T12:30:01.500Z</time>
      </trkpt>
      <trkpt lat="48.40127" lon="7.30875">
        <ele>650</ele>
        <time>2020-09-06T12:30:02.499Z</time>
      </trkpt>
      <trkpt lat="48.40127" lon="7.30877">
        <ele>650</ele>
        <time>2020-09-06T12:30:03.500Z</time>
      </trkpt>
      <trkpt lat="48.40127" lon="7.30879">
        <ele>649</ele>
        <time>2020-09-06T12:30:04.500Z</time>
      </trkpt>
      <trkpt lat="48.40127" lon="7.30881">
        <ele>648</ele>
        <time>2020-09-06T12:30:05.500Z</time>
      </trkpt>
      <trkpt lat="48.40128" lon="7.30882">
        <ele>648</ele>
        <time>2020-09-06T12:30:06.500Z</time>
      </trkpt>
      <trkpt lat="48.40129" lon="7.30884">
        <ele>647</ele>
        <time>2020-09-06T12:30:07.500Z</time>
      </trkpt>
      <trkpt lat="48.40129" lon="7.30885">
        <ele>647</ele>
        <time>2020-09-06T12:30:08.499Z</time>
      </trkpt>
      <trkpt lat="48.4013" lon="7.30887">
        <ele>647</ele>
        <time>2020-09-06T12:30:09.500Z</time>
      </trkpt>
      <trkpt lat="48.4013" lon="7.30888">
        <ele>646</ele>
        <time>2020-09-06T12:30:10.500Z</time>
      </trkpt>
      <trkpt lat="48.40131" lon="7.3089">
        <ele>646</ele>
        <time>2020-09-06T12:30:11.499Z</time>
      </trkpt>
      <trkpt lat="48.40132" lon="7.30893">
        <ele>645</ele>
        <time>2020-09-06T12:30:12.500Z</time>
      </trkpt>
      <trkpt lat="48.40131" lon="7.30895">
        <ele>644</ele>
        <time>2020-09-06T12:30:13.500Z</time>
      </trkpt>
      <trkpt lat="48.4013" lon="7.30897">
        <ele>644</ele>
        <time>2020-09-06T12:30:14.500Z</time>
      </trkpt>
      <trkpt lat="48.4013" lon="7.309">
        <ele>643</ele>
        <time>2020-09-06T12:30:15.499Z</time>
      </trkpt>
      <trkpt lat="48.40131" lon="7.30903">
        <ele>643</ele>
        <time>2020-09-06T12:30:16.500Z</time>
      </trkpt>
      <trkpt lat="48.40132" lon="7.30905">
        <ele>643</ele>
        <time>2020-09-06T12:30:17.500Z</time>
      </trkpt>
      <trkpt lat="48.40133" lon="7.30907">
        <ele>642</ele>
        <time>2020-09-06T12:30:18.500Z</time>
      </trkpt>
      <trkpt lat="48.40134" lon="7.30909">
        <ele>642</ele>
        <time>2020-09-06T12:30:19.499Z</time>
      </trkpt>
      <trkpt lat="48.40134" lon="7.3091">
        <ele>642</ele>
        <time>2020-09-06T12:30:20.499Z</time>
      </trkpt>
      <trkpt lat="48.40134" lon="7.30912">
        <ele>643</ele>
        <time>2020-09-06T12:30:21.500Z</time>
      </trkpt>
      <trkpt lat="48.40134" lon="7.30913">
        <ele>643</ele>
        <time>2020-09-06T12:30:22.500Z</time>
      </trkpt>
      <trkpt lat="48.40134" lon="7.30915">
        <ele>644</ele>
        <time>2020-09-06T12:30:23.500Z</time>
      </trkpt>
      <trkpt lat="48.40134" lon="7.30917">
        <ele>644</ele>
        <time>2020-09-06T12:30:24.500Z</time>
      </trkpt>
      <trkpt lat="48.40134" lon="7.30919">
        <ele>644</ele>
        <time>2020-09-06T12:30:25.500Z</time>
      </trkpt>
      <trkpt lat="48.40135" lon="7.30921">
        <ele>644</ele>
        <time>2020-09-06T12:30:26.500Z</time>
      </trkpt>
      <trkpt lat="48.40135" lon="7.30923">
        <ele>645</ele>
        <time>2020-09-06T12:30:27.500Z</time>
      </trkpt>
      <trkpt lat="48.40135" lon="7.30925">
        <ele>645</ele>
        <time>2020-09-06T12:30:28.500Z</time>
      </trkpt>
      <trkpt lat="48.40136" lon="7.30926">
        <ele>645</ele>
        <time>2020-09-06T12:30:29.500Z</time>
      </trkpt>
      <trkpt lat="48.40136" lon="7.30928">
        <ele>644</ele>
        <time>2020-09-06T12:30:30.500Z</time>
      </trkpt>
      <trkpt lat="48.40136" lon="7.30931">
        <ele>644</ele>
        <time>2020-09-06T12:30:31.500Z</time>
      </trkpt>
      <trkpt lat="48.40137" lon="7.30933">
        <ele>644</ele>
        <time>2020-09-06T12:30:32.500Z</time>
      </trkpt>
      <trkpt lat="48.40137" lon="7.30936">
        <ele>644</ele>
        <time>2020-09-06T12:30:33.500Z</time>
      </trkpt>
      <trkpt lat="48.40138" lon="7.30938">
        <ele>644</ele>
        <time>2020-09-06T12:30:34.500Z</time>
      </trkpt>
      <trkpt lat="48.40138" lon="7.3094">
        <ele>645</ele>
        <time>2020-09-06T12:30:35.499Z</time>
      </trkpt>
      <trkpt lat="48.40139" lon="7.30942">
        <ele>645</ele>
        <time>2020-09-06T12:30:36.500Z</time>
      </trkpt>
      <trkpt lat="48.40139" lon="7.30943">
        <ele>645</ele>
        <time>2020-09-06T12:30:37.499Z</time>
      </trkpt>
      <trkpt lat="48.40141" lon="7.30945">
        <ele>645</ele>
        <time>2020-09-06T12:30:38.500Z</time>
      </trkpt>
      <trkpt lat="48.40142" lon="7.30947">
        <ele>645</ele>
        <time>2020-09-06T12:30:39.500Z</time>
      </trkpt>
      <trkpt lat="48.40142" lon="7.30949">
        <ele>644</ele>
        <time>2020-09-06T12:30:40.499Z</time>
      </trkpt>
      <trkpt lat="48.40143" lon="7.3095">
        <ele>644</ele>
        <time>2020-09-06T12:30:41.500Z</time>
      </trkpt>
      <trkpt lat="48.40143" lon="7.30951">
        <ele>644</ele>
        <time>2020-09-06T12:30:42.500Z</time>
      </trkpt>
      <trkpt lat="48.40144" lon="7.30953">
        <ele>643</ele>
        <time>2020-09-06T12:30:43.500Z</time>
      </trkpt>
      <trkpt lat="48.40144" lon="7.30954">
        <ele>643</ele>
        <time>2020-09-06T12:30:44.500Z</time>
      </trkpt>
      <trkpt lat="48.40145" lon="7.30956">
        <ele>643</ele>
        <time>2020-09-06T12:30:45.499Z</time>
      </trkpt>
      <trkpt lat="48.40145" lon="7.30957">
        <ele>642</ele>
        <time>2020-09-06T12:30:46.500Z</time>
      </trkpt>
      <trkpt lat="48.40146" lon="7.30958">
        <ele>642</ele>
        <time>2020-09-06T12:30:47.500Z</time>
      </trkpt>
      <trkpt lat="48.40146" lon="7.30959">
        <ele>642</ele>
        <time>2020-09-06T12:30:48.500Z</time>
      </trkpt>
      <trkpt lat="48.40146" lon="7.30961">
        <ele>641</ele>
        <time>2020-09-06T12:30:49.499Z</time>
      </trkpt>
      <trkpt lat="48.40147" lon="7.30962">
        <ele>641</ele>
        <time>2020-09-06T12:30:50.500Z</time>
      </trkpt>
      <trkpt lat="48.40147" lon="7.30964">
        <ele>641</ele>
        <time>2020-09-06T12:30:51.500Z</time>
      </trkpt>
      <trkpt lat="48.40147" lon="7.30965">
        <ele>640</ele>
        <time>2020-09-06T12:30:52.499Z</time>
      </trkpt>
      <trkpt lat="48.40147" lon="7.30967">
        <ele>640</ele>
        <time>2020-09-06T12:30:53.499Z</time>
      </trkpt>
      <trkpt lat="48.40146" lon="7.30968">
        <ele>640</ele>
        <time>2020-09-06T12:30:54.500Z</time>
      </trkpt>
      <trkpt lat="48.40146" lon="7.3097">
        <ele>640</ele>
        <time>2020-09-06T12:30:55.500Z</time>
      </trkpt>
      <trkpt lat="48.40145" lon="7.30972">
        <ele>639</ele>
        <time>2020-09-06T12:30:56.500Z</time>
      </trkpt>
      <trkpt lat="48.40145" lon="7.30973">
        <ele>639</ele>
        <time>2020-09-06T12:30:57.500Z</time>
      </trkpt>
      <trkpt lat="48.40145" lon="7.30974">
        <ele>639</ele>
        <time>2020-09-06T12:30:58.500Z</time>
      </trkpt>
      <trkpt lat="48.40146" lon="7.30976">
        <ele>639</ele>
        <time>2020-09-06T12:30:59.500Z</time>
      </trkpt>
      <trkpt lat="48.40146" lon="7.30978">
        <ele>638</ele>
        <time>2020-09-06T12:31:00.500Z</time>
      </trkpt>
      <trkpt lat="48.40147" lon="7.3098">
        <ele>638</ele>
        <time>2020-09-06T12:31:01.500Z</time>
      </trkpt>
      <trkpt lat="48.40147" lon="7.30982">
        <ele>638</ele>
        <time>2020-09-06T12:31:02.500Z</time>
      </trkpt>
      <trkpt lat="48.40148" lon="7.30984">
        <ele>638</ele>
        <time>2020-09-06T12:31:03.500Z</time>
      </trkpt>
      <trkpt lat="48.40149" lon="7.30985">
        <ele>638</ele>
        <time>2020-09-06T12:31:04.500Z</time>
      </trkpt>
      <trkpt lat="48.4015" lon="7.30987">
        <ele>638</ele>
        <time>2020-09-06T12:31:05.500Z</time>
      </trkpt>
      <trkpt lat="48.40152" lon="7.30988">
        <ele>638</ele>
        <time>2020-09-06T12:31:06.500Z</time>
      </trkpt>
      <trkpt lat="48.40153" lon="7.30989">
        <ele>638</ele>
        <time>2020-09-06T12:31:07.500Z</time>
      </trkpt>
      <trkpt lat="48.40155" lon="7.3099">
        <ele>638</ele>
        <time>2020-09-06T12:31:08.499Z</time>
      </trkpt>
      <trkpt lat="48.40156" lon="7.30991">
        <ele>638</ele>
        <time>2020-09-06T12:31:09.499Z</time>
      </trkpt>
      <trkpt lat="48.40157" lon="7.30992">
        <ele>638</ele>
        <time>2020-09-06T12:31:10.500Z</time>
      </trkpt>
      <trkpt lat="48.40158" lon="7.30994">
        <ele>638</ele>
        <time>2020-09-06T12:31:11.500Z</time>
      </trkpt>
      <trkpt lat="48.40159" lon="7.30995">
        <ele>638</ele>
        <time>2020-09-06T12:31:12.500Z</time>
      </trkpt>
      <trkpt lat="48.40159" lon="7.30997">
        <ele>638</ele>
        <time>2020-09-06T12:31:13.500Z</time>
      </trkpt>
      <trkpt lat="48.4016" lon="7.30998">
        <ele>638</ele>
        <time>2020-09-06T12:31:14.499Z</time>
      </trkpt>
      <trkpt lat="48.40161" lon="7.30999">
        <ele>638</ele>
        <time>2020-09-06T12:31:15.500Z</time>
      </trkpt>
      <trkpt lat="48.40162" lon="7.31">
        <ele>638</ele>
        <time>2020-09-06T12:31:16.500Z</time>
      </trkpt>
      <trkpt lat="48.40163" lon="7.31001">
        <ele>638</ele>
        <time>2020-09-06T12:31:17.500Z</time>
      </trkpt>
      <trkpt lat="48.40164" lon="7.31002">
        <ele>639</ele>
        <time>2020-09-06T12:31:18.499Z</time>
      </trkpt>
      <trkpt lat="48.40165" lon="7.31004">
        <ele>639</ele>
        <time>2020-09-06T12:31:19.500Z</time>
      </trkpt>
      <trkpt lat="48.40166" lon="7.31005">
        <ele>639</ele>
        <time>2020-09-06T12:31:20.499Z</time>
      </trkpt>
      <trkpt lat="48.40168" lon="7.31006">
        <ele>639</ele>
        <time>2020-09-06T12:31:21.500Z</time>
      </trkpt>
      <trkpt lat="48.40169" lon="7.31008">
        <ele>639</ele>
        <time>2020-09-06T12:31:22.499Z</time>
      </trkpt>
      <trkpt lat="48.4017" lon="7.31009">
        <ele>639</ele>
        <time>2020-09-06T12:31:23.500Z</time>
      </trkpt>
      <trkpt lat="48.40172" lon="7.3101">
        <ele>640</ele>
        <time>2020-09-06T12:31:24.500Z</time>
      </trkpt>
      <trkpt lat="48.40173" lon="7.31011">
        <ele>640</ele>
        <time>2020-09-06T12:31:25.500Z</time>
      </trkpt>
      <trkpt lat="48.40175" lon="7.31013">
        <ele>641</ele>
        <time>2020-09-06T12:31:26.499Z</time>
      </trkpt>
      <trkpt lat="48.40177" lon="7.31014">
        <ele>641</ele>
        <time>2020-09-06T12:31:27.500Z</time>
      </trkpt>
      <trkpt lat="48.40177" lon="7.31015">
        <ele>641</ele>
        <time>2020-09-06T12:31:28.499Z</time>
      </trkpt>
      <trkpt lat="48.40178" lon="7.31016">
        <ele>641</ele>
        <time>2020-09-06T12:31:29.499Z</time>
      </trkpt>
      <trkpt lat="48.40178" lon="7.31017">
        <ele>641</ele>
        <time>2020-09-06T12:31:30.500Z</time>
      </trkpt>
      <trkpt lat="48.40178" lon="7.31018">
        <ele>641</ele>
        <time>2020-09-06T12:31:31.499Z</time>
      </trkpt>
      <trkpt lat="48.40178" lon="7.31018">
        <ele>641</ele>
        <time>2020-09-06T12:31:32.500Z</time>
      </trkpt>
      <trkpt lat="48.40179" lon="7.31018">
        <ele>642</ele>
        <time>2020-09-06T12:31:33.499Z</time>
      </trkpt>
      <trkpt lat="48.4018" lon="7.31019">
        <ele>642</ele>
        <time>2020-09-06T12:31:34.500Z</time>
      </trkpt>
      <trkpt lat="48.40181" lon="7.3102">
        <ele>643</ele>
        <time>2020-09-06T12:31:35.499Z</time>
      </trkpt>
      <trkpt lat="48.40181" lon="7.31021">
        <ele>643</ele>
        <time>2020-09-06T12:31:36.499Z</time>
      </trkpt>
      <trkpt lat="48.40182" lon="7.31022">
        <ele>644</ele>
        <time>2020-09-06T12:31:37.500Z</time>
      </trkpt>
      <trkpt lat="48.40183" lon="7.31023">
        <ele>644</ele>
        <time>2020-09-06T12:31:38.499Z</time>
      </trkpt>
      <trkpt lat="48.40184" lon="7.31024">
        <ele>644</ele>
        <time>2020-09-06T12:31:39.500Z</time>
      </trkpt>
      <trkpt lat="48.40184" lon="7.31025">
        <ele>644</ele>
        <time>2020-09-06T12:31:40.499Z</time>
      </trkpt>
      <trkpt lat="48.40185" lon="7.31025">
        <ele>643</ele>
        <time>2020-09-06T12:31:41.500Z</time>
      </trkpt>
      <trkpt lat="48.40186" lon="7.31026">
        <ele>643</ele>
        <time>2020-09-06T12:31:42.500Z</time>
      </trkpt>
      <trkpt lat="48.40187" lon="7.31026">
        <ele>643</ele>
        <time>2020-09-06T12:31:43.500Z</time>
      </trkpt>
      <trkpt lat="48.40188" lon="7.31027">
        <ele>643</ele>
        <time>2020-09-06T12:31:44.500Z</time>
      </trkpt>
      <trkpt lat="48.40189" lon="7.31027">
        <ele>644</ele>
        <time>2020-09-06T12:31:45.500Z</time>
      </trkpt>
      <trkpt lat="48.4019" lon="7.31027">
        <ele>644</ele>
        <time>2020-09-06T12:31:46.500Z</time>
      </trkpt>
      <trkpt lat="48.40191" lon="7.31028">
        <ele>644</ele>
        <time>2020-09-06T12:31:47.500Z</time>
      </trkpt>
      <trkpt lat="48.40192" lon="7.31028">
        <ele>644</ele>
        <time>2020-09-06T12:31:48.499Z</time>
      </trkpt>
      <trkpt lat="48.40193" lon="7.31028">
        <ele>644</ele>
        <time>2020-09-06T12:31:49.500Z</time>
      </trkpt>
      <trkpt lat="48.40195" lon="7.31029">
        <ele>644</ele>
        <time>2020-09-06T12:31:50.500Z</time>
      </trkpt>
      <trkpt lat="48.40196" lon="7.3103">
        <ele>644</ele>
        <time>2020-09-06T12:31:51.499Z</time>
      </trkpt>
      <trkpt lat="48.40196" lon="7.31029">
        <ele>644</ele>
        <time>2020-09-06T12:31:52.500Z</time>
      </trkpt>
      <trkpt lat="48.40197" lon="7.31029">
        <ele>644</ele>
        <time>2020-09-06T12:31:53.500Z</time>
      </trkpt>
      <trkpt lat="48.40198" lon="7.31029">
        <ele>645</ele>
        <time>2020-09-06T12:31:54.500Z</time>
      </trkpt>
      <trkpt lat="48.40199" lon="7.31029">
        <ele>645</ele>
        <time>2020-09-06T12:31:55.500Z</time>
      </trkpt>
      <trkpt lat="48.402" lon="7.3103">
        <ele>646</ele>
        <time>2020-09-06T12:31:56.499Z</time>
      </trkpt>
      <trkpt lat="48.40201" lon="7.3103">
        <ele>646</ele>
        <time>2020-09-06T12:31:57.500Z</time>
      </trkpt>
      <trkpt lat="48.40202" lon="7.31031">
        <ele>646</ele>
        <time>2020-09-06T12:31:58.499Z</time>
      </trkpt>
      <trkpt lat="48.40203" lon="7.31031">
        <ele>646</ele>
        <time>2020-09-06T12:31:59.500Z</time>
      </trkpt>
      <trkpt lat="48.40205" lon="7.31031">
        <ele>646</ele>
        <time>2020-09-06T12:32:00.499Z</time>
      </trkpt>
      <trkpt lat="48.40206" lon="7.31031">
        <ele>646</ele>
        <time>2020-09-06T12:32:01.499Z</time>
      </trkpt>
      <trkpt lat="48.40207" lon="7.31031">
        <ele>646</ele>
        <time>2020-09-06T12:32:02.499Z</time>
      </trkpt>
      <trkpt lat="48.4021" lon="7.31031">
        <ele>646</ele>
        <time>2020-09-06T12:32:03.499Z</time>
      </trkpt>
      <trkpt lat="48.40211" lon="7.31031">
        <ele>646</ele>
        <time>2020-09-06T12:32:04.500Z</time>
      </trkpt>
      <trkpt lat="48.40212" lon="7.31031">
        <ele>646</ele>
        <time>2020-09-06T12:32:05.500Z</time>
      </trkpt>
      <trkpt lat="48.40213" lon="7.3103">
        <ele>647</ele>
        <time>2020-09-06T12:32:06.500Z</time>
      </trkpt>
      <trkpt lat="48.40214" lon="7.3103">
        <ele>647</ele>
        <time>2020-09-06T12:32:07.500Z</time>
      </trkpt>
      <trkpt lat="48.40214" lon="7.3103">
        <ele>648</ele>
        <time>2020-09-06T12:32:08.500Z</time>
      </trkpt>
      <trkpt lat="48.40215" lon="7.31029">
        <ele>648</ele>
        <time>2020-09-06T12:32:09.499Z</time>
      </trkpt>
      <trkpt lat="48.40216" lon="7.31029">
        <ele>648</ele>
        <time>2020-09-06T12:32:10.500Z</time>
      </trkpt>
      <trkpt lat="48.40217" lon="7.31029">
        <ele>649</ele>
        <time>2020-09-06T12:32:11.500Z</time>
      </trkpt>
      <trkpt lat="48.40218" lon="7.31028">
        <ele>650</ele>
        <time>2020-09-06T12:32:12.500Z</time>
      </trkpt>
      <trkpt lat="48.40219" lon="7.31029">
        <ele>651</ele>
        <time>2020-09-06T12:32:13.500Z</time>
      </trkpt>
      <trkpt lat="48.40221" lon="7.31029">
        <ele>651</ele>
        <time>2020-09-06T12:32:14.500Z</time>
      </trkpt>
      <trkpt lat="48.40222" lon="7.31029">
        <ele>651</ele>
        <time>2020-09-06T12:32:15.499Z</time>
      </trkpt>
      <trkpt lat="48.40223" lon="7.3103">
        <ele>652</ele>
        <time>2020-09-06T12:32:16.500Z</time>
      </trkpt>
      <trkpt lat="48.40224" lon="7.3103">
        <ele>652</ele>
        <time>2020-09-06T12:32:17.500Z</time>
      </trkpt>
      <trkpt lat="48.40226" lon="7.31031">
        <ele>653</ele>
        <time>2020-09-06T12:32:18.499Z</time>
      </trkpt>
      <trkpt lat="48.40226" lon="7.31031">
        <ele>653</ele>
        <time>2020-09-06T12:32:19.500Z</time>
      </trkpt>
      <trkpt lat="48.40227" lon="7.31032">
        <ele>654</ele>
        <time>2020-09-06T12:32:20.499Z</time>
      </trkpt>
      <trkpt lat="48.40228" lon="7.31031">
        <ele>655</ele>
        <time>2020-09-06T12:32:21.500Z</time>
      </trkpt>
      <trkpt lat="48.40229" lon="7.3103">
        <ele>656</ele>
        <time>2020-09-06T12:32:22.500Z</time>
      </trkpt>
      <trkpt lat="48.40231" lon="7.3103">
        <ele>657</ele>
        <time>2020-09-06T12:32:23.500Z</time>
      </trkpt>
      <trkpt lat="48.40232" lon="7.3103">
        <ele>658</ele>
        <time>2020-09-06T12:32:24.500Z</time>
      </trkpt>
      <trkpt lat="48.40233" lon="7.3103">
        <ele>659</ele>
        <time>2020-09-06T12:32:25.500Z</time>
      </trkpt>
      <trkpt lat="48.40234" lon="7.3103">
        <ele>660</ele>
        <time>2020-09-06T12:32:26.500Z</time>
      </trkpt>
      <trkpt lat="48.40235" lon="7.31031">
        <ele>661</ele>
        <time>2020-09-06T12:32:27.500Z</time>
      </trkpt>
      <trkpt lat="48.40236" lon="7.31031">
        <ele>662</ele>
        <time>2020-09-06T12:32:28.500Z</time>
      </trkpt>
      <trkpt lat="48.40237" lon="7.31032">
        <ele>662</ele>
        <time>2020-09-06T12:32:29.500Z</time>
      </trkpt>
      <trkpt lat="48.40239" lon="7.31033">
        <ele>662</ele>
        <time>2020-09-06T12:32:30.500Z</time>
      </trkpt>
      <trkpt lat="48.4024" lon="7.31034">
        <ele>661</ele>
        <time>2020-09-06T12:32:31.500Z</time>
      </trkpt>
      <trkpt lat="48.40241" lon="7.31036">
        <ele>660</ele>
        <time>2020-09-06T12:32:32.500Z</time>
      </trkpt>
      <trkpt lat="48.40242" lon="7.31037">
        <ele>660</ele>
        <time>2020-09-06T12:32:33.500Z</time>
      </trkpt>
      <trkpt lat="48.40244" lon="7.31038">
        <ele>659</ele>
        <time>2020-09-06T12:32:34.500Z</time>
      </trkpt>
      <trkpt lat="48.40245" lon="7.3104">
        <ele>658</ele>
        <time>2020-09-06T12:32:35.500Z</time>
      </trkpt>
      <trkpt lat="48.40246" lon="7.31041">
        <ele>657</ele>
        <time>2020-09-06T12:32:36.499Z</time>
      </trkpt>
      <trkpt lat="48.40247" lon="7.31043">
        <ele>656</ele>
        <time>2020-09-06T12:32:37.500Z</time>
      </trkpt>
      <trkpt lat="48.40248" lon="7.31045">
        <ele>655</ele>
        <time>2020-09-06T12:32:38.500Z</time>
      </trkpt>
      <trkpt lat="48.40249" lon="7.31047">
        <ele>654</ele>
        <time>2020-09-06T12:32:39.500Z</time>
      </trkpt>
      <trkpt lat="48.40249" lon="7.31048">
        <ele>654</ele>
        <time>2020-09-06T12:32:40.500Z</time>
      </trkpt>
      <trkpt lat="48.4025" lon="7.3105">
        <ele>653</ele>
        <time>2020-09-06T12:32:41.499Z</time>
      </trkpt>
      <trkpt lat="48.40251" lon="7.31053">
        <ele>652</ele>
        <time>2020-09-06T12:32:42.500Z</time>
      </trkpt>
      <trkpt lat="48.40253" lon="7.31055">
        <ele>651</ele>
        <time>2020-09-06T12:32:43.499Z</time>
      </trkpt>
      <trkpt lat="48.40254" lon="7.31057">
        <ele>650</ele>
        <time>2020-09-06T12:32:44.500Z</time>
      </trkpt>
      <trkpt lat="48.40256" lon="7.3106">
        <ele>648</ele>
        <time>2020-09-06T12:32:45.500Z</time>
      </trkpt>
      <trkpt lat="48.40257" lon="7.31062">
        <ele>648</ele>
        <time>2020-09-06T12:32:46.500Z</time>
      </trkpt>
      <trkpt lat="48.40258" lon="7.31064">
        <ele>647</ele>
        <time>2020-09-06T12:32:47.500Z</time>
      </trkpt>
      <trkpt lat="48.40258" lon="7.31066">
        <ele>647</ele>
        <time>2020-09-06T12:32:48.500Z</time>
      </trkpt>
      <trkpt lat="48.40259" lon="7.31068">
        <ele>646</ele>
        <time>2020-09-06T12:32:49.500Z</time>
      </trkpt>
      <trkpt lat="48.4026" lon="7.31071">
        <ele>646</ele>
        <time>2020-09-06T12:32:50.499Z</time>
      </trkpt>
      <trkpt lat="48.4026" lon="7.31073">
        <ele>646</ele>
        <time>2020-09-06T12:32:52.504Z</time>
      </trkpt>
      <trkpt lat="48.4026" lon="7.31075">
        <ele>645</ele>
        <time>2020-09-06T12:32:53.504Z</time>
      </trkpt>
      <trkpt lat="48.40261" lon="7.31078">
        <ele>644</ele>
        <time>2020-09-06T12:32:54.504Z</time>
      </trkpt>
      <trkpt lat="48.40261" lon="7.3108">
        <ele>643</ele>
        <time>2020-09-06T12:32:55.504Z</time>
      </trkpt>
      <trkpt lat="48.40261" lon="7.31083">
        <ele>643</ele>
        <time>2020-09-06T12:32:56.503Z</time>
      </trkpt>
      <trkpt lat="48.40261" lon="7.31085">
        <ele>642</ele>
        <time>2020-09-06T12:32:57.503Z</time>
      </trkpt>
      <trkpt lat="48.40261" lon="7.31088">
        <ele>641</ele>
        <time>2020-09-06T12:32:58.504Z</time>
      </trkpt>
      <trkpt lat="48.40262" lon="7.31091">
        <ele>641</ele>
        <time>2020-09-06T12:32:59.504Z</time>
      </trkpt>
      <trkpt lat="48.40262" lon="7.31093">
        <ele>640</ele>
        <time>2020-09-06T12:33:00.504Z</time>
      </trkpt>
      <trkpt lat="48.40262" lon="7.31096">
        <ele>640</ele>
        <time>2020-09-06T12:33:01.504Z</time>
      </trkpt>
      <trkpt lat="48.40263" lon="7.31098">
        <ele>639</ele>
        <time>2020-09-06T12:33:02.504Z</time>
      </trkpt>
      <trkpt lat="48.40264" lon="7.31101">
        <ele>639</ele>
        <time>2020-09-06T12:33:03.504Z</time>
      </trkpt>
      <trkpt lat="48.40265" lon="7.31105">
        <ele>638</ele>
        <time>2020-09-06T12:33:04.503Z</time>
      </trkpt>
      <trkpt lat="48.40266" lon="7.31107">
        <ele>638</ele>
        <time>2020-09-06T12:33:05.503Z</time>
      </trkpt>
      <trkpt lat="48.40266" lon="7.31109">
        <ele>638</ele>
        <time>2020-09-06T12:33:06.504Z</time>
      </trkpt>
      <trkpt lat="48.40266" lon="7.31111">
        <ele>637</ele>
        <time>2020-09-06T12:33:07.504Z</time>
      </trkpt>
      <trkpt lat="48.40266" lon="7.31113">
        <ele>638</ele>
        <time>2020-09-06T12:33:08.504Z</time>
      </trkpt>
      <trkpt lat="48.40267" lon="7.31115">
        <ele>638</ele>
        <time>2020-09-06T12:33:09.504Z</time>
      </trkpt>
      <trkpt lat="48.40267" lon="7.31117">
        <ele>638</ele>
        <time>2020-09-06T12:33:10.504Z</time>
      </trkpt>
      <trkpt lat="48.40267" lon="7.31119">
        <ele>638</ele>
        <time>2020-09-06T12:33:11.504Z</time>
      </trkpt>
      <trkpt lat="48.40266" lon="7.31123">
        <ele>637</ele>
        <time>2020-09-06T12:33:12.504Z</time>
      </trkpt>
      <trkpt lat="48.40267" lon="7.31126">
        <ele>637</ele>
        <time>2020-09-06T12:33:13.504Z</time>
      </trkpt>
      <trkpt lat="48.40267" lon="7.31129">
        <ele>636</ele>
        <time>2020-09-06T12:33:14.504Z</time>
      </trkpt>
      <trkpt lat="48.40267" lon="7.31132">
        <ele>636</ele>
        <time>2020-09-06T12:33:15.504Z</time>
      </trkpt>
      <trkpt lat="48.40268" lon="7.31134">
        <ele>636</ele>
        <time>2020-09-06T12:33:16.504Z</time>
      </trkpt>
      <trkpt lat="48.40268" lon="7.31136">
        <ele>635</ele>
        <time>2020-09-06T12:33:17.504Z</time>
      </trkpt>
      <trkpt lat="48.40269" lon="7.31138">
        <ele>635</ele>
        <time>2020-09-06T12:33:18.504Z</time>
      </trkpt>
      <trkpt lat="48.40269" lon="7.3114">
        <ele>635</ele>
        <time>2020-09-06T12:33:19.504Z</time>
      </trkpt>
      <trkpt lat="48.40269" lon="7.31141">
        <ele>635</ele>
        <time>2020-09-06T12:33:20.504Z</time>
      </trkpt>
      <trkpt lat="48.40269" lon="7.31144">
        <ele>635</ele>
        <time>2020-09-06T12:33:21.503Z</time>
      </trkpt>
      <trkpt lat="48.4027" lon="7.31146">
        <ele>634</ele>
        <time>2020-09-06T12:33:22.504Z</time>
      </trkpt>
      <trkpt lat="48.40271" lon="7.31148">
        <ele>634</ele>
        <time>2020-09-06T12:33:23.504Z</time>
      </trkpt>
      <trkpt lat="48.40271" lon="7.31149">
        <ele>634</ele>
        <time>2020-09-06T12:33:24.504Z</time>
      </trkpt>
      <trkpt lat="48.40271" lon="7.31151">
        <ele>634</ele>
        <time>2020-09-06T12:33:25.504Z</time>
      </trkpt>
      <trkpt lat="48.40271" lon="7.31153">
        <ele>633</ele>
        <time>2020-09-06T12:33:26.504Z</time>
      </trkpt>
      <trkpt lat="48.40271" lon="7.31155">
        <ele>633</ele>
        <time>2020-09-06T12:33:27.504Z</time>
      </trkpt>
      <trkpt lat="48.40271" lon="7.31157">
        <ele>633</ele>
        <time>2020-09-06T12:33:28.504Z</time>
      </trkpt>
      <trkpt lat="48.40272" lon="7.31158">
        <ele>633</ele>
        <time>2020-09-06T12:33:29.504Z</time>
      </trkpt>
      <trkpt lat="48.40272" lon="7.3116">
        <ele>633</ele>
        <time>2020-09-06T12:33:48.004Z</time>
      </trkpt>
      <trkpt lat="48.40272" lon="7.31162">
        <ele>632</ele>
        <time>2020-09-06T12:33:49.004Z</time>
      </trkpt>
      <trkpt lat="48.40272" lon="7.31164">
        <ele>632</ele>
        <time>2020-09-06T12:33:50.004Z</time>
      </trkpt>
      <trkpt lat="48.40273" lon="7.31166">
        <ele>631</ele>
        <time>2020-09-06T12:33:51.004Z</time>
      </trkpt>
      <trkpt lat="48.40273" lon="7.31167">
        <ele>631</ele>
        <time>2020-09-06T12:33:52.004Z</time>
      </trkpt>
      <trkpt lat="48.40274" lon="7.31169">
        <ele>631</ele>
        <time>2020-09-06T12:33:53.004Z</time>
      </trkpt>
      <trkpt lat="48.40274" lon="7.31171">
        <ele>630</ele>
        <time>2020-09-06T12:33:54.004Z</time>
      </trkpt>
      <trkpt lat="48.40274" lon="7.31172">
        <ele>630</ele>
        <time>2020-09-06T12:33:55.004Z</time>
      </trkpt>
      <trkpt lat="48.40275" lon="7.31174">
        <ele>629</ele>
        <time>2020-09-06T12:33:56.004Z</time>
      </trkpt>
      <trkpt lat="48.40275" lon="7.31176">
        <ele>629</ele>
        <time>2020-09-06T12:33:57.004Z</time>
      </trkpt>
      <trkpt lat="48.40276" lon="7.31177">
        <ele>629</ele>
        <time>2020-09-06T12:33:58.003Z</time>
      </trkpt>
      <trkpt lat="48.40276" lon="7.31179">
        <ele>629</ele>
        <time>2020-09-06T12:33:59.004Z</time>
      </trkpt>
      <trkpt lat="48.40276" lon="7.3118">
        <ele>629</ele>
        <time>2020-09-06T12:34:00.004Z</time>
      </trkpt>
      <trkpt lat="48.40276" lon="7.31182">
        <ele>629</ele>
        <time>2020-09-06T12:34:01.004Z</time>
      </trkpt>
      <trkpt lat="48.40276" lon="7.31184">
        <ele>630</ele>
        <time>2020-09-06T12:34:02.004Z</time>
      </trkpt>
      <trkpt lat="48.40277" lon="7.31186">
        <ele>630</ele>
        <time>2020-09-06T12:34:03.004Z</time>
      </trkpt>
      <trkpt lat="48.40277" lon="7.31188">
        <ele>630</ele>
        <time>2020-09-06T12:34:04.004Z</time>
      </trkpt>
      <trkpt lat="48.40278" lon="7.3119">
        <ele>630</ele>
        <time>2020-09-06T12:34:05.004Z</time>
      </trkpt>
      <trkpt lat="48.40278" lon="7.31192">
        <ele>630</ele>
        <time>2020-09-06T12:34:06.003Z</time>
      </trkpt>
      <trkpt lat="48.40279" lon="7.31194">
        <ele>629</ele>
        <time>2020-09-06T12:34:07.004Z</time>
      </trkpt>
      <trkpt lat="48.40279" lon="7.31196">
        <ele>630</ele>
        <time>2020-09-06T12:34:08.004Z</time>
      </trkpt>
      <trkpt lat="48.40279" lon="7.31197">
        <ele>629</ele>
        <time>2020-09-06T12:34:09.004Z</time>
      </trkpt>
      <trkpt lat="48.4028" lon="7.31199">
        <ele>629</ele>
        <time>2020-09-06T12:34:10.004Z</time>
      </trkpt>
      <trkpt lat="48.40281" lon="7.312">
        <ele>629</ele>
        <time>2020-09-06T12:34:11.004Z</time>
      </trkpt>
      <trkpt lat="48.40281" lon="7.31202">
        <ele>629</ele>
        <time>2020-09-06T12:34:12.004Z</time>
      </trkpt>
      <trkpt lat="48.40281" lon="7.31204">
        <ele>629</ele>
        <time>2020-09-06T12:34:13.003Z</time>
      </trkpt>
      <trkpt lat="48.40282" lon="7.31205">
        <ele>629</ele>
        <time>2020-09-06T12:34:14.004Z</time>
      </trkpt>
      <trkpt lat="48.40282" lon="7.31207">
        <ele>629</ele>
        <time>2020-09-06T12:34:15.004Z</time>
      </trkpt>
      <trkpt lat="48.40283" lon="7.31209">
        <ele>629</ele>
        <time>2020-09-06T12:34:16.004Z</time>
      </trkpt>
      <trkpt lat="48.40284" lon="7.3121">
        <ele>629</ele>
        <time>2020-09-06T12:34:17.004Z</time>
      </trkpt>
      <trkpt lat="48.40284" lon="7.31212">
        <ele>629</ele>
        <time>2020-09-06T12:34:18.004Z</time>
      </trkpt>
      <trkpt lat="48.40285" lon="7.31214">
        <ele>629</ele>
        <time>2020-09-06T12:34:19.004Z</time>
      </trkpt>
      <trkpt lat="48.40286" lon="7.31215">
        <ele>629</ele>
        <time>2020-09-06T12:34:20.004Z</time>
      </trkpt>
      <trkpt lat="48.40287" lon="7.31217">
        <ele>629</ele>
        <time>2020-09-06T12:34:21.003Z</time>
      </trkpt>
      <trkpt lat="48.40287" lon="7.31218">
        <ele>629</ele>
        <time>2020-09-06T12:34:22.003Z</time>
      </trkpt>
      <trkpt lat="48.40288" lon="7.3122">
        <ele>630</ele>
        <time>2020-09-06T12:34:23.003Z</time>
      </trkpt>
      <trkpt lat="48.40289" lon="7.31221">
        <ele>630</ele>
        <time>2020-09-06T12:34:24.003Z</time>
      </trkpt>
      <trkpt lat="48.40289" lon="7.31223">
        <ele>629</ele>
        <time>2020-09-06T12:34:25.004Z</time>
      </trkpt>
      <trkpt lat="48.4029" lon="7.31225">
        <ele>629</ele>
        <time>2020-09-06T12:34:26.003Z</time>
      </trkpt>
      <trkpt lat="48.40291" lon="7.31226">
        <ele>629</ele>
        <time>2020-09-06T12:34:27.004Z</time>
      </trkpt>
      <trkpt lat="48.40292" lon="7.31228">
        <ele>628</ele>
        <time>2020-09-06T12:34:28.004Z</time>
      </trkpt>
      <trkpt lat="48.40292" lon="7.3123">
        <ele>628</ele>
        <time>2020-09-06T12:34:29.004Z</time>
      </trkpt>
      <trkpt lat="48.40293" lon="7.31231">
        <ele>627</ele>
        <time>2020-09-06T12:34:30.003Z</time>
      </trkpt>
      <trkpt lat="48.40293" lon="7.31233">
        <ele>627</ele>
        <time>2020-09-06T12:34:31.004Z</time>
      </trkpt>
      <trkpt lat="48.40294" lon="7.31235">
        <ele>627</ele>
        <time>2020-09-06T12:34:32.003Z</time>
      </trkpt>
      <trkpt lat="48.40295" lon="7.31236">
        <ele>627</ele>
        <time>2020-09-06T12:34:33.004Z</time>
      </trkpt>
      <trkpt lat="48.40296" lon="7.31238">
        <ele>627</ele>
        <time>2020-09-06T12:34:34.003Z</time>
      </trkpt>
      <trkpt lat="48.40297" lon="7.31239">
        <ele>627</ele>
        <time>2020-09-06T12:34:35.004Z</time>
      </trkpt>
      <trkpt lat="48.40297" lon="7.31241">
        <ele>626</ele>
        <time>2020-09-06T12:34:36.004Z</time>
      </trkpt>
      <trkpt lat="48.40298" lon="7.31242">
        <ele>626</ele>
        <time>2020-09-06T12:34:37.004Z</time>
      </trkpt>
      <trkpt lat="48.40299" lon="7.31244">
        <ele>626</ele>
        <time>2020-09-06T12:34:38.004Z</time>
      </trkpt>
      <trkpt lat="48.40299" lon="7.31245">
        <ele>626</ele>
        <time>2020-09-06T12:34:39.004Z</time>
      </trkpt>
      <trkpt lat="48.403" lon="7.31246">
        <ele>626</ele>
        <time>2020-09-06T12:34:40.004Z</time>
      </trkpt>
      <trkpt lat="48.40301" lon="7.31248">
        <ele>626</ele>
        <time>2020-09-06T12:34:41.004Z</time>
      </trkpt>
      <trkpt lat="48.40301" lon="7.31249">
        <ele>626</ele>
        <time>2020-09-06T12:34:42.004Z</time>
      </trkpt>
      <trkpt lat="48.40302" lon="7.31251">
        <ele>626</ele>
        <time>2020-09-06T12:34:43.004Z</time>
      </trkpt>
      <trkpt lat="48.40303" lon="7.31253">
        <ele>626</ele>
        <time>2020-09-06T12:34:44.004Z</time>
      </trkpt>
      <trkpt lat="48.40303" lon="7.31254">
        <ele>626</ele>
        <time>2020-09-06T12:34:45.004Z</time>
      </trkpt>
      <trkpt lat="48.40304" lon="7.31256">
        <ele>627</ele>
        <time>2020-09-06T12:34:46.003Z</time>
      </trkpt>
      <trkpt lat="48.40304" lon="7.31257">
        <ele>627</ele>
        <time>2020-09-06T12:34:47.003Z</time>
      </trkpt>
      <trkpt lat="48.40304" lon="7.31259">
        <ele>628</ele>
        <time>2020-09-06T12:34:48.003Z</time>
      </trkpt>
      <trkpt lat="48.40304" lon="7.3126">
        <ele>627</ele>
        <time>2020-09-06T12:34:49.004Z</time>
      </trkpt>
      <trkpt lat="48.40304" lon="7.31261">
        <ele>627</ele>
        <time>2020-09-06T12:34:50.004Z</time>
      </trkpt>
      <trkpt lat="48.40304" lon="7.31262">
        <ele>627</ele>
        <time>2020-09-06T12:34:51.004Z</time>
      </trkpt>
      <trkpt lat="48.40304" lon="7.31262">
        <ele>626</ele>
        <time>2020-09-06T12:34:52.003Z</time>
      </trkpt>
      <trkpt lat="48.40305" lon="7.31263">
        <ele>626</ele>
        <time>2020-09-06T12:34:53.004Z</time>
      </trkpt>
      <trkpt lat="48.40305" lon="7.31264">
        <ele>625</ele>
        <time>2020-09-06T12:34:54.003Z</time>
      </trkpt>
      <trkpt lat="48.40305" lon="7.31265">
        <ele>625</ele>
        <time>2020-09-06T12:34:55.004Z</time>
      </trkpt>
      <trkpt lat="48.40305" lon="7.31266">
        <ele>624</ele>
        <time>2020-09-06T13:13:26.124Z</time>
      </trkpt>
      <trkpt lat="48.40305" lon="7.31267">
        <ele>624</ele>
        <time>2020-09-06T13:13:27.124Z</time>
      </trkpt>
      <trkpt lat="48.40305" lon="7.31269">
        <ele>624</ele>
        <time>2020-09-06T13:13:28.124Z</time>
      </trkpt>
      <trkpt lat="48.40305" lon="7.3127">
        <ele>625</ele>
        <time>2020-09-06T13:13:29.124Z</time>
      </trkpt>
      <trkpt lat="48.40306" lon="7.31272">
        <ele>625</ele>
        <time>2020-09-06T13:13:30.124Z</time>
      </trkpt>
      <trkpt lat="48.40306" lon="7.31273">
        <ele>625</ele>
        <time>2020-09-06T13:13:31.124Z</time>
      </trkpt>
      <trkpt lat="48.40307" lon="7.31274">
        <ele>626</ele>
        <time>2020-09-06T13:13:32.124Z</time>
      </trkpt>
      <trkpt lat="48.40307" lon="7.31275">
        <ele>626</ele>
        <time>2020-09-06T13:13:33.124Z</time>
      </trkpt>
      <trkpt lat="48.40307" lon="7.31276">
        <ele>626</ele>
        <time>2020-09-06T13:13:34.123Z</time>
      </trkpt>
      <trkpt lat="48.40308" lon="7.31277">
        <ele>626</ele>
        <time>2020-09-06T13:13:35.124Z</time>
      </trkpt>
      <trkpt lat="48.40308" lon="7.31277">
        <ele>627</ele>
        <time>2020-09-06T13:13:36.124Z</time>
      </trkpt>
      <trkpt lat="48.40308" lon="7.31278">
        <ele>628</ele>
        <time>2020-09-06T13:13:37.124Z</time>
      </trkpt>
      <trkpt lat="48.40309" lon="7.31279">
        <ele>628</ele>
        <time>2020-09-06T13:13:38.124Z</time>
      </trkpt>
      <trkpt lat="48.40309" lon="7.3128">
        <ele>628</ele>
        <time>2020-09-06T13:13:39.124Z</time>
      </trkpt>
      <trkpt lat="48.4031" lon="7.31281">
        <ele>627</ele>
        <time>2020-09-06T13:13:40.123Z</time>
      </trkpt>
      <trkpt lat="48.4031" lon="7.31283">
        <ele>627</ele>
        <time>2020-09-06T13:13:41.124Z</time>
      </trkpt>
      <trkpt lat="48.40311" lon="7.31284">
        <ele>627</ele>
        <time>2020-09-06T13:13:42.124Z</time>
      </trkpt>
      <trkpt lat="48.40311" lon="7.31287">
        <ele>627</ele>
        <time>2020-09-06T13:13:43.124Z</time>
      </trkpt>
      <trkpt lat="48.40312" lon="7.31288">
        <ele>627</ele>
        <time>2020-09-06T13:13:44.124Z</time>
      </trkpt>
      <trkpt lat="48.40313" lon="7.3129">
        <ele>626</ele>
        <time>2020-09-06T13:13:45.124Z</time>
      </trkpt>
      <trkpt lat="48.40313" lon="7.31291">
        <ele>626</ele>
        <time>2020-09-06T13:13:46.124Z</time>
      </trkpt>
      <trkpt lat="48.40314" lon="7.31293">
        <ele>626</ele>
        <time>2020-09-06T13:13:47.124Z</time>
      </trkpt>
      <trkpt lat="48.40314" lon="7.31294">
        <ele>626</ele>
        <time>2020-09-06T13:13:48.124Z</time>
      </trkpt>
      <trkpt lat="48.40315" lon="7.31295">
        <ele>626</ele>
        <time>2020-09-06T13:13:49.124Z</time>
      </trkpt>
      <trkpt lat="48.40316" lon="7.31297">
        <ele>626</ele>
        <time>2020-09-06T13:13:50.124Z</time>
      </trkpt>
      <trkpt lat="48.40317" lon="7.31298">
        <ele>627</ele>
        <time>2020-09-06T13:13:51.124Z</time>
      </trkpt>
      <trkpt lat="48.40318" lon="7.313">
        <ele>627</ele>
        <time>2020-09-06T13:13:52.124Z</time>
      </trkpt>
      <trkpt lat="48.40318" lon="7.31301">
        <ele>627</ele>
        <time>2020-09-06T13:13:53.124Z</time>
      </trkpt>
      <trkpt lat="48.40319" lon="7.31302">
        <ele>628</ele>
        <time>2020-09-06T13:13:54.123Z</time>
      </trkpt>
      <trkpt lat="48.40319" lon="7.31304">
        <ele>629</ele>
        <time>2020-09-06T13:13:55.124Z</time>
      </trkpt>
      <trkpt lat="48.4032" lon="7.31305">
        <ele>629</ele>
        <time>2020-09-06T13:13:56.124Z</time>
      </trkpt>
      <trkpt lat="48.4032" lon="7.31306">
        <ele>630</ele>
        <time>2020-09-06T13:13:57.124Z</time>
      </trkpt>
      <trkpt lat="48.40321" lon="7.31308">
        <ele>630</ele>
        <time>2020-09-06T13:13:58.123Z</time>
      </trkpt>
      <trkpt lat="48.40321" lon="7.3131">
        <ele>631</ele>
        <time>2020-09-06T13:13:59.123Z</time>
      </trkpt>
      <trkpt lat="48.40322" lon="7.31311">
        <ele>631</ele>
        <time>2020-09-06T13:14:00.124Z</time>
      </trkpt>
      <trkpt lat="48.40323" lon="7.31313">
        <ele>632</ele>
        <time>2020-09-06T13:14:01.123Z</time>
      </trkpt>
      <trkpt lat="48.40323" lon="7.31314">
        <ele>632</ele>
        <time>2020-09-06T13:14:02.123Z</time>
      </trkpt>
      <trkpt lat="48.40323" lon="7.31316">
        <ele>632</ele>
        <time>2020-09-06T13:14:03.124Z</time>
      </trkpt>
      <trkpt lat="48.40323" lon="7.31317">
        <ele>632</ele>
        <time>2020-09-06T13:14:04.123Z</time>
      </trkpt>
      <trkpt lat="48.40323" lon="7.31318">
        <ele>632</ele>
        <time>2020-09-06T13:14:05.123Z</time>
      </trkpt>
      <trkpt lat="48.40323" lon="7.3132">
        <ele>632</ele>
        <time>2020-09-06T13:14:06.124Z</time>
      </trkpt>
      <trkpt lat="48.40323" lon="7.31322">
        <ele>632</ele>
        <time>2020-09-06T13:14:07.123Z</time>
      </trkpt>
      <trkpt lat="48.40324" lon="7.31326">
        <ele>633</ele>
        <time>2020-09-06T13:14:08.124Z</time>
      </trkpt>
      <trkpt lat="48.40325" lon="7.31329">
        <ele>633</ele>
        <time>2020-09-06T13:14:09.124Z</time>
      </trkpt>
      <trkpt lat="48.40326" lon="7.31331">
        <ele>634</ele>
        <time>2020-09-06T13:14:10.123Z</time>
      </trkpt>
      <trkpt lat="48.40326" lon="7.31333">
        <ele>635</ele>
        <time>2020-09-06T13:14:11.123Z</time>
      </trkpt>
      <trkpt lat="48.40327" lon="7.31336">
        <ele>635</ele>
        <time>2020-09-06T13:14:12.124Z</time>
      </trkpt>
      <trkpt lat="48.40326" lon="7.31338">
        <ele>635</ele>
        <time>2020-09-06T13:14:13.124Z</time>
      </trkpt>
      <trkpt lat="48.40324" lon="7.31338">
        <ele>635</ele>
        <time>2020-09-06T13:14:14.124Z</time>
      </trkpt>
      <trkpt lat="48.40324" lon="7.31339">
        <ele>634</ele>
        <time>2020-09-06T13:14:15.124Z</time>
      </trkpt>
      <trkpt lat="48.40323" lon="7.31341">
        <ele>634</ele>
        <time>2020-09-06T13:14:16.124Z</time>
      </trkpt>
      <trkpt lat="48.40322" lon="7.31342">
        <ele>633</ele>
        <time>2020-09-06T13:14:17.124Z</time>
      </trkpt>
      <trkpt lat="48.40322" lon="7.31343">
        <ele>633</ele>
        <time>2020-09-06T13:14:18.124Z</time>
      </trkpt>
      <trkpt lat="48.40321" lon="7.31343">
        <ele>632</ele>
        <time>2020-09-06T13:14:19.124Z</time>
      </trkpt>
      <trkpt lat="48.40321" lon="7.31344">
        <ele>632</ele>
        <time>2020-09-06T13:14:20.124Z</time>
      </trkpt>
      <trkpt lat="48.40321" lon="7.31345">
        <ele>632</ele>
        <time>2020-09-06T13:14:21.124Z</time>
      </trkpt>
      <trkpt lat="48.40322" lon="7.31346">
        <ele>632</ele>
        <time>2020-09-06T13:14:22.123Z</time>
      </trkpt>
      <trkpt lat="48.40321" lon="7.31347">
        <ele>632</ele>
        <time>2020-09-06T13:14:23.124Z</time>
      </trkpt>
      <trkpt lat="48.40321" lon="7.31349">
        <ele>631</ele>
        <time>2020-09-06T13:14:24.124Z</time>
      </trkpt>
      <trkpt lat="48.4032" lon="7.3135">
        <ele>631</ele>
        <time>2020-09-06T13:14:25.124Z</time>
      </trkpt>
      <trkpt lat="48.4032" lon="7.31352">
        <ele>631</ele>
        <time>2020-09-06T13:14:26.124Z</time>
      </trkpt>
      <trkpt lat="48.4032" lon="7.31353">
        <ele>631</ele>
        <time>2020-09-06T13:14:27.124Z</time>
      </trkpt>
      <trkpt lat="48.40319" lon="7.31355">
        <ele>631</ele>
        <time>2020-09-06T13:14:28.124Z</time>
      </trkpt>
      <trkpt lat="48.40319" lon="7.31357">
        <ele>631</ele>
        <time>2020-09-06T13:14:29.123Z</time>
      </trkpt>
      <trkpt lat="48.40318" lon="7.31359">
        <ele>630</ele>
        <time>2020-09-06T13:14:30.123Z</time>
      </trkpt>
      <trkpt lat="48.40318" lon="7.3136">
        <ele>630</ele>
        <time>2020-09-06T13:14:31.124Z</time>
      </trkpt>
      <trkpt lat="48.40318" lon="7.31362">
        <ele>630</ele>
        <time>2020-09-06T13:14:32.124Z</time>
      </trkpt>
      <trkpt lat="48.40318" lon="7.31364">
        <ele>629</ele>
        <time>2020-09-06T13:14:33.124Z</time>
      </trkpt>
      <trkpt lat="48.40318" lon="7.31367">
        <ele>629</ele>
        <time>2020-09-06T13:14:34.124Z</time>
      </trkpt>
      <trkpt lat="48.40318" lon="7.3137">
        <ele>629</ele>
        <time>2020-09-06T13:14:35.123Z</time>
      </trkpt>
      <trkpt lat="48.40318" lon="7.31374">
        <ele>629</ele>
        <time>2020-09-06T13:14:36.124Z</time>
      </trkpt>
      <trkpt lat="48.40319" lon="7.31377">
        <ele>628</ele>
        <time>2020-09-06T13:14:37.124Z</time>
      </trkpt>
      <trkpt lat="48.4032" lon="7.31379">
        <ele>628</ele>
        <time>2020-09-06T13:14:38.124Z</time>
      </trkpt>
      <trkpt lat="48.40321" lon="7.3138">
        <ele>628</ele>
        <time>2020-09-06T13:14:39.124Z</time>
      </trkpt>
      <trkpt lat="48.4032" lon="7.31382">
        <ele>628</ele>
        <time>2020-09-06T13:14:40.124Z</time>
      </trkpt>
      <trkpt lat="48.4032" lon="7.31384">
        <ele>629</ele>
        <time>2020-09-06T13:14:41.124Z</time>
      </trkpt>
      <trkpt lat="48.40319" lon="7.31386">
        <ele>629</ele>
        <time>2020-09-06T13:14:42.123Z</time>
      </trkpt>
      <trkpt lat="48.40319" lon="7.31387">
        <ele>629</ele>
        <time>2020-09-06T13:14:43.123Z</time>
      </trkpt>
      <trkpt lat="48.40318" lon="7.31389">
        <ele>630</ele>
        <time>2020-09-06T13:14:44.124Z</time>
      </trkpt>
      <trkpt lat="48.40318" lon="7.3139">
        <ele>631</ele>
        <time>2020-09-06T13:14:45.124Z</time>
      </trkpt>
      <trkpt lat="48.40317" lon="7.31392">
        <ele>631</ele>
        <time>2020-09-06T13:14:46.123Z</time>
      </trkpt>
      <trkpt lat="48.40317" lon="7.31393">
        <ele>632</ele>
        <time>2020-09-06T13:14:47.123Z</time>
      </trkpt>
      <trkpt lat="48.40317" lon="7.31395">
        <ele>632</ele>
        <time>2020-09-06T13:14:48.124Z</time>
      </trkpt>
      <trkpt lat="48.40316" lon="7.31396">
        <ele>632</ele>
        <time>2020-09-06T13:14:49.124Z</time>
      </trkpt>
      <trkpt lat="48.40316" lon="7.31397">
        <ele>632</ele>
        <time>2020-09-06T13:14:50.123Z</time>
      </trkpt>
      <trkpt lat="48.40316" lon="7.31399">
        <ele>632</ele>
        <time>2020-09-06T13:14:51.124Z</time>
      </trkpt>
      <trkpt lat="48.40315" lon="7.31401">
        <ele>632</ele>
        <time>2020-09-06T13:14:52.124Z</time>
      </trkpt>
      <trkpt lat="48.40315" lon="7.31402">
        <ele>632</ele>
        <time>2020-09-06T13:14:53.124Z</time>
      </trkpt>
      <trkpt lat="48.40315" lon="7.31404">
        <ele>632</ele>
        <time>2020-09-06T13:14:54.124Z</time>
      </trkpt>
      <trkpt lat="48.40315" lon="7.31406">
        <ele>632</ele>
        <time>2020-09-06T13:14:55.124Z</time>
      </trkpt>
      <trkpt lat="48.40314" lon="7.31408">
        <ele>632</ele>
        <time>2020-09-06T13:14:56.124Z</time>
      </trkpt>
      <trkpt lat="48.40314" lon="7.31409">
        <ele>632</ele>
        <time>2020-09-06T13:14:57.123Z</time>
      </trkpt>
      <trkpt lat="48.40314" lon="7.31411">
        <ele>632</ele>
        <time>2020-09-06T13:14:58.124Z</time>
      </trkpt>
      <trkpt lat="48.40313" lon="7.31413">
        <ele>632</ele>
        <time>2020-09-06T13:14:59.124Z</time>
      </trkpt>
      <trkpt lat="48.40313" lon="7.31415">
        <ele>633</ele>
        <time>2020-09-06T13:15:00.123Z</time>
      </trkpt>
      <trkpt lat="48.40313" lon="7.31417">
        <ele>633</ele>
        <time>2020-09-06T13:15:01.124Z</time>
      </trkpt>
      <trkpt lat="48.40313" lon="7.31419">
        <ele>632</ele>
        <time>2020-09-06T13:15:02.124Z</time>
      </trkpt>
      <trkpt lat="48.40312" lon="7.31421">
        <ele>632</ele>
        <time>2020-09-06T13:15:03.124Z</time>
      </trkpt>
      <trkpt lat="48.40312" lon="7.31422">
        <ele>632</ele>
        <time>2020-09-06T13:15:06.171Z</time>
      </trkpt>
      <trkpt lat="48.40311" lon="7.31424">
        <ele>632</ele>
        <time>2020-09-06T13:15:07.171Z</time>
      </trkpt>
      <trkpt lat="48.40311" lon="7.31425">
        <ele>632</ele>
        <time>2020-09-06T13:15:08.171Z</time>
      </trkpt>
      <trkpt lat="48.4031" lon="7.31427">
        <ele>632</ele>
        <time>2020-09-06T13:15:09.170Z</time>
      </trkpt>
      <trkpt lat="48.4031" lon="7.31429">
        <ele>631</ele>
        <time>2020-09-06T13:15:10.170Z</time>
      </trkpt>
      <trkpt lat="48.4031" lon="7.31431">
        <ele>631</ele>
        <time>2020-09-06T13:15:11.170Z</time>
      </trkpt>
      <trkpt lat="48.40311" lon="7.31433">
        <ele>631</ele>
        <time>2020-09-06T13:15:31.184Z</time>
      </trkpt>
      <trkpt lat="48.40312" lon="7.31434">
        <ele>630</ele>
        <time>2020-09-06T13:15:32.185Z</time>
      </trkpt>
      <trkpt lat="48.40312" lon="7.31435">
        <ele>630</ele>
        <time>2020-09-06T13:15:33.184Z</time>
      </trkpt>
      <trkpt lat="48.40312" lon="7.31437">
        <ele>629</ele>
        <time>2020-09-06T13:15:34.184Z</time>
      </trkpt>
      <trkpt lat="48.40312" lon="7.31438">
        <ele>628</ele>
        <time>2020-09-06T13:15:35.185Z</time>
      </trkpt>
      <trkpt lat="48.40312" lon="7.3144">
        <ele>627</ele>
        <time>2020-09-06T13:15:36.184Z</time>
      </trkpt>
      <trkpt lat="48.40313" lon="7.31441">
        <ele>627</ele>
        <time>2020-09-06T13:15:37.185Z</time>
      </trkpt>
      <trkpt lat="48.40314" lon="7.31443">
        <ele>626</ele>
        <time>2020-09-06T13:15:38.185Z</time>
      </trkpt>
      <trkpt lat="48.40314" lon="7.31444">
        <ele>626</ele>
        <time>2020-09-06T13:15:39.185Z</time>
      </trkpt>
      <trkpt lat="48.40315" lon="7.31445">
        <ele>625</ele>
        <time>2020-09-06T13:15:40.184Z</time>
      </trkpt>
      <trkpt lat="48.40316" lon="7.31446">
        <ele>625</ele>
        <time>2020-09-06T13:15:41.185Z</time>
      </trkpt>
      <trkpt lat="48.40317" lon="7.31447">
        <ele>625</ele>
        <time>2020-09-06T13:15:42.184Z</time>
      </trkpt>
      <trkpt lat="48.40317" lon="7.31449">
        <ele>625</ele>
        <time>2020-09-06T13:15:43.185Z</time>
      </trkpt>
      <trkpt lat="48.40318" lon="7.3145">
        <ele>625</ele>
        <time>2020-09-06T13:15:44.185Z</time>
      </trkpt>
      <trkpt lat="48.40319" lon="7.31451">
        <ele>625</ele>
        <time>2020-09-06T13:15:45.184Z</time>
      </trkpt>
      <trkpt lat="48.4032" lon="7.31452">
        <ele>625</ele>
        <time>2020-09-06T13:15:46.185Z</time>
      </trkpt>
      <trkpt lat="48.40321" lon="7.31453">
        <ele>625</ele>
        <time>2020-09-06T13:15:47.185Z</time>
      </trkpt>
      <trkpt lat="48.40321" lon="7.31454">
        <ele>625</ele>
        <time>2020-09-06T13:15:48.185Z</time>
      </trkpt>
      <trkpt lat="48.40322" lon="7.31455">
        <ele>625</ele>
        <time>2020-09-06T13:15:49.185Z</time>
      </trkpt>
      <trkpt lat="48.40322" lon="7.31456">
        <ele>625</ele>
        <time>2020-09-06T13:15:50.185Z</time>
      </trkpt>
      <trkpt lat="48.40323" lon="7.31457">
        <ele>626</ele>
        <time>2020-09-06T13:15:51.184Z</time>
      </trkpt>
      <trkpt lat="48.40324" lon="7.31458">
        <ele>626</ele>
        <time>2020-09-06T13:15:52.185Z</time>
      </trkpt>
      <trkpt lat="48.40325" lon="7.31459">
        <ele>626</ele>
        <time>2020-09-06T13:15:53.185Z</time>
      </trkpt>
      <trkpt lat="48.40326" lon="7.3146">
        <ele>627</ele>
        <time>2020-09-06T13:15:54.184Z</time>
      </trkpt>
      <trkpt lat="48.40327" lon="7.31462">
        <ele>627</ele>
        <time>2020-09-06T13:15:55.185Z</time>
      </trkpt>
      <trkpt lat="48.40328" lon="7.31463">
        <ele>627</ele>
        <time>2020-09-06T13:15:56.185Z</time>
      </trkpt>
      <trkpt lat="48.40329" lon="7.31464">
        <ele>628</ele>
        <time>2020-09-06T13:15:57.184Z</time>
      </trkpt>
      <trkpt lat="48.4033" lon="7.31465">
        <ele>628</ele>
        <time>2020-09-06T13:15:58.184Z</time>
      </trkpt>
      <trkpt lat="48.40331" lon="7.31467">
        <ele>628</ele>
        <time>2020-09-06T13:15:59.185Z</time>
      </trkpt>
      <trkpt lat="48.40333" lon="7.31468">
        <ele>628</ele>
        <time>2020-09-06T13:16:00.184Z</time>
      </trkpt>
      <trkpt lat="48.40334" lon="7.31468">
        <ele>628</ele>
        <time>2020-09-06T13:16:01.185Z</time>
      </trkpt>
      <trkpt lat="48.40335" lon="7.31469">
        <ele>628</ele>
        <time>2020-09-06T13:16:02.184Z</time>
      </trkpt>
      <trkpt lat="48.40335" lon="7.3147">
        <ele>627</ele>
        <time>2020-09-06T13:16:03.185Z</time>
      </trkpt>
      <trkpt lat="48.40336" lon="7.31471">
        <ele>627</ele>
        <time>2020-09-06T13:16:04.184Z</time>
      </trkpt>
      <trkpt lat="48.40337" lon="7.31472">
        <ele>626</ele>
        <time>2020-09-06T13:16:05.185Z</time>
      </trkpt>
      <trkpt lat="48.40337" lon="7.31473">
        <ele>626</ele>
        <time>2020-09-06T13:16:06.185Z</time>
      </trkpt>
      <trkpt lat="48.40339" lon="7.31473">
        <ele>626</ele>
        <time>2020-09-06T13:16:07.185Z</time>
      </trkpt>
      <trkpt lat="48.40339" lon="7.31474">
        <ele>626</ele>
        <time>2020-09-06T13:16:08.185Z</time>
      </trkpt>
      <trkpt lat="48.4034" lon="7.31475">
        <ele>626</ele>
        <time>2020-09-06T13:16:09.185Z</time>
      </trkpt>
      <trkpt lat="48.40341" lon="7.31476">
        <ele>626</ele>
        <time>2020-09-06T13:16:10.185Z</time>
      </trkpt>
      <trkpt lat="48.40342" lon="7.31477">
        <ele>626</ele>
        <time>2020-09-06T13:16:11.185Z</time>
      </trkpt>
      <trkpt lat="48.40343" lon="7.31479">
        <ele>627</ele>
        <time>2020-09-06T13:16:12.184Z</time>
      </trkpt>
      <trkpt lat="48.40344" lon="7.31479">
        <ele>627</ele>
        <time>2020-09-06T13:16:13.185Z</time>
      </trkpt>
      <trkpt lat="48.40345" lon="7.31481">
        <ele>628</ele>
        <time>2020-09-06T13:16:14.185Z</time>
      </trkpt>
      <trkpt lat="48.40346" lon="7.31483">
        <ele>628</ele>
        <time>2020-09-06T13:16:15.185Z</time>
      </trkpt>
      <trkpt lat="48.40347" lon="7.31485">
        <ele>629</ele>
        <time>2020-09-06T13:16:16.185Z</time>
      </trkpt>
      <trkpt lat="48.40348" lon="7.31486">
        <ele>629</ele>
        <time>2020-09-06T13:16:17.185Z</time>
      </trkpt>
      <trkpt lat="48.40349" lon="7.31487">
        <ele>629</ele>
        <time>2020-09-06T13:16:18.185Z</time>
      </trkpt>
      <trkpt lat="48.4035" lon="7.31488">
        <ele>630</ele>
        <time>2020-09-06T13:16:19.185Z</time>
      </trkpt>
      <trkpt lat="48.40351" lon="7.31489">
        <ele>630</ele>
        <time>2020-09-06T13:16:20.184Z</time>
      </trkpt>
      <trkpt lat="48.40352" lon="7.3149">
        <ele>630</ele>
        <time>2020-09-06T13:16:21.185Z</time>
      </trkpt>
      <trkpt lat="48.40352" lon="7.31491">
        <ele>631</ele>
        <time>2020-09-06T13:16:22.185Z</time>
      </trkpt>
      <trkpt lat="48.40353" lon="7.31492">
        <ele>631</ele>
        <time>2020-09-06T13:16:23.185Z</time>
      </trkpt>
      <trkpt lat="48.40354" lon="7.31494">
        <ele>631</ele>
        <time>2020-09-06T13:16:24.184Z</time>
      </trkpt>
      <trkpt lat="48.40355" lon="7.31494">
        <ele>631</ele>
        <time>2020-09-06T13:16:25.185Z</time>
      </trkpt>
      <trkpt lat="48.40356" lon="7.31495">
        <ele>631</ele>
        <time>2020-09-06T13:16:26.185Z</time>
      </trkpt>
      <trkpt lat="48.40357" lon="7.31497">
        <ele>631</ele>
        <time>2020-09-06T13:16:27.185Z</time>
      </trkpt>
      <trkpt lat="48.40357" lon="7.31498">
        <ele>631</ele>
        <time>2020-09-06T13:16:28.184Z</time>
      </trkpt>
      <trkpt lat="48.40358" lon="7.315">
        <ele>631</ele>
        <time>2020-09-06T13:16:29.185Z</time>
      </trkpt>
      <trkpt lat="48.40359" lon="7.31501">
        <ele>631</ele>
        <time>2020-09-06T13:16:30.185Z</time>
      </trkpt>
      <trkpt lat="48.4036" lon="7.31502">
        <ele>630</ele>
        <time>2020-09-06T13:16:31.185Z</time>
      </trkpt>
      <trkpt lat="48.40361" lon="7.31503">
        <ele>630</ele>
        <time>2020-09-06T13:16:32.185Z</time>
      </trkpt>
      <trkpt lat="48.40361" lon="7.31503">
        <ele>630</ele>
        <time>2020-09-06T13:16:33.185Z</time>
      </trkpt>
      <trkpt lat="48.40362" lon="7.31503">
        <ele>631</ele>
        <time>2020-09-06T13:16:34.185Z</time>
      </trkpt>
      <trkpt lat="48.40363" lon="7.31504">
        <ele>631</ele>
        <time>2020-09-06T13:16:35.185Z</time>
      </trkpt>
      <trkpt lat="48.40364" lon="7.31504">
        <ele>631</ele>
        <time>2020-09-06T13:16:36.185Z</time>
      </trkpt>
      <trkpt lat="48.40365" lon="7.31505">
        <ele>631</ele>
        <time>2020-09-06T13:16:37.184Z</time>
      </trkpt>
      <trkpt lat="48.40366" lon="7.31507">
        <ele>631</ele>
        <time>2020-09-06T13:16:38.185Z</time>
      </trkpt>
      <trkpt lat="48.40368" lon="7.31509">
        <ele>630</ele>
        <time>2020-09-06T13:16:39.185Z</time>
      </trkpt>
      <trkpt lat="48.40369" lon="7.31511">
        <ele>630</ele>
        <time>2020-09-06T13:16:40.185Z</time>
      </trkpt>
      <trkpt lat="48.4037" lon="7.31513">
        <ele>629</ele>
        <time>2020-09-06T13:16:41.185Z</time>
      </trkpt>
      <trkpt lat="48.40371" lon="7.31515">
        <ele>629</ele>
        <time>2020-09-06T13:16:42.184Z</time>
      </trkpt>
      <trkpt lat="48.40372" lon="7.31517">
        <ele>628</ele>
        <time>2020-09-06T13:16:43.185Z</time>
      </trkpt>
      <trkpt lat="48.40373" lon="7.31518">
        <ele>628</ele>
        <time>2020-09-06T13:16:44.185Z</time>
      </trkpt>
      <trkpt lat="48.40373" lon="7.3152">
        <ele>627</ele>
        <time>2020-09-06T13:16:45.185Z</time>
      </trkpt>
      <trkpt lat="48.40374" lon="7.31522">
        <ele>626</ele>
        <time>2020-09-06T13:16:46.185Z</time>
      </trkpt>
      <trkpt lat="48.40374" lon="7.31523">
        <ele>626</ele>
        <time>2020-09-06T13:16:47.185Z</time>
      </trkpt>
      <trkpt lat="48.40375" lon="7.31525">
        <ele>626</ele>
        <time>2020-09-06T13:16:48.185Z</time>
      </trkpt>
      <trkpt lat="48.40376" lon="7.31528">
        <ele>625</ele>
        <time>2020-09-06T13:16:49.185Z</time>
      </trkpt>
      <trkpt lat="48.40376" lon="7.3153">
        <ele>625</ele>
        <time>2020-09-06T13:16:50.185Z</time>
      </trkpt>
      <trkpt lat="48.40377" lon="7.31532">
        <ele>625</ele>
        <time>2020-09-06T13:16:51.185Z</time>
      </trkpt>
      <trkpt lat="48.40378" lon="7.31533">
        <ele>624</ele>
        <time>2020-09-06T13:16:52.185Z</time>
      </trkpt>
      <trkpt lat="48.40378" lon="7.31535">
        <ele>624</ele>
        <time>2020-09-06T13:16:53.185Z</time>
      </trkpt>
      <trkpt lat="48.40378" lon="7.31537">
        <ele>624</ele>
        <time>2020-09-06T13:16:54.185Z</time>
      </trkpt>
      <trkpt lat="48.40378" lon="7.31538">
        <ele>624</ele>
        <time>2020-09-06T13:16:55.184Z</time>
      </trkpt>
      <trkpt lat="48.40379" lon="7.3154">
        <ele>624</ele>
        <time>2020-09-06T13:16:56.185Z</time>
      </trkpt>
      <trkpt lat="48.40379" lon="7.31541">
        <ele>625</ele>
        <time>2020-09-06T13:16:57.185Z</time>
      </trkpt>
      <trkpt lat="48.40379" lon="7.31542">
        <ele>625</ele>
        <time>2020-09-06T13:16:58.185Z</time>
      </trkpt>
      <trkpt lat="48.40379" lon="7.31543">
        <ele>625</ele>
        <time>2020-09-06T13:16:59.185Z</time>
      </trkpt>
      <trkpt lat="48.40379" lon="7.31544">
        <ele>624</ele>
        <time>2020-09-06T13:17:00.185Z</time>
      </trkpt>
      <trkpt lat="48.4038" lon="7.31547">
        <ele>624</ele>
        <time>2020-09-06T13:17:01.185Z</time>
      </trkpt>
      <trkpt lat="48.40379" lon="7.31549">
        <ele>624</ele>
        <time>2020-09-06T13:17:02.185Z</time>
      </trkpt>
      <trkpt lat="48.40379" lon="7.3155">
        <ele>625</ele>
        <time>2020-09-06T13:17:03.185Z</time>
      </trkpt>
      <trkpt lat="48.40378" lon="7.31552">
        <ele>625</ele>
        <time>2020-09-06T13:17:04.185Z</time>
      </trkpt>
      <trkpt lat="48.40378" lon="7.31553">
        <ele>625</ele>
        <time>2020-09-06T13:17:05.185Z</time>
      </trkpt>
      <trkpt lat="48.40376" lon="7.31555">
        <ele>625</ele>
        <time>2020-09-06T13:17:06.185Z</time>
      </trkpt>
      <trkpt lat="48.40375" lon="7.31556">
        <ele>625</ele>
        <time>2020-09-06T13:17:07.185Z</time>
      </trkpt>
      <trkpt lat="48.40373" lon="7.31558">
        <ele>626</ele>
        <time>2020-09-06T13:17:08.185Z</time>
      </trkpt>
      <trkpt lat="48.40373" lon="7.31559">
        <ele>626</ele>
        <time>2020-09-06T13:17:09.185Z</time>
      </trkpt>
      <trkpt lat="48.40372" lon="7.3156">
        <ele>626</ele>
        <time>2020-09-06T13:17:10.185Z</time>
      </trkpt>
      <trkpt lat="48.40371" lon="7.3156">
        <ele>626</ele>
        <time>2020-09-06T13:17:11.185Z</time>
      </trkpt>
      <trkpt lat="48.40369" lon="7.31559">
        <ele>626</ele>
        <time>2020-09-06T13:17:12.185Z</time>
      </trkpt>
      <trkpt lat="48.40367" lon="7.31563">
        <ele>626</ele>
        <time>2020-09-06T13:17:13.186Z</time>
      </trkpt>
      <trkpt lat="48.40367" lon="7.31567">
        <ele>625</ele>
        <time>2020-09-06T13:17:14.186Z</time>
      </trkpt>
      <trkpt lat="48.40367" lon="7.31568">
        <ele>625</ele>
        <time>2020-09-06T13:17:15.187Z</time>
      </trkpt>
      <trkpt lat="48.40367" lon="7.31569">
        <ele>625</ele>
        <time>2020-09-06T13:17:16.187Z</time>
      </trkpt>
      <trkpt lat="48.40367" lon="7.3157">
        <ele>625</ele>
        <time>2020-09-06T13:17:17.187Z</time>
      </trkpt>
      <trkpt lat="48.40366" lon="7.3157">
        <ele>625</ele>
        <time>2020-09-06T13:17:18.186Z</time>
      </trkpt>
      <trkpt lat="48.40365" lon="7.31572">
        <ele>625</ele>
        <time>2020-09-06T13:17:19.187Z</time>
      </trkpt>
      <trkpt lat="48.40364" lon="7.31573">
        <ele>625</ele>
        <time>2020-09-06T13:17:20.186Z</time>
      </trkpt>
      <trkpt lat="48.40364" lon="7.31574">
        <ele>625</ele>
        <time>2020-09-06T13:17:21.187Z</time>
      </trkpt>
      <trkpt lat="48.40363" lon="7.31575">
        <ele>625</ele>
        <time>2020-09-06T13:17:22.186Z</time>
      </trkpt>
      <trkpt lat="48.40363" lon="7.31577">
        <ele>625</ele>
        <time>2020-09-06T13:17:23.187Z</time>
      </trkpt>
      <trkpt lat="48.40362" lon="7.31579">
        <ele>624</ele>
        <time>2020-09-06T13:17:24.186Z</time>
      </trkpt>
      <trkpt lat="48.40362" lon="7.31582">
        <ele>624</ele>
        <time>2020-09-06T13:17:25.187Z</time>
      </trkpt>
      <trkpt lat="48.40361" lon="7.31585">
        <ele>624</ele>
        <time>2020-09-06T13:17:26.187Z</time>
      </trkpt>
      <trkpt lat="48.4036" lon="7.31588">
        <ele>624</ele>
        <time>2020-09-06T13:17:27.187Z</time>
      </trkpt>
      <trkpt lat="48.4036" lon="7.31588">
        <ele>624</ele>
        <time>2020-09-06T13:17:28.187Z</time>
      </trkpt>
      <trkpt lat="48.40359" lon="7.31589">
        <ele>624</ele>
        <time>2020-09-06T13:17:29.187Z</time>
      </trkpt>
      <trkpt lat="48.40359" lon="7.3159">
        <ele>624</ele>
        <time>2020-09-06T13:17:30.187Z</time>
      </trkpt>
      <trkpt lat="48.40358" lon="7.31591">
        <ele>624</ele>
        <time>2020-09-06T13:17:31.186Z</time>
      </trkpt>
      <trkpt lat="48.40357" lon="7.31592">
        <ele>624</ele>
        <time>2020-09-06T13:17:32.187Z</time>
      </trkpt>
      <trkpt lat="48.40356" lon="7.31593">
        <ele>624</ele>
        <time>2020-09-06T13:17:33.187Z</time>
      </trkpt>
      <trkpt lat="48.40356" lon="7.31595">
        <ele>623</ele>
        <time>2020-09-06T13:17:34.187Z</time>
      </trkpt>
      <trkpt lat="48.40355" lon="7.31596">
        <ele>623</ele>
        <time>2020-09-06T13:17:35.187Z</time>
      </trkpt>
      <trkpt lat="48.40354" lon="7.31598">
        <ele>623</ele>
        <time>2020-09-06T13:17:36.187Z</time>
      </trkpt>
      <trkpt lat="48.40353" lon="7.31599">
        <ele>623</ele>
        <time>2020-09-06T13:17:37.186Z</time>
      </trkpt>
      <trkpt lat="48.40352" lon="7.31601">
        <ele>623</ele>
        <time>2020-09-06T13:17:38.187Z</time>
      </trkpt>
      <trkpt lat="48.40352" lon="7.31603">
        <ele>623</ele>
        <time>2020-09-06T13:17:39.187Z</time>
      </trkpt>
      <trkpt lat="48.40351" lon="7.31605">
        <ele>623</ele>
        <time>2020-09-06T13:17:40.186Z</time>
      </trkpt>
      <trkpt lat="48.40351" lon="7.31606">
        <ele>623</ele>
        <time>2020-09-06T13:17:41.187Z</time>
      </trkpt>
      <trkpt lat="48.40351" lon="7.31608">
        <ele>623</ele>
        <time>2020-09-06T13:17:42.187Z</time>
      </trkpt>
      <trkpt lat="48.4035" lon="7.31609">
        <ele>623</ele>
        <time>2020-09-06T13:17:43.186Z</time>
      </trkpt>
      <trkpt lat="48.40348" lon="7.31611">
        <ele>623</ele>
        <time>2020-09-06T13:17:44.186Z</time>
      </trkpt>
      <trkpt lat="48.40348" lon="7.31614">
        <ele>623</ele>
        <time>2020-09-06T13:17:45.187Z</time>
      </trkpt>
      <trkpt lat="48.40346" lon="7.31618">
        <ele>623</ele>
        <time>2020-09-06T13:17:46.187Z</time>
      </trkpt>
      <trkpt lat="48.40345" lon="7.31621">
        <ele>623</ele>
        <time>2020-09-06T13:17:47.187Z</time>
      </trkpt>
      <trkpt lat="48.40344" lon="7.31623">
        <ele>623</ele>
        <time>2020-09-06T13:17:48.187Z</time>
      </trkpt>
      <trkpt lat="48.40344" lon="7.31624">
        <ele>623</ele>
        <time>2020-09-06T13:17:49.187Z</time>
      </trkpt>
      <trkpt lat="48.40343" lon="7.31626">
        <ele>623</ele>
        <time>2020-09-06T13:17:50.187Z</time>
      </trkpt>
      <trkpt lat="48.40342" lon="7.31627">
        <ele>623</ele>
        <time>2020-09-06T13:17:51.187Z</time>
      </trkpt>
      <trkpt lat="48.40342" lon="7.31629">
        <ele>624</ele>
        <time>2020-09-06T13:17:52.187Z</time>
      </trkpt>
      <trkpt lat="48.40342" lon="7.31631">
        <ele>624</ele>
        <time>2020-09-06T13:17:53.186Z</time>
      </trkpt>
      <trkpt lat="48.40341" lon="7.31632">
        <ele>624</ele>
        <time>2020-09-06T13:17:54.187Z</time>
      </trkpt>
      <trkpt lat="48.4034" lon="7.31635">
        <ele>624</ele>
        <time>2020-09-06T13:17:55.186Z</time>
      </trkpt>
      <trkpt lat="48.40339" lon="7.31636">
        <ele>624</ele>
        <time>2020-09-06T13:17:56.187Z</time>
      </trkpt>
      <trkpt lat="48.40339" lon="7.31636">
        <ele>625</ele>
        <time>2020-09-06T13:17:57.186Z</time>
      </trkpt>
      <trkpt lat="48.40339" lon="7.31637">
        <ele>625</ele>
        <time>2020-09-06T13:17:58.186Z</time>
      </trkpt>
      <trkpt lat="48.40339" lon="7.31638">
        <ele>624</ele>
        <time>2020-09-06T13:17:59.187Z</time>
      </trkpt>
      <trkpt lat="48.40338" lon="7.31639">
        <ele>624</ele>
        <time>2020-09-06T13:18:00.186Z</time>
      </trkpt>
      <trkpt lat="48.40338" lon="7.3164">
        <ele>623</ele>
        <time>2020-09-06T13:18:01.187Z</time>
      </trkpt>
      <trkpt lat="48.40337" lon="7.31642">
        <ele>622</ele>
        <time>2020-09-06T13:18:02.187Z</time>
      </trkpt>
      <trkpt lat="48.40337" lon="7.31643">
        <ele>622</ele>
        <time>2020-09-06T13:18:03.187Z</time>
      </trkpt>
      <trkpt lat="48.40336" lon="7.31647">
        <ele>621</ele>
        <time>2020-09-06T13:18:04.187Z</time>
      </trkpt>
      <trkpt lat="48.40335" lon="7.31649">
        <ele>621</ele>
        <time>2020-09-06T13:18:05.187Z</time>
      </trkpt>
      <trkpt lat="48.40334" lon="7.31651">
        <ele>621</ele>
        <time>2020-09-06T13:18:06.187Z</time>
      </trkpt>
      <trkpt lat="48.40334" lon="7.31652">
        <ele>620</ele>
        <time>2020-09-06T13:18:07.186Z</time>
      </trkpt>
      <trkpt lat="48.40334" lon="7.31654">
        <ele>620</ele>
        <time>2020-09-06T13:18:08.186Z</time>
      </trkpt>
      <trkpt lat="48.40333" lon="7.31656">
        <ele>620</ele>
        <time>2020-09-06T13:18:09.187Z</time>
      </trkpt>
      <trkpt lat="48.40332" lon="7.31658">
        <ele>620</ele>
        <time>2020-09-06T13:18:10.187Z</time>
      </trkpt>
      <trkpt lat="48.40331" lon="7.3166">
        <ele>621</ele>
        <time>2020-09-06T13:18:11.187Z</time>
      </trkpt>
      <trkpt lat="48.40331" lon="7.31662">
        <ele>621</ele>
        <time>2020-09-06T13:18:12.186Z</time>
      </trkpt>
      <trkpt lat="48.4033" lon="7.31665">
        <ele>621</ele>
        <time>2020-09-06T13:18:13.186Z</time>
      </trkpt>
      <trkpt lat="48.4033" lon="7.31667">
        <ele>621</ele>
        <time>2020-09-06T13:18:14.187Z</time>
      </trkpt>
      <trkpt lat="48.40329" lon="7.31668">
        <ele>621</ele>
        <time>2020-09-06T13:18:15.187Z</time>
      </trkpt>
      <trkpt lat="48.40329" lon="7.31669">
        <ele>622</ele>
        <time>2020-09-06T13:18:16.187Z</time>
      </trkpt>
      <trkpt lat="48.40329" lon="7.3167">
        <ele>622</ele>
        <time>2020-09-06T13:18:17.187Z</time>
      </trkpt>
      <trkpt lat="48.40329" lon="7.3167">
        <ele>622</ele>
        <time>2020-09-06T13:18:18.187Z</time>
      </trkpt>
      <trkpt lat="48.40329" lon="7.31672">
        <ele>623</ele>
        <time>2020-09-06T13:18:19.187Z</time>
      </trkpt>
      <trkpt lat="48.40329" lon="7.31673">
        <ele>623</ele>
        <time>2020-09-06T13:18:20.187Z</time>
      </trkpt>
      <trkpt lat="48.4033" lon="7.31675">
        <ele>623</ele>
        <time>2020-09-06T13:18:21.187Z</time>
      </trkpt>
      <trkpt lat="48.40331" lon="7.31676">
        <ele>624</ele>
        <time>2020-09-06T13:18:22.187Z</time>
      </trkpt>
      <trkpt lat="48.40332" lon="7.31678">
        <ele>624</ele>
        <time>2020-09-06T13:18:23.186Z</time>
      </trkpt>
      <trkpt lat="48.40332" lon="7.3168">
        <ele>624</ele>
        <time>2020-09-06T13:18:24.186Z</time>
      </trkpt>
      <trkpt lat="48.4033" lon="7.31682">
        <ele>624</ele>
        <time>2020-09-06T13:18:25.186Z</time>
      </trkpt>
      <trkpt lat="48.40329" lon="7.31683">
        <ele>623</ele>
        <time>2020-09-06T13:18:26.187Z</time>
      </trkpt>
      <trkpt lat="48.40328" lon="7.31685">
        <ele>623</ele>
        <time>2020-09-06T13:18:27.187Z</time>
      </trkpt>
      <trkpt lat="48.40328" lon="7.31686">
        <ele>622</ele>
        <time>2020-09-06T13:18:28.186Z</time>
      </trkpt>
      <trkpt lat="48.40328" lon="7.31687">
        <ele>622</ele>
        <time>2020-09-06T13:18:29.187Z</time>
      </trkpt>
      <trkpt lat="48.40328" lon="7.31688">
        <ele>621</ele>
        <time>2020-09-06T13:18:30.186Z</time>
      </trkpt>
      <trkpt lat="48.40328" lon="7.31689">
        <ele>620</ele>
        <time>2020-09-06T13:18:31.187Z</time>
      </trkpt>
      <trkpt lat="48.40328" lon="7.3169">
        <ele>620</ele>
        <time>2020-09-06T13:18:32.187Z</time>
      </trkpt>
      <trkpt lat="48.40328" lon="7.31691">
        <ele>620</ele>
        <time>2020-09-06T13:18:33.186Z</time>
      </trkpt>
      <trkpt lat="48.40328" lon="7.31693">
        <ele>619</ele>
        <time>2020-09-06T13:18:34.187Z</time>
      </trkpt>
      <trkpt lat="48.40327" lon="7.31694">
        <ele>619</ele>
        <time>2020-09-06T13:18:35.187Z</time>
      </trkpt>
      <trkpt lat="48.40327" lon="7.31696">
        <ele>618</ele>
        <time>2020-09-06T13:18:36.187Z</time>
      </trkpt>
      <trkpt lat="48.40326" lon="7.31697">
        <ele>618</ele>
        <time>2020-09-06T13:18:37.186Z</time>
      </trkpt>
      <trkpt lat="48.40326" lon="7.31698">
        <ele>617</ele>
        <time>2020-09-06T13:18:38.187Z</time>
      </trkpt>
      <trkpt lat="48.40326" lon="7.317">
        <ele>616</ele>
        <time>2020-09-06T13:18:39.186Z</time>
      </trkpt>
      <trkpt lat="48.40326" lon="7.31701">
        <ele>616</ele>
        <time>2020-09-06T13:18:40.187Z</time>
      </trkpt>
      <trkpt lat="48.40326" lon="7.31703">
        <ele>616</ele>
        <time>2020-09-06T13:18:41.186Z</time>
      </trkpt>
      <trkpt lat="48.40325" lon="7.31704">
        <ele>616</ele>
        <time>2020-09-06T13:18:42.187Z</time>
      </trkpt>
      <trkpt lat="48.40325" lon="7.31706">
        <ele>616</ele>
        <time>2020-09-06T13:18:43.186Z</time>
      </trkpt>
      <trkpt lat="48.40325" lon="7.31708">
        <ele>616</ele>
        <time>2020-09-06T13:18:44.187Z</time>
      </trkpt>
      <trkpt lat="48.40325" lon="7.3171">
        <ele>616</ele>
        <time>2020-09-06T13:18:45.187Z</time>
      </trkpt>
      <trkpt lat="48.40325" lon="7.31712">
        <ele>616</ele>
        <time>2020-09-06T13:18:46.187Z</time>
      </trkpt>
      <trkpt lat="48.40325" lon="7.31713">
        <ele>616</ele>
        <time>2020-09-06T13:18:47.187Z</time>
      </trkpt>
      <trkpt lat="48.40325" lon="7.31715">
        <ele>616</ele>
        <time>2020-09-06T13:18:48.186Z</time>
      </trkpt>
      <trkpt lat="48.40325" lon="7.31717">
        <ele>616</ele>
        <time>2020-09-06T13:18:49.186Z</time>
      </trkpt>
      <trkpt lat="48.40326" lon="7.31719">
        <ele>616</ele>
        <time>2020-09-06T13:18:50.187Z</time>
      </trkpt>
      <trkpt lat="48.40326" lon="7.31721">
        <ele>616</ele>
        <time>2020-09-06T13:18:51.187Z</time>
      </trkpt>
      <trkpt lat="48.40326" lon="7.31723">
        <ele>616</ele>
        <time>2020-09-06T13:18:52.186Z</time>
      </trkpt>
      <trkpt lat="48.40326" lon="7.31725">
        <ele>615</ele>
        <time>2020-09-06T13:18:53.187Z</time>
      </trkpt>
      <trkpt lat="48.40327" lon="7.31727">
        <ele>615</ele>
        <time>2020-09-06T13:18:54.187Z</time>
      </trkpt>
      <trkpt lat="48.40327" lon="7.31729">
        <ele>615</ele>
        <time>2020-09-06T13:18:55.187Z</time>
      </trkpt>
      <trkpt lat="48.40327" lon="7.31731">
        <ele>615</ele>
        <time>2020-09-06T13:18:56.187Z</time>
      </trkpt>
      <trkpt lat="48.40327" lon="7.31733">
        <ele>615</ele>
        <time>2020-09-06T13:18:57.187Z</time>
      </trkpt>
      <trkpt lat="48.40327" lon="7.31735">
        <ele>615</ele>
        <time>2020-09-06T13:18:58.187Z</time>
      </trkpt>
      <trkpt lat="48.40326" lon="7.31737">
        <ele>615</ele>
        <time>2020-09-06T13:18:59.186Z</time>
      </trkpt>
      <trkpt lat="48.40325" lon="7.31741">
        <ele>615</ele>
        <time>2020-09-06T13:19:00.187Z</time>
      </trkpt>
      <trkpt lat="48.40325" lon="7.31743">
        <ele>616</ele>
        <time>2020-09-06T13:19:01.186Z</time>
      </trkpt>
      <trkpt lat="48.40325" lon="7.31745">
        <ele>616</ele>
        <time>2020-09-06T13:19:02.187Z</time>
      </trkpt>
      <trkpt lat="48.40325" lon="7.31746">
        <ele>615</ele>
        <time>2020-09-06T13:19:03.187Z</time>
      </trkpt>
      <trkpt lat="48.40325" lon="7.31747">
        <ele>615</ele>
        <time>2020-09-06T13:19:04.186Z</time>
      </trkpt>
      <trkpt lat="48.40324" lon="7.31748">
        <ele>614</ele>
        <time>2020-09-06T13:19:05.187Z</time>
      </trkpt>
      <trkpt lat="48.40324" lon="7.3175">
        <ele>613</ele>
        <time>2020-09-06T13:19:06.186Z</time>
      </trkpt>
      <trkpt lat="48.40323" lon="7.3175">
        <ele>613</ele>
        <time>2020-09-06T13:19:07.187Z</time>
      </trkpt>
      <trkpt lat="48.40324" lon="7.3175">
        <ele>612</ele>
        <time>2020-09-06T13:19:08.186Z</time>
      </trkpt>
      <trkpt lat="48.40324" lon="7.3175">
        <ele>612</ele>
        <time>2020-09-06T13:19:09.187Z</time>
      </trkpt>
      <trkpt lat="48.40324" lon="7.31753">
        <ele>609</ele>
        <time>2020-09-06T13:19:10.188Z</time>
      </trkpt>
      <trkpt lat="48.40323" lon="7.31754">
        <ele>609</ele>
        <time>2020-09-06T13:19:11.188Z</time>
      </trkpt>
      <trkpt lat="48.40323" lon="7.31755">
        <ele>610</ele>
        <time>2020-09-06T13:19:12.187Z</time>
      </trkpt>
      <trkpt lat="48.40324" lon="7.31757">
        <ele>610</ele>
        <time>2020-09-06T13:19:13.188Z</time>
      </trkpt>
      <trkpt lat="48.40324" lon="7.31759">
        <ele>610</ele>
        <time>2020-09-06T13:19:14.188Z</time>
      </trkpt>
      <trkpt lat="48.40324" lon="7.3176">
        <ele>610</ele>
        <time>2020-09-06T13:19:15.188Z</time>
      </trkpt>
      <trkpt lat="48.40325" lon="7.31762">
        <ele>611</ele>
        <time>2020-09-06T13:19:16.188Z</time>
      </trkpt>
      <trkpt lat="48.40325" lon="7.31763">
        <ele>611</ele>
        <time>2020-09-06T13:19:17.187Z</time>
      </trkpt>
      <trkpt lat="48.40325" lon="7.31765">
        <ele>611</ele>
        <time>2020-09-06T13:19:18.188Z</time>
      </trkpt>
      <trkpt lat="48.40325" lon="7.31768">
        <ele>612</ele>
        <time>2020-09-06T13:19:19.187Z</time>
      </trkpt>
      <trkpt lat="48.40324" lon="7.31769">
        <ele>613</ele>
        <time>2020-09-06T13:19:20.188Z</time>
      </trkpt>
      <trkpt lat="48.40324" lon="7.31771">
        <ele>613</ele>
        <time>2020-09-06T13:19:21.188Z</time>
      </trkpt>
      <trkpt lat="48.40324" lon="7.31773">
        <ele>614</ele>
        <time>2020-09-06T13:19:22.188Z</time>
      </trkpt>
      <trkpt lat="48.40324" lon="7.31775">
        <ele>614</ele>
        <time>2020-09-06T13:19:23.188Z</time>
      </trkpt>
      <trkpt lat="48.40324" lon="7.31777">
        <ele>615</ele>
        <time>2020-09-06T13:19:24.187Z</time>
      </trkpt>
      <trkpt lat="48.40324" lon="7.31778">
        <ele>615</ele>
        <time>2020-09-06T13:19:25.188Z</time>
      </trkpt>
      <trkpt lat="48.40324" lon="7.3178">
        <ele>615</ele>
        <time>2020-09-06T13:19:26.188Z</time>
      </trkpt>
      <trkpt lat="48.40325" lon="7.31782">
        <ele>615</ele>
        <time>2020-09-06T13:19:27.187Z</time>
      </trkpt>
      <trkpt lat="48.40325" lon="7.31784">
        <ele>615</ele>
        <time>2020-09-06T13:19:28.187Z</time>
      </trkpt>
      <trkpt lat="48.40325" lon="7.31786">
        <ele>615</ele>
        <time>2020-09-06T13:19:29.188Z</time>
      </trkpt>
      <trkpt lat="48.40325" lon="7.31787">
        <ele>614</ele>
        <time>2020-09-06T13:19:30.188Z</time>
      </trkpt>
      <trkpt lat="48.40325" lon="7.31789">
        <ele>614</ele>
        <time>2020-09-06T13:19:31.188Z</time>
      </trkpt>
      <trkpt lat="48.40325" lon="7.3179">
        <ele>614</ele>
        <time>2020-09-06T13:19:32.187Z</time>
      </trkpt>
      <trkpt lat="48.40325" lon="7.31791">
        <ele>614</ele>
        <time>2020-09-06T13:19:33.188Z</time>
      </trkpt>
      <trkpt lat="48.40324" lon="7.31793">
        <ele>614</ele>
        <time>2020-09-06T13:19:34.188Z</time>
      </trkpt>
      <trkpt lat="48.40324" lon="7.31794">
        <ele>614</ele>
        <time>2020-09-06T13:19:35.188Z</time>
      </trkpt>
      <trkpt lat="48.40324" lon="7.31796">
        <ele>614</ele>
        <time>2020-09-06T13:19:36.188Z</time>
      </trkpt>
      <trkpt lat="48.40325" lon="7.31797">
        <ele>614</ele>
        <time>2020-09-06T13:19:37.188Z</time>
      </trkpt>
      <trkpt lat="48.40325" lon="7.31798">
        <ele>614</ele>
        <time>2020-09-06T13:19:38.187Z</time>
      </trkpt>
      <trkpt lat="48.40325" lon="7.31799">
        <ele>614</ele>
        <time>2020-09-06T13:19:39.188Z</time>
      </trkpt>
      <trkpt lat="48.40325" lon="7.31801">
        <ele>614</ele>
        <time>2020-09-06T13:19:40.188Z</time>
      </trkpt>
      <trkpt lat="48.40325" lon="7.31802">
        <ele>614</ele>
        <time>2020-09-06T13:19:41.187Z</time>
      </trkpt>
      <trkpt lat="48.40325" lon="7.31804">
        <ele>613</ele>
        <time>2020-09-06T13:19:42.188Z</time>
      </trkpt>
      <trkpt lat="48.40325" lon="7.31806">
        <ele>613</ele>
        <time>2020-09-06T13:19:43.188Z</time>
      </trkpt>
      <trkpt lat="48.40325" lon="7.31807">
        <ele>613</ele>
        <time>2020-09-06T13:19:44.188Z</time>
      </trkpt>
      <trkpt lat="48.40325" lon="7.31808">
        <ele>613</ele>
        <time>2020-09-06T13:19:45.188Z</time>
      </trkpt>
      <trkpt lat="48.40325" lon="7.3181">
        <ele>613</ele>
        <time>2020-09-06T13:19:46.188Z</time>
      </trkpt>
      <trkpt lat="48.40325" lon="7.31811">
        <ele>613</ele>
        <time>2020-09-06T13:19:47.187Z</time>
      </trkpt>
      <trkpt lat="48.40325" lon="7.31813">
        <ele>614</ele>
        <time>2020-09-06T13:19:48.188Z</time>
      </trkpt>
      <trkpt lat="48.40325" lon="7.31815">
        <ele>613</ele>
        <time>2020-09-06T13:19:49.187Z</time>
      </trkpt>
      <trkpt lat="48.40325" lon="7.31816">
        <ele>613</ele>
        <time>2020-09-06T13:19:50.187Z</time>
      </trkpt>
      <trkpt lat="48.40325" lon="7.31818">
        <ele>613</ele>
        <time>2020-09-06T13:19:51.187Z</time>
      </trkpt>
      <trkpt lat="48.40324" lon="7.31819">
        <ele>612</ele>
        <time>2020-09-06T13:19:52.188Z</time>
      </trkpt>
      <trkpt lat="48.40324" lon="7.31822">
        <ele>611</ele>
        <time>2020-09-06T13:19:53.187Z</time>
      </trkpt>
      <trkpt lat="48.40324" lon="7.31823">
        <ele>611</ele>
        <time>2020-09-06T13:19:54.188Z</time>
      </trkpt>
      <trkpt lat="48.40323" lon="7.31825">
        <ele>610</ele>
        <time>2020-09-06T13:19:56.183Z</time>
      </trkpt>
      <trkpt lat="48.40323" lon="7.31826">
        <ele>609</ele>
        <time>2020-09-06T13:19:57.184Z</time>
      </trkpt>
      <trkpt lat="48.40321" lon="7.31829">
        <ele>608</ele>
        <time>2020-09-06T13:19:58.183Z</time>
      </trkpt>
      <trkpt lat="48.40319" lon="7.31831">
        <ele>608</ele>
        <time>2020-09-06T13:19:59.183Z</time>
      </trkpt>
      <trkpt lat="48.40318" lon="7.31834">
        <ele>607</ele>
        <time>2020-09-06T13:20:00.183Z</time>
      </trkpt>
      <trkpt lat="48.40317" lon="7.31836">
        <ele>607</ele>
        <time>2020-09-06T13:20:01.184Z</time>
      </trkpt>
      <trkpt lat="48.40316" lon="7.31838">
        <ele>606</ele>
        <time>2020-09-06T13:20:02.184Z</time>
      </trkpt>
      <trkpt lat="48.40315" lon="7.3184">
        <ele>606</ele>
        <time>2020-09-06T13:20:03.184Z</time>
      </trkpt>
      <trkpt lat="48.40314" lon="7.31842">
        <ele>606</ele>
        <time>2020-09-06T13:20:04.184Z</time>
      </trkpt>
      <trkpt lat="48.40312" lon="7.31844">
        <ele>606</ele>
        <time>2020-09-06T13:20:05.184Z</time>
      </trkpt>
      <trkpt lat="48.40311" lon="7.31846">
        <ele>606</ele>
        <time>2020-09-06T13:20:06.183Z</time>
      </trkpt>
      <trkpt lat="48.4031" lon="7.31847">
        <ele>606</ele>
        <time>2020-09-06T13:20:07.183Z</time>
      </trkpt>
      <trkpt lat="48.40309" lon="7.31848">
        <ele>606</ele>
        <time>2020-09-06T13:20:08.184Z</time>
      </trkpt>
      <trkpt lat="48.40308" lon="7.3185">
        <ele>606</ele>
        <time>2020-09-06T13:20:09.183Z</time>
      </trkpt>
      <trkpt lat="48.40307" lon="7.31851">
        <ele>607</ele>
        <time>2020-09-06T13:20:10.184Z</time>
      </trkpt>
      <trkpt lat="48.40306" lon="7.31852">
        <ele>607</ele>
        <time>2020-09-06T13:20:11.184Z</time>
      </trkpt>
      <trkpt lat="48.40306" lon="7.31854">
        <ele>607</ele>
        <time>2020-09-06T13:20:12.184Z</time>
      </trkpt>
      <trkpt lat="48.40305" lon="7.31855">
        <ele>607</ele>
        <time>2020-09-06T13:20:13.184Z</time>
      </trkpt>
      <trkpt lat="48.40305" lon="7.31857">
        <ele>608</ele>
        <time>2020-09-06T13:20:14.184Z</time>
      </trkpt>
      <trkpt lat="48.40304" lon="7.31858">
        <ele>608</ele>
        <time>2020-09-06T13:20:15.183Z</time>
      </trkpt>
      <trkpt lat="48.40304" lon="7.3186">
        <ele>608</ele>
        <time>2020-09-06T13:20:16.184Z</time>
      </trkpt>
      <trkpt lat="48.40304" lon="7.3186">
        <ele>608</ele>
        <time>2020-09-06T13:20:17.184Z</time>
      </trkpt>
      <trkpt lat="48.40303" lon="7.31862">
        <ele>608</ele>
        <time>2020-09-06T13:20:18.184Z</time>
      </trkpt>
      <trkpt lat="48.40303" lon="7.31863">
        <ele>608</ele>
        <time>2020-09-06T13:20:19.184Z</time>
      </trkpt>
      <trkpt lat="48.40302" lon="7.31864">
        <ele>607</ele>
        <time>2020-09-06T13:20:20.183Z</time>
      </trkpt>
      <trkpt lat="48.40302" lon="7.31864">
        <ele>607</ele>
        <time>2020-09-06T13:20:21.184Z</time>
      </trkpt>
      <trkpt lat="48.40303" lon="7.31867">
        <ele>606</ele>
        <time>2020-09-06T13:20:22.184Z</time>
      </trkpt>
      <trkpt lat="48.40303" lon="7.3187">
        <ele>605</ele>
        <time>2020-09-06T13:20:23.184Z</time>
      </trkpt>
      <trkpt lat="48.40301" lon="7.31873">
        <ele>605</ele>
        <time>2020-09-06T13:20:24.183Z</time>
      </trkpt>
      <trkpt lat="48.403" lon="7.31874">
        <ele>604</ele>
        <time>2020-09-06T13:20:25.184Z</time>
      </trkpt>
      <trkpt lat="48.40298" lon="7.31876">
        <ele>604</ele>
        <time>2020-09-06T13:20:26.184Z</time>
      </trkpt>
      <trkpt lat="48.40297" lon="7.31878">
        <ele>604</ele>
        <time>2020-09-06T13:20:27.184Z</time>
      </trkpt>
      <trkpt lat="48.40296" lon="7.31878">
        <ele>605</ele>
        <time>2020-09-06T13:20:28.184Z</time>
      </trkpt>
      <trkpt lat="48.40295" lon="7.31879">
        <ele>605</ele>
        <time>2020-09-06T13:20:29.184Z</time>
      </trkpt>
      <trkpt lat="48.40295" lon="7.31879">
        <ele>605</ele>
        <time>2020-09-06T13:20:30.184Z</time>
      </trkpt>
      <trkpt lat="48.40294" lon="7.3188">
        <ele>606</ele>
        <time>2020-09-06T13:20:31.184Z</time>
      </trkpt>
      <trkpt lat="48.40293" lon="7.3188">
        <ele>606</ele>
        <time>2020-09-06T13:20:32.184Z</time>
      </trkpt>
      <trkpt lat="48.40292" lon="7.3188">
        <ele>607</ele>
        <time>2020-09-06T13:20:33.184Z</time>
      </trkpt>
      <trkpt lat="48.40292" lon="7.31881">
        <ele>607</ele>
        <time>2020-09-06T13:20:34.184Z</time>
      </trkpt>
      <trkpt lat="48.40291" lon="7.31881">
        <ele>608</ele>
        <time>2020-09-06T13:20:35.183Z</time>
      </trkpt>
      <trkpt lat="48.4029" lon="7.31881">
        <ele>608</ele>
        <time>2020-09-06T13:20:36.183Z</time>
      </trkpt>
      <trkpt lat="48.4029" lon="7.31881">
        <ele>608</ele>
        <time>2020-09-06T13:20:37.184Z</time>
      </trkpt>
      <trkpt lat="48.40289" lon="7.31881">
        <ele>609</ele>
        <time>2020-09-06T13:20:38.184Z</time>
      </trkpt>
      <trkpt lat="48.40288" lon="7.31881">
        <ele>609</ele>
        <time>2020-09-06T13:20:39.184Z</time>
      </trkpt>
      <trkpt lat="48.40285" lon="7.31884">
        <ele>607</ele>
        <time>2020-09-06T13:20:40.184Z</time>
      </trkpt>
      <trkpt lat="48.40284" lon="7.31884">
        <ele>607</ele>
        <time>2020-09-06T13:20:41.184Z</time>
      </trkpt>
      <trkpt lat="48.40283" lon="7.31884">
        <ele>606</ele>
        <time>2020-09-06T13:20:42.184Z</time>
      </trkpt>
      <trkpt lat="48.4028" lon="7.31885">
        <ele>602</ele>
        <time>2020-09-06T13:20:43.185Z</time>
      </trkpt>
      <trkpt lat="48.4028" lon="7.31885">
        <ele>602</ele>
        <time>2020-09-06T13:20:44.185Z</time>
      </trkpt>
      <trkpt lat="48.40281" lon="7.31883">
        <ele>604</ele>
        <time>2020-09-06T13:20:45.186Z</time>
      </trkpt>
      <trkpt lat="48.40281" lon="7.31883">
        <ele>605</ele>
        <time>2020-09-06T13:20:46.186Z</time>
      </trkpt>
      <trkpt lat="48.40281" lon="7.31883">
        <ele>605</ele>
        <time>2020-09-06T13:20:47.186Z</time>
      </trkpt>
      <trkpt lat="48.40282" lon="7.31883">
        <ele>606</ele>
        <time>2020-09-06T13:20:48.185Z</time>
      </trkpt>
      <trkpt lat="48.40282" lon="7.31883">
        <ele>607</ele>
        <time>2020-09-06T13:20:49.185Z</time>
      </trkpt>
      <trkpt lat="48.40282" lon="7.31886">
        <ele>608</ele>
        <time>2020-09-06T13:20:50.185Z</time>
      </trkpt>
      <trkpt lat="48.40282" lon="7.31887">
        <ele>608</ele>
        <time>2020-09-06T13:20:51.185Z</time>
      </trkpt>
      <trkpt lat="48.40279" lon="7.31869">
        <ele>602</ele>
        <time>2020-09-06T13:20:52.186Z</time>
      </trkpt>
      <trkpt lat="48.4028" lon="7.31868">
        <ele>601</ele>
        <time>2020-09-06T13:20:53.185Z</time>
      </trkpt>
      <trkpt lat="48.4028" lon="7.31867">
        <ele>601</ele>
        <time>2020-09-06T13:20:54.186Z</time>
      </trkpt>
      <trkpt lat="48.4028" lon="7.31867">
        <ele>601</ele>
        <time>2020-09-06T13:20:55.185Z</time>
      </trkpt>
      <trkpt lat="48.4028" lon="7.31866">
        <ele>601</ele>
        <time>2020-09-06T13:20:56.186Z</time>
      </trkpt>
      <trkpt lat="48.40282" lon="7.31863">
        <ele>604</ele>
        <time>2020-09-06T13:20:57.186Z</time>
      </trkpt>
      <trkpt lat="48.40283" lon="7.31863">
        <ele>604</ele>
        <time>2020-09-06T13:20:58.187Z</time>
      </trkpt>
      <trkpt lat="48.40284" lon="7.31863">
        <ele>605</ele>
        <time>2020-09-06T13:20:59.187Z</time>
      </trkpt>
      <trkpt lat="48.40284" lon="7.31863">
        <ele>605</ele>
        <time>2020-09-06T13:21:00.186Z</time>
      </trkpt>
      <trkpt lat="48.40285" lon="7.31863">
        <ele>606</ele>
        <time>2020-09-06T13:21:01.187Z</time>
      </trkpt>
      <trkpt lat="48.40286" lon="7.31863">
        <ele>606</ele>
        <time>2020-09-06T13:21:02.187Z</time>
      </trkpt>
      <trkpt lat="48.40286" lon="7.31864">
        <ele>606</ele>
        <time>2020-09-06T13:21:03.186Z</time>
      </trkpt>
      <trkpt lat="48.40286" lon="7.31864">
        <ele>606</ele>
        <time>2020-09-06T13:21:04.187Z</time>
      </trkpt>
      <trkpt lat="48.40286" lon="7.31865">
        <ele>606</ele>
        <time>2020-09-06T13:21:05.186Z</time>
      </trkpt>
      <trkpt lat="48.40286" lon="7.31866">
        <ele>606</ele>
        <time>2020-09-06T13:21:06.186Z</time>
      </trkpt>
      <trkpt lat="48.40286" lon="7.31866">
        <ele>606</ele>
        <time>2020-09-06T13:21:07.186Z</time>
      </trkpt>
      <trkpt lat="48.40279" lon="7.31891">
        <ele>602</ele>
        <time>2020-09-06T13:21:08.187Z</time>
      </trkpt>
      <trkpt lat="48.40279" lon="7.31894">
        <ele>602</ele>
        <time>2020-09-06T13:21:09.186Z</time>
      </trkpt>
      <trkpt lat="48.40278" lon="7.31897">
        <ele>602</ele>
        <time>2020-09-06T13:21:10.186Z</time>
      </trkpt>
      <trkpt lat="48.40278" lon="7.31899">
        <ele>602</ele>
        <time>2020-09-06T13:21:11.186Z</time>
      </trkpt>
      <trkpt lat="48.40278" lon="7.31902">
        <ele>603</ele>
        <time>2020-09-06T13:21:12.187Z</time>
      </trkpt>
      <trkpt lat="48.40278" lon="7.31905">
        <ele>603</ele>
        <time>2020-09-06T13:21:13.186Z</time>
      </trkpt>
      <trkpt lat="48.40278" lon="7.31907">
        <ele>602</ele>
        <time>2020-09-06T13:21:14.186Z</time>
      </trkpt>
      <trkpt lat="48.40277" lon="7.31908">
        <ele>603</ele>
        <time>2020-09-06T13:21:15.186Z</time>
      </trkpt>
      <trkpt lat="48.40277" lon="7.31909">
        <ele>603</ele>
        <time>2020-09-06T13:21:16.187Z</time>
      </trkpt>
      <trkpt lat="48.40277" lon="7.3191">
        <ele>603</ele>
        <time>2020-09-06T13:21:17.186Z</time>
      </trkpt>
      <trkpt lat="48.40277" lon="7.31911">
        <ele>603</ele>
        <time>2020-09-06T13:21:18.186Z</time>
      </trkpt>
      <trkpt lat="48.40277" lon="7.31912">
        <ele>603</ele>
        <time>2020-09-06T13:21:19.186Z</time>
      </trkpt>
      <trkpt lat="48.40276" lon="7.31913">
        <ele>603</ele>
        <time>2020-09-06T13:21:20.187Z</time>
      </trkpt>
      <trkpt lat="48.40276" lon="7.31915">
        <ele>603</ele>
        <time>2020-09-06T13:21:21.186Z</time>
      </trkpt>
      <trkpt lat="48.40276" lon="7.31916">
        <ele>603</ele>
        <time>2020-09-06T13:21:22.187Z</time>
      </trkpt>
      <trkpt lat="48.40276" lon="7.31917">
        <ele>603</ele>
        <time>2020-09-06T13:21:23.187Z</time>
      </trkpt>
      <trkpt lat="48.40276" lon="7.31918">
        <ele>603</ele>
        <time>2020-09-06T13:21:24.186Z</time>
      </trkpt>
      <trkpt lat="48.40275" lon="7.31918">
        <ele>602</ele>
        <time>2020-09-06T13:21:25.187Z</time>
      </trkpt>
      <trkpt lat="48.40275" lon="7.31919">
        <ele>602</ele>
        <time>2020-09-06T13:21:26.187Z</time>
      </trkpt>
      <trkpt lat="48.40274" lon="7.31921">
        <ele>602</ele>
        <time>2020-09-06T13:21:27.187Z</time>
      </trkpt>
      <trkpt lat="48.40274" lon="7.31922">
        <ele>603</ele>
        <time>2020-09-06T13:21:28.187Z</time>
      </trkpt>
      <trkpt lat="48.40275" lon="7.31923">
        <ele>603</ele>
        <time>2020-09-06T13:21:29.186Z</time>
      </trkpt>
      <trkpt lat="48.40275" lon="7.31925">
        <ele>603</ele>
        <time>2020-09-06T13:21:30.186Z</time>
      </trkpt>
      <trkpt lat="48.40276" lon="7.31926">
        <ele>603</ele>
        <time>2020-09-06T13:21:31.187Z</time>
      </trkpt>
      <trkpt lat="48.40276" lon="7.31928">
        <ele>603</ele>
        <time>2020-09-06T13:21:32.187Z</time>
      </trkpt>
      <trkpt lat="48.40277" lon="7.3193">
        <ele>603</ele>
        <time>2020-09-06T13:21:33.186Z</time>
      </trkpt>
      <trkpt lat="48.40277" lon="7.31932">
        <ele>604</ele>
        <time>2020-09-06T13:21:34.186Z</time>
      </trkpt>
      <trkpt lat="48.40277" lon="7.31933">
        <ele>604</ele>
        <time>2020-09-06T13:21:35.187Z</time>
      </trkpt>
      <trkpt lat="48.40277" lon="7.31934">
        <ele>604</ele>
        <time>2020-09-06T13:21:36.187Z</time>
      </trkpt>
      <trkpt lat="48.40277" lon="7.31936">
        <ele>604</ele>
        <time>2020-09-06T13:21:37.186Z</time>
      </trkpt>
      <trkpt lat="48.40277" lon="7.31938">
        <ele>605</ele>
        <time>2020-09-06T13:21:38.186Z</time>
      </trkpt>
      <trkpt lat="48.40277" lon="7.31939">
        <ele>606</ele>
        <time>2020-09-06T13:21:39.186Z</time>
      </trkpt>
      <trkpt lat="48.40277" lon="7.3194">
        <ele>606</ele>
        <time>2020-09-06T13:21:40.187Z</time>
      </trkpt>
      <trkpt lat="48.40278" lon="7.3194">
        <ele>607</ele>
        <time>2020-09-06T13:21:41.187Z</time>
      </trkpt>
      <trkpt lat="48.40278" lon="7.3194">
        <ele>607</ele>
        <time>2020-09-06T13:21:42.187Z</time>
      </trkpt>
      <trkpt lat="48.40277" lon="7.31941">
        <ele>608</ele>
        <time>2020-09-06T13:21:43.186Z</time>
      </trkpt>
      <trkpt lat="48.40276" lon="7.31942">
        <ele>608</ele>
        <time>2020-09-06T13:21:44.186Z</time>
      </trkpt>
      <trkpt lat="48.40276" lon="7.31943">
        <ele>608</ele>
        <time>2020-09-06T13:21:45.186Z</time>
      </trkpt>
      <trkpt lat="48.40277" lon="7.31944">
        <ele>608</ele>
        <time>2020-09-06T13:21:46.187Z</time>
      </trkpt>
      <trkpt lat="48.40277" lon="7.31944">
        <ele>608</ele>
        <time>2020-09-06T13:21:47.186Z</time>
      </trkpt>
      <trkpt lat="48.40277" lon="7.31945">
        <ele>608</ele>
        <time>2020-09-06T13:21:48.186Z</time>
      </trkpt>
      <trkpt lat="48.40277" lon="7.31946">
        <ele>608</ele>
        <time>2020-09-06T13:21:49.187Z</time>
      </trkpt>
      <trkpt lat="48.40278" lon="7.31947">
        <ele>608</ele>
        <time>2020-09-06T13:21:50.187Z</time>
      </trkpt>
      <trkpt lat="48.40278" lon="7.31947">
        <ele>608</ele>
        <time>2020-09-06T13:21:51.187Z</time>
      </trkpt>
      <trkpt lat="48.40279" lon="7.31949">
        <ele>608</ele>
        <time>2020-09-06T13:21:52.187Z</time>
      </trkpt>
      <trkpt lat="48.40279" lon="7.3195">
        <ele>609</ele>
        <time>2020-09-06T13:21:53.187Z</time>
      </trkpt>
      <trkpt lat="48.40279" lon="7.31951">
        <ele>609</ele>
        <time>2020-09-06T13:21:54.186Z</time>
      </trkpt>
      <trkpt lat="48.40279" lon="7.31953">
        <ele>609</ele>
        <time>2020-09-06T13:21:55.186Z</time>
      </trkpt>
      <trkpt lat="48.40281" lon="7.31955">
        <ele>610</ele>
        <time>2020-09-06T13:21:56.187Z</time>
      </trkpt>
      <trkpt lat="48.40282" lon="7.31956">
        <ele>610</ele>
        <time>2020-09-06T13:21:57.187Z</time>
      </trkpt>
      <trkpt lat="48.40282" lon="7.31958">
        <ele>609</ele>
        <time>2020-09-06T13:21:58.187Z</time>
      </trkpt>
      <trkpt lat="48.40283" lon="7.3196">
        <ele>609</ele>
        <time>2020-09-06T13:21:59.186Z</time>
      </trkpt>
      <trkpt lat="48.40284" lon="7.31962">
        <ele>608</ele>
        <time>2020-09-06T13:22:00.187Z</time>
      </trkpt>
      <trkpt lat="48.40284" lon="7.31963">
        <ele>608</ele>
        <time>2020-09-06T13:22:01.187Z</time>
      </trkpt>
      <trkpt lat="48.40286" lon="7.31964">
        <ele>608</ele>
        <time>2020-09-06T13:22:02.186Z</time>
      </trkpt>
      <trkpt lat="48.40287" lon="7.31965">
        <ele>608</ele>
        <time>2020-09-06T13:22:03.186Z</time>
      </trkpt>
      <trkpt lat="48.40288" lon="7.31966">
        <ele>608</ele>
        <time>2020-09-06T13:22:04.186Z</time>
      </trkpt>
      <trkpt lat="48.40288" lon="7.31967">
        <ele>608</ele>
        <time>2020-09-06T13:22:05.186Z</time>
      </trkpt>
      <trkpt lat="48.40289" lon="7.31969">
        <ele>608</ele>
        <time>2020-09-06T13:22:06.187Z</time>
      </trkpt>
      <trkpt lat="48.4029" lon="7.3197">
        <ele>608</ele>
        <time>2020-09-06T13:22:07.187Z</time>
      </trkpt>
      <trkpt lat="48.40291" lon="7.31971">
        <ele>609</ele>
        <time>2020-09-06T13:22:08.186Z</time>
      </trkpt>
      <trkpt lat="48.40292" lon="7.31972">
        <ele>609</ele>
        <time>2020-09-06T13:22:09.186Z</time>
      </trkpt>
      <trkpt lat="48.40292" lon="7.31973">
        <ele>610</ele>
        <time>2020-09-06T13:22:14.314Z</time>
      </trkpt>
      <trkpt lat="48.40292" lon="7.31974">
        <ele>610</ele>
        <time>2020-09-06T13:22:15.314Z</time>
      </trkpt>
      <trkpt lat="48.40292" lon="7.31975">
        <ele>611</ele>
        <time>2020-09-06T13:22:16.314Z</time>
      </trkpt>
      <trkpt lat="48.40293" lon="7.31977">
        <ele>611</ele>
        <time>2020-09-06T13:22:17.315Z</time>
      </trkpt>
      <trkpt lat="48.40293" lon="7.31978">
        <ele>611</ele>
        <time>2020-09-06T13:22:18.314Z</time>
      </trkpt>
      <trkpt lat="48.40294" lon="7.31979">
        <ele>611</ele>
        <time>2020-09-06T13:22:19.314Z</time>
      </trkpt>
      <trkpt lat="48.40294" lon="7.3198">
        <ele>611</ele>
        <time>2020-09-06T13:22:20.315Z</time>
      </trkpt>
      <trkpt lat="48.40295" lon="7.31982">
        <ele>611</ele>
        <time>2020-09-06T13:22:21.315Z</time>
      </trkpt>
      <trkpt lat="48.40295" lon="7.31983">
        <ele>611</ele>
        <time>2020-09-06T13:22:26.326Z</time>
      </trkpt>
      <trkpt lat="48.40295" lon="7.31985">
        <ele>611</ele>
        <time>2020-09-06T13:22:27.326Z</time>
      </trkpt>
      <trkpt lat="48.40296" lon="7.31986">
        <ele>611</ele>
        <time>2020-09-06T13:25:35.240Z</time>
      </trkpt>
      <trkpt lat="48.40296" lon="7.31988">
        <ele>610</ele>
        <time>2020-09-06T13:25:36.241Z</time>
      </trkpt>
      <trkpt lat="48.40297" lon="7.3199">
        <ele>610</ele>
        <time>2020-09-06T13:25:37.241Z</time>
      </trkpt>
      <trkpt lat="48.40297" lon="7.31991">
        <ele>609</ele>
        <time>2020-09-06T13:25:38.241Z</time>
      </trkpt>
      <trkpt lat="48.40298" lon="7.31992">
        <ele>609</ele>
        <time>2020-09-06T13:25:39.240Z</time>
      </trkpt>
      <trkpt lat="48.40298" lon="7.31994">
        <ele>608</ele>
        <time>2020-09-06T13:25:40.240Z</time>
      </trkpt>
      <trkpt lat="48.40298" lon="7.31996">
        <ele>607</ele>
        <time>2020-09-06T13:25:41.241Z</time>
      </trkpt>
      <trkpt lat="48.40298" lon="7.31997">
        <ele>606</ele>
        <time>2020-09-06T13:25:42.241Z</time>
      </trkpt>
      <trkpt lat="48.40298" lon="7.31999">
        <ele>606</ele>
        <time>2020-09-06T13:25:43.240Z</time>
      </trkpt>
      <trkpt lat="48.40299" lon="7.32">
        <ele>605</ele>
        <time>2020-09-06T13:25:44.241Z</time>
      </trkpt>
      <trkpt lat="48.403" lon="7.32002">
        <ele>604</ele>
        <time>2020-09-06T13:25:45.240Z</time>
      </trkpt>
      <trkpt lat="48.403" lon="7.32003">
        <ele>604</ele>
        <time>2020-09-06T13:25:46.241Z</time>
      </trkpt>
      <trkpt lat="48.40301" lon="7.32005">
        <ele>604</ele>
        <time>2020-09-06T13:25:47.240Z</time>
      </trkpt>
      <trkpt lat="48.40302" lon="7.32006">
        <ele>604</ele>
        <time>2020-09-06T13:25:48.241Z</time>
      </trkpt>
      <trkpt lat="48.40303" lon="7.32006">
        <ele>604</ele>
        <time>2020-09-06T13:25:49.240Z</time>
      </trkpt>
      <trkpt lat="48.40304" lon="7.32007">
        <ele>604</ele>
        <time>2020-09-06T13:25:50.241Z</time>
      </trkpt>
      <trkpt lat="48.40305" lon="7.32008">
        <ele>605</ele>
        <time>2020-09-06T13:25:51.240Z</time>
      </trkpt>
      <trkpt lat="48.40306" lon="7.32008">
        <ele>605</ele>
        <time>2020-09-06T13:25:52.240Z</time>
      </trkpt>
      <trkpt lat="48.40307" lon="7.32009">
        <ele>606</ele>
        <time>2020-09-06T13:25:53.241Z</time>
      </trkpt>
      <trkpt lat="48.40308" lon="7.32009">
        <ele>606</ele>
        <time>2020-09-06T13:25:54.241Z</time>
      </trkpt>
      <trkpt lat="48.40309" lon="7.32011">
        <ele>606</ele>
        <time>2020-09-06T13:25:55.240Z</time>
      </trkpt>
      <trkpt lat="48.40309" lon="7.32012">
        <ele>606</ele>
        <time>2020-09-06T13:25:56.240Z</time>
      </trkpt>
      <trkpt lat="48.40308" lon="7.32013">
        <ele>606</ele>
        <time>2020-09-06T13:25:57.241Z</time>
      </trkpt>
      <trkpt lat="48.40309" lon="7.32015">
        <ele>606</ele>
        <time>2020-09-06T13:25:58.241Z</time>
      </trkpt>
      <trkpt lat="48.4031" lon="7.32016">
        <ele>606</ele>
        <time>2020-09-06T13:25:59.240Z</time>
      </trkpt>
      <trkpt lat="48.4031" lon="7.32017">
        <ele>607</ele>
        <time>2020-09-06T13:26:00.240Z</time>
      </trkpt>
      <trkpt lat="48.40311" lon="7.32018">
        <ele>607</ele>
        <time>2020-09-06T13:26:01.241Z</time>
      </trkpt>
      <trkpt lat="48.40312" lon="7.32018">
        <ele>607</ele>
        <time>2020-09-06T13:26:02.240Z</time>
      </trkpt>
      <trkpt lat="48.40313" lon="7.32019">
        <ele>607</ele>
        <time>2020-09-06T13:26:03.240Z</time>
      </trkpt>
      <trkpt lat="48.40314" lon="7.3202">
        <ele>608</ele>
        <time>2020-09-06T13:26:04.241Z</time>
      </trkpt>
      <trkpt lat="48.40315" lon="7.3202">
        <ele>608</ele>
        <time>2020-09-06T13:26:05.240Z</time>
      </trkpt>
      <trkpt lat="48.40316" lon="7.32021">
        <ele>608</ele>
        <time>2020-09-06T13:26:06.241Z</time>
      </trkpt>
      <trkpt lat="48.40317" lon="7.32021">
        <ele>609</ele>
        <time>2020-09-06T13:26:07.240Z</time>
      </trkpt>
      <trkpt lat="48.40319" lon="7.32022">
        <ele>609</ele>
        <time>2020-09-06T13:26:08.241Z</time>
      </trkpt>
      <trkpt lat="48.4032" lon="7.32022">
        <ele>610</ele>
        <time>2020-09-06T13:26:09.241Z</time>
      </trkpt>
      <trkpt lat="48.40321" lon="7.32022">
        <ele>610</ele>
        <time>2020-09-06T13:26:10.241Z</time>
      </trkpt>
      <trkpt lat="48.40322" lon="7.32022">
        <ele>611</ele>
        <time>2020-09-06T13:26:11.241Z</time>
      </trkpt>
      <trkpt lat="48.40323" lon="7.32022">
        <ele>611</ele>
        <time>2020-09-06T13:26:12.241Z</time>
      </trkpt>
      <trkpt lat="48.40324" lon="7.32022">
        <ele>612</ele>
        <time>2020-09-06T13:26:13.241Z</time>
      </trkpt>
      <trkpt lat="48.40325" lon="7.32022">
        <ele>612</ele>
        <time>2020-09-06T13:26:14.241Z</time>
      </trkpt>
      <trkpt lat="48.40325" lon="7.32021">
        <ele>612</ele>
        <time>2020-09-06T13:26:15.241Z</time>
      </trkpt>
      <trkpt lat="48.40326" lon="7.32022">
        <ele>612</ele>
        <time>2020-09-06T13:26:16.241Z</time>
      </trkpt>
      <trkpt lat="48.40327" lon="7.32023">
        <ele>612</ele>
        <time>2020-09-06T13:26:17.241Z</time>
      </trkpt>
      <trkpt lat="48.40327" lon="7.32023">
        <ele>612</ele>
        <time>2020-09-06T13:26:18.241Z</time>
      </trkpt>
      <trkpt lat="48.40328" lon="7.32024">
        <ele>612</ele>
        <time>2020-09-06T13:26:19.241Z</time>
      </trkpt>
      <trkpt lat="48.40329" lon="7.32024">
        <ele>612</ele>
        <time>2020-09-06T13:26:20.240Z</time>
      </trkpt>
      <trkpt lat="48.4033" lon="7.32024">
        <ele>611</ele>
        <time>2020-09-06T13:26:21.240Z</time>
      </trkpt>
      <trkpt lat="48.40331" lon="7.32025">
        <ele>611</ele>
        <time>2020-09-06T13:26:22.241Z</time>
      </trkpt>
      <trkpt lat="48.40331" lon="7.32025">
        <ele>611</ele>
        <time>2020-09-06T13:26:23.241Z</time>
      </trkpt>
      <trkpt lat="48.40332" lon="7.32026">
        <ele>611</ele>
        <time>2020-09-06T13:26:24.241Z</time>
      </trkpt>
      <trkpt lat="48.40333" lon="7.32026">
        <ele>611</ele>
        <time>2020-09-06T13:26:25.240Z</time>
      </trkpt>
      <trkpt lat="48.40335" lon="7.32026">
        <ele>611</ele>
        <time>2020-09-06T13:26:26.241Z</time>
      </trkpt>
      <trkpt lat="48.40336" lon="7.32026">
        <ele>612</ele>
        <time>2020-09-06T13:26:27.241Z</time>
      </trkpt>
      <trkpt lat="48.40337" lon="7.32026">
        <ele>612</ele>
        <time>2020-09-06T13:26:28.241Z</time>
      </trkpt>
      <trkpt lat="48.40339" lon="7.32025">
        <ele>612</ele>
        <time>2020-09-06T13:26:29.240Z</time>
      </trkpt>
      <trkpt lat="48.40341" lon="7.32026">
        <ele>612</ele>
        <time>2020-09-06T13:26:30.241Z</time>
      </trkpt>
      <trkpt lat="48.40342" lon="7.32026">
        <ele>612</ele>
        <time>2020-09-06T13:26:31.241Z</time>
      </trkpt>
      <trkpt lat="48.40342" lon="7.32026">
        <ele>611</ele>
        <time>2020-09-06T13:26:32.240Z</time>
      </trkpt>
      <trkpt lat="48.40343" lon="7.32026">
        <ele>611</ele>
        <time>2020-09-06T13:26:33.240Z</time>
      </trkpt>
      <trkpt lat="48.40345" lon="7.32025">
        <ele>610</ele>
        <time>2020-09-06T13:26:34.241Z</time>
      </trkpt>
      <trkpt lat="48.40346" lon="7.32025">
        <ele>610</ele>
        <time>2020-09-06T13:26:35.241Z</time>
      </trkpt>
      <trkpt lat="48.40347" lon="7.32024">
        <ele>609</ele>
        <time>2020-09-06T13:26:36.241Z</time>
      </trkpt>
      <trkpt lat="48.40348" lon="7.32024">
        <ele>608</ele>
        <time>2020-09-06T13:26:37.240Z</time>
      </trkpt>
      <trkpt lat="48.40349" lon="7.32025">
        <ele>608</ele>
        <time>2020-09-06T13:26:38.240Z</time>
      </trkpt>
      <trkpt lat="48.4035" lon="7.32025">
        <ele>607</ele>
        <time>2020-09-06T13:26:39.241Z</time>
      </trkpt>
      <trkpt lat="48.40351" lon="7.32025">
        <ele>607</ele>
        <time>2020-09-06T13:26:40.240Z</time>
      </trkpt>
      <trkpt lat="48.40353" lon="7.32026">
        <ele>607</ele>
        <time>2020-09-06T13:26:41.240Z</time>
      </trkpt>
      <trkpt lat="48.40354" lon="7.32026">
        <ele>606</ele>
        <time>2020-09-06T13:26:42.241Z</time>
      </trkpt>
      <trkpt lat="48.40355" lon="7.32027">
        <ele>606</ele>
        <time>2020-09-06T13:26:43.241Z</time>
      </trkpt>
      <trkpt lat="48.40356" lon="7.32027">
        <ele>605</ele>
        <time>2020-09-06T13:26:44.241Z</time>
      </trkpt>
      <trkpt lat="48.40357" lon="7.32027">
        <ele>605</ele>
        <time>2020-09-06T13:26:45.240Z</time>
      </trkpt>
      <trkpt lat="48.40358" lon="7.32027">
        <ele>604</ele>
        <time>2020-09-06T13:26:46.241Z</time>
      </trkpt>
      <trkpt lat="48.40359" lon="7.32026">
        <ele>604</ele>
        <time>2020-09-06T13:26:47.241Z</time>
      </trkpt>
      <trkpt lat="48.40359" lon="7.32026">
        <ele>603</ele>
        <time>2020-09-06T13:26:48.241Z</time>
      </trkpt>
      <trkpt lat="48.4036" lon="7.32026">
        <ele>603</ele>
        <time>2020-09-06T13:26:49.241Z</time>
      </trkpt>
      <trkpt lat="48.40361" lon="7.32025">
        <ele>603</ele>
        <time>2020-09-06T13:26:50.240Z</time>
      </trkpt>
      <trkpt lat="48.40363" lon="7.32027">
        <ele>604</ele>
        <time>2020-09-06T13:26:51.241Z</time>
      </trkpt>
      <trkpt lat="48.40364" lon="7.32026">
        <ele>604</ele>
        <time>2020-09-06T13:26:52.241Z</time>
      </trkpt>
      <trkpt lat="48.40365" lon="7.32026">
        <ele>604</ele>
        <time>2020-09-06T13:26:53.241Z</time>
      </trkpt>
      <trkpt lat="48.40366" lon="7.32026">
        <ele>604</ele>
        <time>2020-09-06T13:26:54.240Z</time>
      </trkpt>
      <trkpt lat="48.40367" lon="7.32027">
        <ele>604</ele>
        <time>2020-09-06T13:26:55.241Z</time>
      </trkpt>
      <trkpt lat="48.40369" lon="7.32027">
        <ele>605</ele>
        <time>2020-09-06T13:26:56.241Z</time>
      </trkpt>
      <trkpt lat="48.40371" lon="7.32028">
        <ele>605</ele>
        <time>2020-09-06T13:26:57.241Z</time>
      </trkpt>
      <trkpt lat="48.40372" lon="7.32029">
        <ele>605</ele>
        <time>2020-09-06T13:26:58.240Z</time>
      </trkpt>
      <trkpt lat="48.40373" lon="7.3203">
        <ele>605</ele>
        <time>2020-09-06T13:26:59.241Z</time>
      </trkpt>
      <trkpt lat="48.40375" lon="7.3203">
        <ele>604</ele>
        <time>2020-09-06T13:27:00.241Z</time>
      </trkpt>
      <trkpt lat="48.40376" lon="7.32031">
        <ele>604</ele>
        <time>2020-09-06T13:27:01.240Z</time>
      </trkpt>
      <trkpt lat="48.40376" lon="7.32031">
        <ele>604</ele>
        <time>2020-09-06T13:27:02.241Z</time>
      </trkpt>
      <trkpt lat="48.40377" lon="7.32031">
        <ele>603</ele>
        <time>2020-09-06T13:27:03.240Z</time>
      </trkpt>
      <trkpt lat="48.40378" lon="7.32032">
        <ele>603</ele>
        <time>2020-09-06T13:27:04.241Z</time>
      </trkpt>
      <trkpt lat="48.40379" lon="7.32032">
        <ele>603</ele>
        <time>2020-09-06T13:27:05.240Z</time>
      </trkpt>
      <trkpt lat="48.40379" lon="7.32032">
        <ele>602</ele>
        <time>2020-09-06T13:27:06.240Z</time>
      </trkpt>
      <trkpt lat="48.4038" lon="7.32032">
        <ele>602</ele>
        <time>2020-09-06T13:27:07.241Z</time>
      </trkpt>
      <trkpt lat="48.40381" lon="7.32033">
        <ele>602</ele>
        <time>2020-09-06T13:27:08.241Z</time>
      </trkpt>
      <trkpt lat="48.40382" lon="7.32033">
        <ele>602</ele>
        <time>2020-09-06T13:27:09.241Z</time>
      </trkpt>
      <trkpt lat="48.40383" lon="7.32033">
        <ele>602</ele>
        <time>2020-09-06T13:27:10.240Z</time>
      </trkpt>
      <trkpt lat="48.40383" lon="7.32034">
        <ele>602</ele>
        <time>2020-09-06T13:27:11.240Z</time>
      </trkpt>
      <trkpt lat="48.40384" lon="7.32035">
        <ele>601</ele>
        <time>2020-09-06T13:27:12.241Z</time>
      </trkpt>
      <trkpt lat="48.40385" lon="7.32034">
        <ele>601</ele>
        <time>2020-09-06T13:27:13.241Z</time>
      </trkpt>
      <trkpt lat="48.40386" lon="7.32034">
        <ele>601</ele>
        <time>2020-09-06T13:27:14.240Z</time>
      </trkpt>
      <trkpt lat="48.40388" lon="7.32035">
        <ele>601</ele>
        <time>2020-09-06T13:27:15.241Z</time>
      </trkpt>
      <trkpt lat="48.4039" lon="7.32036">
        <ele>601</ele>
        <time>2020-09-06T13:27:16.241Z</time>
      </trkpt>
      <trkpt lat="48.4039" lon="7.32037">
        <ele>601</ele>
        <time>2020-09-06T13:27:17.241Z</time>
      </trkpt>
      <trkpt lat="48.40391" lon="7.32038">
        <ele>601</ele>
        <time>2020-09-06T13:27:18.240Z</time>
      </trkpt>
      <trkpt lat="48.40392" lon="7.32039">
        <ele>600</ele>
        <time>2020-09-06T13:27:19.241Z</time>
      </trkpt>
      <trkpt lat="48.40392" lon="7.32039">
        <ele>601</ele>
        <time>2020-09-06T13:27:20.241Z</time>
      </trkpt>
      <trkpt lat="48.40393" lon="7.3204">
        <ele>601</ele>
        <time>2020-09-06T13:27:21.240Z</time>
      </trkpt>
      <trkpt lat="48.40395" lon="7.32041">
        <ele>600</ele>
        <time>2020-09-06T13:27:22.240Z</time>
      </trkpt>
      <trkpt lat="48.40396" lon="7.32041">
        <ele>600</ele>
        <time>2020-09-06T13:27:23.240Z</time>
      </trkpt>
      <trkpt lat="48.40397" lon="7.32041">
        <ele>600</ele>
        <time>2020-09-06T13:27:24.241Z</time>
      </trkpt>
      <trkpt lat="48.40398" lon="7.32042">
        <ele>599</ele>
        <time>2020-09-06T13:27:25.241Z</time>
      </trkpt>
      <trkpt lat="48.40399" lon="7.32043">
        <ele>599</ele>
        <time>2020-09-06T13:27:26.241Z</time>
      </trkpt>
      <trkpt lat="48.404" lon="7.32044">
        <ele>598</ele>
        <time>2020-09-06T13:27:27.240Z</time>
      </trkpt>
      <trkpt lat="48.40401" lon="7.32045">
        <ele>598</ele>
        <time>2020-09-06T13:27:28.241Z</time>
      </trkpt>
      <trkpt lat="48.40401" lon="7.32046">
        <ele>597</ele>
        <time>2020-09-06T13:27:29.241Z</time>
      </trkpt>
      <trkpt lat="48.40402" lon="7.32047">
        <ele>597</ele>
        <time>2020-09-06T13:27:30.241Z</time>
      </trkpt>
      <trkpt lat="48.40403" lon="7.32048">
        <ele>597</ele>
        <time>2020-09-06T13:27:31.240Z</time>
      </trkpt>
      <trkpt lat="48.40404" lon="7.32048">
        <ele>596</ele>
        <time>2020-09-06T13:27:32.241Z</time>
      </trkpt>
      <trkpt lat="48.40405" lon="7.32049">
        <ele>596</ele>
        <time>2020-09-06T13:27:33.241Z</time>
      </trkpt>
      <trkpt lat="48.40406" lon="7.3205">
        <ele>596</ele>
        <time>2020-09-06T13:27:34.240Z</time>
      </trkpt>
      <trkpt lat="48.40407" lon="7.3205">
        <ele>596</ele>
        <time>2020-09-06T13:27:35.241Z</time>
      </trkpt>
      <trkpt lat="48.40408" lon="7.32051">
        <ele>597</ele>
        <time>2020-09-06T13:27:36.241Z</time>
      </trkpt>
      <trkpt lat="48.40409" lon="7.32052">
        <ele>597</ele>
        <time>2020-09-06T13:27:37.241Z</time>
      </trkpt>
      <trkpt lat="48.4041" lon="7.32053">
        <ele>597</ele>
        <time>2020-09-06T13:27:38.241Z</time>
      </trkpt>
      <trkpt lat="48.40411" lon="7.32055">
        <ele>597</ele>
        <time>2020-09-06T13:27:39.241Z</time>
      </trkpt>
      <trkpt lat="48.40412" lon="7.32056">
        <ele>597</ele>
        <time>2020-09-06T13:27:40.241Z</time>
      </trkpt>
      <trkpt lat="48.40413" lon="7.32057">
        <ele>597</ele>
        <time>2020-09-06T13:27:41.241Z</time>
      </trkpt>
      <trkpt lat="48.40414" lon="7.32058">
        <ele>597</ele>
        <time>2020-09-06T13:27:42.241Z</time>
      </trkpt>
      <trkpt lat="48.40415" lon="7.32059">
        <ele>597</ele>
        <time>2020-09-06T13:27:43.240Z</time>
      </trkpt>
      <trkpt lat="48.40416" lon="7.3206">
        <ele>597</ele>
        <time>2020-09-06T13:27:44.241Z</time>
      </trkpt>
      <trkpt lat="48.40417" lon="7.32062">
        <ele>597</ele>
        <time>2020-09-06T13:27:45.240Z</time>
      </trkpt>
      <trkpt lat="48.40418" lon="7.32063">
        <ele>597</ele>
        <time>2020-09-06T13:27:46.240Z</time>
      </trkpt>
      <trkpt lat="48.40419" lon="7.32063">
        <ele>597</ele>
        <time>2020-09-06T13:27:47.240Z</time>
      </trkpt>
      <trkpt lat="48.40421" lon="7.32064">
        <ele>597</ele>
        <time>2020-09-06T13:27:48.241Z</time>
      </trkpt>
      <trkpt lat="48.40422" lon="7.32066">
        <ele>598</ele>
        <time>2020-09-06T13:27:49.241Z</time>
      </trkpt>
      <trkpt lat="48.40423" lon="7.32066">
        <ele>599</ele>
        <time>2020-09-06T13:27:50.241Z</time>
      </trkpt>
      <trkpt lat="48.40423" lon="7.32067">
        <ele>599</ele>
        <time>2020-09-06T13:27:51.240Z</time>
      </trkpt>
      <trkpt lat="48.40423" lon="7.32068">
        <ele>599</ele>
        <time>2020-09-06T13:27:52.240Z</time>
      </trkpt>
      <trkpt lat="48.40423" lon="7.32069">
        <ele>600</ele>
        <time>2020-09-06T13:27:53.241Z</time>
      </trkpt>
      <trkpt lat="48.40425" lon="7.32072">
        <ele>600</ele>
        <time>2020-09-06T13:27:54.242Z</time>
      </trkpt>
      <trkpt lat="48.40426" lon="7.32072">
        <ele>600</ele>
        <time>2020-09-06T13:27:55.241Z</time>
      </trkpt>
      <trkpt lat="48.40427" lon="7.32071">
        <ele>600</ele>
        <time>2020-09-06T13:27:56.241Z</time>
      </trkpt>
      <trkpt lat="48.40429" lon="7.3207">
        <ele>600</ele>
        <time>2020-09-06T13:27:57.242Z</time>
      </trkpt>
      <trkpt lat="48.4043" lon="7.32069">
        <ele>600</ele>
        <time>2020-09-06T13:27:58.242Z</time>
      </trkpt>
      <trkpt lat="48.40432" lon="7.32068">
        <ele>600</ele>
        <time>2020-09-06T13:27:59.242Z</time>
      </trkpt>
      <trkpt lat="48.40433" lon="7.32068">
        <ele>600</ele>
        <time>2020-09-06T13:28:00.242Z</time>
      </trkpt>
      <trkpt lat="48.40434" lon="7.32068">
        <ele>600</ele>
        <time>2020-09-06T13:28:01.242Z</time>
      </trkpt>
      <trkpt lat="48.40436" lon="7.32068">
        <ele>600</ele>
        <time>2020-09-06T13:28:02.242Z</time>
      </trkpt>
      <trkpt lat="48.40437" lon="7.32068">
        <ele>600</ele>
        <time>2020-09-06T13:28:03.242Z</time>
      </trkpt>
      <trkpt lat="48.40438" lon="7.32069">
        <ele>601</ele>
        <time>2020-09-06T13:28:04.242Z</time>
      </trkpt>
      <trkpt lat="48.40439" lon="7.32069">
        <ele>601</ele>
        <time>2020-09-06T13:28:05.242Z</time>
      </trkpt>
      <trkpt lat="48.40439" lon="7.32069">
        <ele>602</ele>
        <time>2020-09-06T13:28:06.242Z</time>
      </trkpt>
      <trkpt lat="48.40441" lon="7.3207">
        <ele>602</ele>
        <time>2020-09-06T13:28:07.242Z</time>
      </trkpt>
      <trkpt lat="48.40442" lon="7.32071">
        <ele>603</ele>
        <time>2020-09-06T13:28:08.242Z</time>
      </trkpt>
      <trkpt lat="48.40443" lon="7.32072">
        <ele>604</ele>
        <time>2020-09-06T13:28:09.242Z</time>
      </trkpt>
      <trkpt lat="48.40444" lon="7.32073">
        <ele>604</ele>
        <time>2020-09-06T13:28:10.242Z</time>
      </trkpt>
      <trkpt lat="48.40445" lon="7.32074">
        <ele>605</ele>
        <time>2020-09-06T13:28:11.241Z</time>
      </trkpt>
      <trkpt lat="48.40445" lon="7.32074">
        <ele>605</ele>
        <time>2020-09-06T13:28:12.242Z</time>
      </trkpt>
      <trkpt lat="48.40447" lon="7.32075">
        <ele>606</ele>
        <time>2020-09-06T13:28:13.242Z</time>
      </trkpt>
      <trkpt lat="48.40449" lon="7.32076">
        <ele>606</ele>
        <time>2020-09-06T13:28:14.242Z</time>
      </trkpt>
      <trkpt lat="48.4045" lon="7.32076">
        <ele>606</ele>
        <time>2020-09-06T13:28:15.241Z</time>
      </trkpt>
      <trkpt lat="48.40451" lon="7.32077">
        <ele>607</ele>
        <time>2020-09-06T13:28:16.241Z</time>
      </trkpt>
      <trkpt lat="48.40452" lon="7.32078">
        <ele>607</ele>
        <time>2020-09-06T13:28:17.241Z</time>
      </trkpt>
      <trkpt lat="48.40452" lon="7.32079">
        <ele>607</ele>
        <time>2020-09-06T13:28:18.242Z</time>
      </trkpt>
      <trkpt lat="48.40453" lon="7.32081">
        <ele>607</ele>
        <time>2020-09-06T13:28:19.242Z</time>
      </trkpt>
      <trkpt lat="48.40454" lon="7.32082">
        <ele>607</ele>
        <time>2020-09-06T13:28:20.242Z</time>
      </trkpt>
      <trkpt lat="48.40455" lon="7.32084">
        <ele>607</ele>
        <time>2020-09-06T13:28:21.242Z</time>
      </trkpt>
      <trkpt lat="48.40456" lon="7.32085">
        <ele>607</ele>
        <time>2020-09-06T13:28:22.242Z</time>
      </trkpt>
      <trkpt lat="48.40457" lon="7.32087">
        <ele>607</ele>
        <time>2020-09-06T13:28:23.242Z</time>
      </trkpt>
      <trkpt lat="48.40458" lon="7.32088">
        <ele>607</ele>
        <time>2020-09-06T13:28:24.242Z</time>
      </trkpt>
      <trkpt lat="48.40459" lon="7.3209">
        <ele>607</ele>
        <time>2020-09-06T13:28:25.242Z</time>
      </trkpt>
      <trkpt lat="48.4046" lon="7.32091">
        <ele>607</ele>
        <time>2020-09-06T13:28:26.242Z</time>
      </trkpt>
      <trkpt lat="48.4046" lon="7.32093">
        <ele>607</ele>
        <time>2020-09-06T13:28:27.242Z</time>
      </trkpt>
      <trkpt lat="48.40461" lon="7.32095">
        <ele>608</ele>
        <time>2020-09-06T13:28:28.241Z</time>
      </trkpt>
      <trkpt lat="48.40462" lon="7.32097">
        <ele>608</ele>
        <time>2020-09-06T13:28:29.242Z</time>
      </trkpt>
      <trkpt lat="48.40463" lon="7.32099">
        <ele>608</ele>
        <time>2020-09-06T13:28:30.242Z</time>
      </trkpt>
      <trkpt lat="48.40463" lon="7.32101">
        <ele>609</ele>
        <time>2020-09-06T13:28:31.242Z</time>
      </trkpt>
      <trkpt lat="48.40463" lon="7.32103">
        <ele>608</ele>
        <time>2020-09-06T13:28:32.242Z</time>
      </trkpt>
      <trkpt lat="48.40463" lon="7.32104">
        <ele>608</ele>
        <time>2020-09-06T13:28:33.242Z</time>
      </trkpt>
      <trkpt lat="48.40463" lon="7.32106">
        <ele>607</ele>
        <time>2020-09-06T13:28:34.242Z</time>
      </trkpt>
      <trkpt lat="48.40463" lon="7.32108">
        <ele>606</ele>
        <time>2020-09-06T13:28:35.242Z</time>
      </trkpt>
      <trkpt lat="48.40463" lon="7.3211">
        <ele>605</ele>
        <time>2020-09-06T13:28:36.242Z</time>
      </trkpt>
      <trkpt lat="48.40463" lon="7.32112">
        <ele>605</ele>
        <time>2020-09-06T13:28:37.241Z</time>
      </trkpt>
      <trkpt lat="48.40463" lon="7.32113">
        <ele>604</ele>
        <time>2020-09-06T13:28:38.242Z</time>
      </trkpt>
      <trkpt lat="48.40463" lon="7.32115">
        <ele>604</ele>
        <time>2020-09-06T13:28:39.242Z</time>
      </trkpt>
      <trkpt lat="48.40463" lon="7.32117">
        <ele>604</ele>
        <time>2020-09-06T13:28:40.242Z</time>
      </trkpt>
      <trkpt lat="48.40462" lon="7.32121">
        <ele>604</ele>
        <time>2020-09-06T13:28:41.242Z</time>
      </trkpt>
      <trkpt lat="48.40462" lon="7.32125">
        <ele>604</ele>
        <time>2020-09-06T13:28:42.241Z</time>
      </trkpt>
      <trkpt lat="48.40462" lon="7.32128">
        <ele>604</ele>
        <time>2020-09-06T13:28:43.242Z</time>
      </trkpt>
      <trkpt lat="48.40461" lon="7.3213">
        <ele>604</ele>
        <time>2020-09-06T13:28:44.242Z</time>
      </trkpt>
      <trkpt lat="48.40461" lon="7.32131">
        <ele>604</ele>
        <time>2020-09-06T13:28:45.241Z</time>
      </trkpt>
      <trkpt lat="48.40461" lon="7.32132">
        <ele>604</ele>
        <time>2020-09-06T13:28:46.242Z</time>
      </trkpt>
      <trkpt lat="48.40461" lon="7.32134">
        <ele>604</ele>
        <time>2020-09-06T13:28:47.241Z</time>
      </trkpt>
      <trkpt lat="48.40461" lon="7.32136">
        <ele>604</ele>
        <time>2020-09-06T13:28:48.241Z</time>
      </trkpt>
      <trkpt lat="48.40461" lon="7.32138">
        <ele>604</ele>
        <time>2020-09-06T13:28:49.242Z</time>
      </trkpt>
      <trkpt lat="48.40461" lon="7.32139">
        <ele>604</ele>
        <time>2020-09-06T13:28:50.242Z</time>
      </trkpt>
      <trkpt lat="48.40461" lon="7.32141">
        <ele>604</ele>
        <time>2020-09-06T13:28:51.242Z</time>
      </trkpt>
      <trkpt lat="48.40461" lon="7.32143">
        <ele>604</ele>
        <time>2020-09-06T13:28:52.242Z</time>
      </trkpt>
      <trkpt lat="48.40461" lon="7.32144">
        <ele>605</ele>
        <time>2020-09-06T13:28:53.242Z</time>
      </trkpt>
      <trkpt lat="48.40461" lon="7.32145">
        <ele>606</ele>
        <time>2020-09-06T13:28:54.242Z</time>
      </trkpt>
      <trkpt lat="48.40461" lon="7.32147">
        <ele>606</ele>
        <time>2020-09-06T13:28:55.242Z</time>
      </trkpt>
      <trkpt lat="48.40461" lon="7.32149">
        <ele>607</ele>
        <time>2020-09-06T13:28:56.242Z</time>
      </trkpt>
      <trkpt lat="48.40462" lon="7.32151">
        <ele>607</ele>
        <time>2020-09-06T13:28:57.242Z</time>
      </trkpt>
      <trkpt lat="48.40463" lon="7.32154">
        <ele>608</ele>
        <time>2020-09-06T13:28:58.242Z</time>
      </trkpt>
      <trkpt lat="48.40465" lon="7.32157">
        <ele>608</ele>
        <time>2020-09-06T13:28:59.241Z</time>
      </trkpt>
      <trkpt lat="48.40466" lon="7.3216">
        <ele>609</ele>
        <time>2020-09-06T13:29:00.242Z</time>
      </trkpt>
      <trkpt lat="48.40467" lon="7.32162">
        <ele>609</ele>
        <time>2020-09-06T13:29:01.242Z</time>
      </trkpt>
      <trkpt lat="48.40468" lon="7.32164">
        <ele>609</ele>
        <time>2020-09-06T13:29:02.241Z</time>
      </trkpt>
      <trkpt lat="48.40468" lon="7.32164">
        <ele>609</ele>
        <time>2020-09-06T13:29:03.242Z</time>
      </trkpt>
      <trkpt lat="48.40469" lon="7.32165">
        <ele>609</ele>
        <time>2020-09-06T13:29:04.242Z</time>
      </trkpt>
      <trkpt lat="48.40471" lon="7.32165">
        <ele>610</ele>
        <time>2020-09-06T13:29:05.242Z</time>
      </trkpt>
      <trkpt lat="48.40471" lon="7.32166">
        <ele>610</ele>
        <time>2020-09-06T13:29:06.242Z</time>
      </trkpt>
      <trkpt lat="48.40472" lon="7.32167">
        <ele>610</ele>
        <time>2020-09-06T13:29:07.242Z</time>
      </trkpt>
      <trkpt lat="48.40473" lon="7.32168">
        <ele>610</ele>
        <time>2020-09-06T13:29:08.242Z</time>
      </trkpt>
      <trkpt lat="48.40474" lon="7.32168">
        <ele>611</ele>
        <time>2020-09-06T13:29:09.242Z</time>
      </trkpt>
      <trkpt lat="48.40475" lon="7.32169">
        <ele>610</ele>
        <time>2020-09-06T13:29:10.241Z</time>
      </trkpt>
      <trkpt lat="48.40476" lon="7.32173">
        <ele>610</ele>
        <time>2020-09-06T13:29:11.242Z</time>
      </trkpt>
      <trkpt lat="48.40476" lon="7.32175">
        <ele>609</ele>
        <time>2020-09-06T13:29:12.242Z</time>
      </trkpt>
      <trkpt lat="48.40477" lon="7.32177">
        <ele>609</ele>
        <time>2020-09-06T13:29:13.242Z</time>
      </trkpt>
      <trkpt lat="48.40477" lon="7.32179">
        <ele>609</ele>
        <time>2020-09-06T13:29:14.243Z</time>
      </trkpt>
      <trkpt lat="48.40478" lon="7.3218">
        <ele>609</ele>
        <time>2020-09-06T13:29:15.243Z</time>
      </trkpt>
      <trkpt lat="48.40478" lon="7.32182">
        <ele>608</ele>
        <time>2020-09-06T13:29:16.243Z</time>
      </trkpt>
      <trkpt lat="48.40478" lon="7.32183">
        <ele>608</ele>
        <time>2020-09-06T13:29:17.243Z</time>
      </trkpt>
      <trkpt lat="48.40478" lon="7.32184">
        <ele>607</ele>
        <time>2020-09-06T13:29:18.243Z</time>
      </trkpt>
      <trkpt lat="48.40479" lon="7.32185">
        <ele>607</ele>
        <time>2020-09-06T13:29:19.243Z</time>
      </trkpt>
      <trkpt lat="48.4048" lon="7.32185">
        <ele>607</ele>
        <time>2020-09-06T13:29:20.243Z</time>
      </trkpt>
      <trkpt lat="48.40482" lon="7.32186">
        <ele>607</ele>
        <time>2020-09-06T13:29:21.242Z</time>
      </trkpt>
      <trkpt lat="48.40483" lon="7.32188">
        <ele>607</ele>
        <time>2020-09-06T13:29:22.243Z</time>
      </trkpt>
      <trkpt lat="48.40483" lon="7.32189">
        <ele>607</ele>
        <time>2020-09-06T13:29:23.242Z</time>
      </trkpt>
      <trkpt lat="48.40484" lon="7.3219">
        <ele>607</ele>
        <time>2020-09-06T13:29:24.242Z</time>
      </trkpt>
      <trkpt lat="48.40484" lon="7.32192">
        <ele>607</ele>
        <time>2020-09-06T13:29:25.243Z</time>
      </trkpt>
      <trkpt lat="48.40485" lon="7.32193">
        <ele>607</ele>
        <time>2020-09-06T13:29:26.242Z</time>
      </trkpt>
      <trkpt lat="48.40486" lon="7.32195">
        <ele>606</ele>
        <time>2020-09-06T13:29:27.243Z</time>
      </trkpt>
      <trkpt lat="48.40487" lon="7.32196">
        <ele>606</ele>
        <time>2020-09-06T13:29:28.243Z</time>
      </trkpt>
      <trkpt lat="48.40487" lon="7.32197">
        <ele>606</ele>
        <time>2020-09-06T13:29:29.243Z</time>
      </trkpt>
      <trkpt lat="48.40488" lon="7.32198">
        <ele>606</ele>
        <time>2020-09-06T13:29:30.243Z</time>
      </trkpt>
      <trkpt lat="48.40488" lon="7.322">
        <ele>606</ele>
        <time>2020-09-06T13:29:31.242Z</time>
      </trkpt>
      <trkpt lat="48.40489" lon="7.32201">
        <ele>606</ele>
        <time>2020-09-06T13:29:32.242Z</time>
      </trkpt>
      <trkpt lat="48.4049" lon="7.32202">
        <ele>605</ele>
        <time>2020-09-06T13:29:33.242Z</time>
      </trkpt>
      <trkpt lat="48.4049" lon="7.32204">
        <ele>605</ele>
        <time>2020-09-06T13:29:34.242Z</time>
      </trkpt>
      <trkpt lat="48.4049" lon="7.32206">
        <ele>605</ele>
        <time>2020-09-06T13:29:35.243Z</time>
      </trkpt>
      <trkpt lat="48.4049" lon="7.32208">
        <ele>605</ele>
        <time>2020-09-06T13:29:36.242Z</time>
      </trkpt>
      <trkpt lat="48.4049" lon="7.3221">
        <ele>605</ele>
        <time>2020-09-06T13:29:37.243Z</time>
      </trkpt>
      <trkpt lat="48.40491" lon="7.32212">
        <ele>605</ele>
        <time>2020-09-06T13:29:38.243Z</time>
      </trkpt>
      <trkpt lat="48.40491" lon="7.32214">
        <ele>606</ele>
        <time>2020-09-06T13:29:39.242Z</time>
      </trkpt>
      <trkpt lat="48.40491" lon="7.32216">
        <ele>606</ele>
        <time>2020-09-06T13:29:40.243Z</time>
      </trkpt>
      <trkpt lat="48.40492" lon="7.32218">
        <ele>606</ele>
        <time>2020-09-06T13:29:41.243Z</time>
      </trkpt>
      <trkpt lat="48.40492" lon="7.32221">
        <ele>607</ele>
        <time>2020-09-06T13:29:42.243Z</time>
      </trkpt>
      <trkpt lat="48.40493" lon="7.32223">
        <ele>608</ele>
        <time>2020-09-06T13:29:43.242Z</time>
      </trkpt>
      <trkpt lat="48.40493" lon="7.32226">
        <ele>608</ele>
        <time>2020-09-06T13:29:44.242Z</time>
      </trkpt>
      <trkpt lat="48.40493" lon="7.32228">
        <ele>609</ele>
        <time>2020-09-06T13:29:45.242Z</time>
      </trkpt>
      <trkpt lat="48.40493" lon="7.32229">
        <ele>609</ele>
        <time>2020-09-06T13:29:46.243Z</time>
      </trkpt>
      <trkpt lat="48.40494" lon="7.3223">
        <ele>610</ele>
        <time>2020-09-06T13:29:47.243Z</time>
      </trkpt>
      <trkpt lat="48.40495" lon="7.32232">
        <ele>610</ele>
        <time>2020-09-06T13:29:48.243Z</time>
      </trkpt>
      <trkpt lat="48.40496" lon="7.32234">
        <ele>610</ele>
        <time>2020-09-06T13:29:49.242Z</time>
      </trkpt>
      <trkpt lat="48.40496" lon="7.32235">
        <ele>610</ele>
        <time>2020-09-06T13:29:50.243Z</time>
      </trkpt>
      <trkpt lat="48.40496" lon="7.32237">
        <ele>611</ele>
        <time>2020-09-06T13:29:51.242Z</time>
      </trkpt>
      <trkpt lat="48.40497" lon="7.32237">
        <ele>611</ele>
        <time>2020-09-06T13:29:52.243Z</time>
      </trkpt>
      <trkpt lat="48.40498" lon="7.32238">
        <ele>611</ele>
        <time>2020-09-06T13:29:53.243Z</time>
      </trkpt>
      <trkpt lat="48.405" lon="7.32239">
        <ele>611</ele>
        <time>2020-09-06T13:29:54.242Z</time>
      </trkpt>
      <trkpt lat="48.40501" lon="7.32239">
        <ele>612</ele>
        <time>2020-09-06T13:29:55.243Z</time>
      </trkpt>
      <trkpt lat="48.40503" lon="7.3224">
        <ele>612</ele>
        <time>2020-09-06T13:29:56.242Z</time>
      </trkpt>
      <trkpt lat="48.40504" lon="7.32242">
        <ele>612</ele>
        <time>2020-09-06T13:29:57.243Z</time>
      </trkpt>
      <trkpt lat="48.40506" lon="7.32244">
        <ele>612</ele>
        <time>2020-09-06T13:29:58.243Z</time>
      </trkpt>
      <trkpt lat="48.40507" lon="7.32246">
        <ele>613</ele>
        <time>2020-09-06T13:29:59.243Z</time>
      </trkpt>
      <trkpt lat="48.40508" lon="7.32248">
        <ele>613</ele>
        <time>2020-09-06T13:30:00.242Z</time>
      </trkpt>
      <trkpt lat="48.40509" lon="7.32249">
        <ele>614</ele>
        <time>2020-09-06T13:30:01.243Z</time>
      </trkpt>
      <trkpt lat="48.4051" lon="7.32251">
        <ele>614</ele>
        <time>2020-09-06T13:30:02.243Z</time>
      </trkpt>
      <trkpt lat="48.4051" lon="7.32253">
        <ele>614</ele>
        <time>2020-09-06T13:30:03.242Z</time>
      </trkpt>
      <trkpt lat="48.4051" lon="7.32255">
        <ele>614</ele>
        <time>2020-09-06T13:30:04.242Z</time>
      </trkpt>
      <trkpt lat="48.4051" lon="7.32256">
        <ele>614</ele>
        <time>2020-09-06T13:30:05.242Z</time>
      </trkpt>
      <trkpt lat="48.40511" lon="7.32257">
        <ele>614</ele>
        <time>2020-09-06T13:30:06.243Z</time>
      </trkpt>
      <trkpt lat="48.40512" lon="7.32259">
        <ele>614</ele>
        <time>2020-09-06T13:30:07.243Z</time>
      </trkpt>
      <trkpt lat="48.40512" lon="7.3226">
        <ele>614</ele>
        <time>2020-09-06T13:30:08.243Z</time>
      </trkpt>
      <trkpt lat="48.40513" lon="7.32261">
        <ele>614</ele>
        <time>2020-09-06T13:30:09.242Z</time>
      </trkpt>
      <trkpt lat="48.40513" lon="7.32262">
        <ele>614</ele>
        <time>2020-09-06T13:30:10.243Z</time>
      </trkpt>
      <trkpt lat="48.40514" lon="7.32263">
        <ele>614</ele>
        <time>2020-09-06T13:30:11.243Z</time>
      </trkpt>
      <trkpt lat="48.40514" lon="7.32264">
        <ele>614</ele>
        <time>2020-09-06T13:30:12.243Z</time>
      </trkpt>
      <trkpt lat="48.40515" lon="7.32265">
        <ele>614</ele>
        <time>2020-09-06T13:30:13.243Z</time>
      </trkpt>
      <trkpt lat="48.40515" lon="7.32266">
        <ele>614</ele>
        <time>2020-09-06T13:30:14.243Z</time>
      </trkpt>
      <trkpt lat="48.40515" lon="7.32267">
        <ele>613</ele>
        <time>2020-09-06T13:30:15.243Z</time>
      </trkpt>
      <trkpt lat="48.40515" lon="7.32269">
        <ele>613</ele>
        <time>2020-09-06T13:30:16.243Z</time>
      </trkpt>
      <trkpt lat="48.40515" lon="7.3227">
        <ele>613</ele>
        <time>2020-09-06T13:30:17.243Z</time>
      </trkpt>
      <trkpt lat="48.40515" lon="7.32272">
        <ele>613</ele>
        <time>2020-09-06T13:30:18.242Z</time>
      </trkpt>
      <trkpt lat="48.40516" lon="7.32274">
        <ele>613</ele>
        <time>2020-09-06T13:30:19.243Z</time>
      </trkpt>
      <trkpt lat="48.40517" lon="7.32277">
        <ele>613</ele>
        <time>2020-09-06T13:30:20.243Z</time>
      </trkpt>
      <trkpt lat="48.40518" lon="7.32278">
        <ele>613</ele>
        <time>2020-09-06T13:30:21.243Z</time>
      </trkpt>
      <trkpt lat="48.40518" lon="7.3228">
        <ele>613</ele>
        <time>2020-09-06T13:30:22.243Z</time>
      </trkpt>
      <trkpt lat="48.40518" lon="7.3228">
        <ele>613</ele>
        <time>2020-09-06T13:30:23.243Z</time>
      </trkpt>
      <trkpt lat="48.40517" lon="7.32282">
        <ele>613</ele>
        <time>2020-09-06T13:30:24.243Z</time>
      </trkpt>
      <trkpt lat="48.40518" lon="7.32284">
        <ele>613</ele>
        <time>2020-09-06T13:30:25.243Z</time>
      </trkpt>
      <trkpt lat="48.40518" lon="7.32286">
        <ele>613</ele>
        <time>2020-09-06T13:30:26.243Z</time>
      </trkpt>
      <trkpt lat="48.40519" lon="7.32287">
        <ele>613</ele>
        <time>2020-09-06T13:30:27.242Z</time>
      </trkpt>
      <trkpt lat="48.4052" lon="7.32287">
        <ele>613</ele>
        <time>2020-09-06T13:30:28.242Z</time>
      </trkpt>
      <trkpt lat="48.4052" lon="7.32288">
        <ele>613</ele>
        <time>2020-09-06T13:30:29.243Z</time>
      </trkpt>
      <trkpt lat="48.40522" lon="7.3229">
        <ele>613</ele>
        <time>2020-09-06T13:30:30.243Z</time>
      </trkpt>
      <trkpt lat="48.40523" lon="7.32292">
        <ele>613</ele>
        <time>2020-09-06T13:30:31.243Z</time>
      </trkpt>
      <trkpt lat="48.40523" lon="7.32293">
        <ele>614</ele>
        <time>2020-09-06T13:30:32.242Z</time>
      </trkpt>
      <trkpt lat="48.40524" lon="7.32294">
        <ele>614</ele>
        <time>2020-09-06T13:30:33.242Z</time>
      </trkpt>
      <trkpt lat="48.40524" lon="7.32295">
        <ele>615</ele>
        <time>2020-09-06T13:30:34.242Z</time>
      </trkpt>
      <trkpt lat="48.40525" lon="7.32296">
        <ele>615</ele>
        <time>2020-09-06T13:30:35.243Z</time>
      </trkpt>
      <trkpt lat="48.40525" lon="7.32297">
        <ele>615</ele>
        <time>2020-09-06T13:30:36.243Z</time>
      </trkpt>
      <trkpt lat="48.40526" lon="7.32298">
        <ele>615</ele>
        <time>2020-09-06T13:30:37.243Z</time>
      </trkpt>
      <trkpt lat="48.40526" lon="7.323">
        <ele>615</ele>
        <time>2020-09-06T13:30:38.243Z</time>
      </trkpt>
      <trkpt lat="48.40527" lon="7.32303">
        <ele>615</ele>
        <time>2020-09-06T13:30:39.243Z</time>
      </trkpt>
      <trkpt lat="48.40527" lon="7.32305">
        <ele>615</ele>
        <time>2020-09-06T13:30:40.243Z</time>
      </trkpt>
      <trkpt lat="48.40527" lon="7.32308">
        <ele>615</ele>
        <time>2020-09-06T13:30:41.243Z</time>
      </trkpt>
      <trkpt lat="48.40526" lon="7.32312">
        <ele>615</ele>
        <time>2020-09-06T13:30:42.243Z</time>
      </trkpt>
      <trkpt lat="48.40525" lon="7.32314">
        <ele>616</ele>
        <time>2020-09-06T13:30:43.243Z</time>
      </trkpt>
      <trkpt lat="48.40524" lon="7.32315">
        <ele>616</ele>
        <time>2020-09-06T13:30:44.243Z</time>
      </trkpt>
      <trkpt lat="48.40523" lon="7.32316">
        <ele>617</ele>
        <time>2020-09-06T13:30:45.243Z</time>
      </trkpt>
      <trkpt lat="48.40521" lon="7.32317">
        <ele>618</ele>
        <time>2020-09-06T13:30:46.243Z</time>
      </trkpt>
      <trkpt lat="48.4052" lon="7.32318">
        <ele>619</ele>
        <time>2020-09-06T13:30:47.242Z</time>
      </trkpt>
      <trkpt lat="48.40519" lon="7.32319">
        <ele>620</ele>
        <time>2020-09-06T13:30:48.243Z</time>
      </trkpt>
      <trkpt lat="48.40518" lon="7.3232">
        <ele>621</ele>
        <time>2020-09-06T13:30:49.243Z</time>
      </trkpt>
      <trkpt lat="48.40517" lon="7.32321">
        <ele>623</ele>
        <time>2020-09-06T13:30:50.242Z</time>
      </trkpt>
      <trkpt lat="48.40518" lon="7.32322">
        <ele>624</ele>
        <time>2020-09-06T13:30:51.243Z</time>
      </trkpt>
      <trkpt lat="48.4052" lon="7.32322">
        <ele>625</ele>
        <time>2020-09-06T13:30:52.243Z</time>
      </trkpt>
      <trkpt lat="48.4052" lon="7.32321">
        <ele>626</ele>
        <time>2020-09-06T13:30:53.242Z</time>
      </trkpt>
      <trkpt lat="48.4052" lon="7.32319">
        <ele>627</ele>
        <time>2020-09-06T13:30:54.243Z</time>
      </trkpt>
      <trkpt lat="48.40521" lon="7.3232">
        <ele>632</ele>
        <time>2020-09-06T13:30:55.243Z</time>
      </trkpt>
      <trkpt lat="48.4052" lon="7.32321">
        <ele>632</ele>
        <time>2020-09-06T13:30:56.243Z</time>
      </trkpt>
      <trkpt lat="48.4052" lon="7.32323">
        <ele>633</ele>
        <time>2020-09-06T13:30:57.242Z</time>
      </trkpt>
      <trkpt lat="48.4052" lon="7.32324">
        <ele>634</ele>
        <time>2020-09-06T13:30:58.243Z</time>
      </trkpt>
      <trkpt lat="48.4052" lon="7.32325">
        <ele>634</ele>
        <time>2020-09-06T13:30:59.243Z</time>
      </trkpt>
      <trkpt lat="48.4052" lon="7.32326">
        <ele>634</ele>
        <time>2020-09-06T13:31:00.243Z</time>
      </trkpt>
      <trkpt lat="48.4052" lon="7.32327">
        <ele>635</ele>
        <time>2020-09-06T13:31:01.243Z</time>
      </trkpt>
      <trkpt lat="48.40521" lon="7.32328">
        <ele>635</ele>
        <time>2020-09-06T13:31:02.243Z</time>
      </trkpt>
      <trkpt lat="48.40521" lon="7.32328">
        <ele>635</ele>
        <time>2020-09-06T13:31:03.243Z</time>
      </trkpt>
      <trkpt lat="48.40521" lon="7.32327">
        <ele>634</ele>
        <time>2020-09-06T13:31:04.242Z</time>
      </trkpt>
      <trkpt lat="48.40521" lon="7.32326">
        <ele>634</ele>
        <time>2020-09-06T13:31:05.242Z</time>
      </trkpt>
      <trkpt lat="48.40522" lon="7.32326">
        <ele>634</ele>
        <time>2020-09-06T13:31:06.242Z</time>
      </trkpt>
      <trkpt lat="48.40523" lon="7.32326">
        <ele>634</ele>
        <time>2020-09-06T13:31:07.243Z</time>
      </trkpt>
      <trkpt lat="48.40523" lon="7.32325">
        <ele>634</ele>
        <time>2020-09-06T13:31:08.242Z</time>
      </trkpt>
      <trkpt lat="48.40524" lon="7.32325">
        <ele>634</ele>
        <time>2020-09-06T13:31:09.242Z</time>
      </trkpt>
      <trkpt lat="48.40524" lon="7.32325">
        <ele>634</ele>
        <time>2020-09-06T13:31:10.243Z</time>
      </trkpt>
      <trkpt lat="48.40522" lon="7.32324">
        <ele>638</ele>
        <time>2020-09-06T13:31:11.243Z</time>
      </trkpt>
      <trkpt lat="48.40519" lon="7.32315">
        <ele>638</ele>
        <time>2020-09-06T13:31:12.242Z</time>
      </trkpt>
      <trkpt lat="48.40519" lon="7.32315">
        <ele>638</ele>
        <time>2020-09-06T13:31:13.243Z</time>
      </trkpt>
      <trkpt lat="48.40519" lon="7.32315">
        <ele>638</ele>
        <time>2020-09-06T13:31:14.242Z</time>
      </trkpt>
      <trkpt lat="48.40524" lon="7.32303">
        <ele>651</ele>
        <time>2020-09-06T13:31:15.243Z</time>
      </trkpt>
      <trkpt lat="48.40525" lon="7.32304">
        <ele>651</ele>
        <time>2020-09-06T13:31:16.243Z</time>
      </trkpt>
      <trkpt lat="48.40526" lon="7.32305">
        <ele>651</ele>
        <time>2020-09-06T13:31:17.242Z</time>
      </trkpt>
      <trkpt lat="48.40528" lon="7.32306">
        <ele>650</ele>
        <time>2020-09-06T13:31:18.242Z</time>
      </trkpt>
      <trkpt lat="48.40529" lon="7.32307">
        <ele>650</ele>
        <time>2020-09-06T13:31:19.243Z</time>
      </trkpt>
      <trkpt lat="48.40531" lon="7.32307">
        <ele>649</ele>
        <time>2020-09-06T13:31:20.243Z</time>
      </trkpt>
      <trkpt lat="48.40532" lon="7.32307">
        <ele>649</ele>
        <time>2020-09-06T13:31:21.242Z</time>
      </trkpt>
      <trkpt lat="48.40532" lon="7.32307">
        <ele>648</ele>
        <time>2020-09-06T13:31:22.242Z</time>
      </trkpt>
      <trkpt lat="48.40532" lon="7.32307">
        <ele>648</ele>
        <time>2020-09-06T13:31:23.242Z</time>
      </trkpt>
      <trkpt lat="48.40532" lon="7.32308">
        <ele>648</ele>
        <time>2020-09-06T13:31:24.242Z</time>
      </trkpt>
      <trkpt lat="48.40532" lon="7.3231">
        <ele>647</ele>
        <time>2020-09-06T13:31:25.242Z</time>
      </trkpt>
      <trkpt lat="48.40532" lon="7.32311">
        <ele>646</ele>
        <time>2020-09-06T13:31:26.243Z</time>
      </trkpt>
      <trkpt lat="48.40532" lon="7.32314">
        <ele>643</ele>
        <time>2020-09-06T13:31:27.243Z</time>
      </trkpt>
      <trkpt lat="48.40531" lon="7.32315">
        <ele>642</ele>
        <time>2020-09-06T13:31:28.243Z</time>
      </trkpt>
      <trkpt lat="48.40531" lon="7.32315">
        <ele>642</ele>
        <time>2020-09-06T13:31:29.242Z</time>
      </trkpt>
      <trkpt lat="48.4053" lon="7.32316">
        <ele>641</ele>
        <time>2020-09-06T13:31:30.243Z</time>
      </trkpt>
      <trkpt lat="48.40529" lon="7.32316">
        <ele>639</ele>
        <time>2020-09-06T13:31:31.243Z</time>
      </trkpt>
      <trkpt lat="48.40527" lon="7.32316">
        <ele>637</ele>
        <time>2020-09-06T13:31:32.242Z</time>
      </trkpt>
      <trkpt lat="48.40526" lon="7.32317">
        <ele>635</ele>
        <time>2020-09-06T13:31:33.243Z</time>
      </trkpt>
      <trkpt lat="48.40525" lon="7.32317">
        <ele>634</ele>
        <time>2020-09-06T13:31:34.243Z</time>
      </trkpt>
      <trkpt lat="48.40523" lon="7.32317">
        <ele>632</ele>
        <time>2020-09-06T13:31:35.243Z</time>
      </trkpt>
      <trkpt lat="48.40522" lon="7.32318">
        <ele>631</ele>
        <time>2020-09-06T13:31:36.243Z</time>
      </trkpt>
      <trkpt lat="48.40521" lon="7.32319">
        <ele>630</ele>
        <time>2020-09-06T13:31:37.243Z</time>
      </trkpt>
      <trkpt lat="48.4052" lon="7.32319">
        <ele>628</ele>
        <time>2020-09-06T13:31:38.243Z</time>
      </trkpt>
      <trkpt lat="48.40519" lon="7.3232">
        <ele>627</ele>
        <time>2020-09-06T13:31:39.242Z</time>
      </trkpt>
      <trkpt lat="48.40518" lon="7.32322">
        <ele>626</ele>
        <time>2020-09-06T13:31:40.243Z</time>
      </trkpt>
      <trkpt lat="48.40518" lon="7.32324">
        <ele>625</ele>
        <time>2020-09-06T13:31:41.243Z</time>
      </trkpt>
      <trkpt lat="48.40518" lon="7.32326">
        <ele>624</ele>
        <time>2020-09-06T13:31:42.243Z</time>
      </trkpt>
      <trkpt lat="48.40517" lon="7.32329">
        <ele>623</ele>
        <time>2020-09-06T13:31:43.243Z</time>
      </trkpt>
      <trkpt lat="48.40516" lon="7.32331">
        <ele>622</ele>
        <time>2020-09-06T13:31:44.243Z</time>
      </trkpt>
      <trkpt lat="48.40515" lon="7.32334">
        <ele>622</ele>
        <time>2020-09-06T13:31:45.243Z</time>
      </trkpt>
      <trkpt lat="48.40515" lon="7.32337">
        <ele>622</ele>
        <time>2020-09-06T13:31:46.243Z</time>
      </trkpt>
      <trkpt lat="48.40515" lon="7.32339">
        <ele>622</ele>
        <time>2020-09-06T13:31:47.243Z</time>
      </trkpt>
      <trkpt lat="48.40515" lon="7.32341">
        <ele>622</ele>
        <time>2020-09-06T13:31:48.243Z</time>
      </trkpt>
      <trkpt lat="48.40516" lon="7.32343">
        <ele>621</ele>
        <time>2020-09-06T13:31:49.243Z</time>
      </trkpt>
      <trkpt lat="48.40517" lon="7.32344">
        <ele>621</ele>
        <time>2020-09-06T13:31:50.243Z</time>
      </trkpt>
      <trkpt lat="48.40517" lon="7.32345">
        <ele>621</ele>
        <time>2020-09-06T13:31:51.243Z</time>
      </trkpt>
      <trkpt lat="48.40517" lon="7.32344">
        <ele>620</ele>
        <time>2020-09-06T13:31:52.243Z</time>
      </trkpt>
      <trkpt lat="48.40518" lon="7.32344">
        <ele>620</ele>
        <time>2020-09-06T13:31:53.243Z</time>
      </trkpt>
      <trkpt lat="48.40517" lon="7.32343">
        <ele>621</ele>
        <time>2020-09-06T13:31:54.243Z</time>
      </trkpt>
      <trkpt lat="48.40518" lon="7.32343">
        <ele>621</ele>
        <time>2020-09-06T13:31:55.242Z</time>
      </trkpt>
      <trkpt lat="48.40518" lon="7.32343">
        <ele>621</ele>
        <time>2020-09-06T13:31:56.242Z</time>
      </trkpt>
      <trkpt lat="48.40518" lon="7.32344">
        <ele>622</ele>
        <time>2020-09-06T13:31:57.243Z</time>
      </trkpt>
      <trkpt lat="48.40512" lon="7.32351">
        <ele>636</ele>
        <time>2020-09-06T13:31:58.244Z</time>
      </trkpt>
      <trkpt lat="48.40505" lon="7.3236">
        <ele>630</ele>
        <time>2020-09-06T13:31:59.244Z</time>
      </trkpt>
      <trkpt lat="48.40504" lon="7.32359">
        <ele>630</ele>
        <time>2020-09-06T13:32:00.245Z</time>
      </trkpt>
      <trkpt lat="48.40503" lon="7.32357">
        <ele>631</ele>
        <time>2020-09-06T13:32:01.244Z</time>
      </trkpt>
      <trkpt lat="48.40502" lon="7.32354">
        <ele>630</ele>
        <time>2020-09-06T13:32:02.245Z</time>
      </trkpt>
      <trkpt lat="48.40503" lon="7.32351">
        <ele>630</ele>
        <time>2020-09-06T13:32:03.245Z</time>
      </trkpt>
      <trkpt lat="48.40503" lon="7.32349">
        <ele>630</ele>
        <time>2020-09-06T13:32:04.245Z</time>
      </trkpt>
      <trkpt lat="48.40504" lon="7.32346">
        <ele>630</ele>
        <time>2020-09-06T13:32:05.244Z</time>
      </trkpt>
      <trkpt lat="48.40505" lon="7.32343">
        <ele>629</ele>
        <time>2020-09-06T13:32:06.244Z</time>
      </trkpt>
      <trkpt lat="48.40505" lon="7.3234">
        <ele>629</ele>
        <time>2020-09-06T13:32:07.245Z</time>
      </trkpt>
      <trkpt lat="48.40506" lon="7.32337">
        <ele>629</ele>
        <time>2020-09-06T13:32:08.245Z</time>
      </trkpt>
      <trkpt lat="48.40507" lon="7.32335">
        <ele>629</ele>
        <time>2020-09-06T13:32:09.245Z</time>
      </trkpt>
      <trkpt lat="48.40508" lon="7.32333">
        <ele>629</ele>
        <time>2020-09-06T13:32:10.244Z</time>
      </trkpt>
      <trkpt lat="48.4051" lon="7.32332">
        <ele>629</ele>
        <time>2020-09-06T13:32:11.245Z</time>
      </trkpt>
      <trkpt lat="48.40511" lon="7.32331">
        <ele>629</ele>
        <time>2020-09-06T13:32:12.245Z</time>
      </trkpt>
      <trkpt lat="48.40511" lon="7.3233">
        <ele>630</ele>
        <time>2020-09-06T13:32:13.244Z</time>
      </trkpt>
      <trkpt lat="48.40512" lon="7.3233">
        <ele>630</ele>
        <time>2020-09-06T13:32:14.244Z</time>
      </trkpt>
      <trkpt lat="48.40512" lon="7.32329">
        <ele>631</ele>
        <time>2020-09-06T13:32:15.244Z</time>
      </trkpt>
      <trkpt lat="48.40513" lon="7.32328">
        <ele>632</ele>
        <time>2020-09-06T13:32:16.244Z</time>
      </trkpt>
      <trkpt lat="48.40513" lon="7.32327">
        <ele>632</ele>
        <time>2020-09-06T13:32:17.245Z</time>
      </trkpt>
      <trkpt lat="48.40514" lon="7.32326">
        <ele>631</ele>
        <time>2020-09-06T13:32:18.245Z</time>
      </trkpt>
      <trkpt lat="48.40516" lon="7.32322">
        <ele>626</ele>
        <time>2020-09-06T13:32:19.247Z</time>
      </trkpt>
      <trkpt lat="48.40517" lon="7.32321">
        <ele>627</ele>
        <time>2020-09-06T13:32:20.246Z</time>
      </trkpt>
      <trkpt lat="48.40518" lon="7.32319">
        <ele>627</ele>
        <time>2020-09-06T13:32:21.246Z</time>
      </trkpt>
      <trkpt lat="48.40519" lon="7.32318">
        <ele>627</ele>
        <time>2020-09-06T13:32:22.247Z</time>
      </trkpt>
      <trkpt lat="48.40519" lon="7.32317">
        <ele>628</ele>
        <time>2020-09-06T13:32:23.247Z</time>
      </trkpt>
      <trkpt lat="48.40519" lon="7.32317">
        <ele>628</ele>
        <time>2020-09-06T13:32:24.246Z</time>
      </trkpt>
      <trkpt lat="48.40524" lon="7.3231">
        <ele>639</ele>
        <time>2020-09-06T13:32:25.248Z</time>
      </trkpt>
      <trkpt lat="48.40524" lon="7.32308">
        <ele>640</ele>
        <time>2020-09-06T13:32:26.247Z</time>
      </trkpt>
      <trkpt lat="48.40525" lon="7.32306">
        <ele>640</ele>
        <time>2020-09-06T13:32:27.247Z</time>
      </trkpt>
      <trkpt lat="48.40525" lon="7.32306">
        <ele>640</ele>
        <time>2020-09-06T13:32:28.247Z</time>
      </trkpt>
      <trkpt lat="48.40525" lon="7.32301">
        <ele>641</ele>
        <time>2020-09-06T13:32:29.248Z</time>
      </trkpt>
      <trkpt lat="48.40526" lon="7.32302">
        <ele>641</ele>
        <time>2020-09-06T13:32:30.247Z</time>
      </trkpt>
      <trkpt lat="48.40527" lon="7.32302">
        <ele>641</ele>
        <time>2020-09-06T13:32:31.247Z</time>
      </trkpt>
      <trkpt lat="48.40527" lon="7.32301">
        <ele>642</ele>
        <time>2020-09-06T13:32:32.248Z</time>
      </trkpt>
      <trkpt lat="48.40528" lon="7.32301">
        <ele>642</ele>
        <time>2020-09-06T13:32:33.247Z</time>
      </trkpt>
      <trkpt lat="48.40529" lon="7.32302">
        <ele>642</ele>
        <time>2020-09-06T13:32:34.248Z</time>
      </trkpt>
      <trkpt lat="48.40529" lon="7.32303">
        <ele>643</ele>
        <time>2020-09-06T13:32:35.247Z</time>
      </trkpt>
      <trkpt lat="48.4053" lon="7.32303">
        <ele>643</ele>
        <time>2020-09-06T13:32:36.247Z</time>
      </trkpt>
      <trkpt lat="48.40531" lon="7.32304">
        <ele>644</ele>
        <time>2020-09-06T13:32:37.249Z</time>
      </trkpt>
      <trkpt lat="48.40532" lon="7.32304">
        <ele>645</ele>
        <time>2020-09-06T13:32:38.249Z</time>
      </trkpt>
      <trkpt lat="48.40532" lon="7.32304">
        <ele>645</ele>
        <time>2020-09-06T13:32:39.249Z</time>
      </trkpt>
      <trkpt lat="48.40533" lon="7.32303">
        <ele>646</ele>
        <time>2020-09-06T13:32:40.249Z</time>
      </trkpt>
      <trkpt lat="48.40533" lon="7.32303">
        <ele>646</ele>
        <time>2020-09-06T13:32:41.249Z</time>
      </trkpt>
      <trkpt lat="48.40533" lon="7.32302">
        <ele>647</ele>
        <time>2020-09-06T13:32:42.249Z</time>
      </trkpt>
      <trkpt lat="48.40533" lon="7.32301">
        <ele>647</ele>
        <time>2020-09-06T13:32:43.248Z</time>
      </trkpt>
      <trkpt lat="48.40532" lon="7.32301">
        <ele>649</ele>
        <time>2020-09-06T13:32:44.250Z</time>
      </trkpt>
      <trkpt lat="48.40533" lon="7.32303">
        <ele>649</ele>
        <time>2020-09-06T13:32:45.249Z</time>
      </trkpt>
      <trkpt lat="48.40532" lon="7.32305">
        <ele>649</ele>
        <time>2020-09-06T13:32:46.250Z</time>
      </trkpt>
      <trkpt lat="48.40532" lon="7.32309">
        <ele>649</ele>
        <time>2020-09-06T13:32:47.250Z</time>
      </trkpt>
      <trkpt lat="48.40531" lon="7.3231">
        <ele>648</ele>
        <time>2020-09-06T13:32:48.250Z</time>
      </trkpt>
      <trkpt lat="48.40531" lon="7.3231">
        <ele>647</ele>
        <time>2020-09-06T13:32:49.250Z</time>
      </trkpt>
      <trkpt lat="48.40531" lon="7.3231">
        <ele>646</ele>
        <time>2020-09-06T13:32:50.250Z</time>
      </trkpt>
      <trkpt lat="48.4053" lon="7.32309">
        <ele>644</ele>
        <time>2020-09-06T13:32:51.251Z</time>
      </trkpt>
      <trkpt lat="48.4053" lon="7.32308">
        <ele>645</ele>
        <time>2020-09-06T13:32:52.250Z</time>
      </trkpt>
      <trkpt lat="48.40529" lon="7.3231">
        <ele>649</ele>
        <time>2020-09-06T13:32:53.251Z</time>
      </trkpt>
      <trkpt lat="48.40533" lon="7.32321">
        <ele>646</ele>
        <time>2020-09-06T13:32:54.252Z</time>
      </trkpt>
      <trkpt lat="48.40533" lon="7.32324">
        <ele>645</ele>
        <time>2020-09-06T13:32:55.252Z</time>
      </trkpt>
      <trkpt lat="48.40532" lon="7.32324">
        <ele>644</ele>
        <time>2020-09-06T13:32:56.251Z</time>
      </trkpt>
      <trkpt lat="48.4053" lon="7.32325">
        <ele>642</ele>
        <time>2020-09-06T13:32:57.252Z</time>
      </trkpt>
      <trkpt lat="48.4053" lon="7.32325">
        <ele>640</ele>
        <time>2020-09-06T13:32:58.251Z</time>
      </trkpt>
      <trkpt lat="48.4053" lon="7.32326">
        <ele>638</ele>
        <time>2020-09-06T13:32:59.252Z</time>
      </trkpt>
      <trkpt lat="48.40529" lon="7.32325">
        <ele>636</ele>
        <time>2020-09-06T13:33:00.251Z</time>
      </trkpt>
      <trkpt lat="48.40522" lon="7.3232">
        <ele>632</ele>
        <time>2020-09-06T13:33:01.253Z</time>
      </trkpt>
      <trkpt lat="48.40521" lon="7.32321">
        <ele>632</ele>
        <time>2020-09-06T13:33:02.252Z</time>
      </trkpt>
      <trkpt lat="48.4052" lon="7.32322">
        <ele>632</ele>
        <time>2020-09-06T13:33:03.253Z</time>
      </trkpt>
      <trkpt lat="48.40519" lon="7.32323">
        <ele>632</ele>
        <time>2020-09-06T13:33:04.253Z</time>
      </trkpt>
      <trkpt lat="48.40519" lon="7.32323">
        <ele>632</ele>
        <time>2020-09-06T13:33:05.253Z</time>
      </trkpt>
      <trkpt lat="48.40519" lon="7.32324">
        <ele>632</ele>
        <time>2020-09-06T13:33:06.253Z</time>
      </trkpt>
      <trkpt lat="48.40519" lon="7.32324">
        <ele>632</ele>
        <time>2020-09-06T13:33:07.253Z</time>
      </trkpt>
      <trkpt lat="48.40519" lon="7.32323">
        <ele>632</ele>
        <time>2020-09-06T13:33:08.253Z</time>
      </trkpt>
      <trkpt lat="48.40521" lon="7.32322">
        <ele>632</ele>
        <time>2020-09-06T13:33:09.252Z</time>
      </trkpt>
      <trkpt lat="48.40519" lon="7.32324">
        <ele>632</ele>
        <time>2020-09-06T13:33:13.253Z</time>
      </trkpt>
      <trkpt lat="48.40518" lon="7.32324">
        <ele>632</ele>
        <time>2020-09-06T13:33:14.253Z</time>
      </trkpt>
      <trkpt lat="48.40516" lon="7.32326">
        <ele>632</ele>
        <time>2020-09-06T13:33:15.252Z</time>
      </trkpt>
      <trkpt lat="48.40515" lon="7.32328">
        <ele>632</ele>
        <time>2020-09-06T13:33:16.253Z</time>
      </trkpt>
      <trkpt lat="48.40514" lon="7.32327">
        <ele>632</ele>
        <time>2020-09-06T13:33:17.253Z</time>
      </trkpt>
      <trkpt lat="48.40515" lon="7.32328">
        <ele>631</ele>
        <time>2020-09-06T13:33:18.253Z</time>
      </trkpt>
      <trkpt lat="48.40516" lon="7.32328">
        <ele>631</ele>
        <time>2020-09-06T13:33:19.252Z</time>
      </trkpt>
      <trkpt lat="48.40516" lon="7.32324">
        <ele>631</ele>
        <time>2020-09-06T13:33:20.253Z</time>
      </trkpt>
      <trkpt lat="48.40515" lon="7.32322">
        <ele>631</ele>
        <time>2020-09-06T13:33:21.253Z</time>
      </trkpt>
      <trkpt lat="48.40516" lon="7.3232">
        <ele>631</ele>
        <time>2020-09-06T13:33:22.253Z</time>
      </trkpt>
      <trkpt lat="48.40509" lon="7.32324">
        <ele>631</ele>
        <time>2020-09-06T13:33:23.253Z</time>
      </trkpt>
      <trkpt lat="48.40507" lon="7.32326">
        <ele>630</ele>
        <time>2020-09-06T13:33:24.253Z</time>
      </trkpt>
      <trkpt lat="48.40504" lon="7.32328">
        <ele>630</ele>
        <time>2020-09-06T13:33:25.252Z</time>
      </trkpt>
      <trkpt lat="48.40502" lon="7.32327">
        <ele>630</ele>
        <time>2020-09-06T13:33:26.253Z</time>
      </trkpt>
      <trkpt lat="48.405" lon="7.32324">
        <ele>629</ele>
        <time>2020-09-06T13:33:27.252Z</time>
      </trkpt>
      <trkpt lat="48.40499" lon="7.32322">
        <ele>629</ele>
        <time>2020-09-06T13:33:28.252Z</time>
      </trkpt>
      <trkpt lat="48.40498" lon="7.3232">
        <ele>629</ele>
        <time>2020-09-06T13:33:29.252Z</time>
      </trkpt>
      <trkpt lat="48.40498" lon="7.3232">
        <ele>629</ele>
        <time>2020-09-06T13:33:30.253Z</time>
      </trkpt>
      <trkpt lat="48.40497" lon="7.32319">
        <ele>628</ele>
        <time>2020-09-06T13:33:31.253Z</time>
      </trkpt>
      <trkpt lat="48.40496" lon="7.32318">
        <ele>628</ele>
        <time>2020-09-06T13:33:32.252Z</time>
      </trkpt>
      <trkpt lat="48.40495" lon="7.32318">
        <ele>628</ele>
        <time>2020-09-06T13:33:33.252Z</time>
      </trkpt>
      <trkpt lat="48.40495" lon="7.3232">
        <ele>627</ele>
        <time>2020-09-06T13:33:34.253Z</time>
      </trkpt>
      <trkpt lat="48.40494" lon="7.32321">
        <ele>627</ele>
        <time>2020-09-06T13:33:35.252Z</time>
      </trkpt>
      <trkpt lat="48.40494" lon="7.32321">
        <ele>626</ele>
        <time>2020-09-06T13:33:36.252Z</time>
      </trkpt>
      <trkpt lat="48.40492" lon="7.32322">
        <ele>626</ele>
        <time>2020-09-06T13:33:37.253Z</time>
      </trkpt>
      <trkpt lat="48.40491" lon="7.32322">
        <ele>625</ele>
        <time>2020-09-06T13:33:38.253Z</time>
      </trkpt>
      <trkpt lat="48.40489" lon="7.32323">
        <ele>625</ele>
        <time>2020-09-06T13:33:39.253Z</time>
      </trkpt>
      <trkpt lat="48.40488" lon="7.32323">
        <ele>625</ele>
        <time>2020-09-06T13:33:40.253Z</time>
      </trkpt>
      <trkpt lat="48.40487" lon="7.32324">
        <ele>625</ele>
        <time>2020-09-06T13:33:41.253Z</time>
      </trkpt>
      <trkpt lat="48.40486" lon="7.32324">
        <ele>626</ele>
        <time>2020-09-06T13:33:42.253Z</time>
      </trkpt>
      <trkpt lat="48.40485" lon="7.32324">
        <ele>626</ele>
        <time>2020-09-06T13:33:43.253Z</time>
      </trkpt>
      <trkpt lat="48.40484" lon="7.32324">
        <ele>627</ele>
        <time>2020-09-06T13:33:44.253Z</time>
      </trkpt>
      <trkpt lat="48.40484" lon="7.32325">
        <ele>627</ele>
        <time>2020-09-06T13:33:45.253Z</time>
      </trkpt>
      <trkpt lat="48.40482" lon="7.32325">
        <ele>627</ele>
        <time>2020-09-06T13:33:46.253Z</time>
      </trkpt>
      <trkpt lat="48.4048" lon="7.32325">
        <ele>628</ele>
        <time>2020-09-06T13:33:47.253Z</time>
      </trkpt>
      <trkpt lat="48.4048" lon="7.32325">
        <ele>628</ele>
        <time>2020-09-06T13:33:48.253Z</time>
      </trkpt>
      <trkpt lat="48.4048" lon="7.32324">
        <ele>628</ele>
        <time>2020-09-06T13:33:49.252Z</time>
      </trkpt>
      <trkpt lat="48.40479" lon="7.32324">
        <ele>628</ele>
        <time>2020-09-06T13:33:50.253Z</time>
      </trkpt>
      <trkpt lat="48.4048" lon="7.32324">
        <ele>628</ele>
        <time>2020-09-06T13:33:51.253Z</time>
      </trkpt>
      <trkpt lat="48.4048" lon="7.32323">
        <ele>628</ele>
        <time>2020-09-06T13:33:52.252Z</time>
      </trkpt>
      <trkpt lat="48.4048" lon="7.32324">
        <ele>628</ele>
        <time>2020-09-06T13:33:53.252Z</time>
      </trkpt>
      <trkpt lat="48.40481" lon="7.32324">
        <ele>628</ele>
        <time>2020-09-06T13:33:54.253Z</time>
      </trkpt>
      <trkpt lat="48.4048" lon="7.32323">
        <ele>628</ele>
        <time>2020-09-06T13:33:55.253Z</time>
      </trkpt>
      <trkpt lat="48.40479" lon="7.32323">
        <ele>629</ele>
        <time>2020-09-06T13:33:56.253Z</time>
      </trkpt>
      <trkpt lat="48.40478" lon="7.32324">
        <ele>629</ele>
        <time>2020-09-06T13:33:57.253Z</time>
      </trkpt>
      <trkpt lat="48.40477" lon="7.32324">
        <ele>629</ele>
        <time>2020-09-06T13:33:58.253Z</time>
      </trkpt>
      <trkpt lat="48.40476" lon="7.32324">
        <ele>629</ele>
        <time>2020-09-06T13:33:59.253Z</time>
      </trkpt>
      <trkpt lat="48.40475" lon="7.32324">
        <ele>630</ele>
        <time>2020-09-06T13:34:00.252Z</time>
      </trkpt>
      <trkpt lat="48.40473" lon="7.32325">
        <ele>630</ele>
        <time>2020-09-06T13:34:01.252Z</time>
      </trkpt>
      <trkpt lat="48.40473" lon="7.32325">
        <ele>631</ele>
        <time>2020-09-06T13:34:02.252Z</time>
      </trkpt>
      <trkpt lat="48.40471" lon="7.32326">
        <ele>631</ele>
        <time>2020-09-06T13:34:03.253Z</time>
      </trkpt>
      <trkpt lat="48.4047" lon="7.32326">
        <ele>632</ele>
        <time>2020-09-06T13:34:04.252Z</time>
      </trkpt>
      <trkpt lat="48.40468" lon="7.32326">
        <ele>633</ele>
        <time>2020-09-06T13:34:05.253Z</time>
      </trkpt>
      <trkpt lat="48.40466" lon="7.32326">
        <ele>634</ele>
        <time>2020-09-06T13:34:06.253Z</time>
      </trkpt>
      <trkpt lat="48.40465" lon="7.32327">
        <ele>635</ele>
        <time>2020-09-06T13:34:07.253Z</time>
      </trkpt>
      <trkpt lat="48.40464" lon="7.32326">
        <ele>635</ele>
        <time>2020-09-06T13:34:08.252Z</time>
      </trkpt>
      <trkpt lat="48.40463" lon="7.32326">
        <ele>635</ele>
        <time>2020-09-06T13:34:09.252Z</time>
      </trkpt>
      <trkpt lat="48.40462" lon="7.32324">
        <ele>635</ele>
        <time>2020-09-06T13:34:10.253Z</time>
      </trkpt>
      <trkpt lat="48.40462" lon="7.32323">
        <ele>635</ele>
        <time>2020-09-06T13:34:11.253Z</time>
      </trkpt>
      <trkpt lat="48.40461" lon="7.32323">
        <ele>635</ele>
        <time>2020-09-06T13:34:12.253Z</time>
      </trkpt>
      <trkpt lat="48.4046" lon="7.32323">
        <ele>634</ele>
        <time>2020-09-06T13:34:13.253Z</time>
      </trkpt>
      <trkpt lat="48.40459" lon="7.32322">
        <ele>634</ele>
        <time>2020-09-06T13:34:14.253Z</time>
      </trkpt>
      <trkpt lat="48.40459" lon="7.32322">
        <ele>633</ele>
        <time>2020-09-06T13:34:15.253Z</time>
      </trkpt>
      <trkpt lat="48.40458" lon="7.32322">
        <ele>632</ele>
        <time>2020-09-06T13:34:16.253Z</time>
      </trkpt>
      <trkpt lat="48.40458" lon="7.32321">
        <ele>631</ele>
        <time>2020-09-06T13:34:17.253Z</time>
      </trkpt>
      <trkpt lat="48.40457" lon="7.32321">
        <ele>630</ele>
        <time>2020-09-06T13:34:18.253Z</time>
      </trkpt>
      <trkpt lat="48.40456" lon="7.3232">
        <ele>630</ele>
        <time>2020-09-06T13:34:19.252Z</time>
      </trkpt>
      <trkpt lat="48.40456" lon="7.3232">
        <ele>629</ele>
        <time>2020-09-06T13:34:20.253Z</time>
      </trkpt>
      <trkpt lat="48.40455" lon="7.3232">
        <ele>629</ele>
        <time>2020-09-06T13:34:21.253Z</time>
      </trkpt>
      <trkpt lat="48.40454" lon="7.3232">
        <ele>629</ele>
        <time>2020-09-06T13:34:22.253Z</time>
      </trkpt>
      <trkpt lat="48.40453" lon="7.32321">
        <ele>629</ele>
        <time>2020-09-06T13:34:23.253Z</time>
      </trkpt>
      <trkpt lat="48.40453" lon="7.32322">
        <ele>629</ele>
        <time>2020-09-06T13:34:24.253Z</time>
      </trkpt>
      <trkpt lat="48.40452" lon="7.32322">
        <ele>629</ele>
        <time>2020-09-06T13:34:25.253Z</time>
      </trkpt>
      <trkpt lat="48.4045" lon="7.32322">
        <ele>629</ele>
        <time>2020-09-06T13:34:26.253Z</time>
      </trkpt>
      <trkpt lat="48.40449" lon="7.32322">
        <ele>628</ele>
        <time>2020-09-06T13:34:27.253Z</time>
      </trkpt>
      <trkpt lat="48.40447" lon="7.32322">
        <ele>628</ele>
        <time>2020-09-06T13:34:28.252Z</time>
      </trkpt>
      <trkpt lat="48.40445" lon="7.32323">
        <ele>628</ele>
        <time>2020-09-06T13:34:29.253Z</time>
      </trkpt>
      <trkpt lat="48.40443" lon="7.32324">
        <ele>628</ele>
        <time>2020-09-06T13:34:30.253Z</time>
      </trkpt>
      <trkpt lat="48.40441" lon="7.32324">
        <ele>628</ele>
        <time>2020-09-06T13:34:31.253Z</time>
      </trkpt>
      <trkpt lat="48.40439" lon="7.32325">
        <ele>628</ele>
        <time>2020-09-06T13:34:32.253Z</time>
      </trkpt>
      <trkpt lat="48.40438" lon="7.32325">
        <ele>628</ele>
        <time>2020-09-06T13:34:33.253Z</time>
      </trkpt>
      <trkpt lat="48.40436" lon="7.32325">
        <ele>628</ele>
        <time>2020-09-06T13:34:34.253Z</time>
      </trkpt>
      <trkpt lat="48.40434" lon="7.32325">
        <ele>629</ele>
        <time>2020-09-06T13:34:35.252Z</time>
      </trkpt>
      <trkpt lat="48.40432" lon="7.32326">
        <ele>629</ele>
        <time>2020-09-06T13:34:36.253Z</time>
      </trkpt>
      <trkpt lat="48.4043" lon="7.32326">
        <ele>629</ele>
        <time>2020-09-06T13:34:37.252Z</time>
      </trkpt>
      <trkpt lat="48.40427" lon="7.32327">
        <ele>630</ele>
        <time>2020-09-06T13:34:38.253Z</time>
      </trkpt>
      <trkpt lat="48.40426" lon="7.32328">
        <ele>631</ele>
        <time>2020-09-06T13:34:39.252Z</time>
      </trkpt>
      <trkpt lat="48.40423" lon="7.32329">
        <ele>632</ele>
        <time>2020-09-06T13:34:40.253Z</time>
      </trkpt>
      <trkpt lat="48.40422" lon="7.3233">
        <ele>633</ele>
        <time>2020-09-06T13:34:41.252Z</time>
      </trkpt>
      <trkpt lat="48.40421" lon="7.3233">
        <ele>634</ele>
        <time>2020-09-06T13:34:42.253Z</time>
      </trkpt>
      <trkpt lat="48.4042" lon="7.32329">
        <ele>634</ele>
        <time>2020-09-06T13:34:43.253Z</time>
      </trkpt>
      <trkpt lat="48.40419" lon="7.32328">
        <ele>634</ele>
        <time>2020-09-06T13:34:44.253Z</time>
      </trkpt>
      <trkpt lat="48.40418" lon="7.32327">
        <ele>634</ele>
        <time>2020-09-06T13:34:45.253Z</time>
      </trkpt>
      <trkpt lat="48.40416" lon="7.32326">
        <ele>633</ele>
        <time>2020-09-06T13:34:46.253Z</time>
      </trkpt>
      <trkpt lat="48.40415" lon="7.32325">
        <ele>633</ele>
        <time>2020-09-06T13:34:47.252Z</time>
      </trkpt>
      <trkpt lat="48.40415" lon="7.32325">
        <ele>632</ele>
        <time>2020-09-06T13:34:48.253Z</time>
      </trkpt>
      <trkpt lat="48.40414" lon="7.32325">
        <ele>632</ele>
        <time>2020-09-06T13:34:49.253Z</time>
      </trkpt>
      <trkpt lat="48.40413" lon="7.32325">
        <ele>631</ele>
        <time>2020-09-06T13:34:50.253Z</time>
      </trkpt>
      <trkpt lat="48.40411" lon="7.32324">
        <ele>631</ele>
        <time>2020-09-06T13:34:51.253Z</time>
      </trkpt>
      <trkpt lat="48.40411" lon="7.32324">
        <ele>631</ele>
        <time>2020-09-06T13:34:52.253Z</time>
      </trkpt>
      <trkpt lat="48.40411" lon="7.32323">
        <ele>630</ele>
        <time>2020-09-06T13:34:53.253Z</time>
      </trkpt>
      <trkpt lat="48.4041" lon="7.32323">
        <ele>630</ele>
        <time>2020-09-06T13:34:54.253Z</time>
      </trkpt>
      <trkpt lat="48.4041" lon="7.32324">
        <ele>629</ele>
        <time>2020-09-06T13:34:55.253Z</time>
      </trkpt>
      <trkpt lat="48.40409" lon="7.32325">
        <ele>629</ele>
        <time>2020-09-06T13:34:56.253Z</time>
      </trkpt>
      <trkpt lat="48.40408" lon="7.32326">
        <ele>628</ele>
        <time>2020-09-06T13:34:57.253Z</time>
      </trkpt>
      <trkpt lat="48.40407" lon="7.32327">
        <ele>629</ele>
        <time>2020-09-06T13:34:58.253Z</time>
      </trkpt>
      <trkpt lat="48.40406" lon="7.32328">
        <ele>629</ele>
        <time>2020-09-06T13:34:59.253Z</time>
      </trkpt>
      <trkpt lat="48.40404" lon="7.32328">
        <ele>630</ele>
        <time>2020-09-06T13:35:00.253Z</time>
      </trkpt>
      <trkpt lat="48.40403" lon="7.32329">
        <ele>630</ele>
        <time>2020-09-06T13:35:01.253Z</time>
      </trkpt>
      <trkpt lat="48.40402" lon="7.32329">
        <ele>630</ele>
        <time>2020-09-06T13:35:02.253Z</time>
      </trkpt>
      <trkpt lat="48.40401" lon="7.32329">
        <ele>630</ele>
        <time>2020-09-06T13:35:03.253Z</time>
      </trkpt>
      <trkpt lat="48.404" lon="7.32329">
        <ele>630</ele>
        <time>2020-09-06T13:35:04.253Z</time>
      </trkpt>
      <trkpt lat="48.40399" lon="7.32329">
        <ele>631</ele>
        <time>2020-09-06T13:35:05.252Z</time>
      </trkpt>
      <trkpt lat="48.40398" lon="7.32329">
        <ele>631</ele>
        <time>2020-09-06T13:35:06.253Z</time>
      </trkpt>
      <trkpt lat="48.40398" lon="7.32328">
        <ele>631</ele>
        <time>2020-09-06T13:35:07.252Z</time>
      </trkpt>
      <trkpt lat="48.40398" lon="7.32327">
        <ele>632</ele>
        <time>2020-09-06T13:35:08.253Z</time>
      </trkpt>
      <trkpt lat="48.40399" lon="7.32326">
        <ele>632</ele>
        <time>2020-09-06T13:35:09.252Z</time>
      </trkpt>
      <trkpt lat="48.40398" lon="7.32325">
        <ele>632</ele>
        <time>2020-09-06T13:35:10.253Z</time>
      </trkpt>
      <trkpt lat="48.40398" lon="7.32325">
        <ele>631</ele>
        <time>2020-09-06T13:35:11.252Z</time>
      </trkpt>
      <trkpt lat="48.40397" lon="7.32326">
        <ele>631</ele>
        <time>2020-09-06T13:35:12.252Z</time>
      </trkpt>
      <trkpt lat="48.40396" lon="7.32326">
        <ele>631</ele>
        <time>2020-09-06T13:35:13.253Z</time>
      </trkpt>
      <trkpt lat="48.40394" lon="7.32326">
        <ele>631</ele>
        <time>2020-09-06T13:35:14.252Z</time>
      </trkpt>
      <trkpt lat="48.40393" lon="7.32327">
        <ele>631</ele>
        <time>2020-09-06T13:35:15.253Z</time>
      </trkpt>
      <trkpt lat="48.40391" lon="7.32327">
        <ele>630</ele>
        <time>2020-09-06T13:35:16.253Z</time>
      </trkpt>
      <trkpt lat="48.4039" lon="7.32327">
        <ele>630</ele>
        <time>2020-09-06T13:35:17.253Z</time>
      </trkpt>
      <trkpt lat="48.40389" lon="7.32327">
        <ele>629</ele>
        <time>2020-09-06T13:35:18.253Z</time>
      </trkpt>
      <trkpt lat="48.40388" lon="7.32327">
        <ele>629</ele>
        <time>2020-09-06T13:35:19.253Z</time>
      </trkpt>
      <trkpt lat="48.40386" lon="7.32327">
        <ele>628</ele>
        <time>2020-09-06T13:35:20.253Z</time>
      </trkpt>
      <trkpt lat="48.40385" lon="7.32326">
        <ele>627</ele>
        <time>2020-09-06T13:35:21.252Z</time>
      </trkpt>
      <trkpt lat="48.40385" lon="7.32326">
        <ele>626</ele>
        <time>2020-09-06T13:35:22.253Z</time>
      </trkpt>
      <trkpt lat="48.40384" lon="7.32327">
        <ele>625</ele>
        <time>2020-09-06T13:35:23.253Z</time>
      </trkpt>
      <trkpt lat="48.40383" lon="7.32328">
        <ele>624</ele>
        <time>2020-09-06T13:35:24.252Z</time>
      </trkpt>
      <trkpt lat="48.40382" lon="7.32329">
        <ele>624</ele>
        <time>2020-09-06T13:35:25.253Z</time>
      </trkpt>
      <trkpt lat="48.40382" lon="7.3233">
        <ele>624</ele>
        <time>2020-09-06T13:35:26.253Z</time>
      </trkpt>
      <trkpt lat="48.40381" lon="7.32332">
        <ele>623</ele>
        <time>2020-09-06T13:35:27.253Z</time>
      </trkpt>
      <trkpt lat="48.4038" lon="7.32332">
        <ele>623</ele>
        <time>2020-09-06T13:35:28.252Z</time>
      </trkpt>
      <trkpt lat="48.4038" lon="7.32333">
        <ele>623</ele>
        <time>2020-09-06T13:35:29.253Z</time>
      </trkpt>
      <trkpt lat="48.4038" lon="7.32334">
        <ele>623</ele>
        <time>2020-09-06T13:35:30.253Z</time>
      </trkpt>
      <trkpt lat="48.40378" lon="7.32335">
        <ele>623</ele>
        <time>2020-09-06T13:35:31.253Z</time>
      </trkpt>
      <trkpt lat="48.40377" lon="7.32336">
        <ele>623</ele>
        <time>2020-09-06T13:35:32.252Z</time>
      </trkpt>
      <trkpt lat="48.40375" lon="7.32337">
        <ele>623</ele>
        <time>2020-09-06T13:35:33.253Z</time>
      </trkpt>
      <trkpt lat="48.40374" lon="7.32338">
        <ele>623</ele>
        <time>2020-09-06T13:35:34.253Z</time>
      </trkpt>
      <trkpt lat="48.40373" lon="7.32339">
        <ele>624</ele>
        <time>2020-09-06T13:35:35.253Z</time>
      </trkpt>
      <trkpt lat="48.40372" lon="7.3234">
        <ele>624</ele>
        <time>2020-09-06T13:35:36.253Z</time>
      </trkpt>
      <trkpt lat="48.40372" lon="7.32341">
        <ele>624</ele>
        <time>2020-09-06T13:35:37.252Z</time>
      </trkpt>
      <trkpt lat="48.4037" lon="7.32341">
        <ele>624</ele>
        <time>2020-09-06T13:35:38.253Z</time>
      </trkpt>
      <trkpt lat="48.40369" lon="7.3234">
        <ele>624</ele>
        <time>2020-09-06T13:35:39.253Z</time>
      </trkpt>
      <trkpt lat="48.40367" lon="7.3234">
        <ele>623</ele>
        <time>2020-09-06T13:35:40.253Z</time>
      </trkpt>
      <trkpt lat="48.40366" lon="7.3234">
        <ele>623</ele>
        <time>2020-09-06T13:35:41.252Z</time>
      </trkpt>
      <trkpt lat="48.40366" lon="7.3234">
        <ele>622</ele>
        <time>2020-09-06T13:35:42.253Z</time>
      </trkpt>
      <trkpt lat="48.40366" lon="7.3234">
        <ele>621</ele>
        <time>2020-09-06T13:35:43.252Z</time>
      </trkpt>
      <trkpt lat="48.40366" lon="7.3234">
        <ele>620</ele>
        <time>2020-09-06T13:35:44.253Z</time>
      </trkpt>
      <trkpt lat="48.40366" lon="7.3234">
        <ele>619</ele>
        <time>2020-09-06T13:35:45.253Z</time>
      </trkpt>
      <trkpt lat="48.40366" lon="7.32341">
        <ele>618</ele>
        <time>2020-09-06T13:35:46.252Z</time>
      </trkpt>
      <trkpt lat="48.40366" lon="7.32342">
        <ele>617</ele>
        <time>2020-09-06T13:35:47.252Z</time>
      </trkpt>
      <trkpt lat="48.40365" lon="7.32343">
        <ele>616</ele>
        <time>2020-09-06T13:35:48.252Z</time>
      </trkpt>
      <trkpt lat="48.40364" lon="7.32344">
        <ele>615</ele>
        <time>2020-09-06T13:35:49.253Z</time>
      </trkpt>
      <trkpt lat="48.40363" lon="7.32345">
        <ele>614</ele>
        <time>2020-09-06T13:35:50.252Z</time>
      </trkpt>
      <trkpt lat="48.40363" lon="7.32346">
        <ele>614</ele>
        <time>2020-09-06T13:35:51.253Z</time>
      </trkpt>
      <trkpt lat="48.40363" lon="7.32347">
        <ele>613</ele>
        <time>2020-09-06T13:35:52.252Z</time>
      </trkpt>
      <trkpt lat="48.40362" lon="7.32348">
        <ele>613</ele>
        <time>2020-09-06T13:35:53.253Z</time>
      </trkpt>
      <trkpt lat="48.40362" lon="7.3235">
        <ele>612</ele>
        <time>2020-09-06T13:35:54.253Z</time>
      </trkpt>
      <trkpt lat="48.40361" lon="7.32351">
        <ele>611</ele>
        <time>2020-09-06T13:35:55.252Z</time>
      </trkpt>
      <trkpt lat="48.40361" lon="7.32353">
        <ele>611</ele>
        <time>2020-09-06T13:35:56.253Z</time>
      </trkpt>
      <trkpt lat="48.4036" lon="7.32354">
        <ele>610</ele>
        <time>2020-09-06T13:35:57.253Z</time>
      </trkpt>
      <trkpt lat="48.4036" lon="7.32356">
        <ele>609</ele>
        <time>2020-09-06T13:35:58.253Z</time>
      </trkpt>
      <trkpt lat="48.4036" lon="7.32357">
        <ele>609</ele>
        <time>2020-09-06T13:35:59.253Z</time>
      </trkpt>
      <trkpt lat="48.40359" lon="7.32358">
        <ele>608</ele>
        <time>2020-09-06T13:36:00.252Z</time>
      </trkpt>
      <trkpt lat="48.40359" lon="7.3236">
        <ele>608</ele>
        <time>2020-09-06T13:36:01.252Z</time>
      </trkpt>
      <trkpt lat="48.40359" lon="7.32362">
        <ele>607</ele>
        <time>2020-09-06T13:36:02.253Z</time>
      </trkpt>
      <trkpt lat="48.40359" lon="7.32364">
        <ele>607</ele>
        <time>2020-09-06T13:36:03.252Z</time>
      </trkpt>
      <trkpt lat="48.40359" lon="7.32366">
        <ele>607</ele>
        <time>2020-09-06T13:36:04.253Z</time>
      </trkpt>
      <trkpt lat="48.40358" lon="7.32368">
        <ele>607</ele>
        <time>2020-09-06T13:36:05.252Z</time>
      </trkpt>
      <trkpt lat="48.40358" lon="7.32369">
        <ele>607</ele>
        <time>2020-09-06T13:36:06.252Z</time>
      </trkpt>
      <trkpt lat="48.40358" lon="7.3237">
        <ele>606</ele>
        <time>2020-09-06T13:36:07.253Z</time>
      </trkpt>
      <trkpt lat="48.40358" lon="7.32372">
        <ele>606</ele>
        <time>2020-09-06T13:36:08.252Z</time>
      </trkpt>
      <trkpt lat="48.40357" lon="7.32373">
        <ele>606</ele>
        <time>2020-09-06T13:36:09.253Z</time>
      </trkpt>
      <trkpt lat="48.40357" lon="7.32375">
        <ele>606</ele>
        <time>2020-09-06T13:36:10.253Z</time>
      </trkpt>
      <trkpt lat="48.40356" lon="7.32376">
        <ele>606</ele>
        <time>2020-09-06T13:36:11.253Z</time>
      </trkpt>
      <trkpt lat="48.40356" lon="7.32378">
        <ele>606</ele>
        <time>2020-09-06T13:36:12.253Z</time>
      </trkpt>
      <trkpt lat="48.40356" lon="7.32379">
        <ele>605</ele>
        <time>2020-09-06T13:36:13.253Z</time>
      </trkpt>
      <trkpt lat="48.40355" lon="7.32381">
        <ele>605</ele>
        <time>2020-09-06T13:36:14.252Z</time>
      </trkpt>
      <trkpt lat="48.40355" lon="7.32383">
        <ele>605</ele>
        <time>2020-09-06T13:36:15.253Z</time>
      </trkpt>
      <trkpt lat="48.40355" lon="7.32384">
        <ele>605</ele>
        <time>2020-09-06T13:36:16.253Z</time>
      </trkpt>
      <trkpt lat="48.40355" lon="7.32385">
        <ele>605</ele>
        <time>2020-09-06T13:36:17.252Z</time>
      </trkpt>
      <trkpt lat="48.40355" lon="7.32386">
        <ele>604</ele>
        <time>2020-09-06T13:36:18.252Z</time>
      </trkpt>
      <trkpt lat="48.40355" lon="7.32387">
        <ele>604</ele>
        <time>2020-09-06T13:36:19.253Z</time>
      </trkpt>
      <trkpt lat="48.40355" lon="7.32388">
        <ele>603</ele>
        <time>2020-09-06T13:36:20.252Z</time>
      </trkpt>
      <trkpt lat="48.40354" lon="7.32389">
        <ele>602</ele>
        <time>2020-09-06T13:36:21.252Z</time>
      </trkpt>
      <trkpt lat="48.40353" lon="7.32391">
        <ele>602</ele>
        <time>2020-09-06T13:36:22.253Z</time>
      </trkpt>
      <trkpt lat="48.40353" lon="7.32392">
        <ele>602</ele>
        <time>2020-09-06T13:36:23.253Z</time>
      </trkpt>
      <trkpt lat="48.40353" lon="7.32394">
        <ele>602</ele>
        <time>2020-09-06T13:36:24.253Z</time>
      </trkpt>
      <trkpt lat="48.40352" lon="7.32395">
        <ele>602</ele>
        <time>2020-09-06T13:36:25.253Z</time>
      </trkpt>
      <trkpt lat="48.40351" lon="7.32396">
        <ele>601</ele>
        <time>2020-09-06T13:36:26.253Z</time>
      </trkpt>
      <trkpt lat="48.40351" lon="7.32398">
        <ele>601</ele>
        <time>2020-09-06T13:36:27.253Z</time>
      </trkpt>
      <trkpt lat="48.40351" lon="7.32399">
        <ele>601</ele>
        <time>2020-09-06T13:36:28.252Z</time>
      </trkpt>
      <trkpt lat="48.4035" lon="7.32401">
        <ele>601</ele>
        <time>2020-09-06T13:36:29.253Z</time>
      </trkpt>
      <trkpt lat="48.4035" lon="7.32403">
        <ele>600</ele>
        <time>2020-09-06T13:36:30.252Z</time>
      </trkpt>
      <trkpt lat="48.40349" lon="7.32404">
        <ele>600</ele>
        <time>2020-09-06T13:36:31.252Z</time>
      </trkpt>
      <trkpt lat="48.40348" lon="7.32406">
        <ele>601</ele>
        <time>2020-09-06T13:36:32.253Z</time>
      </trkpt>
      <trkpt lat="48.40348" lon="7.32406">
        <ele>601</ele>
        <time>2020-09-06T13:36:33.253Z</time>
      </trkpt>
      <trkpt lat="48.40347" lon="7.32407">
        <ele>601</ele>
        <time>2020-09-06T13:36:34.253Z</time>
      </trkpt>
      <trkpt lat="48.40347" lon="7.32407">
        <ele>601</ele>
        <time>2020-09-06T13:36:35.252Z</time>
      </trkpt>
      <trkpt lat="48.40347" lon="7.32408">
        <ele>601</ele>
        <time>2020-09-06T13:36:36.252Z</time>
      </trkpt>
      <trkpt lat="48.40347" lon="7.32408">
        <ele>601</ele>
        <time>2020-09-06T13:36:37.252Z</time>
      </trkpt>
      <trkpt lat="48.40346" lon="7.32409">
        <ele>601</ele>
        <time>2020-09-06T13:36:38.253Z</time>
      </trkpt>
      <trkpt lat="48.40346" lon="7.3241">
        <ele>601</ele>
        <time>2020-09-06T13:36:39.253Z</time>
      </trkpt>
      <trkpt lat="48.40346" lon="7.32411">
        <ele>601</ele>
        <time>2020-09-06T13:36:40.252Z</time>
      </trkpt>
      <trkpt lat="48.40346" lon="7.32411">
        <ele>601</ele>
        <time>2020-09-06T13:36:41.252Z</time>
      </trkpt>
      <trkpt lat="48.40346" lon="7.32412">
        <ele>602</ele>
        <time>2020-09-06T13:36:42.252Z</time>
      </trkpt>
      <trkpt lat="48.40345" lon="7.32411">
        <ele>602</ele>
        <time>2020-09-06T13:36:43.253Z</time>
      </trkpt>
      <trkpt lat="48.40345" lon="7.32413">
        <ele>603</ele>
        <time>2020-09-06T13:36:44.253Z</time>
      </trkpt>
      <trkpt lat="48.40345" lon="7.32414">
        <ele>603</ele>
        <time>2020-09-06T13:36:45.253Z</time>
      </trkpt>
      <trkpt lat="48.40344" lon="7.32415">
        <ele>603</ele>
        <time>2020-09-06T13:36:46.253Z</time>
      </trkpt>
      <trkpt lat="48.40344" lon="7.32416">
        <ele>602</ele>
        <time>2020-09-06T13:36:47.253Z</time>
      </trkpt>
      <trkpt lat="48.40344" lon="7.32418">
        <ele>602</ele>
        <time>2020-09-06T13:36:48.253Z</time>
      </trkpt>
      <trkpt lat="48.40343" lon="7.32419">
        <ele>602</ele>
        <time>2020-09-06T13:36:49.252Z</time>
      </trkpt>
      <trkpt lat="48.40343" lon="7.32421">
        <ele>602</ele>
        <time>2020-09-06T13:36:50.253Z</time>
      </trkpt>
      <trkpt lat="48.40342" lon="7.32422">
        <ele>602</ele>
        <time>2020-09-06T13:36:51.252Z</time>
      </trkpt>
      <trkpt lat="48.40342" lon="7.32424">
        <ele>602</ele>
        <time>2020-09-06T13:36:52.253Z</time>
      </trkpt>
      <trkpt lat="48.40342" lon="7.32426">
        <ele>602</ele>
        <time>2020-09-06T13:36:53.253Z</time>
      </trkpt>
      <trkpt lat="48.40342" lon="7.32428">
        <ele>602</ele>
        <time>2020-09-06T13:36:54.253Z</time>
      </trkpt>
      <trkpt lat="48.40342" lon="7.3243">
        <ele>602</ele>
        <time>2020-09-06T13:36:55.253Z</time>
      </trkpt>
      <trkpt lat="48.40342" lon="7.32432">
        <ele>602</ele>
        <time>2020-09-06T13:36:56.253Z</time>
      </trkpt>
      <trkpt lat="48.40341" lon="7.32434">
        <ele>602</ele>
        <time>2020-09-06T13:36:57.252Z</time>
      </trkpt>
      <trkpt lat="48.40341" lon="7.32435">
        <ele>602</ele>
        <time>2020-09-06T13:36:58.252Z</time>
      </trkpt>
      <trkpt lat="48.40341" lon="7.32437">
        <ele>602</ele>
        <time>2020-09-06T13:36:59.253Z</time>
      </trkpt>
      <trkpt lat="48.4034" lon="7.32439">
        <ele>602</ele>
        <time>2020-09-06T13:37:00.253Z</time>
      </trkpt>
      <trkpt lat="48.4034" lon="7.32441">
        <ele>602</ele>
        <time>2020-09-06T13:37:01.253Z</time>
      </trkpt>
      <trkpt lat="48.40339" lon="7.32444">
        <ele>602</ele>
        <time>2020-09-06T13:37:02.253Z</time>
      </trkpt>
      <trkpt lat="48.40339" lon="7.32447">
        <ele>602</ele>
        <time>2020-09-06T13:37:03.253Z</time>
      </trkpt>
      <trkpt lat="48.40339" lon="7.32449">
        <ele>602</ele>
        <time>2020-09-06T13:37:04.252Z</time>
      </trkpt>
      <trkpt lat="48.40339" lon="7.32451">
        <ele>601</ele>
        <time>2020-09-06T13:37:05.253Z</time>
      </trkpt>
      <trkpt lat="48.40338" lon="7.32453">
        <ele>601</ele>
        <time>2020-09-06T13:37:06.252Z</time>
      </trkpt>
      <trkpt lat="48.40338" lon="7.32455">
        <ele>601</ele>
        <time>2020-09-06T13:37:07.253Z</time>
      </trkpt>
      <trkpt lat="48.40338" lon="7.32457">
        <ele>600</ele>
        <time>2020-09-06T13:37:08.253Z</time>
      </trkpt>
      <trkpt lat="48.40338" lon="7.32458">
        <ele>600</ele>
        <time>2020-09-06T13:37:09.252Z</time>
      </trkpt>
      <trkpt lat="48.40337" lon="7.32459">
        <ele>600</ele>
        <time>2020-09-06T13:37:10.252Z</time>
      </trkpt>
      <trkpt lat="48.40337" lon="7.32461">
        <ele>600</ele>
        <time>2020-09-06T13:37:11.253Z</time>
      </trkpt>
      <trkpt lat="48.40337" lon="7.32464">
        <ele>601</ele>
        <time>2020-09-06T13:37:12.253Z</time>
      </trkpt>
      <trkpt lat="48.40337" lon="7.32465">
        <ele>601</ele>
        <time>2020-09-06T13:37:13.253Z</time>
      </trkpt>
      <trkpt lat="48.40336" lon="7.32467">
        <ele>600</ele>
        <time>2020-09-06T13:37:14.253Z</time>
      </trkpt>
      <trkpt lat="48.40336" lon="7.32469">
        <ele>600</ele>
        <time>2020-09-06T13:37:15.252Z</time>
      </trkpt>
      <trkpt lat="48.40335" lon="7.3247">
        <ele>600</ele>
        <time>2020-09-06T13:37:16.253Z</time>
      </trkpt>
      <trkpt lat="48.40335" lon="7.32472">
        <ele>599</ele>
        <time>2020-09-06T13:37:17.252Z</time>
      </trkpt>
      <trkpt lat="48.40335" lon="7.32474">
        <ele>599</ele>
        <time>2020-09-06T13:37:18.253Z</time>
      </trkpt>
      <trkpt lat="48.40335" lon="7.32476">
        <ele>599</ele>
        <time>2020-09-06T13:37:19.253Z</time>
      </trkpt>
      <trkpt lat="48.40336" lon="7.32477">
        <ele>598</ele>
        <time>2020-09-06T13:37:20.252Z</time>
      </trkpt>
      <trkpt lat="48.40335" lon="7.32479">
        <ele>598</ele>
        <time>2020-09-06T13:37:21.253Z</time>
      </trkpt>
      <trkpt lat="48.40335" lon="7.32481">
        <ele>597</ele>
        <time>2020-09-06T13:37:22.253Z</time>
      </trkpt>
      <trkpt lat="48.40334" lon="7.32482">
        <ele>597</ele>
        <time>2020-09-06T13:37:23.253Z</time>
      </trkpt>
      <trkpt lat="48.40334" lon="7.32483">
        <ele>597</ele>
        <time>2020-09-06T13:37:24.252Z</time>
      </trkpt>
      <trkpt lat="48.40334" lon="7.32485">
        <ele>596</ele>
        <time>2020-09-06T13:37:25.252Z</time>
      </trkpt>
      <trkpt lat="48.40334" lon="7.32486">
        <ele>596</ele>
        <time>2020-09-06T13:37:26.253Z</time>
      </trkpt>
      <trkpt lat="48.40334" lon="7.32487">
        <ele>595</ele>
        <time>2020-09-06T13:37:27.253Z</time>
      </trkpt>
      <trkpt lat="48.40334" lon="7.32489">
        <ele>595</ele>
        <time>2020-09-06T13:37:28.253Z</time>
      </trkpt>
      <trkpt lat="48.40334" lon="7.32491">
        <ele>594</ele>
        <time>2020-09-06T13:37:29.253Z</time>
      </trkpt>
      <trkpt lat="48.40334" lon="7.32492">
        <ele>594</ele>
        <time>2020-09-06T13:37:30.253Z</time>
      </trkpt>
      <trkpt lat="48.40335" lon="7.32494">
        <ele>595</ele>
        <time>2020-09-06T13:37:31.252Z</time>
      </trkpt>
      <trkpt lat="48.40335" lon="7.32496">
        <ele>595</ele>
        <time>2020-09-06T13:37:32.253Z</time>
      </trkpt>
      <trkpt lat="48.40335" lon="7.32498">
        <ele>595</ele>
        <time>2020-09-06T13:37:33.253Z</time>
      </trkpt>
      <trkpt lat="48.40335" lon="7.32499">
        <ele>595</ele>
        <time>2020-09-06T13:37:34.253Z</time>
      </trkpt>
      <trkpt lat="48.40335" lon="7.32501">
        <ele>595</ele>
        <time>2020-09-06T13:37:35.252Z</time>
      </trkpt>
      <trkpt lat="48.40336" lon="7.32502">
        <ele>595</ele>
        <time>2020-09-06T13:37:36.253Z</time>
      </trkpt>
      <trkpt lat="48.40336" lon="7.32504">
        <ele>595</ele>
        <time>2020-09-06T13:37:37.253Z</time>
      </trkpt>
      <trkpt lat="48.40336" lon="7.32505">
        <ele>596</ele>
        <time>2020-09-06T13:37:38.253Z</time>
      </trkpt>
      <trkpt lat="48.40336" lon="7.32507">
        <ele>595</ele>
        <time>2020-09-06T13:37:39.253Z</time>
      </trkpt>
      <trkpt lat="48.40337" lon="7.32509">
        <ele>595</ele>
        <time>2020-09-06T13:37:40.252Z</time>
      </trkpt>
      <trkpt lat="48.40339" lon="7.32512">
        <ele>595</ele>
        <time>2020-09-06T13:37:41.253Z</time>
      </trkpt>
      <trkpt lat="48.40339" lon="7.32514">
        <ele>595</ele>
        <time>2020-09-06T13:37:42.252Z</time>
      </trkpt>
      <trkpt lat="48.40339" lon="7.32516">
        <ele>595</ele>
        <time>2020-09-06T13:37:43.253Z</time>
      </trkpt>
      <trkpt lat="48.4034" lon="7.32517">
        <ele>595</ele>
        <time>2020-09-06T13:37:44.252Z</time>
      </trkpt>
      <trkpt lat="48.4034" lon="7.32519">
        <ele>595</ele>
        <time>2020-09-06T13:37:45.253Z</time>
      </trkpt>
      <trkpt lat="48.4034" lon="7.32521">
        <ele>594</ele>
        <time>2020-09-06T13:37:46.253Z</time>
      </trkpt>
      <trkpt lat="48.4034" lon="7.32523">
        <ele>594</ele>
        <time>2020-09-06T13:37:47.253Z</time>
      </trkpt>
      <trkpt lat="48.40341" lon="7.32526">
        <ele>593</ele>
        <time>2020-09-06T13:37:48.253Z</time>
      </trkpt>
      <trkpt lat="48.40341" lon="7.32527">
        <ele>593</ele>
        <time>2020-09-06T13:37:49.253Z</time>
      </trkpt>
      <trkpt lat="48.40341" lon="7.32529">
        <ele>592</ele>
        <time>2020-09-06T13:37:50.253Z</time>
      </trkpt>
      <trkpt lat="48.40341" lon="7.32531">
        <ele>592</ele>
        <time>2020-09-06T13:37:51.252Z</time>
      </trkpt>
      <trkpt lat="48.40341" lon="7.32533">
        <ele>592</ele>
        <time>2020-09-06T13:37:52.253Z</time>
      </trkpt>
      <trkpt lat="48.40342" lon="7.32535">
        <ele>591</ele>
        <time>2020-09-06T13:37:53.252Z</time>
      </trkpt>
      <trkpt lat="48.40342" lon="7.32537">
        <ele>591</ele>
        <time>2020-09-06T13:37:54.253Z</time>
      </trkpt>
      <trkpt lat="48.40342" lon="7.32539">
        <ele>591</ele>
        <time>2020-09-06T13:37:55.253Z</time>
      </trkpt>
      <trkpt lat="48.40342" lon="7.3254">
        <ele>591</ele>
        <time>2020-09-06T13:37:56.252Z</time>
      </trkpt>
      <trkpt lat="48.40343" lon="7.32542">
        <ele>591</ele>
        <time>2020-09-06T13:37:57.253Z</time>
      </trkpt>
      <trkpt lat="48.40343" lon="7.32544">
        <ele>591</ele>
        <time>2020-09-06T13:37:58.253Z</time>
      </trkpt>
      <trkpt lat="48.40343" lon="7.32546">
        <ele>591</ele>
        <time>2020-09-06T13:37:59.253Z</time>
      </trkpt>
      <trkpt lat="48.40343" lon="7.32549">
        <ele>591</ele>
        <time>2020-09-06T13:38:00.253Z</time>
      </trkpt>
      <trkpt lat="48.40343" lon="7.32551">
        <ele>591</ele>
        <time>2020-09-06T13:38:01.253Z</time>
      </trkpt>
      <trkpt lat="48.40343" lon="7.32553">
        <ele>591</ele>
        <time>2020-09-06T13:38:02.253Z</time>
      </trkpt>
      <trkpt lat="48.40343" lon="7.32556">
        <ele>590</ele>
        <time>2020-09-06T13:38:03.253Z</time>
      </trkpt>
      <trkpt lat="48.40343" lon="7.32557">
        <ele>590</ele>
        <time>2020-09-06T13:38:04.253Z</time>
      </trkpt>
      <trkpt lat="48.40343" lon="7.32559">
        <ele>589</ele>
        <time>2020-09-06T13:38:05.253Z</time>
      </trkpt>
      <trkpt lat="48.40343" lon="7.32561">
        <ele>589</ele>
        <time>2020-09-06T13:38:06.253Z</time>
      </trkpt>
      <trkpt lat="48.40343" lon="7.32563">
        <ele>589</ele>
        <time>2020-09-06T13:38:07.252Z</time>
      </trkpt>
      <trkpt lat="48.40343" lon="7.32564">
        <ele>588</ele>
        <time>2020-09-06T13:38:08.252Z</time>
      </trkpt>
      <trkpt lat="48.40343" lon="7.32566">
        <ele>588</ele>
        <time>2020-09-06T13:38:09.253Z</time>
      </trkpt>
      <trkpt lat="48.40343" lon="7.32568">
        <ele>588</ele>
        <time>2020-09-06T13:38:10.253Z</time>
      </trkpt>
      <trkpt lat="48.40343" lon="7.3257">
        <ele>588</ele>
        <time>2020-09-06T13:38:11.253Z</time>
      </trkpt>
      <trkpt lat="48.40343" lon="7.32571">
        <ele>588</ele>
        <time>2020-09-06T13:38:12.253Z</time>
      </trkpt>
      <trkpt lat="48.40342" lon="7.32573">
        <ele>589</ele>
        <time>2020-09-06T13:38:13.252Z</time>
      </trkpt>
      <trkpt lat="48.40342" lon="7.32575">
        <ele>589</ele>
        <time>2020-09-06T13:38:14.253Z</time>
      </trkpt>
      <trkpt lat="48.40342" lon="7.32576">
        <ele>589</ele>
        <time>2020-09-06T13:38:15.253Z</time>
      </trkpt>
      <trkpt lat="48.40343" lon="7.32578">
        <ele>589</ele>
        <time>2020-09-06T13:38:16.253Z</time>
      </trkpt>
      <trkpt lat="48.40342" lon="7.3258">
        <ele>590</ele>
        <time>2020-09-06T13:38:17.253Z</time>
      </trkpt>
      <trkpt lat="48.40342" lon="7.32582">
        <ele>590</ele>
        <time>2020-09-06T13:38:18.252Z</time>
      </trkpt>
      <trkpt lat="48.40342" lon="7.32583">
        <ele>590</ele>
        <time>2020-09-06T13:38:19.253Z</time>
      </trkpt>
      <trkpt lat="48.40342" lon="7.32585">
        <ele>590</ele>
        <time>2020-09-06T13:38:20.253Z</time>
      </trkpt>
      <trkpt lat="48.40342" lon="7.32587">
        <ele>591</ele>
        <time>2020-09-06T13:38:21.253Z</time>
      </trkpt>
      <trkpt lat="48.40342" lon="7.32588">
        <ele>591</ele>
        <time>2020-09-06T13:38:22.252Z</time>
      </trkpt>
      <trkpt lat="48.40341" lon="7.3259">
        <ele>591</ele>
        <time>2020-09-06T13:38:23.253Z</time>
      </trkpt>
      <trkpt lat="48.40341" lon="7.32592">
        <ele>591</ele>
        <time>2020-09-06T13:38:24.252Z</time>
      </trkpt>
      <trkpt lat="48.40341" lon="7.32593">
        <ele>590</ele>
        <time>2020-09-06T13:38:25.253Z</time>
      </trkpt>
      <trkpt lat="48.4034" lon="7.32595">
        <ele>590</ele>
        <time>2020-09-06T13:38:26.253Z</time>
      </trkpt>
      <trkpt lat="48.4034" lon="7.32596">
        <ele>590</ele>
        <time>2020-09-06T13:38:27.253Z</time>
      </trkpt>
      <trkpt lat="48.40339" lon="7.32597">
        <ele>590</ele>
        <time>2020-09-06T13:38:28.253Z</time>
      </trkpt>
      <trkpt lat="48.40339" lon="7.32598">
        <ele>590</ele>
        <time>2020-09-06T13:38:29.253Z</time>
      </trkpt>
      <trkpt lat="48.40339" lon="7.32599">
        <ele>590</ele>
        <time>2020-09-06T13:38:30.253Z</time>
      </trkpt>
      <trkpt lat="48.40338" lon="7.326">
        <ele>590</ele>
        <time>2020-09-06T13:38:31.253Z</time>
      </trkpt>
      <trkpt lat="48.40338" lon="7.32601">
        <ele>590</ele>
        <time>2020-09-06T13:38:32.253Z</time>
      </trkpt>
      <trkpt lat="48.40338" lon="7.32602">
        <ele>590</ele>
        <time>2020-09-06T13:38:33.253Z</time>
      </trkpt>
      <trkpt lat="48.40337" lon="7.32603">
        <ele>590</ele>
        <time>2020-09-06T13:38:34.252Z</time>
      </trkpt>
      <trkpt lat="48.40337" lon="7.32605">
        <ele>589</ele>
        <time>2020-09-06T13:38:35.253Z</time>
      </trkpt>
      <trkpt lat="48.40337" lon="7.32606">
        <ele>589</ele>
        <time>2020-09-06T13:38:36.253Z</time>
      </trkpt>
      <trkpt lat="48.40338" lon="7.32609">
        <ele>589</ele>
        <time>2020-09-06T13:38:37.252Z</time>
      </trkpt>
      <trkpt lat="48.40338" lon="7.32611">
        <ele>588</ele>
        <time>2020-09-06T13:38:38.252Z</time>
      </trkpt>
      <trkpt lat="48.40338" lon="7.32613">
        <ele>588</ele>
        <time>2020-09-06T13:38:39.252Z</time>
      </trkpt>
      <trkpt lat="48.40338" lon="7.32615">
        <ele>588</ele>
        <time>2020-09-06T13:38:40.253Z</time>
      </trkpt>
      <trkpt lat="48.40338" lon="7.32616">
        <ele>587</ele>
        <time>2020-09-06T13:38:41.253Z</time>
      </trkpt>
      <trkpt lat="48.40338" lon="7.32618">
        <ele>587</ele>
        <time>2020-09-06T13:38:42.253Z</time>
      </trkpt>
      <trkpt lat="48.40338" lon="7.3262">
        <ele>587</ele>
        <time>2020-09-06T13:38:43.253Z</time>
      </trkpt>
      <trkpt lat="48.40338" lon="7.32622">
        <ele>587</ele>
        <time>2020-09-06T13:38:44.252Z</time>
      </trkpt>
      <trkpt lat="48.40338" lon="7.32624">
        <ele>588</ele>
        <time>2020-09-06T13:38:45.253Z</time>
      </trkpt>
      <trkpt lat="48.40337" lon="7.32626">
        <ele>588</ele>
        <time>2020-09-06T13:38:46.253Z</time>
      </trkpt>
      <trkpt lat="48.40337" lon="7.32628">
        <ele>589</ele>
        <time>2020-09-06T13:38:47.253Z</time>
      </trkpt>
      <trkpt lat="48.40336" lon="7.32629">
        <ele>589</ele>
        <time>2020-09-06T13:38:48.253Z</time>
      </trkpt>
      <trkpt lat="48.40336" lon="7.3263">
        <ele>589</ele>
        <time>2020-09-06T13:38:49.253Z</time>
      </trkpt>
      <trkpt lat="48.40335" lon="7.32631">
        <ele>589</ele>
        <time>2020-09-06T13:38:50.252Z</time>
      </trkpt>
      <trkpt lat="48.40335" lon="7.32633">
        <ele>589</ele>
        <time>2020-09-06T13:38:51.253Z</time>
      </trkpt>
      <trkpt lat="48.40335" lon="7.32635">
        <ele>589</ele>
        <time>2020-09-06T13:38:52.252Z</time>
      </trkpt>
      <trkpt lat="48.40334" lon="7.32637">
        <ele>589</ele>
        <time>2020-09-06T13:38:53.253Z</time>
      </trkpt>
      <trkpt lat="48.40333" lon="7.32638">
        <ele>588</ele>
        <time>2020-09-06T13:38:54.252Z</time>
      </trkpt>
      <trkpt lat="48.40333" lon="7.3264">
        <ele>588</ele>
        <time>2020-09-06T13:38:55.252Z</time>
      </trkpt>
      <trkpt lat="48.40332" lon="7.32641">
        <ele>588</ele>
        <time>2020-09-06T13:38:56.253Z</time>
      </trkpt>
      <trkpt lat="48.40332" lon="7.32643">
        <ele>588</ele>
        <time>2020-09-06T13:38:57.253Z</time>
      </trkpt>
      <trkpt lat="48.40331" lon="7.32644">
        <ele>588</ele>
        <time>2020-09-06T13:38:58.253Z</time>
      </trkpt>
      <trkpt lat="48.4033" lon="7.32646">
        <ele>588</ele>
        <time>2020-09-06T13:38:59.252Z</time>
      </trkpt>
      <trkpt lat="48.4033" lon="7.32648">
        <ele>588</ele>
        <time>2020-09-06T13:39:00.252Z</time>
      </trkpt>
      <trkpt lat="48.4033" lon="7.32649">
        <ele>589</ele>
        <time>2020-09-06T13:39:01.252Z</time>
      </trkpt>
      <trkpt lat="48.4033" lon="7.32651">
        <ele>589</ele>
        <time>2020-09-06T13:39:02.253Z</time>
      </trkpt>
      <trkpt lat="48.40329" lon="7.32652">
        <ele>589</ele>
        <time>2020-09-06T13:39:03.253Z</time>
      </trkpt>
      <trkpt lat="48.40329" lon="7.32653">
        <ele>589</ele>
        <time>2020-09-06T13:39:04.253Z</time>
      </trkpt>
      <trkpt lat="48.40329" lon="7.32655">
        <ele>589</ele>
        <time>2020-09-06T13:39:05.252Z</time>
      </trkpt>
      <trkpt lat="48.40329" lon="7.32657">
        <ele>589</ele>
        <time>2020-09-06T13:39:06.253Z</time>
      </trkpt>
      <trkpt lat="48.40329" lon="7.32658">
        <ele>589</ele>
        <time>2020-09-06T13:39:07.253Z</time>
      </trkpt>
      <trkpt lat="48.40329" lon="7.3266">
        <ele>589</ele>
        <time>2020-09-06T13:39:08.252Z</time>
      </trkpt>
      <trkpt lat="48.40329" lon="7.32662">
        <ele>589</ele>
        <time>2020-09-06T13:39:09.253Z</time>
      </trkpt>
      <trkpt lat="48.40329" lon="7.32664">
        <ele>588</ele>
        <time>2020-09-06T13:39:10.253Z</time>
      </trkpt>
      <trkpt lat="48.40329" lon="7.32665">
        <ele>588</ele>
        <time>2020-09-06T13:39:11.253Z</time>
      </trkpt>
      <trkpt lat="48.4033" lon="7.32668">
        <ele>588</ele>
        <time>2020-09-06T13:39:12.253Z</time>
      </trkpt>
      <trkpt lat="48.4033" lon="7.32669">
        <ele>588</ele>
        <time>2020-09-06T13:39:13.253Z</time>
      </trkpt>
      <trkpt lat="48.4033" lon="7.32672">
        <ele>587</ele>
        <time>2020-09-06T13:39:14.253Z</time>
      </trkpt>
      <trkpt lat="48.4033" lon="7.32673">
        <ele>587</ele>
        <time>2020-09-06T13:39:15.253Z</time>
      </trkpt>
      <trkpt lat="48.40331" lon="7.32675">
        <ele>587</ele>
        <time>2020-09-06T13:39:16.253Z</time>
      </trkpt>
      <trkpt lat="48.40331" lon="7.32676">
        <ele>587</ele>
        <time>2020-09-06T13:39:17.253Z</time>
      </trkpt>
      <trkpt lat="48.40331" lon="7.32678">
        <ele>587</ele>
        <time>2020-09-06T13:39:18.252Z</time>
      </trkpt>
      <trkpt lat="48.40331" lon="7.32679">
        <ele>586</ele>
        <time>2020-09-06T13:39:19.253Z</time>
      </trkpt>
      <trkpt lat="48.40332" lon="7.32681">
        <ele>586</ele>
        <time>2020-09-06T13:39:20.253Z</time>
      </trkpt>
      <trkpt lat="48.40332" lon="7.32683">
        <ele>586</ele>
        <time>2020-09-06T13:39:21.253Z</time>
      </trkpt>
      <trkpt lat="48.40332" lon="7.32684">
        <ele>586</ele>
        <time>2020-09-06T13:39:22.253Z</time>
      </trkpt>
      <trkpt lat="48.40331" lon="7.32686">
        <ele>586</ele>
        <time>2020-09-06T13:39:23.252Z</time>
      </trkpt>
      <trkpt lat="48.40331" lon="7.32687">
        <ele>586</ele>
        <time>2020-09-06T13:39:24.253Z</time>
      </trkpt>
      <trkpt lat="48.40331" lon="7.32689">
        <ele>586</ele>
        <time>2020-09-06T13:39:25.253Z</time>
      </trkpt>
      <trkpt lat="48.40332" lon="7.3269">
        <ele>586</ele>
        <time>2020-09-06T13:39:26.252Z</time>
      </trkpt>
      <trkpt lat="48.40332" lon="7.32692">
        <ele>586</ele>
        <time>2020-09-06T13:39:27.252Z</time>
      </trkpt>
      <trkpt lat="48.40332" lon="7.32693">
        <ele>585</ele>
        <time>2020-09-06T13:39:28.253Z</time>
      </trkpt>
      <trkpt lat="48.40332" lon="7.32695">
        <ele>585</ele>
        <time>2020-09-06T13:39:29.252Z</time>
      </trkpt>
      <trkpt lat="48.40332" lon="7.32696">
        <ele>584</ele>
        <time>2020-09-06T13:39:30.253Z</time>
      </trkpt>
      <trkpt lat="48.40332" lon="7.32698">
        <ele>584</ele>
        <time>2020-09-06T13:39:31.253Z</time>
      </trkpt>
      <trkpt lat="48.40333" lon="7.32699">
        <ele>583</ele>
        <time>2020-09-06T13:39:32.253Z</time>
      </trkpt>
      <trkpt lat="48.40333" lon="7.32701">
        <ele>583</ele>
        <time>2020-09-06T13:39:33.253Z</time>
      </trkpt>
      <trkpt lat="48.40333" lon="7.32702">
        <ele>583</ele>
        <time>2020-09-06T13:39:34.252Z</time>
      </trkpt>
      <trkpt lat="48.40333" lon="7.32704">
        <ele>583</ele>
        <time>2020-09-06T13:39:35.252Z</time>
      </trkpt>
      <trkpt lat="48.40334" lon="7.32706">
        <ele>584</ele>
        <time>2020-09-06T13:39:36.253Z</time>
      </trkpt>
      <trkpt lat="48.40334" lon="7.32707">
        <ele>584</ele>
        <time>2020-09-06T13:39:37.253Z</time>
      </trkpt>
      <trkpt lat="48.40335" lon="7.32709">
        <ele>584</ele>
        <time>2020-09-06T13:39:38.253Z</time>
      </trkpt>
      <trkpt lat="48.40335" lon="7.3271">
        <ele>584</ele>
        <time>2020-09-06T13:39:39.252Z</time>
      </trkpt>
      <trkpt lat="48.40336" lon="7.32712">
        <ele>585</ele>
        <time>2020-09-06T13:39:40.253Z</time>
      </trkpt>
      <trkpt lat="48.40336" lon="7.32714">
        <ele>585</ele>
        <time>2020-09-06T13:39:41.253Z</time>
      </trkpt>
      <trkpt lat="48.40337" lon="7.32715">
        <ele>584</ele>
        <time>2020-09-06T13:39:42.253Z</time>
      </trkpt>
      <trkpt lat="48.40337" lon="7.32717">
        <ele>584</ele>
        <time>2020-09-06T13:39:43.253Z</time>
      </trkpt>
      <trkpt lat="48.40337" lon="7.32719">
        <ele>584</ele>
        <time>2020-09-06T13:39:44.252Z</time>
      </trkpt>
      <trkpt lat="48.40338" lon="7.3272">
        <ele>584</ele>
        <time>2020-09-06T13:39:45.252Z</time>
      </trkpt>
      <trkpt lat="48.40338" lon="7.32722">
        <ele>584</ele>
        <time>2020-09-06T13:39:46.253Z</time>
      </trkpt>
      <trkpt lat="48.40339" lon="7.32723">
        <ele>584</ele>
        <time>2020-09-06T13:39:47.253Z</time>
      </trkpt>
      <trkpt lat="48.40339" lon="7.32725">
        <ele>584</ele>
        <time>2020-09-06T13:39:48.253Z</time>
      </trkpt>
      <trkpt lat="48.40339" lon="7.32726">
        <ele>584</ele>
        <time>2020-09-06T13:39:49.253Z</time>
      </trkpt>
      <trkpt lat="48.40339" lon="7.32727">
        <ele>584</ele>
        <time>2020-09-06T13:39:50.253Z</time>
      </trkpt>
      <trkpt lat="48.4034" lon="7.32729">
        <ele>584</ele>
        <time>2020-09-06T13:39:51.253Z</time>
      </trkpt>
      <trkpt lat="48.4034" lon="7.32731">
        <ele>584</ele>
        <time>2020-09-06T13:39:52.253Z</time>
      </trkpt>
      <trkpt lat="48.40341" lon="7.32732">
        <ele>585</ele>
        <time>2020-09-06T13:39:53.253Z</time>
      </trkpt>
      <trkpt lat="48.40341" lon="7.32734">
        <ele>585</ele>
        <time>2020-09-06T13:39:54.253Z</time>
      </trkpt>
      <trkpt lat="48.40341" lon="7.32735">
        <ele>585</ele>
        <time>2020-09-06T13:39:55.253Z</time>
      </trkpt>
      <trkpt lat="48.40342" lon="7.32736">
        <ele>585</ele>
        <time>2020-09-06T13:39:56.253Z</time>
      </trkpt>
      <trkpt lat="48.40342" lon="7.32737">
        <ele>585</ele>
        <time>2020-09-06T13:39:57.252Z</time>
      </trkpt>
      <trkpt lat="48.40342" lon="7.32738">
        <ele>585</ele>
        <time>2020-09-06T13:39:58.253Z</time>
      </trkpt>
      <trkpt lat="48.40343" lon="7.32739">
        <ele>586</ele>
        <time>2020-09-06T13:39:59.253Z</time>
      </trkpt>
      <trkpt lat="48.40344" lon="7.32739">
        <ele>586</ele>
        <time>2020-09-06T13:40:00.253Z</time>
      </trkpt>
      <trkpt lat="48.40345" lon="7.32741">
        <ele>586</ele>
        <time>2020-09-06T13:40:01.253Z</time>
      </trkpt>
      <trkpt lat="48.40346" lon="7.32742">
        <ele>587</ele>
        <time>2020-09-06T13:40:02.252Z</time>
      </trkpt>
      <trkpt lat="48.40347" lon="7.32743">
        <ele>587</ele>
        <time>2020-09-06T13:40:03.253Z</time>
      </trkpt>
      <trkpt lat="48.40347" lon="7.32744">
        <ele>587</ele>
        <time>2020-09-06T13:40:04.253Z</time>
      </trkpt>
      <trkpt lat="48.40348" lon="7.32745">
        <ele>587</ele>
        <time>2020-09-06T13:40:05.253Z</time>
      </trkpt>
      <trkpt lat="48.40348" lon="7.32747">
        <ele>587</ele>
        <time>2020-09-06T13:40:06.253Z</time>
      </trkpt>
      <trkpt lat="48.40349" lon="7.32748">
        <ele>587</ele>
        <time>2020-09-06T13:40:07.252Z</time>
      </trkpt>
      <trkpt lat="48.4035" lon="7.32749">
        <ele>586</ele>
        <time>2020-09-06T13:40:08.252Z</time>
      </trkpt>
      <trkpt lat="48.4035" lon="7.3275">
        <ele>586</ele>
        <time>2020-09-06T13:40:09.253Z</time>
      </trkpt>
      <trkpt lat="48.4035" lon="7.32752">
        <ele>586</ele>
        <time>2020-09-06T13:40:10.252Z</time>
      </trkpt>
      <trkpt lat="48.40351" lon="7.32753">
        <ele>585</ele>
        <time>2020-09-06T13:40:11.252Z</time>
      </trkpt>
      <trkpt lat="48.40352" lon="7.32755">
        <ele>585</ele>
        <time>2020-09-06T13:40:12.252Z</time>
      </trkpt>
      <trkpt lat="48.40352" lon="7.32756">
        <ele>585</ele>
        <time>2020-09-06T13:40:13.253Z</time>
      </trkpt>
      <trkpt lat="48.40353" lon="7.32758">
        <ele>585</ele>
        <time>2020-09-06T13:40:14.253Z</time>
      </trkpt>
      <trkpt lat="48.40354" lon="7.32759">
        <ele>585</ele>
        <time>2020-09-06T13:40:15.253Z</time>
      </trkpt>
      <trkpt lat="48.40354" lon="7.3276">
        <ele>584</ele>
        <time>2020-09-06T13:40:16.252Z</time>
      </trkpt>
      <trkpt lat="48.40355" lon="7.32762">
        <ele>584</ele>
        <time>2020-09-06T13:40:17.252Z</time>
      </trkpt>
      <trkpt lat="48.40355" lon="7.32763">
        <ele>583</ele>
        <time>2020-09-06T13:40:18.253Z</time>
      </trkpt>
      <trkpt lat="48.40355" lon="7.32765">
        <ele>582</ele>
        <time>2020-09-06T13:40:19.253Z</time>
      </trkpt>
      <trkpt lat="48.40356" lon="7.32766">
        <ele>582</ele>
        <time>2020-09-06T13:40:20.253Z</time>
      </trkpt>
      <trkpt lat="48.40356" lon="7.32768">
        <ele>582</ele>
        <time>2020-09-06T13:40:21.253Z</time>
      </trkpt>
      <trkpt lat="48.40357" lon="7.32769">
        <ele>582</ele>
        <time>2020-09-06T13:40:22.253Z</time>
      </trkpt>
      <trkpt lat="48.40358" lon="7.32771">
        <ele>582</ele>
        <time>2020-09-06T13:40:23.253Z</time>
      </trkpt>
      <trkpt lat="48.40359" lon="7.32773">
        <ele>582</ele>
        <time>2020-09-06T13:40:24.252Z</time>
      </trkpt>
      <trkpt lat="48.4036" lon="7.32774">
        <ele>582</ele>
        <time>2020-09-06T13:40:25.253Z</time>
      </trkpt>
      <trkpt lat="48.40361" lon="7.32777">
        <ele>581</ele>
        <time>2020-09-06T13:40:26.253Z</time>
      </trkpt>
      <trkpt lat="48.40361" lon="7.32778">
        <ele>581</ele>
        <time>2020-09-06T13:40:27.252Z</time>
      </trkpt>
      <trkpt lat="48.40362" lon="7.32781">
        <ele>581</ele>
        <time>2020-09-06T13:40:28.253Z</time>
      </trkpt>
      <trkpt lat="48.40362" lon="7.32782">
        <ele>582</ele>
        <time>2020-09-06T13:40:29.253Z</time>
      </trkpt>
      <trkpt lat="48.40363" lon="7.32784">
        <ele>582</ele>
        <time>2020-09-06T13:40:30.253Z</time>
      </trkpt>
      <trkpt lat="48.40364" lon="7.32785">
        <ele>583</ele>
        <time>2020-09-06T13:40:31.252Z</time>
      </trkpt>
      <trkpt lat="48.40364" lon="7.32786">
        <ele>583</ele>
        <time>2020-09-06T13:40:32.253Z</time>
      </trkpt>
      <trkpt lat="48.40365" lon="7.32787">
        <ele>583</ele>
        <time>2020-09-06T13:40:33.253Z</time>
      </trkpt>
      <trkpt lat="48.40366" lon="7.32788">
        <ele>583</ele>
        <time>2020-09-06T13:40:34.252Z</time>
      </trkpt>
      <trkpt lat="48.40367" lon="7.3279">
        <ele>583</ele>
        <time>2020-09-06T13:40:35.253Z</time>
      </trkpt>
      <trkpt lat="48.40367" lon="7.32791">
        <ele>584</ele>
        <time>2020-09-06T13:40:36.253Z</time>
      </trkpt>
      <trkpt lat="48.40368" lon="7.32792">
        <ele>584</ele>
        <time>2020-09-06T13:40:37.252Z</time>
      </trkpt>
      <trkpt lat="48.40369" lon="7.32793">
        <ele>584</ele>
        <time>2020-09-06T13:40:38.253Z</time>
      </trkpt>
      <trkpt lat="48.40369" lon="7.32794">
        <ele>585</ele>
        <time>2020-09-06T13:40:39.253Z</time>
      </trkpt>
      <trkpt lat="48.4037" lon="7.32796">
        <ele>585</ele>
        <time>2020-09-06T13:40:40.252Z</time>
      </trkpt>
      <trkpt lat="48.40371" lon="7.32797">
        <ele>585</ele>
        <time>2020-09-06T13:40:41.252Z</time>
      </trkpt>
      <trkpt lat="48.40372" lon="7.32798">
        <ele>585</ele>
        <time>2020-09-06T13:40:42.253Z</time>
      </trkpt>
      <trkpt lat="48.40373" lon="7.32799">
        <ele>585</ele>
        <time>2020-09-06T13:40:43.253Z</time>
      </trkpt>
      <trkpt lat="48.40374" lon="7.328">
        <ele>584</ele>
        <time>2020-09-06T13:40:44.253Z</time>
      </trkpt>
      <trkpt lat="48.40374" lon="7.32802">
        <ele>584</ele>
        <time>2020-09-06T13:40:45.252Z</time>
      </trkpt>
      <trkpt lat="48.40375" lon="7.32804">
        <ele>583</ele>
        <time>2020-09-06T13:40:46.252Z</time>
      </trkpt>
      <trkpt lat="48.40376" lon="7.32805">
        <ele>583</ele>
        <time>2020-09-06T13:40:47.252Z</time>
      </trkpt>
      <trkpt lat="48.40377" lon="7.32807">
        <ele>582</ele>
        <time>2020-09-06T13:40:48.252Z</time>
      </trkpt>
      <trkpt lat="48.40378" lon="7.32809">
        <ele>580</ele>
        <time>2020-09-06T13:40:49.253Z</time>
      </trkpt>
      <trkpt lat="48.40378" lon="7.3281">
        <ele>579</ele>
        <time>2020-09-06T13:40:50.253Z</time>
      </trkpt>
      <trkpt lat="48.40379" lon="7.32812">
        <ele>579</ele>
        <time>2020-09-06T13:40:51.252Z</time>
      </trkpt>
      <trkpt lat="48.40381" lon="7.32813">
        <ele>578</ele>
        <time>2020-09-06T13:40:52.252Z</time>
      </trkpt>
      <trkpt lat="48.40382" lon="7.32815">
        <ele>577</ele>
        <time>2020-09-06T13:40:53.253Z</time>
      </trkpt>
      <trkpt lat="48.40383" lon="7.32817">
        <ele>577</ele>
        <time>2020-09-06T13:40:54.253Z</time>
      </trkpt>
      <trkpt lat="48.40383" lon="7.32818">
        <ele>577</ele>
        <time>2020-09-06T13:40:55.252Z</time>
      </trkpt>
      <trkpt lat="48.40384" lon="7.3282">
        <ele>578</ele>
        <time>2020-09-06T13:40:56.252Z</time>
      </trkpt>
      <trkpt lat="48.40384" lon="7.32821">
        <ele>578</ele>
        <time>2020-09-06T13:40:57.252Z</time>
      </trkpt>
      <trkpt lat="48.40385" lon="7.32822">
        <ele>579</ele>
        <time>2020-09-06T13:40:58.252Z</time>
      </trkpt>
      <trkpt lat="48.40385" lon="7.32822">
        <ele>579</ele>
        <time>2020-09-06T13:40:59.253Z</time>
      </trkpt>
      <trkpt lat="48.40386" lon="7.32824">
        <ele>580</ele>
        <time>2020-09-06T13:41:00.253Z</time>
      </trkpt>
      <trkpt lat="48.40386" lon="7.32825">
        <ele>580</ele>
        <time>2020-09-06T13:41:01.252Z</time>
      </trkpt>
      <trkpt lat="48.40386" lon="7.32825">
        <ele>580</ele>
        <time>2020-09-06T13:41:02.252Z</time>
      </trkpt>
      <trkpt lat="48.40387" lon="7.32826">
        <ele>580</ele>
        <time>2020-09-06T13:41:03.253Z</time>
      </trkpt>
      <trkpt lat="48.40387" lon="7.32827">
        <ele>580</ele>
        <time>2020-09-06T13:41:04.253Z</time>
      </trkpt>
      <trkpt lat="48.40388" lon="7.32828">
        <ele>580</ele>
        <time>2020-09-06T13:41:05.253Z</time>
      </trkpt>
      <trkpt lat="48.40389" lon="7.32829">
        <ele>581</ele>
        <time>2020-09-06T13:41:06.252Z</time>
      </trkpt>
      <trkpt lat="48.40389" lon="7.32831">
        <ele>581</ele>
        <time>2020-09-06T13:41:07.252Z</time>
      </trkpt>
      <trkpt lat="48.4039" lon="7.32832">
        <ele>582</ele>
        <time>2020-09-06T13:41:08.253Z</time>
      </trkpt>
      <trkpt lat="48.40391" lon="7.32833">
        <ele>582</ele>
        <time>2020-09-06T13:41:09.253Z</time>
      </trkpt>
      <trkpt lat="48.40392" lon="7.32834">
        <ele>583</ele>
        <time>2020-09-06T13:41:10.252Z</time>
      </trkpt>
      <trkpt lat="48.40392" lon="7.32836">
        <ele>583</ele>
        <time>2020-09-06T13:41:12.356Z</time>
      </trkpt>
      <trkpt lat="48.40393" lon="7.32837">
        <ele>583</ele>
        <time>2020-09-06T13:41:13.355Z</time>
      </trkpt>
      <trkpt lat="48.40393" lon="7.32837">
        <ele>583</ele>
        <time>2020-09-06T13:41:14.356Z</time>
      </trkpt>
      <trkpt lat="48.40394" lon="7.32838">
        <ele>583</ele>
        <time>2020-09-06T13:41:15.356Z</time>
      </trkpt>
      <trkpt lat="48.40395" lon="7.32837">
        <ele>583</ele>
        <time>2020-09-06T13:41:16.355Z</time>
      </trkpt>
      <trkpt lat="48.40396" lon="7.32838">
        <ele>583</ele>
        <time>2020-09-06T13:41:19.349Z</time>
      </trkpt>
      <trkpt lat="48.40396" lon="7.32839">
        <ele>583</ele>
        <time>2020-09-06T13:41:20.349Z</time>
      </trkpt>
      <trkpt lat="48.40397" lon="7.3284">
        <ele>583</ele>
        <time>2020-09-06T13:41:21.349Z</time>
      </trkpt>
      <trkpt lat="48.40398" lon="7.32841">
        <ele>583</ele>
        <time>2020-09-06T13:41:22.350Z</time>
      </trkpt>
      <trkpt lat="48.40399" lon="7.32842">
        <ele>583</ele>
        <time>2020-09-06T13:41:23.349Z</time>
      </trkpt>
      <trkpt lat="48.40399" lon="7.32843">
        <ele>583</ele>
        <time>2020-09-06T13:41:24.349Z</time>
      </trkpt>
      <trkpt lat="48.404" lon="7.32845">
        <ele>583</ele>
        <time>2020-09-06T13:41:25.349Z</time>
      </trkpt>
      <trkpt lat="48.404" lon="7.32846">
        <ele>583</ele>
        <time>2020-09-06T13:41:26.350Z</time>
      </trkpt>
      <trkpt lat="48.404" lon="7.32847">
        <ele>584</ele>
        <time>2020-09-06T13:41:27.350Z</time>
      </trkpt>
      <trkpt lat="48.40401" lon="7.32848">
        <ele>583</ele>
        <time>2020-09-06T13:41:28.350Z</time>
      </trkpt>
      <trkpt lat="48.40402" lon="7.32849">
        <ele>583</ele>
        <time>2020-09-06T13:41:29.350Z</time>
      </trkpt>
      <trkpt lat="48.40403" lon="7.3285">
        <ele>583</ele>
        <time>2020-09-06T13:41:30.349Z</time>
      </trkpt>
      <trkpt lat="48.40403" lon="7.32851">
        <ele>582</ele>
        <time>2020-09-06T13:41:31.350Z</time>
      </trkpt>
      <trkpt lat="48.40404" lon="7.32853">
        <ele>582</ele>
        <time>2020-09-06T13:41:32.350Z</time>
      </trkpt>
      <trkpt lat="48.40405" lon="7.32854">
        <ele>581</ele>
        <time>2020-09-06T13:41:33.350Z</time>
      </trkpt>
      <trkpt lat="48.40406" lon="7.32856">
        <ele>580</ele>
        <time>2020-09-06T13:41:34.349Z</time>
      </trkpt>
      <trkpt lat="48.40406" lon="7.32857">
        <ele>580</ele>
        <time>2020-09-06T13:41:35.349Z</time>
      </trkpt>
      <trkpt lat="48.40406" lon="7.32857">
        <ele>579</ele>
        <time>2020-09-06T13:41:36.350Z</time>
      </trkpt>
      <trkpt lat="48.40406" lon="7.32857">
        <ele>579</ele>
        <time>2020-09-06T13:41:37.350Z</time>
      </trkpt>
      <trkpt lat="48.40407" lon="7.32857">
        <ele>579</ele>
        <time>2020-09-06T13:41:38.349Z</time>
      </trkpt>
      <trkpt lat="48.40409" lon="7.32858">
        <ele>578</ele>
        <time>2020-09-06T13:41:39.351Z</time>
      </trkpt>
      <trkpt lat="48.4041" lon="7.32859">
        <ele>578</ele>
        <time>2020-09-06T13:41:40.351Z</time>
      </trkpt>
      <trkpt lat="48.40411" lon="7.3286">
        <ele>577</ele>
        <time>2020-09-06T13:41:41.350Z</time>
      </trkpt>
      <trkpt lat="48.40411" lon="7.3286">
        <ele>577</ele>
        <time>2020-09-06T13:41:42.350Z</time>
      </trkpt>
    </trkseg>
  </trk>
</gpx>